<?xml version="1.0" encoding="UTF-8" standalone="no" ?>
<gpx xmlns="http://www.topografix.com/GPX/1/1" xmlns:xsi="http://www.w3.org/2001/XMLSchema-instance" xsi:schemaLocation="http://www.topografix.com/GPX/1/1 http://www.topografix.com/GPX/1/1/gpx.xsd" version="1.1" creator="VisuGPX - https://www.visugpx.com">
  <metadata>
    <name>Sens pont</name>
    <desc><![CDATA[Sortie du 20/04. Avec Jacques et son pédalier magique]]></desc>
  </metadata>
  <trk>
    <name><![CDATA[20/04/2014 8:51]]></name>
    <desc><![CDATA[]]></desc>
    <trkseg>
      <trkpt lat="48.20407" lon="3.27242">
        <ele>66</ele>
        <time>2014-04-20T06:54:34.979Z</time>
      </trkpt>
      <trkpt lat="48.20431" lon="3.27221">
        <ele>66</ele>
        <time>2014-04-20T06:54:35.979Z</time>
      </trkpt>
      <trkpt lat="48.20447" lon="3.27206">
        <ele>65</ele>
        <time>2014-04-20T06:54:36.979Z</time>
      </trkpt>
      <trkpt lat="48.20459" lon="3.27195">
        <ele>65</ele>
        <time>2014-04-20T06:54:37.979Z</time>
      </trkpt>
      <trkpt lat="48.20459" lon="3.27195">
        <ele>65</ele>
        <time>2014-04-20T06:54:38.979Z</time>
      </trkpt>
      <trkpt lat="48.20466" lon="3.27187">
        <ele>65</ele>
        <time>2014-04-20T06:54:39.979Z</time>
      </trkpt>
      <trkpt lat="48.20466" lon="3.27187">
        <ele>65</ele>
        <time>2014-04-20T06:54:40.979Z</time>
      </trkpt>
      <trkpt lat="48.2048" lon="3.27174">
        <ele>65</ele>
        <time>2014-04-20T06:54:41.979Z</time>
      </trkpt>
      <trkpt lat="48.2048" lon="3.27174">
        <ele>65</ele>
        <time>2014-04-20T06:54:42.979Z</time>
      </trkpt>
      <trkpt lat="48.20472" lon="3.27187">
        <ele>65</ele>
        <time>2014-04-20T06:54:43.979Z</time>
      </trkpt>
      <trkpt lat="48.20491" lon="3.27174">
        <ele>65</ele>
        <time>2014-04-20T06:54:44.979Z</time>
      </trkpt>
      <trkpt lat="48.20508" lon="3.27163">
        <ele>65</ele>
        <time>2014-04-20T06:54:45.979Z</time>
      </trkpt>
      <trkpt lat="48.20522" lon="3.27154">
        <ele>65</ele>
        <time>2014-04-20T06:54:46.979Z</time>
      </trkpt>
      <trkpt lat="48.2053" lon="3.2715">
        <ele>65</ele>
        <time>2014-04-20T06:54:47.979Z</time>
      </trkpt>
      <trkpt lat="48.20539" lon="3.27146">
        <ele>65</ele>
        <time>2014-04-20T06:54:48.979Z</time>
      </trkpt>
      <trkpt lat="48.20548" lon="3.27142">
        <ele>65</ele>
        <time>2014-04-20T06:54:49.979Z</time>
      </trkpt>
      <trkpt lat="48.20555" lon="3.27137">
        <ele>65</ele>
        <time>2014-04-20T06:54:50.979Z</time>
      </trkpt>
      <trkpt lat="48.20563" lon="3.27133">
        <ele>65</ele>
        <time>2014-04-20T06:54:51.979Z</time>
      </trkpt>
      <trkpt lat="48.2057" lon="3.27127">
        <ele>65</ele>
        <time>2014-04-20T06:54:52.979Z</time>
      </trkpt>
      <trkpt lat="48.20579" lon="3.27122">
        <ele>66</ele>
        <time>2014-04-20T06:54:53.979Z</time>
      </trkpt>
      <trkpt lat="48.20585" lon="3.27118">
        <ele>66</ele>
        <time>2014-04-20T06:54:54.979Z</time>
      </trkpt>
      <trkpt lat="48.20592" lon="3.27114">
        <ele>66</ele>
        <time>2014-04-20T06:54:55.979Z</time>
      </trkpt>
      <trkpt lat="48.20598" lon="3.27111">
        <ele>66</ele>
        <time>2014-04-20T06:54:56.979Z</time>
      </trkpt>
      <trkpt lat="48.20604" lon="3.27107">
        <ele>66</ele>
        <time>2014-04-20T06:54:57.979Z</time>
      </trkpt>
      <trkpt lat="48.2061" lon="3.27105">
        <ele>66</ele>
        <time>2014-04-20T06:54:58.979Z</time>
      </trkpt>
      <trkpt lat="48.20615" lon="3.27101">
        <ele>66</ele>
        <time>2014-04-20T06:54:59.979Z</time>
      </trkpt>
      <trkpt lat="48.20622" lon="3.27099">
        <ele>66</ele>
        <time>2014-04-20T06:55:00.979Z</time>
      </trkpt>
      <trkpt lat="48.20627" lon="3.27096">
        <ele>66</ele>
        <time>2014-04-20T06:55:01.979Z</time>
      </trkpt>
      <trkpt lat="48.20633" lon="3.27094">
        <ele>66</ele>
        <time>2014-04-20T06:55:02.979Z</time>
      </trkpt>
      <trkpt lat="48.20639" lon="3.2709">
        <ele>66</ele>
        <time>2014-04-20T06:55:03.979Z</time>
      </trkpt>
      <trkpt lat="48.20644" lon="3.27088">
        <ele>66</ele>
        <time>2014-04-20T06:55:04.979Z</time>
      </trkpt>
      <trkpt lat="48.20651" lon="3.27086">
        <ele>66</ele>
        <time>2014-04-20T06:55:05.979Z</time>
      </trkpt>
      <trkpt lat="48.20656" lon="3.27081">
        <ele>66</ele>
        <time>2014-04-20T06:55:06.979Z</time>
      </trkpt>
      <trkpt lat="48.20661" lon="3.27079">
        <ele>66</ele>
        <time>2014-04-20T06:55:07.979Z</time>
      </trkpt>
      <trkpt lat="48.20667" lon="3.27077">
        <ele>66</ele>
        <time>2014-04-20T06:55:08.979Z</time>
      </trkpt>
      <trkpt lat="48.20672" lon="3.27073">
        <ele>66</ele>
        <time>2014-04-20T06:55:09.979Z</time>
      </trkpt>
      <trkpt lat="48.20677" lon="3.27069">
        <ele>65</ele>
        <time>2014-04-20T06:55:10.979Z</time>
      </trkpt>
      <trkpt lat="48.20683" lon="3.27066">
        <ele>65</ele>
        <time>2014-04-20T06:55:11.979Z</time>
      </trkpt>
      <trkpt lat="48.20687" lon="3.27062">
        <ele>65</ele>
        <time>2014-04-20T06:55:12.979Z</time>
      </trkpt>
      <trkpt lat="48.20692" lon="3.2706">
        <ele>65</ele>
        <time>2014-04-20T06:55:13.979Z</time>
      </trkpt>
      <trkpt lat="48.20698" lon="3.27056">
        <ele>65</ele>
        <time>2014-04-20T06:55:14.979Z</time>
      </trkpt>
      <trkpt lat="48.20703" lon="3.27051">
        <ele>65</ele>
        <time>2014-04-20T06:55:15.979Z</time>
      </trkpt>
      <trkpt lat="48.20709" lon="3.27047">
        <ele>65</ele>
        <time>2014-04-20T06:55:16.979Z</time>
      </trkpt>
      <trkpt lat="48.20714" lon="3.27045">
        <ele>65</ele>
        <time>2014-04-20T06:55:17.979Z</time>
      </trkpt>
      <trkpt lat="48.20719" lon="3.27039">
        <ele>65</ele>
        <time>2014-04-20T06:55:18.979Z</time>
      </trkpt>
      <trkpt lat="48.20725" lon="3.27034">
        <ele>64</ele>
        <time>2014-04-20T06:55:19.979Z</time>
      </trkpt>
      <trkpt lat="48.2073" lon="3.2703">
        <ele>64</ele>
        <time>2014-04-20T06:55:20.979Z</time>
      </trkpt>
      <trkpt lat="48.20734" lon="3.27026">
        <ele>64</ele>
        <time>2014-04-20T06:55:21.979Z</time>
      </trkpt>
      <trkpt lat="48.2074" lon="3.27019">
        <ele>64</ele>
        <time>2014-04-20T06:55:22.979Z</time>
      </trkpt>
      <trkpt lat="48.20744" lon="3.27015">
        <ele>64</ele>
        <time>2014-04-20T06:55:23.979Z</time>
      </trkpt>
      <trkpt lat="48.20748" lon="3.27008">
        <ele>64</ele>
        <time>2014-04-20T06:55:24.979Z</time>
      </trkpt>
      <trkpt lat="48.20754" lon="3.27002">
        <ele>63</ele>
        <time>2014-04-20T06:55:25.979Z</time>
      </trkpt>
      <trkpt lat="48.20758" lon="3.26996">
        <ele>63</ele>
        <time>2014-04-20T06:55:26.979Z</time>
      </trkpt>
      <trkpt lat="48.20762" lon="3.26991">
        <ele>64</ele>
        <time>2014-04-20T06:55:27.979Z</time>
      </trkpt>
      <trkpt lat="48.20766" lon="3.26985">
        <ele>64</ele>
        <time>2014-04-20T06:55:28.979Z</time>
      </trkpt>
      <trkpt lat="48.20771" lon="3.26978">
        <ele>64</ele>
        <time>2014-04-20T06:55:29.979Z</time>
      </trkpt>
      <trkpt lat="48.20775" lon="3.2697">
        <ele>64</ele>
        <time>2014-04-20T06:55:30.979Z</time>
      </trkpt>
      <trkpt lat="48.20779" lon="3.26963">
        <ele>64</ele>
        <time>2014-04-20T06:55:31.979Z</time>
      </trkpt>
      <trkpt lat="48.20784" lon="3.26957">
        <ele>64</ele>
        <time>2014-04-20T06:55:32.979Z</time>
      </trkpt>
      <trkpt lat="48.20788" lon="3.26951">
        <ele>64</ele>
        <time>2014-04-20T06:55:33.979Z</time>
      </trkpt>
      <trkpt lat="48.20792" lon="3.26944">
        <ele>64</ele>
        <time>2014-04-20T06:55:34.979Z</time>
      </trkpt>
      <trkpt lat="48.20798" lon="3.2694">
        <ele>65</ele>
        <time>2014-04-20T06:55:35.979Z</time>
      </trkpt>
      <trkpt lat="48.20802" lon="3.26933">
        <ele>65</ele>
        <time>2014-04-20T06:55:36.979Z</time>
      </trkpt>
      <trkpt lat="48.20806" lon="3.26927">
        <ele>65</ele>
        <time>2014-04-20T06:55:37.979Z</time>
      </trkpt>
      <trkpt lat="48.2081" lon="3.26921">
        <ele>65</ele>
        <time>2014-04-20T06:55:38.979Z</time>
      </trkpt>
      <trkpt lat="48.20815" lon="3.26914">
        <ele>66</ele>
        <time>2014-04-20T06:55:39.979Z</time>
      </trkpt>
      <trkpt lat="48.20819" lon="3.26908">
        <ele>66</ele>
        <time>2014-04-20T06:55:40.979Z</time>
      </trkpt>
      <trkpt lat="48.20823" lon="3.26901">
        <ele>66</ele>
        <time>2014-04-20T06:55:41.979Z</time>
      </trkpt>
      <trkpt lat="48.20828" lon="3.26895">
        <ele>66</ele>
        <time>2014-04-20T06:55:42.979Z</time>
      </trkpt>
      <trkpt lat="48.20832" lon="3.26888">
        <ele>66</ele>
        <time>2014-04-20T06:55:43.979Z</time>
      </trkpt>
      <trkpt lat="48.20836" lon="3.26882">
        <ele>65</ele>
        <time>2014-04-20T06:55:44.979Z</time>
      </trkpt>
      <trkpt lat="48.20842" lon="3.26875">
        <ele>65</ele>
        <time>2014-04-20T06:55:45.979Z</time>
      </trkpt>
      <trkpt lat="48.20846" lon="3.26869">
        <ele>65</ele>
        <time>2014-04-20T06:55:46.979Z</time>
      </trkpt>
      <trkpt lat="48.2085" lon="3.26863">
        <ele>65</ele>
        <time>2014-04-20T06:55:47.979Z</time>
      </trkpt>
      <trkpt lat="48.20854" lon="3.26856">
        <ele>65</ele>
        <time>2014-04-20T06:55:48.979Z</time>
      </trkpt>
      <trkpt lat="48.20859" lon="3.2685">
        <ele>65</ele>
        <time>2014-04-20T06:55:49.979Z</time>
      </trkpt>
      <trkpt lat="48.20863" lon="3.26843">
        <ele>65</ele>
        <time>2014-04-20T06:55:50.979Z</time>
      </trkpt>
      <trkpt lat="48.20867" lon="3.26837">
        <ele>65</ele>
        <time>2014-04-20T06:55:51.979Z</time>
      </trkpt>
      <trkpt lat="48.20872" lon="3.2683">
        <ele>65</ele>
        <time>2014-04-20T06:55:52.979Z</time>
      </trkpt>
      <trkpt lat="48.20877" lon="3.26824">
        <ele>64</ele>
        <time>2014-04-20T06:55:53.979Z</time>
      </trkpt>
      <trkpt lat="48.20881" lon="3.26818">
        <ele>64</ele>
        <time>2014-04-20T06:55:54.979Z</time>
      </trkpt>
      <trkpt lat="48.20886" lon="3.26811">
        <ele>64</ele>
        <time>2014-04-20T06:55:55.979Z</time>
      </trkpt>
      <trkpt lat="48.20891" lon="3.26805">
        <ele>64</ele>
        <time>2014-04-20T06:55:56.979Z</time>
      </trkpt>
      <trkpt lat="48.20895" lon="3.26798">
        <ele>64</ele>
        <time>2014-04-20T06:55:57.979Z</time>
      </trkpt>
      <trkpt lat="48.20899" lon="3.26792">
        <ele>64</ele>
        <time>2014-04-20T06:55:58.979Z</time>
      </trkpt>
      <trkpt lat="48.20905" lon="3.26785">
        <ele>64</ele>
        <time>2014-04-20T06:55:59.979Z</time>
      </trkpt>
      <trkpt lat="48.20909" lon="3.26779">
        <ele>64</ele>
        <time>2014-04-20T06:56:00.979Z</time>
      </trkpt>
      <trkpt lat="48.20913" lon="3.26772">
        <ele>64</ele>
        <time>2014-04-20T06:56:01.979Z</time>
      </trkpt>
      <trkpt lat="48.20918" lon="3.26766">
        <ele>64</ele>
        <time>2014-04-20T06:56:02.979Z</time>
      </trkpt>
      <trkpt lat="48.20923" lon="3.2676">
        <ele>64</ele>
        <time>2014-04-20T06:56:03.979Z</time>
      </trkpt>
      <trkpt lat="48.20927" lon="3.26753">
        <ele>64</ele>
        <time>2014-04-20T06:56:04.979Z</time>
      </trkpt>
      <trkpt lat="48.20932" lon="3.26745">
        <ele>64</ele>
        <time>2014-04-20T06:56:05.979Z</time>
      </trkpt>
      <trkpt lat="48.20935" lon="3.26738">
        <ele>64</ele>
        <time>2014-04-20T06:56:06.979Z</time>
      </trkpt>
      <trkpt lat="48.20939" lon="3.26732">
        <ele>65</ele>
        <time>2014-04-20T06:56:07.979Z</time>
      </trkpt>
      <trkpt lat="48.20942" lon="3.26725">
        <ele>65</ele>
        <time>2014-04-20T06:56:08.979Z</time>
      </trkpt>
      <trkpt lat="48.20946" lon="3.26717">
        <ele>65</ele>
        <time>2014-04-20T06:56:09.979Z</time>
      </trkpt>
      <trkpt lat="48.20949" lon="3.26708">
        <ele>65</ele>
        <time>2014-04-20T06:56:10.979Z</time>
      </trkpt>
      <trkpt lat="48.20951" lon="3.26699">
        <ele>65</ele>
        <time>2014-04-20T06:56:11.979Z</time>
      </trkpt>
      <trkpt lat="48.20953" lon="3.26691">
        <ele>65</ele>
        <time>2014-04-20T06:56:12.979Z</time>
      </trkpt>
      <trkpt lat="48.20955" lon="3.26682">
        <ele>65</ele>
        <time>2014-04-20T06:56:13.979Z</time>
      </trkpt>
      <trkpt lat="48.20957" lon="3.26674">
        <ele>65</ele>
        <time>2014-04-20T06:56:14.979Z</time>
      </trkpt>
      <trkpt lat="48.2096" lon="3.26665">
        <ele>65</ele>
        <time>2014-04-20T06:56:15.979Z</time>
      </trkpt>
      <trkpt lat="48.20962" lon="3.26657">
        <ele>65</ele>
        <time>2014-04-20T06:56:16.979Z</time>
      </trkpt>
      <trkpt lat="48.20963" lon="3.2665">
        <ele>65</ele>
        <time>2014-04-20T06:56:17.979Z</time>
      </trkpt>
      <trkpt lat="48.20963" lon="3.26642">
        <ele>65</ele>
        <time>2014-04-20T06:56:18.979Z</time>
      </trkpt>
      <trkpt lat="48.20963" lon="3.26635">
        <ele>65</ele>
        <time>2014-04-20T06:56:19.979Z</time>
      </trkpt>
      <trkpt lat="48.20963" lon="3.26627">
        <ele>65</ele>
        <time>2014-04-20T06:56:20.979Z</time>
      </trkpt>
      <trkpt lat="48.20963" lon="3.2662">
        <ele>65</ele>
        <time>2014-04-20T06:56:21.979Z</time>
      </trkpt>
      <trkpt lat="48.20964" lon="3.26612">
        <ele>65</ele>
        <time>2014-04-20T06:56:22.979Z</time>
      </trkpt>
      <trkpt lat="48.20964" lon="3.26605">
        <ele>65</ele>
        <time>2014-04-20T06:56:23.979Z</time>
      </trkpt>
      <trkpt lat="48.20964" lon="3.26596">
        <ele>65</ele>
        <time>2014-04-20T06:56:24.979Z</time>
      </trkpt>
      <trkpt lat="48.20965" lon="3.2659">
        <ele>65</ele>
        <time>2014-04-20T06:56:25.979Z</time>
      </trkpt>
      <trkpt lat="48.20965" lon="3.26584">
        <ele>65</ele>
        <time>2014-04-20T06:56:26.979Z</time>
      </trkpt>
      <trkpt lat="48.20967" lon="3.26577">
        <ele>65</ele>
        <time>2014-04-20T06:56:27.979Z</time>
      </trkpt>
      <trkpt lat="48.2097" lon="3.26573">
        <ele>65</ele>
        <time>2014-04-20T06:56:28.979Z</time>
      </trkpt>
      <trkpt lat="48.20974" lon="3.26571">
        <ele>65</ele>
        <time>2014-04-20T06:56:29.979Z</time>
      </trkpt>
      <trkpt lat="48.20978" lon="3.26571">
        <ele>65</ele>
        <time>2014-04-20T06:56:30.979Z</time>
      </trkpt>
      <trkpt lat="48.20983" lon="3.26571">
        <ele>65</ele>
        <time>2014-04-20T06:56:31.979Z</time>
      </trkpt>
      <trkpt lat="48.20989" lon="3.26573">
        <ele>65</ele>
        <time>2014-04-20T06:56:32.979Z</time>
      </trkpt>
      <trkpt lat="48.20994" lon="3.26575">
        <ele>65</ele>
        <time>2014-04-20T06:56:33.979Z</time>
      </trkpt>
      <trkpt lat="48.20998" lon="3.26577">
        <ele>65</ele>
        <time>2014-04-20T06:56:34.979Z</time>
      </trkpt>
      <trkpt lat="48.21001" lon="3.26581">
        <ele>65</ele>
        <time>2014-04-20T06:56:35.979Z</time>
      </trkpt>
      <trkpt lat="48.21006" lon="3.26584">
        <ele>65</ele>
        <time>2014-04-20T06:56:36.979Z</time>
      </trkpt>
      <trkpt lat="48.21011" lon="3.26586">
        <ele>65</ele>
        <time>2014-04-20T06:56:37.979Z</time>
      </trkpt>
      <trkpt lat="48.21015" lon="3.26588">
        <ele>65</ele>
        <time>2014-04-20T06:56:38.979Z</time>
      </trkpt>
      <trkpt lat="48.2102" lon="3.2659">
        <ele>65</ele>
        <time>2014-04-20T06:56:39.979Z</time>
      </trkpt>
      <trkpt lat="48.21024" lon="3.26592">
        <ele>65</ele>
        <time>2014-04-20T06:56:40.979Z</time>
      </trkpt>
      <trkpt lat="48.21028" lon="3.26594">
        <ele>65</ele>
        <time>2014-04-20T06:56:41.979Z</time>
      </trkpt>
      <trkpt lat="48.21033" lon="3.26596">
        <ele>65</ele>
        <time>2014-04-20T06:56:42.979Z</time>
      </trkpt>
      <trkpt lat="48.21038" lon="3.26599">
        <ele>65</ele>
        <time>2014-04-20T06:56:43.979Z</time>
      </trkpt>
      <trkpt lat="48.21042" lon="3.26601">
        <ele>65</ele>
        <time>2014-04-20T06:56:44.979Z</time>
      </trkpt>
      <trkpt lat="48.21048" lon="3.26603">
        <ele>65</ele>
        <time>2014-04-20T06:56:45.979Z</time>
      </trkpt>
      <trkpt lat="48.21052" lon="3.26603">
        <ele>65</ele>
        <time>2014-04-20T06:56:46.979Z</time>
      </trkpt>
      <trkpt lat="48.21057" lon="3.26605">
        <ele>65</ele>
        <time>2014-04-20T06:56:47.979Z</time>
      </trkpt>
      <trkpt lat="48.21063" lon="3.26605">
        <ele>65</ele>
        <time>2014-04-20T06:56:48.979Z</time>
      </trkpt>
      <trkpt lat="48.21067" lon="3.26605">
        <ele>65</ele>
        <time>2014-04-20T06:56:49.979Z</time>
      </trkpt>
      <trkpt lat="48.21072" lon="3.26607">
        <ele>65</ele>
        <time>2014-04-20T06:56:50.979Z</time>
      </trkpt>
      <trkpt lat="48.21078" lon="3.26607">
        <ele>65</ele>
        <time>2014-04-20T06:56:51.979Z</time>
      </trkpt>
      <trkpt lat="48.21082" lon="3.26607">
        <ele>65</ele>
        <time>2014-04-20T06:56:52.979Z</time>
      </trkpt>
      <trkpt lat="48.21087" lon="3.26607">
        <ele>65</ele>
        <time>2014-04-20T06:56:53.979Z</time>
      </trkpt>
      <trkpt lat="48.21092" lon="3.26605">
        <ele>65</ele>
        <time>2014-04-20T06:56:54.979Z</time>
      </trkpt>
      <trkpt lat="48.21096" lon="3.26605">
        <ele>65</ele>
        <time>2014-04-20T06:56:55.979Z</time>
      </trkpt>
      <trkpt lat="48.211" lon="3.26605">
        <ele>65</ele>
        <time>2014-04-20T06:56:56.979Z</time>
      </trkpt>
      <trkpt lat="48.21104" lon="3.26603">
        <ele>65</ele>
        <time>2014-04-20T06:56:57.979Z</time>
      </trkpt>
      <trkpt lat="48.21109" lon="3.26603">
        <ele>65</ele>
        <time>2014-04-20T06:56:58.979Z</time>
      </trkpt>
      <trkpt lat="48.21113" lon="3.26601">
        <ele>65</ele>
        <time>2014-04-20T06:56:59.979Z</time>
      </trkpt>
      <trkpt lat="48.21117" lon="3.26599">
        <ele>65</ele>
        <time>2014-04-20T06:57:00.979Z</time>
      </trkpt>
      <trkpt lat="48.21122" lon="3.26596">
        <ele>65</ele>
        <time>2014-04-20T06:57:01.979Z</time>
      </trkpt>
      <trkpt lat="48.21126" lon="3.26594">
        <ele>65</ele>
        <time>2014-04-20T06:57:02.979Z</time>
      </trkpt>
      <trkpt lat="48.2113" lon="3.26592">
        <ele>65</ele>
        <time>2014-04-20T06:57:03.979Z</time>
      </trkpt>
      <trkpt lat="48.21134" lon="3.2659">
        <ele>65</ele>
        <time>2014-04-20T06:57:04.979Z</time>
      </trkpt>
      <trkpt lat="48.21139" lon="3.26586">
        <ele>65</ele>
        <time>2014-04-20T06:57:05.979Z</time>
      </trkpt>
      <trkpt lat="48.21143" lon="3.26584">
        <ele>65</ele>
        <time>2014-04-20T06:57:06.979Z</time>
      </trkpt>
      <trkpt lat="48.21147" lon="3.26581">
        <ele>66</ele>
        <time>2014-04-20T06:57:07.979Z</time>
      </trkpt>
      <trkpt lat="48.21153" lon="3.26577">
        <ele>66</ele>
        <time>2014-04-20T06:57:08.979Z</time>
      </trkpt>
      <trkpt lat="48.21157" lon="3.26573">
        <ele>66</ele>
        <time>2014-04-20T06:57:09.979Z</time>
      </trkpt>
      <trkpt lat="48.21161" lon="3.26569">
        <ele>66</ele>
        <time>2014-04-20T06:57:10.979Z</time>
      </trkpt>
      <trkpt lat="48.21166" lon="3.26564">
        <ele>66</ele>
        <time>2014-04-20T06:57:11.979Z</time>
      </trkpt>
      <trkpt lat="48.21169" lon="3.2656">
        <ele>66</ele>
        <time>2014-04-20T06:57:12.979Z</time>
      </trkpt>
      <trkpt lat="48.21173" lon="3.26556">
        <ele>66</ele>
        <time>2014-04-20T06:57:13.979Z</time>
      </trkpt>
      <trkpt lat="48.21177" lon="3.26551">
        <ele>66</ele>
        <time>2014-04-20T06:57:14.979Z</time>
      </trkpt>
      <trkpt lat="48.21181" lon="3.26545">
        <ele>66</ele>
        <time>2014-04-20T06:57:15.979Z</time>
      </trkpt>
      <trkpt lat="48.21185" lon="3.26541">
        <ele>66</ele>
        <time>2014-04-20T06:57:16.979Z</time>
      </trkpt>
      <trkpt lat="48.21188" lon="3.26536">
        <ele>66</ele>
        <time>2014-04-20T06:57:17.979Z</time>
      </trkpt>
      <trkpt lat="48.21191" lon="3.2653">
        <ele>67</ele>
        <time>2014-04-20T06:57:18.979Z</time>
      </trkpt>
      <trkpt lat="48.21196" lon="3.26526">
        <ele>67</ele>
        <time>2014-04-20T06:57:19.979Z</time>
      </trkpt>
      <trkpt lat="48.21199" lon="3.26521">
        <ele>67</ele>
        <time>2014-04-20T06:57:20.979Z</time>
      </trkpt>
      <trkpt lat="48.21201" lon="3.26515">
        <ele>67</ele>
        <time>2014-04-20T06:57:21.979Z</time>
      </trkpt>
      <trkpt lat="48.21204" lon="3.26511">
        <ele>67</ele>
        <time>2014-04-20T06:57:22.979Z</time>
      </trkpt>
      <trkpt lat="48.21206" lon="3.26506">
        <ele>67</ele>
        <time>2014-04-20T06:57:23.979Z</time>
      </trkpt>
      <trkpt lat="48.21208" lon="3.265">
        <ele>73</ele>
        <time>2014-04-20T06:57:24.979Z</time>
      </trkpt>
      <trkpt lat="48.21212" lon="3.26496">
        <ele>73</ele>
        <time>2014-04-20T06:57:25.979Z</time>
      </trkpt>
      <trkpt lat="48.21213" lon="3.26494">
        <ele>73</ele>
        <time>2014-04-20T06:57:26.979Z</time>
      </trkpt>
      <trkpt lat="48.21215" lon="3.26489">
        <ele>73</ele>
        <time>2014-04-20T06:57:27.979Z</time>
      </trkpt>
      <trkpt lat="48.21217" lon="3.26485">
        <ele>73</ele>
        <time>2014-04-20T06:57:28.979Z</time>
      </trkpt>
      <trkpt lat="48.21219" lon="3.26481">
        <ele>73</ele>
        <time>2014-04-20T06:57:29.979Z</time>
      </trkpt>
      <trkpt lat="48.21221" lon="3.26476">
        <ele>74</ele>
        <time>2014-04-20T06:57:30.979Z</time>
      </trkpt>
      <trkpt lat="48.21223" lon="3.26472">
        <ele>74</ele>
        <time>2014-04-20T06:57:31.979Z</time>
      </trkpt>
      <trkpt lat="48.21227" lon="3.26468">
        <ele>74</ele>
        <time>2014-04-20T06:57:32.979Z</time>
      </trkpt>
      <trkpt lat="48.21229" lon="3.26463">
        <ele>75</ele>
        <time>2014-04-20T06:57:33.979Z</time>
      </trkpt>
      <trkpt lat="48.21232" lon="3.26459">
        <ele>75</ele>
        <time>2014-04-20T06:57:34.979Z</time>
      </trkpt>
      <trkpt lat="48.21236" lon="3.26455">
        <ele>76</ele>
        <time>2014-04-20T06:57:35.979Z</time>
      </trkpt>
      <trkpt lat="48.2124" lon="3.26453">
        <ele>76</ele>
        <time>2014-04-20T06:57:36.979Z</time>
      </trkpt>
      <trkpt lat="48.21244" lon="3.26448">
        <ele>76</ele>
        <time>2014-04-20T06:57:37.979Z</time>
      </trkpt>
      <trkpt lat="48.21248" lon="3.26446">
        <ele>77</ele>
        <time>2014-04-20T06:57:38.979Z</time>
      </trkpt>
      <trkpt lat="48.21252" lon="3.26442">
        <ele>74</ele>
        <time>2014-04-20T06:57:39.979Z</time>
      </trkpt>
      <trkpt lat="48.21256" lon="3.2644">
        <ele>75</ele>
        <time>2014-04-20T06:57:40.979Z</time>
      </trkpt>
      <trkpt lat="48.2126" lon="3.26438">
        <ele>75</ele>
        <time>2014-04-20T06:57:41.979Z</time>
      </trkpt>
      <trkpt lat="48.21264" lon="3.26436">
        <ele>75</ele>
        <time>2014-04-20T06:57:42.979Z</time>
      </trkpt>
      <trkpt lat="48.21269" lon="3.26433">
        <ele>75</ele>
        <time>2014-04-20T06:57:43.979Z</time>
      </trkpt>
      <trkpt lat="48.21273" lon="3.26431">
        <ele>74</ele>
        <time>2014-04-20T06:57:44.979Z</time>
      </trkpt>
      <trkpt lat="48.21278" lon="3.26429">
        <ele>74</ele>
        <time>2014-04-20T06:57:45.979Z</time>
      </trkpt>
      <trkpt lat="48.21284" lon="3.26429">
        <ele>73</ele>
        <time>2014-04-20T06:57:46.979Z</time>
      </trkpt>
      <trkpt lat="48.21289" lon="3.26429">
        <ele>73</ele>
        <time>2014-04-20T06:57:47.979Z</time>
      </trkpt>
      <trkpt lat="48.21294" lon="3.26429">
        <ele>73</ele>
        <time>2014-04-20T06:57:48.979Z</time>
      </trkpt>
      <trkpt lat="48.21299" lon="3.26429">
        <ele>72</ele>
        <time>2014-04-20T06:57:49.979Z</time>
      </trkpt>
      <trkpt lat="48.21304" lon="3.26431">
        <ele>72</ele>
        <time>2014-04-20T06:57:50.979Z</time>
      </trkpt>
      <trkpt lat="48.21309" lon="3.26431">
        <ele>72</ele>
        <time>2014-04-20T06:57:51.979Z</time>
      </trkpt>
      <trkpt lat="48.21314" lon="3.26431">
        <ele>72</ele>
        <time>2014-04-20T06:57:52.979Z</time>
      </trkpt>
      <trkpt lat="48.21319" lon="3.26431">
        <ele>72</ele>
        <time>2014-04-20T06:57:53.979Z</time>
      </trkpt>
      <trkpt lat="48.21324" lon="3.26431">
        <ele>72</ele>
        <time>2014-04-20T06:57:54.979Z</time>
      </trkpt>
      <trkpt lat="48.2133" lon="3.26431">
        <ele>72</ele>
        <time>2014-04-20T06:57:55.979Z</time>
      </trkpt>
      <trkpt lat="48.21334" lon="3.26431">
        <ele>70</ele>
        <time>2014-04-20T06:57:56.979Z</time>
      </trkpt>
      <trkpt lat="48.21339" lon="3.26431">
        <ele>70</ele>
        <time>2014-04-20T06:57:57.979Z</time>
      </trkpt>
      <trkpt lat="48.21345" lon="3.26431">
        <ele>70</ele>
        <time>2014-04-20T06:57:58.979Z</time>
      </trkpt>
      <trkpt lat="48.2135" lon="3.26429">
        <ele>70</ele>
        <time>2014-04-20T06:57:59.979Z</time>
      </trkpt>
      <trkpt lat="48.21354" lon="3.26429">
        <ele>69</ele>
        <time>2014-04-20T06:58:00.979Z</time>
      </trkpt>
      <trkpt lat="48.2136" lon="3.26427">
        <ele>69</ele>
        <time>2014-04-20T06:58:01.979Z</time>
      </trkpt>
      <trkpt lat="48.21364" lon="3.26427">
        <ele>69</ele>
        <time>2014-04-20T06:58:02.979Z</time>
      </trkpt>
      <trkpt lat="48.21369" lon="3.26425">
        <ele>69</ele>
        <time>2014-04-20T06:58:03.979Z</time>
      </trkpt>
      <trkpt lat="48.21375" lon="3.26425">
        <ele>69</ele>
        <time>2014-04-20T06:58:04.979Z</time>
      </trkpt>
      <trkpt lat="48.2138" lon="3.26425">
        <ele>68</ele>
        <time>2014-04-20T06:58:05.979Z</time>
      </trkpt>
      <trkpt lat="48.21384" lon="3.26423">
        <ele>68</ele>
        <time>2014-04-20T06:58:06.979Z</time>
      </trkpt>
      <trkpt lat="48.2139" lon="3.26423">
        <ele>68</ele>
        <time>2014-04-20T06:58:07.979Z</time>
      </trkpt>
      <trkpt lat="48.21395" lon="3.26423">
        <ele>68</ele>
        <time>2014-04-20T06:58:08.979Z</time>
      </trkpt>
      <trkpt lat="48.21402" lon="3.26423">
        <ele>68</ele>
        <time>2014-04-20T06:58:09.979Z</time>
      </trkpt>
      <trkpt lat="48.21407" lon="3.26421">
        <ele>69</ele>
        <time>2014-04-20T06:58:10.979Z</time>
      </trkpt>
      <trkpt lat="48.21412" lon="3.26421">
        <ele>69</ele>
        <time>2014-04-20T06:58:11.979Z</time>
      </trkpt>
      <trkpt lat="48.21419" lon="3.26421">
        <ele>69</ele>
        <time>2014-04-20T06:58:12.979Z</time>
      </trkpt>
      <trkpt lat="48.21424" lon="3.26418">
        <ele>68</ele>
        <time>2014-04-20T06:58:13.979Z</time>
      </trkpt>
      <trkpt lat="48.21431" lon="3.26418">
        <ele>68</ele>
        <time>2014-04-20T06:58:14.979Z</time>
      </trkpt>
      <trkpt lat="48.21437" lon="3.26416">
        <ele>70</ele>
        <time>2014-04-20T06:58:15.979Z</time>
      </trkpt>
      <trkpt lat="48.21443" lon="3.26414">
        <ele>71</ele>
        <time>2014-04-20T06:58:16.979Z</time>
      </trkpt>
      <trkpt lat="48.2145" lon="3.26414">
        <ele>71</ele>
        <time>2014-04-20T06:58:17.979Z</time>
      </trkpt>
      <trkpt lat="48.21455" lon="3.26412">
        <ele>70</ele>
        <time>2014-04-20T06:58:18.979Z</time>
      </trkpt>
      <trkpt lat="48.21462" lon="3.26412">
        <ele>70</ele>
        <time>2014-04-20T06:58:19.979Z</time>
      </trkpt>
      <trkpt lat="48.21468" lon="3.2641">
        <ele>70</ele>
        <time>2014-04-20T06:58:20.979Z</time>
      </trkpt>
      <trkpt lat="48.21475" lon="3.26408">
        <ele>70</ele>
        <time>2014-04-20T06:58:21.979Z</time>
      </trkpt>
      <trkpt lat="48.21481" lon="3.26408">
        <ele>69</ele>
        <time>2014-04-20T06:58:22.979Z</time>
      </trkpt>
      <trkpt lat="48.21487" lon="3.26406">
        <ele>69</ele>
        <time>2014-04-20T06:58:23.979Z</time>
      </trkpt>
      <trkpt lat="48.21494" lon="3.26403">
        <ele>69</ele>
        <time>2014-04-20T06:58:24.979Z</time>
      </trkpt>
      <trkpt lat="48.21501" lon="3.26401">
        <ele>67</ele>
        <time>2014-04-20T06:58:25.979Z</time>
      </trkpt>
      <trkpt lat="48.21508" lon="3.26397">
        <ele>67</ele>
        <time>2014-04-20T06:58:26.979Z</time>
      </trkpt>
      <trkpt lat="48.21514" lon="3.26395">
        <ele>67</ele>
        <time>2014-04-20T06:58:27.979Z</time>
      </trkpt>
      <trkpt lat="48.21522" lon="3.26391">
        <ele>67</ele>
        <time>2014-04-20T06:58:28.979Z</time>
      </trkpt>
      <trkpt lat="48.21528" lon="3.26388">
        <ele>67</ele>
        <time>2014-04-20T06:58:29.979Z</time>
      </trkpt>
      <trkpt lat="48.21536" lon="3.26382">
        <ele>67</ele>
        <time>2014-04-20T06:58:30.979Z</time>
      </trkpt>
      <trkpt lat="48.21542" lon="3.26378">
        <ele>67</ele>
        <time>2014-04-20T06:58:31.979Z</time>
      </trkpt>
      <trkpt lat="48.2155" lon="3.26373">
        <ele>67</ele>
        <time>2014-04-20T06:58:32.979Z</time>
      </trkpt>
      <trkpt lat="48.21556" lon="3.26367">
        <ele>66</ele>
        <time>2014-04-20T06:58:33.979Z</time>
      </trkpt>
      <trkpt lat="48.21564" lon="3.26363">
        <ele>66</ele>
        <time>2014-04-20T06:58:34.979Z</time>
      </trkpt>
      <trkpt lat="48.2157" lon="3.26358">
        <ele>66</ele>
        <time>2014-04-20T06:58:35.979Z</time>
      </trkpt>
      <trkpt lat="48.21578" lon="3.26354">
        <ele>66</ele>
        <time>2014-04-20T06:58:36.979Z</time>
      </trkpt>
      <trkpt lat="48.21585" lon="3.26356">
        <ele>65</ele>
        <time>2014-04-20T06:58:37.979Z</time>
      </trkpt>
      <trkpt lat="48.21591" lon="3.26356">
        <ele>65</ele>
        <time>2014-04-20T06:58:38.979Z</time>
      </trkpt>
      <trkpt lat="48.21598" lon="3.26356">
        <ele>65</ele>
        <time>2014-04-20T06:58:39.979Z</time>
      </trkpt>
      <trkpt lat="48.21604" lon="3.26354">
        <ele>65</ele>
        <time>2014-04-20T06:58:40.979Z</time>
      </trkpt>
      <trkpt lat="48.21611" lon="3.2635">
        <ele>65</ele>
        <time>2014-04-20T06:58:41.979Z</time>
      </trkpt>
      <trkpt lat="48.21617" lon="3.26348">
        <ele>65</ele>
        <time>2014-04-20T06:58:42.979Z</time>
      </trkpt>
      <trkpt lat="48.21624" lon="3.26348">
        <ele>65</ele>
        <time>2014-04-20T06:58:43.979Z</time>
      </trkpt>
      <trkpt lat="48.21631" lon="3.26348">
        <ele>65</ele>
        <time>2014-04-20T06:58:44.979Z</time>
      </trkpt>
      <trkpt lat="48.21638" lon="3.26348">
        <ele>65</ele>
        <time>2014-04-20T06:58:45.979Z</time>
      </trkpt>
      <trkpt lat="48.21644" lon="3.26348">
        <ele>65</ele>
        <time>2014-04-20T06:58:46.979Z</time>
      </trkpt>
      <trkpt lat="48.21651" lon="3.2635">
        <ele>65</ele>
        <time>2014-04-20T06:58:47.979Z</time>
      </trkpt>
      <trkpt lat="48.21657" lon="3.2635">
        <ele>65</ele>
        <time>2014-04-20T06:58:48.979Z</time>
      </trkpt>
      <trkpt lat="48.21663" lon="3.2635">
        <ele>65</ele>
        <time>2014-04-20T06:58:49.979Z</time>
      </trkpt>
      <trkpt lat="48.2167" lon="3.26352">
        <ele>65</ele>
        <time>2014-04-20T06:58:50.979Z</time>
      </trkpt>
      <trkpt lat="48.21676" lon="3.26352">
        <ele>65</ele>
        <time>2014-04-20T06:58:51.979Z</time>
      </trkpt>
      <trkpt lat="48.21683" lon="3.26352">
        <ele>65</ele>
        <time>2014-04-20T06:58:52.979Z</time>
      </trkpt>
      <trkpt lat="48.21689" lon="3.26354">
        <ele>65</ele>
        <time>2014-04-20T06:58:53.979Z</time>
      </trkpt>
      <trkpt lat="48.21696" lon="3.26354">
        <ele>65</ele>
        <time>2014-04-20T06:58:54.979Z</time>
      </trkpt>
      <trkpt lat="48.21702" lon="3.26354">
        <ele>65</ele>
        <time>2014-04-20T06:58:55.979Z</time>
      </trkpt>
      <trkpt lat="48.21708" lon="3.26354">
        <ele>65</ele>
        <time>2014-04-20T06:58:56.979Z</time>
      </trkpt>
      <trkpt lat="48.21715" lon="3.26354">
        <ele>65</ele>
        <time>2014-04-20T06:58:57.979Z</time>
      </trkpt>
      <trkpt lat="48.21721" lon="3.26352">
        <ele>65</ele>
        <time>2014-04-20T06:58:58.979Z</time>
      </trkpt>
      <trkpt lat="48.21728" lon="3.26352">
        <ele>65</ele>
        <time>2014-04-20T06:58:59.979Z</time>
      </trkpt>
      <trkpt lat="48.21734" lon="3.26352">
        <ele>65</ele>
        <time>2014-04-20T06:59:00.979Z</time>
      </trkpt>
      <trkpt lat="48.21741" lon="3.2635">
        <ele>65</ele>
        <time>2014-04-20T06:59:01.979Z</time>
      </trkpt>
      <trkpt lat="48.21746" lon="3.2635">
        <ele>65</ele>
        <time>2014-04-20T06:59:02.979Z</time>
      </trkpt>
      <trkpt lat="48.21752" lon="3.26348">
        <ele>65</ele>
        <time>2014-04-20T06:59:03.979Z</time>
      </trkpt>
      <trkpt lat="48.21759" lon="3.26348">
        <ele>65</ele>
        <time>2014-04-20T06:59:04.979Z</time>
      </trkpt>
      <trkpt lat="48.21765" lon="3.26345">
        <ele>65</ele>
        <time>2014-04-20T06:59:05.979Z</time>
      </trkpt>
      <trkpt lat="48.21773" lon="3.26343">
        <ele>65</ele>
        <time>2014-04-20T06:59:06.979Z</time>
      </trkpt>
      <trkpt lat="48.21779" lon="3.26343">
        <ele>65</ele>
        <time>2014-04-20T06:59:07.979Z</time>
      </trkpt>
      <trkpt lat="48.21786" lon="3.26341">
        <ele>65</ele>
        <time>2014-04-20T06:59:08.979Z</time>
      </trkpt>
      <trkpt lat="48.21792" lon="3.26339">
        <ele>65</ele>
        <time>2014-04-20T06:59:09.979Z</time>
      </trkpt>
      <trkpt lat="48.21799" lon="3.26337">
        <ele>65</ele>
        <time>2014-04-20T06:59:10.979Z</time>
      </trkpt>
      <trkpt lat="48.21805" lon="3.26337">
        <ele>65</ele>
        <time>2014-04-20T06:59:11.979Z</time>
      </trkpt>
      <trkpt lat="48.21811" lon="3.26335">
        <ele>65</ele>
        <time>2014-04-20T06:59:12.979Z</time>
      </trkpt>
      <trkpt lat="48.21818" lon="3.26333">
        <ele>67</ele>
        <time>2014-04-20T06:59:13.979Z</time>
      </trkpt>
      <trkpt lat="48.21824" lon="3.26333">
        <ele>66</ele>
        <time>2014-04-20T06:59:14.979Z</time>
      </trkpt>
      <trkpt lat="48.21832" lon="3.2633">
        <ele>66</ele>
        <time>2014-04-20T06:59:15.979Z</time>
      </trkpt>
      <trkpt lat="48.21838" lon="3.2633">
        <ele>66</ele>
        <time>2014-04-20T06:59:16.979Z</time>
      </trkpt>
      <trkpt lat="48.21845" lon="3.26328">
        <ele>67</ele>
        <time>2014-04-20T06:59:17.979Z</time>
      </trkpt>
      <trkpt lat="48.21851" lon="3.26326">
        <ele>67</ele>
        <time>2014-04-20T06:59:18.979Z</time>
      </trkpt>
      <trkpt lat="48.21858" lon="3.26326">
        <ele>67</ele>
        <time>2014-04-20T06:59:19.979Z</time>
      </trkpt>
      <trkpt lat="48.21864" lon="3.26324">
        <ele>67</ele>
        <time>2014-04-20T06:59:20.979Z</time>
      </trkpt>
      <trkpt lat="48.2187" lon="3.26322">
        <ele>67</ele>
        <time>2014-04-20T06:59:21.979Z</time>
      </trkpt>
      <trkpt lat="48.21877" lon="3.26322">
        <ele>67</ele>
        <time>2014-04-20T06:59:22.979Z</time>
      </trkpt>
      <trkpt lat="48.21883" lon="3.2632">
        <ele>67</ele>
        <time>2014-04-20T06:59:23.979Z</time>
      </trkpt>
      <trkpt lat="48.2189" lon="3.2632">
        <ele>67</ele>
        <time>2014-04-20T06:59:24.979Z</time>
      </trkpt>
      <trkpt lat="48.21896" lon="3.26318">
        <ele>67</ele>
        <time>2014-04-20T06:59:25.979Z</time>
      </trkpt>
      <trkpt lat="48.21903" lon="3.26315">
        <ele>67</ele>
        <time>2014-04-20T06:59:26.979Z</time>
      </trkpt>
      <trkpt lat="48.2191" lon="3.26313">
        <ele>67</ele>
        <time>2014-04-20T06:59:27.979Z</time>
      </trkpt>
      <trkpt lat="48.21917" lon="3.26313">
        <ele>67</ele>
        <time>2014-04-20T06:59:28.979Z</time>
      </trkpt>
      <trkpt lat="48.21923" lon="3.26311">
        <ele>67</ele>
        <time>2014-04-20T06:59:29.979Z</time>
      </trkpt>
      <trkpt lat="48.21929" lon="3.26309">
        <ele>67</ele>
        <time>2014-04-20T06:59:30.979Z</time>
      </trkpt>
      <trkpt lat="48.21936" lon="3.26309">
        <ele>67</ele>
        <time>2014-04-20T06:59:31.979Z</time>
      </trkpt>
      <trkpt lat="48.21942" lon="3.26307">
        <ele>68</ele>
        <time>2014-04-20T06:59:32.979Z</time>
      </trkpt>
      <trkpt lat="48.21948" lon="3.26307">
        <ele>68</ele>
        <time>2014-04-20T06:59:33.979Z</time>
      </trkpt>
      <trkpt lat="48.21955" lon="3.26305">
        <ele>68</ele>
        <time>2014-04-20T06:59:34.979Z</time>
      </trkpt>
      <trkpt lat="48.21962" lon="3.26303">
        <ele>68</ele>
        <time>2014-04-20T06:59:35.979Z</time>
      </trkpt>
      <trkpt lat="48.21968" lon="3.26303">
        <ele>68</ele>
        <time>2014-04-20T06:59:36.979Z</time>
      </trkpt>
      <trkpt lat="48.21975" lon="3.263">
        <ele>68</ele>
        <time>2014-04-20T06:59:37.979Z</time>
      </trkpt>
      <trkpt lat="48.21981" lon="3.26298">
        <ele>68</ele>
        <time>2014-04-20T06:59:38.979Z</time>
      </trkpt>
      <trkpt lat="48.21988" lon="3.26296">
        <ele>68</ele>
        <time>2014-04-20T06:59:39.979Z</time>
      </trkpt>
      <trkpt lat="48.21995" lon="3.26294">
        <ele>68</ele>
        <time>2014-04-20T06:59:40.979Z</time>
      </trkpt>
      <trkpt lat="48.22002" lon="3.26292">
        <ele>69</ele>
        <time>2014-04-20T06:59:41.979Z</time>
      </trkpt>
      <trkpt lat="48.22009" lon="3.2629">
        <ele>69</ele>
        <time>2014-04-20T06:59:42.979Z</time>
      </trkpt>
      <trkpt lat="48.22015" lon="3.26285">
        <ele>69</ele>
        <time>2014-04-20T06:59:43.979Z</time>
      </trkpt>
      <trkpt lat="48.22022" lon="3.26283">
        <ele>69</ele>
        <time>2014-04-20T06:59:44.979Z</time>
      </trkpt>
      <trkpt lat="48.22028" lon="3.26283">
        <ele>69</ele>
        <time>2014-04-20T06:59:45.979Z</time>
      </trkpt>
      <trkpt lat="48.22035" lon="3.26281">
        <ele>69</ele>
        <time>2014-04-20T06:59:46.979Z</time>
      </trkpt>
      <trkpt lat="48.22041" lon="3.26279">
        <ele>69</ele>
        <time>2014-04-20T06:59:47.979Z</time>
      </trkpt>
      <trkpt lat="48.22047" lon="3.26277">
        <ele>69</ele>
        <time>2014-04-20T06:59:48.979Z</time>
      </trkpt>
      <trkpt lat="48.22054" lon="3.26275">
        <ele>69</ele>
        <time>2014-04-20T06:59:49.979Z</time>
      </trkpt>
      <trkpt lat="48.2206" lon="3.26275">
        <ele>69</ele>
        <time>2014-04-20T06:59:50.979Z</time>
      </trkpt>
      <trkpt lat="48.22066" lon="3.26272">
        <ele>69</ele>
        <time>2014-04-20T06:59:51.979Z</time>
      </trkpt>
      <trkpt lat="48.22072" lon="3.2627">
        <ele>69</ele>
        <time>2014-04-20T06:59:52.979Z</time>
      </trkpt>
      <trkpt lat="48.22079" lon="3.26268">
        <ele>69</ele>
        <time>2014-04-20T06:59:53.979Z</time>
      </trkpt>
      <trkpt lat="48.22084" lon="3.26268">
        <ele>68</ele>
        <time>2014-04-20T06:59:54.979Z</time>
      </trkpt>
      <trkpt lat="48.2209" lon="3.26266">
        <ele>68</ele>
        <time>2014-04-20T06:59:55.979Z</time>
      </trkpt>
      <trkpt lat="48.22096" lon="3.26264">
        <ele>68</ele>
        <time>2014-04-20T06:59:56.979Z</time>
      </trkpt>
      <trkpt lat="48.22102" lon="3.26264">
        <ele>68</ele>
        <time>2014-04-20T06:59:57.979Z</time>
      </trkpt>
      <trkpt lat="48.22108" lon="3.26262">
        <ele>68</ele>
        <time>2014-04-20T06:59:58.979Z</time>
      </trkpt>
      <trkpt lat="48.22114" lon="3.26262">
        <ele>68</ele>
        <time>2014-04-20T06:59:59.979Z</time>
      </trkpt>
      <trkpt lat="48.22119" lon="3.2626">
        <ele>68</ele>
        <time>2014-04-20T07:00:00.979Z</time>
      </trkpt>
      <trkpt lat="48.22125" lon="3.2626">
        <ele>68</ele>
        <time>2014-04-20T07:00:01.979Z</time>
      </trkpt>
      <trkpt lat="48.22131" lon="3.26257">
        <ele>68</ele>
        <time>2014-04-20T07:00:02.979Z</time>
      </trkpt>
      <trkpt lat="48.22137" lon="3.26257">
        <ele>68</ele>
        <time>2014-04-20T07:00:03.979Z</time>
      </trkpt>
      <trkpt lat="48.22143" lon="3.26255">
        <ele>68</ele>
        <time>2014-04-20T07:00:04.979Z</time>
      </trkpt>
      <trkpt lat="48.22149" lon="3.26255">
        <ele>68</ele>
        <time>2014-04-20T07:00:05.979Z</time>
      </trkpt>
      <trkpt lat="48.22156" lon="3.26253">
        <ele>68</ele>
        <time>2014-04-20T07:00:06.979Z</time>
      </trkpt>
      <trkpt lat="48.22162" lon="3.26253">
        <ele>69</ele>
        <time>2014-04-20T07:00:07.979Z</time>
      </trkpt>
      <trkpt lat="48.22169" lon="3.26251">
        <ele>69</ele>
        <time>2014-04-20T07:00:08.979Z</time>
      </trkpt>
      <trkpt lat="48.22175" lon="3.26249">
        <ele>69</ele>
        <time>2014-04-20T07:00:09.979Z</time>
      </trkpt>
      <trkpt lat="48.22182" lon="3.26247">
        <ele>69</ele>
        <time>2014-04-20T07:00:10.979Z</time>
      </trkpt>
      <trkpt lat="48.22188" lon="3.26245">
        <ele>70</ele>
        <time>2014-04-20T07:00:11.979Z</time>
      </trkpt>
      <trkpt lat="48.22196" lon="3.26242">
        <ele>69</ele>
        <time>2014-04-20T07:00:12.979Z</time>
      </trkpt>
      <trkpt lat="48.22202" lon="3.26242">
        <ele>69</ele>
        <time>2014-04-20T07:00:13.979Z</time>
      </trkpt>
      <trkpt lat="48.22208" lon="3.2624">
        <ele>69</ele>
        <time>2014-04-20T07:00:14.979Z</time>
      </trkpt>
      <trkpt lat="48.22216" lon="3.26238">
        <ele>69</ele>
        <time>2014-04-20T07:00:15.979Z</time>
      </trkpt>
      <trkpt lat="48.22222" lon="3.26238">
        <ele>69</ele>
        <time>2014-04-20T07:00:16.979Z</time>
      </trkpt>
      <trkpt lat="48.22229" lon="3.26236">
        <ele>68</ele>
        <time>2014-04-20T07:00:17.979Z</time>
      </trkpt>
      <trkpt lat="48.22235" lon="3.26234">
        <ele>68</ele>
        <time>2014-04-20T07:00:18.979Z</time>
      </trkpt>
      <trkpt lat="48.22242" lon="3.26232">
        <ele>68</ele>
        <time>2014-04-20T07:00:19.979Z</time>
      </trkpt>
      <trkpt lat="48.22248" lon="3.26232">
        <ele>68</ele>
        <time>2014-04-20T07:00:20.979Z</time>
      </trkpt>
      <trkpt lat="48.22255" lon="3.2623">
        <ele>66</ele>
        <time>2014-04-20T07:00:21.979Z</time>
      </trkpt>
      <trkpt lat="48.22261" lon="3.26227">
        <ele>66</ele>
        <time>2014-04-20T07:00:22.979Z</time>
      </trkpt>
      <trkpt lat="48.22266" lon="3.26227">
        <ele>66</ele>
        <time>2014-04-20T07:00:23.979Z</time>
      </trkpt>
      <trkpt lat="48.22272" lon="3.26225">
        <ele>66</ele>
        <time>2014-04-20T07:00:24.979Z</time>
      </trkpt>
      <trkpt lat="48.22277" lon="3.26223">
        <ele>66</ele>
        <time>2014-04-20T07:00:25.979Z</time>
      </trkpt>
      <trkpt lat="48.22281" lon="3.26219">
        <ele>66</ele>
        <time>2014-04-20T07:00:26.979Z</time>
      </trkpt>
      <trkpt lat="48.22286" lon="3.26212">
        <ele>66</ele>
        <time>2014-04-20T07:00:27.979Z</time>
      </trkpt>
      <trkpt lat="48.22289" lon="3.26206">
        <ele>66</ele>
        <time>2014-04-20T07:00:28.979Z</time>
      </trkpt>
      <trkpt lat="48.22292" lon="3.26202">
        <ele>66</ele>
        <time>2014-04-20T07:00:29.979Z</time>
      </trkpt>
      <trkpt lat="48.22295" lon="3.26195">
        <ele>66</ele>
        <time>2014-04-20T07:00:30.979Z</time>
      </trkpt>
      <trkpt lat="48.223" lon="3.26189">
        <ele>66</ele>
        <time>2014-04-20T07:00:31.979Z</time>
      </trkpt>
      <trkpt lat="48.22303" lon="3.26185">
        <ele>66</ele>
        <time>2014-04-20T07:00:32.979Z</time>
      </trkpt>
      <trkpt lat="48.22306" lon="3.26178">
        <ele>66</ele>
        <time>2014-04-20T07:00:33.979Z</time>
      </trkpt>
      <trkpt lat="48.2231" lon="3.26174">
        <ele>66</ele>
        <time>2014-04-20T07:00:34.979Z</time>
      </trkpt>
      <trkpt lat="48.22314" lon="3.26167">
        <ele>66</ele>
        <time>2014-04-20T07:00:35.979Z</time>
      </trkpt>
      <trkpt lat="48.22318" lon="3.26163">
        <ele>67</ele>
        <time>2014-04-20T07:00:36.979Z</time>
      </trkpt>
      <trkpt lat="48.22322" lon="3.26159">
        <ele>67</ele>
        <time>2014-04-20T07:00:37.979Z</time>
      </trkpt>
      <trkpt lat="48.22327" lon="3.26154">
        <ele>67</ele>
        <time>2014-04-20T07:00:38.979Z</time>
      </trkpt>
      <trkpt lat="48.22332" lon="3.2615">
        <ele>67</ele>
        <time>2014-04-20T07:00:39.979Z</time>
      </trkpt>
      <trkpt lat="48.22337" lon="3.26146">
        <ele>65</ele>
        <time>2014-04-20T07:00:40.979Z</time>
      </trkpt>
      <trkpt lat="48.22343" lon="3.26142">
        <ele>65</ele>
        <time>2014-04-20T07:00:41.979Z</time>
      </trkpt>
      <trkpt lat="48.22348" lon="3.26137">
        <ele>65</ele>
        <time>2014-04-20T07:00:42.979Z</time>
      </trkpt>
      <trkpt lat="48.22353" lon="3.26133">
        <ele>65</ele>
        <time>2014-04-20T07:00:43.979Z</time>
      </trkpt>
      <trkpt lat="48.22359" lon="3.26129">
        <ele>65</ele>
        <time>2014-04-20T07:00:44.979Z</time>
      </trkpt>
      <trkpt lat="48.22364" lon="3.26127">
        <ele>65</ele>
        <time>2014-04-20T07:00:45.979Z</time>
      </trkpt>
      <trkpt lat="48.22369" lon="3.26122">
        <ele>65</ele>
        <time>2014-04-20T07:00:46.979Z</time>
      </trkpt>
      <trkpt lat="48.22376" lon="3.26118">
        <ele>65</ele>
        <time>2014-04-20T07:00:47.979Z</time>
      </trkpt>
      <trkpt lat="48.22381" lon="3.26116">
        <ele>65</ele>
        <time>2014-04-20T07:00:48.979Z</time>
      </trkpt>
      <trkpt lat="48.22388" lon="3.26112">
        <ele>65</ele>
        <time>2014-04-20T07:00:49.979Z</time>
      </trkpt>
      <trkpt lat="48.22394" lon="3.26107">
        <ele>65</ele>
        <time>2014-04-20T07:00:50.979Z</time>
      </trkpt>
      <trkpt lat="48.224" lon="3.26105">
        <ele>65</ele>
        <time>2014-04-20T07:00:51.979Z</time>
      </trkpt>
      <trkpt lat="48.22407" lon="3.26101">
        <ele>65</ele>
        <time>2014-04-20T07:00:52.979Z</time>
      </trkpt>
      <trkpt lat="48.22413" lon="3.26097">
        <ele>65</ele>
        <time>2014-04-20T07:00:53.979Z</time>
      </trkpt>
      <trkpt lat="48.2242" lon="3.26094">
        <ele>64</ele>
        <time>2014-04-20T07:00:54.979Z</time>
      </trkpt>
      <trkpt lat="48.22425" lon="3.2609">
        <ele>64</ele>
        <time>2014-04-20T07:00:55.979Z</time>
      </trkpt>
      <trkpt lat="48.22432" lon="3.26088">
        <ele>64</ele>
        <time>2014-04-20T07:00:56.979Z</time>
      </trkpt>
      <trkpt lat="48.22438" lon="3.26084">
        <ele>64</ele>
        <time>2014-04-20T07:00:57.979Z</time>
      </trkpt>
      <trkpt lat="48.22444" lon="3.26079">
        <ele>65</ele>
        <time>2014-04-20T07:00:58.979Z</time>
      </trkpt>
      <trkpt lat="48.22451" lon="3.26077">
        <ele>65</ele>
        <time>2014-04-20T07:00:59.979Z</time>
      </trkpt>
      <trkpt lat="48.22457" lon="3.26075">
        <ele>65</ele>
        <time>2014-04-20T07:01:00.979Z</time>
      </trkpt>
      <trkpt lat="48.22464" lon="3.26071">
        <ele>64</ele>
        <time>2014-04-20T07:01:01.979Z</time>
      </trkpt>
      <trkpt lat="48.2247" lon="3.26069">
        <ele>64</ele>
        <time>2014-04-20T07:01:02.979Z</time>
      </trkpt>
      <trkpt lat="48.22477" lon="3.26066">
        <ele>64</ele>
        <time>2014-04-20T07:01:03.979Z</time>
      </trkpt>
      <trkpt lat="48.22483" lon="3.26064">
        <ele>64</ele>
        <time>2014-04-20T07:01:04.979Z</time>
      </trkpt>
      <trkpt lat="48.2249" lon="3.26062">
        <ele>64</ele>
        <time>2014-04-20T07:01:05.979Z</time>
      </trkpt>
      <trkpt lat="48.22496" lon="3.2606">
        <ele>64</ele>
        <time>2014-04-20T07:01:06.979Z</time>
      </trkpt>
      <trkpt lat="48.22502" lon="3.26058">
        <ele>63</ele>
        <time>2014-04-20T07:01:07.979Z</time>
      </trkpt>
      <trkpt lat="48.22509" lon="3.26056">
        <ele>63</ele>
        <time>2014-04-20T07:01:08.979Z</time>
      </trkpt>
      <trkpt lat="48.22516" lon="3.26054">
        <ele>63</ele>
        <time>2014-04-20T07:01:09.979Z</time>
      </trkpt>
      <trkpt lat="48.22523" lon="3.26051">
        <ele>63</ele>
        <time>2014-04-20T07:01:10.979Z</time>
      </trkpt>
      <trkpt lat="48.22529" lon="3.26049">
        <ele>63</ele>
        <time>2014-04-20T07:01:11.979Z</time>
      </trkpt>
      <trkpt lat="48.22536" lon="3.26045">
        <ele>63</ele>
        <time>2014-04-20T07:01:12.979Z</time>
      </trkpt>
      <trkpt lat="48.22543" lon="3.26043">
        <ele>63</ele>
        <time>2014-04-20T07:01:13.979Z</time>
      </trkpt>
      <trkpt lat="48.2255" lon="3.26041">
        <ele>63</ele>
        <time>2014-04-20T07:01:14.979Z</time>
      </trkpt>
      <trkpt lat="48.22556" lon="3.26039">
        <ele>63</ele>
        <time>2014-04-20T07:01:15.979Z</time>
      </trkpt>
      <trkpt lat="48.22564" lon="3.26036">
        <ele>63</ele>
        <time>2014-04-20T07:01:16.979Z</time>
      </trkpt>
      <trkpt lat="48.2257" lon="3.26034">
        <ele>63</ele>
        <time>2014-04-20T07:01:17.979Z</time>
      </trkpt>
      <trkpt lat="48.22576" lon="3.26032">
        <ele>63</ele>
        <time>2014-04-20T07:01:18.979Z</time>
      </trkpt>
      <trkpt lat="48.22584" lon="3.2603">
        <ele>63</ele>
        <time>2014-04-20T07:01:19.979Z</time>
      </trkpt>
      <trkpt lat="48.2259" lon="3.2603">
        <ele>63</ele>
        <time>2014-04-20T07:01:20.979Z</time>
      </trkpt>
      <trkpt lat="48.22597" lon="3.26028">
        <ele>63</ele>
        <time>2014-04-20T07:01:21.979Z</time>
      </trkpt>
      <trkpt lat="48.22603" lon="3.26026">
        <ele>63</ele>
        <time>2014-04-20T07:01:22.979Z</time>
      </trkpt>
      <trkpt lat="48.2261" lon="3.26024">
        <ele>63</ele>
        <time>2014-04-20T07:01:23.979Z</time>
      </trkpt>
      <trkpt lat="48.22615" lon="3.26024">
        <ele>63</ele>
        <time>2014-04-20T07:01:24.979Z</time>
      </trkpt>
      <trkpt lat="48.22621" lon="3.26024">
        <ele>63</ele>
        <time>2014-04-20T07:01:25.979Z</time>
      </trkpt>
      <trkpt lat="48.22627" lon="3.26021">
        <ele>62</ele>
        <time>2014-04-20T07:01:26.979Z</time>
      </trkpt>
      <trkpt lat="48.22632" lon="3.26021">
        <ele>62</ele>
        <time>2014-04-20T07:01:27.979Z</time>
      </trkpt>
      <trkpt lat="48.22636" lon="3.26021">
        <ele>62</ele>
        <time>2014-04-20T07:01:28.979Z</time>
      </trkpt>
      <trkpt lat="48.22641" lon="3.26021">
        <ele>62</ele>
        <time>2014-04-20T07:01:29.979Z</time>
      </trkpt>
      <trkpt lat="48.22646" lon="3.26021">
        <ele>62</ele>
        <time>2014-04-20T07:01:30.979Z</time>
      </trkpt>
      <trkpt lat="48.2265" lon="3.26021">
        <ele>62</ele>
        <time>2014-04-20T07:01:31.979Z</time>
      </trkpt>
      <trkpt lat="48.22655" lon="3.26021">
        <ele>62</ele>
        <time>2014-04-20T07:01:32.979Z</time>
      </trkpt>
      <trkpt lat="48.2266" lon="3.26021">
        <ele>62</ele>
        <time>2014-04-20T07:01:33.979Z</time>
      </trkpt>
      <trkpt lat="48.22664" lon="3.26021">
        <ele>62</ele>
        <time>2014-04-20T07:01:34.979Z</time>
      </trkpt>
      <trkpt lat="48.22667" lon="3.26024">
        <ele>62</ele>
        <time>2014-04-20T07:01:35.979Z</time>
      </trkpt>
      <trkpt lat="48.22667" lon="3.26024">
        <ele>62</ele>
        <time>2014-04-20T07:01:37.979Z</time>
      </trkpt>
      <trkpt lat="48.22673" lon="3.26028">
        <ele>62</ele>
        <time>2014-04-20T07:01:38.979Z</time>
      </trkpt>
      <trkpt lat="48.22675" lon="3.26028">
        <ele>62</ele>
        <time>2014-04-20T07:01:39.979Z</time>
      </trkpt>
      <trkpt lat="48.22678" lon="3.26026">
        <ele>62</ele>
        <time>2014-04-20T07:01:40.979Z</time>
      </trkpt>
      <trkpt lat="48.2268" lon="3.26021">
        <ele>62</ele>
        <time>2014-04-20T07:01:41.979Z</time>
      </trkpt>
      <trkpt lat="48.22683" lon="3.26017">
        <ele>62</ele>
        <time>2014-04-20T07:01:42.979Z</time>
      </trkpt>
      <trkpt lat="48.22685" lon="3.26013">
        <ele>62</ele>
        <time>2014-04-20T07:01:43.979Z</time>
      </trkpt>
      <trkpt lat="48.22685" lon="3.26006">
        <ele>62</ele>
        <time>2014-04-20T07:01:44.979Z</time>
      </trkpt>
      <trkpt lat="48.22685" lon="3.26">
        <ele>63</ele>
        <time>2014-04-20T07:01:45.979Z</time>
      </trkpt>
      <trkpt lat="48.22685" lon="3.25994">
        <ele>63</ele>
        <time>2014-04-20T07:01:46.979Z</time>
      </trkpt>
      <trkpt lat="48.22686" lon="3.25987">
        <ele>63</ele>
        <time>2014-04-20T07:01:47.979Z</time>
      </trkpt>
      <trkpt lat="48.22686" lon="3.25979">
        <ele>63</ele>
        <time>2014-04-20T07:01:48.979Z</time>
      </trkpt>
      <trkpt lat="48.22686" lon="3.2597">
        <ele>64</ele>
        <time>2014-04-20T07:01:49.979Z</time>
      </trkpt>
      <trkpt lat="48.22686" lon="3.25963">
        <ele>64</ele>
        <time>2014-04-20T07:01:50.979Z</time>
      </trkpt>
      <trkpt lat="48.22686" lon="3.25957">
        <ele>64</ele>
        <time>2014-04-20T07:01:51.979Z</time>
      </trkpt>
      <trkpt lat="48.22686" lon="3.25948">
        <ele>64</ele>
        <time>2014-04-20T07:01:52.979Z</time>
      </trkpt>
      <trkpt lat="48.22687" lon="3.25942">
        <ele>64</ele>
        <time>2014-04-20T07:01:53.979Z</time>
      </trkpt>
      <trkpt lat="48.22688" lon="3.25936">
        <ele>65</ele>
        <time>2014-04-20T07:01:54.979Z</time>
      </trkpt>
      <trkpt lat="48.22689" lon="3.25929">
        <ele>65</ele>
        <time>2014-04-20T07:01:55.979Z</time>
      </trkpt>
      <trkpt lat="48.22689" lon="3.25923">
        <ele>65</ele>
        <time>2014-04-20T07:01:56.979Z</time>
      </trkpt>
      <trkpt lat="48.2269" lon="3.25916">
        <ele>66</ele>
        <time>2014-04-20T07:01:57.979Z</time>
      </trkpt>
      <trkpt lat="48.2269" lon="3.2591">
        <ele>66</ele>
        <time>2014-04-20T07:01:58.979Z</time>
      </trkpt>
      <trkpt lat="48.2269" lon="3.25903">
        <ele>66</ele>
        <time>2014-04-20T07:01:59.979Z</time>
      </trkpt>
      <trkpt lat="48.2269" lon="3.25897">
        <ele>66</ele>
        <time>2014-04-20T07:02:00.979Z</time>
      </trkpt>
      <trkpt lat="48.2269" lon="3.25891">
        <ele>66</ele>
        <time>2014-04-20T07:02:01.979Z</time>
      </trkpt>
      <trkpt lat="48.22689" lon="3.25882">
        <ele>67</ele>
        <time>2014-04-20T07:02:02.979Z</time>
      </trkpt>
      <trkpt lat="48.22688" lon="3.25876">
        <ele>67</ele>
        <time>2014-04-20T07:02:03.979Z</time>
      </trkpt>
      <trkpt lat="48.22688" lon="3.25869">
        <ele>67</ele>
        <time>2014-04-20T07:02:04.979Z</time>
      </trkpt>
      <trkpt lat="48.22687" lon="3.25863">
        <ele>67</ele>
        <time>2014-04-20T07:02:05.979Z</time>
      </trkpt>
      <trkpt lat="48.22686" lon="3.25856">
        <ele>67</ele>
        <time>2014-04-20T07:02:06.979Z</time>
      </trkpt>
      <trkpt lat="48.22684" lon="3.25848">
        <ele>67</ele>
        <time>2014-04-20T07:02:07.979Z</time>
      </trkpt>
      <trkpt lat="48.22683" lon="3.25841">
        <ele>68</ele>
        <time>2014-04-20T07:02:08.979Z</time>
      </trkpt>
      <trkpt lat="48.22682" lon="3.25835">
        <ele>68</ele>
        <time>2014-04-20T07:02:09.979Z</time>
      </trkpt>
      <trkpt lat="48.22679" lon="3.25828">
        <ele>69</ele>
        <time>2014-04-20T07:02:10.979Z</time>
      </trkpt>
      <trkpt lat="48.22678" lon="3.2582">
        <ele>69</ele>
        <time>2014-04-20T07:02:11.979Z</time>
      </trkpt>
      <trkpt lat="48.22676" lon="3.25813">
        <ele>69</ele>
        <time>2014-04-20T07:02:12.979Z</time>
      </trkpt>
      <trkpt lat="48.22675" lon="3.25807">
        <ele>69</ele>
        <time>2014-04-20T07:02:13.979Z</time>
      </trkpt>
      <trkpt lat="48.22674" lon="3.25798">
        <ele>69</ele>
        <time>2014-04-20T07:02:14.979Z</time>
      </trkpt>
      <trkpt lat="48.22673" lon="3.25792">
        <ele>69</ele>
        <time>2014-04-20T07:02:15.979Z</time>
      </trkpt>
      <trkpt lat="48.22672" lon="3.25785">
        <ele>69</ele>
        <time>2014-04-20T07:02:16.979Z</time>
      </trkpt>
      <trkpt lat="48.22671" lon="3.25779">
        <ele>69</ele>
        <time>2014-04-20T07:02:17.979Z</time>
      </trkpt>
      <trkpt lat="48.2267" lon="3.25773">
        <ele>69</ele>
        <time>2014-04-20T07:02:18.979Z</time>
      </trkpt>
      <trkpt lat="48.22669" lon="3.25764">
        <ele>69</ele>
        <time>2014-04-20T07:02:19.979Z</time>
      </trkpt>
      <trkpt lat="48.22668" lon="3.25758">
        <ele>70</ele>
        <time>2014-04-20T07:02:20.979Z</time>
      </trkpt>
      <trkpt lat="48.22667" lon="3.25751">
        <ele>70</ele>
        <time>2014-04-20T07:02:21.979Z</time>
      </trkpt>
      <trkpt lat="48.22665" lon="3.25745">
        <ele>70</ele>
        <time>2014-04-20T07:02:22.979Z</time>
      </trkpt>
      <trkpt lat="48.22664" lon="3.25738">
        <ele>70</ele>
        <time>2014-04-20T07:02:23.979Z</time>
      </trkpt>
      <trkpt lat="48.22663" lon="3.25732">
        <ele>71</ele>
        <time>2014-04-20T07:02:24.979Z</time>
      </trkpt>
      <trkpt lat="48.22662" lon="3.25725">
        <ele>71</ele>
        <time>2014-04-20T07:02:25.979Z</time>
      </trkpt>
      <trkpt lat="48.22662" lon="3.25721">
        <ele>71</ele>
        <time>2014-04-20T07:02:26.979Z</time>
      </trkpt>
      <trkpt lat="48.22661" lon="3.25717">
        <ele>71</ele>
        <time>2014-04-20T07:02:27.979Z</time>
      </trkpt>
      <trkpt lat="48.2266" lon="3.2571">
        <ele>71</ele>
        <time>2014-04-20T07:02:28.979Z</time>
      </trkpt>
      <trkpt lat="48.2266" lon="3.25706">
        <ele>71</ele>
        <time>2014-04-20T07:02:29.979Z</time>
      </trkpt>
      <trkpt lat="48.22659" lon="3.25702">
        <ele>71</ele>
        <time>2014-04-20T07:02:30.979Z</time>
      </trkpt>
      <trkpt lat="48.22658" lon="3.25695">
        <ele>71</ele>
        <time>2014-04-20T07:02:31.979Z</time>
      </trkpt>
      <trkpt lat="48.22657" lon="3.25691">
        <ele>71</ele>
        <time>2014-04-20T07:02:32.979Z</time>
      </trkpt>
      <trkpt lat="48.22656" lon="3.25685">
        <ele>71</ele>
        <time>2014-04-20T07:02:33.979Z</time>
      </trkpt>
      <trkpt lat="48.22655" lon="3.25678">
        <ele>71</ele>
        <time>2014-04-20T07:02:34.979Z</time>
      </trkpt>
      <trkpt lat="48.22654" lon="3.25672">
        <ele>71</ele>
        <time>2014-04-20T07:02:35.979Z</time>
      </trkpt>
      <trkpt lat="48.22653" lon="3.25665">
        <ele>71</ele>
        <time>2014-04-20T07:02:36.979Z</time>
      </trkpt>
      <trkpt lat="48.22652" lon="3.25659">
        <ele>71</ele>
        <time>2014-04-20T07:02:37.979Z</time>
      </trkpt>
      <trkpt lat="48.2265" lon="3.2565">
        <ele>71</ele>
        <time>2014-04-20T07:02:38.979Z</time>
      </trkpt>
      <trkpt lat="48.22649" lon="3.25644">
        <ele>71</ele>
        <time>2014-04-20T07:02:39.979Z</time>
      </trkpt>
      <trkpt lat="48.22648" lon="3.25637">
        <ele>71</ele>
        <time>2014-04-20T07:02:40.979Z</time>
      </trkpt>
      <trkpt lat="48.22647" lon="3.25631">
        <ele>71</ele>
        <time>2014-04-20T07:02:41.979Z</time>
      </trkpt>
      <trkpt lat="48.22646" lon="3.25624">
        <ele>71</ele>
        <time>2014-04-20T07:02:42.979Z</time>
      </trkpt>
      <trkpt lat="48.22645" lon="3.25618">
        <ele>71</ele>
        <time>2014-04-20T07:02:43.979Z</time>
      </trkpt>
      <trkpt lat="48.22644" lon="3.25609">
        <ele>71</ele>
        <time>2014-04-20T07:02:44.979Z</time>
      </trkpt>
      <trkpt lat="48.22643" lon="3.25603">
        <ele>71</ele>
        <time>2014-04-20T07:02:45.979Z</time>
      </trkpt>
      <trkpt lat="48.22642" lon="3.25597">
        <ele>71</ele>
        <time>2014-04-20T07:02:46.979Z</time>
      </trkpt>
      <trkpt lat="48.22641" lon="3.2559">
        <ele>71</ele>
        <time>2014-04-20T07:02:47.979Z</time>
      </trkpt>
      <trkpt lat="48.22641" lon="3.25584">
        <ele>71</ele>
        <time>2014-04-20T07:02:48.979Z</time>
      </trkpt>
      <trkpt lat="48.22641" lon="3.25575">
        <ele>70</ele>
        <time>2014-04-20T07:02:49.979Z</time>
      </trkpt>
      <trkpt lat="48.22643" lon="3.25571">
        <ele>70</ele>
        <time>2014-04-20T07:02:50.979Z</time>
      </trkpt>
      <trkpt lat="48.22645" lon="3.25564">
        <ele>70</ele>
        <time>2014-04-20T07:02:51.979Z</time>
      </trkpt>
      <trkpt lat="48.22647" lon="3.25558">
        <ele>70</ele>
        <time>2014-04-20T07:02:52.979Z</time>
      </trkpt>
      <trkpt lat="48.22649" lon="3.25552">
        <ele>70</ele>
        <time>2014-04-20T07:02:53.979Z</time>
      </trkpt>
      <trkpt lat="48.22655" lon="3.25549">
        <ele>70</ele>
        <time>2014-04-20T07:02:54.979Z</time>
      </trkpt>
      <trkpt lat="48.22661" lon="3.25547">
        <ele>70</ele>
        <time>2014-04-20T07:02:55.979Z</time>
      </trkpt>
      <trkpt lat="48.22668" lon="3.25547">
        <ele>69</ele>
        <time>2014-04-20T07:02:56.979Z</time>
      </trkpt>
      <trkpt lat="48.22674" lon="3.25545">
        <ele>69</ele>
        <time>2014-04-20T07:02:57.979Z</time>
      </trkpt>
      <trkpt lat="48.22682" lon="3.25543">
        <ele>69</ele>
        <time>2014-04-20T07:02:58.979Z</time>
      </trkpt>
      <trkpt lat="48.22688" lon="3.25541">
        <ele>69</ele>
        <time>2014-04-20T07:02:59.979Z</time>
      </trkpt>
      <trkpt lat="48.22694" lon="3.25541">
        <ele>69</ele>
        <time>2014-04-20T07:03:00.979Z</time>
      </trkpt>
      <trkpt lat="48.22702" lon="3.25541">
        <ele>69</ele>
        <time>2014-04-20T07:03:01.979Z</time>
      </trkpt>
      <trkpt lat="48.22708" lon="3.25541">
        <ele>69</ele>
        <time>2014-04-20T07:03:02.979Z</time>
      </trkpt>
      <trkpt lat="48.22715" lon="3.25541">
        <ele>68</ele>
        <time>2014-04-20T07:03:03.979Z</time>
      </trkpt>
      <trkpt lat="48.22721" lon="3.25541">
        <ele>68</ele>
        <time>2014-04-20T07:03:04.979Z</time>
      </trkpt>
      <trkpt lat="48.22729" lon="3.25541">
        <ele>68</ele>
        <time>2014-04-20T07:03:05.979Z</time>
      </trkpt>
      <trkpt lat="48.22735" lon="3.25541">
        <ele>68</ele>
        <time>2014-04-20T07:03:06.979Z</time>
      </trkpt>
      <trkpt lat="48.22742" lon="3.25543">
        <ele>68</ele>
        <time>2014-04-20T07:03:07.979Z</time>
      </trkpt>
      <trkpt lat="48.22747" lon="3.25543">
        <ele>68</ele>
        <time>2014-04-20T07:03:08.979Z</time>
      </trkpt>
      <trkpt lat="48.22752" lon="3.25543">
        <ele>68</ele>
        <time>2014-04-20T07:03:09.979Z</time>
      </trkpt>
      <trkpt lat="48.22759" lon="3.25543">
        <ele>68</ele>
        <time>2014-04-20T07:03:10.979Z</time>
      </trkpt>
      <trkpt lat="48.22764" lon="3.25541">
        <ele>68</ele>
        <time>2014-04-20T07:03:11.979Z</time>
      </trkpt>
      <trkpt lat="48.22771" lon="3.25541">
        <ele>68</ele>
        <time>2014-04-20T07:03:12.979Z</time>
      </trkpt>
      <trkpt lat="48.22777" lon="3.25541">
        <ele>68</ele>
        <time>2014-04-20T07:03:13.979Z</time>
      </trkpt>
      <trkpt lat="48.22783" lon="3.25541">
        <ele>68</ele>
        <time>2014-04-20T07:03:14.979Z</time>
      </trkpt>
      <trkpt lat="48.2279" lon="3.25541">
        <ele>68</ele>
        <time>2014-04-20T07:03:15.979Z</time>
      </trkpt>
      <trkpt lat="48.22795" lon="3.25539">
        <ele>68</ele>
        <time>2014-04-20T07:03:16.979Z</time>
      </trkpt>
      <trkpt lat="48.22802" lon="3.25539">
        <ele>68</ele>
        <time>2014-04-20T07:03:17.979Z</time>
      </trkpt>
      <trkpt lat="48.22808" lon="3.25536">
        <ele>68</ele>
        <time>2014-04-20T07:03:18.979Z</time>
      </trkpt>
      <trkpt lat="48.22815" lon="3.25534">
        <ele>68</ele>
        <time>2014-04-20T07:03:19.979Z</time>
      </trkpt>
      <trkpt lat="48.22821" lon="3.25532">
        <ele>68</ele>
        <time>2014-04-20T07:03:20.979Z</time>
      </trkpt>
      <trkpt lat="48.22827" lon="3.25528">
        <ele>68</ele>
        <time>2014-04-20T07:03:21.979Z</time>
      </trkpt>
      <trkpt lat="48.22834" lon="3.25526">
        <ele>69</ele>
        <time>2014-04-20T07:03:22.979Z</time>
      </trkpt>
      <trkpt lat="48.2284" lon="3.25521">
        <ele>69</ele>
        <time>2014-04-20T07:03:23.979Z</time>
      </trkpt>
      <trkpt lat="48.22846" lon="3.25517">
        <ele>69</ele>
        <time>2014-04-20T07:03:24.979Z</time>
      </trkpt>
      <trkpt lat="48.22851" lon="3.25513">
        <ele>69</ele>
        <time>2014-04-20T07:03:25.979Z</time>
      </trkpt>
      <trkpt lat="48.22857" lon="3.25509">
        <ele>69</ele>
        <time>2014-04-20T07:03:26.979Z</time>
      </trkpt>
      <trkpt lat="48.22863" lon="3.25504">
        <ele>69</ele>
        <time>2014-04-20T07:03:27.979Z</time>
      </trkpt>
      <trkpt lat="48.22868" lon="3.255">
        <ele>70</ele>
        <time>2014-04-20T07:03:28.979Z</time>
      </trkpt>
      <trkpt lat="48.22873" lon="3.25496">
        <ele>70</ele>
        <time>2014-04-20T07:03:29.979Z</time>
      </trkpt>
      <trkpt lat="48.22877" lon="3.25491">
        <ele>70</ele>
        <time>2014-04-20T07:03:30.979Z</time>
      </trkpt>
      <trkpt lat="48.22881" lon="3.25487">
        <ele>70</ele>
        <time>2014-04-20T07:03:31.979Z</time>
      </trkpt>
      <trkpt lat="48.22885" lon="3.25485">
        <ele>70</ele>
        <time>2014-04-20T07:03:32.979Z</time>
      </trkpt>
      <trkpt lat="48.22889" lon="3.25481">
        <ele>70</ele>
        <time>2014-04-20T07:03:33.979Z</time>
      </trkpt>
      <trkpt lat="48.22892" lon="3.25476">
        <ele>70</ele>
        <time>2014-04-20T07:03:34.979Z</time>
      </trkpt>
      <trkpt lat="48.22895" lon="3.25472">
        <ele>70</ele>
        <time>2014-04-20T07:03:35.979Z</time>
      </trkpt>
      <trkpt lat="48.22898" lon="3.2547">
        <ele>70</ele>
        <time>2014-04-20T07:03:36.979Z</time>
      </trkpt>
      <trkpt lat="48.229" lon="3.25466">
        <ele>70</ele>
        <time>2014-04-20T07:03:37.979Z</time>
      </trkpt>
      <trkpt lat="48.22903" lon="3.25461">
        <ele>71</ele>
        <time>2014-04-20T07:03:38.979Z</time>
      </trkpt>
      <trkpt lat="48.22905" lon="3.25457">
        <ele>71</ele>
        <time>2014-04-20T07:03:39.979Z</time>
      </trkpt>
      <trkpt lat="48.22907" lon="3.25453">
        <ele>71</ele>
        <time>2014-04-20T07:03:40.979Z</time>
      </trkpt>
      <trkpt lat="48.22908" lon="3.25449">
        <ele>71</ele>
        <time>2014-04-20T07:03:41.979Z</time>
      </trkpt>
      <trkpt lat="48.2291" lon="3.25444">
        <ele>71</ele>
        <time>2014-04-20T07:03:42.979Z</time>
      </trkpt>
      <trkpt lat="48.2291" lon="3.25438">
        <ele>71</ele>
        <time>2014-04-20T07:03:43.979Z</time>
      </trkpt>
      <trkpt lat="48.22911" lon="3.25431">
        <ele>72</ele>
        <time>2014-04-20T07:03:44.979Z</time>
      </trkpt>
      <trkpt lat="48.2291" lon="3.25427">
        <ele>72</ele>
        <time>2014-04-20T07:03:45.979Z</time>
      </trkpt>
      <trkpt lat="48.2291" lon="3.25421">
        <ele>72</ele>
        <time>2014-04-20T07:03:46.979Z</time>
      </trkpt>
      <trkpt lat="48.22909" lon="3.25416">
        <ele>72</ele>
        <time>2014-04-20T07:03:47.979Z</time>
      </trkpt>
      <trkpt lat="48.22909" lon="3.2541">
        <ele>72</ele>
        <time>2014-04-20T07:03:48.979Z</time>
      </trkpt>
      <trkpt lat="48.22909" lon="3.25406">
        <ele>72</ele>
        <time>2014-04-20T07:03:49.979Z</time>
      </trkpt>
      <trkpt lat="48.22908" lon="3.25399">
        <ele>72</ele>
        <time>2014-04-20T07:03:50.979Z</time>
      </trkpt>
      <trkpt lat="48.22907" lon="3.25395">
        <ele>72</ele>
        <time>2014-04-20T07:03:51.979Z</time>
      </trkpt>
      <trkpt lat="48.22906" lon="3.25391">
        <ele>72</ele>
        <time>2014-04-20T07:03:52.979Z</time>
      </trkpt>
      <trkpt lat="48.22903" lon="3.25384">
        <ele>72</ele>
        <time>2014-04-20T07:03:53.979Z</time>
      </trkpt>
      <trkpt lat="48.22901" lon="3.2538">
        <ele>72</ele>
        <time>2014-04-20T07:03:54.979Z</time>
      </trkpt>
      <trkpt lat="48.229" lon="3.25373">
        <ele>72</ele>
        <time>2014-04-20T07:03:55.979Z</time>
      </trkpt>
      <trkpt lat="48.22898" lon="3.25369">
        <ele>72</ele>
        <time>2014-04-20T07:03:56.979Z</time>
      </trkpt>
      <trkpt lat="48.22896" lon="3.25365">
        <ele>72</ele>
        <time>2014-04-20T07:03:57.979Z</time>
      </trkpt>
      <trkpt lat="48.22895" lon="3.25358">
        <ele>72</ele>
        <time>2014-04-20T07:03:58.979Z</time>
      </trkpt>
      <trkpt lat="48.22893" lon="3.25354">
        <ele>72</ele>
        <time>2014-04-20T07:03:59.979Z</time>
      </trkpt>
      <trkpt lat="48.2289" lon="3.25348">
        <ele>72</ele>
        <time>2014-04-20T07:04:00.979Z</time>
      </trkpt>
      <trkpt lat="48.22888" lon="3.25341">
        <ele>72</ele>
        <time>2014-04-20T07:04:01.979Z</time>
      </trkpt>
      <trkpt lat="48.22886" lon="3.25337">
        <ele>72</ele>
        <time>2014-04-20T07:04:02.979Z</time>
      </trkpt>
      <trkpt lat="48.22884" lon="3.2533">
        <ele>73</ele>
        <time>2014-04-20T07:04:03.979Z</time>
      </trkpt>
      <trkpt lat="48.22882" lon="3.25326">
        <ele>72</ele>
        <time>2014-04-20T07:04:04.979Z</time>
      </trkpt>
      <trkpt lat="48.2288" lon="3.2532">
        <ele>72</ele>
        <time>2014-04-20T07:04:05.979Z</time>
      </trkpt>
      <trkpt lat="48.22878" lon="3.25313">
        <ele>73</ele>
        <time>2014-04-20T07:04:06.979Z</time>
      </trkpt>
      <trkpt lat="48.22877" lon="3.25307">
        <ele>73</ele>
        <time>2014-04-20T07:04:07.979Z</time>
      </trkpt>
      <trkpt lat="48.22875" lon="3.253">
        <ele>73</ele>
        <time>2014-04-20T07:04:08.979Z</time>
      </trkpt>
      <trkpt lat="48.22874" lon="3.25296">
        <ele>73</ele>
        <time>2014-04-20T07:04:09.979Z</time>
      </trkpt>
      <trkpt lat="48.22871" lon="3.2529">
        <ele>73</ele>
        <time>2014-04-20T07:04:10.979Z</time>
      </trkpt>
      <trkpt lat="48.2287" lon="3.25283">
        <ele>73</ele>
        <time>2014-04-20T07:04:11.979Z</time>
      </trkpt>
      <trkpt lat="48.22868" lon="3.25277">
        <ele>73</ele>
        <time>2014-04-20T07:04:12.979Z</time>
      </trkpt>
      <trkpt lat="48.22867" lon="3.2527">
        <ele>73</ele>
        <time>2014-04-20T07:04:13.979Z</time>
      </trkpt>
      <trkpt lat="48.22866" lon="3.25264">
        <ele>73</ele>
        <time>2014-04-20T07:04:14.979Z</time>
      </trkpt>
      <trkpt lat="48.22864" lon="3.25258">
        <ele>73</ele>
        <time>2014-04-20T07:04:15.979Z</time>
      </trkpt>
      <trkpt lat="48.22863" lon="3.25251">
        <ele>73</ele>
        <time>2014-04-20T07:04:16.979Z</time>
      </trkpt>
      <trkpt lat="48.22861" lon="3.25245">
        <ele>74</ele>
        <time>2014-04-20T07:04:17.979Z</time>
      </trkpt>
      <trkpt lat="48.2286" lon="3.25238">
        <ele>74</ele>
        <time>2014-04-20T07:04:18.979Z</time>
      </trkpt>
      <trkpt lat="48.22859" lon="3.25232">
        <ele>74</ele>
        <time>2014-04-20T07:04:19.979Z</time>
      </trkpt>
      <trkpt lat="48.22856" lon="3.25225">
        <ele>74</ele>
        <time>2014-04-20T07:04:20.979Z</time>
      </trkpt>
      <trkpt lat="48.22855" lon="3.25221">
        <ele>74</ele>
        <time>2014-04-20T07:04:21.979Z</time>
      </trkpt>
      <trkpt lat="48.22854" lon="3.25215">
        <ele>74</ele>
        <time>2014-04-20T07:04:22.979Z</time>
      </trkpt>
      <trkpt lat="48.22853" lon="3.25208">
        <ele>74</ele>
        <time>2014-04-20T07:04:23.979Z</time>
      </trkpt>
      <trkpt lat="48.22851" lon="3.25202">
        <ele>74</ele>
        <time>2014-04-20T07:04:24.979Z</time>
      </trkpt>
      <trkpt lat="48.2285" lon="3.25197">
        <ele>74</ele>
        <time>2014-04-20T07:04:25.979Z</time>
      </trkpt>
      <trkpt lat="48.22849" lon="3.25191">
        <ele>74</ele>
        <time>2014-04-20T07:04:26.979Z</time>
      </trkpt>
      <trkpt lat="48.22848" lon="3.25187">
        <ele>74</ele>
        <time>2014-04-20T07:04:27.979Z</time>
      </trkpt>
      <trkpt lat="48.22847" lon="3.25182">
        <ele>74</ele>
        <time>2014-04-20T07:04:28.979Z</time>
      </trkpt>
      <trkpt lat="48.22847" lon="3.25182">
        <ele>74</ele>
        <time>2014-04-20T07:06:14.979Z</time>
      </trkpt>
      <trkpt lat="48.22845" lon="3.25174">
        <ele>73</ele>
        <time>2014-04-20T07:06:15.979Z</time>
      </trkpt>
      <trkpt lat="48.22845" lon="3.25174">
        <ele>73</ele>
        <time>2014-04-20T07:06:17.979Z</time>
      </trkpt>
      <trkpt lat="48.22841" lon="3.25167">
        <ele>73</ele>
        <time>2014-04-20T07:06:18.979Z</time>
      </trkpt>
      <trkpt lat="48.22841" lon="3.25167">
        <ele>73</ele>
        <time>2014-04-20T07:06:20.979Z</time>
      </trkpt>
      <trkpt lat="48.22838" lon="3.25159">
        <ele>73</ele>
        <time>2014-04-20T07:06:21.979Z</time>
      </trkpt>
      <trkpt lat="48.22838" lon="3.25159">
        <ele>73</ele>
        <time>2014-04-20T07:06:25.979Z</time>
      </trkpt>
      <trkpt lat="48.22839" lon="3.25144">
        <ele>74</ele>
        <time>2014-04-20T07:06:26.979Z</time>
      </trkpt>
      <trkpt lat="48.22839" lon="3.25144">
        <ele>74</ele>
        <time>2014-04-20T07:06:29.979Z</time>
      </trkpt>
      <trkpt lat="48.22847" lon="3.25131">
        <ele>74</ele>
        <time>2014-04-20T07:06:30.979Z</time>
      </trkpt>
      <trkpt lat="48.22847" lon="3.25131">
        <ele>74</ele>
        <time>2014-04-20T07:06:31.979Z</time>
      </trkpt>
      <trkpt lat="48.22851" lon="3.25125">
        <ele>74</ele>
        <time>2014-04-20T07:06:32.979Z</time>
      </trkpt>
      <trkpt lat="48.22853" lon="3.2512">
        <ele>74</ele>
        <time>2014-04-20T07:06:33.979Z</time>
      </trkpt>
      <trkpt lat="48.22855" lon="3.25118">
        <ele>74</ele>
        <time>2014-04-20T07:06:34.979Z</time>
      </trkpt>
      <trkpt lat="48.22859" lon="3.25114">
        <ele>74</ele>
        <time>2014-04-20T07:06:35.979Z</time>
      </trkpt>
      <trkpt lat="48.22861" lon="3.25112">
        <ele>74</ele>
        <time>2014-04-20T07:06:36.979Z</time>
      </trkpt>
      <trkpt lat="48.22863" lon="3.25107">
        <ele>74</ele>
        <time>2014-04-20T07:06:37.979Z</time>
      </trkpt>
      <trkpt lat="48.22865" lon="3.25105">
        <ele>74</ele>
        <time>2014-04-20T07:06:38.979Z</time>
      </trkpt>
      <trkpt lat="48.22867" lon="3.25101">
        <ele>75</ele>
        <time>2014-04-20T07:06:39.979Z</time>
      </trkpt>
      <trkpt lat="48.2287" lon="3.25097">
        <ele>75</ele>
        <time>2014-04-20T07:06:40.979Z</time>
      </trkpt>
      <trkpt lat="48.22873" lon="3.25094">
        <ele>75</ele>
        <time>2014-04-20T07:06:41.979Z</time>
      </trkpt>
      <trkpt lat="48.22875" lon="3.2509">
        <ele>75</ele>
        <time>2014-04-20T07:06:42.979Z</time>
      </trkpt>
      <trkpt lat="48.22878" lon="3.25088">
        <ele>75</ele>
        <time>2014-04-20T07:06:43.979Z</time>
      </trkpt>
      <trkpt lat="48.2288" lon="3.25084">
        <ele>75</ele>
        <time>2014-04-20T07:06:44.979Z</time>
      </trkpt>
      <trkpt lat="48.22882" lon="3.25082">
        <ele>76</ele>
        <time>2014-04-20T07:06:45.979Z</time>
      </trkpt>
      <trkpt lat="48.22885" lon="3.25077">
        <ele>76</ele>
        <time>2014-04-20T07:06:46.979Z</time>
      </trkpt>
      <trkpt lat="48.22888" lon="3.25075">
        <ele>76</ele>
        <time>2014-04-20T07:06:47.979Z</time>
      </trkpt>
      <trkpt lat="48.2289" lon="3.25073">
        <ele>76</ele>
        <time>2014-04-20T07:06:48.979Z</time>
      </trkpt>
      <trkpt lat="48.22893" lon="3.25069">
        <ele>76</ele>
        <time>2014-04-20T07:06:49.979Z</time>
      </trkpt>
      <trkpt lat="48.22895" lon="3.25067">
        <ele>76</ele>
        <time>2014-04-20T07:06:50.979Z</time>
      </trkpt>
      <trkpt lat="48.22898" lon="3.25064">
        <ele>76</ele>
        <time>2014-04-20T07:06:51.979Z</time>
      </trkpt>
      <trkpt lat="48.229" lon="3.2506">
        <ele>76</ele>
        <time>2014-04-20T07:06:52.979Z</time>
      </trkpt>
      <trkpt lat="48.22904" lon="3.25058">
        <ele>76</ele>
        <time>2014-04-20T07:06:53.979Z</time>
      </trkpt>
      <trkpt lat="48.22906" lon="3.25056">
        <ele>76</ele>
        <time>2014-04-20T07:06:54.979Z</time>
      </trkpt>
      <trkpt lat="48.22909" lon="3.25054">
        <ele>76</ele>
        <time>2014-04-20T07:06:55.979Z</time>
      </trkpt>
      <trkpt lat="48.22912" lon="3.25052">
        <ele>76</ele>
        <time>2014-04-20T07:06:56.979Z</time>
      </trkpt>
      <trkpt lat="48.22914" lon="3.25049">
        <ele>76</ele>
        <time>2014-04-20T07:06:57.979Z</time>
      </trkpt>
      <trkpt lat="48.22918" lon="3.25045">
        <ele>76</ele>
        <time>2014-04-20T07:06:58.979Z</time>
      </trkpt>
      <trkpt lat="48.2292" lon="3.25043">
        <ele>76</ele>
        <time>2014-04-20T07:06:59.979Z</time>
      </trkpt>
      <trkpt lat="48.22923" lon="3.25041">
        <ele>77</ele>
        <time>2014-04-20T07:07:00.979Z</time>
      </trkpt>
      <trkpt lat="48.22926" lon="3.25039">
        <ele>77</ele>
        <time>2014-04-20T07:07:01.979Z</time>
      </trkpt>
      <trkpt lat="48.22928" lon="3.25037">
        <ele>77</ele>
        <time>2014-04-20T07:07:02.979Z</time>
      </trkpt>
      <trkpt lat="48.22932" lon="3.25032">
        <ele>77</ele>
        <time>2014-04-20T07:07:03.979Z</time>
      </trkpt>
      <trkpt lat="48.22934" lon="3.2503">
        <ele>77</ele>
        <time>2014-04-20T07:07:04.979Z</time>
      </trkpt>
      <trkpt lat="48.22937" lon="3.25028">
        <ele>77</ele>
        <time>2014-04-20T07:07:05.979Z</time>
      </trkpt>
      <trkpt lat="48.2294" lon="3.25026">
        <ele>77</ele>
        <time>2014-04-20T07:07:06.979Z</time>
      </trkpt>
      <trkpt lat="48.22942" lon="3.25024">
        <ele>77</ele>
        <time>2014-04-20T07:07:07.979Z</time>
      </trkpt>
      <trkpt lat="48.22945" lon="3.25019">
        <ele>77</ele>
        <time>2014-04-20T07:07:08.979Z</time>
      </trkpt>
      <trkpt lat="48.22949" lon="3.25017">
        <ele>77</ele>
        <time>2014-04-20T07:07:09.979Z</time>
      </trkpt>
      <trkpt lat="48.22952" lon="3.25015">
        <ele>77</ele>
        <time>2014-04-20T07:07:10.979Z</time>
      </trkpt>
      <trkpt lat="48.22955" lon="3.25013">
        <ele>77</ele>
        <time>2014-04-20T07:07:11.979Z</time>
      </trkpt>
      <trkpt lat="48.22958" lon="3.25009">
        <ele>77</ele>
        <time>2014-04-20T07:07:12.979Z</time>
      </trkpt>
      <trkpt lat="48.22962" lon="3.25006">
        <ele>77</ele>
        <time>2014-04-20T07:07:13.979Z</time>
      </trkpt>
      <trkpt lat="48.22965" lon="3.25002">
        <ele>77</ele>
        <time>2014-04-20T07:07:14.979Z</time>
      </trkpt>
      <trkpt lat="48.22968" lon="3.25">
        <ele>77</ele>
        <time>2014-04-20T07:07:15.979Z</time>
      </trkpt>
      <trkpt lat="48.22971" lon="3.24996">
        <ele>78</ele>
        <time>2014-04-20T07:07:16.979Z</time>
      </trkpt>
      <trkpt lat="48.22974" lon="3.24991">
        <ele>78</ele>
        <time>2014-04-20T07:07:17.979Z</time>
      </trkpt>
      <trkpt lat="48.22978" lon="3.24989">
        <ele>78</ele>
        <time>2014-04-20T07:07:18.979Z</time>
      </trkpt>
      <trkpt lat="48.22981" lon="3.24985">
        <ele>78</ele>
        <time>2014-04-20T07:07:19.979Z</time>
      </trkpt>
      <trkpt lat="48.22984" lon="3.24983">
        <ele>78</ele>
        <time>2014-04-20T07:07:20.979Z</time>
      </trkpt>
      <trkpt lat="48.22987" lon="3.24979">
        <ele>78</ele>
        <time>2014-04-20T07:07:21.979Z</time>
      </trkpt>
      <trkpt lat="48.22989" lon="3.24974">
        <ele>78</ele>
        <time>2014-04-20T07:07:22.979Z</time>
      </trkpt>
      <trkpt lat="48.22993" lon="3.2497">
        <ele>78</ele>
        <time>2014-04-20T07:07:23.979Z</time>
      </trkpt>
      <trkpt lat="48.22995" lon="3.24966">
        <ele>78</ele>
        <time>2014-04-20T07:07:24.979Z</time>
      </trkpt>
      <trkpt lat="48.22998" lon="3.24964">
        <ele>78</ele>
        <time>2014-04-20T07:07:25.979Z</time>
      </trkpt>
      <trkpt lat="48.23001" lon="3.24959">
        <ele>78</ele>
        <time>2014-04-20T07:07:26.979Z</time>
      </trkpt>
      <trkpt lat="48.23003" lon="3.24955">
        <ele>78</ele>
        <time>2014-04-20T07:07:27.979Z</time>
      </trkpt>
      <trkpt lat="48.23007" lon="3.24951">
        <ele>78</ele>
        <time>2014-04-20T07:07:28.979Z</time>
      </trkpt>
      <trkpt lat="48.2301" lon="3.24946">
        <ele>79</ele>
        <time>2014-04-20T07:07:29.979Z</time>
      </trkpt>
      <trkpt lat="48.23012" lon="3.24942">
        <ele>79</ele>
        <time>2014-04-20T07:07:30.979Z</time>
      </trkpt>
      <trkpt lat="48.23014" lon="3.24936">
        <ele>79</ele>
        <time>2014-04-20T07:07:31.979Z</time>
      </trkpt>
      <trkpt lat="48.23016" lon="3.24931">
        <ele>79</ele>
        <time>2014-04-20T07:07:32.979Z</time>
      </trkpt>
      <trkpt lat="48.2302" lon="3.24927">
        <ele>79</ele>
        <time>2014-04-20T07:07:33.979Z</time>
      </trkpt>
      <trkpt lat="48.23022" lon="3.24923">
        <ele>79</ele>
        <time>2014-04-20T07:07:34.979Z</time>
      </trkpt>
      <trkpt lat="48.23024" lon="3.24919">
        <ele>79</ele>
        <time>2014-04-20T07:07:35.979Z</time>
      </trkpt>
      <trkpt lat="48.23027" lon="3.24914">
        <ele>80</ele>
        <time>2014-04-20T07:07:36.979Z</time>
      </trkpt>
      <trkpt lat="48.23029" lon="3.2491">
        <ele>80</ele>
        <time>2014-04-20T07:07:37.979Z</time>
      </trkpt>
      <trkpt lat="48.2303" lon="3.24906">
        <ele>80</ele>
        <time>2014-04-20T07:07:38.979Z</time>
      </trkpt>
      <trkpt lat="48.23031" lon="3.24901">
        <ele>80</ele>
        <time>2014-04-20T07:07:39.979Z</time>
      </trkpt>
      <trkpt lat="48.23031" lon="3.24897">
        <ele>80</ele>
        <time>2014-04-20T07:07:40.979Z</time>
      </trkpt>
      <trkpt lat="48.23031" lon="3.24891">
        <ele>80</ele>
        <time>2014-04-20T07:07:41.979Z</time>
      </trkpt>
      <trkpt lat="48.2303" lon="3.24886">
        <ele>81</ele>
        <time>2014-04-20T07:07:42.979Z</time>
      </trkpt>
      <trkpt lat="48.23028" lon="3.24882">
        <ele>81</ele>
        <time>2014-04-20T07:07:43.979Z</time>
      </trkpt>
      <trkpt lat="48.23026" lon="3.24878">
        <ele>81</ele>
        <time>2014-04-20T07:07:44.979Z</time>
      </trkpt>
      <trkpt lat="48.23023" lon="3.24873">
        <ele>81</ele>
        <time>2014-04-20T07:07:45.979Z</time>
      </trkpt>
      <trkpt lat="48.2302" lon="3.24871">
        <ele>81</ele>
        <time>2014-04-20T07:07:46.979Z</time>
      </trkpt>
      <trkpt lat="48.23016" lon="3.24867">
        <ele>81</ele>
        <time>2014-04-20T07:07:47.979Z</time>
      </trkpt>
      <trkpt lat="48.23013" lon="3.24863">
        <ele>81</ele>
        <time>2014-04-20T07:07:48.979Z</time>
      </trkpt>
      <trkpt lat="48.2301" lon="3.24861">
        <ele>81</ele>
        <time>2014-04-20T07:07:49.979Z</time>
      </trkpt>
      <trkpt lat="48.23008" lon="3.24856">
        <ele>81</ele>
        <time>2014-04-20T07:07:50.979Z</time>
      </trkpt>
      <trkpt lat="48.23006" lon="3.24854">
        <ele>81</ele>
        <time>2014-04-20T07:07:51.979Z</time>
      </trkpt>
      <trkpt lat="48.23002" lon="3.2485">
        <ele>81</ele>
        <time>2014-04-20T07:07:52.979Z</time>
      </trkpt>
      <trkpt lat="48.23" lon="3.24846">
        <ele>81</ele>
        <time>2014-04-20T07:07:53.979Z</time>
      </trkpt>
      <trkpt lat="48.22998" lon="3.24841">
        <ele>82</ele>
        <time>2014-04-20T07:07:54.979Z</time>
      </trkpt>
      <trkpt lat="48.22997" lon="3.24839">
        <ele>82</ele>
        <time>2014-04-20T07:07:55.979Z</time>
      </trkpt>
      <trkpt lat="48.22995" lon="3.24835">
        <ele>82</ele>
        <time>2014-04-20T07:07:56.979Z</time>
      </trkpt>
      <trkpt lat="48.22993" lon="3.24831">
        <ele>82</ele>
        <time>2014-04-20T07:07:57.979Z</time>
      </trkpt>
      <trkpt lat="48.22991" lon="3.24826">
        <ele>82</ele>
        <time>2014-04-20T07:07:58.979Z</time>
      </trkpt>
      <trkpt lat="48.22989" lon="3.24822">
        <ele>82</ele>
        <time>2014-04-20T07:07:59.979Z</time>
      </trkpt>
      <trkpt lat="48.22987" lon="3.24816">
        <ele>82</ele>
        <time>2014-04-20T07:08:00.979Z</time>
      </trkpt>
      <trkpt lat="48.22985" lon="3.24811">
        <ele>82</ele>
        <time>2014-04-20T07:08:01.979Z</time>
      </trkpt>
      <trkpt lat="48.22984" lon="3.24807">
        <ele>82</ele>
        <time>2014-04-20T07:08:02.979Z</time>
      </trkpt>
      <trkpt lat="48.22982" lon="3.24803">
        <ele>82</ele>
        <time>2014-04-20T07:08:03.979Z</time>
      </trkpt>
      <trkpt lat="48.2298" lon="3.24798">
        <ele>82</ele>
        <time>2014-04-20T07:08:04.979Z</time>
      </trkpt>
      <trkpt lat="48.22978" lon="3.24794">
        <ele>82</ele>
        <time>2014-04-20T07:08:05.979Z</time>
      </trkpt>
      <trkpt lat="48.22977" lon="3.2479">
        <ele>82</ele>
        <time>2014-04-20T07:08:06.979Z</time>
      </trkpt>
      <trkpt lat="48.22976" lon="3.24783">
        <ele>82</ele>
        <time>2014-04-20T07:08:07.979Z</time>
      </trkpt>
      <trkpt lat="48.22976" lon="3.24779">
        <ele>82</ele>
        <time>2014-04-20T07:08:08.979Z</time>
      </trkpt>
      <trkpt lat="48.22976" lon="3.24773">
        <ele>82</ele>
        <time>2014-04-20T07:08:09.979Z</time>
      </trkpt>
      <trkpt lat="48.22977" lon="3.24768">
        <ele>83</ele>
        <time>2014-04-20T07:08:10.979Z</time>
      </trkpt>
      <trkpt lat="48.22978" lon="3.24766">
        <ele>83</ele>
        <time>2014-04-20T07:08:11.979Z</time>
      </trkpt>
      <trkpt lat="48.2298" lon="3.24762">
        <ele>83</ele>
        <time>2014-04-20T07:08:12.979Z</time>
      </trkpt>
      <trkpt lat="48.22983" lon="3.24758">
        <ele>83</ele>
        <time>2014-04-20T07:08:13.979Z</time>
      </trkpt>
      <trkpt lat="48.22986" lon="3.24755">
        <ele>83</ele>
        <time>2014-04-20T07:08:14.979Z</time>
      </trkpt>
      <trkpt lat="48.22989" lon="3.24751">
        <ele>83</ele>
        <time>2014-04-20T07:08:15.979Z</time>
      </trkpt>
      <trkpt lat="48.22993" lon="3.24749">
        <ele>84</ele>
        <time>2014-04-20T07:08:16.979Z</time>
      </trkpt>
      <trkpt lat="48.22996" lon="3.24747">
        <ele>84</ele>
        <time>2014-04-20T07:08:17.979Z</time>
      </trkpt>
      <trkpt lat="48.22999" lon="3.24745">
        <ele>84</ele>
        <time>2014-04-20T07:08:18.979Z</time>
      </trkpt>
      <trkpt lat="48.23002" lon="3.24743">
        <ele>84</ele>
        <time>2014-04-20T07:08:19.979Z</time>
      </trkpt>
      <trkpt lat="48.23007" lon="3.2474">
        <ele>85</ele>
        <time>2014-04-20T07:08:20.979Z</time>
      </trkpt>
      <trkpt lat="48.2301" lon="3.24738">
        <ele>85</ele>
        <time>2014-04-20T07:08:21.979Z</time>
      </trkpt>
      <trkpt lat="48.23013" lon="3.24736">
        <ele>85</ele>
        <time>2014-04-20T07:08:22.979Z</time>
      </trkpt>
      <trkpt lat="48.23016" lon="3.24734">
        <ele>85</ele>
        <time>2014-04-20T07:08:23.979Z</time>
      </trkpt>
      <trkpt lat="48.2302" lon="3.24732">
        <ele>85</ele>
        <time>2014-04-20T07:08:24.979Z</time>
      </trkpt>
      <trkpt lat="48.23023" lon="3.2473">
        <ele>85</ele>
        <time>2014-04-20T07:08:25.979Z</time>
      </trkpt>
      <trkpt lat="48.23026" lon="3.24728">
        <ele>85</ele>
        <time>2014-04-20T07:08:26.979Z</time>
      </trkpt>
      <trkpt lat="48.23029" lon="3.24725">
        <ele>85</ele>
        <time>2014-04-20T07:08:27.979Z</time>
      </trkpt>
      <trkpt lat="48.23032" lon="3.24721">
        <ele>85</ele>
        <time>2014-04-20T07:08:28.979Z</time>
      </trkpt>
      <trkpt lat="48.23035" lon="3.24719">
        <ele>86</ele>
        <time>2014-04-20T07:08:29.979Z</time>
      </trkpt>
      <trkpt lat="48.23038" lon="3.24717">
        <ele>86</ele>
        <time>2014-04-20T07:08:30.979Z</time>
      </trkpt>
      <trkpt lat="48.23041" lon="3.24715">
        <ele>86</ele>
        <time>2014-04-20T07:08:31.979Z</time>
      </trkpt>
      <trkpt lat="48.23044" lon="3.24713">
        <ele>86</ele>
        <time>2014-04-20T07:08:32.979Z</time>
      </trkpt>
      <trkpt lat="48.23047" lon="3.2471">
        <ele>86</ele>
        <time>2014-04-20T07:08:33.979Z</time>
      </trkpt>
      <trkpt lat="48.2305" lon="3.24708">
        <ele>86</ele>
        <time>2014-04-20T07:08:34.979Z</time>
      </trkpt>
      <trkpt lat="48.23053" lon="3.24706">
        <ele>86</ele>
        <time>2014-04-20T07:08:35.979Z</time>
      </trkpt>
      <trkpt lat="48.23056" lon="3.24704">
        <ele>86</ele>
        <time>2014-04-20T07:08:36.979Z</time>
      </trkpt>
      <trkpt lat="48.23059" lon="3.24702">
        <ele>86</ele>
        <time>2014-04-20T07:08:37.979Z</time>
      </trkpt>
      <trkpt lat="48.23062" lon="3.247">
        <ele>86</ele>
        <time>2014-04-20T07:08:38.979Z</time>
      </trkpt>
      <trkpt lat="48.23065" lon="3.24697">
        <ele>86</ele>
        <time>2014-04-20T07:08:39.979Z</time>
      </trkpt>
      <trkpt lat="48.23068" lon="3.24695">
        <ele>87</ele>
        <time>2014-04-20T07:08:40.979Z</time>
      </trkpt>
      <trkpt lat="48.23071" lon="3.24693">
        <ele>87</ele>
        <time>2014-04-20T07:08:41.979Z</time>
      </trkpt>
      <trkpt lat="48.23073" lon="3.24691">
        <ele>87</ele>
        <time>2014-04-20T07:08:42.979Z</time>
      </trkpt>
      <trkpt lat="48.23075" lon="3.24689">
        <ele>87</ele>
        <time>2014-04-20T07:08:43.979Z</time>
      </trkpt>
      <trkpt lat="48.23079" lon="3.24687">
        <ele>87</ele>
        <time>2014-04-20T07:08:44.979Z</time>
      </trkpt>
      <trkpt lat="48.23081" lon="3.24685">
        <ele>87</ele>
        <time>2014-04-20T07:08:45.979Z</time>
      </trkpt>
      <trkpt lat="48.23083" lon="3.24682">
        <ele>87</ele>
        <time>2014-04-20T07:08:46.979Z</time>
      </trkpt>
      <trkpt lat="48.23085" lon="3.2468">
        <ele>89</ele>
        <time>2014-04-20T07:08:47.979Z</time>
      </trkpt>
      <trkpt lat="48.23088" lon="3.24678">
        <ele>89</ele>
        <time>2014-04-20T07:08:48.979Z</time>
      </trkpt>
      <trkpt lat="48.2309" lon="3.24676">
        <ele>89</ele>
        <time>2014-04-20T07:08:49.979Z</time>
      </trkpt>
      <trkpt lat="48.23094" lon="3.24674">
        <ele>89</ele>
        <time>2014-04-20T07:08:50.979Z</time>
      </trkpt>
      <trkpt lat="48.23096" lon="3.24672">
        <ele>89</ele>
        <time>2014-04-20T07:08:51.979Z</time>
      </trkpt>
      <trkpt lat="48.23099" lon="3.2467">
        <ele>89</ele>
        <time>2014-04-20T07:08:52.979Z</time>
      </trkpt>
      <trkpt lat="48.23101" lon="3.24667">
        <ele>89</ele>
        <time>2014-04-20T07:08:53.979Z</time>
      </trkpt>
      <trkpt lat="48.23104" lon="3.24663">
        <ele>91</ele>
        <time>2014-04-20T07:08:54.979Z</time>
      </trkpt>
      <trkpt lat="48.23106" lon="3.24661">
        <ele>91</ele>
        <time>2014-04-20T07:08:55.979Z</time>
      </trkpt>
      <trkpt lat="48.2311" lon="3.24657">
        <ele>91</ele>
        <time>2014-04-20T07:08:56.979Z</time>
      </trkpt>
      <trkpt lat="48.23112" lon="3.24655">
        <ele>91</ele>
        <time>2014-04-20T07:08:57.979Z</time>
      </trkpt>
      <trkpt lat="48.23114" lon="3.2465">
        <ele>91</ele>
        <time>2014-04-20T07:08:58.979Z</time>
      </trkpt>
      <trkpt lat="48.23117" lon="3.24646">
        <ele>91</ele>
        <time>2014-04-20T07:08:59.979Z</time>
      </trkpt>
      <trkpt lat="48.23119" lon="3.24642">
        <ele>91</ele>
        <time>2014-04-20T07:09:00.979Z</time>
      </trkpt>
      <trkpt lat="48.23123" lon="3.24637">
        <ele>92</ele>
        <time>2014-04-20T07:09:01.979Z</time>
      </trkpt>
      <trkpt lat="48.23125" lon="3.24633">
        <ele>92</ele>
        <time>2014-04-20T07:09:02.979Z</time>
      </trkpt>
      <trkpt lat="48.23127" lon="3.24631">
        <ele>92</ele>
        <time>2014-04-20T07:09:03.979Z</time>
      </trkpt>
      <trkpt lat="48.23129" lon="3.24627">
        <ele>92</ele>
        <time>2014-04-20T07:09:04.979Z</time>
      </trkpt>
      <trkpt lat="48.23132" lon="3.2462">
        <ele>92</ele>
        <time>2014-04-20T07:09:05.979Z</time>
      </trkpt>
      <trkpt lat="48.23134" lon="3.24616">
        <ele>92</ele>
        <time>2014-04-20T07:09:06.979Z</time>
      </trkpt>
      <trkpt lat="48.23136" lon="3.24612">
        <ele>92</ele>
        <time>2014-04-20T07:09:07.979Z</time>
      </trkpt>
      <trkpt lat="48.23139" lon="3.24607">
        <ele>92</ele>
        <time>2014-04-20T07:09:08.979Z</time>
      </trkpt>
      <trkpt lat="48.23141" lon="3.24603">
        <ele>92</ele>
        <time>2014-04-20T07:09:09.979Z</time>
      </trkpt>
      <trkpt lat="48.23143" lon="3.24599">
        <ele>92</ele>
        <time>2014-04-20T07:09:10.979Z</time>
      </trkpt>
      <trkpt lat="48.23145" lon="3.24594">
        <ele>92</ele>
        <time>2014-04-20T07:09:11.979Z</time>
      </trkpt>
      <trkpt lat="48.23147" lon="3.2459">
        <ele>92</ele>
        <time>2014-04-20T07:09:12.979Z</time>
      </trkpt>
      <trkpt lat="48.23149" lon="3.24588">
        <ele>92</ele>
        <time>2014-04-20T07:09:13.979Z</time>
      </trkpt>
      <trkpt lat="48.23151" lon="3.24584">
        <ele>92</ele>
        <time>2014-04-20T07:09:14.979Z</time>
      </trkpt>
      <trkpt lat="48.23154" lon="3.24579">
        <ele>93</ele>
        <time>2014-04-20T07:09:15.979Z</time>
      </trkpt>
      <trkpt lat="48.23156" lon="3.24575">
        <ele>93</ele>
        <time>2014-04-20T07:09:16.979Z</time>
      </trkpt>
      <trkpt lat="48.23158" lon="3.24571">
        <ele>93</ele>
        <time>2014-04-20T07:09:17.979Z</time>
      </trkpt>
      <trkpt lat="48.2316" lon="3.24567">
        <ele>93</ele>
        <time>2014-04-20T07:09:18.979Z</time>
      </trkpt>
      <trkpt lat="48.23161" lon="3.24562">
        <ele>93</ele>
        <time>2014-04-20T07:09:19.979Z</time>
      </trkpt>
      <trkpt lat="48.23163" lon="3.24558">
        <ele>93</ele>
        <time>2014-04-20T07:09:20.979Z</time>
      </trkpt>
      <trkpt lat="48.23165" lon="3.24554">
        <ele>93</ele>
        <time>2014-04-20T07:09:21.979Z</time>
      </trkpt>
      <trkpt lat="48.23168" lon="3.24549">
        <ele>95</ele>
        <time>2014-04-20T07:09:22.979Z</time>
      </trkpt>
      <trkpt lat="48.2317" lon="3.24545">
        <ele>95</ele>
        <time>2014-04-20T07:09:23.979Z</time>
      </trkpt>
      <trkpt lat="48.23172" lon="3.24541">
        <ele>95</ele>
        <time>2014-04-20T07:09:24.979Z</time>
      </trkpt>
      <trkpt lat="48.23174" lon="3.24539">
        <ele>95</ele>
        <time>2014-04-20T07:09:25.979Z</time>
      </trkpt>
      <trkpt lat="48.23176" lon="3.24534">
        <ele>95</ele>
        <time>2014-04-20T07:09:26.979Z</time>
      </trkpt>
      <trkpt lat="48.23177" lon="3.24528">
        <ele>95</ele>
        <time>2014-04-20T07:09:27.979Z</time>
      </trkpt>
      <trkpt lat="48.23178" lon="3.24524">
        <ele>95</ele>
        <time>2014-04-20T07:09:28.979Z</time>
      </trkpt>
      <trkpt lat="48.23179" lon="3.24519">
        <ele>95</ele>
        <time>2014-04-20T07:09:29.979Z</time>
      </trkpt>
      <trkpt lat="48.23179" lon="3.24515">
        <ele>95</ele>
        <time>2014-04-20T07:09:30.979Z</time>
      </trkpt>
      <trkpt lat="48.23179" lon="3.24511">
        <ele>95</ele>
        <time>2014-04-20T07:09:31.979Z</time>
      </trkpt>
      <trkpt lat="48.23179" lon="3.24504">
        <ele>94</ele>
        <time>2014-04-20T07:09:32.979Z</time>
      </trkpt>
      <trkpt lat="48.23179" lon="3.245">
        <ele>94</ele>
        <time>2014-04-20T07:09:33.979Z</time>
      </trkpt>
      <trkpt lat="48.23177" lon="3.24498">
        <ele>95</ele>
        <time>2014-04-20T07:09:34.979Z</time>
      </trkpt>
      <trkpt lat="48.23174" lon="3.24494">
        <ele>95</ele>
        <time>2014-04-20T07:09:35.979Z</time>
      </trkpt>
      <trkpt lat="48.23171" lon="3.24492">
        <ele>95</ele>
        <time>2014-04-20T07:09:36.979Z</time>
      </trkpt>
      <trkpt lat="48.23168" lon="3.24489">
        <ele>95</ele>
        <time>2014-04-20T07:09:37.979Z</time>
      </trkpt>
      <trkpt lat="48.23165" lon="3.24487">
        <ele>94</ele>
        <time>2014-04-20T07:09:38.979Z</time>
      </trkpt>
      <trkpt lat="48.23163" lon="3.24485">
        <ele>94</ele>
        <time>2014-04-20T07:09:39.979Z</time>
      </trkpt>
      <trkpt lat="48.23161" lon="3.24483">
        <ele>94</ele>
        <time>2014-04-20T07:09:40.979Z</time>
      </trkpt>
      <trkpt lat="48.23158" lon="3.24481">
        <ele>95</ele>
        <time>2014-04-20T07:09:41.979Z</time>
      </trkpt>
      <trkpt lat="48.23156" lon="3.24479">
        <ele>95</ele>
        <time>2014-04-20T07:09:42.979Z</time>
      </trkpt>
      <trkpt lat="48.23154" lon="3.24476">
        <ele>95</ele>
        <time>2014-04-20T07:09:43.979Z</time>
      </trkpt>
      <trkpt lat="48.23151" lon="3.24474">
        <ele>95</ele>
        <time>2014-04-20T07:09:44.979Z</time>
      </trkpt>
      <trkpt lat="48.23149" lon="3.24472">
        <ele>95</ele>
        <time>2014-04-20T07:09:45.979Z</time>
      </trkpt>
      <trkpt lat="48.23147" lon="3.2447">
        <ele>95</ele>
        <time>2014-04-20T07:09:46.979Z</time>
      </trkpt>
      <trkpt lat="48.23145" lon="3.24466">
        <ele>95</ele>
        <time>2014-04-20T07:09:47.979Z</time>
      </trkpt>
      <trkpt lat="48.23143" lon="3.24464">
        <ele>96</ele>
        <time>2014-04-20T07:09:48.979Z</time>
      </trkpt>
      <trkpt lat="48.23141" lon="3.24461">
        <ele>96</ele>
        <time>2014-04-20T07:09:49.979Z</time>
      </trkpt>
      <trkpt lat="48.23139" lon="3.24459">
        <ele>96</ele>
        <time>2014-04-20T07:09:50.979Z</time>
      </trkpt>
      <trkpt lat="48.23136" lon="3.24457">
        <ele>96</ele>
        <time>2014-04-20T07:09:51.979Z</time>
      </trkpt>
      <trkpt lat="48.23135" lon="3.24455">
        <ele>96</ele>
        <time>2014-04-20T07:09:52.979Z</time>
      </trkpt>
      <trkpt lat="48.23133" lon="3.24451">
        <ele>96</ele>
        <time>2014-04-20T07:09:53.979Z</time>
      </trkpt>
      <trkpt lat="48.23131" lon="3.24449">
        <ele>96</ele>
        <time>2014-04-20T07:09:54.979Z</time>
      </trkpt>
      <trkpt lat="48.23129" lon="3.24446">
        <ele>96</ele>
        <time>2014-04-20T07:09:55.979Z</time>
      </trkpt>
      <trkpt lat="48.23127" lon="3.24444">
        <ele>96</ele>
        <time>2014-04-20T07:09:56.979Z</time>
      </trkpt>
      <trkpt lat="48.23125" lon="3.24442">
        <ele>96</ele>
        <time>2014-04-20T07:09:57.979Z</time>
      </trkpt>
      <trkpt lat="48.23121" lon="3.2444">
        <ele>97</ele>
        <time>2014-04-20T07:09:58.979Z</time>
      </trkpt>
      <trkpt lat="48.23119" lon="3.24438">
        <ele>97</ele>
        <time>2014-04-20T07:09:59.979Z</time>
      </trkpt>
      <trkpt lat="48.23116" lon="3.24434">
        <ele>97</ele>
        <time>2014-04-20T07:10:00.979Z</time>
      </trkpt>
      <trkpt lat="48.23114" lon="3.24431">
        <ele>97</ele>
        <time>2014-04-20T07:10:01.979Z</time>
      </trkpt>
      <trkpt lat="48.23111" lon="3.24429">
        <ele>97</ele>
        <time>2014-04-20T07:10:02.979Z</time>
      </trkpt>
      <trkpt lat="48.23107" lon="3.24425">
        <ele>97</ele>
        <time>2014-04-20T07:10:03.979Z</time>
      </trkpt>
      <trkpt lat="48.23104" lon="3.24423">
        <ele>98</ele>
        <time>2014-04-20T07:10:04.979Z</time>
      </trkpt>
      <trkpt lat="48.23101" lon="3.24419">
        <ele>98</ele>
        <time>2014-04-20T07:10:05.979Z</time>
      </trkpt>
      <trkpt lat="48.23098" lon="3.24414">
        <ele>100</ele>
        <time>2014-04-20T07:10:06.979Z</time>
      </trkpt>
      <trkpt lat="48.23095" lon="3.2441">
        <ele>100</ele>
        <time>2014-04-20T07:10:07.979Z</time>
      </trkpt>
      <trkpt lat="48.23091" lon="3.24406">
        <ele>100</ele>
        <time>2014-04-20T07:10:08.979Z</time>
      </trkpt>
      <trkpt lat="48.23089" lon="3.24401">
        <ele>100</ele>
        <time>2014-04-20T07:10:09.979Z</time>
      </trkpt>
      <trkpt lat="48.23086" lon="3.24397">
        <ele>100</ele>
        <time>2014-04-20T07:10:10.979Z</time>
      </trkpt>
      <trkpt lat="48.23084" lon="3.24395">
        <ele>100</ele>
        <time>2014-04-20T07:10:11.979Z</time>
      </trkpt>
      <trkpt lat="48.23081" lon="3.24391">
        <ele>101</ele>
        <time>2014-04-20T07:10:12.979Z</time>
      </trkpt>
      <trkpt lat="48.23079" lon="3.24386">
        <ele>102</ele>
        <time>2014-04-20T07:10:13.979Z</time>
      </trkpt>
      <trkpt lat="48.23075" lon="3.24382">
        <ele>102</ele>
        <time>2014-04-20T07:10:14.979Z</time>
      </trkpt>
      <trkpt lat="48.23072" lon="3.24378">
        <ele>102</ele>
        <time>2014-04-20T07:10:15.979Z</time>
      </trkpt>
      <trkpt lat="48.2307" lon="3.24373">
        <ele>102</ele>
        <time>2014-04-20T07:10:16.979Z</time>
      </trkpt>
      <trkpt lat="48.23067" lon="3.24369">
        <ele>102</ele>
        <time>2014-04-20T07:10:17.979Z</time>
      </trkpt>
      <trkpt lat="48.23063" lon="3.24367">
        <ele>102</ele>
        <time>2014-04-20T07:10:18.979Z</time>
      </trkpt>
      <trkpt lat="48.23061" lon="3.24363">
        <ele>102</ele>
        <time>2014-04-20T07:10:19.979Z</time>
      </trkpt>
      <trkpt lat="48.23058" lon="3.24358">
        <ele>103</ele>
        <time>2014-04-20T07:10:20.979Z</time>
      </trkpt>
      <trkpt lat="48.23056" lon="3.24356">
        <ele>103</ele>
        <time>2014-04-20T07:10:21.979Z</time>
      </trkpt>
      <trkpt lat="48.23054" lon="3.24354">
        <ele>103</ele>
        <time>2014-04-20T07:10:22.979Z</time>
      </trkpt>
      <trkpt lat="48.23053" lon="3.2435">
        <ele>103</ele>
        <time>2014-04-20T07:10:23.979Z</time>
      </trkpt>
      <trkpt lat="48.23051" lon="3.24346">
        <ele>103</ele>
        <time>2014-04-20T07:10:25.979Z</time>
      </trkpt>
      <trkpt lat="48.23048" lon="3.24341">
        <ele>103</ele>
        <time>2014-04-20T07:10:26.979Z</time>
      </trkpt>
      <trkpt lat="48.23047" lon="3.24339">
        <ele>103</ele>
        <time>2014-04-20T07:10:27.979Z</time>
      </trkpt>
      <trkpt lat="48.23046" lon="3.24335">
        <ele>103</ele>
        <time>2014-04-20T07:10:28.979Z</time>
      </trkpt>
      <trkpt lat="48.23045" lon="3.24333">
        <ele>107</ele>
        <time>2014-04-20T07:10:29.979Z</time>
      </trkpt>
      <trkpt lat="48.23044" lon="3.24328">
        <ele>107</ele>
        <time>2014-04-20T07:10:30.979Z</time>
      </trkpt>
      <trkpt lat="48.23043" lon="3.24326">
        <ele>107</ele>
        <time>2014-04-20T07:10:31.979Z</time>
      </trkpt>
      <trkpt lat="48.23042" lon="3.24322">
        <ele>107</ele>
        <time>2014-04-20T07:10:32.979Z</time>
      </trkpt>
      <trkpt lat="48.23041" lon="3.24316">
        <ele>107</ele>
        <time>2014-04-20T07:10:34.979Z</time>
      </trkpt>
      <trkpt lat="48.23041" lon="3.24311">
        <ele>107</ele>
        <time>2014-04-20T07:10:35.979Z</time>
      </trkpt>
      <trkpt lat="48.23041" lon="3.24307">
        <ele>107</ele>
        <time>2014-04-20T07:10:36.979Z</time>
      </trkpt>
      <trkpt lat="48.2304" lon="3.24303">
        <ele>108</ele>
        <time>2014-04-20T07:10:37.979Z</time>
      </trkpt>
      <trkpt lat="48.2304" lon="3.24296">
        <ele>108</ele>
        <time>2014-04-20T07:10:39.979Z</time>
      </trkpt>
      <trkpt lat="48.23039" lon="3.24292">
        <ele>108</ele>
        <time>2014-04-20T07:10:40.979Z</time>
      </trkpt>
      <trkpt lat="48.23039" lon="3.24288">
        <ele>108</ele>
        <time>2014-04-20T07:10:41.979Z</time>
      </trkpt>
      <trkpt lat="48.23039" lon="3.24283">
        <ele>108</ele>
        <time>2014-04-20T07:10:42.979Z</time>
      </trkpt>
      <trkpt lat="48.23038" lon="3.24277">
        <ele>109</ele>
        <time>2014-04-20T07:10:44.979Z</time>
      </trkpt>
      <trkpt lat="48.23038" lon="3.24273">
        <ele>109</ele>
        <time>2014-04-20T07:10:45.979Z</time>
      </trkpt>
      <trkpt lat="48.23038" lon="3.24266">
        <ele>109</ele>
        <time>2014-04-20T07:10:47.979Z</time>
      </trkpt>
      <trkpt lat="48.23038" lon="3.24262">
        <ele>109</ele>
        <time>2014-04-20T07:10:48.979Z</time>
      </trkpt>
      <trkpt lat="48.23038" lon="3.24258">
        <ele>109</ele>
        <time>2014-04-20T07:10:49.979Z</time>
      </trkpt>
      <trkpt lat="48.23038" lon="3.24253">
        <ele>109</ele>
        <time>2014-04-20T07:10:50.979Z</time>
      </trkpt>
      <trkpt lat="48.23037" lon="3.24247">
        <ele>113</ele>
        <time>2014-04-20T07:10:52.979Z</time>
      </trkpt>
      <trkpt lat="48.23037" lon="3.24243">
        <ele>113</ele>
        <time>2014-04-20T07:10:53.979Z</time>
      </trkpt>
      <trkpt lat="48.23036" lon="3.24236">
        <ele>113</ele>
        <time>2014-04-20T07:10:55.979Z</time>
      </trkpt>
      <trkpt lat="48.23036" lon="3.24232">
        <ele>113</ele>
        <time>2014-04-20T07:10:56.979Z</time>
      </trkpt>
      <trkpt lat="48.23035" lon="3.24225">
        <ele>113</ele>
        <time>2014-04-20T07:10:58.979Z</time>
      </trkpt>
      <trkpt lat="48.23035" lon="3.24221">
        <ele>113</ele>
        <time>2014-04-20T07:10:59.979Z</time>
      </trkpt>
      <trkpt lat="48.23035" lon="3.24215">
        <ele>114</ele>
        <time>2014-04-20T07:11:01.979Z</time>
      </trkpt>
      <trkpt lat="48.23033" lon="3.24213">
        <ele>114</ele>
        <time>2014-04-20T07:11:02.979Z</time>
      </trkpt>
      <trkpt lat="48.23033" lon="3.24206">
        <ele>114</ele>
        <time>2014-04-20T07:11:04.979Z</time>
      </trkpt>
      <trkpt lat="48.23032" lon="3.24202">
        <ele>114</ele>
        <time>2014-04-20T07:11:05.979Z</time>
      </trkpt>
      <trkpt lat="48.23032" lon="3.24198">
        <ele>114</ele>
        <time>2014-04-20T07:11:06.979Z</time>
      </trkpt>
      <trkpt lat="48.23031" lon="3.24193">
        <ele>115</ele>
        <time>2014-04-20T07:11:07.979Z</time>
      </trkpt>
      <trkpt lat="48.2303" lon="3.24187">
        <ele>115</ele>
        <time>2014-04-20T07:11:09.979Z</time>
      </trkpt>
      <trkpt lat="48.2303" lon="3.24183">
        <ele>115</ele>
        <time>2014-04-20T07:11:10.979Z</time>
      </trkpt>
      <trkpt lat="48.2303" lon="3.24178">
        <ele>115</ele>
        <time>2014-04-20T07:11:11.979Z</time>
      </trkpt>
      <trkpt lat="48.2303" lon="3.24174">
        <ele>116</ele>
        <time>2014-04-20T07:11:12.979Z</time>
      </trkpt>
      <trkpt lat="48.23029" lon="3.24167">
        <ele>116</ele>
        <time>2014-04-20T07:11:14.979Z</time>
      </trkpt>
      <trkpt lat="48.23029" lon="3.24163">
        <ele>118</ele>
        <time>2014-04-20T07:11:15.979Z</time>
      </trkpt>
      <trkpt lat="48.23029" lon="3.24159">
        <ele>117</ele>
        <time>2014-04-20T07:11:16.979Z</time>
      </trkpt>
      <trkpt lat="48.23029" lon="3.24155">
        <ele>117</ele>
        <time>2014-04-20T07:11:17.979Z</time>
      </trkpt>
      <trkpt lat="48.23028" lon="3.24148">
        <ele>117</ele>
        <time>2014-04-20T07:11:19.979Z</time>
      </trkpt>
      <trkpt lat="48.23027" lon="3.24144">
        <ele>117</ele>
        <time>2014-04-20T07:11:20.979Z</time>
      </trkpt>
      <trkpt lat="48.23026" lon="3.24137">
        <ele>117</ele>
        <time>2014-04-20T07:11:22.979Z</time>
      </trkpt>
      <trkpt lat="48.23026" lon="3.24133">
        <ele>117</ele>
        <time>2014-04-20T07:11:23.979Z</time>
      </trkpt>
      <trkpt lat="48.23025" lon="3.24129">
        <ele>117</ele>
        <time>2014-04-20T07:11:24.979Z</time>
      </trkpt>
      <trkpt lat="48.23025" lon="3.24125">
        <ele>117</ele>
        <time>2014-04-20T07:11:25.979Z</time>
      </trkpt>
      <trkpt lat="48.23024" lon="3.24118">
        <ele>118</ele>
        <time>2014-04-20T07:11:27.979Z</time>
      </trkpt>
      <trkpt lat="48.23024" lon="3.24114">
        <ele>118</ele>
        <time>2014-04-20T07:11:28.979Z</time>
      </trkpt>
      <trkpt lat="48.23024" lon="3.2411">
        <ele>118</ele>
        <time>2014-04-20T07:11:29.979Z</time>
      </trkpt>
      <trkpt lat="48.23023" lon="3.24105">
        <ele>118</ele>
        <time>2014-04-20T07:11:30.979Z</time>
      </trkpt>
      <trkpt lat="48.23022" lon="3.24099">
        <ele>119</ele>
        <time>2014-04-20T07:11:32.979Z</time>
      </trkpt>
      <trkpt lat="48.23022" lon="3.24095">
        <ele>119</ele>
        <time>2014-04-20T07:11:33.979Z</time>
      </trkpt>
      <trkpt lat="48.23021" lon="3.2409">
        <ele>119</ele>
        <time>2014-04-20T07:11:34.979Z</time>
      </trkpt>
      <trkpt lat="48.2302" lon="3.24084">
        <ele>119</ele>
        <time>2014-04-20T07:11:35.979Z</time>
      </trkpt>
      <trkpt lat="48.2302" lon="3.2408">
        <ele>119</ele>
        <time>2014-04-20T07:11:36.979Z</time>
      </trkpt>
      <trkpt lat="48.23018" lon="3.24075">
        <ele>119</ele>
        <time>2014-04-20T07:11:37.979Z</time>
      </trkpt>
      <trkpt lat="48.23017" lon="3.24071">
        <ele>119</ele>
        <time>2014-04-20T07:11:38.979Z</time>
      </trkpt>
      <trkpt lat="48.23016" lon="3.24064">
        <ele>119</ele>
        <time>2014-04-20T07:11:39.979Z</time>
      </trkpt>
      <trkpt lat="48.23016" lon="3.2406">
        <ele>118</ele>
        <time>2014-04-20T07:11:40.979Z</time>
      </trkpt>
      <trkpt lat="48.23015" lon="3.24056">
        <ele>118</ele>
        <time>2014-04-20T07:11:41.979Z</time>
      </trkpt>
      <trkpt lat="48.23014" lon="3.24049">
        <ele>118</ele>
        <time>2014-04-20T07:11:42.979Z</time>
      </trkpt>
      <trkpt lat="48.23014" lon="3.24045">
        <ele>118</ele>
        <time>2014-04-20T07:11:43.979Z</time>
      </trkpt>
      <trkpt lat="48.23013" lon="3.24041">
        <ele>118</ele>
        <time>2014-04-20T07:11:44.979Z</time>
      </trkpt>
      <trkpt lat="48.23013" lon="3.24034">
        <ele>118</ele>
        <time>2014-04-20T07:11:45.979Z</time>
      </trkpt>
      <trkpt lat="48.23013" lon="3.2403">
        <ele>118</ele>
        <time>2014-04-20T07:11:46.979Z</time>
      </trkpt>
      <trkpt lat="48.23013" lon="3.24024">
        <ele>118</ele>
        <time>2014-04-20T07:11:47.979Z</time>
      </trkpt>
      <trkpt lat="48.23012" lon="3.24019">
        <ele>118</ele>
        <time>2014-04-20T07:11:48.979Z</time>
      </trkpt>
      <trkpt lat="48.23013" lon="3.24013">
        <ele>118</ele>
        <time>2014-04-20T07:11:49.979Z</time>
      </trkpt>
      <trkpt lat="48.23013" lon="3.24009">
        <ele>119</ele>
        <time>2014-04-20T07:11:50.979Z</time>
      </trkpt>
      <trkpt lat="48.23012" lon="3.24002">
        <ele>119</ele>
        <time>2014-04-20T07:11:51.979Z</time>
      </trkpt>
      <trkpt lat="48.23012" lon="3.23996">
        <ele>119</ele>
        <time>2014-04-20T07:11:52.979Z</time>
      </trkpt>
      <trkpt lat="48.23012" lon="3.23992">
        <ele>119</ele>
        <time>2014-04-20T07:11:53.979Z</time>
      </trkpt>
      <trkpt lat="48.23012" lon="3.23985">
        <ele>118</ele>
        <time>2014-04-20T07:11:54.979Z</time>
      </trkpt>
      <trkpt lat="48.23011" lon="3.23979">
        <ele>118</ele>
        <time>2014-04-20T07:11:55.979Z</time>
      </trkpt>
      <trkpt lat="48.23011" lon="3.23974">
        <ele>118</ele>
        <time>2014-04-20T07:11:56.979Z</time>
      </trkpt>
      <trkpt lat="48.2301" lon="3.23968">
        <ele>118</ele>
        <time>2014-04-20T07:11:57.979Z</time>
      </trkpt>
      <trkpt lat="48.2301" lon="3.23964">
        <ele>118</ele>
        <time>2014-04-20T07:11:58.979Z</time>
      </trkpt>
      <trkpt lat="48.23009" lon="3.23957">
        <ele>118</ele>
        <time>2014-04-20T07:11:59.979Z</time>
      </trkpt>
      <trkpt lat="48.23008" lon="3.23953">
        <ele>118</ele>
        <time>2014-04-20T07:12:00.979Z</time>
      </trkpt>
      <trkpt lat="48.23008" lon="3.23949">
        <ele>118</ele>
        <time>2014-04-20T07:12:01.979Z</time>
      </trkpt>
      <trkpt lat="48.23007" lon="3.23944">
        <ele>118</ele>
        <time>2014-04-20T07:12:02.979Z</time>
      </trkpt>
      <trkpt lat="48.23006" lon="3.23938">
        <ele>119</ele>
        <time>2014-04-20T07:12:03.979Z</time>
      </trkpt>
      <trkpt lat="48.23004" lon="3.23934">
        <ele>119</ele>
        <time>2014-04-20T07:12:04.979Z</time>
      </trkpt>
      <trkpt lat="48.23004" lon="3.23929">
        <ele>120</ele>
        <time>2014-04-20T07:12:05.979Z</time>
      </trkpt>
      <trkpt lat="48.23003" lon="3.23925">
        <ele>120</ele>
        <time>2014-04-20T07:12:06.979Z</time>
      </trkpt>
      <trkpt lat="48.23003" lon="3.23921">
        <ele>121</ele>
        <time>2014-04-20T07:12:07.979Z</time>
      </trkpt>
      <trkpt lat="48.23002" lon="3.23914">
        <ele>122</ele>
        <time>2014-04-20T07:12:08.979Z</time>
      </trkpt>
      <trkpt lat="48.23002" lon="3.2391">
        <ele>121</ele>
        <time>2014-04-20T07:12:09.979Z</time>
      </trkpt>
      <trkpt lat="48.23002" lon="3.23906">
        <ele>121</ele>
        <time>2014-04-20T07:12:10.979Z</time>
      </trkpt>
      <trkpt lat="48.23001" lon="3.23901">
        <ele>121</ele>
        <time>2014-04-20T07:12:11.979Z</time>
      </trkpt>
      <trkpt lat="48.23001" lon="3.23897">
        <ele>121</ele>
        <time>2014-04-20T07:12:12.979Z</time>
      </trkpt>
      <trkpt lat="48.23" lon="3.23891">
        <ele>121</ele>
        <time>2014-04-20T07:12:13.979Z</time>
      </trkpt>
      <trkpt lat="48.23" lon="3.23886">
        <ele>121</ele>
        <time>2014-04-20T07:12:14.979Z</time>
      </trkpt>
      <trkpt lat="48.22999" lon="3.23882">
        <ele>128</ele>
        <time>2014-04-20T07:12:15.979Z</time>
      </trkpt>
      <trkpt lat="48.22998" lon="3.23878">
        <ele>128</ele>
        <time>2014-04-20T07:12:16.979Z</time>
      </trkpt>
      <trkpt lat="48.22998" lon="3.23871">
        <ele>129</ele>
        <time>2014-04-20T07:12:17.979Z</time>
      </trkpt>
      <trkpt lat="48.22997" lon="3.23867">
        <ele>129</ele>
        <time>2014-04-20T07:12:18.979Z</time>
      </trkpt>
      <trkpt lat="48.22997" lon="3.23863">
        <ele>129</ele>
        <time>2014-04-20T07:12:19.979Z</time>
      </trkpt>
      <trkpt lat="48.22997" lon="3.23858">
        <ele>129</ele>
        <time>2014-04-20T07:12:20.979Z</time>
      </trkpt>
      <trkpt lat="48.22997" lon="3.23852">
        <ele>129</ele>
        <time>2014-04-20T07:12:21.979Z</time>
      </trkpt>
      <trkpt lat="48.22997" lon="3.23848">
        <ele>129</ele>
        <time>2014-04-20T07:12:22.979Z</time>
      </trkpt>
      <trkpt lat="48.22998" lon="3.23843">
        <ele>129</ele>
        <time>2014-04-20T07:12:23.979Z</time>
      </trkpt>
      <trkpt lat="48.22998" lon="3.23839">
        <ele>129</ele>
        <time>2014-04-20T07:12:24.979Z</time>
      </trkpt>
      <trkpt lat="48.22999" lon="3.23835">
        <ele>128</ele>
        <time>2014-04-20T07:12:25.979Z</time>
      </trkpt>
      <trkpt lat="48.23001" lon="3.23831">
        <ele>128</ele>
        <time>2014-04-20T07:12:27.979Z</time>
      </trkpt>
      <trkpt lat="48.23002" lon="3.23828">
        <ele>127</ele>
        <time>2014-04-20T07:12:28.979Z</time>
      </trkpt>
      <trkpt lat="48.23004" lon="3.23826">
        <ele>127</ele>
        <time>2014-04-20T07:12:29.979Z</time>
      </trkpt>
      <trkpt lat="48.23007" lon="3.23824">
        <ele>127</ele>
        <time>2014-04-20T07:12:30.979Z</time>
      </trkpt>
      <trkpt lat="48.2301" lon="3.23822">
        <ele>127</ele>
        <time>2014-04-20T07:12:31.979Z</time>
      </trkpt>
      <trkpt lat="48.23013" lon="3.2382">
        <ele>126</ele>
        <time>2014-04-20T07:12:32.979Z</time>
      </trkpt>
      <trkpt lat="48.23016" lon="3.23818">
        <ele>126</ele>
        <time>2014-04-20T07:12:33.979Z</time>
      </trkpt>
      <trkpt lat="48.23022" lon="3.23816">
        <ele>126</ele>
        <time>2014-04-20T07:12:34.979Z</time>
      </trkpt>
      <trkpt lat="48.23027" lon="3.23816">
        <ele>125</ele>
        <time>2014-04-20T07:12:35.979Z</time>
      </trkpt>
      <trkpt lat="48.23033" lon="3.23813">
        <ele>124</ele>
        <time>2014-04-20T07:12:36.979Z</time>
      </trkpt>
      <trkpt lat="48.23039" lon="3.23813">
        <ele>124</ele>
        <time>2014-04-20T07:12:37.979Z</time>
      </trkpt>
      <trkpt lat="48.23044" lon="3.23809">
        <ele>123</ele>
        <time>2014-04-20T07:12:38.979Z</time>
      </trkpt>
      <trkpt lat="48.23048" lon="3.23807">
        <ele>123</ele>
        <time>2014-04-20T07:12:39.979Z</time>
      </trkpt>
      <trkpt lat="48.23053" lon="3.23801">
        <ele>123</ele>
        <time>2014-04-20T07:12:40.979Z</time>
      </trkpt>
      <trkpt lat="48.23054" lon="3.23796">
        <ele>123</ele>
        <time>2014-04-20T07:12:41.979Z</time>
      </trkpt>
      <trkpt lat="48.23055" lon="3.2379">
        <ele>123</ele>
        <time>2014-04-20T07:12:42.979Z</time>
      </trkpt>
      <trkpt lat="48.23055" lon="3.23781">
        <ele>123</ele>
        <time>2014-04-20T07:12:43.979Z</time>
      </trkpt>
      <trkpt lat="48.23056" lon="3.23775">
        <ele>123</ele>
        <time>2014-04-20T07:12:44.979Z</time>
      </trkpt>
      <trkpt lat="48.23056" lon="3.23768">
        <ele>124</ele>
        <time>2014-04-20T07:12:45.979Z</time>
      </trkpt>
      <trkpt lat="48.23056" lon="3.23762">
        <ele>123</ele>
        <time>2014-04-20T07:12:46.979Z</time>
      </trkpt>
      <trkpt lat="48.23056" lon="3.23756">
        <ele>123</ele>
        <time>2014-04-20T07:12:47.979Z</time>
      </trkpt>
      <trkpt lat="48.23057" lon="3.23749">
        <ele>126</ele>
        <time>2014-04-20T07:12:48.979Z</time>
      </trkpt>
      <trkpt lat="48.23057" lon="3.23743">
        <ele>127</ele>
        <time>2014-04-20T07:12:49.979Z</time>
      </trkpt>
      <trkpt lat="48.23057" lon="3.23736">
        <ele>127</ele>
        <time>2014-04-20T07:12:50.979Z</time>
      </trkpt>
      <trkpt lat="48.23058" lon="3.23732">
        <ele>127</ele>
        <time>2014-04-20T07:12:51.979Z</time>
      </trkpt>
      <trkpt lat="48.23058" lon="3.23725">
        <ele>127</ele>
        <time>2014-04-20T07:12:52.979Z</time>
      </trkpt>
      <trkpt lat="48.23059" lon="3.23719">
        <ele>128</ele>
        <time>2014-04-20T07:12:53.979Z</time>
      </trkpt>
      <trkpt lat="48.23059" lon="3.23715">
        <ele>128</ele>
        <time>2014-04-20T07:12:54.979Z</time>
      </trkpt>
      <trkpt lat="48.2306" lon="3.23708">
        <ele>128</ele>
        <time>2014-04-20T07:12:55.979Z</time>
      </trkpt>
      <trkpt lat="48.23061" lon="3.23704">
        <ele>128</ele>
        <time>2014-04-20T07:12:56.979Z</time>
      </trkpt>
      <trkpt lat="48.23062" lon="3.23698">
        <ele>128</ele>
        <time>2014-04-20T07:12:57.979Z</time>
      </trkpt>
      <trkpt lat="48.23062" lon="3.23693">
        <ele>128</ele>
        <time>2014-04-20T07:12:58.979Z</time>
      </trkpt>
      <trkpt lat="48.23063" lon="3.23687">
        <ele>127</ele>
        <time>2014-04-20T07:12:59.979Z</time>
      </trkpt>
      <trkpt lat="48.23065" lon="3.23683">
        <ele>127</ele>
        <time>2014-04-20T07:13:00.979Z</time>
      </trkpt>
      <trkpt lat="48.23065" lon="3.23676">
        <ele>127</ele>
        <time>2014-04-20T07:13:01.979Z</time>
      </trkpt>
      <trkpt lat="48.23066" lon="3.23672">
        <ele>126</ele>
        <time>2014-04-20T07:13:02.979Z</time>
      </trkpt>
      <trkpt lat="48.23066" lon="3.23665">
        <ele>127</ele>
        <time>2014-04-20T07:13:03.979Z</time>
      </trkpt>
      <trkpt lat="48.23067" lon="3.23661">
        <ele>127</ele>
        <time>2014-04-20T07:13:04.979Z</time>
      </trkpt>
      <trkpt lat="48.23068" lon="3.23655">
        <ele>127</ele>
        <time>2014-04-20T07:13:05.979Z</time>
      </trkpt>
      <trkpt lat="48.23068" lon="3.2365">
        <ele>128</ele>
        <time>2014-04-20T07:13:06.979Z</time>
      </trkpt>
      <trkpt lat="48.23069" lon="3.23644">
        <ele>128</ele>
        <time>2014-04-20T07:13:07.979Z</time>
      </trkpt>
      <trkpt lat="48.23069" lon="3.2364">
        <ele>128</ele>
        <time>2014-04-20T07:13:08.979Z</time>
      </trkpt>
      <trkpt lat="48.2307" lon="3.23633">
        <ele>129</ele>
        <time>2014-04-20T07:13:09.979Z</time>
      </trkpt>
      <trkpt lat="48.23071" lon="3.23629">
        <ele>129</ele>
        <time>2014-04-20T07:13:10.979Z</time>
      </trkpt>
      <trkpt lat="48.23071" lon="3.23625">
        <ele>129</ele>
        <time>2014-04-20T07:13:11.979Z</time>
      </trkpt>
      <trkpt lat="48.23071" lon="3.2362">
        <ele>129</ele>
        <time>2014-04-20T07:13:12.979Z</time>
      </trkpt>
      <trkpt lat="48.23071" lon="3.23616">
        <ele>129</ele>
        <time>2014-04-20T07:13:13.979Z</time>
      </trkpt>
      <trkpt lat="48.23071" lon="3.23612">
        <ele>129</ele>
        <time>2014-04-20T07:13:14.979Z</time>
      </trkpt>
      <trkpt lat="48.23072" lon="3.23607">
        <ele>128</ele>
        <time>2014-04-20T07:13:15.979Z</time>
      </trkpt>
      <trkpt lat="48.23072" lon="3.23603">
        <ele>128</ele>
        <time>2014-04-20T07:13:16.979Z</time>
      </trkpt>
      <trkpt lat="48.23072" lon="3.23599">
        <ele>128</ele>
        <time>2014-04-20T07:13:17.979Z</time>
      </trkpt>
      <trkpt lat="48.23072" lon="3.23595">
        <ele>127</ele>
        <time>2014-04-20T07:13:18.979Z</time>
      </trkpt>
      <trkpt lat="48.23072" lon="3.2359">
        <ele>127</ele>
        <time>2014-04-20T07:13:19.979Z</time>
      </trkpt>
      <trkpt lat="48.23072" lon="3.23586">
        <ele>127</ele>
        <time>2014-04-20T07:13:24.979Z</time>
      </trkpt>
      <trkpt lat="48.23072" lon="3.23573">
        <ele>128</ele>
        <time>2014-04-20T07:13:25.979Z</time>
      </trkpt>
      <trkpt lat="48.23072" lon="3.23573">
        <ele>128</ele>
        <time>2014-04-20T07:13:29.979Z</time>
      </trkpt>
      <trkpt lat="48.2307" lon="3.23558">
        <ele>130</ele>
        <time>2014-04-20T07:13:30.979Z</time>
      </trkpt>
      <trkpt lat="48.2307" lon="3.23558">
        <ele>130</ele>
        <time>2014-04-20T07:13:34.979Z</time>
      </trkpt>
      <trkpt lat="48.23068" lon="3.23543">
        <ele>131</ele>
        <time>2014-04-20T07:13:35.979Z</time>
      </trkpt>
      <trkpt lat="48.23068" lon="3.23543">
        <ele>131</ele>
        <time>2014-04-20T07:13:39.979Z</time>
      </trkpt>
      <trkpt lat="48.2306" lon="3.23532">
        <ele>132</ele>
        <time>2014-04-20T07:13:40.979Z</time>
      </trkpt>
      <trkpt lat="48.2306" lon="3.23532">
        <ele>132</ele>
        <time>2014-04-20T07:13:44.979Z</time>
      </trkpt>
      <trkpt lat="48.23056" lon="3.23517">
        <ele>133</ele>
        <time>2014-04-20T07:13:45.979Z</time>
      </trkpt>
      <trkpt lat="48.23056" lon="3.23517">
        <ele>133</ele>
        <time>2014-04-20T07:13:48.979Z</time>
      </trkpt>
      <trkpt lat="48.23053" lon="3.23502">
        <ele>133</ele>
        <time>2014-04-20T07:13:49.979Z</time>
      </trkpt>
      <trkpt lat="48.23053" lon="3.23502">
        <ele>133</ele>
        <time>2014-04-20T07:13:52.979Z</time>
      </trkpt>
      <trkpt lat="48.23052" lon="3.23487">
        <ele>136</ele>
        <time>2014-04-20T07:13:53.979Z</time>
      </trkpt>
      <trkpt lat="48.23052" lon="3.23487">
        <ele>136</ele>
        <time>2014-04-20T07:13:56.979Z</time>
      </trkpt>
      <trkpt lat="48.23048" lon="3.23474">
        <ele>136</ele>
        <time>2014-04-20T07:13:57.979Z</time>
      </trkpt>
      <trkpt lat="48.23048" lon="3.23474">
        <ele>136</ele>
        <time>2014-04-20T07:14:00.979Z</time>
      </trkpt>
      <trkpt lat="48.23046" lon="3.23459">
        <ele>137</ele>
        <time>2014-04-20T07:14:01.979Z</time>
      </trkpt>
      <trkpt lat="48.23046" lon="3.23459">
        <ele>137</ele>
        <time>2014-04-20T07:14:04.979Z</time>
      </trkpt>
      <trkpt lat="48.23043" lon="3.23444">
        <ele>138</ele>
        <time>2014-04-20T07:14:05.979Z</time>
      </trkpt>
      <trkpt lat="48.23043" lon="3.23444">
        <ele>138</ele>
        <time>2014-04-20T07:14:08.979Z</time>
      </trkpt>
      <trkpt lat="48.23041" lon="3.23431">
        <ele>138</ele>
        <time>2014-04-20T07:14:09.979Z</time>
      </trkpt>
      <trkpt lat="48.23041" lon="3.23431">
        <ele>138</ele>
        <time>2014-04-20T07:14:12.979Z</time>
      </trkpt>
      <trkpt lat="48.23039" lon="3.23416">
        <ele>142</ele>
        <time>2014-04-20T07:14:13.979Z</time>
      </trkpt>
      <trkpt lat="48.23039" lon="3.23416">
        <ele>142</ele>
        <time>2014-04-20T07:14:17.979Z</time>
      </trkpt>
      <trkpt lat="48.23038" lon="3.23401">
        <ele>142</ele>
        <time>2014-04-20T07:14:18.979Z</time>
      </trkpt>
      <trkpt lat="48.23038" lon="3.23401">
        <ele>142</ele>
        <time>2014-04-20T07:14:22.979Z</time>
      </trkpt>
      <trkpt lat="48.23038" lon="3.23386">
        <ele>142</ele>
        <time>2014-04-20T07:14:23.979Z</time>
      </trkpt>
      <trkpt lat="48.23038" lon="3.23386">
        <ele>142</ele>
        <time>2014-04-20T07:14:27.979Z</time>
      </trkpt>
      <trkpt lat="48.23038" lon="3.23371">
        <ele>143</ele>
        <time>2014-04-20T07:14:28.979Z</time>
      </trkpt>
      <trkpt lat="48.23038" lon="3.23371">
        <ele>143</ele>
        <time>2014-04-20T07:14:32.979Z</time>
      </trkpt>
      <trkpt lat="48.23037" lon="3.23354">
        <ele>143</ele>
        <time>2014-04-20T07:14:33.979Z</time>
      </trkpt>
      <trkpt lat="48.23037" lon="3.23354">
        <ele>143</ele>
        <time>2014-04-20T07:14:36.979Z</time>
      </trkpt>
      <trkpt lat="48.23037" lon="3.23339">
        <ele>144</ele>
        <time>2014-04-20T07:14:37.979Z</time>
      </trkpt>
      <trkpt lat="48.23037" lon="3.23339">
        <ele>144</ele>
        <time>2014-04-20T07:14:40.979Z</time>
      </trkpt>
      <trkpt lat="48.23035" lon="3.23324">
        <ele>147</ele>
        <time>2014-04-20T07:14:41.979Z</time>
      </trkpt>
      <trkpt lat="48.23035" lon="3.23324">
        <ele>147</ele>
        <time>2014-04-20T07:14:44.979Z</time>
      </trkpt>
      <trkpt lat="48.23032" lon="3.23309">
        <ele>148</ele>
        <time>2014-04-20T07:14:45.979Z</time>
      </trkpt>
      <trkpt lat="48.23032" lon="3.23309">
        <ele>148</ele>
        <time>2014-04-20T07:14:48.979Z</time>
      </trkpt>
      <trkpt lat="48.23029" lon="3.23294">
        <ele>148</ele>
        <time>2014-04-20T07:14:49.979Z</time>
      </trkpt>
      <trkpt lat="48.23029" lon="3.23294">
        <ele>148</ele>
        <time>2014-04-20T07:14:52.979Z</time>
      </trkpt>
      <trkpt lat="48.23025" lon="3.23277">
        <ele>149</ele>
        <time>2014-04-20T07:14:53.979Z</time>
      </trkpt>
      <trkpt lat="48.23025" lon="3.23277">
        <ele>149</ele>
        <time>2014-04-20T07:14:55.979Z</time>
      </trkpt>
      <trkpt lat="48.23022" lon="3.23262">
        <ele>149</ele>
        <time>2014-04-20T07:14:56.979Z</time>
      </trkpt>
      <trkpt lat="48.23022" lon="3.23262">
        <ele>149</ele>
        <time>2014-04-20T07:14:58.979Z</time>
      </trkpt>
      <trkpt lat="48.23018" lon="3.23249">
        <ele>152</ele>
        <time>2014-04-20T07:14:59.979Z</time>
      </trkpt>
      <trkpt lat="48.23018" lon="3.23249">
        <ele>152</ele>
        <time>2014-04-20T07:15:02.979Z</time>
      </trkpt>
      <trkpt lat="48.23015" lon="3.23234">
        <ele>153</ele>
        <time>2014-04-20T07:15:03.979Z</time>
      </trkpt>
      <trkpt lat="48.23015" lon="3.23234">
        <ele>153</ele>
        <time>2014-04-20T07:15:06.979Z</time>
      </trkpt>
      <trkpt lat="48.23013" lon="3.23219">
        <ele>154</ele>
        <time>2014-04-20T07:15:07.979Z</time>
      </trkpt>
      <trkpt lat="48.23013" lon="3.23219">
        <ele>154</ele>
        <time>2014-04-20T07:15:10.979Z</time>
      </trkpt>
      <trkpt lat="48.23012" lon="3.23204">
        <ele>154</ele>
        <time>2014-04-20T07:15:11.979Z</time>
      </trkpt>
      <trkpt lat="48.23012" lon="3.23204">
        <ele>154</ele>
        <time>2014-04-20T07:15:14.979Z</time>
      </trkpt>
      <trkpt lat="48.23011" lon="3.23189">
        <ele>155</ele>
        <time>2014-04-20T07:15:15.979Z</time>
      </trkpt>
      <trkpt lat="48.23011" lon="3.23189">
        <ele>155</ele>
        <time>2014-04-20T07:15:18.979Z</time>
      </trkpt>
      <trkpt lat="48.2301" lon="3.23172">
        <ele>155</ele>
        <time>2014-04-20T07:15:19.979Z</time>
      </trkpt>
      <trkpt lat="48.2301" lon="3.23172">
        <ele>155</ele>
        <time>2014-04-20T07:15:22.979Z</time>
      </trkpt>
      <trkpt lat="48.23011" lon="3.23155">
        <ele>157</ele>
        <time>2014-04-20T07:15:23.979Z</time>
      </trkpt>
      <trkpt lat="48.23011" lon="3.23155">
        <ele>157</ele>
        <time>2014-04-20T07:15:26.979Z</time>
      </trkpt>
      <trkpt lat="48.2301" lon="3.23138">
        <ele>158</ele>
        <time>2014-04-20T07:15:27.979Z</time>
      </trkpt>
      <trkpt lat="48.2301" lon="3.23138">
        <ele>158</ele>
        <time>2014-04-20T07:15:29.979Z</time>
      </trkpt>
      <trkpt lat="48.23009" lon="3.2312">
        <ele>159</ele>
        <time>2014-04-20T07:15:30.979Z</time>
      </trkpt>
      <trkpt lat="48.23009" lon="3.2312">
        <ele>159</ele>
        <time>2014-04-20T07:15:32.979Z</time>
      </trkpt>
      <trkpt lat="48.23008" lon="3.23105">
        <ele>159</ele>
        <time>2014-04-20T07:15:33.979Z</time>
      </trkpt>
      <trkpt lat="48.23008" lon="3.23105">
        <ele>159</ele>
        <time>2014-04-20T07:15:36.979Z</time>
      </trkpt>
      <trkpt lat="48.23006" lon="3.2309">
        <ele>159</ele>
        <time>2014-04-20T07:15:37.979Z</time>
      </trkpt>
      <trkpt lat="48.23006" lon="3.2309">
        <ele>159</ele>
        <time>2014-04-20T07:15:41.979Z</time>
      </trkpt>
      <trkpt lat="48.23007" lon="3.23075">
        <ele>160</ele>
        <time>2014-04-20T07:15:42.979Z</time>
      </trkpt>
      <trkpt lat="48.23007" lon="3.23075">
        <ele>160</ele>
        <time>2014-04-20T07:15:46.979Z</time>
      </trkpt>
      <trkpt lat="48.23009" lon="3.2306">
        <ele>161</ele>
        <time>2014-04-20T07:15:47.979Z</time>
      </trkpt>
      <trkpt lat="48.23009" lon="3.2306">
        <ele>161</ele>
        <time>2014-04-20T07:15:51.979Z</time>
      </trkpt>
      <trkpt lat="48.23011" lon="3.23043">
        <ele>162</ele>
        <time>2014-04-20T07:15:52.979Z</time>
      </trkpt>
      <trkpt lat="48.23011" lon="3.23043">
        <ele>162</ele>
        <time>2014-04-20T07:15:55.979Z</time>
      </trkpt>
      <trkpt lat="48.23013" lon="3.23026">
        <ele>162</ele>
        <time>2014-04-20T07:15:56.979Z</time>
      </trkpt>
      <trkpt lat="48.23013" lon="3.23026">
        <ele>162</ele>
        <time>2014-04-20T07:15:59.979Z</time>
      </trkpt>
      <trkpt lat="48.23016" lon="3.23011">
        <ele>162</ele>
        <time>2014-04-20T07:16:00.979Z</time>
      </trkpt>
      <trkpt lat="48.23017" lon="3.23004">
        <ele>162</ele>
        <time>2014-04-20T07:16:02.979Z</time>
      </trkpt>
      <trkpt lat="48.23017" lon="3.23">
        <ele>162</ele>
        <time>2014-04-20T07:16:03.979Z</time>
      </trkpt>
      <trkpt lat="48.23017" lon="3.22996">
        <ele>162</ele>
        <time>2014-04-20T07:16:04.979Z</time>
      </trkpt>
      <trkpt lat="48.23016" lon="3.22992">
        <ele>162</ele>
        <time>2014-04-20T07:16:05.979Z</time>
      </trkpt>
      <trkpt lat="48.23015" lon="3.22985">
        <ele>163</ele>
        <time>2014-04-20T07:16:07.979Z</time>
      </trkpt>
      <trkpt lat="48.23015" lon="3.22981">
        <ele>163</ele>
        <time>2014-04-20T07:16:08.979Z</time>
      </trkpt>
      <trkpt lat="48.23014" lon="3.22974">
        <ele>163</ele>
        <time>2014-04-20T07:16:10.979Z</time>
      </trkpt>
      <trkpt lat="48.23014" lon="3.2297">
        <ele>163</ele>
        <time>2014-04-20T07:16:11.979Z</time>
      </trkpt>
      <trkpt lat="48.23013" lon="3.22966">
        <ele>163</ele>
        <time>2014-04-20T07:16:12.979Z</time>
      </trkpt>
      <trkpt lat="48.23012" lon="3.22962">
        <ele>163</ele>
        <time>2014-04-20T07:16:13.979Z</time>
      </trkpt>
      <trkpt lat="48.23011" lon="3.22957">
        <ele>163</ele>
        <time>2014-04-20T07:16:14.979Z</time>
      </trkpt>
      <trkpt lat="48.2301" lon="3.22953">
        <ele>163</ele>
        <time>2014-04-20T07:16:15.979Z</time>
      </trkpt>
      <trkpt lat="48.23009" lon="3.22949">
        <ele>163</ele>
        <time>2014-04-20T07:16:16.979Z</time>
      </trkpt>
      <trkpt lat="48.23008" lon="3.22944">
        <ele>163</ele>
        <time>2014-04-20T07:16:17.979Z</time>
      </trkpt>
      <trkpt lat="48.23007" lon="3.2294">
        <ele>163</ele>
        <time>2014-04-20T07:16:18.979Z</time>
      </trkpt>
      <trkpt lat="48.23004" lon="3.22936">
        <ele>162</ele>
        <time>2014-04-20T07:16:19.979Z</time>
      </trkpt>
      <trkpt lat="48.23003" lon="3.22934">
        <ele>162</ele>
        <time>2014-04-20T07:16:20.979Z</time>
      </trkpt>
      <trkpt lat="48.23002" lon="3.22929">
        <ele>162</ele>
        <time>2014-04-20T07:16:21.979Z</time>
      </trkpt>
      <trkpt lat="48.23002" lon="3.22925">
        <ele>162</ele>
        <time>2014-04-20T07:16:22.979Z</time>
      </trkpt>
      <trkpt lat="48.23001" lon="3.22921">
        <ele>161</ele>
        <time>2014-04-20T07:16:23.979Z</time>
      </trkpt>
      <trkpt lat="48.23" lon="3.22914">
        <ele>161</ele>
        <time>2014-04-20T07:16:25.979Z</time>
      </trkpt>
      <trkpt lat="48.23" lon="3.22912">
        <ele>161</ele>
        <time>2014-04-20T07:16:26.979Z</time>
      </trkpt>
      <trkpt lat="48.23" lon="3.22908">
        <ele>162</ele>
        <time>2014-04-20T07:16:27.979Z</time>
      </trkpt>
      <trkpt lat="48.23" lon="3.22904">
        <ele>162</ele>
        <time>2014-04-20T07:16:28.979Z</time>
      </trkpt>
      <trkpt lat="48.23001" lon="3.22899">
        <ele>162</ele>
        <time>2014-04-20T07:16:30.979Z</time>
      </trkpt>
      <trkpt lat="48.23001" lon="3.22895">
        <ele>162</ele>
        <time>2014-04-20T07:16:31.979Z</time>
      </trkpt>
      <trkpt lat="48.23002" lon="3.22891">
        <ele>162</ele>
        <time>2014-04-20T07:16:33.979Z</time>
      </trkpt>
      <trkpt lat="48.23002" lon="3.22886">
        <ele>162</ele>
        <time>2014-04-20T07:16:34.979Z</time>
      </trkpt>
      <trkpt lat="48.23002" lon="3.2288">
        <ele>162</ele>
        <time>2014-04-20T07:16:37.979Z</time>
      </trkpt>
      <trkpt lat="48.23002" lon="3.22878">
        <ele>162</ele>
        <time>2014-04-20T07:16:38.979Z</time>
      </trkpt>
      <trkpt lat="48.23003" lon="3.22871">
        <ele>162</ele>
        <time>2014-04-20T07:16:41.979Z</time>
      </trkpt>
      <trkpt lat="48.23003" lon="3.22869">
        <ele>162</ele>
        <time>2014-04-20T07:16:42.979Z</time>
      </trkpt>
      <trkpt lat="48.23004" lon="3.22863">
        <ele>162</ele>
        <time>2014-04-20T07:16:45.979Z</time>
      </trkpt>
      <trkpt lat="48.23006" lon="3.22859">
        <ele>162</ele>
        <time>2014-04-20T07:16:46.979Z</time>
      </trkpt>
      <trkpt lat="48.23007" lon="3.22854">
        <ele>162</ele>
        <time>2014-04-20T07:16:47.979Z</time>
      </trkpt>
      <trkpt lat="48.23007" lon="3.2285">
        <ele>162</ele>
        <time>2014-04-20T07:16:48.979Z</time>
      </trkpt>
      <trkpt lat="48.23008" lon="3.22854">
        <ele>162</ele>
        <time>2014-04-20T07:17:03.979Z</time>
      </trkpt>
      <trkpt lat="48.23009" lon="3.22856">
        <ele>162</ele>
        <time>2014-04-20T07:17:04.979Z</time>
      </trkpt>
      <trkpt lat="48.23012" lon="3.22861">
        <ele>162</ele>
        <time>2014-04-20T07:17:10.979Z</time>
      </trkpt>
      <trkpt lat="48.23013" lon="3.22863">
        <ele>162</ele>
        <time>2014-04-20T07:17:11.979Z</time>
      </trkpt>
      <trkpt lat="48.23016" lon="3.22867">
        <ele>162</ele>
        <time>2014-04-20T07:17:14.979Z</time>
      </trkpt>
      <trkpt lat="48.23016" lon="3.22869">
        <ele>162</ele>
        <time>2014-04-20T07:17:15.979Z</time>
      </trkpt>
      <trkpt lat="48.2302" lon="3.22874">
        <ele>163</ele>
        <time>2014-04-20T07:17:19.979Z</time>
      </trkpt>
      <trkpt lat="48.2302" lon="3.22876">
        <ele>163</ele>
        <time>2014-04-20T07:17:20.979Z</time>
      </trkpt>
      <trkpt lat="48.23022" lon="3.2288">
        <ele>163</ele>
        <time>2014-04-20T07:17:23.979Z</time>
      </trkpt>
      <trkpt lat="48.23023" lon="3.22882">
        <ele>163</ele>
        <time>2014-04-20T07:17:24.979Z</time>
      </trkpt>
      <trkpt lat="48.23026" lon="3.22886">
        <ele>163</ele>
        <time>2014-04-20T07:17:26.979Z</time>
      </trkpt>
      <trkpt lat="48.23027" lon="3.22889">
        <ele>163</ele>
        <time>2014-04-20T07:17:27.979Z</time>
      </trkpt>
      <trkpt lat="48.23029" lon="3.22893">
        <ele>163</ele>
        <time>2014-04-20T07:17:28.979Z</time>
      </trkpt>
      <trkpt lat="48.2303" lon="3.22897">
        <ele>163</ele>
        <time>2014-04-20T07:17:29.979Z</time>
      </trkpt>
      <trkpt lat="48.23033" lon="3.22901">
        <ele>163</ele>
        <time>2014-04-20T07:17:30.979Z</time>
      </trkpt>
      <trkpt lat="48.23036" lon="3.22906">
        <ele>163</ele>
        <time>2014-04-20T07:17:31.979Z</time>
      </trkpt>
      <trkpt lat="48.23038" lon="3.2291">
        <ele>163</ele>
        <time>2014-04-20T07:17:32.979Z</time>
      </trkpt>
      <trkpt lat="48.2304" lon="3.22914">
        <ele>163</ele>
        <time>2014-04-20T07:17:33.979Z</time>
      </trkpt>
      <trkpt lat="48.23042" lon="3.22919">
        <ele>164</ele>
        <time>2014-04-20T07:17:34.979Z</time>
      </trkpt>
      <trkpt lat="48.23043" lon="3.22921">
        <ele>164</ele>
        <time>2014-04-20T07:17:35.979Z</time>
      </trkpt>
      <trkpt lat="48.23045" lon="3.22925">
        <ele>164</ele>
        <time>2014-04-20T07:17:36.979Z</time>
      </trkpt>
      <trkpt lat="48.23047" lon="3.22929">
        <ele>164</ele>
        <time>2014-04-20T07:17:37.979Z</time>
      </trkpt>
      <trkpt lat="48.2305" lon="3.22932">
        <ele>164</ele>
        <time>2014-04-20T07:17:38.979Z</time>
      </trkpt>
      <trkpt lat="48.23051" lon="3.22936">
        <ele>164</ele>
        <time>2014-04-20T07:17:39.979Z</time>
      </trkpt>
      <trkpt lat="48.23053" lon="3.22938">
        <ele>164</ele>
        <time>2014-04-20T07:17:40.979Z</time>
      </trkpt>
      <trkpt lat="48.23054" lon="3.22942">
        <ele>164</ele>
        <time>2014-04-20T07:17:41.979Z</time>
      </trkpt>
      <trkpt lat="48.23056" lon="3.22944">
        <ele>164</ele>
        <time>2014-04-20T07:17:42.979Z</time>
      </trkpt>
      <trkpt lat="48.23058" lon="3.22949">
        <ele>164</ele>
        <time>2014-04-20T07:17:43.979Z</time>
      </trkpt>
      <trkpt lat="48.2306" lon="3.22953">
        <ele>164</ele>
        <time>2014-04-20T07:17:44.979Z</time>
      </trkpt>
      <trkpt lat="48.23062" lon="3.22957">
        <ele>164</ele>
        <time>2014-04-20T07:17:45.979Z</time>
      </trkpt>
      <trkpt lat="48.23065" lon="3.22962">
        <ele>164</ele>
        <time>2014-04-20T07:17:46.979Z</time>
      </trkpt>
      <trkpt lat="48.23067" lon="3.22966">
        <ele>164</ele>
        <time>2014-04-20T07:17:47.979Z</time>
      </trkpt>
      <trkpt lat="48.23068" lon="3.2297">
        <ele>165</ele>
        <time>2014-04-20T07:17:48.979Z</time>
      </trkpt>
      <trkpt lat="48.2307" lon="3.22972">
        <ele>165</ele>
        <time>2014-04-20T07:17:49.979Z</time>
      </trkpt>
      <trkpt lat="48.23073" lon="3.22977">
        <ele>165</ele>
        <time>2014-04-20T07:17:50.979Z</time>
      </trkpt>
      <trkpt lat="48.23076" lon="3.22981">
        <ele>165</ele>
        <time>2014-04-20T07:17:51.979Z</time>
      </trkpt>
      <trkpt lat="48.23079" lon="3.22987">
        <ele>165</ele>
        <time>2014-04-20T07:17:52.979Z</time>
      </trkpt>
      <trkpt lat="48.23082" lon="3.22989">
        <ele>165</ele>
        <time>2014-04-20T07:17:53.979Z</time>
      </trkpt>
      <trkpt lat="48.23084" lon="3.22994">
        <ele>167</ele>
        <time>2014-04-20T07:17:54.979Z</time>
      </trkpt>
      <trkpt lat="48.23087" lon="3.23">
        <ele>166</ele>
        <time>2014-04-20T07:17:55.979Z</time>
      </trkpt>
      <trkpt lat="48.23092" lon="3.23007">
        <ele>167</ele>
        <time>2014-04-20T07:17:56.979Z</time>
      </trkpt>
      <trkpt lat="48.23097" lon="3.23013">
        <ele>167</ele>
        <time>2014-04-20T07:17:57.979Z</time>
      </trkpt>
      <trkpt lat="48.23101" lon="3.2302">
        <ele>168</ele>
        <time>2014-04-20T07:17:58.979Z</time>
      </trkpt>
      <trkpt lat="48.23106" lon="3.23028">
        <ele>168</ele>
        <time>2014-04-20T07:17:59.979Z</time>
      </trkpt>
      <trkpt lat="48.23112" lon="3.23035">
        <ele>168</ele>
        <time>2014-04-20T07:18:00.979Z</time>
      </trkpt>
      <trkpt lat="48.23116" lon="3.23039">
        <ele>168</ele>
        <time>2014-04-20T07:18:01.979Z</time>
      </trkpt>
      <trkpt lat="48.2312" lon="3.23045">
        <ele>168</ele>
        <time>2014-04-20T07:18:02.979Z</time>
      </trkpt>
      <trkpt lat="48.23124" lon="3.2305">
        <ele>168</ele>
        <time>2014-04-20T07:18:03.979Z</time>
      </trkpt>
      <trkpt lat="48.23128" lon="3.23054">
        <ele>168</ele>
        <time>2014-04-20T07:18:04.979Z</time>
      </trkpt>
      <trkpt lat="48.23132" lon="3.23058">
        <ele>169</ele>
        <time>2014-04-20T07:18:05.979Z</time>
      </trkpt>
      <trkpt lat="48.23135" lon="3.23062">
        <ele>169</ele>
        <time>2014-04-20T07:18:06.979Z</time>
      </trkpt>
      <trkpt lat="48.2314" lon="3.23065">
        <ele>169</ele>
        <time>2014-04-20T07:18:07.979Z</time>
      </trkpt>
      <trkpt lat="48.23144" lon="3.23069">
        <ele>169</ele>
        <time>2014-04-20T07:18:08.979Z</time>
      </trkpt>
      <trkpt lat="48.23147" lon="3.23073">
        <ele>169</ele>
        <time>2014-04-20T07:18:09.979Z</time>
      </trkpt>
      <trkpt lat="48.2315" lon="3.23075">
        <ele>169</ele>
        <time>2014-04-20T07:18:10.979Z</time>
      </trkpt>
      <trkpt lat="48.23154" lon="3.2308">
        <ele>169</ele>
        <time>2014-04-20T07:18:11.979Z</time>
      </trkpt>
      <trkpt lat="48.23157" lon="3.23082">
        <ele>169</ele>
        <time>2014-04-20T07:18:12.979Z</time>
      </trkpt>
      <trkpt lat="48.2316" lon="3.23086">
        <ele>169</ele>
        <time>2014-04-20T07:18:13.979Z</time>
      </trkpt>
      <trkpt lat="48.23164" lon="3.23088">
        <ele>169</ele>
        <time>2014-04-20T07:18:14.979Z</time>
      </trkpt>
      <trkpt lat="48.23169" lon="3.2309">
        <ele>170</ele>
        <time>2014-04-20T07:18:15.979Z</time>
      </trkpt>
      <trkpt lat="48.23172" lon="3.23092">
        <ele>170</ele>
        <time>2014-04-20T07:18:16.979Z</time>
      </trkpt>
      <trkpt lat="48.23175" lon="3.23097">
        <ele>169</ele>
        <time>2014-04-20T07:18:17.979Z</time>
      </trkpt>
      <trkpt lat="48.23179" lon="3.23099">
        <ele>169</ele>
        <time>2014-04-20T07:18:18.979Z</time>
      </trkpt>
      <trkpt lat="48.23183" lon="3.23103">
        <ele>169</ele>
        <time>2014-04-20T07:18:19.979Z</time>
      </trkpt>
      <trkpt lat="48.23186" lon="3.23105">
        <ele>169</ele>
        <time>2014-04-20T07:18:20.979Z</time>
      </trkpt>
      <trkpt lat="48.23189" lon="3.2311">
        <ele>169</ele>
        <time>2014-04-20T07:18:21.979Z</time>
      </trkpt>
      <trkpt lat="48.23193" lon="3.23112">
        <ele>169</ele>
        <time>2014-04-20T07:18:22.979Z</time>
      </trkpt>
      <trkpt lat="48.23198" lon="3.23116">
        <ele>169</ele>
        <time>2014-04-20T07:18:23.979Z</time>
      </trkpt>
      <trkpt lat="48.23201" lon="3.23118">
        <ele>169</ele>
        <time>2014-04-20T07:18:24.979Z</time>
      </trkpt>
      <trkpt lat="48.23205" lon="3.23123">
        <ele>169</ele>
        <time>2014-04-20T07:18:25.979Z</time>
      </trkpt>
      <trkpt lat="48.23209" lon="3.23125">
        <ele>169</ele>
        <time>2014-04-20T07:18:26.979Z</time>
      </trkpt>
      <trkpt lat="48.23213" lon="3.23127">
        <ele>169</ele>
        <time>2014-04-20T07:18:27.979Z</time>
      </trkpt>
      <trkpt lat="48.23218" lon="3.23131">
        <ele>169</ele>
        <time>2014-04-20T07:18:28.979Z</time>
      </trkpt>
      <trkpt lat="48.23222" lon="3.23135">
        <ele>169</ele>
        <time>2014-04-20T07:18:29.979Z</time>
      </trkpt>
      <trkpt lat="48.23227" lon="3.2314">
        <ele>168</ele>
        <time>2014-04-20T07:18:30.979Z</time>
      </trkpt>
      <trkpt lat="48.23231" lon="3.23144">
        <ele>168</ele>
        <time>2014-04-20T07:18:31.979Z</time>
      </trkpt>
      <trkpt lat="48.23235" lon="3.23146">
        <ele>168</ele>
        <time>2014-04-20T07:18:32.979Z</time>
      </trkpt>
      <trkpt lat="48.23238" lon="3.2315">
        <ele>168</ele>
        <time>2014-04-20T07:18:33.979Z</time>
      </trkpt>
      <trkpt lat="48.23243" lon="3.23153">
        <ele>168</ele>
        <time>2014-04-20T07:18:34.979Z</time>
      </trkpt>
      <trkpt lat="48.23246" lon="3.23155">
        <ele>168</ele>
        <time>2014-04-20T07:18:35.979Z</time>
      </trkpt>
      <trkpt lat="48.2325" lon="3.23157">
        <ele>169</ele>
        <time>2014-04-20T07:18:36.979Z</time>
      </trkpt>
      <trkpt lat="48.23253" lon="3.23159">
        <ele>169</ele>
        <time>2014-04-20T07:18:37.979Z</time>
      </trkpt>
      <trkpt lat="48.23258" lon="3.23161">
        <ele>169</ele>
        <time>2014-04-20T07:18:38.979Z</time>
      </trkpt>
      <trkpt lat="48.2326" lon="3.23163">
        <ele>169</ele>
        <time>2014-04-20T07:18:39.979Z</time>
      </trkpt>
      <trkpt lat="48.23263" lon="3.23165">
        <ele>169</ele>
        <time>2014-04-20T07:18:40.979Z</time>
      </trkpt>
      <trkpt lat="48.23266" lon="3.23165">
        <ele>170</ele>
        <time>2014-04-20T07:18:41.979Z</time>
      </trkpt>
      <trkpt lat="48.23268" lon="3.23168">
        <ele>169</ele>
        <time>2014-04-20T07:18:42.979Z</time>
      </trkpt>
      <trkpt lat="48.23272" lon="3.2317">
        <ele>169</ele>
        <time>2014-04-20T07:18:43.979Z</time>
      </trkpt>
      <trkpt lat="48.23275" lon="3.23172">
        <ele>169</ele>
        <time>2014-04-20T07:18:44.979Z</time>
      </trkpt>
      <trkpt lat="48.23278" lon="3.23174">
        <ele>169</ele>
        <time>2014-04-20T07:18:45.979Z</time>
      </trkpt>
      <trkpt lat="48.23281" lon="3.23176">
        <ele>169</ele>
        <time>2014-04-20T07:18:46.979Z</time>
      </trkpt>
      <trkpt lat="48.23283" lon="3.23178">
        <ele>170</ele>
        <time>2014-04-20T07:18:47.979Z</time>
      </trkpt>
      <trkpt lat="48.23287" lon="3.23183">
        <ele>170</ele>
        <time>2014-04-20T07:18:48.979Z</time>
      </trkpt>
      <trkpt lat="48.2329" lon="3.23185">
        <ele>170</ele>
        <time>2014-04-20T07:18:49.979Z</time>
      </trkpt>
      <trkpt lat="48.23293" lon="3.23187">
        <ele>170</ele>
        <time>2014-04-20T07:18:50.979Z</time>
      </trkpt>
      <trkpt lat="48.23295" lon="3.23189">
        <ele>170</ele>
        <time>2014-04-20T07:18:51.979Z</time>
      </trkpt>
      <trkpt lat="48.23298" lon="3.23193">
        <ele>170</ele>
        <time>2014-04-20T07:18:52.979Z</time>
      </trkpt>
      <trkpt lat="48.23301" lon="3.23195">
        <ele>170</ele>
        <time>2014-04-20T07:18:53.979Z</time>
      </trkpt>
      <trkpt lat="48.23303" lon="3.23198">
        <ele>170</ele>
        <time>2014-04-20T07:18:54.979Z</time>
      </trkpt>
      <trkpt lat="48.23306" lon="3.232">
        <ele>170</ele>
        <time>2014-04-20T07:18:55.979Z</time>
      </trkpt>
      <trkpt lat="48.23309" lon="3.23204">
        <ele>170</ele>
        <time>2014-04-20T07:18:56.979Z</time>
      </trkpt>
      <trkpt lat="48.23312" lon="3.23208">
        <ele>170</ele>
        <time>2014-04-20T07:18:57.979Z</time>
      </trkpt>
      <trkpt lat="48.23317" lon="3.2321">
        <ele>171</ele>
        <time>2014-04-20T07:18:58.979Z</time>
      </trkpt>
      <trkpt lat="48.23319" lon="3.23215">
        <ele>170</ele>
        <time>2014-04-20T07:18:59.979Z</time>
      </trkpt>
      <trkpt lat="48.23322" lon="3.23217">
        <ele>170</ele>
        <time>2014-04-20T07:19:00.979Z</time>
      </trkpt>
      <trkpt lat="48.23325" lon="3.23221">
        <ele>170</ele>
        <time>2014-04-20T07:19:01.979Z</time>
      </trkpt>
      <trkpt lat="48.23327" lon="3.23223">
        <ele>170</ele>
        <time>2014-04-20T07:19:02.979Z</time>
      </trkpt>
      <trkpt lat="48.23331" lon="3.23228">
        <ele>170</ele>
        <time>2014-04-20T07:19:03.979Z</time>
      </trkpt>
      <trkpt lat="48.23334" lon="3.23232">
        <ele>173</ele>
        <time>2014-04-20T07:19:04.979Z</time>
      </trkpt>
      <trkpt lat="48.23337" lon="3.23236">
        <ele>173</ele>
        <time>2014-04-20T07:19:05.979Z</time>
      </trkpt>
      <trkpt lat="48.2334" lon="3.23243">
        <ele>172</ele>
        <time>2014-04-20T07:19:06.979Z</time>
      </trkpt>
      <trkpt lat="48.23344" lon="3.23247">
        <ele>172</ele>
        <time>2014-04-20T07:19:07.979Z</time>
      </trkpt>
      <trkpt lat="48.23347" lon="3.23251">
        <ele>171</ele>
        <time>2014-04-20T07:19:08.979Z</time>
      </trkpt>
      <trkpt lat="48.2335" lon="3.23258">
        <ele>171</ele>
        <time>2014-04-20T07:19:09.979Z</time>
      </trkpt>
      <trkpt lat="48.23354" lon="3.23262">
        <ele>171</ele>
        <time>2014-04-20T07:19:10.979Z</time>
      </trkpt>
      <trkpt lat="48.23356" lon="3.23268">
        <ele>171</ele>
        <time>2014-04-20T07:19:11.979Z</time>
      </trkpt>
      <trkpt lat="48.23361" lon="3.23275">
        <ele>172</ele>
        <time>2014-04-20T07:19:12.979Z</time>
      </trkpt>
      <trkpt lat="48.23364" lon="3.23283">
        <ele>171</ele>
        <time>2014-04-20T07:19:13.979Z</time>
      </trkpt>
      <trkpt lat="48.23366" lon="3.2329">
        <ele>171</ele>
        <time>2014-04-20T07:19:14.979Z</time>
      </trkpt>
      <trkpt lat="48.23368" lon="3.23294">
        <ele>171</ele>
        <time>2014-04-20T07:19:15.979Z</time>
      </trkpt>
      <trkpt lat="48.23371" lon="3.23298">
        <ele>171</ele>
        <time>2014-04-20T07:19:16.979Z</time>
      </trkpt>
      <trkpt lat="48.23375" lon="3.23303">
        <ele>172</ele>
        <time>2014-04-20T07:19:17.979Z</time>
      </trkpt>
      <trkpt lat="48.23379" lon="3.23309">
        <ele>172</ele>
        <time>2014-04-20T07:19:18.979Z</time>
      </trkpt>
      <trkpt lat="48.23384" lon="3.23313">
        <ele>172</ele>
        <time>2014-04-20T07:19:19.979Z</time>
      </trkpt>
      <trkpt lat="48.2339" lon="3.23318">
        <ele>172</ele>
        <time>2014-04-20T07:19:20.979Z</time>
      </trkpt>
      <trkpt lat="48.23396" lon="3.23322">
        <ele>173</ele>
        <time>2014-04-20T07:19:21.979Z</time>
      </trkpt>
      <trkpt lat="48.23401" lon="3.23324">
        <ele>173</ele>
        <time>2014-04-20T07:19:22.979Z</time>
      </trkpt>
      <trkpt lat="48.23406" lon="3.23326">
        <ele>174</ele>
        <time>2014-04-20T07:19:23.979Z</time>
      </trkpt>
      <trkpt lat="48.23411" lon="3.23324">
        <ele>174</ele>
        <time>2014-04-20T07:19:24.979Z</time>
      </trkpt>
      <trkpt lat="48.23414" lon="3.23324">
        <ele>174</ele>
        <time>2014-04-20T07:19:25.979Z</time>
      </trkpt>
      <trkpt lat="48.23419" lon="3.23324">
        <ele>175</ele>
        <time>2014-04-20T07:19:26.979Z</time>
      </trkpt>
      <trkpt lat="48.23422" lon="3.23322">
        <ele>175</ele>
        <time>2014-04-20T07:19:27.979Z</time>
      </trkpt>
      <trkpt lat="48.23426" lon="3.2332">
        <ele>175</ele>
        <time>2014-04-20T07:19:28.979Z</time>
      </trkpt>
      <trkpt lat="48.23429" lon="3.23318">
        <ele>175</ele>
        <time>2014-04-20T07:19:29.979Z</time>
      </trkpt>
      <trkpt lat="48.23434" lon="3.23316">
        <ele>175</ele>
        <time>2014-04-20T07:19:30.979Z</time>
      </trkpt>
      <trkpt lat="48.23437" lon="3.23313">
        <ele>175</ele>
        <time>2014-04-20T07:19:31.979Z</time>
      </trkpt>
      <trkpt lat="48.2344" lon="3.23311">
        <ele>175</ele>
        <time>2014-04-20T07:19:32.979Z</time>
      </trkpt>
      <trkpt lat="48.23443" lon="3.23307">
        <ele>175</ele>
        <time>2014-04-20T07:19:33.979Z</time>
      </trkpt>
      <trkpt lat="48.23447" lon="3.23305">
        <ele>175</ele>
        <time>2014-04-20T07:19:34.979Z</time>
      </trkpt>
      <trkpt lat="48.2345" lon="3.23305">
        <ele>175</ele>
        <time>2014-04-20T07:19:35.979Z</time>
      </trkpt>
      <trkpt lat="48.23453" lon="3.23303">
        <ele>175</ele>
        <time>2014-04-20T07:19:36.979Z</time>
      </trkpt>
      <trkpt lat="48.23456" lon="3.23301">
        <ele>175</ele>
        <time>2014-04-20T07:19:37.979Z</time>
      </trkpt>
      <trkpt lat="48.23459" lon="3.23298">
        <ele>176</ele>
        <time>2014-04-20T07:19:38.979Z</time>
      </trkpt>
      <trkpt lat="48.23463" lon="3.23296">
        <ele>176</ele>
        <time>2014-04-20T07:19:39.979Z</time>
      </trkpt>
      <trkpt lat="48.23465" lon="3.23294">
        <ele>176</ele>
        <time>2014-04-20T07:19:40.979Z</time>
      </trkpt>
      <trkpt lat="48.23468" lon="3.2329">
        <ele>176</ele>
        <time>2014-04-20T07:19:41.979Z</time>
      </trkpt>
      <trkpt lat="48.2347" lon="3.23288">
        <ele>176</ele>
        <time>2014-04-20T07:19:42.979Z</time>
      </trkpt>
      <trkpt lat="48.23473" lon="3.23286">
        <ele>176</ele>
        <time>2014-04-20T07:19:43.979Z</time>
      </trkpt>
      <trkpt lat="48.23477" lon="3.23281">
        <ele>176</ele>
        <time>2014-04-20T07:19:44.979Z</time>
      </trkpt>
      <trkpt lat="48.2348" lon="3.23279">
        <ele>176</ele>
        <time>2014-04-20T07:19:45.979Z</time>
      </trkpt>
      <trkpt lat="48.23483" lon="3.23277">
        <ele>176</ele>
        <time>2014-04-20T07:19:46.979Z</time>
      </trkpt>
      <trkpt lat="48.23487" lon="3.23273">
        <ele>176</ele>
        <time>2014-04-20T07:19:47.979Z</time>
      </trkpt>
      <trkpt lat="48.23491" lon="3.23271">
        <ele>176</ele>
        <time>2014-04-20T07:19:48.979Z</time>
      </trkpt>
      <trkpt lat="48.23495" lon="3.23266">
        <ele>176</ele>
        <time>2014-04-20T07:19:49.979Z</time>
      </trkpt>
      <trkpt lat="48.23499" lon="3.23262">
        <ele>176</ele>
        <time>2014-04-20T07:19:50.979Z</time>
      </trkpt>
      <trkpt lat="48.23502" lon="3.23258">
        <ele>175</ele>
        <time>2014-04-20T07:19:51.979Z</time>
      </trkpt>
      <trkpt lat="48.23508" lon="3.23253">
        <ele>175</ele>
        <time>2014-04-20T07:19:52.979Z</time>
      </trkpt>
      <trkpt lat="48.23512" lon="3.23247">
        <ele>175</ele>
        <time>2014-04-20T07:19:53.979Z</time>
      </trkpt>
      <trkpt lat="48.23516" lon="3.23243">
        <ele>175</ele>
        <time>2014-04-20T07:19:54.979Z</time>
      </trkpt>
      <trkpt lat="48.23522" lon="3.23236">
        <ele>174</ele>
        <time>2014-04-20T07:19:55.979Z</time>
      </trkpt>
      <trkpt lat="48.23527" lon="3.23232">
        <ele>174</ele>
        <time>2014-04-20T07:19:56.979Z</time>
      </trkpt>
      <trkpt lat="48.23531" lon="3.23228">
        <ele>174</ele>
        <time>2014-04-20T07:19:57.979Z</time>
      </trkpt>
      <trkpt lat="48.23537" lon="3.23221">
        <ele>173</ele>
        <time>2014-04-20T07:19:58.979Z</time>
      </trkpt>
      <trkpt lat="48.23541" lon="3.23217">
        <ele>173</ele>
        <time>2014-04-20T07:19:59.979Z</time>
      </trkpt>
      <trkpt lat="48.23546" lon="3.2321">
        <ele>173</ele>
        <time>2014-04-20T07:20:00.979Z</time>
      </trkpt>
      <trkpt lat="48.23552" lon="3.23202">
        <ele>173</ele>
        <time>2014-04-20T07:20:01.979Z</time>
      </trkpt>
      <trkpt lat="48.23558" lon="3.23193">
        <ele>173</ele>
        <time>2014-04-20T07:20:02.979Z</time>
      </trkpt>
      <trkpt lat="48.23563" lon="3.23187">
        <ele>172</ele>
        <time>2014-04-20T07:20:03.979Z</time>
      </trkpt>
      <trkpt lat="48.23569" lon="3.2318">
        <ele>172</ele>
        <time>2014-04-20T07:20:04.979Z</time>
      </trkpt>
      <trkpt lat="48.23574" lon="3.23174">
        <ele>171</ele>
        <time>2014-04-20T07:20:05.979Z</time>
      </trkpt>
      <trkpt lat="48.2358" lon="3.23168">
        <ele>170</ele>
        <time>2014-04-20T07:20:06.979Z</time>
      </trkpt>
      <trkpt lat="48.23583" lon="3.23163">
        <ele>171</ele>
        <time>2014-04-20T07:20:09.979Z</time>
      </trkpt>
      <trkpt lat="48.23591" lon="3.2315">
        <ele>169</ele>
        <time>2014-04-20T07:20:10.979Z</time>
      </trkpt>
      <trkpt lat="48.23591" lon="3.2315">
        <ele>169</ele>
        <time>2014-04-20T07:20:11.979Z</time>
      </trkpt>
      <trkpt lat="48.23597" lon="3.23142">
        <ele>169</ele>
        <time>2014-04-20T07:20:12.979Z</time>
      </trkpt>
      <trkpt lat="48.23601" lon="3.23135">
        <ele>169</ele>
        <time>2014-04-20T07:20:13.979Z</time>
      </trkpt>
      <trkpt lat="48.23605" lon="3.23129">
        <ele>169</ele>
        <time>2014-04-20T07:20:14.979Z</time>
      </trkpt>
      <trkpt lat="48.2361" lon="3.2312">
        <ele>169</ele>
        <time>2014-04-20T07:20:15.979Z</time>
      </trkpt>
      <trkpt lat="48.23614" lon="3.23112">
        <ele>169</ele>
        <time>2014-04-20T07:20:16.979Z</time>
      </trkpt>
      <trkpt lat="48.23618" lon="3.23105">
        <ele>169</ele>
        <time>2014-04-20T07:20:17.979Z</time>
      </trkpt>
      <trkpt lat="48.23622" lon="3.23097">
        <ele>168</ele>
        <time>2014-04-20T07:20:18.979Z</time>
      </trkpt>
      <trkpt lat="48.23626" lon="3.23088">
        <ele>168</ele>
        <time>2014-04-20T07:20:19.979Z</time>
      </trkpt>
      <trkpt lat="48.2363" lon="3.2308">
        <ele>167</ele>
        <time>2014-04-20T07:20:20.979Z</time>
      </trkpt>
      <trkpt lat="48.23633" lon="3.23071">
        <ele>167</ele>
        <time>2014-04-20T07:20:21.979Z</time>
      </trkpt>
      <trkpt lat="48.23635" lon="3.23062">
        <ele>167</ele>
        <time>2014-04-20T07:20:22.979Z</time>
      </trkpt>
      <trkpt lat="48.23639" lon="3.23056">
        <ele>167</ele>
        <time>2014-04-20T07:20:23.979Z</time>
      </trkpt>
      <trkpt lat="48.23641" lon="3.23047">
        <ele>166</ele>
        <time>2014-04-20T07:20:24.979Z</time>
      </trkpt>
      <trkpt lat="48.23643" lon="3.23041">
        <ele>166</ele>
        <time>2014-04-20T07:20:25.979Z</time>
      </trkpt>
      <trkpt lat="48.23645" lon="3.23035">
        <ele>166</ele>
        <time>2014-04-20T07:20:26.979Z</time>
      </trkpt>
      <trkpt lat="48.23647" lon="3.23028">
        <ele>165</ele>
        <time>2014-04-20T07:20:27.979Z</time>
      </trkpt>
      <trkpt lat="48.23649" lon="3.23022">
        <ele>165</ele>
        <time>2014-04-20T07:20:28.979Z</time>
      </trkpt>
      <trkpt lat="48.23651" lon="3.23013">
        <ele>164</ele>
        <time>2014-04-20T07:20:29.979Z</time>
      </trkpt>
      <trkpt lat="48.23653" lon="3.23007">
        <ele>163</ele>
        <time>2014-04-20T07:20:30.979Z</time>
      </trkpt>
      <trkpt lat="48.23655" lon="3.23">
        <ele>162</ele>
        <time>2014-04-20T07:20:31.979Z</time>
      </trkpt>
      <trkpt lat="48.23656" lon="3.22992">
        <ele>162</ele>
        <time>2014-04-20T07:20:32.979Z</time>
      </trkpt>
      <trkpt lat="48.23658" lon="3.22985">
        <ele>162</ele>
        <time>2014-04-20T07:20:33.979Z</time>
      </trkpt>
      <trkpt lat="48.23659" lon="3.22979">
        <ele>163</ele>
        <time>2014-04-20T07:20:34.979Z</time>
      </trkpt>
      <trkpt lat="48.23659" lon="3.22972">
        <ele>163</ele>
        <time>2014-04-20T07:20:35.979Z</time>
      </trkpt>
      <trkpt lat="48.2366" lon="3.22966">
        <ele>163</ele>
        <time>2014-04-20T07:20:36.979Z</time>
      </trkpt>
      <trkpt lat="48.23661" lon="3.22959">
        <ele>163</ele>
        <time>2014-04-20T07:20:37.979Z</time>
      </trkpt>
      <trkpt lat="48.23662" lon="3.22953">
        <ele>163</ele>
        <time>2014-04-20T07:20:38.979Z</time>
      </trkpt>
      <trkpt lat="48.23662" lon="3.22949">
        <ele>163</ele>
        <time>2014-04-20T07:20:39.979Z</time>
      </trkpt>
      <trkpt lat="48.23663" lon="3.2294">
        <ele>162</ele>
        <time>2014-04-20T07:20:40.979Z</time>
      </trkpt>
      <trkpt lat="48.23664" lon="3.22934">
        <ele>161</ele>
        <time>2014-04-20T07:20:41.979Z</time>
      </trkpt>
      <trkpt lat="48.23665" lon="3.22927">
        <ele>160</ele>
        <time>2014-04-20T07:20:42.979Z</time>
      </trkpt>
      <trkpt lat="48.23666" lon="3.22921">
        <ele>158</ele>
        <time>2014-04-20T07:20:43.979Z</time>
      </trkpt>
      <trkpt lat="48.23669" lon="3.22914">
        <ele>157</ele>
        <time>2014-04-20T07:20:44.979Z</time>
      </trkpt>
      <trkpt lat="48.23671" lon="3.22908">
        <ele>156</ele>
        <time>2014-04-20T07:20:45.979Z</time>
      </trkpt>
      <trkpt lat="48.23674" lon="3.22901">
        <ele>156</ele>
        <time>2014-04-20T07:20:46.979Z</time>
      </trkpt>
      <trkpt lat="48.23678" lon="3.22897">
        <ele>155</ele>
        <time>2014-04-20T07:20:47.979Z</time>
      </trkpt>
      <trkpt lat="48.23684" lon="3.22891">
        <ele>155</ele>
        <time>2014-04-20T07:20:48.979Z</time>
      </trkpt>
      <trkpt lat="48.23686" lon="3.22886">
        <ele>155</ele>
        <time>2014-04-20T07:20:49.979Z</time>
      </trkpt>
      <trkpt lat="48.23689" lon="3.2288">
        <ele>155</ele>
        <time>2014-04-20T07:20:50.979Z</time>
      </trkpt>
      <trkpt lat="48.23691" lon="3.22876">
        <ele>155</ele>
        <time>2014-04-20T07:20:51.979Z</time>
      </trkpt>
      <trkpt lat="48.23693" lon="3.22871">
        <ele>155</ele>
        <time>2014-04-20T07:20:52.979Z</time>
      </trkpt>
      <trkpt lat="48.23695" lon="3.22867">
        <ele>155</ele>
        <time>2014-04-20T07:21:35.979Z</time>
      </trkpt>
      <trkpt lat="48.23701" lon="3.22856">
        <ele>155</ele>
        <time>2014-04-20T07:21:36.979Z</time>
      </trkpt>
      <trkpt lat="48.23701" lon="3.22856">
        <ele>155</ele>
        <time>2014-04-20T07:21:37.979Z</time>
      </trkpt>
      <trkpt lat="48.23708" lon="3.22846">
        <ele>154</ele>
        <time>2014-04-20T07:21:38.979Z</time>
      </trkpt>
      <trkpt lat="48.23708" lon="3.22846">
        <ele>154</ele>
        <time>2014-04-20T07:21:39.979Z</time>
      </trkpt>
      <trkpt lat="48.2372" lon="3.22833">
        <ele>157</ele>
        <time>2014-04-20T07:21:40.979Z</time>
      </trkpt>
      <trkpt lat="48.23725" lon="3.22826">
        <ele>156</ele>
        <time>2014-04-20T07:21:41.979Z</time>
      </trkpt>
      <trkpt lat="48.23731" lon="3.2282">
        <ele>156</ele>
        <time>2014-04-20T07:21:42.979Z</time>
      </trkpt>
      <trkpt lat="48.23735" lon="3.22814">
        <ele>156</ele>
        <time>2014-04-20T07:21:43.979Z</time>
      </trkpt>
      <trkpt lat="48.23739" lon="3.22807">
        <ele>157</ele>
        <time>2014-04-20T07:21:44.979Z</time>
      </trkpt>
      <trkpt lat="48.23745" lon="3.22801">
        <ele>157</ele>
        <time>2014-04-20T07:21:45.979Z</time>
      </trkpt>
      <trkpt lat="48.23749" lon="3.22794">
        <ele>158</ele>
        <time>2014-04-20T07:21:46.979Z</time>
      </trkpt>
      <trkpt lat="48.23753" lon="3.22786">
        <ele>150</ele>
        <time>2014-04-20T07:21:47.979Z</time>
      </trkpt>
      <trkpt lat="48.23757" lon="3.22779">
        <ele>151</ele>
        <time>2014-04-20T07:21:48.979Z</time>
      </trkpt>
      <trkpt lat="48.2376" lon="3.22773">
        <ele>152</ele>
        <time>2014-04-20T07:21:49.979Z</time>
      </trkpt>
      <trkpt lat="48.23763" lon="3.22768">
        <ele>152</ele>
        <time>2014-04-20T07:21:50.979Z</time>
      </trkpt>
      <trkpt lat="48.23766" lon="3.22762">
        <ele>152</ele>
        <time>2014-04-20T07:21:51.979Z</time>
      </trkpt>
      <trkpt lat="48.23769" lon="3.22758">
        <ele>152</ele>
        <time>2014-04-20T07:21:52.979Z</time>
      </trkpt>
      <trkpt lat="48.23772" lon="3.22751">
        <ele>152</ele>
        <time>2014-04-20T07:21:53.979Z</time>
      </trkpt>
      <trkpt lat="48.23775" lon="3.22747">
        <ele>154</ele>
        <time>2014-04-20T07:21:54.979Z</time>
      </trkpt>
      <trkpt lat="48.23777" lon="3.22743">
        <ele>154</ele>
        <time>2014-04-20T07:21:55.979Z</time>
      </trkpt>
      <trkpt lat="48.23779" lon="3.22736">
        <ele>153</ele>
        <time>2014-04-20T07:21:56.979Z</time>
      </trkpt>
      <trkpt lat="48.23782" lon="3.22732">
        <ele>153</ele>
        <time>2014-04-20T07:21:57.979Z</time>
      </trkpt>
      <trkpt lat="48.23786" lon="3.22728">
        <ele>153</ele>
        <time>2014-04-20T07:21:58.979Z</time>
      </trkpt>
      <trkpt lat="48.23788" lon="3.22721">
        <ele>152</ele>
        <time>2014-04-20T07:21:59.979Z</time>
      </trkpt>
      <trkpt lat="48.2379" lon="3.22715">
        <ele>152</ele>
        <time>2014-04-20T07:22:00.979Z</time>
      </trkpt>
      <trkpt lat="48.23793" lon="3.22708">
        <ele>152</ele>
        <time>2014-04-20T07:22:01.979Z</time>
      </trkpt>
      <trkpt lat="48.23795" lon="3.22702">
        <ele>152</ele>
        <time>2014-04-20T07:22:02.979Z</time>
      </trkpt>
      <trkpt lat="48.23797" lon="3.22698">
        <ele>152</ele>
        <time>2014-04-20T07:22:03.979Z</time>
      </trkpt>
      <trkpt lat="48.23801" lon="3.22691">
        <ele>152</ele>
        <time>2014-04-20T07:22:04.979Z</time>
      </trkpt>
      <trkpt lat="48.23802" lon="3.22685">
        <ele>152</ele>
        <time>2014-04-20T07:22:05.979Z</time>
      </trkpt>
      <trkpt lat="48.23803" lon="3.22678">
        <ele>152</ele>
        <time>2014-04-20T07:22:06.979Z</time>
      </trkpt>
      <trkpt lat="48.23805" lon="3.22672">
        <ele>151</ele>
        <time>2014-04-20T07:22:07.979Z</time>
      </trkpt>
      <trkpt lat="48.23806" lon="3.22663">
        <ele>152</ele>
        <time>2014-04-20T07:22:08.979Z</time>
      </trkpt>
      <trkpt lat="48.23808" lon="3.22657">
        <ele>152</ele>
        <time>2014-04-20T07:22:09.979Z</time>
      </trkpt>
      <trkpt lat="48.2381" lon="3.22648">
        <ele>152</ele>
        <time>2014-04-20T07:22:10.979Z</time>
      </trkpt>
      <trkpt lat="48.23812" lon="3.22642">
        <ele>152</ele>
        <time>2014-04-20T07:22:11.979Z</time>
      </trkpt>
      <trkpt lat="48.23815" lon="3.22635">
        <ele>152</ele>
        <time>2014-04-20T07:22:12.979Z</time>
      </trkpt>
      <trkpt lat="48.23818" lon="3.22629">
        <ele>151</ele>
        <time>2014-04-20T07:22:13.979Z</time>
      </trkpt>
      <trkpt lat="48.2382" lon="3.22623">
        <ele>151</ele>
        <time>2014-04-20T07:22:14.979Z</time>
      </trkpt>
      <trkpt lat="48.23823" lon="3.22616">
        <ele>151</ele>
        <time>2014-04-20T07:22:15.979Z</time>
      </trkpt>
      <trkpt lat="48.23826" lon="3.22608">
        <ele>151</ele>
        <time>2014-04-20T07:22:16.979Z</time>
      </trkpt>
      <trkpt lat="48.2383" lon="3.22601">
        <ele>150</ele>
        <time>2014-04-20T07:22:17.979Z</time>
      </trkpt>
      <trkpt lat="48.23832" lon="3.22595">
        <ele>149</ele>
        <time>2014-04-20T07:22:18.979Z</time>
      </trkpt>
      <trkpt lat="48.23834" lon="3.22586">
        <ele>147</ele>
        <time>2014-04-20T07:22:19.979Z</time>
      </trkpt>
      <trkpt lat="48.23836" lon="3.2258">
        <ele>146</ele>
        <time>2014-04-20T07:22:20.979Z</time>
      </trkpt>
      <trkpt lat="48.23837" lon="3.22571">
        <ele>145</ele>
        <time>2014-04-20T07:22:21.979Z</time>
      </trkpt>
      <trkpt lat="48.23838" lon="3.22562">
        <ele>145</ele>
        <time>2014-04-20T07:22:22.979Z</time>
      </trkpt>
      <trkpt lat="48.23839" lon="3.22556">
        <ele>145</ele>
        <time>2014-04-20T07:22:23.979Z</time>
      </trkpt>
      <trkpt lat="48.2384" lon="3.22547">
        <ele>144</ele>
        <time>2014-04-20T07:22:24.979Z</time>
      </trkpt>
      <trkpt lat="48.2384" lon="3.22539">
        <ele>144</ele>
        <time>2014-04-20T07:22:25.979Z</time>
      </trkpt>
      <trkpt lat="48.23842" lon="3.22528">
        <ele>144</ele>
        <time>2014-04-20T07:22:26.979Z</time>
      </trkpt>
      <trkpt lat="48.23845" lon="3.2252">
        <ele>144</ele>
        <time>2014-04-20T07:22:27.979Z</time>
      </trkpt>
      <trkpt lat="48.23847" lon="3.22509">
        <ele>145</ele>
        <time>2014-04-20T07:22:28.979Z</time>
      </trkpt>
      <trkpt lat="48.2385" lon="3.22498">
        <ele>145</ele>
        <time>2014-04-20T07:22:29.979Z</time>
      </trkpt>
      <trkpt lat="48.23852" lon="3.2249">
        <ele>145</ele>
        <time>2014-04-20T07:22:30.979Z</time>
      </trkpt>
      <trkpt lat="48.23855" lon="3.22483">
        <ele>145</ele>
        <time>2014-04-20T07:22:31.979Z</time>
      </trkpt>
      <trkpt lat="48.2386" lon="3.22477">
        <ele>145</ele>
        <time>2014-04-20T07:22:32.979Z</time>
      </trkpt>
      <trkpt lat="48.23864" lon="3.22472">
        <ele>145</ele>
        <time>2014-04-20T07:22:33.979Z</time>
      </trkpt>
      <trkpt lat="48.23867" lon="3.22466">
        <ele>145</ele>
        <time>2014-04-20T07:22:34.979Z</time>
      </trkpt>
      <trkpt lat="48.23872" lon="3.22464">
        <ele>145</ele>
        <time>2014-04-20T07:22:35.979Z</time>
      </trkpt>
      <trkpt lat="48.23877" lon="3.22459">
        <ele>145</ele>
        <time>2014-04-20T07:22:36.979Z</time>
      </trkpt>
      <trkpt lat="48.23881" lon="3.22457">
        <ele>145</ele>
        <time>2014-04-20T07:22:37.979Z</time>
      </trkpt>
      <trkpt lat="48.23886" lon="3.22455">
        <ele>145</ele>
        <time>2014-04-20T07:22:38.979Z</time>
      </trkpt>
      <trkpt lat="48.23891" lon="3.22453">
        <ele>145</ele>
        <time>2014-04-20T07:22:39.979Z</time>
      </trkpt>
      <trkpt lat="48.23895" lon="3.22451">
        <ele>145</ele>
        <time>2014-04-20T07:22:40.979Z</time>
      </trkpt>
      <trkpt lat="48.23899" lon="3.22447">
        <ele>145</ele>
        <time>2014-04-20T07:22:41.979Z</time>
      </trkpt>
      <trkpt lat="48.23904" lon="3.22444">
        <ele>145</ele>
        <time>2014-04-20T07:22:42.979Z</time>
      </trkpt>
      <trkpt lat="48.23908" lon="3.2244">
        <ele>145</ele>
        <time>2014-04-20T07:22:43.979Z</time>
      </trkpt>
      <trkpt lat="48.23911" lon="3.22438">
        <ele>145</ele>
        <time>2014-04-20T07:22:44.979Z</time>
      </trkpt>
      <trkpt lat="48.23914" lon="3.22436">
        <ele>145</ele>
        <time>2014-04-20T07:22:45.979Z</time>
      </trkpt>
      <trkpt lat="48.23918" lon="3.22434">
        <ele>144</ele>
        <time>2014-04-20T07:22:46.979Z</time>
      </trkpt>
      <trkpt lat="48.23921" lon="3.22432">
        <ele>144</ele>
        <time>2014-04-20T07:22:47.979Z</time>
      </trkpt>
      <trkpt lat="48.23923" lon="3.22429">
        <ele>144</ele>
        <time>2014-04-20T07:22:48.979Z</time>
      </trkpt>
      <trkpt lat="48.23925" lon="3.22427">
        <ele>144</ele>
        <time>2014-04-20T07:22:49.979Z</time>
      </trkpt>
      <trkpt lat="48.23928" lon="3.22427">
        <ele>144</ele>
        <time>2014-04-20T07:22:50.979Z</time>
      </trkpt>
      <trkpt lat="48.2393" lon="3.22425">
        <ele>144</ele>
        <time>2014-04-20T07:22:51.979Z</time>
      </trkpt>
      <trkpt lat="48.23934" lon="3.22421">
        <ele>144</ele>
        <time>2014-04-20T07:22:52.979Z</time>
      </trkpt>
      <trkpt lat="48.23936" lon="3.22419">
        <ele>144</ele>
        <time>2014-04-20T07:22:53.979Z</time>
      </trkpt>
      <trkpt lat="48.23939" lon="3.22417">
        <ele>146</ele>
        <time>2014-04-20T07:22:56.979Z</time>
      </trkpt>
      <trkpt lat="48.23946" lon="3.22408">
        <ele>146</ele>
        <time>2014-04-20T07:22:57.979Z</time>
      </trkpt>
      <trkpt lat="48.23946" lon="3.22408">
        <ele>146</ele>
        <time>2014-04-20T07:22:59.979Z</time>
      </trkpt>
      <trkpt lat="48.23956" lon="3.22397">
        <ele>146</ele>
        <time>2014-04-20T07:23:00.979Z</time>
      </trkpt>
      <trkpt lat="48.23956" lon="3.22397">
        <ele>146</ele>
        <time>2014-04-20T07:23:31.979Z</time>
      </trkpt>
      <trkpt lat="48.23963" lon="3.22387">
        <ele>147</ele>
        <time>2014-04-20T07:23:32.979Z</time>
      </trkpt>
      <trkpt lat="48.23967" lon="3.22376">
        <ele>147</ele>
        <time>2014-04-20T07:23:33.979Z</time>
      </trkpt>
      <trkpt lat="48.23973" lon="3.22363">
        <ele>147</ele>
        <time>2014-04-20T07:23:34.979Z</time>
      </trkpt>
      <trkpt lat="48.23981" lon="3.22346">
        <ele>147</ele>
        <time>2014-04-20T07:23:35.979Z</time>
      </trkpt>
      <trkpt lat="48.23989" lon="3.22329">
        <ele>147</ele>
        <time>2014-04-20T07:23:36.979Z</time>
      </trkpt>
      <trkpt lat="48.23997" lon="3.22314">
        <ele>147</ele>
        <time>2014-04-20T07:23:37.979Z</time>
      </trkpt>
      <trkpt lat="48.24003" lon="3.22301">
        <ele>145</ele>
        <time>2014-04-20T07:23:38.979Z</time>
      </trkpt>
      <trkpt lat="48.24008" lon="3.22292">
        <ele>144</ele>
        <time>2014-04-20T07:23:39.979Z</time>
      </trkpt>
      <trkpt lat="48.24012" lon="3.22284">
        <ele>144</ele>
        <time>2014-04-20T07:23:40.979Z</time>
      </trkpt>
      <trkpt lat="48.24017" lon="3.22275">
        <ele>144</ele>
        <time>2014-04-20T07:23:41.979Z</time>
      </trkpt>
      <trkpt lat="48.24024" lon="3.22268">
        <ele>143</ele>
        <time>2014-04-20T07:23:42.979Z</time>
      </trkpt>
      <trkpt lat="48.2403" lon="3.22262">
        <ele>143</ele>
        <time>2014-04-20T07:23:43.979Z</time>
      </trkpt>
      <trkpt lat="48.24038" lon="3.22256">
        <ele>143</ele>
        <time>2014-04-20T07:23:44.979Z</time>
      </trkpt>
      <trkpt lat="48.24045" lon="3.22251">
        <ele>143</ele>
        <time>2014-04-20T07:23:45.979Z</time>
      </trkpt>
      <trkpt lat="48.24053" lon="3.22247">
        <ele>139</ele>
        <time>2014-04-20T07:23:46.979Z</time>
      </trkpt>
      <trkpt lat="48.24059" lon="3.22241">
        <ele>138</ele>
        <time>2014-04-20T07:23:47.979Z</time>
      </trkpt>
      <trkpt lat="48.24066" lon="3.22236">
        <ele>138</ele>
        <time>2014-04-20T07:23:48.979Z</time>
      </trkpt>
      <trkpt lat="48.24072" lon="3.22232">
        <ele>138</ele>
        <time>2014-04-20T07:23:49.979Z</time>
      </trkpt>
      <trkpt lat="48.2408" lon="3.22226">
        <ele>138</ele>
        <time>2014-04-20T07:23:50.979Z</time>
      </trkpt>
      <trkpt lat="48.24086" lon="3.22219">
        <ele>137</ele>
        <time>2014-04-20T07:23:51.979Z</time>
      </trkpt>
      <trkpt lat="48.24092" lon="3.22213">
        <ele>136</ele>
        <time>2014-04-20T07:23:52.979Z</time>
      </trkpt>
      <trkpt lat="48.24099" lon="3.22206">
        <ele>136</ele>
        <time>2014-04-20T07:23:53.979Z</time>
      </trkpt>
      <trkpt lat="48.24105" lon="3.22198">
        <ele>135</ele>
        <time>2014-04-20T07:23:54.979Z</time>
      </trkpt>
      <trkpt lat="48.24112" lon="3.22189">
        <ele>135</ele>
        <time>2014-04-20T07:23:55.979Z</time>
      </trkpt>
      <trkpt lat="48.24117" lon="3.22178">
        <ele>134</ele>
        <time>2014-04-20T07:23:56.979Z</time>
      </trkpt>
      <trkpt lat="48.24122" lon="3.22165">
        <ele>129</ele>
        <time>2014-04-20T07:23:57.979Z</time>
      </trkpt>
      <trkpt lat="48.24128" lon="3.22155">
        <ele>129</ele>
        <time>2014-04-20T07:23:58.979Z</time>
      </trkpt>
      <trkpt lat="48.24133" lon="3.22144">
        <ele>129</ele>
        <time>2014-04-20T07:23:59.979Z</time>
      </trkpt>
      <trkpt lat="48.2414" lon="3.22133">
        <ele>129</ele>
        <time>2014-04-20T07:24:00.979Z</time>
      </trkpt>
      <trkpt lat="48.24147" lon="3.2212">
        <ele>128</ele>
        <time>2014-04-20T07:24:01.979Z</time>
      </trkpt>
      <trkpt lat="48.24155" lon="3.2211">
        <ele>127</ele>
        <time>2014-04-20T07:24:02.979Z</time>
      </trkpt>
      <trkpt lat="48.24161" lon="3.22097">
        <ele>126</ele>
        <time>2014-04-20T07:24:03.979Z</time>
      </trkpt>
      <trkpt lat="48.24169" lon="3.22086">
        <ele>125</ele>
        <time>2014-04-20T07:24:04.979Z</time>
      </trkpt>
      <trkpt lat="48.24174" lon="3.2208">
        <ele>124</ele>
        <time>2014-04-20T07:24:05.979Z</time>
      </trkpt>
      <trkpt lat="48.24179" lon="3.22073">
        <ele>123</ele>
        <time>2014-04-20T07:24:06.979Z</time>
      </trkpt>
      <trkpt lat="48.24183" lon="3.22069">
        <ele>122</ele>
        <time>2014-04-20T07:24:07.979Z</time>
      </trkpt>
      <trkpt lat="48.24185" lon="3.22062">
        <ele>121</ele>
        <time>2014-04-20T07:24:08.979Z</time>
      </trkpt>
      <trkpt lat="48.24187" lon="3.22058">
        <ele>121</ele>
        <time>2014-04-20T07:24:09.979Z</time>
      </trkpt>
      <trkpt lat="48.24189" lon="3.22052">
        <ele>121</ele>
        <time>2014-04-20T07:24:10.979Z</time>
      </trkpt>
      <trkpt lat="48.24193" lon="3.22045">
        <ele>120</ele>
        <time>2014-04-20T07:24:11.979Z</time>
      </trkpt>
      <trkpt lat="48.24199" lon="3.22041">
        <ele>120</ele>
        <time>2014-04-20T07:24:12.979Z</time>
      </trkpt>
      <trkpt lat="48.24205" lon="3.22039">
        <ele>120</ele>
        <time>2014-04-20T07:24:13.979Z</time>
      </trkpt>
      <trkpt lat="48.24209" lon="3.22037">
        <ele>119</ele>
        <time>2014-04-20T07:24:14.979Z</time>
      </trkpt>
      <trkpt lat="48.24214" lon="3.22035">
        <ele>119</ele>
        <time>2014-04-20T07:24:15.979Z</time>
      </trkpt>
      <trkpt lat="48.24217" lon="3.22035">
        <ele>119</ele>
        <time>2014-04-20T07:24:16.979Z</time>
      </trkpt>
      <trkpt lat="48.24221" lon="3.22032">
        <ele>119</ele>
        <time>2014-04-20T07:24:17.979Z</time>
      </trkpt>
      <trkpt lat="48.24224" lon="3.22032">
        <ele>119</ele>
        <time>2014-04-20T07:24:18.979Z</time>
      </trkpt>
      <trkpt lat="48.24228" lon="3.2203">
        <ele>119</ele>
        <time>2014-04-20T07:24:19.979Z</time>
      </trkpt>
      <trkpt lat="48.24232" lon="3.2203">
        <ele>119</ele>
        <time>2014-04-20T07:24:20.979Z</time>
      </trkpt>
      <trkpt lat="48.24236" lon="3.2203">
        <ele>119</ele>
        <time>2014-04-20T07:24:21.979Z</time>
      </trkpt>
      <trkpt lat="48.2424" lon="3.22028">
        <ele>118</ele>
        <time>2014-04-20T07:24:22.979Z</time>
      </trkpt>
      <trkpt lat="48.24245" lon="3.22028">
        <ele>118</ele>
        <time>2014-04-20T07:24:23.979Z</time>
      </trkpt>
      <trkpt lat="48.2425" lon="3.22028">
        <ele>118</ele>
        <time>2014-04-20T07:24:24.979Z</time>
      </trkpt>
      <trkpt lat="48.24254" lon="3.22026">
        <ele>118</ele>
        <time>2014-04-20T07:24:25.979Z</time>
      </trkpt>
      <trkpt lat="48.2426" lon="3.22026">
        <ele>118</ele>
        <time>2014-04-20T07:24:26.979Z</time>
      </trkpt>
      <trkpt lat="48.24264" lon="3.22026">
        <ele>118</ele>
        <time>2014-04-20T07:24:27.979Z</time>
      </trkpt>
      <trkpt lat="48.24269" lon="3.22026">
        <ele>119</ele>
        <time>2014-04-20T07:24:28.979Z</time>
      </trkpt>
      <trkpt lat="48.24274" lon="3.22024">
        <ele>119</ele>
        <time>2014-04-20T07:24:29.979Z</time>
      </trkpt>
      <trkpt lat="48.24278" lon="3.22024">
        <ele>119</ele>
        <time>2014-04-20T07:24:30.979Z</time>
      </trkpt>
      <trkpt lat="48.24283" lon="3.22024">
        <ele>119</ele>
        <time>2014-04-20T07:24:31.979Z</time>
      </trkpt>
      <trkpt lat="48.24288" lon="3.22022">
        <ele>119</ele>
        <time>2014-04-20T07:24:32.979Z</time>
      </trkpt>
      <trkpt lat="48.24292" lon="3.2202">
        <ele>119</ele>
        <time>2014-04-20T07:24:33.979Z</time>
      </trkpt>
      <trkpt lat="48.24296" lon="3.22017">
        <ele>119</ele>
        <time>2014-04-20T07:24:34.979Z</time>
      </trkpt>
      <trkpt lat="48.24301" lon="3.22017">
        <ele>119</ele>
        <time>2014-04-20T07:24:35.979Z</time>
      </trkpt>
      <trkpt lat="48.24305" lon="3.22015">
        <ele>118</ele>
        <time>2014-04-20T07:24:36.979Z</time>
      </trkpt>
      <trkpt lat="48.2431" lon="3.22011">
        <ele>118</ele>
        <time>2014-04-20T07:24:37.979Z</time>
      </trkpt>
      <trkpt lat="48.24313" lon="3.22007">
        <ele>118</ele>
        <time>2014-04-20T07:24:38.979Z</time>
      </trkpt>
      <trkpt lat="48.24318" lon="3.22">
        <ele>117</ele>
        <time>2014-04-20T07:24:39.979Z</time>
      </trkpt>
      <trkpt lat="48.24322" lon="3.21996">
        <ele>113</ele>
        <time>2014-04-20T07:24:40.979Z</time>
      </trkpt>
      <trkpt lat="48.24326" lon="3.21992">
        <ele>113</ele>
        <time>2014-04-20T07:24:41.979Z</time>
      </trkpt>
      <trkpt lat="48.24331" lon="3.21985">
        <ele>112</ele>
        <time>2014-04-20T07:24:42.979Z</time>
      </trkpt>
      <trkpt lat="48.24335" lon="3.21981">
        <ele>111</ele>
        <time>2014-04-20T07:24:43.979Z</time>
      </trkpt>
      <trkpt lat="48.2434" lon="3.21977">
        <ele>110</ele>
        <time>2014-04-20T07:24:44.979Z</time>
      </trkpt>
      <trkpt lat="48.24346" lon="3.21972">
        <ele>109</ele>
        <time>2014-04-20T07:24:45.979Z</time>
      </trkpt>
      <trkpt lat="48.2435" lon="3.21968">
        <ele>109</ele>
        <time>2014-04-20T07:24:46.979Z</time>
      </trkpt>
      <trkpt lat="48.24355" lon="3.21964">
        <ele>108</ele>
        <time>2014-04-20T07:24:47.979Z</time>
      </trkpt>
      <trkpt lat="48.24361" lon="3.21959">
        <ele>108</ele>
        <time>2014-04-20T07:24:48.979Z</time>
      </trkpt>
      <trkpt lat="48.24367" lon="3.21957">
        <ele>107</ele>
        <time>2014-04-20T07:24:49.979Z</time>
      </trkpt>
      <trkpt lat="48.24372" lon="3.21955">
        <ele>107</ele>
        <time>2014-04-20T07:24:50.979Z</time>
      </trkpt>
      <trkpt lat="48.24379" lon="3.21953">
        <ele>107</ele>
        <time>2014-04-20T07:24:51.979Z</time>
      </trkpt>
      <trkpt lat="48.24385" lon="3.21951">
        <ele>107</ele>
        <time>2014-04-20T07:24:52.979Z</time>
      </trkpt>
      <trkpt lat="48.24392" lon="3.21951">
        <ele>106</ele>
        <time>2014-04-20T07:24:53.979Z</time>
      </trkpt>
      <trkpt lat="48.24398" lon="3.21951">
        <ele>106</ele>
        <time>2014-04-20T07:24:54.979Z</time>
      </trkpt>
      <trkpt lat="48.24405" lon="3.21951">
        <ele>106</ele>
        <time>2014-04-20T07:24:55.979Z</time>
      </trkpt>
      <trkpt lat="48.24411" lon="3.21951">
        <ele>106</ele>
        <time>2014-04-20T07:24:56.979Z</time>
      </trkpt>
      <trkpt lat="48.24417" lon="3.21951">
        <ele>102</ele>
        <time>2014-04-20T07:24:57.979Z</time>
      </trkpt>
      <trkpt lat="48.24423" lon="3.21951">
        <ele>102</ele>
        <time>2014-04-20T07:24:58.979Z</time>
      </trkpt>
      <trkpt lat="48.24429" lon="3.21953">
        <ele>102</ele>
        <time>2014-04-20T07:24:59.979Z</time>
      </trkpt>
      <trkpt lat="48.24436" lon="3.21953">
        <ele>102</ele>
        <time>2014-04-20T07:25:00.979Z</time>
      </trkpt>
      <trkpt lat="48.24442" lon="3.21955">
        <ele>102</ele>
        <time>2014-04-20T07:25:01.979Z</time>
      </trkpt>
      <trkpt lat="48.24449" lon="3.21955">
        <ele>102</ele>
        <time>2014-04-20T07:25:02.979Z</time>
      </trkpt>
      <trkpt lat="48.24455" lon="3.21957">
        <ele>101</ele>
        <time>2014-04-20T07:25:03.979Z</time>
      </trkpt>
      <trkpt lat="48.24461" lon="3.21955">
        <ele>101</ele>
        <time>2014-04-20T07:25:04.979Z</time>
      </trkpt>
      <trkpt lat="48.24466" lon="3.21955">
        <ele>101</ele>
        <time>2014-04-20T07:25:05.979Z</time>
      </trkpt>
      <trkpt lat="48.24471" lon="3.21953">
        <ele>100</ele>
        <time>2014-04-20T07:25:06.979Z</time>
      </trkpt>
      <trkpt lat="48.24478" lon="3.21953">
        <ele>100</ele>
        <time>2014-04-20T07:25:07.979Z</time>
      </trkpt>
      <trkpt lat="48.2448" lon="3.21951">
        <ele>100</ele>
        <time>2014-04-20T07:25:08.979Z</time>
      </trkpt>
      <trkpt lat="48.24482" lon="3.21949">
        <ele>100</ele>
        <time>2014-04-20T07:25:09.979Z</time>
      </trkpt>
      <trkpt lat="48.24481" lon="3.21944">
        <ele>100</ele>
        <time>2014-04-20T07:25:11.979Z</time>
      </trkpt>
      <trkpt lat="48.2448" lon="3.2194">
        <ele>99</ele>
        <time>2014-04-20T07:25:12.979Z</time>
      </trkpt>
      <trkpt lat="48.24479" lon="3.21936">
        <ele>99</ele>
        <time>2014-04-20T07:25:13.979Z</time>
      </trkpt>
      <trkpt lat="48.24476" lon="3.21932">
        <ele>99</ele>
        <time>2014-04-20T07:25:14.979Z</time>
      </trkpt>
      <trkpt lat="48.24475" lon="3.21927">
        <ele>99</ele>
        <time>2014-04-20T07:25:15.979Z</time>
      </trkpt>
      <trkpt lat="48.24473" lon="3.21923">
        <ele>99</ele>
        <time>2014-04-20T07:25:16.979Z</time>
      </trkpt>
      <trkpt lat="48.24471" lon="3.21919">
        <ele>99</ele>
        <time>2014-04-20T07:25:17.979Z</time>
      </trkpt>
      <trkpt lat="48.24469" lon="3.21914">
        <ele>98</ele>
        <time>2014-04-20T07:25:18.979Z</time>
      </trkpt>
      <trkpt lat="48.24468" lon="3.2191">
        <ele>98</ele>
        <time>2014-04-20T07:25:19.979Z</time>
      </trkpt>
      <trkpt lat="48.24466" lon="3.21906">
        <ele>98</ele>
        <time>2014-04-20T07:25:20.979Z</time>
      </trkpt>
      <trkpt lat="48.24464" lon="3.21902">
        <ele>98</ele>
        <time>2014-04-20T07:25:21.979Z</time>
      </trkpt>
      <trkpt lat="48.24461" lon="3.21895">
        <ele>98</ele>
        <time>2014-04-20T07:25:22.979Z</time>
      </trkpt>
      <trkpt lat="48.24459" lon="3.21891">
        <ele>98</ele>
        <time>2014-04-20T07:25:23.979Z</time>
      </trkpt>
      <trkpt lat="48.24457" lon="3.21884">
        <ele>98</ele>
        <time>2014-04-20T07:25:24.979Z</time>
      </trkpt>
      <trkpt lat="48.24456" lon="3.2188">
        <ele>98</ele>
        <time>2014-04-20T07:25:25.979Z</time>
      </trkpt>
      <trkpt lat="48.24454" lon="3.21876">
        <ele>98</ele>
        <time>2014-04-20T07:25:26.979Z</time>
      </trkpt>
      <trkpt lat="48.24452" lon="3.21869">
        <ele>98</ele>
        <time>2014-04-20T07:25:27.979Z</time>
      </trkpt>
      <trkpt lat="48.2445" lon="3.21865">
        <ele>98</ele>
        <time>2014-04-20T07:25:28.979Z</time>
      </trkpt>
      <trkpt lat="48.24448" lon="3.21859">
        <ele>99</ele>
        <time>2014-04-20T07:25:29.979Z</time>
      </trkpt>
      <trkpt lat="48.24446" lon="3.21854">
        <ele>99</ele>
        <time>2014-04-20T07:25:30.979Z</time>
      </trkpt>
      <trkpt lat="48.24444" lon="3.21848">
        <ele>99</ele>
        <time>2014-04-20T07:25:31.979Z</time>
      </trkpt>
      <trkpt lat="48.24443" lon="3.21844">
        <ele>99</ele>
        <time>2014-04-20T07:25:32.979Z</time>
      </trkpt>
      <trkpt lat="48.24441" lon="3.21837">
        <ele>99</ele>
        <time>2014-04-20T07:25:33.979Z</time>
      </trkpt>
      <trkpt lat="48.2444" lon="3.21833">
        <ele>100</ele>
        <time>2014-04-20T07:25:34.979Z</time>
      </trkpt>
      <trkpt lat="48.24438" lon="3.21826">
        <ele>100</ele>
        <time>2014-04-20T07:25:35.979Z</time>
      </trkpt>
      <trkpt lat="48.24436" lon="3.21822">
        <ele>100</ele>
        <time>2014-04-20T07:25:36.979Z</time>
      </trkpt>
      <trkpt lat="48.24435" lon="3.21818">
        <ele>100</ele>
        <time>2014-04-20T07:25:37.979Z</time>
      </trkpt>
      <trkpt lat="48.24432" lon="3.21811">
        <ele>101</ele>
        <time>2014-04-20T07:25:38.979Z</time>
      </trkpt>
      <trkpt lat="48.2443" lon="3.21807">
        <ele>101</ele>
        <time>2014-04-20T07:25:39.979Z</time>
      </trkpt>
      <trkpt lat="48.24429" lon="3.21803">
        <ele>101</ele>
        <time>2014-04-20T07:25:40.979Z</time>
      </trkpt>
      <trkpt lat="48.24428" lon="3.21799">
        <ele>101</ele>
        <time>2014-04-20T07:25:41.979Z</time>
      </trkpt>
      <trkpt lat="48.24426" lon="3.21794">
        <ele>101</ele>
        <time>2014-04-20T07:25:42.979Z</time>
      </trkpt>
      <trkpt lat="48.24425" lon="3.2179">
        <ele>101</ele>
        <time>2014-04-20T07:25:43.979Z</time>
      </trkpt>
      <trkpt lat="48.24423" lon="3.21786">
        <ele>102</ele>
        <time>2014-04-20T07:25:44.979Z</time>
      </trkpt>
      <trkpt lat="48.24422" lon="3.21781">
        <ele>102</ele>
        <time>2014-04-20T07:25:45.979Z</time>
      </trkpt>
      <trkpt lat="48.2442" lon="3.21775">
        <ele>102</ele>
        <time>2014-04-20T07:25:46.979Z</time>
      </trkpt>
      <trkpt lat="48.24419" lon="3.21771">
        <ele>103</ele>
        <time>2014-04-20T07:25:47.979Z</time>
      </trkpt>
      <trkpt lat="48.24416" lon="3.21766">
        <ele>105</ele>
        <time>2014-04-20T07:25:48.979Z</time>
      </trkpt>
      <trkpt lat="48.24415" lon="3.21762">
        <ele>105</ele>
        <time>2014-04-20T07:25:49.979Z</time>
      </trkpt>
      <trkpt lat="48.24413" lon="3.21758">
        <ele>106</ele>
        <time>2014-04-20T07:25:50.979Z</time>
      </trkpt>
      <trkpt lat="48.24412" lon="3.21754">
        <ele>106</ele>
        <time>2014-04-20T07:25:51.979Z</time>
      </trkpt>
      <trkpt lat="48.2441" lon="3.21749">
        <ele>107</ele>
        <time>2014-04-20T07:25:52.979Z</time>
      </trkpt>
      <trkpt lat="48.24409" lon="3.21745">
        <ele>107</ele>
        <time>2014-04-20T07:25:53.979Z</time>
      </trkpt>
      <trkpt lat="48.24408" lon="3.21743">
        <ele>107</ele>
        <time>2014-04-20T07:25:54.979Z</time>
      </trkpt>
      <trkpt lat="48.24407" lon="3.21741">
        <ele>107</ele>
        <time>2014-04-20T07:25:55.979Z</time>
      </trkpt>
      <trkpt lat="48.24406" lon="3.21736">
        <ele>108</ele>
        <time>2014-04-20T07:25:56.979Z</time>
      </trkpt>
      <trkpt lat="48.24405" lon="3.21732">
        <ele>108</ele>
        <time>2014-04-20T07:25:58.979Z</time>
      </trkpt>
      <trkpt lat="48.24404" lon="3.21728">
        <ele>108</ele>
        <time>2014-04-20T07:25:59.979Z</time>
      </trkpt>
      <trkpt lat="48.24401" lon="3.21728">
        <ele>108</ele>
        <time>2014-04-20T07:26:03.979Z</time>
      </trkpt>
      <trkpt lat="48.24399" lon="3.21721">
        <ele>108</ele>
        <time>2014-04-20T07:26:04.979Z</time>
      </trkpt>
      <trkpt lat="48.24402" lon="3.21719">
        <ele>108</ele>
        <time>2014-04-20T07:26:07.979Z</time>
      </trkpt>
      <trkpt lat="48.24404" lon="3.21719">
        <ele>108</ele>
        <time>2014-04-20T07:26:08.979Z</time>
      </trkpt>
      <trkpt lat="48.24404" lon="3.21719">
        <ele>108</ele>
        <time>2014-04-20T07:26:11.979Z</time>
      </trkpt>
      <trkpt lat="48.24408" lon="3.21713">
        <ele>109</ele>
        <time>2014-04-20T07:26:12.979Z</time>
      </trkpt>
      <trkpt lat="48.24408" lon="3.21713">
        <ele>109</ele>
        <time>2014-04-20T07:26:14.979Z</time>
      </trkpt>
      <trkpt lat="48.2441" lon="3.21706">
        <ele>109</ele>
        <time>2014-04-20T07:26:15.979Z</time>
      </trkpt>
      <trkpt lat="48.2441" lon="3.21706">
        <ele>109</ele>
        <time>2014-04-20T07:26:17.979Z</time>
      </trkpt>
      <trkpt lat="48.24412" lon="3.217">
        <ele>109</ele>
        <time>2014-04-20T07:26:18.979Z</time>
      </trkpt>
      <trkpt lat="48.24412" lon="3.217">
        <ele>109</ele>
        <time>2014-04-20T07:26:20.979Z</time>
      </trkpt>
      <trkpt lat="48.24414" lon="3.21691">
        <ele>109</ele>
        <time>2014-04-20T07:26:21.979Z</time>
      </trkpt>
      <trkpt lat="48.24414" lon="3.21691">
        <ele>109</ele>
        <time>2014-04-20T07:26:23.979Z</time>
      </trkpt>
      <trkpt lat="48.24416" lon="3.21683">
        <ele>110</ele>
        <time>2014-04-20T07:26:24.979Z</time>
      </trkpt>
      <trkpt lat="48.24416" lon="3.21683">
        <ele>110</ele>
        <time>2014-04-20T07:26:26.979Z</time>
      </trkpt>
      <trkpt lat="48.24419" lon="3.21674">
        <ele>108</ele>
        <time>2014-04-20T07:26:27.979Z</time>
      </trkpt>
      <trkpt lat="48.2442" lon="3.21668">
        <ele>109</ele>
        <time>2014-04-20T07:26:29.979Z</time>
      </trkpt>
      <trkpt lat="48.24421" lon="3.21666">
        <ele>109</ele>
        <time>2014-04-20T07:26:30.979Z</time>
      </trkpt>
      <trkpt lat="48.24421" lon="3.21661">
        <ele>109</ele>
        <time>2014-04-20T07:26:31.979Z</time>
      </trkpt>
      <trkpt lat="48.24422" lon="3.21657">
        <ele>108</ele>
        <time>2014-04-20T07:26:32.979Z</time>
      </trkpt>
      <trkpt lat="48.24423" lon="3.21653">
        <ele>107</ele>
        <time>2014-04-20T07:26:33.979Z</time>
      </trkpt>
      <trkpt lat="48.24424" lon="3.21648">
        <ele>107</ele>
        <time>2014-04-20T07:26:34.979Z</time>
      </trkpt>
      <trkpt lat="48.24424" lon="3.21644">
        <ele>107</ele>
        <time>2014-04-20T07:26:35.979Z</time>
      </trkpt>
      <trkpt lat="48.24425" lon="3.2164">
        <ele>106</ele>
        <time>2014-04-20T07:26:36.979Z</time>
      </trkpt>
      <trkpt lat="48.24426" lon="3.21635">
        <ele>106</ele>
        <time>2014-04-20T07:26:37.979Z</time>
      </trkpt>
      <trkpt lat="48.24427" lon="3.21633">
        <ele>106</ele>
        <time>2014-04-20T07:26:38.979Z</time>
      </trkpt>
      <trkpt lat="48.24427" lon="3.21629">
        <ele>106</ele>
        <time>2014-04-20T07:26:39.979Z</time>
      </trkpt>
      <trkpt lat="48.24428" lon="3.21625">
        <ele>106</ele>
        <time>2014-04-20T07:26:40.979Z</time>
      </trkpt>
      <trkpt lat="48.24429" lon="3.21618">
        <ele>106</ele>
        <time>2014-04-20T07:26:41.979Z</time>
      </trkpt>
      <trkpt lat="48.2443" lon="3.21614">
        <ele>106</ele>
        <time>2014-04-20T07:26:42.979Z</time>
      </trkpt>
      <trkpt lat="48.24431" lon="3.2161">
        <ele>106</ele>
        <time>2014-04-20T07:26:43.979Z</time>
      </trkpt>
      <trkpt lat="48.24432" lon="3.21605">
        <ele>106</ele>
        <time>2014-04-20T07:26:44.979Z</time>
      </trkpt>
      <trkpt lat="48.24432" lon="3.21601">
        <ele>106</ele>
        <time>2014-04-20T07:26:45.979Z</time>
      </trkpt>
      <trkpt lat="48.24434" lon="3.21595">
        <ele>106</ele>
        <time>2014-04-20T07:26:46.979Z</time>
      </trkpt>
      <trkpt lat="48.24435" lon="3.2159">
        <ele>106</ele>
        <time>2014-04-20T07:26:47.979Z</time>
      </trkpt>
      <trkpt lat="48.24436" lon="3.21586">
        <ele>106</ele>
        <time>2014-04-20T07:26:48.979Z</time>
      </trkpt>
      <trkpt lat="48.24437" lon="3.21582">
        <ele>106</ele>
        <time>2014-04-20T07:26:49.979Z</time>
      </trkpt>
      <trkpt lat="48.24438" lon="3.21578">
        <ele>106</ele>
        <time>2014-04-20T07:26:50.979Z</time>
      </trkpt>
      <trkpt lat="48.24439" lon="3.21571">
        <ele>106</ele>
        <time>2014-04-20T07:26:51.979Z</time>
      </trkpt>
      <trkpt lat="48.2444" lon="3.21567">
        <ele>106</ele>
        <time>2014-04-20T07:26:52.979Z</time>
      </trkpt>
      <trkpt lat="48.24441" lon="3.21563">
        <ele>106</ele>
        <time>2014-04-20T07:26:53.979Z</time>
      </trkpt>
      <trkpt lat="48.24441" lon="3.21558">
        <ele>106</ele>
        <time>2014-04-20T07:26:54.979Z</time>
      </trkpt>
      <trkpt lat="48.24442" lon="3.21552">
        <ele>106</ele>
        <time>2014-04-20T07:26:55.979Z</time>
      </trkpt>
      <trkpt lat="48.24443" lon="3.21548">
        <ele>106</ele>
        <time>2014-04-20T07:26:56.979Z</time>
      </trkpt>
      <trkpt lat="48.24444" lon="3.21543">
        <ele>106</ele>
        <time>2014-04-20T07:26:57.979Z</time>
      </trkpt>
      <trkpt lat="48.24445" lon="3.21539">
        <ele>106</ele>
        <time>2014-04-20T07:26:58.979Z</time>
      </trkpt>
      <trkpt lat="48.24446" lon="3.21532">
        <ele>106</ele>
        <time>2014-04-20T07:26:59.979Z</time>
      </trkpt>
      <trkpt lat="48.24448" lon="3.21528">
        <ele>106</ele>
        <time>2014-04-20T07:27:00.979Z</time>
      </trkpt>
      <trkpt lat="48.24449" lon="3.21522">
        <ele>106</ele>
        <time>2014-04-20T07:27:01.979Z</time>
      </trkpt>
      <trkpt lat="48.2445" lon="3.21517">
        <ele>106</ele>
        <time>2014-04-20T07:27:02.979Z</time>
      </trkpt>
      <trkpt lat="48.24451" lon="3.21511">
        <ele>106</ele>
        <time>2014-04-20T07:27:03.979Z</time>
      </trkpt>
      <trkpt lat="48.24452" lon="3.21507">
        <ele>106</ele>
        <time>2014-04-20T07:27:04.979Z</time>
      </trkpt>
      <trkpt lat="48.24453" lon="3.215">
        <ele>106</ele>
        <time>2014-04-20T07:27:05.979Z</time>
      </trkpt>
      <trkpt lat="48.24454" lon="3.21496">
        <ele>106</ele>
        <time>2014-04-20T07:27:06.979Z</time>
      </trkpt>
      <trkpt lat="48.24455" lon="3.2149">
        <ele>106</ele>
        <time>2014-04-20T07:27:07.979Z</time>
      </trkpt>
      <trkpt lat="48.24456" lon="3.21485">
        <ele>106</ele>
        <time>2014-04-20T07:27:08.979Z</time>
      </trkpt>
      <trkpt lat="48.24457" lon="3.21479">
        <ele>106</ele>
        <time>2014-04-20T07:27:09.979Z</time>
      </trkpt>
      <trkpt lat="48.24458" lon="3.21472">
        <ele>106</ele>
        <time>2014-04-20T07:27:10.979Z</time>
      </trkpt>
      <trkpt lat="48.24459" lon="3.21468">
        <ele>105</ele>
        <time>2014-04-20T07:27:11.979Z</time>
      </trkpt>
      <trkpt lat="48.2446" lon="3.21462">
        <ele>105</ele>
        <time>2014-04-20T07:27:12.979Z</time>
      </trkpt>
      <trkpt lat="48.24463" lon="3.21455">
        <ele>105</ele>
        <time>2014-04-20T07:27:13.979Z</time>
      </trkpt>
      <trkpt lat="48.24464" lon="3.21449">
        <ele>105</ele>
        <time>2014-04-20T07:27:14.979Z</time>
      </trkpt>
      <trkpt lat="48.24465" lon="3.21442">
        <ele>105</ele>
        <time>2014-04-20T07:27:15.979Z</time>
      </trkpt>
      <trkpt lat="48.24466" lon="3.21438">
        <ele>105</ele>
        <time>2014-04-20T07:27:16.979Z</time>
      </trkpt>
      <trkpt lat="48.24467" lon="3.21432">
        <ele>105</ele>
        <time>2014-04-20T07:27:17.979Z</time>
      </trkpt>
      <trkpt lat="48.24468" lon="3.21425">
        <ele>105</ele>
        <time>2014-04-20T07:27:18.979Z</time>
      </trkpt>
      <trkpt lat="48.24471" lon="3.21421">
        <ele>105</ele>
        <time>2014-04-20T07:27:19.979Z</time>
      </trkpt>
      <trkpt lat="48.24473" lon="3.21414">
        <ele>104</ele>
        <time>2014-04-20T07:27:20.979Z</time>
      </trkpt>
      <trkpt lat="48.24478" lon="3.21408">
        <ele>104</ele>
        <time>2014-04-20T07:27:21.979Z</time>
      </trkpt>
      <trkpt lat="48.24482" lon="3.21404">
        <ele>104</ele>
        <time>2014-04-20T07:27:22.979Z</time>
      </trkpt>
      <trkpt lat="48.24487" lon="3.21397">
        <ele>104</ele>
        <time>2014-04-20T07:27:23.979Z</time>
      </trkpt>
      <trkpt lat="48.24494" lon="3.21391">
        <ele>104</ele>
        <time>2014-04-20T07:27:24.979Z</time>
      </trkpt>
      <trkpt lat="48.245" lon="3.21384">
        <ele>104</ele>
        <time>2014-04-20T07:27:25.979Z</time>
      </trkpt>
      <trkpt lat="48.24505" lon="3.21378">
        <ele>101</ele>
        <time>2014-04-20T07:27:26.979Z</time>
      </trkpt>
      <trkpt lat="48.24512" lon="3.21372">
        <ele>101</ele>
        <time>2014-04-20T07:27:27.979Z</time>
      </trkpt>
      <trkpt lat="48.24517" lon="3.21365">
        <ele>101</ele>
        <time>2014-04-20T07:27:28.979Z</time>
      </trkpt>
      <trkpt lat="48.24523" lon="3.21361">
        <ele>101</ele>
        <time>2014-04-20T07:27:29.979Z</time>
      </trkpt>
      <trkpt lat="48.24527" lon="3.21357">
        <ele>101</ele>
        <time>2014-04-20T07:27:30.979Z</time>
      </trkpt>
      <trkpt lat="48.24532" lon="3.2135">
        <ele>101</ele>
        <time>2014-04-20T07:27:31.979Z</time>
      </trkpt>
      <trkpt lat="48.24537" lon="3.21346">
        <ele>101</ele>
        <time>2014-04-20T07:27:32.979Z</time>
      </trkpt>
      <trkpt lat="48.24541" lon="3.21342">
        <ele>101</ele>
        <time>2014-04-20T07:27:33.979Z</time>
      </trkpt>
      <trkpt lat="48.24545" lon="3.21337">
        <ele>100</ele>
        <time>2014-04-20T07:27:34.979Z</time>
      </trkpt>
      <trkpt lat="48.24547" lon="3.21335">
        <ele>100</ele>
        <time>2014-04-20T07:27:35.979Z</time>
      </trkpt>
      <trkpt lat="48.24549" lon="3.21331">
        <ele>101</ele>
        <time>2014-04-20T07:27:36.979Z</time>
      </trkpt>
      <trkpt lat="48.24553" lon="3.21326">
        <ele>101</ele>
        <time>2014-04-20T07:27:38.979Z</time>
      </trkpt>
      <trkpt lat="48.24554" lon="3.21322">
        <ele>101</ele>
        <time>2014-04-20T07:27:39.979Z</time>
      </trkpt>
      <trkpt lat="48.24553" lon="3.21316">
        <ele>101</ele>
        <time>2014-04-20T07:27:41.979Z</time>
      </trkpt>
      <trkpt lat="48.24553" lon="3.21311">
        <ele>101</ele>
        <time>2014-04-20T07:27:42.979Z</time>
      </trkpt>
      <trkpt lat="48.24553" lon="3.21311">
        <ele>101</ele>
        <time>2014-04-20T07:27:44.979Z</time>
      </trkpt>
      <trkpt lat="48.24552" lon="3.21303">
        <ele>101</ele>
        <time>2014-04-20T07:27:45.979Z</time>
      </trkpt>
      <trkpt lat="48.24552" lon="3.21303">
        <ele>101</ele>
        <time>2014-04-20T07:27:47.979Z</time>
      </trkpt>
      <trkpt lat="48.24555" lon="3.21296">
        <ele>101</ele>
        <time>2014-04-20T07:27:48.979Z</time>
      </trkpt>
      <trkpt lat="48.24555" lon="3.21296">
        <ele>101</ele>
        <time>2014-04-20T07:27:49.979Z</time>
      </trkpt>
      <trkpt lat="48.24559" lon="3.21294">
        <ele>101</ele>
        <time>2014-04-20T07:27:50.979Z</time>
      </trkpt>
      <trkpt lat="48.24559" lon="3.21294">
        <ele>101</ele>
        <time>2014-04-20T07:27:51.979Z</time>
      </trkpt>
      <trkpt lat="48.24563" lon="3.2129">
        <ele>101</ele>
        <time>2014-04-20T07:27:52.979Z</time>
      </trkpt>
      <trkpt lat="48.24563" lon="3.2129">
        <ele>101</ele>
        <time>2014-04-20T07:27:53.979Z</time>
      </trkpt>
      <trkpt lat="48.24568" lon="3.21288">
        <ele>101</ele>
        <time>2014-04-20T07:27:54.979Z</time>
      </trkpt>
      <trkpt lat="48.24568" lon="3.21288">
        <ele>101</ele>
        <time>2014-04-20T07:27:55.979Z</time>
      </trkpt>
      <trkpt lat="48.24572" lon="3.21286">
        <ele>101</ele>
        <time>2014-04-20T07:27:56.979Z</time>
      </trkpt>
      <trkpt lat="48.24574" lon="3.21284">
        <ele>102</ele>
        <time>2014-04-20T07:27:57.979Z</time>
      </trkpt>
      <trkpt lat="48.24576" lon="3.21284">
        <ele>102</ele>
        <time>2014-04-20T07:27:58.979Z</time>
      </trkpt>
      <trkpt lat="48.24578" lon="3.21281">
        <ele>102</ele>
        <time>2014-04-20T07:27:59.979Z</time>
      </trkpt>
      <trkpt lat="48.24581" lon="3.21279">
        <ele>102</ele>
        <time>2014-04-20T07:28:00.979Z</time>
      </trkpt>
      <trkpt lat="48.24584" lon="3.21279">
        <ele>104</ele>
        <time>2014-04-20T07:28:01.979Z</time>
      </trkpt>
      <trkpt lat="48.24586" lon="3.21277">
        <ele>104</ele>
        <time>2014-04-20T07:28:02.979Z</time>
      </trkpt>
      <trkpt lat="48.24588" lon="3.21275">
        <ele>104</ele>
        <time>2014-04-20T07:28:03.979Z</time>
      </trkpt>
      <trkpt lat="48.24591" lon="3.21273">
        <ele>104</ele>
        <time>2014-04-20T07:28:04.979Z</time>
      </trkpt>
      <trkpt lat="48.24593" lon="3.21273">
        <ele>104</ele>
        <time>2014-04-20T07:28:05.979Z</time>
      </trkpt>
      <trkpt lat="48.24596" lon="3.21271">
        <ele>105</ele>
        <time>2014-04-20T07:28:06.979Z</time>
      </trkpt>
      <trkpt lat="48.24598" lon="3.21269">
        <ele>105</ele>
        <time>2014-04-20T07:28:07.979Z</time>
      </trkpt>
      <trkpt lat="48.246" lon="3.21266">
        <ele>105</ele>
        <time>2014-04-20T07:28:08.979Z</time>
      </trkpt>
      <trkpt lat="48.24602" lon="3.21264">
        <ele>105</ele>
        <time>2014-04-20T07:28:09.979Z</time>
      </trkpt>
      <trkpt lat="48.24604" lon="3.21262">
        <ele>105</ele>
        <time>2014-04-20T07:28:10.979Z</time>
      </trkpt>
      <trkpt lat="48.24606" lon="3.21262">
        <ele>105</ele>
        <time>2014-04-20T07:28:11.979Z</time>
      </trkpt>
      <trkpt lat="48.24608" lon="3.2126">
        <ele>105</ele>
        <time>2014-04-20T07:28:12.979Z</time>
      </trkpt>
      <trkpt lat="48.24608" lon="3.2126">
        <ele>105</ele>
        <time>2014-04-20T07:28:14.979Z</time>
      </trkpt>
      <trkpt lat="48.24615" lon="3.21256">
        <ele>105</ele>
        <time>2014-04-20T07:28:15.979Z</time>
      </trkpt>
      <trkpt lat="48.24615" lon="3.21256">
        <ele>105</ele>
        <time>2014-04-20T07:28:17.979Z</time>
      </trkpt>
      <trkpt lat="48.2462" lon="3.21251">
        <ele>106</ele>
        <time>2014-04-20T07:28:18.979Z</time>
      </trkpt>
      <trkpt lat="48.2462" lon="3.21251">
        <ele>106</ele>
        <time>2014-04-20T07:28:19.979Z</time>
      </trkpt>
      <trkpt lat="48.24625" lon="3.21247">
        <ele>108</ele>
        <time>2014-04-20T07:28:20.979Z</time>
      </trkpt>
      <trkpt lat="48.24625" lon="3.21247">
        <ele>108</ele>
        <time>2014-04-20T07:28:21.979Z</time>
      </trkpt>
      <trkpt lat="48.24629" lon="3.21245">
        <ele>108</ele>
        <time>2014-04-20T07:28:22.979Z</time>
      </trkpt>
      <trkpt lat="48.24629" lon="3.21245">
        <ele>108</ele>
        <time>2014-04-20T07:28:23.979Z</time>
      </trkpt>
      <trkpt lat="48.24633" lon="3.21243">
        <ele>109</ele>
        <time>2014-04-20T07:28:24.979Z</time>
      </trkpt>
      <trkpt lat="48.24633" lon="3.21243">
        <ele>109</ele>
        <time>2014-04-20T07:28:25.979Z</time>
      </trkpt>
      <trkpt lat="48.24637" lon="3.21239">
        <ele>109</ele>
        <time>2014-04-20T07:28:26.979Z</time>
      </trkpt>
      <trkpt lat="48.24637" lon="3.21239">
        <ele>109</ele>
        <time>2014-04-20T07:28:27.979Z</time>
      </trkpt>
      <trkpt lat="48.24642" lon="3.21236">
        <ele>109</ele>
        <time>2014-04-20T07:28:28.979Z</time>
      </trkpt>
      <trkpt lat="48.24642" lon="3.21236">
        <ele>109</ele>
        <time>2014-04-20T07:28:29.979Z</time>
      </trkpt>
      <trkpt lat="48.24646" lon="3.21232">
        <ele>109</ele>
        <time>2014-04-20T07:28:30.979Z</time>
      </trkpt>
      <trkpt lat="48.24646" lon="3.21232">
        <ele>109</ele>
        <time>2014-04-20T07:28:31.979Z</time>
      </trkpt>
      <trkpt lat="48.2465" lon="3.21228">
        <ele>110</ele>
        <time>2014-04-20T07:28:32.979Z</time>
      </trkpt>
      <trkpt lat="48.2465" lon="3.21228">
        <ele>110</ele>
        <time>2014-04-20T07:28:33.979Z</time>
      </trkpt>
      <trkpt lat="48.24655" lon="3.21226">
        <ele>110</ele>
        <time>2014-04-20T07:28:34.979Z</time>
      </trkpt>
      <trkpt lat="48.24655" lon="3.21226">
        <ele>110</ele>
        <time>2014-04-20T07:28:35.979Z</time>
      </trkpt>
      <trkpt lat="48.24659" lon="3.21221">
        <ele>110</ele>
        <time>2014-04-20T07:28:36.979Z</time>
      </trkpt>
      <trkpt lat="48.24661" lon="3.21219">
        <ele>110</ele>
        <time>2014-04-20T07:28:37.979Z</time>
      </trkpt>
      <trkpt lat="48.24663" lon="3.21217">
        <ele>110</ele>
        <time>2014-04-20T07:28:38.979Z</time>
      </trkpt>
      <trkpt lat="48.24663" lon="3.21217">
        <ele>110</ele>
        <time>2014-04-20T07:28:39.979Z</time>
      </trkpt>
      <trkpt lat="48.24667" lon="3.21215">
        <ele>115</ele>
        <time>2014-04-20T07:28:40.979Z</time>
      </trkpt>
      <trkpt lat="48.24671" lon="3.21211">
        <ele>116</ele>
        <time>2014-04-20T07:28:44.979Z</time>
      </trkpt>
      <trkpt lat="48.24677" lon="3.21206">
        <ele>116</ele>
        <time>2014-04-20T07:28:45.979Z</time>
      </trkpt>
      <trkpt lat="48.24677" lon="3.21206">
        <ele>116</ele>
        <time>2014-04-20T07:28:46.979Z</time>
      </trkpt>
      <trkpt lat="48.24681" lon="3.21204">
        <ele>116</ele>
        <time>2014-04-20T07:28:47.979Z</time>
      </trkpt>
      <trkpt lat="48.24684" lon="3.21202">
        <ele>116</ele>
        <time>2014-04-20T07:28:49.979Z</time>
      </trkpt>
      <trkpt lat="48.24687" lon="3.212">
        <ele>116</ele>
        <time>2014-04-20T07:28:50.979Z</time>
      </trkpt>
      <trkpt lat="48.24687" lon="3.212">
        <ele>116</ele>
        <time>2014-04-20T07:28:52.979Z</time>
      </trkpt>
      <trkpt lat="48.24693" lon="3.21196">
        <ele>117</ele>
        <time>2014-04-20T07:28:53.979Z</time>
      </trkpt>
      <trkpt lat="48.24695" lon="3.21193">
        <ele>117</ele>
        <time>2014-04-20T07:28:54.979Z</time>
      </trkpt>
      <trkpt lat="48.24697" lon="3.21193">
        <ele>117</ele>
        <time>2014-04-20T07:28:55.979Z</time>
      </trkpt>
      <trkpt lat="48.24697" lon="3.21193">
        <ele>117</ele>
        <time>2014-04-20T07:28:57.979Z</time>
      </trkpt>
      <trkpt lat="48.24703" lon="3.21189">
        <ele>117</ele>
        <time>2014-04-20T07:28:58.979Z</time>
      </trkpt>
      <trkpt lat="48.24705" lon="3.21187">
        <ele>118</ele>
        <time>2014-04-20T07:28:59.979Z</time>
      </trkpt>
      <trkpt lat="48.24707" lon="3.21187">
        <ele>118</ele>
        <time>2014-04-20T07:29:00.979Z</time>
      </trkpt>
      <trkpt lat="48.24708" lon="3.21185">
        <ele>118</ele>
        <time>2014-04-20T07:29:03.979Z</time>
      </trkpt>
      <trkpt lat="48.24714" lon="3.21183">
        <ele>118</ele>
        <time>2014-04-20T07:29:04.979Z</time>
      </trkpt>
      <trkpt lat="48.24717" lon="3.21181">
        <ele>119</ele>
        <time>2014-04-20T07:29:06.979Z</time>
      </trkpt>
      <trkpt lat="48.24718" lon="3.21178">
        <ele>119</ele>
        <time>2014-04-20T07:29:07.979Z</time>
      </trkpt>
      <trkpt lat="48.24721" lon="3.21178">
        <ele>119</ele>
        <time>2014-04-20T07:29:09.979Z</time>
      </trkpt>
      <trkpt lat="48.24722" lon="3.21176">
        <ele>119</ele>
        <time>2014-04-20T07:29:10.979Z</time>
      </trkpt>
      <trkpt lat="48.24725" lon="3.21174">
        <ele>120</ele>
        <time>2014-04-20T07:29:12.979Z</time>
      </trkpt>
      <trkpt lat="48.24728" lon="3.21174">
        <ele>120</ele>
        <time>2014-04-20T07:29:13.979Z</time>
      </trkpt>
      <trkpt lat="48.24731" lon="3.21172">
        <ele>120</ele>
        <time>2014-04-20T07:29:16.979Z</time>
      </trkpt>
      <trkpt lat="48.24734" lon="3.2117">
        <ele>121</ele>
        <time>2014-04-20T07:29:17.979Z</time>
      </trkpt>
      <trkpt lat="48.24735" lon="3.21168">
        <ele>121</ele>
        <time>2014-04-20T07:29:20.979Z</time>
      </trkpt>
      <trkpt lat="48.2474" lon="3.21166">
        <ele>123</ele>
        <time>2014-04-20T07:29:21.979Z</time>
      </trkpt>
      <trkpt lat="48.2474" lon="3.21166">
        <ele>123</ele>
        <time>2014-04-20T07:29:23.979Z</time>
      </trkpt>
      <trkpt lat="48.24746" lon="3.21161">
        <ele>123</ele>
        <time>2014-04-20T07:29:24.979Z</time>
      </trkpt>
      <trkpt lat="48.24746" lon="3.21161">
        <ele>123</ele>
        <time>2014-04-20T07:29:26.979Z</time>
      </trkpt>
      <trkpt lat="48.24751" lon="3.21159">
        <ele>126</ele>
        <time>2014-04-20T07:29:27.979Z</time>
      </trkpt>
      <trkpt lat="48.24751" lon="3.21159">
        <ele>126</ele>
        <time>2014-04-20T07:29:29.979Z</time>
      </trkpt>
      <trkpt lat="48.24755" lon="3.21155">
        <ele>127</ele>
        <time>2014-04-20T07:29:30.979Z</time>
      </trkpt>
      <trkpt lat="48.24755" lon="3.21155">
        <ele>127</ele>
        <time>2014-04-20T07:29:32.979Z</time>
      </trkpt>
      <trkpt lat="48.24761" lon="3.21153">
        <ele>128</ele>
        <time>2014-04-20T07:29:33.979Z</time>
      </trkpt>
      <trkpt lat="48.24761" lon="3.21153">
        <ele>128</ele>
        <time>2014-04-20T07:29:35.979Z</time>
      </trkpt>
      <trkpt lat="48.24765" lon="3.21148">
        <ele>128</ele>
        <time>2014-04-20T07:29:36.979Z</time>
      </trkpt>
      <trkpt lat="48.24765" lon="3.21148">
        <ele>128</ele>
        <time>2014-04-20T07:29:38.979Z</time>
      </trkpt>
      <trkpt lat="48.2477" lon="3.21146">
        <ele>129</ele>
        <time>2014-04-20T07:29:39.979Z</time>
      </trkpt>
      <trkpt lat="48.2477" lon="3.21146">
        <ele>129</ele>
        <time>2014-04-20T07:29:41.979Z</time>
      </trkpt>
      <trkpt lat="48.24776" lon="3.21142">
        <ele>130</ele>
        <time>2014-04-20T07:29:42.979Z</time>
      </trkpt>
      <trkpt lat="48.24776" lon="3.21142">
        <ele>130</ele>
        <time>2014-04-20T07:29:44.979Z</time>
      </trkpt>
      <trkpt lat="48.24781" lon="3.21138">
        <ele>130</ele>
        <time>2014-04-20T07:29:45.979Z</time>
      </trkpt>
      <trkpt lat="48.24781" lon="3.21138">
        <ele>130</ele>
        <time>2014-04-20T07:29:47.979Z</time>
      </trkpt>
      <trkpt lat="48.24785" lon="3.21136">
        <ele>131</ele>
        <time>2014-04-20T07:29:48.979Z</time>
      </trkpt>
      <trkpt lat="48.24785" lon="3.21136">
        <ele>131</ele>
        <time>2014-04-20T07:29:51.979Z</time>
      </trkpt>
      <trkpt lat="48.2479" lon="3.21131">
        <ele>131</ele>
        <time>2014-04-20T07:29:52.979Z</time>
      </trkpt>
      <trkpt lat="48.24793" lon="3.21129">
        <ele>132</ele>
        <time>2014-04-20T07:29:54.979Z</time>
      </trkpt>
      <trkpt lat="48.24794" lon="3.21129">
        <ele>132</ele>
        <time>2014-04-20T07:29:55.979Z</time>
      </trkpt>
      <trkpt lat="48.24796" lon="3.21127">
        <ele>132</ele>
        <time>2014-04-20T07:29:57.979Z</time>
      </trkpt>
      <trkpt lat="48.24798" lon="3.21125">
        <ele>132</ele>
        <time>2014-04-20T07:29:58.979Z</time>
      </trkpt>
      <trkpt lat="48.24802" lon="3.21123">
        <ele>132</ele>
        <time>2014-04-20T07:30:00.979Z</time>
      </trkpt>
      <trkpt lat="48.24803" lon="3.21123">
        <ele>132</ele>
        <time>2014-04-20T07:30:01.979Z</time>
      </trkpt>
      <trkpt lat="48.24806" lon="3.21121">
        <ele>133</ele>
        <time>2014-04-20T07:30:03.979Z</time>
      </trkpt>
      <trkpt lat="48.24807" lon="3.21121">
        <ele>133</ele>
        <time>2014-04-20T07:30:04.979Z</time>
      </trkpt>
      <trkpt lat="48.24809" lon="3.21118">
        <ele>133</ele>
        <time>2014-04-20T07:30:06.979Z</time>
      </trkpt>
      <trkpt lat="48.24811" lon="3.21116">
        <ele>133</ele>
        <time>2014-04-20T07:30:07.979Z</time>
      </trkpt>
      <trkpt lat="48.24814" lon="3.21114">
        <ele>134</ele>
        <time>2014-04-20T07:30:10.979Z</time>
      </trkpt>
      <trkpt lat="48.24816" lon="3.21114">
        <ele>134</ele>
        <time>2014-04-20T07:30:11.979Z</time>
      </trkpt>
      <trkpt lat="48.24819" lon="3.21112">
        <ele>134</ele>
        <time>2014-04-20T07:30:13.979Z</time>
      </trkpt>
      <trkpt lat="48.2482" lon="3.21112">
        <ele>134</ele>
        <time>2014-04-20T07:30:14.979Z</time>
      </trkpt>
      <trkpt lat="48.24823" lon="3.2111">
        <ele>135</ele>
        <time>2014-04-20T07:30:17.979Z</time>
      </trkpt>
      <trkpt lat="48.24825" lon="3.21108">
        <ele>135</ele>
        <time>2014-04-20T07:30:18.979Z</time>
      </trkpt>
      <trkpt lat="48.24828" lon="3.21105">
        <ele>135</ele>
        <time>2014-04-20T07:30:21.979Z</time>
      </trkpt>
      <trkpt lat="48.24829" lon="3.21103">
        <ele>136</ele>
        <time>2014-04-20T07:30:22.979Z</time>
      </trkpt>
      <trkpt lat="48.24833" lon="3.21103">
        <ele>136</ele>
        <time>2014-04-20T07:30:24.979Z</time>
      </trkpt>
      <trkpt lat="48.24834" lon="3.21101">
        <ele>142</ele>
        <time>2014-04-20T07:30:25.979Z</time>
      </trkpt>
      <trkpt lat="48.24836" lon="3.21099">
        <ele>142</ele>
        <time>2014-04-20T07:30:27.979Z</time>
      </trkpt>
      <trkpt lat="48.24838" lon="3.21099">
        <ele>142</ele>
        <time>2014-04-20T07:30:28.979Z</time>
      </trkpt>
      <trkpt lat="48.24841" lon="3.21097">
        <ele>142</ele>
        <time>2014-04-20T07:30:31.979Z</time>
      </trkpt>
      <trkpt lat="48.24842" lon="3.21097">
        <ele>142</ele>
        <time>2014-04-20T07:30:32.979Z</time>
      </trkpt>
      <trkpt lat="48.24846" lon="3.21095">
        <ele>143</ele>
        <time>2014-04-20T07:30:34.979Z</time>
      </trkpt>
      <trkpt lat="48.24847" lon="3.21095">
        <ele>143</ele>
        <time>2014-04-20T07:30:35.979Z</time>
      </trkpt>
      <trkpt lat="48.2485" lon="3.21093">
        <ele>143</ele>
        <time>2014-04-20T07:30:38.979Z</time>
      </trkpt>
      <trkpt lat="48.24851" lon="3.2109">
        <ele>143</ele>
        <time>2014-04-20T07:30:39.979Z</time>
      </trkpt>
      <trkpt lat="48.24854" lon="3.21086">
        <ele>143</ele>
        <time>2014-04-20T07:30:44.979Z</time>
      </trkpt>
      <trkpt lat="48.24854" lon="3.21084">
        <ele>143</ele>
        <time>2014-04-20T07:30:45.979Z</time>
      </trkpt>
      <trkpt lat="48.24855" lon="3.21078">
        <ele>145</ele>
        <time>2014-04-20T07:30:50.979Z</time>
      </trkpt>
      <trkpt lat="48.24855" lon="3.21075">
        <ele>145</ele>
        <time>2014-04-20T07:30:51.979Z</time>
      </trkpt>
      <trkpt lat="48.24855" lon="3.21069">
        <ele>145</ele>
        <time>2014-04-20T07:30:55.979Z</time>
      </trkpt>
      <trkpt lat="48.24855" lon="3.21067">
        <ele>145</ele>
        <time>2014-04-20T07:30:56.979Z</time>
      </trkpt>
      <trkpt lat="48.24854" lon="3.2106">
        <ele>145</ele>
        <time>2014-04-20T07:31:01.979Z</time>
      </trkpt>
      <trkpt lat="48.24854" lon="3.21058">
        <ele>145</ele>
        <time>2014-04-20T07:31:02.979Z</time>
      </trkpt>
      <trkpt lat="48.24853" lon="3.21054">
        <ele>145</ele>
        <time>2014-04-20T07:31:05.979Z</time>
      </trkpt>
      <trkpt lat="48.24852" lon="3.21052">
        <ele>145</ele>
        <time>2014-04-20T07:31:06.979Z</time>
      </trkpt>
      <trkpt lat="48.24851" lon="3.21048">
        <ele>145</ele>
        <time>2014-04-20T07:31:10.979Z</time>
      </trkpt>
      <trkpt lat="48.2485" lon="3.21045">
        <ele>145</ele>
        <time>2014-04-20T07:31:11.979Z</time>
      </trkpt>
      <trkpt lat="48.24849" lon="3.21041">
        <ele>145</ele>
        <time>2014-04-20T07:31:14.979Z</time>
      </trkpt>
      <trkpt lat="48.24848" lon="3.21039">
        <ele>145</ele>
        <time>2014-04-20T07:31:15.979Z</time>
      </trkpt>
      <trkpt lat="48.24846" lon="3.21035">
        <ele>145</ele>
        <time>2014-04-20T07:31:17.979Z</time>
      </trkpt>
      <trkpt lat="48.24844" lon="3.21033">
        <ele>145</ele>
        <time>2014-04-20T07:31:18.979Z</time>
      </trkpt>
      <trkpt lat="48.24843" lon="3.21028">
        <ele>145</ele>
        <time>2014-04-20T07:31:19.979Z</time>
      </trkpt>
      <trkpt lat="48.24842" lon="3.21026">
        <ele>145</ele>
        <time>2014-04-20T07:31:20.979Z</time>
      </trkpt>
      <trkpt lat="48.24841" lon="3.21022">
        <ele>145</ele>
        <time>2014-04-20T07:31:21.979Z</time>
      </trkpt>
      <trkpt lat="48.2484" lon="3.2102">
        <ele>145</ele>
        <time>2014-04-20T07:31:22.979Z</time>
      </trkpt>
      <trkpt lat="48.24839" lon="3.21018">
        <ele>144</ele>
        <time>2014-04-20T07:31:23.979Z</time>
      </trkpt>
      <trkpt lat="48.24838" lon="3.21013">
        <ele>144</ele>
        <time>2014-04-20T07:31:24.979Z</time>
      </trkpt>
      <trkpt lat="48.24837" lon="3.21011">
        <ele>144</ele>
        <time>2014-04-20T07:31:25.979Z</time>
      </trkpt>
      <trkpt lat="48.24836" lon="3.21007">
        <ele>143</ele>
        <time>2014-04-20T07:31:26.979Z</time>
      </trkpt>
      <trkpt lat="48.24835" lon="3.21005">
        <ele>143</ele>
        <time>2014-04-20T07:31:27.979Z</time>
      </trkpt>
      <trkpt lat="48.24834" lon="3.21">
        <ele>142</ele>
        <time>2014-04-20T07:31:28.979Z</time>
      </trkpt>
      <trkpt lat="48.24833" lon="3.20998">
        <ele>142</ele>
        <time>2014-04-20T07:31:29.979Z</time>
      </trkpt>
      <trkpt lat="48.24832" lon="3.20994">
        <ele>141</ele>
        <time>2014-04-20T07:31:30.979Z</time>
      </trkpt>
      <trkpt lat="48.24831" lon="3.2099">
        <ele>140</ele>
        <time>2014-04-20T07:31:31.979Z</time>
      </trkpt>
      <trkpt lat="48.24828" lon="3.20987">
        <ele>140</ele>
        <time>2014-04-20T07:31:32.979Z</time>
      </trkpt>
      <trkpt lat="48.24827" lon="3.20983">
        <ele>140</ele>
        <time>2014-04-20T07:31:33.979Z</time>
      </trkpt>
      <trkpt lat="48.24826" lon="3.20979">
        <ele>140</ele>
        <time>2014-04-20T07:31:34.979Z</time>
      </trkpt>
      <trkpt lat="48.24825" lon="3.20977">
        <ele>139</ele>
        <time>2014-04-20T07:31:35.979Z</time>
      </trkpt>
      <trkpt lat="48.24824" lon="3.20972">
        <ele>139</ele>
        <time>2014-04-20T07:31:36.979Z</time>
      </trkpt>
      <trkpt lat="48.24822" lon="3.20968">
        <ele>139</ele>
        <time>2014-04-20T07:31:37.979Z</time>
      </trkpt>
      <trkpt lat="48.24821" lon="3.20966">
        <ele>139</ele>
        <time>2014-04-20T07:31:38.979Z</time>
      </trkpt>
      <trkpt lat="48.2482" lon="3.20962">
        <ele>139</ele>
        <time>2014-04-20T07:31:39.979Z</time>
      </trkpt>
      <trkpt lat="48.24819" lon="3.20957">
        <ele>139</ele>
        <time>2014-04-20T07:31:40.979Z</time>
      </trkpt>
      <trkpt lat="48.24819" lon="3.20953">
        <ele>139</ele>
        <time>2014-04-20T07:31:41.979Z</time>
      </trkpt>
      <trkpt lat="48.24818" lon="3.20949">
        <ele>140</ele>
        <time>2014-04-20T07:31:42.979Z</time>
      </trkpt>
      <trkpt lat="48.24817" lon="3.20945">
        <ele>140</ele>
        <time>2014-04-20T07:31:43.979Z</time>
      </trkpt>
      <trkpt lat="48.24817" lon="3.2094">
        <ele>140</ele>
        <time>2014-04-20T07:31:44.979Z</time>
      </trkpt>
      <trkpt lat="48.24816" lon="3.20936">
        <ele>140</ele>
        <time>2014-04-20T07:31:45.979Z</time>
      </trkpt>
      <trkpt lat="48.24814" lon="3.20934">
        <ele>140</ele>
        <time>2014-04-20T07:31:46.979Z</time>
      </trkpt>
      <trkpt lat="48.24813" lon="3.2093">
        <ele>140</ele>
        <time>2014-04-20T07:31:47.979Z</time>
      </trkpt>
      <trkpt lat="48.24812" lon="3.20925">
        <ele>141</ele>
        <time>2014-04-20T07:31:48.979Z</time>
      </trkpt>
      <trkpt lat="48.24812" lon="3.20921">
        <ele>141</ele>
        <time>2014-04-20T07:31:49.979Z</time>
      </trkpt>
      <trkpt lat="48.24811" lon="3.20917">
        <ele>142</ele>
        <time>2014-04-20T07:31:50.979Z</time>
      </trkpt>
      <trkpt lat="48.24811" lon="3.20912">
        <ele>142</ele>
        <time>2014-04-20T07:31:51.979Z</time>
      </trkpt>
      <trkpt lat="48.2481" lon="3.20908">
        <ele>142</ele>
        <time>2014-04-20T07:31:52.979Z</time>
      </trkpt>
      <trkpt lat="48.2481" lon="3.20904">
        <ele>142</ele>
        <time>2014-04-20T07:31:53.979Z</time>
      </trkpt>
      <trkpt lat="48.2481" lon="3.20899">
        <ele>142</ele>
        <time>2014-04-20T07:31:54.979Z</time>
      </trkpt>
      <trkpt lat="48.24809" lon="3.20895">
        <ele>141</ele>
        <time>2014-04-20T07:31:55.979Z</time>
      </trkpt>
      <trkpt lat="48.24809" lon="3.20891">
        <ele>141</ele>
        <time>2014-04-20T07:31:56.979Z</time>
      </trkpt>
      <trkpt lat="48.24809" lon="3.20887">
        <ele>141</ele>
        <time>2014-04-20T07:31:57.979Z</time>
      </trkpt>
      <trkpt lat="48.24809" lon="3.20882">
        <ele>141</ele>
        <time>2014-04-20T07:31:58.979Z</time>
      </trkpt>
      <trkpt lat="48.24809" lon="3.20878">
        <ele>141</ele>
        <time>2014-04-20T07:31:59.979Z</time>
      </trkpt>
      <trkpt lat="48.2481" lon="3.20874">
        <ele>141</ele>
        <time>2014-04-20T07:32:00.979Z</time>
      </trkpt>
      <trkpt lat="48.2481" lon="3.20867">
        <ele>142</ele>
        <time>2014-04-20T07:32:02.979Z</time>
      </trkpt>
      <trkpt lat="48.24811" lon="3.20863">
        <ele>142</ele>
        <time>2014-04-20T07:32:03.979Z</time>
      </trkpt>
      <trkpt lat="48.24812" lon="3.20861">
        <ele>142</ele>
        <time>2014-04-20T07:32:04.979Z</time>
      </trkpt>
      <trkpt lat="48.24813" lon="3.20857">
        <ele>142</ele>
        <time>2014-04-20T07:32:05.979Z</time>
      </trkpt>
      <trkpt lat="48.24816" lon="3.20854">
        <ele>143</ele>
        <time>2014-04-20T07:32:06.979Z</time>
      </trkpt>
      <trkpt lat="48.24818" lon="3.20852">
        <ele>143</ele>
        <time>2014-04-20T07:32:07.979Z</time>
      </trkpt>
      <trkpt lat="48.2482" lon="3.20848">
        <ele>144</ele>
        <time>2014-04-20T07:32:08.979Z</time>
      </trkpt>
      <trkpt lat="48.24823" lon="3.20846">
        <ele>144</ele>
        <time>2014-04-20T07:32:09.979Z</time>
      </trkpt>
      <trkpt lat="48.24825" lon="3.20844">
        <ele>145</ele>
        <time>2014-04-20T07:32:10.979Z</time>
      </trkpt>
      <trkpt lat="48.24828" lon="3.20842">
        <ele>145</ele>
        <time>2014-04-20T07:32:11.979Z</time>
      </trkpt>
      <trkpt lat="48.24832" lon="3.20839">
        <ele>146</ele>
        <time>2014-04-20T07:32:12.979Z</time>
      </trkpt>
      <trkpt lat="48.24834" lon="3.20837">
        <ele>148</ele>
        <time>2014-04-20T07:32:13.979Z</time>
      </trkpt>
      <trkpt lat="48.24837" lon="3.20835">
        <ele>148</ele>
        <time>2014-04-20T07:32:14.979Z</time>
      </trkpt>
      <trkpt lat="48.24839" lon="3.20831">
        <ele>148</ele>
        <time>2014-04-20T07:32:15.979Z</time>
      </trkpt>
      <trkpt lat="48.24842" lon="3.20829">
        <ele>149</ele>
        <time>2014-04-20T07:32:16.979Z</time>
      </trkpt>
      <trkpt lat="48.24846" lon="3.20827">
        <ele>149</ele>
        <time>2014-04-20T07:32:17.979Z</time>
      </trkpt>
      <trkpt lat="48.24848" lon="3.20824">
        <ele>149</ele>
        <time>2014-04-20T07:32:18.979Z</time>
      </trkpt>
      <trkpt lat="48.24851" lon="3.20822">
        <ele>149</ele>
        <time>2014-04-20T07:32:19.979Z</time>
      </trkpt>
      <trkpt lat="48.24854" lon="3.2082">
        <ele>149</ele>
        <time>2014-04-20T07:32:20.979Z</time>
      </trkpt>
      <trkpt lat="48.24856" lon="3.20818">
        <ele>149</ele>
        <time>2014-04-20T07:32:21.979Z</time>
      </trkpt>
      <trkpt lat="48.24859" lon="3.20816">
        <ele>149</ele>
        <time>2014-04-20T07:32:22.979Z</time>
      </trkpt>
      <trkpt lat="48.24863" lon="3.20814">
        <ele>149</ele>
        <time>2014-04-20T07:32:23.979Z</time>
      </trkpt>
      <trkpt lat="48.24865" lon="3.20809">
        <ele>150</ele>
        <time>2014-04-20T07:32:24.979Z</time>
      </trkpt>
      <trkpt lat="48.24868" lon="3.20807">
        <ele>150</ele>
        <time>2014-04-20T07:32:25.979Z</time>
      </trkpt>
      <trkpt lat="48.2487" lon="3.20805">
        <ele>150</ele>
        <time>2014-04-20T07:32:26.979Z</time>
      </trkpt>
      <trkpt lat="48.24872" lon="3.20803">
        <ele>150</ele>
        <time>2014-04-20T07:32:27.979Z</time>
      </trkpt>
      <trkpt lat="48.24876" lon="3.20799">
        <ele>150</ele>
        <time>2014-04-20T07:32:29.979Z</time>
      </trkpt>
      <trkpt lat="48.24877" lon="3.20796">
        <ele>150</ele>
        <time>2014-04-20T07:32:30.979Z</time>
      </trkpt>
      <trkpt lat="48.24878" lon="3.20792">
        <ele>150</ele>
        <time>2014-04-20T07:32:31.979Z</time>
      </trkpt>
      <trkpt lat="48.24879" lon="3.2079">
        <ele>150</ele>
        <time>2014-04-20T07:32:32.979Z</time>
      </trkpt>
      <trkpt lat="48.2488" lon="3.20786">
        <ele>149</ele>
        <time>2014-04-20T07:32:34.979Z</time>
      </trkpt>
      <trkpt lat="48.24881" lon="3.20781">
        <ele>149</ele>
        <time>2014-04-20T07:32:35.979Z</time>
      </trkpt>
      <trkpt lat="48.24881" lon="3.20775">
        <ele>149</ele>
        <time>2014-04-20T07:32:37.979Z</time>
      </trkpt>
      <trkpt lat="48.24882" lon="3.20773">
        <ele>149</ele>
        <time>2014-04-20T07:32:38.979Z</time>
      </trkpt>
      <trkpt lat="48.24882" lon="3.20769">
        <ele>149</ele>
        <time>2014-04-20T07:32:39.979Z</time>
      </trkpt>
      <trkpt lat="48.24883" lon="3.20764">
        <ele>149</ele>
        <time>2014-04-20T07:32:40.979Z</time>
      </trkpt>
      <trkpt lat="48.24884" lon="3.2076">
        <ele>149</ele>
        <time>2014-04-20T07:32:41.979Z</time>
      </trkpt>
      <trkpt lat="48.24885" lon="3.20754">
        <ele>149</ele>
        <time>2014-04-20T07:32:42.979Z</time>
      </trkpt>
      <trkpt lat="48.24886" lon="3.20749">
        <ele>148</ele>
        <time>2014-04-20T07:32:43.979Z</time>
      </trkpt>
      <trkpt lat="48.24886" lon="3.20743">
        <ele>148</ele>
        <time>2014-04-20T07:32:44.979Z</time>
      </trkpt>
      <trkpt lat="48.24887" lon="3.20739">
        <ele>148</ele>
        <time>2014-04-20T07:32:45.979Z</time>
      </trkpt>
      <trkpt lat="48.24888" lon="3.20732">
        <ele>148</ele>
        <time>2014-04-20T07:32:46.979Z</time>
      </trkpt>
      <trkpt lat="48.2489" lon="3.20726">
        <ele>148</ele>
        <time>2014-04-20T07:32:47.979Z</time>
      </trkpt>
      <trkpt lat="48.24892" lon="3.20719">
        <ele>148</ele>
        <time>2014-04-20T07:32:48.979Z</time>
      </trkpt>
      <trkpt lat="48.24893" lon="3.20713">
        <ele>148</ele>
        <time>2014-04-20T07:32:49.979Z</time>
      </trkpt>
      <trkpt lat="48.24895" lon="3.20706">
        <ele>148</ele>
        <time>2014-04-20T07:32:50.979Z</time>
      </trkpt>
      <trkpt lat="48.24897" lon="3.20698">
        <ele>148</ele>
        <time>2014-04-20T07:32:51.979Z</time>
      </trkpt>
      <trkpt lat="48.24899" lon="3.20691">
        <ele>148</ele>
        <time>2014-04-20T07:32:52.979Z</time>
      </trkpt>
      <trkpt lat="48.24901" lon="3.20683">
        <ele>147</ele>
        <time>2014-04-20T07:32:53.979Z</time>
      </trkpt>
      <trkpt lat="48.24903" lon="3.20676">
        <ele>147</ele>
        <time>2014-04-20T07:32:54.979Z</time>
      </trkpt>
      <trkpt lat="48.24907" lon="3.2067">
        <ele>146</ele>
        <time>2014-04-20T07:32:55.979Z</time>
      </trkpt>
      <trkpt lat="48.24909" lon="3.20663">
        <ele>147</ele>
        <time>2014-04-20T07:32:56.979Z</time>
      </trkpt>
      <trkpt lat="48.24911" lon="3.20657">
        <ele>147</ele>
        <time>2014-04-20T07:32:57.979Z</time>
      </trkpt>
      <trkpt lat="48.24914" lon="3.20648">
        <ele>148</ele>
        <time>2014-04-20T07:32:58.979Z</time>
      </trkpt>
      <trkpt lat="48.24916" lon="3.20642">
        <ele>148</ele>
        <time>2014-04-20T07:32:59.979Z</time>
      </trkpt>
      <trkpt lat="48.24919" lon="3.20636">
        <ele>146</ele>
        <time>2014-04-20T07:33:00.979Z</time>
      </trkpt>
      <trkpt lat="48.2492" lon="3.20629">
        <ele>146</ele>
        <time>2014-04-20T07:33:01.979Z</time>
      </trkpt>
      <trkpt lat="48.24922" lon="3.20623">
        <ele>146</ele>
        <time>2014-04-20T07:33:02.979Z</time>
      </trkpt>
      <trkpt lat="48.24922" lon="3.20614">
        <ele>147</ele>
        <time>2014-04-20T07:33:03.979Z</time>
      </trkpt>
      <trkpt lat="48.24923" lon="3.20608">
        <ele>147</ele>
        <time>2014-04-20T07:33:04.979Z</time>
      </trkpt>
      <trkpt lat="48.24923" lon="3.20601">
        <ele>147</ele>
        <time>2014-04-20T07:33:05.979Z</time>
      </trkpt>
      <trkpt lat="48.24923" lon="3.20597">
        <ele>147</ele>
        <time>2014-04-20T07:33:06.979Z</time>
      </trkpt>
      <trkpt lat="48.24923" lon="3.2059">
        <ele>147</ele>
        <time>2014-04-20T07:33:07.979Z</time>
      </trkpt>
      <trkpt lat="48.24923" lon="3.20584">
        <ele>148</ele>
        <time>2014-04-20T07:33:08.979Z</time>
      </trkpt>
      <trkpt lat="48.24923" lon="3.2058">
        <ele>149</ele>
        <time>2014-04-20T07:33:09.979Z</time>
      </trkpt>
      <trkpt lat="48.24922" lon="3.20573">
        <ele>149</ele>
        <time>2014-04-20T07:33:10.979Z</time>
      </trkpt>
      <trkpt lat="48.24922" lon="3.20569">
        <ele>149</ele>
        <time>2014-04-20T07:33:11.979Z</time>
      </trkpt>
      <trkpt lat="48.24921" lon="3.20563">
        <ele>149</ele>
        <time>2014-04-20T07:33:12.979Z</time>
      </trkpt>
      <trkpt lat="48.24921" lon="3.20556">
        <ele>149</ele>
        <time>2014-04-20T07:33:13.979Z</time>
      </trkpt>
      <trkpt lat="48.2492" lon="3.20552">
        <ele>149</ele>
        <time>2014-04-20T07:33:14.979Z</time>
      </trkpt>
      <trkpt lat="48.24919" lon="3.20545">
        <ele>150</ele>
        <time>2014-04-20T07:33:15.979Z</time>
      </trkpt>
      <trkpt lat="48.24917" lon="3.20541">
        <ele>150</ele>
        <time>2014-04-20T07:33:16.979Z</time>
      </trkpt>
      <trkpt lat="48.24917" lon="3.20535">
        <ele>150</ele>
        <time>2014-04-20T07:33:17.979Z</time>
      </trkpt>
      <trkpt lat="48.24916" lon="3.2053">
        <ele>151</ele>
        <time>2014-04-20T07:33:18.979Z</time>
      </trkpt>
      <trkpt lat="48.24915" lon="3.20524">
        <ele>151</ele>
        <time>2014-04-20T07:33:19.979Z</time>
      </trkpt>
      <trkpt lat="48.24915" lon="3.2052">
        <ele>151</ele>
        <time>2014-04-20T07:33:20.979Z</time>
      </trkpt>
      <trkpt lat="48.24913" lon="3.20515">
        <ele>151</ele>
        <time>2014-04-20T07:33:21.979Z</time>
      </trkpt>
      <trkpt lat="48.24911" lon="3.20511">
        <ele>150</ele>
        <time>2014-04-20T07:33:22.979Z</time>
      </trkpt>
      <trkpt lat="48.24909" lon="3.20507">
        <ele>150</ele>
        <time>2014-04-20T07:33:23.979Z</time>
      </trkpt>
      <trkpt lat="48.24906" lon="3.20503">
        <ele>150</ele>
        <time>2014-04-20T07:33:24.979Z</time>
      </trkpt>
      <trkpt lat="48.24903" lon="3.20498">
        <ele>151</ele>
        <time>2014-04-20T07:33:25.979Z</time>
      </trkpt>
      <trkpt lat="48.249" lon="3.20494">
        <ele>152</ele>
        <time>2014-04-20T07:33:26.979Z</time>
      </trkpt>
      <trkpt lat="48.24898" lon="3.2049">
        <ele>152</ele>
        <time>2014-04-20T07:33:27.979Z</time>
      </trkpt>
      <trkpt lat="48.24895" lon="3.20485">
        <ele>152</ele>
        <time>2014-04-20T07:33:28.979Z</time>
      </trkpt>
      <trkpt lat="48.24893" lon="3.20479">
        <ele>153</ele>
        <time>2014-04-20T07:33:29.979Z</time>
      </trkpt>
      <trkpt lat="48.24891" lon="3.20475">
        <ele>153</ele>
        <time>2014-04-20T07:33:30.979Z</time>
      </trkpt>
      <trkpt lat="48.24888" lon="3.2047">
        <ele>153</ele>
        <time>2014-04-20T07:33:31.979Z</time>
      </trkpt>
      <trkpt lat="48.24886" lon="3.20466">
        <ele>153</ele>
        <time>2014-04-20T07:33:32.979Z</time>
      </trkpt>
      <trkpt lat="48.24884" lon="3.2046">
        <ele>154</ele>
        <time>2014-04-20T07:33:33.979Z</time>
      </trkpt>
      <trkpt lat="48.24881" lon="3.20455">
        <ele>154</ele>
        <time>2014-04-20T07:33:34.979Z</time>
      </trkpt>
      <trkpt lat="48.24879" lon="3.20451">
        <ele>154</ele>
        <time>2014-04-20T07:33:35.979Z</time>
      </trkpt>
      <trkpt lat="48.24877" lon="3.20447">
        <ele>154</ele>
        <time>2014-04-20T07:33:36.979Z</time>
      </trkpt>
      <trkpt lat="48.24875" lon="3.2044">
        <ele>154</ele>
        <time>2014-04-20T07:33:37.979Z</time>
      </trkpt>
      <trkpt lat="48.24872" lon="3.20436">
        <ele>154</ele>
        <time>2014-04-20T07:33:38.979Z</time>
      </trkpt>
      <trkpt lat="48.2487" lon="3.20432">
        <ele>155</ele>
        <time>2014-04-20T07:33:39.979Z</time>
      </trkpt>
      <trkpt lat="48.24868" lon="3.20427">
        <ele>155</ele>
        <time>2014-04-20T07:33:40.979Z</time>
      </trkpt>
      <trkpt lat="48.24866" lon="3.20423">
        <ele>155</ele>
        <time>2014-04-20T07:33:41.979Z</time>
      </trkpt>
      <trkpt lat="48.24864" lon="3.20419">
        <ele>155</ele>
        <time>2014-04-20T07:33:42.979Z</time>
      </trkpt>
      <trkpt lat="48.24862" lon="3.20412">
        <ele>156</ele>
        <time>2014-04-20T07:33:43.979Z</time>
      </trkpt>
      <trkpt lat="48.24859" lon="3.20408">
        <ele>156</ele>
        <time>2014-04-20T07:33:44.979Z</time>
      </trkpt>
      <trkpt lat="48.24858" lon="3.20404">
        <ele>157</ele>
        <time>2014-04-20T07:33:45.979Z</time>
      </trkpt>
      <trkpt lat="48.24856" lon="3.20397">
        <ele>157</ele>
        <time>2014-04-20T07:33:46.979Z</time>
      </trkpt>
      <trkpt lat="48.24855" lon="3.20391">
        <ele>157</ele>
        <time>2014-04-20T07:33:47.979Z</time>
      </trkpt>
      <trkpt lat="48.24853" lon="3.20387">
        <ele>157</ele>
        <time>2014-04-20T07:33:48.979Z</time>
      </trkpt>
      <trkpt lat="48.24851" lon="3.2038">
        <ele>157</ele>
        <time>2014-04-20T07:33:49.979Z</time>
      </trkpt>
      <trkpt lat="48.2485" lon="3.20376">
        <ele>157</ele>
        <time>2014-04-20T07:33:50.979Z</time>
      </trkpt>
      <trkpt lat="48.24848" lon="3.20372">
        <ele>157</ele>
        <time>2014-04-20T07:33:51.979Z</time>
      </trkpt>
      <trkpt lat="48.24846" lon="3.20365">
        <ele>157</ele>
        <time>2014-04-20T07:33:52.979Z</time>
      </trkpt>
      <trkpt lat="48.24844" lon="3.20361">
        <ele>157</ele>
        <time>2014-04-20T07:33:53.979Z</time>
      </trkpt>
      <trkpt lat="48.24842" lon="3.20354">
        <ele>157</ele>
        <time>2014-04-20T07:33:54.979Z</time>
      </trkpt>
      <trkpt lat="48.2484" lon="3.2035">
        <ele>157</ele>
        <time>2014-04-20T07:33:55.979Z</time>
      </trkpt>
      <trkpt lat="48.24838" lon="3.20346">
        <ele>157</ele>
        <time>2014-04-20T07:33:56.979Z</time>
      </trkpt>
      <trkpt lat="48.24837" lon="3.20339">
        <ele>157</ele>
        <time>2014-04-20T07:33:57.979Z</time>
      </trkpt>
      <trkpt lat="48.24835" lon="3.20335">
        <ele>157</ele>
        <time>2014-04-20T07:33:58.979Z</time>
      </trkpt>
      <trkpt lat="48.24833" lon="3.20331">
        <ele>158</ele>
        <time>2014-04-20T07:33:59.979Z</time>
      </trkpt>
      <trkpt lat="48.24831" lon="3.20327">
        <ele>158</ele>
        <time>2014-04-20T07:34:00.979Z</time>
      </trkpt>
      <trkpt lat="48.24828" lon="3.20322">
        <ele>159</ele>
        <time>2014-04-20T07:34:01.979Z</time>
      </trkpt>
      <trkpt lat="48.24826" lon="3.20316">
        <ele>160</ele>
        <time>2014-04-20T07:34:02.979Z</time>
      </trkpt>
      <trkpt lat="48.24824" lon="3.20312">
        <ele>160</ele>
        <time>2014-04-20T07:34:03.979Z</time>
      </trkpt>
      <trkpt lat="48.24823" lon="3.20307">
        <ele>160</ele>
        <time>2014-04-20T07:34:04.979Z</time>
      </trkpt>
      <trkpt lat="48.24821" lon="3.20303">
        <ele>161</ele>
        <time>2014-04-20T07:34:05.979Z</time>
      </trkpt>
      <trkpt lat="48.24819" lon="3.20297">
        <ele>161</ele>
        <time>2014-04-20T07:34:06.979Z</time>
      </trkpt>
      <trkpt lat="48.24818" lon="3.2029">
        <ele>161</ele>
        <time>2014-04-20T07:34:07.979Z</time>
      </trkpt>
      <trkpt lat="48.24816" lon="3.20286">
        <ele>161</ele>
        <time>2014-04-20T07:34:08.979Z</time>
      </trkpt>
      <trkpt lat="48.24813" lon="3.20279">
        <ele>161</ele>
        <time>2014-04-20T07:34:09.979Z</time>
      </trkpt>
      <trkpt lat="48.24812" lon="3.20275">
        <ele>161</ele>
        <time>2014-04-20T07:34:10.979Z</time>
      </trkpt>
      <trkpt lat="48.2481" lon="3.20269">
        <ele>161</ele>
        <time>2014-04-20T07:34:11.979Z</time>
      </trkpt>
      <trkpt lat="48.24808" lon="3.20262">
        <ele>162</ele>
        <time>2014-04-20T07:34:12.979Z</time>
      </trkpt>
      <trkpt lat="48.24807" lon="3.20256">
        <ele>162</ele>
        <time>2014-04-20T07:34:13.979Z</time>
      </trkpt>
      <trkpt lat="48.24805" lon="3.20251">
        <ele>162</ele>
        <time>2014-04-20T07:34:14.979Z</time>
      </trkpt>
      <trkpt lat="48.24803" lon="3.20245">
        <ele>163</ele>
        <time>2014-04-20T07:34:15.979Z</time>
      </trkpt>
      <trkpt lat="48.24802" lon="3.20239">
        <ele>163</ele>
        <time>2014-04-20T07:34:16.979Z</time>
      </trkpt>
      <trkpt lat="48.24799" lon="3.20232">
        <ele>163</ele>
        <time>2014-04-20T07:34:17.979Z</time>
      </trkpt>
      <trkpt lat="48.24798" lon="3.20228">
        <ele>163</ele>
        <time>2014-04-20T07:34:18.979Z</time>
      </trkpt>
      <trkpt lat="48.24796" lon="3.20221">
        <ele>163</ele>
        <time>2014-04-20T07:34:19.979Z</time>
      </trkpt>
      <trkpt lat="48.24794" lon="3.20215">
        <ele>164</ele>
        <time>2014-04-20T07:34:20.979Z</time>
      </trkpt>
      <trkpt lat="48.24793" lon="3.20211">
        <ele>164</ele>
        <time>2014-04-20T07:34:21.979Z</time>
      </trkpt>
      <trkpt lat="48.24791" lon="3.20204">
        <ele>164</ele>
        <time>2014-04-20T07:34:22.979Z</time>
      </trkpt>
      <trkpt lat="48.2479" lon="3.20198">
        <ele>164</ele>
        <time>2014-04-20T07:34:23.979Z</time>
      </trkpt>
      <trkpt lat="48.24788" lon="3.20194">
        <ele>164</ele>
        <time>2014-04-20T07:34:24.979Z</time>
      </trkpt>
      <trkpt lat="48.24787" lon="3.20187">
        <ele>164</ele>
        <time>2014-04-20T07:34:25.979Z</time>
      </trkpt>
      <trkpt lat="48.24784" lon="3.20183">
        <ele>164</ele>
        <time>2014-04-20T07:34:26.979Z</time>
      </trkpt>
      <trkpt lat="48.24783" lon="3.20176">
        <ele>164</ele>
        <time>2014-04-20T07:34:27.979Z</time>
      </trkpt>
      <trkpt lat="48.24782" lon="3.20172">
        <ele>164</ele>
        <time>2014-04-20T07:34:28.979Z</time>
      </trkpt>
      <trkpt lat="48.24781" lon="3.20168">
        <ele>164</ele>
        <time>2014-04-20T07:34:29.979Z</time>
      </trkpt>
      <trkpt lat="48.2478" lon="3.20166">
        <ele>166</ele>
        <time>2014-04-20T07:34:30.979Z</time>
      </trkpt>
      <trkpt lat="48.24779" lon="3.20161">
        <ele>166</ele>
        <time>2014-04-20T07:34:31.979Z</time>
      </trkpt>
      <trkpt lat="48.24778" lon="3.20157">
        <ele>166</ele>
        <time>2014-04-20T07:34:32.979Z</time>
      </trkpt>
      <trkpt lat="48.24777" lon="3.20153">
        <ele>166</ele>
        <time>2014-04-20T07:34:33.979Z</time>
      </trkpt>
      <trkpt lat="48.24776" lon="3.20146">
        <ele>166</ele>
        <time>2014-04-20T07:34:34.979Z</time>
      </trkpt>
      <trkpt lat="48.24775" lon="3.20142">
        <ele>166</ele>
        <time>2014-04-20T07:34:35.979Z</time>
      </trkpt>
      <trkpt lat="48.24774" lon="3.20138">
        <ele>166</ele>
        <time>2014-04-20T07:34:36.979Z</time>
      </trkpt>
      <trkpt lat="48.24772" lon="3.20136">
        <ele>166</ele>
        <time>2014-04-20T07:34:37.979Z</time>
      </trkpt>
      <trkpt lat="48.2477" lon="3.20131">
        <ele>166</ele>
        <time>2014-04-20T07:34:38.979Z</time>
      </trkpt>
      <trkpt lat="48.24768" lon="3.20127">
        <ele>166</ele>
        <time>2014-04-20T07:34:39.979Z</time>
      </trkpt>
      <trkpt lat="48.24767" lon="3.20123">
        <ele>166</ele>
        <time>2014-04-20T07:34:40.979Z</time>
      </trkpt>
      <trkpt lat="48.24767" lon="3.20118">
        <ele>166</ele>
        <time>2014-04-20T07:34:41.979Z</time>
      </trkpt>
      <trkpt lat="48.24766" lon="3.20114">
        <ele>166</ele>
        <time>2014-04-20T07:34:42.979Z</time>
      </trkpt>
      <trkpt lat="48.24765" lon="3.2011">
        <ele>166</ele>
        <time>2014-04-20T07:34:43.979Z</time>
      </trkpt>
      <trkpt lat="48.24765" lon="3.20106">
        <ele>166</ele>
        <time>2014-04-20T07:34:44.979Z</time>
      </trkpt>
      <trkpt lat="48.24764" lon="3.20101">
        <ele>166</ele>
        <time>2014-04-20T07:34:45.979Z</time>
      </trkpt>
      <trkpt lat="48.24763" lon="3.20095">
        <ele>166</ele>
        <time>2014-04-20T07:34:46.979Z</time>
      </trkpt>
      <trkpt lat="48.24762" lon="3.20093">
        <ele>166</ele>
        <time>2014-04-20T07:34:47.979Z</time>
      </trkpt>
      <trkpt lat="48.24761" lon="3.20088">
        <ele>166</ele>
        <time>2014-04-20T07:34:48.979Z</time>
      </trkpt>
      <trkpt lat="48.24761" lon="3.20084">
        <ele>166</ele>
        <time>2014-04-20T07:34:49.979Z</time>
      </trkpt>
      <trkpt lat="48.2476" lon="3.2008">
        <ele>167</ele>
        <time>2014-04-20T07:34:50.979Z</time>
      </trkpt>
      <trkpt lat="48.2476" lon="3.20076">
        <ele>167</ele>
        <time>2014-04-20T07:34:51.979Z</time>
      </trkpt>
      <trkpt lat="48.2476" lon="3.20071">
        <ele>167</ele>
        <time>2014-04-20T07:34:52.979Z</time>
      </trkpt>
      <trkpt lat="48.2476" lon="3.20067">
        <ele>167</ele>
        <time>2014-04-20T07:34:53.979Z</time>
      </trkpt>
      <trkpt lat="48.24761" lon="3.20063">
        <ele>167</ele>
        <time>2014-04-20T07:34:54.979Z</time>
      </trkpt>
      <trkpt lat="48.24763" lon="3.20058">
        <ele>167</ele>
        <time>2014-04-20T07:34:57.979Z</time>
      </trkpt>
      <trkpt lat="48.24768" lon="3.20056">
        <ele>168</ele>
        <time>2014-04-20T07:34:58.979Z</time>
      </trkpt>
      <trkpt lat="48.24768" lon="3.20056">
        <ele>168</ele>
        <time>2014-04-20T07:34:59.979Z</time>
      </trkpt>
      <trkpt lat="48.24774" lon="3.20056">
        <ele>168</ele>
        <time>2014-04-20T07:35:00.979Z</time>
      </trkpt>
      <trkpt lat="48.24778" lon="3.20056">
        <ele>168</ele>
        <time>2014-04-20T07:35:02.979Z</time>
      </trkpt>
      <trkpt lat="48.2478" lon="3.20058">
        <ele>168</ele>
        <time>2014-04-20T07:35:03.979Z</time>
      </trkpt>
      <trkpt lat="48.24782" lon="3.20058">
        <ele>168</ele>
        <time>2014-04-20T07:35:04.979Z</time>
      </trkpt>
      <trkpt lat="48.24785" lon="3.20058">
        <ele>168</ele>
        <time>2014-04-20T07:35:05.979Z</time>
      </trkpt>
      <trkpt lat="48.2479" lon="3.20058">
        <ele>168</ele>
        <time>2014-04-20T07:35:07.979Z</time>
      </trkpt>
      <trkpt lat="48.24793" lon="3.20058">
        <ele>168</ele>
        <time>2014-04-20T07:35:08.979Z</time>
      </trkpt>
      <trkpt lat="48.24797" lon="3.20058">
        <ele>168</ele>
        <time>2014-04-20T07:35:10.979Z</time>
      </trkpt>
      <trkpt lat="48.24799" lon="3.20058">
        <ele>168</ele>
        <time>2014-04-20T07:35:11.979Z</time>
      </trkpt>
      <trkpt lat="48.24803" lon="3.20056">
        <ele>168</ele>
        <time>2014-04-20T07:35:12.979Z</time>
      </trkpt>
      <trkpt lat="48.24806" lon="3.20056">
        <ele>168</ele>
        <time>2014-04-20T07:35:13.979Z</time>
      </trkpt>
      <trkpt lat="48.24808" lon="3.20054">
        <ele>168</ele>
        <time>2014-04-20T07:35:14.979Z</time>
      </trkpt>
      <trkpt lat="48.24811" lon="3.20054">
        <ele>168</ele>
        <time>2014-04-20T07:35:15.979Z</time>
      </trkpt>
      <trkpt lat="48.24813" lon="3.20052">
        <ele>168</ele>
        <time>2014-04-20T07:35:16.979Z</time>
      </trkpt>
      <trkpt lat="48.24817" lon="3.20052">
        <ele>168</ele>
        <time>2014-04-20T07:35:17.979Z</time>
      </trkpt>
      <trkpt lat="48.24819" lon="3.2005">
        <ele>169</ele>
        <time>2014-04-20T07:35:18.979Z</time>
      </trkpt>
      <trkpt lat="48.24822" lon="3.2005">
        <ele>169</ele>
        <time>2014-04-20T07:35:19.979Z</time>
      </trkpt>
      <trkpt lat="48.24824" lon="3.2005">
        <ele>169</ele>
        <time>2014-04-20T07:35:20.979Z</time>
      </trkpt>
      <trkpt lat="48.24827" lon="3.2005">
        <ele>169</ele>
        <time>2014-04-20T07:35:21.979Z</time>
      </trkpt>
      <trkpt lat="48.24829" lon="3.20052">
        <ele>169</ele>
        <time>2014-04-20T07:35:22.979Z</time>
      </trkpt>
      <trkpt lat="48.24832" lon="3.20054">
        <ele>169</ele>
        <time>2014-04-20T07:35:23.979Z</time>
      </trkpt>
      <trkpt lat="48.24835" lon="3.20056">
        <ele>170</ele>
        <time>2014-04-20T07:35:24.979Z</time>
      </trkpt>
      <trkpt lat="48.24837" lon="3.2006">
        <ele>170</ele>
        <time>2014-04-20T07:35:25.979Z</time>
      </trkpt>
      <trkpt lat="48.24839" lon="3.20063">
        <ele>170</ele>
        <time>2014-04-20T07:35:26.979Z</time>
      </trkpt>
      <trkpt lat="48.24842" lon="3.20065">
        <ele>170</ele>
        <time>2014-04-20T07:35:27.979Z</time>
      </trkpt>
      <trkpt lat="48.24844" lon="3.20069">
        <ele>170</ele>
        <time>2014-04-20T07:35:28.979Z</time>
      </trkpt>
      <trkpt lat="48.24847" lon="3.20071">
        <ele>170</ele>
        <time>2014-04-20T07:35:29.979Z</time>
      </trkpt>
      <trkpt lat="48.2485" lon="3.20076">
        <ele>170</ele>
        <time>2014-04-20T07:35:30.979Z</time>
      </trkpt>
      <trkpt lat="48.24852" lon="3.20078">
        <ele>170</ele>
        <time>2014-04-20T07:35:31.979Z</time>
      </trkpt>
      <trkpt lat="48.24855" lon="3.20082">
        <ele>170</ele>
        <time>2014-04-20T07:35:32.979Z</time>
      </trkpt>
      <trkpt lat="48.24858" lon="3.20086">
        <ele>168</ele>
        <time>2014-04-20T07:35:33.979Z</time>
      </trkpt>
      <trkpt lat="48.24861" lon="3.20088">
        <ele>168</ele>
        <time>2014-04-20T07:35:34.979Z</time>
      </trkpt>
      <trkpt lat="48.24864" lon="3.20093">
        <ele>168</ele>
        <time>2014-04-20T07:35:35.979Z</time>
      </trkpt>
      <trkpt lat="48.24866" lon="3.20095">
        <ele>168</ele>
        <time>2014-04-20T07:35:36.979Z</time>
      </trkpt>
      <trkpt lat="48.24869" lon="3.20097">
        <ele>168</ele>
        <time>2014-04-20T07:35:37.979Z</time>
      </trkpt>
      <trkpt lat="48.24872" lon="3.20101">
        <ele>168</ele>
        <time>2014-04-20T07:35:38.979Z</time>
      </trkpt>
      <trkpt lat="48.24875" lon="3.20103">
        <ele>168</ele>
        <time>2014-04-20T07:35:39.979Z</time>
      </trkpt>
      <trkpt lat="48.24878" lon="3.20108">
        <ele>168</ele>
        <time>2014-04-20T07:35:40.979Z</time>
      </trkpt>
      <trkpt lat="48.24881" lon="3.2011">
        <ele>168</ele>
        <time>2014-04-20T07:35:41.979Z</time>
      </trkpt>
      <trkpt lat="48.24884" lon="3.20112">
        <ele>168</ele>
        <time>2014-04-20T07:35:42.979Z</time>
      </trkpt>
      <trkpt lat="48.24887" lon="3.20116">
        <ele>168</ele>
        <time>2014-04-20T07:35:43.979Z</time>
      </trkpt>
      <trkpt lat="48.24891" lon="3.20118">
        <ele>168</ele>
        <time>2014-04-20T07:35:44.979Z</time>
      </trkpt>
      <trkpt lat="48.24894" lon="3.20121">
        <ele>168</ele>
        <time>2014-04-20T07:35:45.979Z</time>
      </trkpt>
      <trkpt lat="48.24897" lon="3.20123">
        <ele>168</ele>
        <time>2014-04-20T07:35:46.979Z</time>
      </trkpt>
      <trkpt lat="48.24901" lon="3.20125">
        <ele>168</ele>
        <time>2014-04-20T07:35:47.979Z</time>
      </trkpt>
      <trkpt lat="48.24905" lon="3.20127">
        <ele>168</ele>
        <time>2014-04-20T07:35:48.979Z</time>
      </trkpt>
      <trkpt lat="48.24908" lon="3.20129">
        <ele>168</ele>
        <time>2014-04-20T07:35:49.979Z</time>
      </trkpt>
      <trkpt lat="48.24911" lon="3.20131">
        <ele>168</ele>
        <time>2014-04-20T07:35:50.979Z</time>
      </trkpt>
      <trkpt lat="48.24915" lon="3.20133">
        <ele>168</ele>
        <time>2014-04-20T07:35:51.979Z</time>
      </trkpt>
      <trkpt lat="48.24919" lon="3.20136">
        <ele>170</ele>
        <time>2014-04-20T07:35:52.979Z</time>
      </trkpt>
      <trkpt lat="48.24922" lon="3.20136">
        <ele>170</ele>
        <time>2014-04-20T07:35:53.979Z</time>
      </trkpt>
      <trkpt lat="48.24925" lon="3.20138">
        <ele>170</ele>
        <time>2014-04-20T07:35:54.979Z</time>
      </trkpt>
      <trkpt lat="48.24928" lon="3.2014">
        <ele>170</ele>
        <time>2014-04-20T07:35:55.979Z</time>
      </trkpt>
      <trkpt lat="48.24931" lon="3.20142">
        <ele>170</ele>
        <time>2014-04-20T07:35:56.979Z</time>
      </trkpt>
      <trkpt lat="48.24935" lon="3.20142">
        <ele>170</ele>
        <time>2014-04-20T07:35:57.979Z</time>
      </trkpt>
      <trkpt lat="48.24939" lon="3.20144">
        <ele>170</ele>
        <time>2014-04-20T07:35:58.979Z</time>
      </trkpt>
      <trkpt lat="48.24942" lon="3.20146">
        <ele>171</ele>
        <time>2014-04-20T07:35:59.979Z</time>
      </trkpt>
      <trkpt lat="48.24945" lon="3.20148">
        <ele>171</ele>
        <time>2014-04-20T07:36:00.979Z</time>
      </trkpt>
      <trkpt lat="48.24949" lon="3.20148">
        <ele>171</ele>
        <time>2014-04-20T07:36:01.979Z</time>
      </trkpt>
      <trkpt lat="48.24952" lon="3.20151">
        <ele>171</ele>
        <time>2014-04-20T07:36:02.979Z</time>
      </trkpt>
      <trkpt lat="48.24955" lon="3.20151">
        <ele>171</ele>
        <time>2014-04-20T07:36:03.979Z</time>
      </trkpt>
      <trkpt lat="48.24959" lon="3.20153">
        <ele>171</ele>
        <time>2014-04-20T07:36:04.979Z</time>
      </trkpt>
      <trkpt lat="48.24962" lon="3.20153">
        <ele>171</ele>
        <time>2014-04-20T07:36:05.979Z</time>
      </trkpt>
      <trkpt lat="48.24967" lon="3.20155">
        <ele>171</ele>
        <time>2014-04-20T07:36:06.979Z</time>
      </trkpt>
      <trkpt lat="48.24971" lon="3.20155">
        <ele>171</ele>
        <time>2014-04-20T07:36:07.979Z</time>
      </trkpt>
      <trkpt lat="48.24975" lon="3.20157">
        <ele>172</ele>
        <time>2014-04-20T07:36:08.979Z</time>
      </trkpt>
      <trkpt lat="48.24979" lon="3.20157">
        <ele>172</ele>
        <time>2014-04-20T07:36:09.979Z</time>
      </trkpt>
      <trkpt lat="48.24983" lon="3.20159">
        <ele>172</ele>
        <time>2014-04-20T07:36:10.979Z</time>
      </trkpt>
      <trkpt lat="48.24987" lon="3.20159">
        <ele>172</ele>
        <time>2014-04-20T07:36:11.979Z</time>
      </trkpt>
      <trkpt lat="48.2499" lon="3.20161">
        <ele>172</ele>
        <time>2014-04-20T07:36:12.979Z</time>
      </trkpt>
      <trkpt lat="48.24995" lon="3.20163">
        <ele>173</ele>
        <time>2014-04-20T07:36:13.979Z</time>
      </trkpt>
      <trkpt lat="48.24999" lon="3.20163">
        <ele>173</ele>
        <time>2014-04-20T07:36:14.979Z</time>
      </trkpt>
      <trkpt lat="48.25002" lon="3.20166">
        <ele>173</ele>
        <time>2014-04-20T07:36:15.979Z</time>
      </trkpt>
      <trkpt lat="48.25006" lon="3.20166">
        <ele>173</ele>
        <time>2014-04-20T07:36:16.979Z</time>
      </trkpt>
      <trkpt lat="48.2501" lon="3.20168">
        <ele>173</ele>
        <time>2014-04-20T07:36:17.979Z</time>
      </trkpt>
      <trkpt lat="48.25014" lon="3.20168">
        <ele>173</ele>
        <time>2014-04-20T07:36:18.979Z</time>
      </trkpt>
      <trkpt lat="48.25017" lon="3.2017">
        <ele>173</ele>
        <time>2014-04-20T07:36:19.979Z</time>
      </trkpt>
      <trkpt lat="48.2502" lon="3.2017">
        <ele>173</ele>
        <time>2014-04-20T07:36:20.979Z</time>
      </trkpt>
      <trkpt lat="48.25025" lon="3.2017">
        <ele>174</ele>
        <time>2014-04-20T07:36:21.979Z</time>
      </trkpt>
      <trkpt lat="48.25028" lon="3.20172">
        <ele>174</ele>
        <time>2014-04-20T07:36:22.979Z</time>
      </trkpt>
      <trkpt lat="48.25032" lon="3.20174">
        <ele>174</ele>
        <time>2014-04-20T07:36:23.979Z</time>
      </trkpt>
      <trkpt lat="48.25035" lon="3.20174">
        <ele>174</ele>
        <time>2014-04-20T07:36:24.979Z</time>
      </trkpt>
      <trkpt lat="48.25039" lon="3.20174">
        <ele>174</ele>
        <time>2014-04-20T07:36:25.979Z</time>
      </trkpt>
      <trkpt lat="48.25043" lon="3.20176">
        <ele>174</ele>
        <time>2014-04-20T07:36:26.979Z</time>
      </trkpt>
      <trkpt lat="48.25046" lon="3.20176">
        <ele>174</ele>
        <time>2014-04-20T07:36:27.979Z</time>
      </trkpt>
      <trkpt lat="48.2505" lon="3.20179">
        <ele>174</ele>
        <time>2014-04-20T07:36:28.979Z</time>
      </trkpt>
      <trkpt lat="48.25054" lon="3.20179">
        <ele>174</ele>
        <time>2014-04-20T07:36:29.979Z</time>
      </trkpt>
      <trkpt lat="48.25057" lon="3.20181">
        <ele>175</ele>
        <time>2014-04-20T07:36:30.979Z</time>
      </trkpt>
      <trkpt lat="48.25061" lon="3.20183">
        <ele>175</ele>
        <time>2014-04-20T07:36:31.979Z</time>
      </trkpt>
      <trkpt lat="48.25064" lon="3.20185">
        <ele>175</ele>
        <time>2014-04-20T07:36:32.979Z</time>
      </trkpt>
      <trkpt lat="48.25068" lon="3.20187">
        <ele>175</ele>
        <time>2014-04-20T07:36:33.979Z</time>
      </trkpt>
      <trkpt lat="48.25071" lon="3.20187">
        <ele>175</ele>
        <time>2014-04-20T07:36:34.979Z</time>
      </trkpt>
      <trkpt lat="48.25074" lon="3.20189">
        <ele>175</ele>
        <time>2014-04-20T07:36:35.979Z</time>
      </trkpt>
      <trkpt lat="48.25077" lon="3.20191">
        <ele>175</ele>
        <time>2014-04-20T07:36:36.979Z</time>
      </trkpt>
      <trkpt lat="48.25081" lon="3.20194">
        <ele>175</ele>
        <time>2014-04-20T07:36:37.979Z</time>
      </trkpt>
      <trkpt lat="48.25084" lon="3.20196">
        <ele>177</ele>
        <time>2014-04-20T07:36:38.979Z</time>
      </trkpt>
      <trkpt lat="48.25087" lon="3.20196">
        <ele>177</ele>
        <time>2014-04-20T07:36:39.979Z</time>
      </trkpt>
      <trkpt lat="48.25089" lon="3.20198">
        <ele>177</ele>
        <time>2014-04-20T07:36:40.979Z</time>
      </trkpt>
      <trkpt lat="48.25092" lon="3.202">
        <ele>177</ele>
        <time>2014-04-20T07:36:41.979Z</time>
      </trkpt>
      <trkpt lat="48.25096" lon="3.202">
        <ele>177</ele>
        <time>2014-04-20T07:36:42.979Z</time>
      </trkpt>
      <trkpt lat="48.25098" lon="3.20202">
        <ele>177</ele>
        <time>2014-04-20T07:36:43.979Z</time>
      </trkpt>
      <trkpt lat="48.25101" lon="3.20202">
        <ele>177</ele>
        <time>2014-04-20T07:36:44.979Z</time>
      </trkpt>
      <trkpt lat="48.25104" lon="3.20204">
        <ele>177</ele>
        <time>2014-04-20T07:36:45.979Z</time>
      </trkpt>
      <trkpt lat="48.25107" lon="3.20204">
        <ele>177</ele>
        <time>2014-04-20T07:36:46.979Z</time>
      </trkpt>
      <trkpt lat="48.25109" lon="3.20206">
        <ele>177</ele>
        <time>2014-04-20T07:36:47.979Z</time>
      </trkpt>
      <trkpt lat="48.25113" lon="3.20209">
        <ele>177</ele>
        <time>2014-04-20T07:36:48.979Z</time>
      </trkpt>
      <trkpt lat="48.25116" lon="3.20209">
        <ele>177</ele>
        <time>2014-04-20T07:36:49.979Z</time>
      </trkpt>
      <trkpt lat="48.25119" lon="3.20211">
        <ele>177</ele>
        <time>2014-04-20T07:36:50.979Z</time>
      </trkpt>
      <trkpt lat="48.25122" lon="3.20213">
        <ele>177</ele>
        <time>2014-04-20T07:36:51.979Z</time>
      </trkpt>
      <trkpt lat="48.25126" lon="3.20215">
        <ele>177</ele>
        <time>2014-04-20T07:36:52.979Z</time>
      </trkpt>
      <trkpt lat="48.25129" lon="3.20217">
        <ele>177</ele>
        <time>2014-04-20T07:36:53.979Z</time>
      </trkpt>
      <trkpt lat="48.25132" lon="3.20219">
        <ele>177</ele>
        <time>2014-04-20T07:36:54.979Z</time>
      </trkpt>
      <trkpt lat="48.25135" lon="3.20221">
        <ele>177</ele>
        <time>2014-04-20T07:36:55.979Z</time>
      </trkpt>
      <trkpt lat="48.2514" lon="3.20221">
        <ele>177</ele>
        <time>2014-04-20T07:36:56.979Z</time>
      </trkpt>
      <trkpt lat="48.25143" lon="3.20224">
        <ele>177</ele>
        <time>2014-04-20T07:36:57.979Z</time>
      </trkpt>
      <trkpt lat="48.25146" lon="3.20226">
        <ele>177</ele>
        <time>2014-04-20T07:36:58.979Z</time>
      </trkpt>
      <trkpt lat="48.25149" lon="3.20228">
        <ele>177</ele>
        <time>2014-04-20T07:36:59.979Z</time>
      </trkpt>
      <trkpt lat="48.25152" lon="3.2023">
        <ele>177</ele>
        <time>2014-04-20T07:37:00.979Z</time>
      </trkpt>
      <trkpt lat="48.25156" lon="3.2023">
        <ele>177</ele>
        <time>2014-04-20T07:37:01.979Z</time>
      </trkpt>
      <trkpt lat="48.25158" lon="3.20232">
        <ele>177</ele>
        <time>2014-04-20T07:37:02.979Z</time>
      </trkpt>
      <trkpt lat="48.2516" lon="3.20234">
        <ele>177</ele>
        <time>2014-04-20T07:37:03.979Z</time>
      </trkpt>
      <trkpt lat="48.25162" lon="3.20234">
        <ele>177</ele>
        <time>2014-04-20T07:38:28.979Z</time>
      </trkpt>
      <trkpt lat="48.25167" lon="3.20239">
        <ele>179</ele>
        <time>2014-04-20T07:38:29.979Z</time>
      </trkpt>
      <trkpt lat="48.2517" lon="3.20239">
        <ele>179</ele>
        <time>2014-04-20T07:38:30.979Z</time>
      </trkpt>
      <trkpt lat="48.25173" lon="3.20239">
        <ele>179</ele>
        <time>2014-04-20T07:38:31.979Z</time>
      </trkpt>
      <trkpt lat="48.25175" lon="3.20241">
        <ele>179</ele>
        <time>2014-04-20T07:38:32.979Z</time>
      </trkpt>
      <trkpt lat="48.25178" lon="3.20241">
        <ele>179</ele>
        <time>2014-04-20T07:38:33.979Z</time>
      </trkpt>
      <trkpt lat="48.25181" lon="3.20243">
        <ele>179</ele>
        <time>2014-04-20T07:38:34.979Z</time>
      </trkpt>
      <trkpt lat="48.25185" lon="3.20245">
        <ele>180</ele>
        <time>2014-04-20T07:38:35.979Z</time>
      </trkpt>
      <trkpt lat="48.25188" lon="3.20245">
        <ele>180</ele>
        <time>2014-04-20T07:38:36.979Z</time>
      </trkpt>
      <trkpt lat="48.2519" lon="3.20247">
        <ele>180</ele>
        <time>2014-04-20T07:38:37.979Z</time>
      </trkpt>
      <trkpt lat="48.25193" lon="3.20249">
        <ele>180</ele>
        <time>2014-04-20T07:38:38.979Z</time>
      </trkpt>
      <trkpt lat="48.25196" lon="3.20249">
        <ele>181</ele>
        <time>2014-04-20T07:38:39.979Z</time>
      </trkpt>
      <trkpt lat="48.25201" lon="3.20251">
        <ele>178</ele>
        <time>2014-04-20T07:38:40.979Z</time>
      </trkpt>
      <trkpt lat="48.25204" lon="3.20254">
        <ele>178</ele>
        <time>2014-04-20T07:38:41.979Z</time>
      </trkpt>
      <trkpt lat="48.25207" lon="3.20256">
        <ele>179</ele>
        <time>2014-04-20T07:38:42.979Z</time>
      </trkpt>
      <trkpt lat="48.25211" lon="3.20258">
        <ele>179</ele>
        <time>2014-04-20T07:38:43.979Z</time>
      </trkpt>
      <trkpt lat="48.25215" lon="3.2026">
        <ele>179</ele>
        <time>2014-04-20T07:38:44.979Z</time>
      </trkpt>
      <trkpt lat="48.25219" lon="3.20262">
        <ele>179</ele>
        <time>2014-04-20T07:38:45.979Z</time>
      </trkpt>
      <trkpt lat="48.25223" lon="3.20264">
        <ele>180</ele>
        <time>2014-04-20T07:38:46.979Z</time>
      </trkpt>
      <trkpt lat="48.25227" lon="3.20266">
        <ele>180</ele>
        <time>2014-04-20T07:38:47.979Z</time>
      </trkpt>
      <trkpt lat="48.25231" lon="3.20269">
        <ele>180</ele>
        <time>2014-04-20T07:38:48.979Z</time>
      </trkpt>
      <trkpt lat="48.25235" lon="3.20271">
        <ele>180</ele>
        <time>2014-04-20T07:38:49.979Z</time>
      </trkpt>
      <trkpt lat="48.25239" lon="3.20273">
        <ele>180</ele>
        <time>2014-04-20T07:38:50.979Z</time>
      </trkpt>
      <trkpt lat="48.25244" lon="3.20275">
        <ele>180</ele>
        <time>2014-04-20T07:38:51.979Z</time>
      </trkpt>
      <trkpt lat="48.25248" lon="3.20277">
        <ele>180</ele>
        <time>2014-04-20T07:38:52.979Z</time>
      </trkpt>
      <trkpt lat="48.25252" lon="3.20282">
        <ele>182</ele>
        <time>2014-04-20T07:38:53.979Z</time>
      </trkpt>
      <trkpt lat="48.25256" lon="3.20284">
        <ele>182</ele>
        <time>2014-04-20T07:38:54.979Z</time>
      </trkpt>
      <trkpt lat="48.25261" lon="3.20286">
        <ele>182</ele>
        <time>2014-04-20T07:38:55.979Z</time>
      </trkpt>
      <trkpt lat="48.25265" lon="3.20288">
        <ele>182</ele>
        <time>2014-04-20T07:38:56.979Z</time>
      </trkpt>
      <trkpt lat="48.25268" lon="3.2029">
        <ele>182</ele>
        <time>2014-04-20T07:38:57.979Z</time>
      </trkpt>
      <trkpt lat="48.25273" lon="3.20292">
        <ele>182</ele>
        <time>2014-04-20T07:38:58.979Z</time>
      </trkpt>
      <trkpt lat="48.25277" lon="3.20294">
        <ele>182</ele>
        <time>2014-04-20T07:38:59.979Z</time>
      </trkpt>
      <trkpt lat="48.25281" lon="3.20294">
        <ele>182</ele>
        <time>2014-04-20T07:39:00.979Z</time>
      </trkpt>
      <trkpt lat="48.25284" lon="3.20297">
        <ele>182</ele>
        <time>2014-04-20T07:39:01.979Z</time>
      </trkpt>
      <trkpt lat="48.25289" lon="3.20297">
        <ele>182</ele>
        <time>2014-04-20T07:39:02.979Z</time>
      </trkpt>
      <trkpt lat="48.25292" lon="3.20299">
        <ele>182</ele>
        <time>2014-04-20T07:39:03.979Z</time>
      </trkpt>
      <trkpt lat="48.25295" lon="3.20299">
        <ele>182</ele>
        <time>2014-04-20T07:39:04.979Z</time>
      </trkpt>
      <trkpt lat="48.25298" lon="3.20299">
        <ele>182</ele>
        <time>2014-04-20T07:39:05.979Z</time>
      </trkpt>
      <trkpt lat="48.25302" lon="3.20301">
        <ele>182</ele>
        <time>2014-04-20T07:39:06.979Z</time>
      </trkpt>
      <trkpt lat="48.25304" lon="3.20299">
        <ele>182</ele>
        <time>2014-04-20T07:39:07.979Z</time>
      </trkpt>
      <trkpt lat="48.25307" lon="3.20297">
        <ele>182</ele>
        <time>2014-04-20T07:39:08.979Z</time>
      </trkpt>
      <trkpt lat="48.25309" lon="3.20297">
        <ele>182</ele>
        <time>2014-04-20T07:39:09.979Z</time>
      </trkpt>
      <trkpt lat="48.25311" lon="3.20292">
        <ele>183</ele>
        <time>2014-04-20T07:39:10.979Z</time>
      </trkpt>
      <trkpt lat="48.25313" lon="3.2029">
        <ele>183</ele>
        <time>2014-04-20T07:39:11.979Z</time>
      </trkpt>
      <trkpt lat="48.25317" lon="3.20288">
        <ele>183</ele>
        <time>2014-04-20T07:39:12.979Z</time>
      </trkpt>
      <trkpt lat="48.25319" lon="3.20284">
        <ele>183</ele>
        <time>2014-04-20T07:39:13.979Z</time>
      </trkpt>
      <trkpt lat="48.2532" lon="3.20279">
        <ele>183</ele>
        <time>2014-04-20T07:39:14.979Z</time>
      </trkpt>
      <trkpt lat="48.25322" lon="3.20275">
        <ele>184</ele>
        <time>2014-04-20T07:39:15.979Z</time>
      </trkpt>
      <trkpt lat="48.25324" lon="3.20273">
        <ele>184</ele>
        <time>2014-04-20T07:39:16.979Z</time>
      </trkpt>
      <trkpt lat="48.25326" lon="3.20269">
        <ele>184</ele>
        <time>2014-04-20T07:39:17.979Z</time>
      </trkpt>
      <trkpt lat="48.25328" lon="3.20264">
        <ele>184</ele>
        <time>2014-04-20T07:39:18.979Z</time>
      </trkpt>
      <trkpt lat="48.2533" lon="3.20262">
        <ele>185</ele>
        <time>2014-04-20T07:39:19.979Z</time>
      </trkpt>
      <trkpt lat="48.25333" lon="3.20258">
        <ele>185</ele>
        <time>2014-04-20T07:39:20.979Z</time>
      </trkpt>
      <trkpt lat="48.25336" lon="3.20256">
        <ele>186</ele>
        <time>2014-04-20T07:39:21.979Z</time>
      </trkpt>
      <trkpt lat="48.25338" lon="3.20251">
        <ele>186</ele>
        <time>2014-04-20T07:39:22.979Z</time>
      </trkpt>
      <trkpt lat="48.2534" lon="3.20249">
        <ele>186</ele>
        <time>2014-04-20T07:39:23.979Z</time>
      </trkpt>
      <trkpt lat="48.25342" lon="3.20245">
        <ele>187</ele>
        <time>2014-04-20T07:39:24.979Z</time>
      </trkpt>
      <trkpt lat="48.25344" lon="3.20243">
        <ele>187</ele>
        <time>2014-04-20T07:39:25.979Z</time>
      </trkpt>
      <trkpt lat="48.25347" lon="3.20239">
        <ele>187</ele>
        <time>2014-04-20T07:39:26.979Z</time>
      </trkpt>
      <trkpt lat="48.25349" lon="3.20236">
        <ele>187</ele>
        <time>2014-04-20T07:39:27.979Z</time>
      </trkpt>
      <trkpt lat="48.25351" lon="3.20232">
        <ele>187</ele>
        <time>2014-04-20T07:39:28.979Z</time>
      </trkpt>
      <trkpt lat="48.25352" lon="3.2023">
        <ele>187</ele>
        <time>2014-04-20T07:39:29.979Z</time>
      </trkpt>
      <trkpt lat="48.25354" lon="3.20228">
        <ele>187</ele>
        <time>2014-04-20T07:39:30.979Z</time>
      </trkpt>
      <trkpt lat="48.25356" lon="3.20224">
        <ele>187</ele>
        <time>2014-04-20T07:39:31.979Z</time>
      </trkpt>
      <trkpt lat="48.25359" lon="3.20219">
        <ele>188</ele>
        <time>2014-04-20T07:39:33.979Z</time>
      </trkpt>
      <trkpt lat="48.25362" lon="3.20215">
        <ele>188</ele>
        <time>2014-04-20T07:39:34.979Z</time>
      </trkpt>
      <trkpt lat="48.25364" lon="3.20213">
        <ele>188</ele>
        <time>2014-04-20T07:39:35.979Z</time>
      </trkpt>
      <trkpt lat="48.25366" lon="3.20211">
        <ele>188</ele>
        <time>2014-04-20T07:39:36.979Z</time>
      </trkpt>
      <trkpt lat="48.25367" lon="3.20209">
        <ele>188</ele>
        <time>2014-04-20T07:39:37.979Z</time>
      </trkpt>
      <trkpt lat="48.25369" lon="3.20204">
        <ele>188</ele>
        <time>2014-04-20T07:39:38.979Z</time>
      </trkpt>
      <trkpt lat="48.25371" lon="3.20202">
        <ele>188</ele>
        <time>2014-04-20T07:39:39.979Z</time>
      </trkpt>
      <trkpt lat="48.25373" lon="3.202">
        <ele>188</ele>
        <time>2014-04-20T07:39:40.979Z</time>
      </trkpt>
      <trkpt lat="48.25376" lon="3.20196">
        <ele>188</ele>
        <time>2014-04-20T07:39:41.979Z</time>
      </trkpt>
      <trkpt lat="48.25378" lon="3.20194">
        <ele>188</ele>
        <time>2014-04-20T07:39:42.979Z</time>
      </trkpt>
      <trkpt lat="48.2538" lon="3.20191">
        <ele>188</ele>
        <time>2014-04-20T07:39:43.979Z</time>
      </trkpt>
      <trkpt lat="48.25382" lon="3.20189">
        <ele>188</ele>
        <time>2014-04-20T07:39:44.979Z</time>
      </trkpt>
      <trkpt lat="48.25385" lon="3.20185">
        <ele>188</ele>
        <time>2014-04-20T07:39:47.979Z</time>
      </trkpt>
      <trkpt lat="48.25392" lon="3.20176">
        <ele>188</ele>
        <time>2014-04-20T07:39:48.979Z</time>
      </trkpt>
      <trkpt lat="48.25392" lon="3.20176">
        <ele>188</ele>
        <time>2014-04-20T07:39:50.979Z</time>
      </trkpt>
      <trkpt lat="48.25398" lon="3.20166">
        <ele>190</ele>
        <time>2014-04-20T07:39:51.979Z</time>
      </trkpt>
      <trkpt lat="48.25398" lon="3.20166">
        <ele>190</ele>
        <time>2014-04-20T07:39:54.979Z</time>
      </trkpt>
      <trkpt lat="48.25408" lon="3.20155">
        <ele>190</ele>
        <time>2014-04-20T07:39:55.979Z</time>
      </trkpt>
      <trkpt lat="48.25408" lon="3.20155">
        <ele>190</ele>
        <time>2014-04-20T07:39:57.979Z</time>
      </trkpt>
      <trkpt lat="48.25416" lon="3.20142">
        <ele>190</ele>
        <time>2014-04-20T07:39:58.979Z</time>
      </trkpt>
      <trkpt lat="48.25418" lon="3.20138">
        <ele>190</ele>
        <time>2014-04-20T07:39:59.979Z</time>
      </trkpt>
      <trkpt lat="48.25422" lon="3.20133">
        <ele>190</ele>
        <time>2014-04-20T07:40:00.979Z</time>
      </trkpt>
      <trkpt lat="48.25426" lon="3.20129">
        <ele>190</ele>
        <time>2014-04-20T07:40:01.979Z</time>
      </trkpt>
      <trkpt lat="48.25429" lon="3.20123">
        <ele>190</ele>
        <time>2014-04-20T07:40:02.979Z</time>
      </trkpt>
      <trkpt lat="48.25432" lon="3.20118">
        <ele>190</ele>
        <time>2014-04-20T07:40:03.979Z</time>
      </trkpt>
      <trkpt lat="48.25437" lon="3.20112">
        <ele>190</ele>
        <time>2014-04-20T07:40:04.979Z</time>
      </trkpt>
      <trkpt lat="48.25441" lon="3.20108">
        <ele>190</ele>
        <time>2014-04-20T07:40:05.979Z</time>
      </trkpt>
      <trkpt lat="48.25445" lon="3.20101">
        <ele>190</ele>
        <time>2014-04-20T07:40:06.979Z</time>
      </trkpt>
      <trkpt lat="48.25449" lon="3.20097">
        <ele>190</ele>
        <time>2014-04-20T07:40:07.979Z</time>
      </trkpt>
      <trkpt lat="48.25452" lon="3.20093">
        <ele>191</ele>
        <time>2014-04-20T07:40:08.979Z</time>
      </trkpt>
      <trkpt lat="48.25456" lon="3.20088">
        <ele>191</ele>
        <time>2014-04-20T07:40:09.979Z</time>
      </trkpt>
      <trkpt lat="48.25459" lon="3.20082">
        <ele>191</ele>
        <time>2014-04-20T07:40:10.979Z</time>
      </trkpt>
      <trkpt lat="48.25462" lon="3.20078">
        <ele>191</ele>
        <time>2014-04-20T07:40:11.979Z</time>
      </trkpt>
      <trkpt lat="48.25467" lon="3.20071">
        <ele>191</ele>
        <time>2014-04-20T07:40:12.979Z</time>
      </trkpt>
      <trkpt lat="48.25472" lon="3.20065">
        <ele>191</ele>
        <time>2014-04-20T07:40:13.979Z</time>
      </trkpt>
      <trkpt lat="48.25476" lon="3.20058">
        <ele>191</ele>
        <time>2014-04-20T07:40:14.979Z</time>
      </trkpt>
      <trkpt lat="48.25481" lon="3.20054">
        <ele>191</ele>
        <time>2014-04-20T07:40:15.979Z</time>
      </trkpt>
      <trkpt lat="48.25485" lon="3.20048">
        <ele>191</ele>
        <time>2014-04-20T07:40:16.979Z</time>
      </trkpt>
      <trkpt lat="48.25489" lon="3.20041">
        <ele>191</ele>
        <time>2014-04-20T07:40:17.979Z</time>
      </trkpt>
      <trkpt lat="48.25494" lon="3.20035">
        <ele>191</ele>
        <time>2014-04-20T07:40:18.979Z</time>
      </trkpt>
      <trkpt lat="48.25498" lon="3.20026">
        <ele>191</ele>
        <time>2014-04-20T07:40:19.979Z</time>
      </trkpt>
      <trkpt lat="48.25502" lon="3.2002">
        <ele>188</ele>
        <time>2014-04-20T07:40:20.979Z</time>
      </trkpt>
      <trkpt lat="48.25506" lon="3.20013">
        <ele>189</ele>
        <time>2014-04-20T07:40:21.979Z</time>
      </trkpt>
      <trkpt lat="48.25512" lon="3.20007">
        <ele>188</ele>
        <time>2014-04-20T07:40:22.979Z</time>
      </trkpt>
      <trkpt lat="48.25516" lon="3.2">
        <ele>188</ele>
        <time>2014-04-20T07:40:23.979Z</time>
      </trkpt>
      <trkpt lat="48.25521" lon="3.19994">
        <ele>187</ele>
        <time>2014-04-20T07:40:24.979Z</time>
      </trkpt>
      <trkpt lat="48.25526" lon="3.19988">
        <ele>186</ele>
        <time>2014-04-20T07:40:25.979Z</time>
      </trkpt>
      <trkpt lat="48.2553" lon="3.19981">
        <ele>186</ele>
        <time>2014-04-20T07:40:26.979Z</time>
      </trkpt>
      <trkpt lat="48.25534" lon="3.19973">
        <ele>186</ele>
        <time>2014-04-20T07:40:27.979Z</time>
      </trkpt>
      <trkpt lat="48.25539" lon="3.19966">
        <ele>185</ele>
        <time>2014-04-20T07:40:28.979Z</time>
      </trkpt>
      <trkpt lat="48.25543" lon="3.1996">
        <ele>185</ele>
        <time>2014-04-20T07:40:29.979Z</time>
      </trkpt>
      <trkpt lat="48.25547" lon="3.19951">
        <ele>185</ele>
        <time>2014-04-20T07:40:30.979Z</time>
      </trkpt>
      <trkpt lat="48.25553" lon="3.19942">
        <ele>184</ele>
        <time>2014-04-20T07:40:31.979Z</time>
      </trkpt>
      <trkpt lat="48.25559" lon="3.19936">
        <ele>184</ele>
        <time>2014-04-20T07:40:32.979Z</time>
      </trkpt>
      <trkpt lat="48.25564" lon="3.19927">
        <ele>183</ele>
        <time>2014-04-20T07:40:33.979Z</time>
      </trkpt>
      <trkpt lat="48.25572" lon="3.19921">
        <ele>182</ele>
        <time>2014-04-20T07:40:34.979Z</time>
      </trkpt>
      <trkpt lat="48.25578" lon="3.19915">
        <ele>180</ele>
        <time>2014-04-20T07:40:35.979Z</time>
      </trkpt>
      <trkpt lat="48.25584" lon="3.19908">
        <ele>178</ele>
        <time>2014-04-20T07:40:36.979Z</time>
      </trkpt>
      <trkpt lat="48.25589" lon="3.19902">
        <ele>177</ele>
        <time>2014-04-20T07:40:37.979Z</time>
      </trkpt>
      <trkpt lat="48.25594" lon="3.19895">
        <ele>177</ele>
        <time>2014-04-20T07:40:38.979Z</time>
      </trkpt>
      <trkpt lat="48.25599" lon="3.19889">
        <ele>176</ele>
        <time>2014-04-20T07:40:39.979Z</time>
      </trkpt>
      <trkpt lat="48.25603" lon="3.19882">
        <ele>176</ele>
        <time>2014-04-20T07:40:40.979Z</time>
      </trkpt>
      <trkpt lat="48.25607" lon="3.19876">
        <ele>175</ele>
        <time>2014-04-20T07:40:41.979Z</time>
      </trkpt>
      <trkpt lat="48.25612" lon="3.19872">
        <ele>175</ele>
        <time>2014-04-20T07:40:42.979Z</time>
      </trkpt>
      <trkpt lat="48.25615" lon="3.19867">
        <ele>175</ele>
        <time>2014-04-20T07:40:43.979Z</time>
      </trkpt>
      <trkpt lat="48.25618" lon="3.19861">
        <ele>175</ele>
        <time>2014-04-20T07:40:44.979Z</time>
      </trkpt>
      <trkpt lat="48.25622" lon="3.19857">
        <ele>174</ele>
        <time>2014-04-20T07:40:45.979Z</time>
      </trkpt>
      <trkpt lat="48.25624" lon="3.19852">
        <ele>174</ele>
        <time>2014-04-20T07:40:48.979Z</time>
      </trkpt>
      <trkpt lat="48.25632" lon="3.19844">
        <ele>174</ele>
        <time>2014-04-20T07:40:49.979Z</time>
      </trkpt>
      <trkpt lat="48.25632" lon="3.19844">
        <ele>174</ele>
        <time>2014-04-20T07:40:52.979Z</time>
      </trkpt>
      <trkpt lat="48.25638" lon="3.19831">
        <ele>172</ele>
        <time>2014-04-20T07:40:53.979Z</time>
      </trkpt>
      <trkpt lat="48.25638" lon="3.19831">
        <ele>172</ele>
        <time>2014-04-20T07:40:56.979Z</time>
      </trkpt>
      <trkpt lat="48.25645" lon="3.1982">
        <ele>172</ele>
        <time>2014-04-20T07:40:57.979Z</time>
      </trkpt>
      <trkpt lat="48.25645" lon="3.1982">
        <ele>172</ele>
        <time>2014-04-20T07:41:01.979Z</time>
      </trkpt>
      <trkpt lat="48.2565" lon="3.19805">
        <ele>172</ele>
        <time>2014-04-20T07:41:02.979Z</time>
      </trkpt>
      <trkpt lat="48.2565" lon="3.19805">
        <ele>172</ele>
        <time>2014-04-20T07:41:04.979Z</time>
      </trkpt>
      <trkpt lat="48.25657" lon="3.1979">
        <ele>172</ele>
        <time>2014-04-20T07:41:05.979Z</time>
      </trkpt>
      <trkpt lat="48.25657" lon="3.1979">
        <ele>172</ele>
        <time>2014-04-20T07:41:06.979Z</time>
      </trkpt>
      <trkpt lat="48.25662" lon="3.19777">
        <ele>171</ele>
        <time>2014-04-20T07:41:07.979Z</time>
      </trkpt>
      <trkpt lat="48.25662" lon="3.19777">
        <ele>171</ele>
        <time>2014-04-20T07:41:08.979Z</time>
      </trkpt>
      <trkpt lat="48.25668" lon="3.19767">
        <ele>167</ele>
        <time>2014-04-20T07:41:09.979Z</time>
      </trkpt>
      <trkpt lat="48.25668" lon="3.19767">
        <ele>167</ele>
        <time>2014-04-20T07:41:10.979Z</time>
      </trkpt>
      <trkpt lat="48.25675" lon="3.19756">
        <ele>167</ele>
        <time>2014-04-20T07:41:11.979Z</time>
      </trkpt>
      <trkpt lat="48.25675" lon="3.19756">
        <ele>167</ele>
        <time>2014-04-20T07:41:13.979Z</time>
      </trkpt>
      <trkpt lat="48.25683" lon="3.19743">
        <ele>165</ele>
        <time>2014-04-20T07:41:14.979Z</time>
      </trkpt>
      <trkpt lat="48.25683" lon="3.19743">
        <ele>165</ele>
        <time>2014-04-20T07:41:16.979Z</time>
      </trkpt>
      <trkpt lat="48.2569" lon="3.19728">
        <ele>164</ele>
        <time>2014-04-20T07:41:17.979Z</time>
      </trkpt>
      <trkpt lat="48.2569" lon="3.19728">
        <ele>164</ele>
        <time>2014-04-20T07:41:20.979Z</time>
      </trkpt>
      <trkpt lat="48.25696" lon="3.19715">
        <ele>163</ele>
        <time>2014-04-20T07:41:21.979Z</time>
      </trkpt>
      <trkpt lat="48.25696" lon="3.19715">
        <ele>163</ele>
        <time>2014-04-20T07:41:23.979Z</time>
      </trkpt>
      <trkpt lat="48.25704" lon="3.197">
        <ele>162</ele>
        <time>2014-04-20T07:41:24.979Z</time>
      </trkpt>
      <trkpt lat="48.25704" lon="3.197">
        <ele>162</ele>
        <time>2014-04-20T07:41:26.979Z</time>
      </trkpt>
      <trkpt lat="48.25711" lon="3.19689">
        <ele>161</ele>
        <time>2014-04-20T07:41:27.979Z</time>
      </trkpt>
      <trkpt lat="48.25711" lon="3.19689">
        <ele>161</ele>
        <time>2014-04-20T07:41:29.979Z</time>
      </trkpt>
      <trkpt lat="48.25721" lon="3.19691">
        <ele>161</ele>
        <time>2014-04-20T07:41:30.979Z</time>
      </trkpt>
      <trkpt lat="48.25724" lon="3.19689">
        <ele>160</ele>
        <time>2014-04-20T07:41:31.979Z</time>
      </trkpt>
      <trkpt lat="48.2573" lon="3.19689">
        <ele>160</ele>
        <time>2014-04-20T07:41:32.979Z</time>
      </trkpt>
      <trkpt lat="48.25734" lon="3.19689">
        <ele>160</ele>
        <time>2014-04-20T07:41:33.979Z</time>
      </trkpt>
      <trkpt lat="48.25739" lon="3.19689">
        <ele>159</ele>
        <time>2014-04-20T07:41:34.979Z</time>
      </trkpt>
      <trkpt lat="48.25745" lon="3.19687">
        <ele>159</ele>
        <time>2014-04-20T07:41:35.979Z</time>
      </trkpt>
      <trkpt lat="48.2575" lon="3.19687">
        <ele>158</ele>
        <time>2014-04-20T07:41:36.979Z</time>
      </trkpt>
      <trkpt lat="48.25755" lon="3.19685">
        <ele>154</ele>
        <time>2014-04-20T07:41:37.979Z</time>
      </trkpt>
      <trkpt lat="48.25761" lon="3.19683">
        <ele>154</ele>
        <time>2014-04-20T07:41:38.979Z</time>
      </trkpt>
      <trkpt lat="48.25766" lon="3.19681">
        <ele>154</ele>
        <time>2014-04-20T07:41:39.979Z</time>
      </trkpt>
      <trkpt lat="48.25771" lon="3.19676">
        <ele>153</ele>
        <time>2014-04-20T07:41:40.979Z</time>
      </trkpt>
      <trkpt lat="48.25777" lon="3.19674">
        <ele>153</ele>
        <time>2014-04-20T07:41:41.979Z</time>
      </trkpt>
      <trkpt lat="48.25782" lon="3.1967">
        <ele>153</ele>
        <time>2014-04-20T07:41:42.979Z</time>
      </trkpt>
      <trkpt lat="48.25788" lon="3.19666">
        <ele>145</ele>
        <time>2014-04-20T07:41:43.979Z</time>
      </trkpt>
      <trkpt lat="48.25793" lon="3.19666">
        <ele>145</ele>
        <time>2014-04-20T07:41:44.979Z</time>
      </trkpt>
      <trkpt lat="48.25797" lon="3.19664">
        <ele>144</ele>
        <time>2014-04-20T07:41:45.979Z</time>
      </trkpt>
      <trkpt lat="48.25801" lon="3.19664">
        <ele>144</ele>
        <time>2014-04-20T07:41:46.979Z</time>
      </trkpt>
      <trkpt lat="48.25806" lon="3.19661">
        <ele>144</ele>
        <time>2014-04-20T07:41:47.979Z</time>
      </trkpt>
      <trkpt lat="48.25809" lon="3.19661">
        <ele>144</ele>
        <time>2014-04-20T07:41:48.979Z</time>
      </trkpt>
      <trkpt lat="48.25813" lon="3.19659">
        <ele>143</ele>
        <time>2014-04-20T07:41:49.979Z</time>
      </trkpt>
      <trkpt lat="48.25818" lon="3.19657">
        <ele>143</ele>
        <time>2014-04-20T07:41:50.979Z</time>
      </trkpt>
      <trkpt lat="48.25822" lon="3.19657">
        <ele>143</ele>
        <time>2014-04-20T07:41:51.979Z</time>
      </trkpt>
      <trkpt lat="48.25828" lon="3.19655">
        <ele>143</ele>
        <time>2014-04-20T07:41:52.979Z</time>
      </trkpt>
      <trkpt lat="48.25834" lon="3.19651">
        <ele>139</ele>
        <time>2014-04-20T07:41:53.979Z</time>
      </trkpt>
      <trkpt lat="48.25839" lon="3.19649">
        <ele>138</ele>
        <time>2014-04-20T07:41:54.979Z</time>
      </trkpt>
      <trkpt lat="48.25844" lon="3.19646">
        <ele>137</ele>
        <time>2014-04-20T07:41:55.979Z</time>
      </trkpt>
      <trkpt lat="48.2585" lon="3.19644">
        <ele>137</ele>
        <time>2014-04-20T07:41:56.979Z</time>
      </trkpt>
      <trkpt lat="48.25856" lon="3.19642">
        <ele>136</ele>
        <time>2014-04-20T07:41:57.979Z</time>
      </trkpt>
      <trkpt lat="48.25862" lon="3.19638">
        <ele>135</ele>
        <time>2014-04-20T07:41:58.979Z</time>
      </trkpt>
      <trkpt lat="48.25868" lon="3.19636">
        <ele>135</ele>
        <time>2014-04-20T07:41:59.979Z</time>
      </trkpt>
      <trkpt lat="48.25874" lon="3.19633">
        <ele>134</ele>
        <time>2014-04-20T07:42:00.979Z</time>
      </trkpt>
      <trkpt lat="48.25881" lon="3.19631">
        <ele>134</ele>
        <time>2014-04-20T07:42:01.979Z</time>
      </trkpt>
      <trkpt lat="48.25886" lon="3.19627">
        <ele>134</ele>
        <time>2014-04-20T07:42:02.979Z</time>
      </trkpt>
      <trkpt lat="48.25891" lon="3.19625">
        <ele>133</ele>
        <time>2014-04-20T07:42:03.979Z</time>
      </trkpt>
      <trkpt lat="48.25895" lon="3.19623">
        <ele>133</ele>
        <time>2014-04-20T07:42:04.979Z</time>
      </trkpt>
      <trkpt lat="48.25898" lon="3.19623">
        <ele>133</ele>
        <time>2014-04-20T07:42:05.979Z</time>
      </trkpt>
      <trkpt lat="48.259" lon="3.19621">
        <ele>133</ele>
        <time>2014-04-20T07:42:06.979Z</time>
      </trkpt>
      <trkpt lat="48.25904" lon="3.19621">
        <ele>133</ele>
        <time>2014-04-20T07:42:07.979Z</time>
      </trkpt>
      <trkpt lat="48.25908" lon="3.19621">
        <ele>133</ele>
        <time>2014-04-20T07:42:08.979Z</time>
      </trkpt>
      <trkpt lat="48.25912" lon="3.19621">
        <ele>132</ele>
        <time>2014-04-20T07:42:09.979Z</time>
      </trkpt>
      <trkpt lat="48.25915" lon="3.19623">
        <ele>133</ele>
        <time>2014-04-20T07:42:10.979Z</time>
      </trkpt>
      <trkpt lat="48.25917" lon="3.19627">
        <ele>129</ele>
        <time>2014-04-20T07:42:11.979Z</time>
      </trkpt>
      <trkpt lat="48.2592" lon="3.19629">
        <ele>129</ele>
        <time>2014-04-20T07:42:12.979Z</time>
      </trkpt>
      <trkpt lat="48.25922" lon="3.19633">
        <ele>129</ele>
        <time>2014-04-20T07:42:13.979Z</time>
      </trkpt>
      <trkpt lat="48.25923" lon="3.19636">
        <ele>130</ele>
        <time>2014-04-20T07:42:14.979Z</time>
      </trkpt>
      <trkpt lat="48.25926" lon="3.1964">
        <ele>130</ele>
        <time>2014-04-20T07:42:15.979Z</time>
      </trkpt>
      <trkpt lat="48.25928" lon="3.19644">
        <ele>130</ele>
        <time>2014-04-20T07:42:16.979Z</time>
      </trkpt>
      <trkpt lat="48.2593" lon="3.19649">
        <ele>130</ele>
        <time>2014-04-20T07:42:17.979Z</time>
      </trkpt>
      <trkpt lat="48.25932" lon="3.19653">
        <ele>130</ele>
        <time>2014-04-20T07:42:18.979Z</time>
      </trkpt>
      <trkpt lat="48.25935" lon="3.19657">
        <ele>130</ele>
        <time>2014-04-20T07:42:19.979Z</time>
      </trkpt>
      <trkpt lat="48.25937" lon="3.19661">
        <ele>130</ele>
        <time>2014-04-20T07:42:20.979Z</time>
      </trkpt>
      <trkpt lat="48.25939" lon="3.19666">
        <ele>130</ele>
        <time>2014-04-20T07:42:21.979Z</time>
      </trkpt>
      <trkpt lat="48.25942" lon="3.19672">
        <ele>132</ele>
        <time>2014-04-20T07:42:22.979Z</time>
      </trkpt>
      <trkpt lat="48.25944" lon="3.19676">
        <ele>132</ele>
        <time>2014-04-20T07:42:23.979Z</time>
      </trkpt>
      <trkpt lat="48.25947" lon="3.19683">
        <ele>131</ele>
        <time>2014-04-20T07:42:24.979Z</time>
      </trkpt>
      <trkpt lat="48.25951" lon="3.19689">
        <ele>131</ele>
        <time>2014-04-20T07:42:25.979Z</time>
      </trkpt>
      <trkpt lat="48.25953" lon="3.19696">
        <ele>131</ele>
        <time>2014-04-20T07:42:26.979Z</time>
      </trkpt>
      <trkpt lat="48.25955" lon="3.19702">
        <ele>131</ele>
        <time>2014-04-20T07:42:27.979Z</time>
      </trkpt>
      <trkpt lat="48.25957" lon="3.19709">
        <ele>131</ele>
        <time>2014-04-20T07:42:28.979Z</time>
      </trkpt>
      <trkpt lat="48.25959" lon="3.19715">
        <ele>131</ele>
        <time>2014-04-20T07:42:29.979Z</time>
      </trkpt>
      <trkpt lat="48.25962" lon="3.19724">
        <ele>131</ele>
        <time>2014-04-20T07:42:30.979Z</time>
      </trkpt>
      <trkpt lat="48.25965" lon="3.1973">
        <ele>131</ele>
        <time>2014-04-20T07:42:31.979Z</time>
      </trkpt>
      <trkpt lat="48.25965" lon="3.1973">
        <ele>131</ele>
        <time>2014-04-20T07:42:32.979Z</time>
      </trkpt>
      <trkpt lat="48.25967" lon="3.19736">
        <ele>131</ele>
        <time>2014-04-20T07:42:33.979Z</time>
      </trkpt>
      <trkpt lat="48.25967" lon="3.19736">
        <ele>131</ele>
        <time>2014-04-20T07:42:36.979Z</time>
      </trkpt>
      <trkpt lat="48.25973" lon="3.19747">
        <ele>130</ele>
        <time>2014-04-20T07:42:37.979Z</time>
      </trkpt>
      <trkpt lat="48.25973" lon="3.19747">
        <ele>130</ele>
        <time>2014-04-20T07:42:40.979Z</time>
      </trkpt>
      <trkpt lat="48.25979" lon="3.19758">
        <ele>132</ele>
        <time>2014-04-20T07:42:41.979Z</time>
      </trkpt>
      <trkpt lat="48.25979" lon="3.19758">
        <ele>132</ele>
        <time>2014-04-20T07:42:44.979Z</time>
      </trkpt>
      <trkpt lat="48.25985" lon="3.19769">
        <ele>132</ele>
        <time>2014-04-20T07:42:45.979Z</time>
      </trkpt>
      <trkpt lat="48.25985" lon="3.19769">
        <ele>132</ele>
        <time>2014-04-20T07:42:49.979Z</time>
      </trkpt>
      <trkpt lat="48.25991" lon="3.19779">
        <ele>133</ele>
        <time>2014-04-20T07:42:50.979Z</time>
      </trkpt>
      <trkpt lat="48.25991" lon="3.19779">
        <ele>133</ele>
        <time>2014-04-20T07:42:54.979Z</time>
      </trkpt>
      <trkpt lat="48.25999" lon="3.19792">
        <ele>134</ele>
        <time>2014-04-20T07:42:55.979Z</time>
      </trkpt>
      <trkpt lat="48.25999" lon="3.19792">
        <ele>134</ele>
        <time>2014-04-20T07:42:58.979Z</time>
      </trkpt>
      <trkpt lat="48.26005" lon="3.19805">
        <ele>127</ele>
        <time>2014-04-20T07:42:59.979Z</time>
      </trkpt>
      <trkpt lat="48.26005" lon="3.19805">
        <ele>127</ele>
        <time>2014-04-20T07:43:02.979Z</time>
      </trkpt>
      <trkpt lat="48.26012" lon="3.19818">
        <ele>128</ele>
        <time>2014-04-20T07:43:03.979Z</time>
      </trkpt>
      <trkpt lat="48.26012" lon="3.19818">
        <ele>128</ele>
        <time>2014-04-20T07:43:04.979Z</time>
      </trkpt>
      <trkpt lat="48.26017" lon="3.19824">
        <ele>128</ele>
        <time>2014-04-20T07:43:05.979Z</time>
      </trkpt>
      <trkpt lat="48.26017" lon="3.19824">
        <ele>128</ele>
        <time>2014-04-20T07:43:06.979Z</time>
      </trkpt>
      <trkpt lat="48.26023" lon="3.19827">
        <ele>128</ele>
        <time>2014-04-20T07:43:07.979Z</time>
      </trkpt>
      <trkpt lat="48.26025" lon="3.19827">
        <ele>127</ele>
        <time>2014-04-20T07:43:08.979Z</time>
      </trkpt>
      <trkpt lat="48.26028" lon="3.19827">
        <ele>127</ele>
        <time>2014-04-20T07:43:09.979Z</time>
      </trkpt>
      <trkpt lat="48.26031" lon="3.19824">
        <ele>127</ele>
        <time>2014-04-20T07:43:10.979Z</time>
      </trkpt>
      <trkpt lat="48.26034" lon="3.19824">
        <ele>126</ele>
        <time>2014-04-20T07:43:11.979Z</time>
      </trkpt>
      <trkpt lat="48.2604" lon="3.19822">
        <ele>126</ele>
        <time>2014-04-20T07:43:12.979Z</time>
      </trkpt>
      <trkpt lat="48.26045" lon="3.19822">
        <ele>125</ele>
        <time>2014-04-20T07:43:13.979Z</time>
      </trkpt>
      <trkpt lat="48.26051" lon="3.19822">
        <ele>125</ele>
        <time>2014-04-20T07:43:14.979Z</time>
      </trkpt>
      <trkpt lat="48.26058" lon="3.19829">
        <ele>124</ele>
        <time>2014-04-20T07:43:15.979Z</time>
      </trkpt>
      <trkpt lat="48.26063" lon="3.19835">
        <ele>126</ele>
        <time>2014-04-20T07:43:16.979Z</time>
      </trkpt>
      <trkpt lat="48.2607" lon="3.19842">
        <ele>125</ele>
        <time>2014-04-20T07:43:17.979Z</time>
      </trkpt>
      <trkpt lat="48.26074" lon="3.19852">
        <ele>126</ele>
        <time>2014-04-20T07:43:18.979Z</time>
      </trkpt>
      <trkpt lat="48.2608" lon="3.19863">
        <ele>126</ele>
        <time>2014-04-20T07:43:19.979Z</time>
      </trkpt>
      <trkpt lat="48.26086" lon="3.19872">
        <ele>121</ele>
        <time>2014-04-20T07:43:20.979Z</time>
      </trkpt>
      <trkpt lat="48.26092" lon="3.19885">
        <ele>122</ele>
        <time>2014-04-20T07:43:21.979Z</time>
      </trkpt>
      <trkpt lat="48.261" lon="3.19897">
        <ele>122</ele>
        <time>2014-04-20T07:43:22.979Z</time>
      </trkpt>
      <trkpt lat="48.26106" lon="3.19908">
        <ele>122</ele>
        <time>2014-04-20T07:43:23.979Z</time>
      </trkpt>
      <trkpt lat="48.26112" lon="3.19919">
        <ele>123</ele>
        <time>2014-04-20T07:43:24.979Z</time>
      </trkpt>
      <trkpt lat="48.26118" lon="3.1993">
        <ele>122</ele>
        <time>2014-04-20T07:43:25.979Z</time>
      </trkpt>
      <trkpt lat="48.26123" lon="3.1994">
        <ele>122</ele>
        <time>2014-04-20T07:43:26.979Z</time>
      </trkpt>
      <trkpt lat="48.2613" lon="3.19951">
        <ele>122</ele>
        <time>2014-04-20T07:43:27.979Z</time>
      </trkpt>
      <trkpt lat="48.26135" lon="3.1996">
        <ele>121</ele>
        <time>2014-04-20T07:43:28.979Z</time>
      </trkpt>
      <trkpt lat="48.26141" lon="3.1997">
        <ele>121</ele>
        <time>2014-04-20T07:43:29.979Z</time>
      </trkpt>
      <trkpt lat="48.26147" lon="3.19979">
        <ele>120</ele>
        <time>2014-04-20T07:43:30.979Z</time>
      </trkpt>
      <trkpt lat="48.26152" lon="3.1999">
        <ele>119</ele>
        <time>2014-04-20T07:43:31.979Z</time>
      </trkpt>
      <trkpt lat="48.26158" lon="3.19998">
        <ele>118</ele>
        <time>2014-04-20T07:43:32.979Z</time>
      </trkpt>
      <trkpt lat="48.26162" lon="3.20007">
        <ele>119</ele>
        <time>2014-04-20T07:43:33.979Z</time>
      </trkpt>
      <trkpt lat="48.26167" lon="3.20015">
        <ele>116</ele>
        <time>2014-04-20T07:43:34.979Z</time>
      </trkpt>
      <trkpt lat="48.26172" lon="3.20022">
        <ele>116</ele>
        <time>2014-04-20T07:43:35.979Z</time>
      </trkpt>
      <trkpt lat="48.26175" lon="3.2003">
        <ele>116</ele>
        <time>2014-04-20T07:43:36.979Z</time>
      </trkpt>
      <trkpt lat="48.26179" lon="3.20039">
        <ele>116</ele>
        <time>2014-04-20T07:43:37.979Z</time>
      </trkpt>
      <trkpt lat="48.26183" lon="3.20048">
        <ele>116</ele>
        <time>2014-04-20T07:43:38.979Z</time>
      </trkpt>
      <trkpt lat="48.26188" lon="3.20054">
        <ele>116</ele>
        <time>2014-04-20T07:43:39.979Z</time>
      </trkpt>
      <trkpt lat="48.26192" lon="3.20063">
        <ele>116</ele>
        <time>2014-04-20T07:43:40.979Z</time>
      </trkpt>
      <trkpt lat="48.26196" lon="3.20069">
        <ele>116</ele>
        <time>2014-04-20T07:43:41.979Z</time>
      </trkpt>
      <trkpt lat="48.26202" lon="3.20078">
        <ele>116</ele>
        <time>2014-04-20T07:43:42.979Z</time>
      </trkpt>
      <trkpt lat="48.26207" lon="3.20084">
        <ele>117</ele>
        <time>2014-04-20T07:43:43.979Z</time>
      </trkpt>
      <trkpt lat="48.26213" lon="3.20093">
        <ele>116</ele>
        <time>2014-04-20T07:43:44.979Z</time>
      </trkpt>
      <trkpt lat="48.2622" lon="3.20101">
        <ele>116</ele>
        <time>2014-04-20T07:43:45.979Z</time>
      </trkpt>
      <trkpt lat="48.26227" lon="3.20112">
        <ele>116</ele>
        <time>2014-04-20T07:43:46.979Z</time>
      </trkpt>
      <trkpt lat="48.26235" lon="3.20123">
        <ele>116</ele>
        <time>2014-04-20T07:43:47.979Z</time>
      </trkpt>
      <trkpt lat="48.26242" lon="3.20133">
        <ele>116</ele>
        <time>2014-04-20T07:43:48.979Z</time>
      </trkpt>
      <trkpt lat="48.26251" lon="3.20144">
        <ele>110</ele>
        <time>2014-04-20T07:43:49.979Z</time>
      </trkpt>
      <trkpt lat="48.26259" lon="3.20157">
        <ele>111</ele>
        <time>2014-04-20T07:43:50.979Z</time>
      </trkpt>
      <trkpt lat="48.26266" lon="3.20168">
        <ele>112</ele>
        <time>2014-04-20T07:43:51.979Z</time>
      </trkpt>
      <trkpt lat="48.26274" lon="3.20179">
        <ele>112</ele>
        <time>2014-04-20T07:43:52.979Z</time>
      </trkpt>
      <trkpt lat="48.26281" lon="3.20189">
        <ele>112</ele>
        <time>2014-04-20T07:43:53.979Z</time>
      </trkpt>
      <trkpt lat="48.26289" lon="3.20198">
        <ele>112</ele>
        <time>2014-04-20T07:43:54.979Z</time>
      </trkpt>
      <trkpt lat="48.26295" lon="3.20209">
        <ele>112</ele>
        <time>2014-04-20T07:43:55.979Z</time>
      </trkpt>
      <trkpt lat="48.26301" lon="3.20219">
        <ele>112</ele>
        <time>2014-04-20T07:43:56.979Z</time>
      </trkpt>
      <trkpt lat="48.26308" lon="3.2023">
        <ele>111</ele>
        <time>2014-04-20T07:43:57.979Z</time>
      </trkpt>
      <trkpt lat="48.26314" lon="3.20239">
        <ele>111</ele>
        <time>2014-04-20T07:43:58.979Z</time>
      </trkpt>
      <trkpt lat="48.26321" lon="3.20249">
        <ele>110</ele>
        <time>2014-04-20T07:43:59.979Z</time>
      </trkpt>
      <trkpt lat="48.26327" lon="3.20258">
        <ele>111</ele>
        <time>2014-04-20T07:44:00.979Z</time>
      </trkpt>
      <trkpt lat="48.26334" lon="3.20269">
        <ele>108</ele>
        <time>2014-04-20T07:44:01.979Z</time>
      </trkpt>
      <trkpt lat="48.2634" lon="3.20277">
        <ele>108</ele>
        <time>2014-04-20T07:44:02.979Z</time>
      </trkpt>
      <trkpt lat="48.26347" lon="3.20288">
        <ele>107</ele>
        <time>2014-04-20T07:44:03.979Z</time>
      </trkpt>
      <trkpt lat="48.26353" lon="3.20297">
        <ele>107</ele>
        <time>2014-04-20T07:44:04.979Z</time>
      </trkpt>
      <trkpt lat="48.26359" lon="3.20307">
        <ele>107</ele>
        <time>2014-04-20T07:44:05.979Z</time>
      </trkpt>
      <trkpt lat="48.26366" lon="3.20318">
        <ele>107</ele>
        <time>2014-04-20T07:44:06.979Z</time>
      </trkpt>
      <trkpt lat="48.26372" lon="3.20329">
        <ele>107</ele>
        <time>2014-04-20T07:44:07.979Z</time>
      </trkpt>
      <trkpt lat="48.26379" lon="3.20339">
        <ele>108</ele>
        <time>2014-04-20T07:44:08.979Z</time>
      </trkpt>
      <trkpt lat="48.26385" lon="3.2035">
        <ele>108</ele>
        <time>2014-04-20T07:44:09.979Z</time>
      </trkpt>
      <trkpt lat="48.26393" lon="3.20359">
        <ele>107</ele>
        <time>2014-04-20T07:44:10.979Z</time>
      </trkpt>
      <trkpt lat="48.26399" lon="3.20369">
        <ele>107</ele>
        <time>2014-04-20T07:44:11.979Z</time>
      </trkpt>
      <trkpt lat="48.26406" lon="3.20378">
        <ele>107</ele>
        <time>2014-04-20T07:44:12.979Z</time>
      </trkpt>
      <trkpt lat="48.26412" lon="3.20389">
        <ele>107</ele>
        <time>2014-04-20T07:44:13.979Z</time>
      </trkpt>
      <trkpt lat="48.26418" lon="3.20397">
        <ele>103</ele>
        <time>2014-04-20T07:44:14.979Z</time>
      </trkpt>
      <trkpt lat="48.26425" lon="3.204">
        <ele>103</ele>
        <time>2014-04-20T07:44:15.979Z</time>
      </trkpt>
      <trkpt lat="48.26431" lon="3.204">
        <ele>103</ele>
        <time>2014-04-20T07:44:16.979Z</time>
      </trkpt>
      <trkpt lat="48.26437" lon="3.20395">
        <ele>102</ele>
        <time>2014-04-20T07:44:17.979Z</time>
      </trkpt>
      <trkpt lat="48.26444" lon="3.20389">
        <ele>102</ele>
        <time>2014-04-20T07:44:18.979Z</time>
      </trkpt>
      <trkpt lat="48.26453" lon="3.20382">
        <ele>101</ele>
        <time>2014-04-20T07:44:19.979Z</time>
      </trkpt>
      <trkpt lat="48.26461" lon="3.20376">
        <ele>101</ele>
        <time>2014-04-20T07:44:20.979Z</time>
      </trkpt>
      <trkpt lat="48.26471" lon="3.20369">
        <ele>100</ele>
        <time>2014-04-20T07:44:21.979Z</time>
      </trkpt>
      <trkpt lat="48.2648" lon="3.20363">
        <ele>100</ele>
        <time>2014-04-20T07:44:22.979Z</time>
      </trkpt>
      <trkpt lat="48.26489" lon="3.20357">
        <ele>100</ele>
        <time>2014-04-20T07:44:23.979Z</time>
      </trkpt>
      <trkpt lat="48.26497" lon="3.20348">
        <ele>99</ele>
        <time>2014-04-20T07:44:24.979Z</time>
      </trkpt>
      <trkpt lat="48.26505" lon="3.20342">
        <ele>97</ele>
        <time>2014-04-20T07:44:25.979Z</time>
      </trkpt>
      <trkpt lat="48.26512" lon="3.20335">
        <ele>97</ele>
        <time>2014-04-20T07:44:26.979Z</time>
      </trkpt>
      <trkpt lat="48.26518" lon="3.20329">
        <ele>98</ele>
        <time>2014-04-20T07:44:27.979Z</time>
      </trkpt>
      <trkpt lat="48.26524" lon="3.20322">
        <ele>98</ele>
        <time>2014-04-20T07:44:28.979Z</time>
      </trkpt>
      <trkpt lat="48.26529" lon="3.20318">
        <ele>98</ele>
        <time>2014-04-20T07:44:29.979Z</time>
      </trkpt>
      <trkpt lat="48.26532" lon="3.20314">
        <ele>98</ele>
        <time>2014-04-20T07:44:30.979Z</time>
      </trkpt>
      <trkpt lat="48.26536" lon="3.20309">
        <ele>98</ele>
        <time>2014-04-20T07:44:31.979Z</time>
      </trkpt>
      <trkpt lat="48.26541" lon="3.20307">
        <ele>98</ele>
        <time>2014-04-20T07:44:32.979Z</time>
      </trkpt>
      <trkpt lat="48.26544" lon="3.20303">
        <ele>98</ele>
        <time>2014-04-20T07:44:33.979Z</time>
      </trkpt>
      <trkpt lat="48.26547" lon="3.20299">
        <ele>99</ele>
        <time>2014-04-20T07:44:34.979Z</time>
      </trkpt>
      <trkpt lat="48.26551" lon="3.20294">
        <ele>99</ele>
        <time>2014-04-20T07:44:35.979Z</time>
      </trkpt>
      <trkpt lat="48.26555" lon="3.20292">
        <ele>99</ele>
        <time>2014-04-20T07:44:36.979Z</time>
      </trkpt>
      <trkpt lat="48.26558" lon="3.20288">
        <ele>99</ele>
        <time>2014-04-20T07:44:37.979Z</time>
      </trkpt>
      <trkpt lat="48.26561" lon="3.20284">
        <ele>99</ele>
        <time>2014-04-20T07:44:38.979Z</time>
      </trkpt>
      <trkpt lat="48.26564" lon="3.20279">
        <ele>99</ele>
        <time>2014-04-20T07:44:39.979Z</time>
      </trkpt>
      <trkpt lat="48.26568" lon="3.20273">
        <ele>99</ele>
        <time>2014-04-20T07:44:40.979Z</time>
      </trkpt>
      <trkpt lat="48.26571" lon="3.20269">
        <ele>99</ele>
        <time>2014-04-20T07:44:41.979Z</time>
      </trkpt>
      <trkpt lat="48.26575" lon="3.20266">
        <ele>99</ele>
        <time>2014-04-20T07:44:42.979Z</time>
      </trkpt>
      <trkpt lat="48.26583" lon="3.20264">
        <ele>99</ele>
        <time>2014-04-20T07:44:43.979Z</time>
      </trkpt>
      <trkpt lat="48.26589" lon="3.20262">
        <ele>98</ele>
        <time>2014-04-20T07:44:44.979Z</time>
      </trkpt>
      <trkpt lat="48.26598" lon="3.2026">
        <ele>97</ele>
        <time>2014-04-20T07:44:45.979Z</time>
      </trkpt>
      <trkpt lat="48.26605" lon="3.20266">
        <ele>96</ele>
        <time>2014-04-20T07:44:46.979Z</time>
      </trkpt>
      <trkpt lat="48.26612" lon="3.20275">
        <ele>96</ele>
        <time>2014-04-20T07:44:47.979Z</time>
      </trkpt>
      <trkpt lat="48.26618" lon="3.20286">
        <ele>95</ele>
        <time>2014-04-20T07:44:48.979Z</time>
      </trkpt>
      <trkpt lat="48.26623" lon="3.20294">
        <ele>95</ele>
        <time>2014-04-20T07:44:49.979Z</time>
      </trkpt>
      <trkpt lat="48.26629" lon="3.20305">
        <ele>94</ele>
        <time>2014-04-20T07:44:50.979Z</time>
      </trkpt>
      <trkpt lat="48.26634" lon="3.20314">
        <ele>94</ele>
        <time>2014-04-20T07:44:51.979Z</time>
      </trkpt>
      <trkpt lat="48.26638" lon="3.20324">
        <ele>93</ele>
        <time>2014-04-20T07:44:52.979Z</time>
      </trkpt>
      <trkpt lat="48.26644" lon="3.20333">
        <ele>93</ele>
        <time>2014-04-20T07:44:53.979Z</time>
      </trkpt>
      <trkpt lat="48.26648" lon="3.20344">
        <ele>92</ele>
        <time>2014-04-20T07:44:54.979Z</time>
      </trkpt>
      <trkpt lat="48.26653" lon="3.20354">
        <ele>92</ele>
        <time>2014-04-20T07:44:55.979Z</time>
      </trkpt>
      <trkpt lat="48.2666" lon="3.20365">
        <ele>92</ele>
        <time>2014-04-20T07:44:56.979Z</time>
      </trkpt>
      <trkpt lat="48.26665" lon="3.20376">
        <ele>92</ele>
        <time>2014-04-20T07:44:57.979Z</time>
      </trkpt>
      <trkpt lat="48.26672" lon="3.20387">
        <ele>90</ele>
        <time>2014-04-20T07:44:58.979Z</time>
      </trkpt>
      <trkpt lat="48.26678" lon="3.20397">
        <ele>90</ele>
        <time>2014-04-20T07:44:59.979Z</time>
      </trkpt>
      <trkpt lat="48.26684" lon="3.20408">
        <ele>91</ele>
        <time>2014-04-20T07:45:00.979Z</time>
      </trkpt>
      <trkpt lat="48.26692" lon="3.20419">
        <ele>90</ele>
        <time>2014-04-20T07:45:01.979Z</time>
      </trkpt>
      <trkpt lat="48.26698" lon="3.2043">
        <ele>90</ele>
        <time>2014-04-20T07:45:02.979Z</time>
      </trkpt>
      <trkpt lat="48.26705" lon="3.2044">
        <ele>89</ele>
        <time>2014-04-20T07:45:03.979Z</time>
      </trkpt>
      <trkpt lat="48.26712" lon="3.20453">
        <ele>89</ele>
        <time>2014-04-20T07:45:04.979Z</time>
      </trkpt>
      <trkpt lat="48.26719" lon="3.20464">
        <ele>89</ele>
        <time>2014-04-20T07:45:05.979Z</time>
      </trkpt>
      <trkpt lat="48.26725" lon="3.20477">
        <ele>88</ele>
        <time>2014-04-20T07:45:06.979Z</time>
      </trkpt>
      <trkpt lat="48.26732" lon="3.20487">
        <ele>88</ele>
        <time>2014-04-20T07:45:07.979Z</time>
      </trkpt>
      <trkpt lat="48.26739" lon="3.20498">
        <ele>87</ele>
        <time>2014-04-20T07:45:08.979Z</time>
      </trkpt>
      <trkpt lat="48.26746" lon="3.20509">
        <ele>87</ele>
        <time>2014-04-20T07:45:09.979Z</time>
      </trkpt>
      <trkpt lat="48.26752" lon="3.2052">
        <ele>87</ele>
        <time>2014-04-20T07:45:10.979Z</time>
      </trkpt>
      <trkpt lat="48.26759" lon="3.20528">
        <ele>87</ele>
        <time>2014-04-20T07:45:11.979Z</time>
      </trkpt>
      <trkpt lat="48.26765" lon="3.20537">
        <ele>87</ele>
        <time>2014-04-20T07:45:12.979Z</time>
      </trkpt>
      <trkpt lat="48.26771" lon="3.20548">
        <ele>87</ele>
        <time>2014-04-20T07:45:13.979Z</time>
      </trkpt>
      <trkpt lat="48.26778" lon="3.20556">
        <ele>87</ele>
        <time>2014-04-20T07:45:14.979Z</time>
      </trkpt>
      <trkpt lat="48.26783" lon="3.20565">
        <ele>87</ele>
        <time>2014-04-20T07:45:15.979Z</time>
      </trkpt>
      <trkpt lat="48.26789" lon="3.20575">
        <ele>87</ele>
        <time>2014-04-20T07:45:16.979Z</time>
      </trkpt>
      <trkpt lat="48.26794" lon="3.20584">
        <ele>86</ele>
        <time>2014-04-20T07:45:17.979Z</time>
      </trkpt>
      <trkpt lat="48.26798" lon="3.20593">
        <ele>86</ele>
        <time>2014-04-20T07:45:18.979Z</time>
      </trkpt>
      <trkpt lat="48.26804" lon="3.20601">
        <ele>85</ele>
        <time>2014-04-20T07:45:19.979Z</time>
      </trkpt>
      <trkpt lat="48.26809" lon="3.20608">
        <ele>85</ele>
        <time>2014-04-20T07:45:20.979Z</time>
      </trkpt>
      <trkpt lat="48.26814" lon="3.20616">
        <ele>85</ele>
        <time>2014-04-20T07:45:21.979Z</time>
      </trkpt>
      <trkpt lat="48.2682" lon="3.20625">
        <ele>85</ele>
        <time>2014-04-20T07:45:22.979Z</time>
      </trkpt>
      <trkpt lat="48.26825" lon="3.20631">
        <ele>85</ele>
        <time>2014-04-20T07:45:23.979Z</time>
      </trkpt>
      <trkpt lat="48.26829" lon="3.20638">
        <ele>84</ele>
        <time>2014-04-20T07:45:24.979Z</time>
      </trkpt>
      <trkpt lat="48.26835" lon="3.20646">
        <ele>85</ele>
        <time>2014-04-20T07:45:25.979Z</time>
      </trkpt>
      <trkpt lat="48.26839" lon="3.20653">
        <ele>85</ele>
        <time>2014-04-20T07:45:26.979Z</time>
      </trkpt>
      <trkpt lat="48.26843" lon="3.20661">
        <ele>84</ele>
        <time>2014-04-20T07:45:27.979Z</time>
      </trkpt>
      <trkpt lat="48.26846" lon="3.20668">
        <ele>83</ele>
        <time>2014-04-20T07:45:28.979Z</time>
      </trkpt>
      <trkpt lat="48.2685" lon="3.20676">
        <ele>83</ele>
        <time>2014-04-20T07:45:29.979Z</time>
      </trkpt>
      <trkpt lat="48.26853" lon="3.20683">
        <ele>83</ele>
        <time>2014-04-20T07:45:30.979Z</time>
      </trkpt>
      <trkpt lat="48.26855" lon="3.20689">
        <ele>83</ele>
        <time>2014-04-20T07:45:31.979Z</time>
      </trkpt>
      <trkpt lat="48.26857" lon="3.20693">
        <ele>83</ele>
        <time>2014-04-20T07:45:32.979Z</time>
      </trkpt>
      <trkpt lat="48.26858" lon="3.207">
        <ele>83</ele>
        <time>2014-04-20T07:45:33.979Z</time>
      </trkpt>
      <trkpt lat="48.26862" lon="3.20702">
        <ele>83</ele>
        <time>2014-04-20T07:45:34.979Z</time>
      </trkpt>
      <trkpt lat="48.26865" lon="3.20704">
        <ele>84</ele>
        <time>2014-04-20T07:45:35.979Z</time>
      </trkpt>
      <trkpt lat="48.26868" lon="3.20704">
        <ele>84</ele>
        <time>2014-04-20T07:45:36.979Z</time>
      </trkpt>
      <trkpt lat="48.26871" lon="3.20702">
        <ele>84</ele>
        <time>2014-04-20T07:45:37.979Z</time>
      </trkpt>
      <trkpt lat="48.26874" lon="3.20698">
        <ele>84</ele>
        <time>2014-04-20T07:45:38.979Z</time>
      </trkpt>
      <trkpt lat="48.26877" lon="3.20693">
        <ele>84</ele>
        <time>2014-04-20T07:45:39.979Z</time>
      </trkpt>
      <trkpt lat="48.2688" lon="3.20689">
        <ele>84</ele>
        <time>2014-04-20T07:45:40.979Z</time>
      </trkpt>
      <trkpt lat="48.26883" lon="3.20685">
        <ele>85</ele>
        <time>2014-04-20T07:45:41.979Z</time>
      </trkpt>
      <trkpt lat="48.26887" lon="3.20681">
        <ele>85</ele>
        <time>2014-04-20T07:45:42.979Z</time>
      </trkpt>
      <trkpt lat="48.26892" lon="3.20681">
        <ele>85</ele>
        <time>2014-04-20T07:45:43.979Z</time>
      </trkpt>
      <trkpt lat="48.26896" lon="3.20681">
        <ele>86</ele>
        <time>2014-04-20T07:45:44.979Z</time>
      </trkpt>
      <trkpt lat="48.26899" lon="3.20685">
        <ele>86</ele>
        <time>2014-04-20T07:45:45.979Z</time>
      </trkpt>
      <trkpt lat="48.26903" lon="3.20689">
        <ele>85</ele>
        <time>2014-04-20T07:45:46.979Z</time>
      </trkpt>
      <trkpt lat="48.26908" lon="3.20693">
        <ele>85</ele>
        <time>2014-04-20T07:45:47.979Z</time>
      </trkpt>
      <trkpt lat="48.26912" lon="3.20698">
        <ele>85</ele>
        <time>2014-04-20T07:45:48.979Z</time>
      </trkpt>
      <trkpt lat="48.26916" lon="3.20704">
        <ele>85</ele>
        <time>2014-04-20T07:45:49.979Z</time>
      </trkpt>
      <trkpt lat="48.26919" lon="3.20709">
        <ele>89</ele>
        <time>2014-04-20T07:45:50.979Z</time>
      </trkpt>
      <trkpt lat="48.26923" lon="3.20713">
        <ele>89</ele>
        <time>2014-04-20T07:45:51.979Z</time>
      </trkpt>
      <trkpt lat="48.26925" lon="3.20715">
        <ele>89</ele>
        <time>2014-04-20T07:45:52.979Z</time>
      </trkpt>
      <trkpt lat="48.26926" lon="3.20719">
        <ele>89</ele>
        <time>2014-04-20T07:45:53.979Z</time>
      </trkpt>
      <trkpt lat="48.26928" lon="3.20721">
        <ele>89</ele>
        <time>2014-04-20T07:45:54.979Z</time>
      </trkpt>
      <trkpt lat="48.2693" lon="3.20724">
        <ele>89</ele>
        <time>2014-04-20T07:45:55.979Z</time>
      </trkpt>
      <trkpt lat="48.26932" lon="3.20728">
        <ele>88</ele>
        <time>2014-04-20T07:45:56.979Z</time>
      </trkpt>
      <trkpt lat="48.26934" lon="3.20734">
        <ele>88</ele>
        <time>2014-04-20T07:45:57.979Z</time>
      </trkpt>
      <trkpt lat="48.26937" lon="3.20739">
        <ele>88</ele>
        <time>2014-04-20T07:45:58.979Z</time>
      </trkpt>
      <trkpt lat="48.2694" lon="3.20743">
        <ele>88</ele>
        <time>2014-04-20T07:45:59.979Z</time>
      </trkpt>
      <trkpt lat="48.26942" lon="3.20749">
        <ele>88</ele>
        <time>2014-04-20T07:46:00.979Z</time>
      </trkpt>
      <trkpt lat="48.26944" lon="3.20756">
        <ele>86</ele>
        <time>2014-04-20T07:46:01.979Z</time>
      </trkpt>
      <trkpt lat="48.26946" lon="3.2076">
        <ele>86</ele>
        <time>2014-04-20T07:46:02.979Z</time>
      </trkpt>
      <trkpt lat="48.26949" lon="3.20766">
        <ele>86</ele>
        <time>2014-04-20T07:46:03.979Z</time>
      </trkpt>
      <trkpt lat="48.26953" lon="3.20771">
        <ele>86</ele>
        <time>2014-04-20T07:46:04.979Z</time>
      </trkpt>
      <trkpt lat="48.26956" lon="3.20777">
        <ele>86</ele>
        <time>2014-04-20T07:46:05.979Z</time>
      </trkpt>
      <trkpt lat="48.26959" lon="3.20781">
        <ele>87</ele>
        <time>2014-04-20T07:46:06.979Z</time>
      </trkpt>
      <trkpt lat="48.26962" lon="3.20786">
        <ele>87</ele>
        <time>2014-04-20T07:46:07.979Z</time>
      </trkpt>
      <trkpt lat="48.26967" lon="3.2079">
        <ele>87</ele>
        <time>2014-04-20T07:46:08.979Z</time>
      </trkpt>
      <trkpt lat="48.26971" lon="3.20794">
        <ele>87</ele>
        <time>2014-04-20T07:46:09.979Z</time>
      </trkpt>
      <trkpt lat="48.26974" lon="3.20799">
        <ele>87</ele>
        <time>2014-04-20T07:46:10.979Z</time>
      </trkpt>
      <trkpt lat="48.26978" lon="3.20803">
        <ele>87</ele>
        <time>2014-04-20T07:46:11.979Z</time>
      </trkpt>
      <trkpt lat="48.26982" lon="3.20805">
        <ele>87</ele>
        <time>2014-04-20T07:46:12.979Z</time>
      </trkpt>
      <trkpt lat="48.26986" lon="3.20809">
        <ele>87</ele>
        <time>2014-04-20T07:46:13.979Z</time>
      </trkpt>
      <trkpt lat="48.26989" lon="3.20814">
        <ele>87</ele>
        <time>2014-04-20T07:46:14.979Z</time>
      </trkpt>
      <trkpt lat="48.26992" lon="3.20816">
        <ele>87</ele>
        <time>2014-04-20T07:46:15.979Z</time>
      </trkpt>
      <trkpt lat="48.26996" lon="3.2082">
        <ele>87</ele>
        <time>2014-04-20T07:46:16.979Z</time>
      </trkpt>
      <trkpt lat="48.26999" lon="3.20822">
        <ele>88</ele>
        <time>2014-04-20T07:46:17.979Z</time>
      </trkpt>
      <trkpt lat="48.27002" lon="3.20827">
        <ele>90</ele>
        <time>2014-04-20T07:46:18.979Z</time>
      </trkpt>
      <trkpt lat="48.27005" lon="3.20829">
        <ele>90</ele>
        <time>2014-04-20T07:46:19.979Z</time>
      </trkpt>
      <trkpt lat="48.27007" lon="3.20833">
        <ele>91</ele>
        <time>2014-04-20T07:46:20.979Z</time>
      </trkpt>
      <trkpt lat="48.27011" lon="3.20835">
        <ele>89</ele>
        <time>2014-04-20T07:46:21.979Z</time>
      </trkpt>
      <trkpt lat="48.27013" lon="3.20837">
        <ele>89</ele>
        <time>2014-04-20T07:46:22.979Z</time>
      </trkpt>
      <trkpt lat="48.27015" lon="3.20839">
        <ele>89</ele>
        <time>2014-04-20T07:46:23.979Z</time>
      </trkpt>
      <trkpt lat="48.27017" lon="3.20842">
        <ele>90</ele>
        <time>2014-04-20T07:46:24.979Z</time>
      </trkpt>
      <trkpt lat="48.2702" lon="3.20846">
        <ele>90</ele>
        <time>2014-04-20T07:46:25.979Z</time>
      </trkpt>
      <trkpt lat="48.27022" lon="3.20848">
        <ele>90</ele>
        <time>2014-04-20T07:46:26.979Z</time>
      </trkpt>
      <trkpt lat="48.27026" lon="3.20852">
        <ele>90</ele>
        <time>2014-04-20T07:46:27.979Z</time>
      </trkpt>
      <trkpt lat="48.27028" lon="3.20854">
        <ele>90</ele>
        <time>2014-04-20T07:46:28.979Z</time>
      </trkpt>
      <trkpt lat="48.27031" lon="3.20857">
        <ele>90</ele>
        <time>2014-04-20T07:46:29.979Z</time>
      </trkpt>
      <trkpt lat="48.27033" lon="3.20861">
        <ele>90</ele>
        <time>2014-04-20T07:46:30.979Z</time>
      </trkpt>
      <trkpt lat="48.27036" lon="3.20863">
        <ele>91</ele>
        <time>2014-04-20T07:46:31.979Z</time>
      </trkpt>
      <trkpt lat="48.27039" lon="3.20867">
        <ele>91</ele>
        <time>2014-04-20T07:46:32.979Z</time>
      </trkpt>
      <trkpt lat="48.27042" lon="3.20872">
        <ele>91</ele>
        <time>2014-04-20T07:46:33.979Z</time>
      </trkpt>
      <trkpt lat="48.27044" lon="3.20874">
        <ele>91</ele>
        <time>2014-04-20T07:46:34.979Z</time>
      </trkpt>
      <trkpt lat="48.27047" lon="3.20878">
        <ele>91</ele>
        <time>2014-04-20T07:46:35.979Z</time>
      </trkpt>
      <trkpt lat="48.2705" lon="3.20882">
        <ele>91</ele>
        <time>2014-04-20T07:46:36.979Z</time>
      </trkpt>
      <trkpt lat="48.27052" lon="3.20887">
        <ele>91</ele>
        <time>2014-04-20T07:46:37.979Z</time>
      </trkpt>
      <trkpt lat="48.27055" lon="3.20891">
        <ele>91</ele>
        <time>2014-04-20T07:46:38.979Z</time>
      </trkpt>
      <trkpt lat="48.27058" lon="3.20893">
        <ele>91</ele>
        <time>2014-04-20T07:46:39.979Z</time>
      </trkpt>
      <trkpt lat="48.2706" lon="3.20897">
        <ele>91</ele>
        <time>2014-04-20T07:46:40.979Z</time>
      </trkpt>
      <trkpt lat="48.27062" lon="3.20902">
        <ele>91</ele>
        <time>2014-04-20T07:46:41.979Z</time>
      </trkpt>
      <trkpt lat="48.27064" lon="3.20906">
        <ele>91</ele>
        <time>2014-04-20T07:46:42.979Z</time>
      </trkpt>
      <trkpt lat="48.27066" lon="3.2091">
        <ele>91</ele>
        <time>2014-04-20T07:46:43.979Z</time>
      </trkpt>
      <trkpt lat="48.27069" lon="3.20915">
        <ele>92</ele>
        <time>2014-04-20T07:46:44.979Z</time>
      </trkpt>
      <trkpt lat="48.27072" lon="3.20919">
        <ele>89</ele>
        <time>2014-04-20T07:46:45.979Z</time>
      </trkpt>
      <trkpt lat="48.27074" lon="3.20923">
        <ele>89</ele>
        <time>2014-04-20T07:46:46.979Z</time>
      </trkpt>
      <trkpt lat="48.27076" lon="3.20927">
        <ele>89</ele>
        <time>2014-04-20T07:46:47.979Z</time>
      </trkpt>
      <trkpt lat="48.27078" lon="3.2093">
        <ele>89</ele>
        <time>2014-04-20T07:46:48.979Z</time>
      </trkpt>
      <trkpt lat="48.2708" lon="3.20934">
        <ele>88</ele>
        <time>2014-04-20T07:46:49.979Z</time>
      </trkpt>
      <trkpt lat="48.27083" lon="3.20938">
        <ele>88</ele>
        <time>2014-04-20T07:46:50.979Z</time>
      </trkpt>
      <trkpt lat="48.27086" lon="3.20942">
        <ele>92</ele>
        <time>2014-04-20T07:46:51.979Z</time>
      </trkpt>
      <trkpt lat="48.27088" lon="3.20945">
        <ele>92</ele>
        <time>2014-04-20T07:46:52.979Z</time>
      </trkpt>
      <trkpt lat="48.2709" lon="3.20949">
        <ele>92</ele>
        <time>2014-04-20T07:46:53.979Z</time>
      </trkpt>
      <trkpt lat="48.27092" lon="3.20951">
        <ele>92</ele>
        <time>2014-04-20T07:46:54.979Z</time>
      </trkpt>
      <trkpt lat="48.27095" lon="3.20951">
        <ele>92</ele>
        <time>2014-04-20T07:46:55.979Z</time>
      </trkpt>
      <trkpt lat="48.27099" lon="3.20951">
        <ele>92</ele>
        <time>2014-04-20T07:46:56.979Z</time>
      </trkpt>
      <trkpt lat="48.27101" lon="3.20951">
        <ele>92</ele>
        <time>2014-04-20T07:46:57.979Z</time>
      </trkpt>
      <trkpt lat="48.27104" lon="3.20949">
        <ele>92</ele>
        <time>2014-04-20T07:46:58.979Z</time>
      </trkpt>
      <trkpt lat="48.27106" lon="3.20947">
        <ele>93</ele>
        <time>2014-04-20T07:46:59.979Z</time>
      </trkpt>
      <trkpt lat="48.27109" lon="3.20945">
        <ele>93</ele>
        <time>2014-04-20T07:47:00.979Z</time>
      </trkpt>
      <trkpt lat="48.27111" lon="3.20942">
        <ele>93</ele>
        <time>2014-04-20T07:47:01.979Z</time>
      </trkpt>
      <trkpt lat="48.27115" lon="3.2094">
        <ele>93</ele>
        <time>2014-04-20T07:47:02.979Z</time>
      </trkpt>
      <trkpt lat="48.27117" lon="3.20938">
        <ele>94</ele>
        <time>2014-04-20T07:47:03.979Z</time>
      </trkpt>
      <trkpt lat="48.2712" lon="3.20938">
        <ele>94</ele>
        <time>2014-04-20T07:47:04.979Z</time>
      </trkpt>
      <trkpt lat="48.27123" lon="3.20936">
        <ele>94</ele>
        <time>2014-04-20T07:47:05.979Z</time>
      </trkpt>
      <trkpt lat="48.27125" lon="3.20934">
        <ele>94</ele>
        <time>2014-04-20T07:47:06.979Z</time>
      </trkpt>
      <trkpt lat="48.27129" lon="3.20932">
        <ele>95</ele>
        <time>2014-04-20T07:47:07.979Z</time>
      </trkpt>
      <trkpt lat="48.27131" lon="3.2093">
        <ele>95</ele>
        <time>2014-04-20T07:47:08.979Z</time>
      </trkpt>
      <trkpt lat="48.27133" lon="3.2093">
        <ele>95</ele>
        <time>2014-04-20T07:47:09.979Z</time>
      </trkpt>
      <trkpt lat="48.27135" lon="3.20927">
        <ele>95</ele>
        <time>2014-04-20T07:47:10.979Z</time>
      </trkpt>
      <trkpt lat="48.27137" lon="3.20925">
        <ele>96</ele>
        <time>2014-04-20T07:47:11.979Z</time>
      </trkpt>
      <trkpt lat="48.27139" lon="3.20925">
        <ele>96</ele>
        <time>2014-04-20T07:47:12.979Z</time>
      </trkpt>
      <trkpt lat="48.27142" lon="3.20923">
        <ele>96</ele>
        <time>2014-04-20T07:47:13.979Z</time>
      </trkpt>
      <trkpt lat="48.27144" lon="3.20921">
        <ele>97</ele>
        <time>2014-04-20T07:47:14.979Z</time>
      </trkpt>
      <trkpt lat="48.27146" lon="3.20921">
        <ele>97</ele>
        <time>2014-04-20T07:47:15.979Z</time>
      </trkpt>
      <trkpt lat="48.27148" lon="3.20919">
        <ele>97</ele>
        <time>2014-04-20T07:47:18.979Z</time>
      </trkpt>
      <trkpt lat="48.27153" lon="3.20915">
        <ele>101</ele>
        <time>2014-04-20T07:47:19.979Z</time>
      </trkpt>
      <trkpt lat="48.27153" lon="3.20915">
        <ele>101</ele>
        <time>2014-04-20T07:47:21.979Z</time>
      </trkpt>
      <trkpt lat="48.27159" lon="3.2091">
        <ele>102</ele>
        <time>2014-04-20T07:47:22.979Z</time>
      </trkpt>
      <trkpt lat="48.27159" lon="3.2091">
        <ele>102</ele>
        <time>2014-04-20T07:47:24.979Z</time>
      </trkpt>
      <trkpt lat="48.27164" lon="3.20904">
        <ele>102</ele>
        <time>2014-04-20T07:47:25.979Z</time>
      </trkpt>
      <trkpt lat="48.27164" lon="3.20904">
        <ele>102</ele>
        <time>2014-04-20T07:47:27.979Z</time>
      </trkpt>
      <trkpt lat="48.27168" lon="3.20897">
        <ele>103</ele>
        <time>2014-04-20T07:47:28.979Z</time>
      </trkpt>
      <trkpt lat="48.27168" lon="3.20897">
        <ele>103</ele>
        <time>2014-04-20T07:47:30.979Z</time>
      </trkpt>
      <trkpt lat="48.27173" lon="3.20891">
        <ele>103</ele>
        <time>2014-04-20T07:47:31.979Z</time>
      </trkpt>
      <trkpt lat="48.27173" lon="3.20891">
        <ele>103</ele>
        <time>2014-04-20T07:47:33.979Z</time>
      </trkpt>
      <trkpt lat="48.27177" lon="3.20887">
        <ele>103</ele>
        <time>2014-04-20T07:47:34.979Z</time>
      </trkpt>
      <trkpt lat="48.27177" lon="3.20887">
        <ele>103</ele>
        <time>2014-04-20T07:47:38.979Z</time>
      </trkpt>
      <trkpt lat="48.27186" lon="3.20882">
        <ele>103</ele>
        <time>2014-04-20T07:47:39.979Z</time>
      </trkpt>
      <trkpt lat="48.2719" lon="3.20882">
        <ele>103</ele>
        <time>2014-04-20T07:47:42.979Z</time>
      </trkpt>
      <trkpt lat="48.27194" lon="3.20882">
        <ele>103</ele>
        <time>2014-04-20T07:47:43.979Z</time>
      </trkpt>
      <trkpt lat="48.27194" lon="3.20882">
        <ele>103</ele>
        <time>2014-04-20T07:47:44.979Z</time>
      </trkpt>
      <trkpt lat="48.27199" lon="3.20882">
        <ele>103</ele>
        <time>2014-04-20T07:47:45.979Z</time>
      </trkpt>
      <trkpt lat="48.27202" lon="3.20882">
        <ele>103</ele>
        <time>2014-04-20T07:47:46.979Z</time>
      </trkpt>
      <trkpt lat="48.27205" lon="3.20882">
        <ele>103</ele>
        <time>2014-04-20T07:47:47.979Z</time>
      </trkpt>
      <trkpt lat="48.27207" lon="3.20882">
        <ele>103</ele>
        <time>2014-04-20T07:47:48.979Z</time>
      </trkpt>
      <trkpt lat="48.2721" lon="3.20882">
        <ele>103</ele>
        <time>2014-04-20T07:47:49.979Z</time>
      </trkpt>
      <trkpt lat="48.27212" lon="3.20882">
        <ele>103</ele>
        <time>2014-04-20T07:47:50.979Z</time>
      </trkpt>
      <trkpt lat="48.27216" lon="3.2088">
        <ele>103</ele>
        <time>2014-04-20T07:47:51.979Z</time>
      </trkpt>
      <trkpt lat="48.27219" lon="3.2088">
        <ele>103</ele>
        <time>2014-04-20T07:47:52.979Z</time>
      </trkpt>
      <trkpt lat="48.27221" lon="3.2088">
        <ele>103</ele>
        <time>2014-04-20T07:47:53.979Z</time>
      </trkpt>
      <trkpt lat="48.27224" lon="3.2088">
        <ele>102</ele>
        <time>2014-04-20T07:47:54.979Z</time>
      </trkpt>
      <trkpt lat="48.27227" lon="3.2088">
        <ele>102</ele>
        <time>2014-04-20T07:47:55.979Z</time>
      </trkpt>
      <trkpt lat="48.27231" lon="3.20878">
        <ele>102</ele>
        <time>2014-04-20T07:47:56.979Z</time>
      </trkpt>
      <trkpt lat="48.27234" lon="3.20878">
        <ele>102</ele>
        <time>2014-04-20T07:47:57.979Z</time>
      </trkpt>
      <trkpt lat="48.27237" lon="3.20878">
        <ele>102</ele>
        <time>2014-04-20T07:47:58.979Z</time>
      </trkpt>
      <trkpt lat="48.2724" lon="3.20876">
        <ele>102</ele>
        <time>2014-04-20T07:47:59.979Z</time>
      </trkpt>
      <trkpt lat="48.27243" lon="3.20874">
        <ele>102</ele>
        <time>2014-04-20T07:48:00.979Z</time>
      </trkpt>
      <trkpt lat="48.27247" lon="3.20872">
        <ele>102</ele>
        <time>2014-04-20T07:48:01.979Z</time>
      </trkpt>
      <trkpt lat="48.2725" lon="3.20869">
        <ele>102</ele>
        <time>2014-04-20T07:48:02.979Z</time>
      </trkpt>
      <trkpt lat="48.27253" lon="3.20867">
        <ele>100</ele>
        <time>2014-04-20T07:48:03.979Z</time>
      </trkpt>
      <trkpt lat="48.27255" lon="3.20865">
        <ele>100</ele>
        <time>2014-04-20T07:48:04.979Z</time>
      </trkpt>
      <trkpt lat="48.27258" lon="3.20863">
        <ele>100</ele>
        <time>2014-04-20T07:48:05.979Z</time>
      </trkpt>
      <trkpt lat="48.27262" lon="3.20861">
        <ele>100</ele>
        <time>2014-04-20T07:48:06.979Z</time>
      </trkpt>
      <trkpt lat="48.27264" lon="3.20857">
        <ele>100</ele>
        <time>2014-04-20T07:48:07.979Z</time>
      </trkpt>
      <trkpt lat="48.27266" lon="3.20854">
        <ele>100</ele>
        <time>2014-04-20T07:48:08.979Z</time>
      </trkpt>
      <trkpt lat="48.27268" lon="3.20852">
        <ele>100</ele>
        <time>2014-04-20T07:48:09.979Z</time>
      </trkpt>
      <trkpt lat="48.27271" lon="3.20848">
        <ele>100</ele>
        <time>2014-04-20T07:48:10.979Z</time>
      </trkpt>
      <trkpt lat="48.27273" lon="3.20846">
        <ele>100</ele>
        <time>2014-04-20T07:48:11.979Z</time>
      </trkpt>
      <trkpt lat="48.27276" lon="3.20844">
        <ele>100</ele>
        <time>2014-04-20T07:48:12.979Z</time>
      </trkpt>
      <trkpt lat="48.27279" lon="3.20839">
        <ele>100</ele>
        <time>2014-04-20T07:48:13.979Z</time>
      </trkpt>
      <trkpt lat="48.27281" lon="3.20837">
        <ele>100</ele>
        <time>2014-04-20T07:48:14.979Z</time>
      </trkpt>
      <trkpt lat="48.27284" lon="3.20833">
        <ele>102</ele>
        <time>2014-04-20T07:48:15.979Z</time>
      </trkpt>
      <trkpt lat="48.27287" lon="3.20831">
        <ele>102</ele>
        <time>2014-04-20T07:48:16.979Z</time>
      </trkpt>
      <trkpt lat="48.27292" lon="3.20827">
        <ele>102</ele>
        <time>2014-04-20T07:48:17.979Z</time>
      </trkpt>
      <trkpt lat="48.27295" lon="3.20824">
        <ele>102</ele>
        <time>2014-04-20T07:48:18.979Z</time>
      </trkpt>
      <trkpt lat="48.27298" lon="3.2082">
        <ele>102</ele>
        <time>2014-04-20T07:48:19.979Z</time>
      </trkpt>
      <trkpt lat="48.27302" lon="3.20818">
        <ele>101</ele>
        <time>2014-04-20T07:48:20.979Z</time>
      </trkpt>
      <trkpt lat="48.27306" lon="3.20816">
        <ele>101</ele>
        <time>2014-04-20T07:48:21.979Z</time>
      </trkpt>
      <trkpt lat="48.2731" lon="3.20812">
        <ele>101</ele>
        <time>2014-04-20T07:48:22.979Z</time>
      </trkpt>
      <trkpt lat="48.27313" lon="3.20809">
        <ele>101</ele>
        <time>2014-04-20T07:48:23.979Z</time>
      </trkpt>
      <trkpt lat="48.27316" lon="3.20805">
        <ele>101</ele>
        <time>2014-04-20T07:48:24.979Z</time>
      </trkpt>
      <trkpt lat="48.27321" lon="3.20803">
        <ele>101</ele>
        <time>2014-04-20T07:48:25.979Z</time>
      </trkpt>
      <trkpt lat="48.27324" lon="3.20799">
        <ele>102</ele>
        <time>2014-04-20T07:48:26.979Z</time>
      </trkpt>
      <trkpt lat="48.27327" lon="3.20796">
        <ele>102</ele>
        <time>2014-04-20T07:48:27.979Z</time>
      </trkpt>
      <trkpt lat="48.2733" lon="3.20792">
        <ele>102</ele>
        <time>2014-04-20T07:48:28.979Z</time>
      </trkpt>
      <trkpt lat="48.27334" lon="3.20788">
        <ele>101</ele>
        <time>2014-04-20T07:48:29.979Z</time>
      </trkpt>
      <trkpt lat="48.27336" lon="3.20784">
        <ele>101</ele>
        <time>2014-04-20T07:48:30.979Z</time>
      </trkpt>
      <trkpt lat="48.27339" lon="3.20779">
        <ele>101</ele>
        <time>2014-04-20T07:48:31.979Z</time>
      </trkpt>
      <trkpt lat="48.27341" lon="3.20775">
        <ele>101</ele>
        <time>2014-04-20T07:48:32.979Z</time>
      </trkpt>
      <trkpt lat="48.27344" lon="3.20771">
        <ele>101</ele>
        <time>2014-04-20T07:48:33.979Z</time>
      </trkpt>
      <trkpt lat="48.27346" lon="3.20764">
        <ele>101</ele>
        <time>2014-04-20T07:48:34.979Z</time>
      </trkpt>
      <trkpt lat="48.27349" lon="3.2076">
        <ele>102</ele>
        <time>2014-04-20T07:48:35.979Z</time>
      </trkpt>
      <trkpt lat="48.27351" lon="3.20756">
        <ele>102</ele>
        <time>2014-04-20T07:48:36.979Z</time>
      </trkpt>
      <trkpt lat="48.27354" lon="3.20749">
        <ele>103</ele>
        <time>2014-04-20T07:48:37.979Z</time>
      </trkpt>
      <trkpt lat="48.27356" lon="3.20745">
        <ele>103</ele>
        <time>2014-04-20T07:48:38.979Z</time>
      </trkpt>
      <trkpt lat="48.27358" lon="3.20739">
        <ele>103</ele>
        <time>2014-04-20T07:48:39.979Z</time>
      </trkpt>
      <trkpt lat="48.27361" lon="3.20734">
        <ele>103</ele>
        <time>2014-04-20T07:48:40.979Z</time>
      </trkpt>
      <trkpt lat="48.27364" lon="3.20728">
        <ele>103</ele>
        <time>2014-04-20T07:48:41.979Z</time>
      </trkpt>
      <trkpt lat="48.27366" lon="3.20724">
        <ele>104</ele>
        <time>2014-04-20T07:48:42.979Z</time>
      </trkpt>
      <trkpt lat="48.27369" lon="3.20717">
        <ele>104</ele>
        <time>2014-04-20T07:48:43.979Z</time>
      </trkpt>
      <trkpt lat="48.27371" lon="3.20713">
        <ele>104</ele>
        <time>2014-04-20T07:48:44.979Z</time>
      </trkpt>
      <trkpt lat="48.27374" lon="3.20706">
        <ele>104</ele>
        <time>2014-04-20T07:48:45.979Z</time>
      </trkpt>
      <trkpt lat="48.27378" lon="3.20702">
        <ele>104</ele>
        <time>2014-04-20T07:48:46.979Z</time>
      </trkpt>
      <trkpt lat="48.27381" lon="3.20698">
        <ele>104</ele>
        <time>2014-04-20T07:48:47.979Z</time>
      </trkpt>
      <trkpt lat="48.27384" lon="3.20693">
        <ele>104</ele>
        <time>2014-04-20T07:48:48.979Z</time>
      </trkpt>
      <trkpt lat="48.27387" lon="3.20689">
        <ele>104</ele>
        <time>2014-04-20T07:48:49.979Z</time>
      </trkpt>
      <trkpt lat="48.27392" lon="3.20685">
        <ele>104</ele>
        <time>2014-04-20T07:48:50.979Z</time>
      </trkpt>
      <trkpt lat="48.27395" lon="3.20681">
        <ele>104</ele>
        <time>2014-04-20T07:48:51.979Z</time>
      </trkpt>
      <trkpt lat="48.27398" lon="3.20678">
        <ele>104</ele>
        <time>2014-04-20T07:48:52.979Z</time>
      </trkpt>
      <trkpt lat="48.27402" lon="3.20674">
        <ele>104</ele>
        <time>2014-04-20T07:48:53.979Z</time>
      </trkpt>
      <trkpt lat="48.27407" lon="3.2067">
        <ele>105</ele>
        <time>2014-04-20T07:48:54.979Z</time>
      </trkpt>
      <trkpt lat="48.2741" lon="3.20666">
        <ele>106</ele>
        <time>2014-04-20T07:48:55.979Z</time>
      </trkpt>
      <trkpt lat="48.27414" lon="3.20661">
        <ele>106</ele>
        <time>2014-04-20T07:48:56.979Z</time>
      </trkpt>
      <trkpt lat="48.27417" lon="3.20657">
        <ele>107</ele>
        <time>2014-04-20T07:48:57.979Z</time>
      </trkpt>
      <trkpt lat="48.2742" lon="3.20655">
        <ele>107</ele>
        <time>2014-04-20T07:48:58.979Z</time>
      </trkpt>
      <trkpt lat="48.27424" lon="3.20651">
        <ele>108</ele>
        <time>2014-04-20T07:48:59.979Z</time>
      </trkpt>
      <trkpt lat="48.27427" lon="3.20648">
        <ele>108</ele>
        <time>2014-04-20T07:49:00.979Z</time>
      </trkpt>
      <trkpt lat="48.2743" lon="3.20644">
        <ele>109</ele>
        <time>2014-04-20T07:49:01.979Z</time>
      </trkpt>
      <trkpt lat="48.27432" lon="3.20642">
        <ele>109</ele>
        <time>2014-04-20T07:49:02.979Z</time>
      </trkpt>
      <trkpt lat="48.27435" lon="3.2064">
        <ele>109</ele>
        <time>2014-04-20T07:49:03.979Z</time>
      </trkpt>
      <trkpt lat="48.27438" lon="3.20636">
        <ele>109</ele>
        <time>2014-04-20T07:49:04.979Z</time>
      </trkpt>
      <trkpt lat="48.27441" lon="3.20633">
        <ele>109</ele>
        <time>2014-04-20T07:49:05.979Z</time>
      </trkpt>
      <trkpt lat="48.27443" lon="3.20631">
        <ele>110</ele>
        <time>2014-04-20T07:49:06.979Z</time>
      </trkpt>
      <trkpt lat="48.27446" lon="3.20627">
        <ele>110</ele>
        <time>2014-04-20T07:49:07.979Z</time>
      </trkpt>
      <trkpt lat="48.27448" lon="3.20625">
        <ele>110</ele>
        <time>2014-04-20T07:49:08.979Z</time>
      </trkpt>
      <trkpt lat="48.27451" lon="3.20623">
        <ele>110</ele>
        <time>2014-04-20T07:49:09.979Z</time>
      </trkpt>
      <trkpt lat="48.27454" lon="3.20618">
        <ele>110</ele>
        <time>2014-04-20T07:49:10.979Z</time>
      </trkpt>
      <trkpt lat="48.27456" lon="3.20616">
        <ele>110</ele>
        <time>2014-04-20T07:49:11.979Z</time>
      </trkpt>
      <trkpt lat="48.27459" lon="3.20612">
        <ele>111</ele>
        <time>2014-04-20T07:49:12.979Z</time>
      </trkpt>
      <trkpt lat="48.27461" lon="3.2061">
        <ele>111</ele>
        <time>2014-04-20T07:49:13.979Z</time>
      </trkpt>
      <trkpt lat="48.27463" lon="3.20608">
        <ele>111</ele>
        <time>2014-04-20T07:49:14.979Z</time>
      </trkpt>
      <trkpt lat="48.27467" lon="3.20603">
        <ele>111</ele>
        <time>2014-04-20T07:49:15.979Z</time>
      </trkpt>
      <trkpt lat="48.27469" lon="3.20601">
        <ele>111</ele>
        <time>2014-04-20T07:49:16.979Z</time>
      </trkpt>
      <trkpt lat="48.27472" lon="3.20599">
        <ele>111</ele>
        <time>2014-04-20T07:49:17.979Z</time>
      </trkpt>
      <trkpt lat="48.27474" lon="3.20597">
        <ele>111</ele>
        <time>2014-04-20T07:49:18.979Z</time>
      </trkpt>
      <trkpt lat="48.27476" lon="3.20593">
        <ele>112</ele>
        <time>2014-04-20T07:49:19.979Z</time>
      </trkpt>
      <trkpt lat="48.27478" lon="3.2059">
        <ele>112</ele>
        <time>2014-04-20T07:49:20.979Z</time>
      </trkpt>
      <trkpt lat="48.27482" lon="3.20586">
        <ele>112</ele>
        <time>2014-04-20T07:49:22.979Z</time>
      </trkpt>
      <trkpt lat="48.27484" lon="3.20586">
        <ele>112</ele>
        <time>2014-04-20T07:49:23.979Z</time>
      </trkpt>
      <trkpt lat="48.27487" lon="3.20582">
        <ele>114</ele>
        <time>2014-04-20T07:49:25.979Z</time>
      </trkpt>
      <trkpt lat="48.27489" lon="3.2058">
        <ele>114</ele>
        <time>2014-04-20T07:49:26.979Z</time>
      </trkpt>
      <trkpt lat="48.27491" lon="3.20578">
        <ele>114</ele>
        <time>2014-04-20T07:49:27.979Z</time>
      </trkpt>
      <trkpt lat="48.27493" lon="3.20575">
        <ele>114</ele>
        <time>2014-04-20T07:49:28.979Z</time>
      </trkpt>
      <trkpt lat="48.27497" lon="3.20573">
        <ele>114</ele>
        <time>2014-04-20T07:49:30.979Z</time>
      </trkpt>
      <trkpt lat="48.27499" lon="3.20571">
        <ele>114</ele>
        <time>2014-04-20T07:49:31.979Z</time>
      </trkpt>
      <trkpt lat="48.275" lon="3.20569">
        <ele>114</ele>
        <time>2014-04-20T07:49:33.979Z</time>
      </trkpt>
      <trkpt lat="48.27503" lon="3.20567">
        <ele>116</ele>
        <time>2014-04-20T07:49:34.979Z</time>
      </trkpt>
      <trkpt lat="48.27505" lon="3.20565">
        <ele>117</ele>
        <time>2014-04-20T07:49:36.979Z</time>
      </trkpt>
      <trkpt lat="48.27507" lon="3.2056">
        <ele>117</ele>
        <time>2014-04-20T07:49:37.979Z</time>
      </trkpt>
      <trkpt lat="48.27511" lon="3.20558">
        <ele>117</ele>
        <time>2014-04-20T07:49:41.979Z</time>
      </trkpt>
      <trkpt lat="48.27515" lon="3.20552">
        <ele>118</ele>
        <time>2014-04-20T07:49:42.979Z</time>
      </trkpt>
      <trkpt lat="48.27515" lon="3.20552">
        <ele>118</ele>
        <time>2014-04-20T07:49:44.979Z</time>
      </trkpt>
      <trkpt lat="48.27519" lon="3.20545">
        <ele>118</ele>
        <time>2014-04-20T07:49:45.979Z</time>
      </trkpt>
      <trkpt lat="48.27522" lon="3.20543">
        <ele>118</ele>
        <time>2014-04-20T07:49:49.979Z</time>
      </trkpt>
      <trkpt lat="48.27528" lon="3.20537">
        <ele>119</ele>
        <time>2014-04-20T07:49:50.979Z</time>
      </trkpt>
      <trkpt lat="48.27528" lon="3.20537">
        <ele>119</ele>
        <time>2014-04-20T07:49:52.979Z</time>
      </trkpt>
      <trkpt lat="48.27532" lon="3.20533">
        <ele>119</ele>
        <time>2014-04-20T07:49:53.979Z</time>
      </trkpt>
      <trkpt lat="48.27532" lon="3.20533">
        <ele>119</ele>
        <time>2014-04-20T07:49:55.979Z</time>
      </trkpt>
      <trkpt lat="48.27537" lon="3.20528">
        <ele>119</ele>
        <time>2014-04-20T07:49:56.979Z</time>
      </trkpt>
      <trkpt lat="48.27541" lon="3.20524">
        <ele>119</ele>
        <time>2014-04-20T07:49:58.979Z</time>
      </trkpt>
      <trkpt lat="48.27543" lon="3.20522">
        <ele>119</ele>
        <time>2014-04-20T07:49:59.979Z</time>
      </trkpt>
      <trkpt lat="48.27546" lon="3.20518">
        <ele>120</ele>
        <time>2014-04-20T07:50:01.979Z</time>
      </trkpt>
      <trkpt lat="48.27548" lon="3.20518">
        <ele>120</ele>
        <time>2014-04-20T07:50:02.979Z</time>
      </trkpt>
      <trkpt lat="48.27551" lon="3.20513">
        <ele>120</ele>
        <time>2014-04-20T07:50:04.979Z</time>
      </trkpt>
      <trkpt lat="48.27554" lon="3.20511">
        <ele>120</ele>
        <time>2014-04-20T07:50:05.979Z</time>
      </trkpt>
      <trkpt lat="48.27557" lon="3.20507">
        <ele>121</ele>
        <time>2014-04-20T07:50:07.979Z</time>
      </trkpt>
      <trkpt lat="48.27559" lon="3.20505">
        <ele>121</ele>
        <time>2014-04-20T07:50:08.979Z</time>
      </trkpt>
      <trkpt lat="48.27561" lon="3.20503">
        <ele>121</ele>
        <time>2014-04-20T07:50:09.979Z</time>
      </trkpt>
      <trkpt lat="48.27563" lon="3.205">
        <ele>121</ele>
        <time>2014-04-20T07:50:10.979Z</time>
      </trkpt>
      <trkpt lat="48.27565" lon="3.20498">
        <ele>123</ele>
        <time>2014-04-20T07:50:11.979Z</time>
      </trkpt>
      <trkpt lat="48.27567" lon="3.20496">
        <ele>123</ele>
        <time>2014-04-20T07:50:12.979Z</time>
      </trkpt>
      <trkpt lat="48.27571" lon="3.20492">
        <ele>123</ele>
        <time>2014-04-20T07:50:14.979Z</time>
      </trkpt>
      <trkpt lat="48.27573" lon="3.20492">
        <ele>124</ele>
        <time>2014-04-20T07:50:15.979Z</time>
      </trkpt>
      <trkpt lat="48.27575" lon="3.2049">
        <ele>124</ele>
        <time>2014-04-20T07:50:16.979Z</time>
      </trkpt>
      <trkpt lat="48.27577" lon="3.20487">
        <ele>124</ele>
        <time>2014-04-20T07:50:17.979Z</time>
      </trkpt>
      <trkpt lat="48.2758" lon="3.20483">
        <ele>124</ele>
        <time>2014-04-20T07:50:19.979Z</time>
      </trkpt>
      <trkpt lat="48.27582" lon="3.20481">
        <ele>124</ele>
        <time>2014-04-20T07:50:20.979Z</time>
      </trkpt>
      <trkpt lat="48.27585" lon="3.20479">
        <ele>125</ele>
        <time>2014-04-20T07:50:21.979Z</time>
      </trkpt>
      <trkpt lat="48.27587" lon="3.20477">
        <ele>125</ele>
        <time>2014-04-20T07:50:22.979Z</time>
      </trkpt>
      <trkpt lat="48.27589" lon="3.20475">
        <ele>125</ele>
        <time>2014-04-20T07:50:23.979Z</time>
      </trkpt>
      <trkpt lat="48.27591" lon="3.20472">
        <ele>125</ele>
        <time>2014-04-20T07:50:24.979Z</time>
      </trkpt>
      <trkpt lat="48.27594" lon="3.20468">
        <ele>125</ele>
        <time>2014-04-20T07:50:26.979Z</time>
      </trkpt>
      <trkpt lat="48.27596" lon="3.20466">
        <ele>125</ele>
        <time>2014-04-20T07:50:27.979Z</time>
      </trkpt>
      <trkpt lat="48.276" lon="3.20462">
        <ele>125</ele>
        <time>2014-04-20T07:50:31.979Z</time>
      </trkpt>
      <trkpt lat="48.27605" lon="3.20455">
        <ele>126</ele>
        <time>2014-04-20T07:50:32.979Z</time>
      </trkpt>
      <trkpt lat="48.27605" lon="3.20455">
        <ele>126</ele>
        <time>2014-04-20T07:50:34.979Z</time>
      </trkpt>
      <trkpt lat="48.2761" lon="3.20451">
        <ele>126</ele>
        <time>2014-04-20T07:50:35.979Z</time>
      </trkpt>
      <trkpt lat="48.27613" lon="3.20449">
        <ele>126</ele>
        <time>2014-04-20T07:50:38.979Z</time>
      </trkpt>
      <trkpt lat="48.27617" lon="3.20445">
        <ele>126</ele>
        <time>2014-04-20T07:50:39.979Z</time>
      </trkpt>
      <trkpt lat="48.2762" lon="3.2044">
        <ele>126</ele>
        <time>2014-04-20T07:50:43.979Z</time>
      </trkpt>
      <trkpt lat="48.27624" lon="3.20436">
        <ele>126</ele>
        <time>2014-04-20T07:50:44.979Z</time>
      </trkpt>
      <trkpt lat="48.27625" lon="3.20434">
        <ele>126</ele>
        <time>2014-04-20T07:50:47.979Z</time>
      </trkpt>
      <trkpt lat="48.27631" lon="3.2043">
        <ele>126</ele>
        <time>2014-04-20T07:50:48.979Z</time>
      </trkpt>
      <trkpt lat="48.27631" lon="3.2043">
        <ele>126</ele>
        <time>2014-04-20T07:50:49.979Z</time>
      </trkpt>
      <trkpt lat="48.27635" lon="3.20427">
        <ele>126</ele>
        <time>2014-04-20T07:50:50.979Z</time>
      </trkpt>
      <trkpt lat="48.27639" lon="3.20427">
        <ele>126</ele>
        <time>2014-04-20T07:50:52.979Z</time>
      </trkpt>
      <trkpt lat="48.27641" lon="3.20427">
        <ele>126</ele>
        <time>2014-04-20T07:50:53.979Z</time>
      </trkpt>
      <trkpt lat="48.27645" lon="3.2043">
        <ele>126</ele>
        <time>2014-04-20T07:50:55.979Z</time>
      </trkpt>
      <trkpt lat="48.27647" lon="3.20432">
        <ele>126</ele>
        <time>2014-04-20T07:50:56.979Z</time>
      </trkpt>
      <trkpt lat="48.27651" lon="3.20432">
        <ele>126</ele>
        <time>2014-04-20T07:51:00.979Z</time>
      </trkpt>
      <trkpt lat="48.27657" lon="3.20425">
        <ele>126</ele>
        <time>2014-04-20T07:51:01.979Z</time>
      </trkpt>
      <trkpt lat="48.27657" lon="3.20425">
        <ele>126</ele>
        <time>2014-04-20T07:51:02.979Z</time>
      </trkpt>
      <trkpt lat="48.27661" lon="3.20421">
        <ele>127</ele>
        <time>2014-04-20T07:51:03.979Z</time>
      </trkpt>
      <trkpt lat="48.27664" lon="3.20417">
        <ele>127</ele>
        <time>2014-04-20T07:51:05.979Z</time>
      </trkpt>
      <trkpt lat="48.27666" lon="3.20417">
        <ele>127</ele>
        <time>2014-04-20T07:51:06.979Z</time>
      </trkpt>
      <trkpt lat="48.27669" lon="3.20412">
        <ele>128</ele>
        <time>2014-04-20T07:51:08.979Z</time>
      </trkpt>
      <trkpt lat="48.27672" lon="3.2041">
        <ele>128</ele>
        <time>2014-04-20T07:51:09.979Z</time>
      </trkpt>
      <trkpt lat="48.27674" lon="3.20408">
        <ele>128</ele>
        <time>2014-04-20T07:51:10.979Z</time>
      </trkpt>
      <trkpt lat="48.27676" lon="3.20406">
        <ele>129</ele>
        <time>2014-04-20T07:51:11.979Z</time>
      </trkpt>
      <trkpt lat="48.27678" lon="3.20404">
        <ele>129</ele>
        <time>2014-04-20T07:51:12.979Z</time>
      </trkpt>
      <trkpt lat="48.2768" lon="3.20402">
        <ele>129</ele>
        <time>2014-04-20T07:51:13.979Z</time>
      </trkpt>
      <trkpt lat="48.27682" lon="3.20397">
        <ele>129</ele>
        <time>2014-04-20T07:51:14.979Z</time>
      </trkpt>
      <trkpt lat="48.27684" lon="3.20395">
        <ele>130</ele>
        <time>2014-04-20T07:51:15.979Z</time>
      </trkpt>
      <trkpt lat="48.27687" lon="3.20393">
        <ele>130</ele>
        <time>2014-04-20T07:51:16.979Z</time>
      </trkpt>
      <trkpt lat="48.27689" lon="3.20391">
        <ele>130</ele>
        <time>2014-04-20T07:51:17.979Z</time>
      </trkpt>
      <trkpt lat="48.27691" lon="3.20389">
        <ele>130</ele>
        <time>2014-04-20T07:51:18.979Z</time>
      </trkpt>
      <trkpt lat="48.27693" lon="3.20387">
        <ele>130</ele>
        <time>2014-04-20T07:51:19.979Z</time>
      </trkpt>
      <trkpt lat="48.27696" lon="3.20385">
        <ele>130</ele>
        <time>2014-04-20T07:51:20.979Z</time>
      </trkpt>
      <trkpt lat="48.27698" lon="3.20382">
        <ele>130</ele>
        <time>2014-04-20T07:51:21.979Z</time>
      </trkpt>
      <trkpt lat="48.27699" lon="3.20378">
        <ele>130</ele>
        <time>2014-04-20T07:51:22.979Z</time>
      </trkpt>
      <trkpt lat="48.27702" lon="3.20376">
        <ele>131</ele>
        <time>2014-04-20T07:51:23.979Z</time>
      </trkpt>
      <trkpt lat="48.27704" lon="3.20374">
        <ele>131</ele>
        <time>2014-04-20T07:51:24.979Z</time>
      </trkpt>
      <trkpt lat="48.27706" lon="3.20372">
        <ele>131</ele>
        <time>2014-04-20T07:51:25.979Z</time>
      </trkpt>
      <trkpt lat="48.27708" lon="3.20369">
        <ele>131</ele>
        <time>2014-04-20T07:51:26.979Z</time>
      </trkpt>
      <trkpt lat="48.2771" lon="3.20367">
        <ele>131</ele>
        <time>2014-04-20T07:51:27.979Z</time>
      </trkpt>
      <trkpt lat="48.27712" lon="3.20365">
        <ele>131</ele>
        <time>2014-04-20T07:51:28.979Z</time>
      </trkpt>
      <trkpt lat="48.27714" lon="3.20363">
        <ele>131</ele>
        <time>2014-04-20T07:51:29.979Z</time>
      </trkpt>
      <trkpt lat="48.27717" lon="3.20361">
        <ele>131</ele>
        <time>2014-04-20T07:51:30.979Z</time>
      </trkpt>
      <trkpt lat="48.27719" lon="3.20359">
        <ele>131</ele>
        <time>2014-04-20T07:51:31.979Z</time>
      </trkpt>
      <trkpt lat="48.27721" lon="3.20357">
        <ele>131</ele>
        <time>2014-04-20T07:51:32.979Z</time>
      </trkpt>
      <trkpt lat="48.27723" lon="3.20354">
        <ele>131</ele>
        <time>2014-04-20T07:51:33.979Z</time>
      </trkpt>
      <trkpt lat="48.27725" lon="3.20352">
        <ele>131</ele>
        <time>2014-04-20T07:51:34.979Z</time>
      </trkpt>
      <trkpt lat="48.27727" lon="3.2035">
        <ele>131</ele>
        <time>2014-04-20T07:51:35.979Z</time>
      </trkpt>
      <trkpt lat="48.27729" lon="3.20348">
        <ele>131</ele>
        <time>2014-04-20T07:51:36.979Z</time>
      </trkpt>
      <trkpt lat="48.27732" lon="3.20346">
        <ele>131</ele>
        <time>2014-04-20T07:51:37.979Z</time>
      </trkpt>
      <trkpt lat="48.27734" lon="3.20344">
        <ele>131</ele>
        <time>2014-04-20T07:51:38.979Z</time>
      </trkpt>
      <trkpt lat="48.27736" lon="3.20342">
        <ele>131</ele>
        <time>2014-04-20T07:51:39.979Z</time>
      </trkpt>
      <trkpt lat="48.27738" lon="3.20339">
        <ele>131</ele>
        <time>2014-04-20T07:51:40.979Z</time>
      </trkpt>
      <trkpt lat="48.2774" lon="3.20337">
        <ele>132</ele>
        <time>2014-04-20T07:51:41.979Z</time>
      </trkpt>
      <trkpt lat="48.27742" lon="3.20335">
        <ele>132</ele>
        <time>2014-04-20T07:51:42.979Z</time>
      </trkpt>
      <trkpt lat="48.27744" lon="3.20333">
        <ele>133</ele>
        <time>2014-04-20T07:51:43.979Z</time>
      </trkpt>
      <trkpt lat="48.27747" lon="3.20331">
        <ele>133</ele>
        <time>2014-04-20T07:51:44.979Z</time>
      </trkpt>
      <trkpt lat="48.27749" lon="3.20329">
        <ele>133</ele>
        <time>2014-04-20T07:51:45.979Z</time>
      </trkpt>
      <trkpt lat="48.27751" lon="3.20327">
        <ele>132</ele>
        <time>2014-04-20T07:51:46.979Z</time>
      </trkpt>
      <trkpt lat="48.27753" lon="3.20324">
        <ele>132</ele>
        <time>2014-04-20T07:51:47.979Z</time>
      </trkpt>
      <trkpt lat="48.27755" lon="3.20322">
        <ele>132</ele>
        <time>2014-04-20T07:51:48.979Z</time>
      </trkpt>
      <trkpt lat="48.27757" lon="3.2032">
        <ele>132</ele>
        <time>2014-04-20T07:51:49.979Z</time>
      </trkpt>
      <trkpt lat="48.2776" lon="3.20318">
        <ele>132</ele>
        <time>2014-04-20T07:51:50.979Z</time>
      </trkpt>
      <trkpt lat="48.27762" lon="3.20316">
        <ele>132</ele>
        <time>2014-04-20T07:51:51.979Z</time>
      </trkpt>
      <trkpt lat="48.27764" lon="3.20314">
        <ele>132</ele>
        <time>2014-04-20T07:51:52.979Z</time>
      </trkpt>
      <trkpt lat="48.27766" lon="3.20312">
        <ele>132</ele>
        <time>2014-04-20T07:51:53.979Z</time>
      </trkpt>
      <trkpt lat="48.27769" lon="3.20307">
        <ele>132</ele>
        <time>2014-04-20T07:51:54.979Z</time>
      </trkpt>
      <trkpt lat="48.27771" lon="3.20305">
        <ele>132</ele>
        <time>2014-04-20T07:51:55.979Z</time>
      </trkpt>
      <trkpt lat="48.27773" lon="3.20303">
        <ele>132</ele>
        <time>2014-04-20T07:51:56.979Z</time>
      </trkpt>
      <trkpt lat="48.27776" lon="3.20301">
        <ele>132</ele>
        <time>2014-04-20T07:51:57.979Z</time>
      </trkpt>
      <trkpt lat="48.27778" lon="3.20299">
        <ele>132</ele>
        <time>2014-04-20T07:51:58.979Z</time>
      </trkpt>
      <trkpt lat="48.2778" lon="3.20297">
        <ele>132</ele>
        <time>2014-04-20T07:51:59.979Z</time>
      </trkpt>
      <trkpt lat="48.27782" lon="3.20294">
        <ele>132</ele>
        <time>2014-04-20T07:52:00.979Z</time>
      </trkpt>
      <trkpt lat="48.27784" lon="3.20292">
        <ele>132</ele>
        <time>2014-04-20T07:52:01.979Z</time>
      </trkpt>
      <trkpt lat="48.27786" lon="3.20288">
        <ele>132</ele>
        <time>2014-04-20T07:52:02.979Z</time>
      </trkpt>
      <trkpt lat="48.27788" lon="3.20286">
        <ele>132</ele>
        <time>2014-04-20T07:52:03.979Z</time>
      </trkpt>
      <trkpt lat="48.27791" lon="3.20284">
        <ele>132</ele>
        <time>2014-04-20T07:52:04.979Z</time>
      </trkpt>
      <trkpt lat="48.27793" lon="3.20282">
        <ele>132</ele>
        <time>2014-04-20T07:52:05.979Z</time>
      </trkpt>
      <trkpt lat="48.27795" lon="3.20279">
        <ele>132</ele>
        <time>2014-04-20T07:52:06.979Z</time>
      </trkpt>
      <trkpt lat="48.27797" lon="3.20279">
        <ele>132</ele>
        <time>2014-04-20T07:52:07.979Z</time>
      </trkpt>
      <trkpt lat="48.27799" lon="3.20277">
        <ele>132</ele>
        <time>2014-04-20T07:52:08.979Z</time>
      </trkpt>
      <trkpt lat="48.27801" lon="3.20275">
        <ele>132</ele>
        <time>2014-04-20T07:52:09.979Z</time>
      </trkpt>
      <trkpt lat="48.27805" lon="3.20271">
        <ele>132</ele>
        <time>2014-04-20T07:52:12.979Z</time>
      </trkpt>
      <trkpt lat="48.27805" lon="3.20269">
        <ele>132</ele>
        <time>2014-04-20T07:52:13.979Z</time>
      </trkpt>
      <trkpt lat="48.27801" lon="3.20266">
        <ele>132</ele>
        <time>2014-04-20T07:52:16.979Z</time>
      </trkpt>
      <trkpt lat="48.278" lon="3.20262">
        <ele>132</ele>
        <time>2014-04-20T07:52:17.979Z</time>
      </trkpt>
      <trkpt lat="48.27801" lon="3.20256">
        <ele>132</ele>
        <time>2014-04-20T07:52:20.979Z</time>
      </trkpt>
      <trkpt lat="48.27803" lon="3.20254">
        <ele>132</ele>
        <time>2014-04-20T07:52:21.979Z</time>
      </trkpt>
      <trkpt lat="48.27806" lon="3.20249">
        <ele>132</ele>
        <time>2014-04-20T07:52:22.979Z</time>
      </trkpt>
      <trkpt lat="48.27809" lon="3.20247">
        <ele>132</ele>
        <time>2014-04-20T07:52:23.979Z</time>
      </trkpt>
      <trkpt lat="48.27812" lon="3.20245">
        <ele>131</ele>
        <time>2014-04-20T07:52:24.979Z</time>
      </trkpt>
      <trkpt lat="48.27815" lon="3.20243">
        <ele>131</ele>
        <time>2014-04-20T07:52:25.979Z</time>
      </trkpt>
      <trkpt lat="48.27817" lon="3.20241">
        <ele>131</ele>
        <time>2014-04-20T07:52:26.979Z</time>
      </trkpt>
      <trkpt lat="48.27821" lon="3.20239">
        <ele>131</ele>
        <time>2014-04-20T07:52:27.979Z</time>
      </trkpt>
      <trkpt lat="48.27824" lon="3.20236">
        <ele>131</ele>
        <time>2014-04-20T07:52:28.979Z</time>
      </trkpt>
      <trkpt lat="48.27827" lon="3.20234">
        <ele>131</ele>
        <time>2014-04-20T07:52:29.979Z</time>
      </trkpt>
      <trkpt lat="48.2783" lon="3.20232">
        <ele>131</ele>
        <time>2014-04-20T07:52:30.979Z</time>
      </trkpt>
      <trkpt lat="48.27834" lon="3.2023">
        <ele>126</ele>
        <time>2014-04-20T07:52:31.979Z</time>
      </trkpt>
      <trkpt lat="48.27839" lon="3.20226">
        <ele>126</ele>
        <time>2014-04-20T07:52:32.979Z</time>
      </trkpt>
      <trkpt lat="48.27845" lon="3.20224">
        <ele>125</ele>
        <time>2014-04-20T07:52:33.979Z</time>
      </trkpt>
      <trkpt lat="48.27852" lon="3.20221">
        <ele>125</ele>
        <time>2014-04-20T07:52:34.979Z</time>
      </trkpt>
      <trkpt lat="48.27858" lon="3.20217">
        <ele>124</ele>
        <time>2014-04-20T07:52:35.979Z</time>
      </trkpt>
      <trkpt lat="48.27865" lon="3.20211">
        <ele>123</ele>
        <time>2014-04-20T07:52:36.979Z</time>
      </trkpt>
      <trkpt lat="48.27871" lon="3.20206">
        <ele>123</ele>
        <time>2014-04-20T07:52:37.979Z</time>
      </trkpt>
      <trkpt lat="48.27878" lon="3.202">
        <ele>122</ele>
        <time>2014-04-20T07:52:38.979Z</time>
      </trkpt>
      <trkpt lat="48.27884" lon="3.20194">
        <ele>122</ele>
        <time>2014-04-20T07:52:39.979Z</time>
      </trkpt>
      <trkpt lat="48.27889" lon="3.20187">
        <ele>121</ele>
        <time>2014-04-20T07:52:40.979Z</time>
      </trkpt>
      <trkpt lat="48.27896" lon="3.20181">
        <ele>121</ele>
        <time>2014-04-20T07:52:41.979Z</time>
      </trkpt>
      <trkpt lat="48.27901" lon="3.20174">
        <ele>120</ele>
        <time>2014-04-20T07:52:42.979Z</time>
      </trkpt>
      <trkpt lat="48.27906" lon="3.2017">
        <ele>119</ele>
        <time>2014-04-20T07:52:43.979Z</time>
      </trkpt>
      <trkpt lat="48.27911" lon="3.20166">
        <ele>117</ele>
        <time>2014-04-20T07:52:44.979Z</time>
      </trkpt>
      <trkpt lat="48.27916" lon="3.20161">
        <ele>117</ele>
        <time>2014-04-20T07:52:45.979Z</time>
      </trkpt>
      <trkpt lat="48.2792" lon="3.20159">
        <ele>115</ele>
        <time>2014-04-20T07:52:46.979Z</time>
      </trkpt>
      <trkpt lat="48.27924" lon="3.20155">
        <ele>114</ele>
        <time>2014-04-20T07:52:47.979Z</time>
      </trkpt>
      <trkpt lat="48.27926" lon="3.20153">
        <ele>113</ele>
        <time>2014-04-20T07:52:48.979Z</time>
      </trkpt>
      <trkpt lat="48.27928" lon="3.20151">
        <ele>113</ele>
        <time>2014-04-20T07:52:54.979Z</time>
      </trkpt>
      <trkpt lat="48.27932" lon="3.2014">
        <ele>111</ele>
        <time>2014-04-20T07:52:55.979Z</time>
      </trkpt>
      <trkpt lat="48.27932" lon="3.2014">
        <ele>111</ele>
        <time>2014-04-20T07:52:59.979Z</time>
      </trkpt>
      <trkpt lat="48.27934" lon="3.20133">
        <ele>111</ele>
        <time>2014-04-20T07:53:00.979Z</time>
      </trkpt>
      <trkpt lat="48.27934" lon="3.20133">
        <ele>111</ele>
        <time>2014-04-20T07:53:08.979Z</time>
      </trkpt>
      <trkpt lat="48.2794" lon="3.20129">
        <ele>110</ele>
        <time>2014-04-20T07:53:09.979Z</time>
      </trkpt>
      <trkpt lat="48.27943" lon="3.20127">
        <ele>110</ele>
        <time>2014-04-20T07:53:10.979Z</time>
      </trkpt>
      <trkpt lat="48.27947" lon="3.20125">
        <ele>109</ele>
        <time>2014-04-20T07:53:11.979Z</time>
      </trkpt>
      <trkpt lat="48.27952" lon="3.20121">
        <ele>109</ele>
        <time>2014-04-20T07:53:12.979Z</time>
      </trkpt>
      <trkpt lat="48.27955" lon="3.20118">
        <ele>109</ele>
        <time>2014-04-20T07:53:13.979Z</time>
      </trkpt>
      <trkpt lat="48.27958" lon="3.20116">
        <ele>108</ele>
        <time>2014-04-20T07:53:14.979Z</time>
      </trkpt>
      <trkpt lat="48.27961" lon="3.20112">
        <ele>108</ele>
        <time>2014-04-20T07:53:16.979Z</time>
      </trkpt>
      <trkpt lat="48.27963" lon="3.2011">
        <ele>108</ele>
        <time>2014-04-20T07:53:17.979Z</time>
      </trkpt>
      <trkpt lat="48.27967" lon="3.20108">
        <ele>108</ele>
        <time>2014-04-20T07:53:18.979Z</time>
      </trkpt>
      <trkpt lat="48.27969" lon="3.20106">
        <ele>107</ele>
        <time>2014-04-20T07:53:19.979Z</time>
      </trkpt>
      <trkpt lat="48.2797" lon="3.20101">
        <ele>107</ele>
        <time>2014-04-20T07:53:20.979Z</time>
      </trkpt>
      <trkpt lat="48.27972" lon="3.20095">
        <ele>107</ele>
        <time>2014-04-20T07:53:21.979Z</time>
      </trkpt>
      <trkpt lat="48.27974" lon="3.20088">
        <ele>106</ele>
        <time>2014-04-20T07:53:22.979Z</time>
      </trkpt>
      <trkpt lat="48.27973" lon="3.20084">
        <ele>106</ele>
        <time>2014-04-20T07:53:23.979Z</time>
      </trkpt>
      <trkpt lat="48.27973" lon="3.2008">
        <ele>104</ele>
        <time>2014-04-20T07:53:24.979Z</time>
      </trkpt>
      <trkpt lat="48.27973" lon="3.20073">
        <ele>104</ele>
        <time>2014-04-20T07:53:25.979Z</time>
      </trkpt>
      <trkpt lat="48.27973" lon="3.20069">
        <ele>104</ele>
        <time>2014-04-20T07:53:26.979Z</time>
      </trkpt>
      <trkpt lat="48.27973" lon="3.20065">
        <ele>104</ele>
        <time>2014-04-20T07:53:27.979Z</time>
      </trkpt>
      <trkpt lat="48.27972" lon="3.2006">
        <ele>104</ele>
        <time>2014-04-20T07:53:28.979Z</time>
      </trkpt>
      <trkpt lat="48.27972" lon="3.20054">
        <ele>104</ele>
        <time>2014-04-20T07:53:29.979Z</time>
      </trkpt>
      <trkpt lat="48.27972" lon="3.2005">
        <ele>104</ele>
        <time>2014-04-20T07:53:30.979Z</time>
      </trkpt>
      <trkpt lat="48.27972" lon="3.20045">
        <ele>104</ele>
        <time>2014-04-20T07:53:31.979Z</time>
      </trkpt>
      <trkpt lat="48.27972" lon="3.20041">
        <ele>104</ele>
        <time>2014-04-20T07:53:32.979Z</time>
      </trkpt>
      <trkpt lat="48.27972" lon="3.20037">
        <ele>104</ele>
        <time>2014-04-20T07:53:33.979Z</time>
      </trkpt>
      <trkpt lat="48.27972" lon="3.20033">
        <ele>104</ele>
        <time>2014-04-20T07:53:34.979Z</time>
      </trkpt>
      <trkpt lat="48.27971" lon="3.20028">
        <ele>104</ele>
        <time>2014-04-20T07:53:35.979Z</time>
      </trkpt>
      <trkpt lat="48.27971" lon="3.20024">
        <ele>104</ele>
        <time>2014-04-20T07:53:36.979Z</time>
      </trkpt>
      <trkpt lat="48.27972" lon="3.2002">
        <ele>104</ele>
        <time>2014-04-20T07:53:37.979Z</time>
      </trkpt>
      <trkpt lat="48.27973" lon="3.20015">
        <ele>104</ele>
        <time>2014-04-20T07:53:38.979Z</time>
      </trkpt>
      <trkpt lat="48.27974" lon="3.20011">
        <ele>104</ele>
        <time>2014-04-20T07:53:39.979Z</time>
      </trkpt>
      <trkpt lat="48.27974" lon="3.20007">
        <ele>104</ele>
        <time>2014-04-20T07:53:40.979Z</time>
      </trkpt>
      <trkpt lat="48.27975" lon="3.20003">
        <ele>104</ele>
        <time>2014-04-20T07:53:41.979Z</time>
      </trkpt>
      <trkpt lat="48.27976" lon="3.19998">
        <ele>103</ele>
        <time>2014-04-20T07:53:42.979Z</time>
      </trkpt>
      <trkpt lat="48.27976" lon="3.19996">
        <ele>103</ele>
        <time>2014-04-20T07:53:44.979Z</time>
      </trkpt>
      <trkpt lat="48.27977" lon="3.1999">
        <ele>103</ele>
        <time>2014-04-20T07:53:45.979Z</time>
      </trkpt>
      <trkpt lat="48.27978" lon="3.19988">
        <ele>103</ele>
        <time>2014-04-20T07:53:52.979Z</time>
      </trkpt>
      <trkpt lat="48.27982" lon="3.19975">
        <ele>104</ele>
        <time>2014-04-20T07:53:53.979Z</time>
      </trkpt>
      <trkpt lat="48.27982" lon="3.19975">
        <ele>104</ele>
        <time>2014-04-20T07:53:59.979Z</time>
      </trkpt>
      <trkpt lat="48.27988" lon="3.19966">
        <ele>104</ele>
        <time>2014-04-20T07:54:00.979Z</time>
      </trkpt>
      <trkpt lat="48.27988" lon="3.19966">
        <ele>104</ele>
        <time>2014-04-20T07:54:07.979Z</time>
      </trkpt>
      <trkpt lat="48.27991" lon="3.19951">
        <ele>104</ele>
        <time>2014-04-20T07:54:08.979Z</time>
      </trkpt>
      <trkpt lat="48.27991" lon="3.19951">
        <ele>104</ele>
        <time>2014-04-20T07:54:12.979Z</time>
      </trkpt>
      <trkpt lat="48.2799" lon="3.1994">
        <ele>104</ele>
        <time>2014-04-20T07:54:13.979Z</time>
      </trkpt>
      <trkpt lat="48.2799" lon="3.1994">
        <ele>104</ele>
        <time>2014-04-20T07:54:17.979Z</time>
      </trkpt>
      <trkpt lat="48.27993" lon="3.19934">
        <ele>104</ele>
        <time>2014-04-20T07:54:18.979Z</time>
      </trkpt>
      <trkpt lat="48.27993" lon="3.19934">
        <ele>104</ele>
        <time>2014-04-20T07:54:21.979Z</time>
      </trkpt>
      <trkpt lat="48.27997" lon="3.19927">
        <ele>104</ele>
        <time>2014-04-20T07:54:22.979Z</time>
      </trkpt>
      <trkpt lat="48.27997" lon="3.19927">
        <ele>104</ele>
        <time>2014-04-20T07:54:24.979Z</time>
      </trkpt>
      <trkpt lat="48.27998" lon="3.19919">
        <ele>104</ele>
        <time>2014-04-20T07:54:25.979Z</time>
      </trkpt>
      <trkpt lat="48.27998" lon="3.19919">
        <ele>104</ele>
        <time>2014-04-20T07:54:27.979Z</time>
      </trkpt>
      <trkpt lat="48.27999" lon="3.1991">
        <ele>105</ele>
        <time>2014-04-20T07:54:28.979Z</time>
      </trkpt>
      <trkpt lat="48.27999" lon="3.1991">
        <ele>105</ele>
        <time>2014-04-20T07:54:30.979Z</time>
      </trkpt>
      <trkpt lat="48.28001" lon="3.19904">
        <ele>106</ele>
        <time>2014-04-20T07:54:31.979Z</time>
      </trkpt>
      <trkpt lat="48.28001" lon="3.19904">
        <ele>106</ele>
        <time>2014-04-20T07:54:33.979Z</time>
      </trkpt>
      <trkpt lat="48.28003" lon="3.19895">
        <ele>106</ele>
        <time>2014-04-20T07:54:34.979Z</time>
      </trkpt>
      <trkpt lat="48.28003" lon="3.19895">
        <ele>106</ele>
        <time>2014-04-20T07:54:36.979Z</time>
      </trkpt>
      <trkpt lat="48.28006" lon="3.19887">
        <ele>107</ele>
        <time>2014-04-20T07:54:37.979Z</time>
      </trkpt>
      <trkpt lat="48.28006" lon="3.19887">
        <ele>107</ele>
        <time>2014-04-20T07:54:39.979Z</time>
      </trkpt>
      <trkpt lat="48.28008" lon="3.1988">
        <ele>108</ele>
        <time>2014-04-20T07:54:40.979Z</time>
      </trkpt>
      <trkpt lat="48.28008" lon="3.1988">
        <ele>108</ele>
        <time>2014-04-20T07:54:42.979Z</time>
      </trkpt>
      <trkpt lat="48.28011" lon="3.19872">
        <ele>108</ele>
        <time>2014-04-20T07:54:43.979Z</time>
      </trkpt>
      <trkpt lat="48.28012" lon="3.19865">
        <ele>109</ele>
        <time>2014-04-20T07:54:48.979Z</time>
      </trkpt>
      <trkpt lat="48.28014" lon="3.19857">
        <ele>109</ele>
        <time>2014-04-20T07:54:49.979Z</time>
      </trkpt>
      <trkpt lat="48.28015" lon="3.1985">
        <ele>110</ele>
        <time>2014-04-20T07:54:56.979Z</time>
      </trkpt>
      <trkpt lat="48.28017" lon="3.19842">
        <ele>110</ele>
        <time>2014-04-20T07:54:57.979Z</time>
      </trkpt>
      <trkpt lat="48.28018" lon="3.19835">
        <ele>110</ele>
        <time>2014-04-20T07:55:02.979Z</time>
      </trkpt>
      <trkpt lat="48.28019" lon="3.19831">
        <ele>115</ele>
        <time>2014-04-20T07:55:03.979Z</time>
      </trkpt>
      <trkpt lat="48.28019" lon="3.19831">
        <ele>115</ele>
        <time>2014-04-20T07:55:05.979Z</time>
      </trkpt>
      <trkpt lat="48.28021" lon="3.19822">
        <ele>116</ele>
        <time>2014-04-20T07:55:06.979Z</time>
      </trkpt>
      <trkpt lat="48.28022" lon="3.19816">
        <ele>116</ele>
        <time>2014-04-20T07:55:13.979Z</time>
      </trkpt>
      <trkpt lat="48.28025" lon="3.19805">
        <ele>117</ele>
        <time>2014-04-20T07:55:14.979Z</time>
      </trkpt>
      <trkpt lat="48.28025" lon="3.19805">
        <ele>117</ele>
        <time>2014-04-20T07:55:17.979Z</time>
      </trkpt>
      <trkpt lat="48.28028" lon="3.19799">
        <ele>118</ele>
        <time>2014-04-20T07:55:18.979Z</time>
      </trkpt>
      <trkpt lat="48.28028" lon="3.19799">
        <ele>118</ele>
        <time>2014-04-20T07:55:21.979Z</time>
      </trkpt>
      <trkpt lat="48.2803" lon="3.19792">
        <ele>118</ele>
        <time>2014-04-20T07:55:22.979Z</time>
      </trkpt>
      <trkpt lat="48.2803" lon="3.19792">
        <ele>118</ele>
        <time>2014-04-20T07:55:25.979Z</time>
      </trkpt>
      <trkpt lat="48.28032" lon="3.19784">
        <ele>119</ele>
        <time>2014-04-20T07:55:26.979Z</time>
      </trkpt>
      <trkpt lat="48.28032" lon="3.19784">
        <ele>119</ele>
        <time>2014-04-20T07:55:31.979Z</time>
      </trkpt>
      <trkpt lat="48.28035" lon="3.19771">
        <ele>120</ele>
        <time>2014-04-20T07:55:32.979Z</time>
      </trkpt>
      <trkpt lat="48.28035" lon="3.19771">
        <ele>120</ele>
        <time>2014-04-20T07:55:37.979Z</time>
      </trkpt>
      <trkpt lat="48.2804" lon="3.19758">
        <ele>121</ele>
        <time>2014-04-20T07:55:38.979Z</time>
      </trkpt>
      <trkpt lat="48.2804" lon="3.19758">
        <ele>121</ele>
        <time>2014-04-20T07:55:42.979Z</time>
      </trkpt>
      <trkpt lat="48.28042" lon="3.19749">
        <ele>126</ele>
        <time>2014-04-20T07:55:43.979Z</time>
      </trkpt>
      <trkpt lat="48.28042" lon="3.19749">
        <ele>126</ele>
        <time>2014-04-20T07:55:49.979Z</time>
      </trkpt>
      <trkpt lat="48.28046" lon="3.19736">
        <ele>126</ele>
        <time>2014-04-20T07:55:50.979Z</time>
      </trkpt>
      <trkpt lat="48.28046" lon="3.19736">
        <ele>126</ele>
        <time>2014-04-20T07:55:54.979Z</time>
      </trkpt>
      <trkpt lat="48.2805" lon="3.1973">
        <ele>126</ele>
        <time>2014-04-20T07:55:55.979Z</time>
      </trkpt>
      <trkpt lat="48.2805" lon="3.1973">
        <ele>126</ele>
        <time>2014-04-20T07:55:58.979Z</time>
      </trkpt>
      <trkpt lat="48.28052" lon="3.19724">
        <ele>126</ele>
        <time>2014-04-20T07:55:59.979Z</time>
      </trkpt>
      <trkpt lat="48.28052" lon="3.19724">
        <ele>126</ele>
        <time>2014-04-20T07:56:04.979Z</time>
      </trkpt>
      <trkpt lat="48.28055" lon="3.19715">
        <ele>126</ele>
        <time>2014-04-20T07:56:05.979Z</time>
      </trkpt>
      <trkpt lat="48.28055" lon="3.19715">
        <ele>126</ele>
        <time>2014-04-20T07:56:11.979Z</time>
      </trkpt>
      <trkpt lat="48.28057" lon="3.19709">
        <ele>126</ele>
        <time>2014-04-20T07:56:12.979Z</time>
      </trkpt>
      <trkpt lat="48.28053" lon="3.19704">
        <ele>127</ele>
        <time>2014-04-20T07:56:25.979Z</time>
      </trkpt>
      <trkpt lat="48.28052" lon="3.19704">
        <ele>127</ele>
        <time>2014-04-20T07:56:26.979Z</time>
      </trkpt>
      <trkpt lat="48.28049" lon="3.197">
        <ele>127</ele>
        <time>2014-04-20T07:56:33.979Z</time>
      </trkpt>
      <trkpt lat="48.28049" lon="3.19698">
        <ele>127</ele>
        <time>2014-04-20T07:56:34.979Z</time>
      </trkpt>
      <trkpt lat="48.28045" lon="3.19696">
        <ele>127</ele>
        <time>2014-04-20T07:56:39.979Z</time>
      </trkpt>
      <trkpt lat="48.28044" lon="3.19696">
        <ele>127</ele>
        <time>2014-04-20T07:56:40.979Z</time>
      </trkpt>
      <trkpt lat="48.28041" lon="3.19698">
        <ele>127</ele>
        <time>2014-04-20T07:56:45.979Z</time>
      </trkpt>
      <trkpt lat="48.2804" lon="3.197">
        <ele>127</ele>
        <time>2014-04-20T07:56:46.979Z</time>
      </trkpt>
      <trkpt lat="48.28036" lon="3.19702">
        <ele>127</ele>
        <time>2014-04-20T07:56:53.979Z</time>
      </trkpt>
      <trkpt lat="48.28035" lon="3.19702">
        <ele>127</ele>
        <time>2014-04-20T07:56:54.979Z</time>
      </trkpt>
      <trkpt lat="48.28037" lon="3.19706">
        <ele>127</ele>
        <time>2014-04-20T07:57:02.979Z</time>
      </trkpt>
      <trkpt lat="48.28038" lon="3.19709">
        <ele>127</ele>
        <time>2014-04-20T07:57:03.979Z</time>
      </trkpt>
      <trkpt lat="48.28042" lon="3.19706">
        <ele>127</ele>
        <time>2014-04-20T07:57:07.979Z</time>
      </trkpt>
      <trkpt lat="48.28043" lon="3.19706">
        <ele>127</ele>
        <time>2014-04-20T07:57:08.979Z</time>
      </trkpt>
      <trkpt lat="48.28044" lon="3.19702">
        <ele>127</ele>
        <time>2014-04-20T07:57:13.979Z</time>
      </trkpt>
      <trkpt lat="48.28045" lon="3.197">
        <ele>127</ele>
        <time>2014-04-20T07:57:14.979Z</time>
      </trkpt>
      <trkpt lat="48.28048" lon="3.19696">
        <ele>127</ele>
        <time>2014-04-20T07:57:17.979Z</time>
      </trkpt>
      <trkpt lat="48.28049" lon="3.19694">
        <ele>127</ele>
        <time>2014-04-20T07:57:18.979Z</time>
      </trkpt>
      <trkpt lat="48.28052" lon="3.19689">
        <ele>127</ele>
        <time>2014-04-20T07:57:27.979Z</time>
      </trkpt>
      <trkpt lat="48.28053" lon="3.19687">
        <ele>127</ele>
        <time>2014-04-20T07:57:28.979Z</time>
      </trkpt>
      <trkpt lat="48.28056" lon="3.19681">
        <ele>127</ele>
        <time>2014-04-20T07:57:29.979Z</time>
      </trkpt>
      <trkpt lat="48.28057" lon="3.19676">
        <ele>127</ele>
        <time>2014-04-20T07:57:30.979Z</time>
      </trkpt>
      <trkpt lat="48.28059" lon="3.1967">
        <ele>127</ele>
        <time>2014-04-20T07:57:31.979Z</time>
      </trkpt>
      <trkpt lat="48.28061" lon="3.19661">
        <ele>126</ele>
        <time>2014-04-20T07:57:32.979Z</time>
      </trkpt>
      <trkpt lat="48.28063" lon="3.19655">
        <ele>126</ele>
        <time>2014-04-20T07:57:33.979Z</time>
      </trkpt>
      <trkpt lat="48.28065" lon="3.19646">
        <ele>126</ele>
        <time>2014-04-20T07:57:34.979Z</time>
      </trkpt>
      <trkpt lat="48.28067" lon="3.19642">
        <ele>126</ele>
        <time>2014-04-20T07:57:35.979Z</time>
      </trkpt>
      <trkpt lat="48.28068" lon="3.19636">
        <ele>125</ele>
        <time>2014-04-20T07:57:36.979Z</time>
      </trkpt>
      <trkpt lat="48.28071" lon="3.19631">
        <ele>125</ele>
        <time>2014-04-20T07:57:37.979Z</time>
      </trkpt>
      <trkpt lat="48.28072" lon="3.19627">
        <ele>125</ele>
        <time>2014-04-20T07:57:38.979Z</time>
      </trkpt>
      <trkpt lat="48.28072" lon="3.19623">
        <ele>125</ele>
        <time>2014-04-20T07:57:40.979Z</time>
      </trkpt>
      <trkpt lat="48.28073" lon="3.19616">
        <ele>124</ele>
        <time>2014-04-20T07:57:41.979Z</time>
      </trkpt>
      <trkpt lat="48.28073" lon="3.19616">
        <ele>124</ele>
        <time>2014-04-20T07:57:47.979Z</time>
      </trkpt>
      <trkpt lat="48.28076" lon="3.19601">
        <ele>122</ele>
        <time>2014-04-20T07:57:48.979Z</time>
      </trkpt>
      <trkpt lat="48.28075" lon="3.19595">
        <ele>122</ele>
        <time>2014-04-20T07:58:31.979Z</time>
      </trkpt>
      <trkpt lat="48.28076" lon="3.19586">
        <ele>120</ele>
        <time>2014-04-20T07:58:32.979Z</time>
      </trkpt>
      <trkpt lat="48.28077" lon="3.19578">
        <ele>118</ele>
        <time>2014-04-20T07:58:33.979Z</time>
      </trkpt>
      <trkpt lat="48.28078" lon="3.19571">
        <ele>118</ele>
        <time>2014-04-20T07:58:34.979Z</time>
      </trkpt>
      <trkpt lat="48.2808" lon="3.19565">
        <ele>118</ele>
        <time>2014-04-20T07:58:35.979Z</time>
      </trkpt>
      <trkpt lat="48.28081" lon="3.19561">
        <ele>118</ele>
        <time>2014-04-20T07:58:37.979Z</time>
      </trkpt>
      <trkpt lat="48.28085" lon="3.19552">
        <ele>112</ele>
        <time>2014-04-20T07:58:38.979Z</time>
      </trkpt>
      <trkpt lat="48.28085" lon="3.19552">
        <ele>112</ele>
        <time>2014-04-20T07:58:39.979Z</time>
      </trkpt>
      <trkpt lat="48.28089" lon="3.19546">
        <ele>111</ele>
        <time>2014-04-20T07:58:40.979Z</time>
      </trkpt>
      <trkpt lat="48.28089" lon="3.19546">
        <ele>111</ele>
        <time>2014-04-20T07:58:41.979Z</time>
      </trkpt>
      <trkpt lat="48.28093" lon="3.19541">
        <ele>110</ele>
        <time>2014-04-20T07:58:42.979Z</time>
      </trkpt>
      <trkpt lat="48.28093" lon="3.19541">
        <ele>110</ele>
        <time>2014-04-20T07:58:43.979Z</time>
      </trkpt>
      <trkpt lat="48.28097" lon="3.19535">
        <ele>110</ele>
        <time>2014-04-20T07:58:44.979Z</time>
      </trkpt>
      <trkpt lat="48.28097" lon="3.19535">
        <ele>110</ele>
        <time>2014-04-20T07:58:47.979Z</time>
      </trkpt>
      <trkpt lat="48.28103" lon="3.19524">
        <ele>109</ele>
        <time>2014-04-20T07:58:48.979Z</time>
      </trkpt>
      <trkpt lat="48.28103" lon="3.19524">
        <ele>109</ele>
        <time>2014-04-20T07:59:05.979Z</time>
      </trkpt>
      <trkpt lat="48.28103" lon="3.19511">
        <ele>108</ele>
        <time>2014-04-20T07:59:06.979Z</time>
      </trkpt>
      <trkpt lat="48.28103" lon="3.19511">
        <ele>108</ele>
        <time>2014-04-20T07:59:07.979Z</time>
      </trkpt>
      <trkpt lat="48.28108" lon="3.195">
        <ele>108</ele>
        <time>2014-04-20T07:59:08.979Z</time>
      </trkpt>
      <trkpt lat="48.28109" lon="3.19492">
        <ele>104</ele>
        <time>2014-04-20T07:59:09.979Z</time>
      </trkpt>
      <trkpt lat="48.28111" lon="3.19485">
        <ele>104</ele>
        <time>2014-04-20T07:59:10.979Z</time>
      </trkpt>
      <trkpt lat="48.28112" lon="3.19479">
        <ele>104</ele>
        <time>2014-04-20T07:59:14.979Z</time>
      </trkpt>
      <trkpt lat="48.28108" lon="3.19466">
        <ele>103</ele>
        <time>2014-04-20T07:59:15.979Z</time>
      </trkpt>
      <trkpt lat="48.28108" lon="3.19466">
        <ele>103</ele>
        <time>2014-04-20T07:59:18.979Z</time>
      </trkpt>
      <trkpt lat="48.28101" lon="3.19458">
        <ele>103</ele>
        <time>2014-04-20T07:59:19.979Z</time>
      </trkpt>
      <trkpt lat="48.28101" lon="3.19458">
        <ele>103</ele>
        <time>2014-04-20T07:59:22.979Z</time>
      </trkpt>
      <trkpt lat="48.28093" lon="3.19449">
        <ele>103</ele>
        <time>2014-04-20T07:59:23.979Z</time>
      </trkpt>
      <trkpt lat="48.28093" lon="3.19449">
        <ele>103</ele>
        <time>2014-04-20T07:59:24.979Z</time>
      </trkpt>
      <trkpt lat="48.2809" lon="3.19443">
        <ele>103</ele>
        <time>2014-04-20T07:59:25.979Z</time>
      </trkpt>
      <trkpt lat="48.2809" lon="3.19443">
        <ele>103</ele>
        <time>2014-04-20T07:59:30.979Z</time>
      </trkpt>
      <trkpt lat="48.28087" lon="3.1943">
        <ele>104</ele>
        <time>2014-04-20T07:59:31.979Z</time>
      </trkpt>
      <trkpt lat="48.28087" lon="3.1943">
        <ele>104</ele>
        <time>2014-04-20T07:59:32.979Z</time>
      </trkpt>
      <trkpt lat="48.28091" lon="3.19423">
        <ele>104</ele>
        <time>2014-04-20T07:59:33.979Z</time>
      </trkpt>
      <trkpt lat="48.28093" lon="3.19421">
        <ele>103</ele>
        <time>2014-04-20T07:59:34.979Z</time>
      </trkpt>
      <trkpt lat="48.28096" lon="3.19419">
        <ele>103</ele>
        <time>2014-04-20T07:59:35.979Z</time>
      </trkpt>
      <trkpt lat="48.281" lon="3.19419">
        <ele>103</ele>
        <time>2014-04-20T07:59:36.979Z</time>
      </trkpt>
      <trkpt lat="48.28103" lon="3.19417">
        <ele>103</ele>
        <time>2014-04-20T07:59:37.979Z</time>
      </trkpt>
      <trkpt lat="48.28105" lon="3.19415">
        <ele>104</ele>
        <time>2014-04-20T07:59:38.979Z</time>
      </trkpt>
      <trkpt lat="48.28108" lon="3.19412">
        <ele>103</ele>
        <time>2014-04-20T07:59:39.979Z</time>
      </trkpt>
      <trkpt lat="48.28111" lon="3.19412">
        <ele>103</ele>
        <time>2014-04-20T07:59:45.979Z</time>
      </trkpt>
      <trkpt lat="48.28121" lon="3.19408">
        <ele>103</ele>
        <time>2014-04-20T07:59:46.979Z</time>
      </trkpt>
      <trkpt lat="48.28121" lon="3.19408">
        <ele>103</ele>
        <time>2014-04-20T08:00:07.979Z</time>
      </trkpt>
      <trkpt lat="48.28125" lon="3.19406">
        <ele>103</ele>
        <time>2014-04-20T08:00:08.979Z</time>
      </trkpt>
      <trkpt lat="48.28125" lon="3.19406">
        <ele>103</ele>
        <time>2014-04-20T08:00:13.979Z</time>
      </trkpt>
      <trkpt lat="48.28132" lon="3.19397">
        <ele>103</ele>
        <time>2014-04-20T08:00:14.979Z</time>
      </trkpt>
      <trkpt lat="48.28132" lon="3.19395">
        <ele>103</ele>
        <time>2014-04-20T08:00:22.979Z</time>
      </trkpt>
      <trkpt lat="48.28137" lon="3.19387">
        <ele>103</ele>
        <time>2014-04-20T08:00:23.979Z</time>
      </trkpt>
      <trkpt lat="48.28141" lon="3.19387">
        <ele>103</ele>
        <time>2014-04-20T08:01:20.979Z</time>
      </trkpt>
      <trkpt lat="48.28141" lon="3.19385">
        <ele>103</ele>
        <time>2014-04-20T08:01:21.979Z</time>
      </trkpt>
      <trkpt lat="48.28144" lon="3.1938">
        <ele>103</ele>
        <time>2014-04-20T08:01:54.979Z</time>
      </trkpt>
      <trkpt lat="48.28144" lon="3.19378">
        <ele>103</ele>
        <time>2014-04-20T08:01:55.979Z</time>
      </trkpt>
      <trkpt lat="48.28146" lon="3.19374">
        <ele>103</ele>
        <time>2014-04-20T08:02:15.979Z</time>
      </trkpt>
      <trkpt lat="48.28147" lon="3.19372">
        <ele>103</ele>
        <time>2014-04-20T08:02:16.979Z</time>
      </trkpt>
      <trkpt lat="48.2815" lon="3.1937">
        <ele>103</ele>
        <time>2014-04-20T08:02:18.979Z</time>
      </trkpt>
      <trkpt lat="48.28153" lon="3.19365">
        <ele>103</ele>
        <time>2014-04-20T08:02:19.979Z</time>
      </trkpt>
      <trkpt lat="48.28158" lon="3.19363">
        <ele>103</ele>
        <time>2014-04-20T08:02:20.979Z</time>
      </trkpt>
      <trkpt lat="48.28162" lon="3.19359">
        <ele>103</ele>
        <time>2014-04-20T08:02:21.979Z</time>
      </trkpt>
      <trkpt lat="48.28166" lon="3.19357">
        <ele>103</ele>
        <time>2014-04-20T08:02:22.979Z</time>
      </trkpt>
      <trkpt lat="48.2817" lon="3.19352">
        <ele>100</ele>
        <time>2014-04-20T08:02:23.979Z</time>
      </trkpt>
      <trkpt lat="48.28175" lon="3.1935">
        <ele>100</ele>
        <time>2014-04-20T08:02:24.979Z</time>
      </trkpt>
      <trkpt lat="48.28178" lon="3.19348">
        <ele>100</ele>
        <time>2014-04-20T08:02:25.979Z</time>
      </trkpt>
      <trkpt lat="48.28181" lon="3.19346">
        <ele>100</ele>
        <time>2014-04-20T08:02:26.979Z</time>
      </trkpt>
      <trkpt lat="48.28185" lon="3.19344">
        <ele>100</ele>
        <time>2014-04-20T08:02:27.979Z</time>
      </trkpt>
      <trkpt lat="48.28189" lon="3.19342">
        <ele>99</ele>
        <time>2014-04-20T08:02:28.979Z</time>
      </trkpt>
      <trkpt lat="48.28192" lon="3.1934">
        <ele>99</ele>
        <time>2014-04-20T08:02:29.979Z</time>
      </trkpt>
      <trkpt lat="48.28195" lon="3.19335">
        <ele>99</ele>
        <time>2014-04-20T08:02:30.979Z</time>
      </trkpt>
      <trkpt lat="48.28198" lon="3.19333">
        <ele>102</ele>
        <time>2014-04-20T08:02:31.979Z</time>
      </trkpt>
      <trkpt lat="48.28202" lon="3.19331">
        <ele>102</ele>
        <time>2014-04-20T08:02:32.979Z</time>
      </trkpt>
      <trkpt lat="48.28205" lon="3.19327">
        <ele>102</ele>
        <time>2014-04-20T08:02:33.979Z</time>
      </trkpt>
      <trkpt lat="48.28208" lon="3.19322">
        <ele>102</ele>
        <time>2014-04-20T08:02:34.979Z</time>
      </trkpt>
      <trkpt lat="48.28211" lon="3.1932">
        <ele>101</ele>
        <time>2014-04-20T08:02:35.979Z</time>
      </trkpt>
      <trkpt lat="48.28215" lon="3.19316">
        <ele>101</ele>
        <time>2014-04-20T08:02:36.979Z</time>
      </trkpt>
      <trkpt lat="48.28219" lon="3.19314">
        <ele>101</ele>
        <time>2014-04-20T08:02:37.979Z</time>
      </trkpt>
      <trkpt lat="48.28222" lon="3.19309">
        <ele>101</ele>
        <time>2014-04-20T08:02:38.979Z</time>
      </trkpt>
      <trkpt lat="48.28225" lon="3.19307">
        <ele>101</ele>
        <time>2014-04-20T08:02:39.979Z</time>
      </trkpt>
      <trkpt lat="48.28229" lon="3.19303">
        <ele>101</ele>
        <time>2014-04-20T08:02:40.979Z</time>
      </trkpt>
      <trkpt lat="48.28233" lon="3.19301">
        <ele>101</ele>
        <time>2014-04-20T08:02:41.979Z</time>
      </trkpt>
      <trkpt lat="48.28236" lon="3.19297">
        <ele>101</ele>
        <time>2014-04-20T08:02:42.979Z</time>
      </trkpt>
      <trkpt lat="48.28239" lon="3.19292">
        <ele>101</ele>
        <time>2014-04-20T08:02:43.979Z</time>
      </trkpt>
      <trkpt lat="48.28242" lon="3.1929">
        <ele>101</ele>
        <time>2014-04-20T08:02:44.979Z</time>
      </trkpt>
      <trkpt lat="48.28244" lon="3.19286">
        <ele>101</ele>
        <time>2014-04-20T08:02:50.979Z</time>
      </trkpt>
      <trkpt lat="48.28252" lon="3.19275">
        <ele>96</ele>
        <time>2014-04-20T08:02:51.979Z</time>
      </trkpt>
      <trkpt lat="48.28252" lon="3.19275">
        <ele>96</ele>
        <time>2014-04-20T08:02:54.979Z</time>
      </trkpt>
      <trkpt lat="48.28258" lon="3.19264">
        <ele>97</ele>
        <time>2014-04-20T08:02:55.979Z</time>
      </trkpt>
      <trkpt lat="48.28258" lon="3.19264">
        <ele>97</ele>
        <time>2014-04-20T08:02:59.979Z</time>
      </trkpt>
      <trkpt lat="48.28265" lon="3.19256">
        <ele>97</ele>
        <time>2014-04-20T08:03:00.979Z</time>
      </trkpt>
      <trkpt lat="48.28265" lon="3.19256">
        <ele>97</ele>
        <time>2014-04-20T08:03:06.979Z</time>
      </trkpt>
      <trkpt lat="48.28272" lon="3.19245">
        <ele>97</ele>
        <time>2014-04-20T08:03:07.979Z</time>
      </trkpt>
      <trkpt lat="48.28272" lon="3.19245">
        <ele>97</ele>
        <time>2014-04-20T08:03:10.979Z</time>
      </trkpt>
      <trkpt lat="48.28276" lon="3.19239">
        <ele>97</ele>
        <time>2014-04-20T08:03:11.979Z</time>
      </trkpt>
      <trkpt lat="48.28276" lon="3.19239">
        <ele>97</ele>
        <time>2014-04-20T08:03:53.979Z</time>
      </trkpt>
      <trkpt lat="48.28279" lon="3.1923">
        <ele>96</ele>
        <time>2014-04-20T08:03:54.979Z</time>
      </trkpt>
      <trkpt lat="48.28282" lon="3.19232">
        <ele>96</ele>
        <time>2014-04-20T08:03:59.979Z</time>
      </trkpt>
      <trkpt lat="48.28286" lon="3.19232">
        <ele>96</ele>
        <time>2014-04-20T08:04:00.979Z</time>
      </trkpt>
      <trkpt lat="48.28286" lon="3.19232">
        <ele>96</ele>
        <time>2014-04-20T08:04:02.979Z</time>
      </trkpt>
      <trkpt lat="48.28296" lon="3.19224">
        <ele>95</ele>
        <time>2014-04-20T08:04:03.979Z</time>
      </trkpt>
      <trkpt lat="48.28299" lon="3.19219">
        <ele>95</ele>
        <time>2014-04-20T08:04:13.979Z</time>
      </trkpt>
      <trkpt lat="48.283" lon="3.19211">
        <ele>95</ele>
        <time>2014-04-20T08:04:14.979Z</time>
      </trkpt>
      <trkpt lat="48.283" lon="3.19211">
        <ele>95</ele>
        <time>2014-04-20T08:04:18.979Z</time>
      </trkpt>
      <trkpt lat="48.28306" lon="3.19206">
        <ele>94</ele>
        <time>2014-04-20T08:04:19.979Z</time>
      </trkpt>
      <trkpt lat="48.28309" lon="3.19204">
        <ele>94</ele>
        <time>2014-04-20T08:04:20.979Z</time>
      </trkpt>
      <trkpt lat="48.28313" lon="3.192">
        <ele>94</ele>
        <time>2014-04-20T08:04:21.979Z</time>
      </trkpt>
      <trkpt lat="48.28317" lon="3.19198">
        <ele>93</ele>
        <time>2014-04-20T08:04:22.979Z</time>
      </trkpt>
      <trkpt lat="48.28321" lon="3.19196">
        <ele>93</ele>
        <time>2014-04-20T08:04:25.979Z</time>
      </trkpt>
      <trkpt lat="48.28326" lon="3.19191">
        <ele>92</ele>
        <time>2014-04-20T08:04:26.979Z</time>
      </trkpt>
      <trkpt lat="48.28329" lon="3.19187">
        <ele>92</ele>
        <time>2014-04-20T08:05:06.979Z</time>
      </trkpt>
      <trkpt lat="48.28336" lon="3.19185">
        <ele>88</ele>
        <time>2014-04-20T08:05:07.979Z</time>
      </trkpt>
      <trkpt lat="48.28336" lon="3.19185">
        <ele>88</ele>
        <time>2014-04-20T08:05:08.979Z</time>
      </trkpt>
      <trkpt lat="48.28341" lon="3.19185">
        <ele>88</ele>
        <time>2014-04-20T08:05:09.979Z</time>
      </trkpt>
      <trkpt lat="48.28341" lon="3.19185">
        <ele>88</ele>
        <time>2014-04-20T08:05:11.979Z</time>
      </trkpt>
      <trkpt lat="48.28351" lon="3.19181">
        <ele>88</ele>
        <time>2014-04-20T08:05:12.979Z</time>
      </trkpt>
      <trkpt lat="48.28351" lon="3.19181">
        <ele>88</ele>
        <time>2014-04-20T08:05:14.979Z</time>
      </trkpt>
      <trkpt lat="48.28359" lon="3.19176">
        <ele>88</ele>
        <time>2014-04-20T08:05:15.979Z</time>
      </trkpt>
      <trkpt lat="48.28359" lon="3.19176">
        <ele>88</ele>
        <time>2014-04-20T08:05:17.979Z</time>
      </trkpt>
      <trkpt lat="48.28368" lon="3.1917">
        <ele>88</ele>
        <time>2014-04-20T08:05:18.979Z</time>
      </trkpt>
      <trkpt lat="48.28371" lon="3.19168">
        <ele>88</ele>
        <time>2014-04-20T08:05:22.979Z</time>
      </trkpt>
      <trkpt lat="48.28381" lon="3.19161">
        <ele>88</ele>
        <time>2014-04-20T08:05:23.979Z</time>
      </trkpt>
      <trkpt lat="48.28381" lon="3.19161">
        <ele>88</ele>
        <time>2014-04-20T08:05:26.979Z</time>
      </trkpt>
      <trkpt lat="48.28389" lon="3.19153">
        <ele>88</ele>
        <time>2014-04-20T08:05:27.979Z</time>
      </trkpt>
      <trkpt lat="48.28389" lon="3.19153">
        <ele>88</ele>
        <time>2014-04-20T08:05:30.979Z</time>
      </trkpt>
      <trkpt lat="48.28398" lon="3.19146">
        <ele>88</ele>
        <time>2014-04-20T08:05:31.979Z</time>
      </trkpt>
      <trkpt lat="48.28398" lon="3.19146">
        <ele>88</ele>
        <time>2014-04-20T08:05:34.979Z</time>
      </trkpt>
      <trkpt lat="48.28405" lon="3.19138">
        <ele>88</ele>
        <time>2014-04-20T08:05:35.979Z</time>
      </trkpt>
      <trkpt lat="48.28405" lon="3.19138">
        <ele>88</ele>
        <time>2014-04-20T08:05:36.979Z</time>
      </trkpt>
      <trkpt lat="48.2841" lon="3.19134">
        <ele>88</ele>
        <time>2014-04-20T08:05:37.979Z</time>
      </trkpt>
      <trkpt lat="48.2841" lon="3.19134">
        <ele>88</ele>
        <time>2014-04-20T08:05:40.979Z</time>
      </trkpt>
      <trkpt lat="48.28418" lon="3.19123">
        <ele>91</ele>
        <time>2014-04-20T08:05:41.979Z</time>
      </trkpt>
      <trkpt lat="48.2842" lon="3.19121">
        <ele>91</ele>
        <time>2014-04-20T08:05:44.979Z</time>
      </trkpt>
      <trkpt lat="48.28427" lon="3.19112">
        <ele>92</ele>
        <time>2014-04-20T08:05:45.979Z</time>
      </trkpt>
      <trkpt lat="48.28429" lon="3.1911">
        <ele>92</ele>
        <time>2014-04-20T08:05:46.979Z</time>
      </trkpt>
      <trkpt lat="48.2843" lon="3.19106">
        <ele>92</ele>
        <time>2014-04-20T08:05:47.979Z</time>
      </trkpt>
      <trkpt lat="48.28431" lon="3.19103">
        <ele>92</ele>
        <time>2014-04-20T08:05:48.979Z</time>
      </trkpt>
      <trkpt lat="48.28432" lon="3.19099">
        <ele>92</ele>
        <time>2014-04-20T08:05:49.979Z</time>
      </trkpt>
      <trkpt lat="48.28433" lon="3.19095">
        <ele>92</ele>
        <time>2014-04-20T08:05:50.979Z</time>
      </trkpt>
      <trkpt lat="48.28434" lon="3.19091">
        <ele>92</ele>
        <time>2014-04-20T08:05:51.979Z</time>
      </trkpt>
      <trkpt lat="48.28434" lon="3.19086">
        <ele>92</ele>
        <time>2014-04-20T08:05:52.979Z</time>
      </trkpt>
      <trkpt lat="48.28434" lon="3.19082">
        <ele>94</ele>
        <time>2014-04-20T08:05:53.979Z</time>
      </trkpt>
      <trkpt lat="48.28435" lon="3.1908">
        <ele>94</ele>
        <time>2014-04-20T08:05:54.979Z</time>
      </trkpt>
      <trkpt lat="48.28436" lon="3.19076">
        <ele>95</ele>
        <time>2014-04-20T08:05:55.979Z</time>
      </trkpt>
      <trkpt lat="48.28438" lon="3.19069">
        <ele>95</ele>
        <time>2014-04-20T08:05:57.979Z</time>
      </trkpt>
      <trkpt lat="48.28439" lon="3.19067">
        <ele>96</ele>
        <time>2014-04-20T08:05:58.979Z</time>
      </trkpt>
      <trkpt lat="48.2844" lon="3.19061">
        <ele>96</ele>
        <time>2014-04-20T08:06:00.979Z</time>
      </trkpt>
      <trkpt lat="48.2844" lon="3.19056">
        <ele>96</ele>
        <time>2014-04-20T08:06:01.979Z</time>
      </trkpt>
      <trkpt lat="48.28441" lon="3.19052">
        <ele>97</ele>
        <time>2014-04-20T08:06:03.979Z</time>
      </trkpt>
      <trkpt lat="48.28441" lon="3.19048">
        <ele>97</ele>
        <time>2014-04-20T08:06:04.979Z</time>
      </trkpt>
      <trkpt lat="48.28441" lon="3.19041">
        <ele>97</ele>
        <time>2014-04-20T08:06:06.979Z</time>
      </trkpt>
      <trkpt lat="48.2844" lon="3.19037">
        <ele>97</ele>
        <time>2014-04-20T08:06:07.979Z</time>
      </trkpt>
      <trkpt lat="48.28438" lon="3.19033">
        <ele>97</ele>
        <time>2014-04-20T08:06:09.979Z</time>
      </trkpt>
      <trkpt lat="48.28435" lon="3.19033">
        <ele>97</ele>
        <time>2014-04-20T08:06:10.979Z</time>
      </trkpt>
      <trkpt lat="48.28439" lon="3.19033">
        <ele>97</ele>
        <time>2014-04-20T08:06:19.979Z</time>
      </trkpt>
      <trkpt lat="48.28441" lon="3.19033">
        <ele>97</ele>
        <time>2014-04-20T08:06:20.979Z</time>
      </trkpt>
      <trkpt lat="48.28444" lon="3.19033">
        <ele>97</ele>
        <time>2014-04-20T08:06:22.979Z</time>
      </trkpt>
      <trkpt lat="48.28446" lon="3.19033">
        <ele>98</ele>
        <time>2014-04-20T08:06:23.979Z</time>
      </trkpt>
      <trkpt lat="48.28449" lon="3.19031">
        <ele>98</ele>
        <time>2014-04-20T08:06:25.979Z</time>
      </trkpt>
      <trkpt lat="48.28452" lon="3.19031">
        <ele>98</ele>
        <time>2014-04-20T08:06:26.979Z</time>
      </trkpt>
      <trkpt lat="48.28455" lon="3.19031">
        <ele>98</ele>
        <time>2014-04-20T08:06:28.979Z</time>
      </trkpt>
      <trkpt lat="48.28456" lon="3.19028">
        <ele>98</ele>
        <time>2014-04-20T08:06:29.979Z</time>
      </trkpt>
      <trkpt lat="48.28459" lon="3.19031">
        <ele>99</ele>
        <time>2014-04-20T08:06:42.979Z</time>
      </trkpt>
      <trkpt lat="48.2846" lon="3.19031">
        <ele>99</ele>
        <time>2014-04-20T08:06:43.979Z</time>
      </trkpt>
      <trkpt lat="48.28463" lon="3.19028">
        <ele>99</ele>
        <time>2014-04-20T08:06:53.979Z</time>
      </trkpt>
      <trkpt lat="48.28464" lon="3.19028">
        <ele>99</ele>
        <time>2014-04-20T08:06:54.979Z</time>
      </trkpt>
      <trkpt lat="48.28469" lon="3.19028">
        <ele>100</ele>
        <time>2014-04-20T08:07:01.979Z</time>
      </trkpt>
      <trkpt lat="48.2847" lon="3.19028">
        <ele>100</ele>
        <time>2014-04-20T08:07:02.979Z</time>
      </trkpt>
      <trkpt lat="48.28474" lon="3.19028">
        <ele>100</ele>
        <time>2014-04-20T08:07:08.979Z</time>
      </trkpt>
      <trkpt lat="48.28475" lon="3.19028">
        <ele>100</ele>
        <time>2014-04-20T08:07:09.979Z</time>
      </trkpt>
      <trkpt lat="48.28478" lon="3.19031">
        <ele>100</ele>
        <time>2014-04-20T08:07:40.979Z</time>
      </trkpt>
      <trkpt lat="48.28479" lon="3.19031">
        <ele>100</ele>
        <time>2014-04-20T08:07:41.979Z</time>
      </trkpt>
      <trkpt lat="48.28483" lon="3.19026">
        <ele>101</ele>
        <time>2014-04-20T08:07:46.979Z</time>
      </trkpt>
      <trkpt lat="48.28483" lon="3.19024">
        <ele>101</ele>
        <time>2014-04-20T08:07:47.979Z</time>
      </trkpt>
      <trkpt lat="48.28485" lon="3.1902">
        <ele>102</ele>
        <time>2014-04-20T08:07:50.979Z</time>
      </trkpt>
      <trkpt lat="48.28485" lon="3.19018">
        <ele>102</ele>
        <time>2014-04-20T08:07:51.979Z</time>
      </trkpt>
      <trkpt lat="48.28487" lon="3.19013">
        <ele>103</ele>
        <time>2014-04-20T08:07:53.979Z</time>
      </trkpt>
      <trkpt lat="48.28487" lon="3.19011">
        <ele>103</ele>
        <time>2014-04-20T08:07:54.979Z</time>
      </trkpt>
      <trkpt lat="48.28489" lon="3.19007">
        <ele>104</ele>
        <time>2014-04-20T08:07:58.979Z</time>
      </trkpt>
      <trkpt lat="48.2849" lon="3.19005">
        <ele>104</ele>
        <time>2014-04-20T08:07:59.979Z</time>
      </trkpt>
      <trkpt lat="48.28493" lon="3.19">
        <ele>106</ele>
        <time>2014-04-20T08:08:03.979Z</time>
      </trkpt>
      <trkpt lat="48.28494" lon="3.18998">
        <ele>107</ele>
        <time>2014-04-20T08:08:04.979Z</time>
      </trkpt>
      <trkpt lat="48.28497" lon="3.18994">
        <ele>107</ele>
        <time>2014-04-20T08:08:07.979Z</time>
      </trkpt>
      <trkpt lat="48.28497" lon="3.18992">
        <ele>107</ele>
        <time>2014-04-20T08:08:08.979Z</time>
      </trkpt>
      <trkpt lat="48.285" lon="3.18988">
        <ele>107</ele>
        <time>2014-04-20T08:08:12.979Z</time>
      </trkpt>
      <trkpt lat="48.28501" lon="3.18985">
        <ele>113</ele>
        <time>2014-04-20T08:08:13.979Z</time>
      </trkpt>
      <trkpt lat="48.28503" lon="3.18981">
        <ele>114</ele>
        <time>2014-04-20T08:08:17.979Z</time>
      </trkpt>
      <trkpt lat="48.28503" lon="3.18979">
        <ele>114</ele>
        <time>2014-04-20T08:08:18.979Z</time>
      </trkpt>
      <trkpt lat="48.28504" lon="3.18975">
        <ele>115</ele>
        <time>2014-04-20T08:08:20.979Z</time>
      </trkpt>
      <trkpt lat="48.28505" lon="3.18973">
        <ele>115</ele>
        <time>2014-04-20T08:08:21.979Z</time>
      </trkpt>
      <trkpt lat="48.28506" lon="3.18968">
        <ele>116</ele>
        <time>2014-04-20T08:08:24.979Z</time>
      </trkpt>
      <trkpt lat="48.28507" lon="3.18966">
        <ele>116</ele>
        <time>2014-04-20T08:08:25.979Z</time>
      </trkpt>
      <trkpt lat="48.28509" lon="3.18962">
        <ele>117</ele>
        <time>2014-04-20T08:08:28.979Z</time>
      </trkpt>
      <trkpt lat="48.28511" lon="3.1896">
        <ele>117</ele>
        <time>2014-04-20T08:08:29.979Z</time>
      </trkpt>
      <trkpt lat="48.28513" lon="3.18955">
        <ele>117</ele>
        <time>2014-04-20T08:08:31.979Z</time>
      </trkpt>
      <trkpt lat="48.28514" lon="3.18953">
        <ele>117</ele>
        <time>2014-04-20T08:08:32.979Z</time>
      </trkpt>
      <trkpt lat="48.28515" lon="3.18951">
        <ele>117</ele>
        <time>2014-04-20T08:08:33.979Z</time>
      </trkpt>
      <trkpt lat="48.28517" lon="3.18947">
        <ele>118</ele>
        <time>2014-04-20T08:08:34.979Z</time>
      </trkpt>
      <trkpt lat="48.28519" lon="3.18943">
        <ele>118</ele>
        <time>2014-04-20T08:08:36.979Z</time>
      </trkpt>
      <trkpt lat="48.28521" lon="3.18938">
        <ele>118</ele>
        <time>2014-04-20T08:08:37.979Z</time>
      </trkpt>
      <trkpt lat="48.28523" lon="3.18934">
        <ele>118</ele>
        <time>2014-04-20T08:08:39.979Z</time>
      </trkpt>
      <trkpt lat="48.28524" lon="3.1893">
        <ele>118</ele>
        <time>2014-04-20T08:08:40.979Z</time>
      </trkpt>
      <trkpt lat="48.28528" lon="3.18925">
        <ele>119</ele>
        <time>2014-04-20T08:08:42.979Z</time>
      </trkpt>
      <trkpt lat="48.28529" lon="3.18923">
        <ele>119</ele>
        <time>2014-04-20T08:08:43.979Z</time>
      </trkpt>
      <trkpt lat="48.28531" lon="3.18919">
        <ele>119</ele>
        <time>2014-04-20T08:08:45.979Z</time>
      </trkpt>
      <trkpt lat="48.28532" lon="3.18917">
        <ele>119</ele>
        <time>2014-04-20T08:08:46.979Z</time>
      </trkpt>
      <trkpt lat="48.28534" lon="3.18913">
        <ele>121</ele>
        <time>2014-04-20T08:08:49.979Z</time>
      </trkpt>
      <trkpt lat="48.28535" lon="3.1891">
        <ele>121</ele>
        <time>2014-04-20T08:08:50.979Z</time>
      </trkpt>
      <trkpt lat="48.28537" lon="3.18906">
        <ele>121</ele>
        <time>2014-04-20T08:08:52.979Z</time>
      </trkpt>
      <trkpt lat="48.28538" lon="3.18904">
        <ele>122</ele>
        <time>2014-04-20T08:08:53.979Z</time>
      </trkpt>
      <trkpt lat="48.28541" lon="3.189">
        <ele>122</ele>
        <time>2014-04-20T08:08:56.979Z</time>
      </trkpt>
      <trkpt lat="48.28542" lon="3.18897">
        <ele>122</ele>
        <time>2014-04-20T08:08:57.979Z</time>
      </trkpt>
      <trkpt lat="48.28545" lon="3.18895">
        <ele>122</ele>
        <time>2014-04-20T08:09:01.979Z</time>
      </trkpt>
      <trkpt lat="48.28546" lon="3.18893">
        <ele>122</ele>
        <time>2014-04-20T08:09:02.979Z</time>
      </trkpt>
      <trkpt lat="48.28549" lon="3.18889">
        <ele>123</ele>
        <time>2014-04-20T08:09:09.979Z</time>
      </trkpt>
      <trkpt lat="48.2855" lon="3.18887">
        <ele>123</ele>
        <time>2014-04-20T08:09:10.979Z</time>
      </trkpt>
      <trkpt lat="48.28553" lon="3.18885">
        <ele>123</ele>
        <time>2014-04-20T08:09:17.979Z</time>
      </trkpt>
      <trkpt lat="48.28555" lon="3.18885">
        <ele>123</ele>
        <time>2014-04-20T08:09:18.979Z</time>
      </trkpt>
      <trkpt lat="48.28559" lon="3.18885">
        <ele>123</ele>
        <time>2014-04-20T08:09:58.979Z</time>
      </trkpt>
      <trkpt lat="48.28559" lon="3.18882">
        <ele>123</ele>
        <time>2014-04-20T08:09:59.979Z</time>
      </trkpt>
      <trkpt lat="48.28556" lon="3.18878">
        <ele>123</ele>
        <time>2014-04-20T08:10:26.979Z</time>
      </trkpt>
      <trkpt lat="48.28555" lon="3.18878">
        <ele>123</ele>
        <time>2014-04-20T08:10:27.979Z</time>
      </trkpt>
      <trkpt lat="48.28553" lon="3.18872">
        <ele>123</ele>
        <time>2014-04-20T08:10:59.979Z</time>
      </trkpt>
      <trkpt lat="48.28552" lon="3.18872">
        <ele>123</ele>
        <time>2014-04-20T08:11:00.979Z</time>
      </trkpt>
      <trkpt lat="48.28553" lon="3.1887">
        <ele>123</ele>
        <time>2014-04-20T08:12:31.979Z</time>
      </trkpt>
      <trkpt lat="48.28555" lon="3.18865">
        <ele>123</ele>
        <time>2014-04-20T08:12:32.979Z</time>
      </trkpt>
      <trkpt lat="48.28556" lon="3.18863">
        <ele>123</ele>
        <time>2014-04-20T08:12:33.979Z</time>
      </trkpt>
      <trkpt lat="48.28558" lon="3.18859">
        <ele>123</ele>
        <time>2014-04-20T08:12:34.979Z</time>
      </trkpt>
      <trkpt lat="48.2856" lon="3.18852">
        <ele>123</ele>
        <time>2014-04-20T08:12:35.979Z</time>
      </trkpt>
      <trkpt lat="48.28562" lon="3.18846">
        <ele>123</ele>
        <time>2014-04-20T08:12:36.979Z</time>
      </trkpt>
      <trkpt lat="48.28565" lon="3.1884">
        <ele>123</ele>
        <time>2014-04-20T08:12:37.979Z</time>
      </trkpt>
      <trkpt lat="48.28567" lon="3.18833">
        <ele>123</ele>
        <time>2014-04-20T08:12:38.979Z</time>
      </trkpt>
      <trkpt lat="48.28571" lon="3.18827">
        <ele>123</ele>
        <time>2014-04-20T08:12:39.979Z</time>
      </trkpt>
      <trkpt lat="48.28574" lon="3.1882">
        <ele>123</ele>
        <time>2014-04-20T08:12:40.979Z</time>
      </trkpt>
      <trkpt lat="48.28577" lon="3.18816">
        <ele>123</ele>
        <time>2014-04-20T08:12:41.979Z</time>
      </trkpt>
      <trkpt lat="48.2858" lon="3.1881">
        <ele>123</ele>
        <time>2014-04-20T08:12:42.979Z</time>
      </trkpt>
      <trkpt lat="48.28583" lon="3.18803">
        <ele>121</ele>
        <time>2014-04-20T08:12:43.979Z</time>
      </trkpt>
      <trkpt lat="48.28587" lon="3.18797">
        <ele>120</ele>
        <time>2014-04-20T08:12:44.979Z</time>
      </trkpt>
      <trkpt lat="48.2859" lon="3.18792">
        <ele>120</ele>
        <time>2014-04-20T08:12:45.979Z</time>
      </trkpt>
      <trkpt lat="48.28593" lon="3.18786">
        <ele>119</ele>
        <time>2014-04-20T08:12:46.979Z</time>
      </trkpt>
      <trkpt lat="48.28596" lon="3.18777">
        <ele>119</ele>
        <time>2014-04-20T08:12:47.979Z</time>
      </trkpt>
      <trkpt lat="48.28601" lon="3.18771">
        <ele>119</ele>
        <time>2014-04-20T08:12:48.979Z</time>
      </trkpt>
      <trkpt lat="48.28604" lon="3.18762">
        <ele>119</ele>
        <time>2014-04-20T08:12:49.979Z</time>
      </trkpt>
      <trkpt lat="48.28607" lon="3.18756">
        <ele>118</ele>
        <time>2014-04-20T08:12:50.979Z</time>
      </trkpt>
      <trkpt lat="48.2861" lon="3.18752">
        <ele>118</ele>
        <time>2014-04-20T08:12:53.979Z</time>
      </trkpt>
      <trkpt lat="48.28616" lon="3.18741">
        <ele>113</ele>
        <time>2014-04-20T08:12:54.979Z</time>
      </trkpt>
      <trkpt lat="48.28616" lon="3.18741">
        <ele>113</ele>
        <time>2014-04-20T08:12:56.979Z</time>
      </trkpt>
      <trkpt lat="48.28622" lon="3.18728">
        <ele>112</ele>
        <time>2014-04-20T08:12:57.979Z</time>
      </trkpt>
      <trkpt lat="48.28626" lon="3.18724">
        <ele>112</ele>
        <time>2014-04-20T08:12:58.979Z</time>
      </trkpt>
      <trkpt lat="48.28631" lon="3.18719">
        <ele>111</ele>
        <time>2014-04-20T08:12:59.979Z</time>
      </trkpt>
      <trkpt lat="48.28634" lon="3.18715">
        <ele>111</ele>
        <time>2014-04-20T08:13:00.979Z</time>
      </trkpt>
      <trkpt lat="48.28638" lon="3.18711">
        <ele>110</ele>
        <time>2014-04-20T08:13:01.979Z</time>
      </trkpt>
      <trkpt lat="48.28642" lon="3.18707">
        <ele>110</ele>
        <time>2014-04-20T08:13:02.979Z</time>
      </trkpt>
      <trkpt lat="48.28647" lon="3.18702">
        <ele>110</ele>
        <time>2014-04-20T08:13:03.979Z</time>
      </trkpt>
      <trkpt lat="48.2865" lon="3.18698">
        <ele>109</ele>
        <time>2014-04-20T08:13:04.979Z</time>
      </trkpt>
      <trkpt lat="48.28654" lon="3.18698">
        <ele>109</ele>
        <time>2014-04-20T08:13:05.979Z</time>
      </trkpt>
      <trkpt lat="48.28656" lon="3.18696">
        <ele>109</ele>
        <time>2014-04-20T08:13:06.979Z</time>
      </trkpt>
      <trkpt lat="48.2866" lon="3.18694">
        <ele>109</ele>
        <time>2014-04-20T08:13:07.979Z</time>
      </trkpt>
      <trkpt lat="48.28662" lon="3.18691">
        <ele>109</ele>
        <time>2014-04-20T08:13:08.979Z</time>
      </trkpt>
      <trkpt lat="48.28664" lon="3.18691">
        <ele>109</ele>
        <time>2014-04-20T08:13:09.979Z</time>
      </trkpt>
      <trkpt lat="48.28667" lon="3.18689">
        <ele>106</ele>
        <time>2014-04-20T08:13:10.979Z</time>
      </trkpt>
      <trkpt lat="48.28669" lon="3.18687">
        <ele>106</ele>
        <time>2014-04-20T08:13:11.979Z</time>
      </trkpt>
      <trkpt lat="48.28673" lon="3.18685">
        <ele>106</ele>
        <time>2014-04-20T08:13:13.979Z</time>
      </trkpt>
      <trkpt lat="48.28675" lon="3.18685">
        <ele>106</ele>
        <time>2014-04-20T08:13:14.979Z</time>
      </trkpt>
      <trkpt lat="48.28677" lon="3.18683">
        <ele>106</ele>
        <time>2014-04-20T08:13:15.979Z</time>
      </trkpt>
      <trkpt lat="48.2868" lon="3.18681">
        <ele>106</ele>
        <time>2014-04-20T08:13:16.979Z</time>
      </trkpt>
      <trkpt lat="48.28682" lon="3.18679">
        <ele>106</ele>
        <time>2014-04-20T08:13:17.979Z</time>
      </trkpt>
      <trkpt lat="48.28684" lon="3.18679">
        <ele>106</ele>
        <time>2014-04-20T08:13:18.979Z</time>
      </trkpt>
      <trkpt lat="48.28686" lon="3.18676">
        <ele>106</ele>
        <time>2014-04-20T08:13:24.979Z</time>
      </trkpt>
      <trkpt lat="48.28694" lon="3.18668">
        <ele>106</ele>
        <time>2014-04-20T08:13:25.979Z</time>
      </trkpt>
      <trkpt lat="48.28694" lon="3.18668">
        <ele>106</ele>
        <time>2014-04-20T08:13:30.979Z</time>
      </trkpt>
      <trkpt lat="48.28701" lon="3.18659">
        <ele>110</ele>
        <time>2014-04-20T08:13:31.979Z</time>
      </trkpt>
      <trkpt lat="48.28701" lon="3.18659">
        <ele>110</ele>
        <time>2014-04-20T08:13:36.979Z</time>
      </trkpt>
      <trkpt lat="48.28709" lon="3.18649">
        <ele>110</ele>
        <time>2014-04-20T08:13:37.979Z</time>
      </trkpt>
      <trkpt lat="48.28709" lon="3.18649">
        <ele>110</ele>
        <time>2014-04-20T08:13:42.979Z</time>
      </trkpt>
      <trkpt lat="48.28717" lon="3.1864">
        <ele>111</ele>
        <time>2014-04-20T08:13:43.979Z</time>
      </trkpt>
      <trkpt lat="48.28717" lon="3.1864">
        <ele>111</ele>
        <time>2014-04-20T08:14:47.979Z</time>
      </trkpt>
      <trkpt lat="48.28723" lon="3.18636">
        <ele>111</ele>
        <time>2014-04-20T08:14:48.979Z</time>
      </trkpt>
      <trkpt lat="48.28727" lon="3.18636">
        <ele>112</ele>
        <time>2014-04-20T08:16:08.979Z</time>
      </trkpt>
      <trkpt lat="48.28729" lon="3.18634">
        <ele>112</ele>
        <time>2014-04-20T08:16:09.979Z</time>
      </trkpt>
      <trkpt lat="48.28734" lon="3.18634">
        <ele>112</ele>
        <time>2014-04-20T08:16:10.979Z</time>
      </trkpt>
      <trkpt lat="48.28737" lon="3.18634">
        <ele>112</ele>
        <time>2014-04-20T08:16:11.979Z</time>
      </trkpt>
      <trkpt lat="48.28741" lon="3.18631">
        <ele>112</ele>
        <time>2014-04-20T08:16:12.979Z</time>
      </trkpt>
      <trkpt lat="48.28747" lon="3.18631">
        <ele>112</ele>
        <time>2014-04-20T08:16:13.979Z</time>
      </trkpt>
      <trkpt lat="48.28751" lon="3.18629">
        <ele>117</ele>
        <time>2014-04-20T08:16:14.979Z</time>
      </trkpt>
      <trkpt lat="48.28756" lon="3.18627">
        <ele>117</ele>
        <time>2014-04-20T08:16:15.979Z</time>
      </trkpt>
      <trkpt lat="48.28762" lon="3.18623">
        <ele>118</ele>
        <time>2014-04-20T08:16:16.979Z</time>
      </trkpt>
      <trkpt lat="48.28767" lon="3.18621">
        <ele>118</ele>
        <time>2014-04-20T08:16:17.979Z</time>
      </trkpt>
      <trkpt lat="48.28772" lon="3.18616">
        <ele>118</ele>
        <time>2014-04-20T08:16:18.979Z</time>
      </trkpt>
      <trkpt lat="48.28778" lon="3.18612">
        <ele>119</ele>
        <time>2014-04-20T08:16:19.979Z</time>
      </trkpt>
      <trkpt lat="48.28783" lon="3.18608">
        <ele>119</ele>
        <time>2014-04-20T08:16:20.979Z</time>
      </trkpt>
      <trkpt lat="48.28787" lon="3.18604">
        <ele>120</ele>
        <time>2014-04-20T08:16:21.979Z</time>
      </trkpt>
      <trkpt lat="48.28792" lon="3.18599">
        <ele>120</ele>
        <time>2014-04-20T08:16:22.979Z</time>
      </trkpt>
      <trkpt lat="48.28796" lon="3.18595">
        <ele>120</ele>
        <time>2014-04-20T08:16:23.979Z</time>
      </trkpt>
      <trkpt lat="48.288" lon="3.18593">
        <ele>121</ele>
        <time>2014-04-20T08:16:24.979Z</time>
      </trkpt>
      <trkpt lat="48.28803" lon="3.18588">
        <ele>121</ele>
        <time>2014-04-20T08:16:25.979Z</time>
      </trkpt>
      <trkpt lat="48.28807" lon="3.18586">
        <ele>122</ele>
        <time>2014-04-20T08:16:26.979Z</time>
      </trkpt>
      <trkpt lat="48.2881" lon="3.18582">
        <ele>128</ele>
        <time>2014-04-20T08:16:27.979Z</time>
      </trkpt>
      <trkpt lat="48.28814" lon="3.18578">
        <ele>128</ele>
        <time>2014-04-20T08:16:28.979Z</time>
      </trkpt>
      <trkpt lat="48.28817" lon="3.18573">
        <ele>128</ele>
        <time>2014-04-20T08:16:29.979Z</time>
      </trkpt>
      <trkpt lat="48.28822" lon="3.18569">
        <ele>129</ele>
        <time>2014-04-20T08:16:30.979Z</time>
      </trkpt>
      <trkpt lat="48.28826" lon="3.18565">
        <ele>129</ele>
        <time>2014-04-20T08:16:31.979Z</time>
      </trkpt>
      <trkpt lat="48.2883" lon="3.18561">
        <ele>129</ele>
        <time>2014-04-20T08:16:32.979Z</time>
      </trkpt>
      <trkpt lat="48.28835" lon="3.18556">
        <ele>134</ele>
        <time>2014-04-20T08:16:33.979Z</time>
      </trkpt>
      <trkpt lat="48.2884" lon="3.1855">
        <ele>135</ele>
        <time>2014-04-20T08:16:34.979Z</time>
      </trkpt>
      <trkpt lat="48.28844" lon="3.18546">
        <ele>135</ele>
        <time>2014-04-20T08:16:35.979Z</time>
      </trkpt>
      <trkpt lat="48.2885" lon="3.18541">
        <ele>136</ele>
        <time>2014-04-20T08:16:36.979Z</time>
      </trkpt>
      <trkpt lat="48.28854" lon="3.18537">
        <ele>136</ele>
        <time>2014-04-20T08:16:37.979Z</time>
      </trkpt>
      <trkpt lat="48.28857" lon="3.18533">
        <ele>137</ele>
        <time>2014-04-20T08:16:38.979Z</time>
      </trkpt>
      <trkpt lat="48.28861" lon="3.18528">
        <ele>137</ele>
        <time>2014-04-20T08:16:39.979Z</time>
      </trkpt>
      <trkpt lat="48.28866" lon="3.18524">
        <ele>137</ele>
        <time>2014-04-20T08:16:40.979Z</time>
      </trkpt>
      <trkpt lat="48.28869" lon="3.1852">
        <ele>138</ele>
        <time>2014-04-20T08:16:41.979Z</time>
      </trkpt>
      <trkpt lat="48.28872" lon="3.18516">
        <ele>138</ele>
        <time>2014-04-20T08:16:42.979Z</time>
      </trkpt>
      <trkpt lat="48.28874" lon="3.18513">
        <ele>138</ele>
        <time>2014-04-20T08:16:43.979Z</time>
      </trkpt>
      <trkpt lat="48.28877" lon="3.18509">
        <ele>138</ele>
        <time>2014-04-20T08:16:44.979Z</time>
      </trkpt>
      <trkpt lat="48.2888" lon="3.18507">
        <ele>139</ele>
        <time>2014-04-20T08:16:45.979Z</time>
      </trkpt>
      <trkpt lat="48.28883" lon="3.18505">
        <ele>139</ele>
        <time>2014-04-20T08:16:46.979Z</time>
      </trkpt>
      <trkpt lat="48.28886" lon="3.18501">
        <ele>139</ele>
        <time>2014-04-20T08:16:47.979Z</time>
      </trkpt>
      <trkpt lat="48.28888" lon="3.18498">
        <ele>145</ele>
        <time>2014-04-20T08:16:48.979Z</time>
      </trkpt>
      <trkpt lat="48.28891" lon="3.18494">
        <ele>145</ele>
        <time>2014-04-20T08:16:49.979Z</time>
      </trkpt>
      <trkpt lat="48.28894" lon="3.18492">
        <ele>145</ele>
        <time>2014-04-20T08:16:50.979Z</time>
      </trkpt>
      <trkpt lat="48.28897" lon="3.1849">
        <ele>145</ele>
        <time>2014-04-20T08:16:51.979Z</time>
      </trkpt>
      <trkpt lat="48.289" lon="3.18485">
        <ele>145</ele>
        <time>2014-04-20T08:16:52.979Z</time>
      </trkpt>
      <trkpt lat="48.28902" lon="3.18483">
        <ele>145</ele>
        <time>2014-04-20T08:16:53.979Z</time>
      </trkpt>
      <trkpt lat="48.28905" lon="3.18481">
        <ele>146</ele>
        <time>2014-04-20T08:16:54.979Z</time>
      </trkpt>
      <trkpt lat="48.28907" lon="3.18479">
        <ele>146</ele>
        <time>2014-04-20T08:16:55.979Z</time>
      </trkpt>
      <trkpt lat="48.2891" lon="3.18477">
        <ele>146</ele>
        <time>2014-04-20T08:16:56.979Z</time>
      </trkpt>
      <trkpt lat="48.28913" lon="3.18473">
        <ele>146</ele>
        <time>2014-04-20T08:16:58.979Z</time>
      </trkpt>
      <trkpt lat="48.28915" lon="3.1847">
        <ele>146</ele>
        <time>2014-04-20T08:16:59.979Z</time>
      </trkpt>
      <trkpt lat="48.28917" lon="3.18468">
        <ele>149</ele>
        <time>2014-04-20T08:17:00.979Z</time>
      </trkpt>
      <trkpt lat="48.28919" lon="3.18466">
        <ele>149</ele>
        <time>2014-04-20T08:17:01.979Z</time>
      </trkpt>
      <trkpt lat="48.28921" lon="3.18464">
        <ele>149</ele>
        <time>2014-04-20T08:17:02.979Z</time>
      </trkpt>
      <trkpt lat="48.28924" lon="3.18462">
        <ele>149</ele>
        <time>2014-04-20T08:17:03.979Z</time>
      </trkpt>
      <trkpt lat="48.28926" lon="3.1846">
        <ele>149</ele>
        <time>2014-04-20T08:17:04.979Z</time>
      </trkpt>
      <trkpt lat="48.28928" lon="3.18458">
        <ele>149</ele>
        <time>2014-04-20T08:17:05.979Z</time>
      </trkpt>
      <trkpt lat="48.28931" lon="3.18455">
        <ele>150</ele>
        <time>2014-04-20T08:17:06.979Z</time>
      </trkpt>
      <trkpt lat="48.28933" lon="3.18453">
        <ele>150</ele>
        <time>2014-04-20T08:17:07.979Z</time>
      </trkpt>
      <trkpt lat="48.28936" lon="3.18449">
        <ele>150</ele>
        <time>2014-04-20T08:17:09.979Z</time>
      </trkpt>
      <trkpt lat="48.28939" lon="3.18447">
        <ele>150</ele>
        <time>2014-04-20T08:17:10.979Z</time>
      </trkpt>
      <trkpt lat="48.28942" lon="3.18443">
        <ele>150</ele>
        <time>2014-04-20T08:17:12.979Z</time>
      </trkpt>
      <trkpt lat="48.28943" lon="3.1844">
        <ele>150</ele>
        <time>2014-04-20T08:17:13.979Z</time>
      </trkpt>
      <trkpt lat="48.28945" lon="3.18438">
        <ele>151</ele>
        <time>2014-04-20T08:17:14.979Z</time>
      </trkpt>
      <trkpt lat="48.28947" lon="3.18436">
        <ele>151</ele>
        <time>2014-04-20T08:17:15.979Z</time>
      </trkpt>
      <trkpt lat="48.2895" lon="3.18432">
        <ele>151</ele>
        <time>2014-04-20T08:17:17.979Z</time>
      </trkpt>
      <trkpt lat="48.28953" lon="3.1843">
        <ele>151</ele>
        <time>2014-04-20T08:17:18.979Z</time>
      </trkpt>
      <trkpt lat="48.28956" lon="3.18425">
        <ele>151</ele>
        <time>2014-04-20T08:17:20.979Z</time>
      </trkpt>
      <trkpt lat="48.28958" lon="3.18423">
        <ele>151</ele>
        <time>2014-04-20T08:17:21.979Z</time>
      </trkpt>
      <trkpt lat="48.28961" lon="3.18419">
        <ele>152</ele>
        <time>2014-04-20T08:17:23.979Z</time>
      </trkpt>
      <trkpt lat="48.28963" lon="3.18415">
        <ele>156</ele>
        <time>2014-04-20T08:17:24.979Z</time>
      </trkpt>
      <trkpt lat="48.28966" lon="3.1841">
        <ele>156</ele>
        <time>2014-04-20T08:17:26.979Z</time>
      </trkpt>
      <trkpt lat="48.28969" lon="3.18408">
        <ele>157</ele>
        <time>2014-04-20T08:17:27.979Z</time>
      </trkpt>
      <trkpt lat="48.28972" lon="3.18404">
        <ele>157</ele>
        <time>2014-04-20T08:17:29.979Z</time>
      </trkpt>
      <trkpt lat="48.28974" lon="3.18402">
        <ele>157</ele>
        <time>2014-04-20T08:17:30.979Z</time>
      </trkpt>
      <trkpt lat="48.28976" lon="3.18398">
        <ele>157</ele>
        <time>2014-04-20T08:17:32.979Z</time>
      </trkpt>
      <trkpt lat="48.28978" lon="3.18395">
        <ele>157</ele>
        <time>2014-04-20T08:17:33.979Z</time>
      </trkpt>
      <trkpt lat="48.28982" lon="3.18393">
        <ele>157</ele>
        <time>2014-04-20T08:17:35.979Z</time>
      </trkpt>
      <trkpt lat="48.28983" lon="3.18391">
        <ele>157</ele>
        <time>2014-04-20T08:17:36.979Z</time>
      </trkpt>
      <trkpt lat="48.28985" lon="3.18389">
        <ele>157</ele>
        <time>2014-04-20T08:17:37.979Z</time>
      </trkpt>
      <trkpt lat="48.28987" lon="3.18387">
        <ele>157</ele>
        <time>2014-04-20T08:17:38.979Z</time>
      </trkpt>
      <trkpt lat="48.28989" lon="3.18387">
        <ele>157</ele>
        <time>2014-04-20T08:17:39.979Z</time>
      </trkpt>
      <trkpt lat="48.28991" lon="3.18385">
        <ele>157</ele>
        <time>2014-04-20T08:17:40.979Z</time>
      </trkpt>
      <trkpt lat="48.28994" lon="3.18383">
        <ele>157</ele>
        <time>2014-04-20T08:17:41.979Z</time>
      </trkpt>
      <trkpt lat="48.28997" lon="3.1838">
        <ele>158</ele>
        <time>2014-04-20T08:17:42.979Z</time>
      </trkpt>
      <trkpt lat="48.28999" lon="3.18378">
        <ele>158</ele>
        <time>2014-04-20T08:17:43.979Z</time>
      </trkpt>
      <trkpt lat="48.29001" lon="3.18376">
        <ele>159</ele>
        <time>2014-04-20T08:17:44.979Z</time>
      </trkpt>
      <trkpt lat="48.29003" lon="3.18374">
        <ele>159</ele>
        <time>2014-04-20T08:17:45.979Z</time>
      </trkpt>
      <trkpt lat="48.29006" lon="3.18372">
        <ele>159</ele>
        <time>2014-04-20T08:17:46.979Z</time>
      </trkpt>
      <trkpt lat="48.29008" lon="3.1837">
        <ele>159</ele>
        <time>2014-04-20T08:17:47.979Z</time>
      </trkpt>
      <trkpt lat="48.2901" lon="3.18367">
        <ele>159</ele>
        <time>2014-04-20T08:17:48.979Z</time>
      </trkpt>
      <trkpt lat="48.29013" lon="3.18365">
        <ele>159</ele>
        <time>2014-04-20T08:17:49.979Z</time>
      </trkpt>
      <trkpt lat="48.29016" lon="3.18363">
        <ele>159</ele>
        <time>2014-04-20T08:17:50.979Z</time>
      </trkpt>
      <trkpt lat="48.29018" lon="3.18359">
        <ele>159</ele>
        <time>2014-04-20T08:17:51.979Z</time>
      </trkpt>
      <trkpt lat="48.2902" lon="3.18357">
        <ele>159</ele>
        <time>2014-04-20T08:17:52.979Z</time>
      </trkpt>
      <trkpt lat="48.29022" lon="3.18355">
        <ele>159</ele>
        <time>2014-04-20T08:17:53.979Z</time>
      </trkpt>
      <trkpt lat="48.29024" lon="3.18352">
        <ele>159</ele>
        <time>2014-04-20T08:17:54.979Z</time>
      </trkpt>
      <trkpt lat="48.29028" lon="3.1835">
        <ele>159</ele>
        <time>2014-04-20T08:17:56.979Z</time>
      </trkpt>
      <trkpt lat="48.2903" lon="3.18348">
        <ele>159</ele>
        <time>2014-04-20T08:17:57.979Z</time>
      </trkpt>
      <trkpt lat="48.29033" lon="3.18344">
        <ele>159</ele>
        <time>2014-04-20T08:17:59.979Z</time>
      </trkpt>
      <trkpt lat="48.29035" lon="3.18344">
        <ele>159</ele>
        <time>2014-04-20T08:18:00.979Z</time>
      </trkpt>
      <trkpt lat="48.29038" lon="3.18342">
        <ele>159</ele>
        <time>2014-04-20T08:18:02.979Z</time>
      </trkpt>
      <trkpt lat="48.29039" lon="3.1834">
        <ele>159</ele>
        <time>2014-04-20T08:18:03.979Z</time>
      </trkpt>
      <trkpt lat="48.29043" lon="3.18337">
        <ele>159</ele>
        <time>2014-04-20T08:18:05.979Z</time>
      </trkpt>
      <trkpt lat="48.29044" lon="3.18335">
        <ele>159</ele>
        <time>2014-04-20T08:18:06.979Z</time>
      </trkpt>
      <trkpt lat="48.29047" lon="3.18333">
        <ele>160</ele>
        <time>2014-04-20T08:18:09.979Z</time>
      </trkpt>
      <trkpt lat="48.29049" lon="3.18331">
        <ele>160</ele>
        <time>2014-04-20T08:18:10.979Z</time>
      </trkpt>
      <trkpt lat="48.29052" lon="3.18327">
        <ele>159</ele>
        <time>2014-04-20T08:18:12.979Z</time>
      </trkpt>
      <trkpt lat="48.29053" lon="3.18325">
        <ele>159</ele>
        <time>2014-04-20T08:18:13.979Z</time>
      </trkpt>
      <trkpt lat="48.29056" lon="3.18322">
        <ele>159</ele>
        <time>2014-04-20T08:18:14.979Z</time>
      </trkpt>
      <trkpt lat="48.29058" lon="3.18318">
        <ele>159</ele>
        <time>2014-04-20T08:18:15.979Z</time>
      </trkpt>
      <trkpt lat="48.2906" lon="3.18314">
        <ele>159</ele>
        <time>2014-04-20T08:18:17.979Z</time>
      </trkpt>
      <trkpt lat="48.29062" lon="3.18312">
        <ele>159</ele>
        <time>2014-04-20T08:18:18.979Z</time>
      </trkpt>
      <trkpt lat="48.29064" lon="3.18307">
        <ele>159</ele>
        <time>2014-04-20T08:18:20.979Z</time>
      </trkpt>
      <trkpt lat="48.29065" lon="3.18305">
        <ele>159</ele>
        <time>2014-04-20T08:18:21.979Z</time>
      </trkpt>
      <trkpt lat="48.29067" lon="3.18301">
        <ele>159</ele>
        <time>2014-04-20T08:18:23.979Z</time>
      </trkpt>
      <trkpt lat="48.29068" lon="3.18299">
        <ele>159</ele>
        <time>2014-04-20T08:18:24.979Z</time>
      </trkpt>
      <trkpt lat="48.29069" lon="3.18295">
        <ele>159</ele>
        <time>2014-04-20T08:18:27.979Z</time>
      </trkpt>
      <trkpt lat="48.29071" lon="3.18292">
        <ele>159</ele>
        <time>2014-04-20T08:18:28.979Z</time>
      </trkpt>
      <trkpt lat="48.29072" lon="3.18286">
        <ele>159</ele>
        <time>2014-04-20T08:18:41.979Z</time>
      </trkpt>
      <trkpt lat="48.29073" lon="3.18286">
        <ele>159</ele>
        <time>2014-04-20T08:18:42.979Z</time>
      </trkpt>
      <trkpt lat="48.29076" lon="3.18284">
        <ele>159</ele>
        <time>2014-04-20T08:18:50.979Z</time>
      </trkpt>
      <trkpt lat="48.29077" lon="3.18282">
        <ele>159</ele>
        <time>2014-04-20T08:18:51.979Z</time>
      </trkpt>
      <trkpt lat="48.29079" lon="3.18286">
        <ele>159</ele>
        <time>2014-04-20T08:19:59.979Z</time>
      </trkpt>
      <trkpt lat="48.29079" lon="3.18288">
        <ele>159</ele>
        <time>2014-04-20T08:20:00.979Z</time>
      </trkpt>
      <trkpt lat="48.29079" lon="3.18295">
        <ele>159</ele>
        <time>2014-04-20T08:20:30.979Z</time>
      </trkpt>
      <trkpt lat="48.2908" lon="3.18295">
        <ele>159</ele>
        <time>2014-04-20T08:20:31.979Z</time>
      </trkpt>
      <trkpt lat="48.29083" lon="3.1829">
        <ele>157</ele>
        <time>2014-04-20T08:21:27.979Z</time>
      </trkpt>
      <trkpt lat="48.29083" lon="3.18288">
        <ele>157</ele>
        <time>2014-04-20T08:21:28.979Z</time>
      </trkpt>
      <trkpt lat="48.29081" lon="3.18284">
        <ele>159</ele>
        <time>2014-04-20T08:22:12.979Z</time>
      </trkpt>
      <trkpt lat="48.29078" lon="3.18286">
        <ele>159</ele>
        <time>2014-04-20T08:22:13.979Z</time>
      </trkpt>
      <trkpt lat="48.29075" lon="3.18286">
        <ele>159</ele>
        <time>2014-04-20T08:22:14.979Z</time>
      </trkpt>
      <trkpt lat="48.29073" lon="3.18288">
        <ele>159</ele>
        <time>2014-04-20T08:22:15.979Z</time>
      </trkpt>
      <trkpt lat="48.29071" lon="3.1829">
        <ele>159</ele>
        <time>2014-04-20T08:22:16.979Z</time>
      </trkpt>
      <trkpt lat="48.29067" lon="3.18292">
        <ele>159</ele>
        <time>2014-04-20T08:22:17.979Z</time>
      </trkpt>
      <trkpt lat="48.29064" lon="3.18295">
        <ele>159</ele>
        <time>2014-04-20T08:22:18.979Z</time>
      </trkpt>
      <trkpt lat="48.29061" lon="3.18297">
        <ele>159</ele>
        <time>2014-04-20T08:22:19.979Z</time>
      </trkpt>
      <trkpt lat="48.29058" lon="3.18299">
        <ele>159</ele>
        <time>2014-04-20T08:22:20.979Z</time>
      </trkpt>
      <trkpt lat="48.29054" lon="3.18301">
        <ele>159</ele>
        <time>2014-04-20T08:22:21.979Z</time>
      </trkpt>
      <trkpt lat="48.29051" lon="3.18303">
        <ele>159</ele>
        <time>2014-04-20T08:22:22.979Z</time>
      </trkpt>
      <trkpt lat="48.29048" lon="3.18305">
        <ele>159</ele>
        <time>2014-04-20T08:22:23.979Z</time>
      </trkpt>
      <trkpt lat="48.29046" lon="3.18307">
        <ele>160</ele>
        <time>2014-04-20T08:22:24.979Z</time>
      </trkpt>
      <trkpt lat="48.29044" lon="3.1831">
        <ele>160</ele>
        <time>2014-04-20T08:22:25.979Z</time>
      </trkpt>
      <trkpt lat="48.29041" lon="3.18314">
        <ele>160</ele>
        <time>2014-04-20T08:22:27.979Z</time>
      </trkpt>
      <trkpt lat="48.29038" lon="3.18314">
        <ele>160</ele>
        <time>2014-04-20T08:22:28.979Z</time>
      </trkpt>
      <trkpt lat="48.29036" lon="3.18316">
        <ele>160</ele>
        <time>2014-04-20T08:22:29.979Z</time>
      </trkpt>
      <trkpt lat="48.29034" lon="3.18318">
        <ele>160</ele>
        <time>2014-04-20T08:22:30.979Z</time>
      </trkpt>
      <trkpt lat="48.29031" lon="3.18322">
        <ele>160</ele>
        <time>2014-04-20T08:22:32.979Z</time>
      </trkpt>
      <trkpt lat="48.2903" lon="3.18325">
        <ele>160</ele>
        <time>2014-04-20T08:22:33.979Z</time>
      </trkpt>
      <trkpt lat="48.29028" lon="3.18327">
        <ele>160</ele>
        <time>2014-04-20T08:22:34.979Z</time>
      </trkpt>
      <trkpt lat="48.29026" lon="3.18329">
        <ele>160</ele>
        <time>2014-04-20T08:22:35.979Z</time>
      </trkpt>
      <trkpt lat="48.29023" lon="3.18331">
        <ele>160</ele>
        <time>2014-04-20T08:22:36.979Z</time>
      </trkpt>
      <trkpt lat="48.2902" lon="3.18333">
        <ele>160</ele>
        <time>2014-04-20T08:22:37.979Z</time>
      </trkpt>
      <trkpt lat="48.29018" lon="3.18337">
        <ele>160</ele>
        <time>2014-04-20T08:22:38.979Z</time>
      </trkpt>
      <trkpt lat="48.29016" lon="3.1834">
        <ele>160</ele>
        <time>2014-04-20T08:22:39.979Z</time>
      </trkpt>
      <trkpt lat="48.29013" lon="3.18342">
        <ele>160</ele>
        <time>2014-04-20T08:22:40.979Z</time>
      </trkpt>
      <trkpt lat="48.2901" lon="3.18344">
        <ele>160</ele>
        <time>2014-04-20T08:22:41.979Z</time>
      </trkpt>
      <trkpt lat="48.29007" lon="3.18346">
        <ele>160</ele>
        <time>2014-04-20T08:22:42.979Z</time>
      </trkpt>
      <trkpt lat="48.29005" lon="3.18348">
        <ele>160</ele>
        <time>2014-04-20T08:22:43.979Z</time>
      </trkpt>
      <trkpt lat="48.29002" lon="3.18352">
        <ele>160</ele>
        <time>2014-04-20T08:22:44.979Z</time>
      </trkpt>
      <trkpt lat="48.28999" lon="3.18355">
        <ele>159</ele>
        <time>2014-04-20T08:22:45.979Z</time>
      </trkpt>
      <trkpt lat="48.28995" lon="3.18357">
        <ele>159</ele>
        <time>2014-04-20T08:22:46.979Z</time>
      </trkpt>
      <trkpt lat="48.28992" lon="3.18361">
        <ele>158</ele>
        <time>2014-04-20T08:22:47.979Z</time>
      </trkpt>
      <trkpt lat="48.28989" lon="3.18365">
        <ele>158</ele>
        <time>2014-04-20T08:22:48.979Z</time>
      </trkpt>
      <trkpt lat="48.28985" lon="3.18367">
        <ele>158</ele>
        <time>2014-04-20T08:22:49.979Z</time>
      </trkpt>
      <trkpt lat="48.2898" lon="3.18372">
        <ele>158</ele>
        <time>2014-04-20T08:22:50.979Z</time>
      </trkpt>
      <trkpt lat="48.28976" lon="3.18376">
        <ele>157</ele>
        <time>2014-04-20T08:22:51.979Z</time>
      </trkpt>
      <trkpt lat="48.28971" lon="3.1838">
        <ele>157</ele>
        <time>2014-04-20T08:22:52.979Z</time>
      </trkpt>
      <trkpt lat="48.28965" lon="3.18385">
        <ele>157</ele>
        <time>2014-04-20T08:22:53.979Z</time>
      </trkpt>
      <trkpt lat="48.2896" lon="3.18389">
        <ele>157</ele>
        <time>2014-04-20T08:22:54.979Z</time>
      </trkpt>
      <trkpt lat="48.28954" lon="3.18395">
        <ele>156</ele>
        <time>2014-04-20T08:22:55.979Z</time>
      </trkpt>
      <trkpt lat="48.28947" lon="3.184">
        <ele>156</ele>
        <time>2014-04-20T08:22:56.979Z</time>
      </trkpt>
      <trkpt lat="48.28942" lon="3.18404">
        <ele>155</ele>
        <time>2014-04-20T08:22:57.979Z</time>
      </trkpt>
      <trkpt lat="48.28936" lon="3.18408">
        <ele>155</ele>
        <time>2014-04-20T08:22:58.979Z</time>
      </trkpt>
      <trkpt lat="48.28931" lon="3.18413">
        <ele>154</ele>
        <time>2014-04-20T08:22:59.979Z</time>
      </trkpt>
      <trkpt lat="48.28925" lon="3.18417">
        <ele>152</ele>
        <time>2014-04-20T08:23:00.979Z</time>
      </trkpt>
      <trkpt lat="48.28919" lon="3.18421">
        <ele>152</ele>
        <time>2014-04-20T08:23:01.979Z</time>
      </trkpt>
      <trkpt lat="48.28914" lon="3.18425">
        <ele>150</ele>
        <time>2014-04-20T08:23:02.979Z</time>
      </trkpt>
      <trkpt lat="48.28909" lon="3.1843">
        <ele>149</ele>
        <time>2014-04-20T08:23:03.979Z</time>
      </trkpt>
      <trkpt lat="48.28903" lon="3.18432">
        <ele>149</ele>
        <time>2014-04-20T08:23:04.979Z</time>
      </trkpt>
      <trkpt lat="48.28897" lon="3.18438">
        <ele>148</ele>
        <time>2014-04-20T08:23:05.979Z</time>
      </trkpt>
      <trkpt lat="48.28891" lon="3.18443">
        <ele>147</ele>
        <time>2014-04-20T08:23:06.979Z</time>
      </trkpt>
      <trkpt lat="48.28885" lon="3.18449">
        <ele>147</ele>
        <time>2014-04-20T08:23:07.979Z</time>
      </trkpt>
      <trkpt lat="48.28879" lon="3.18455">
        <ele>146</ele>
        <time>2014-04-20T08:23:08.979Z</time>
      </trkpt>
      <trkpt lat="48.28872" lon="3.18462">
        <ele>145</ele>
        <time>2014-04-20T08:23:09.979Z</time>
      </trkpt>
      <trkpt lat="48.28866" lon="3.18468">
        <ele>145</ele>
        <time>2014-04-20T08:23:10.979Z</time>
      </trkpt>
      <trkpt lat="48.28859" lon="3.18473">
        <ele>144</ele>
        <time>2014-04-20T08:23:11.979Z</time>
      </trkpt>
      <trkpt lat="48.28853" lon="3.18479">
        <ele>144</ele>
        <time>2014-04-20T08:23:12.979Z</time>
      </trkpt>
      <trkpt lat="48.28846" lon="3.18488">
        <ele>142</ele>
        <time>2014-04-20T08:23:13.979Z</time>
      </trkpt>
      <trkpt lat="48.2884" lon="3.18496">
        <ele>141</ele>
        <time>2014-04-20T08:23:14.979Z</time>
      </trkpt>
      <trkpt lat="48.28833" lon="3.18505">
        <ele>139</ele>
        <time>2014-04-20T08:23:15.979Z</time>
      </trkpt>
      <trkpt lat="48.28826" lon="3.18513">
        <ele>134</ele>
        <time>2014-04-20T08:23:16.979Z</time>
      </trkpt>
      <trkpt lat="48.2882" lon="3.18522">
        <ele>132</ele>
        <time>2014-04-20T08:23:17.979Z</time>
      </trkpt>
      <trkpt lat="48.28813" lon="3.18528">
        <ele>131</ele>
        <time>2014-04-20T08:23:18.979Z</time>
      </trkpt>
      <trkpt lat="48.28806" lon="3.18535">
        <ele>130</ele>
        <time>2014-04-20T08:23:19.979Z</time>
      </trkpt>
      <trkpt lat="48.28799" lon="3.18541">
        <ele>129</ele>
        <time>2014-04-20T08:23:20.979Z</time>
      </trkpt>
      <trkpt lat="48.28792" lon="3.18546">
        <ele>129</ele>
        <time>2014-04-20T08:23:21.979Z</time>
      </trkpt>
      <trkpt lat="48.28785" lon="3.1855">
        <ele>128</ele>
        <time>2014-04-20T08:23:22.979Z</time>
      </trkpt>
      <trkpt lat="48.2878" lon="3.18554">
        <ele>128</ele>
        <time>2014-04-20T08:23:23.979Z</time>
      </trkpt>
      <trkpt lat="48.28774" lon="3.18558">
        <ele>127</ele>
        <time>2014-04-20T08:23:24.979Z</time>
      </trkpt>
      <trkpt lat="48.28769" lon="3.18563">
        <ele>126</ele>
        <time>2014-04-20T08:23:25.979Z</time>
      </trkpt>
      <trkpt lat="48.28764" lon="3.18567">
        <ele>126</ele>
        <time>2014-04-20T08:23:26.979Z</time>
      </trkpt>
      <trkpt lat="48.28759" lon="3.18571">
        <ele>125</ele>
        <time>2014-04-20T08:23:27.979Z</time>
      </trkpt>
      <trkpt lat="48.28754" lon="3.18576">
        <ele>123</ele>
        <time>2014-04-20T08:23:28.979Z</time>
      </trkpt>
      <trkpt lat="48.28749" lon="3.18582">
        <ele>121</ele>
        <time>2014-04-20T08:23:29.979Z</time>
      </trkpt>
      <trkpt lat="48.28743" lon="3.18588">
        <ele>118</ele>
        <time>2014-04-20T08:23:30.979Z</time>
      </trkpt>
      <trkpt lat="48.28739" lon="3.18593">
        <ele>117</ele>
        <time>2014-04-20T08:23:31.979Z</time>
      </trkpt>
      <trkpt lat="48.28735" lon="3.18599">
        <ele>115</ele>
        <time>2014-04-20T08:23:32.979Z</time>
      </trkpt>
      <trkpt lat="48.28729" lon="3.18604">
        <ele>114</ele>
        <time>2014-04-20T08:23:33.979Z</time>
      </trkpt>
      <trkpt lat="48.28724" lon="3.1861">
        <ele>113</ele>
        <time>2014-04-20T08:23:34.979Z</time>
      </trkpt>
      <trkpt lat="48.28718" lon="3.18616">
        <ele>112</ele>
        <time>2014-04-20T08:23:35.979Z</time>
      </trkpt>
      <trkpt lat="48.28711" lon="3.18623">
        <ele>111</ele>
        <time>2014-04-20T08:23:36.979Z</time>
      </trkpt>
      <trkpt lat="48.28704" lon="3.18629">
        <ele>111</ele>
        <time>2014-04-20T08:23:37.979Z</time>
      </trkpt>
      <trkpt lat="48.28695" lon="3.18636">
        <ele>110</ele>
        <time>2014-04-20T08:23:38.979Z</time>
      </trkpt>
      <trkpt lat="48.28686" lon="3.1864">
        <ele>109</ele>
        <time>2014-04-20T08:23:39.979Z</time>
      </trkpt>
      <trkpt lat="48.28678" lon="3.18646">
        <ele>109</ele>
        <time>2014-04-20T08:23:40.979Z</time>
      </trkpt>
      <trkpt lat="48.28671" lon="3.18651">
        <ele>108</ele>
        <time>2014-04-20T08:23:41.979Z</time>
      </trkpt>
      <trkpt lat="48.28666" lon="3.18655">
        <ele>106</ele>
        <time>2014-04-20T08:23:42.979Z</time>
      </trkpt>
      <trkpt lat="48.28666" lon="3.18655">
        <ele>106</ele>
        <time>2014-04-20T08:23:43.979Z</time>
      </trkpt>
      <trkpt lat="48.28655" lon="3.18661">
        <ele>106</ele>
        <time>2014-04-20T08:23:44.979Z</time>
      </trkpt>
      <trkpt lat="48.28655" lon="3.18661">
        <ele>106</ele>
        <time>2014-04-20T08:23:45.979Z</time>
      </trkpt>
      <trkpt lat="48.28648" lon="3.18672">
        <ele>108</ele>
        <time>2014-04-20T08:23:46.979Z</time>
      </trkpt>
      <trkpt lat="48.28648" lon="3.18672">
        <ele>108</ele>
        <time>2014-04-20T08:24:16.979Z</time>
      </trkpt>
      <trkpt lat="48.28645" lon="3.18679">
        <ele>109</ele>
        <time>2014-04-20T08:24:17.979Z</time>
      </trkpt>
      <trkpt lat="48.28646" lon="3.18683">
        <ele>109</ele>
        <time>2014-04-20T08:24:19.979Z</time>
      </trkpt>
      <trkpt lat="48.28647" lon="3.18685">
        <ele>109</ele>
        <time>2014-04-20T08:24:20.979Z</time>
      </trkpt>
      <trkpt lat="48.2865" lon="3.18689">
        <ele>109</ele>
        <time>2014-04-20T08:24:22.979Z</time>
      </trkpt>
      <trkpt lat="48.28652" lon="3.18691">
        <ele>109</ele>
        <time>2014-04-20T08:24:23.979Z</time>
      </trkpt>
      <trkpt lat="48.28655" lon="3.18696">
        <ele>109</ele>
        <time>2014-04-20T08:24:24.979Z</time>
      </trkpt>
      <trkpt lat="48.28659" lon="3.187">
        <ele>109</ele>
        <time>2014-04-20T08:24:25.979Z</time>
      </trkpt>
      <trkpt lat="48.28662" lon="3.18704">
        <ele>109</ele>
        <time>2014-04-20T08:24:26.979Z</time>
      </trkpt>
      <trkpt lat="48.28666" lon="3.18709">
        <ele>109</ele>
        <time>2014-04-20T08:24:27.979Z</time>
      </trkpt>
      <trkpt lat="48.2867" lon="3.18713">
        <ele>106</ele>
        <time>2014-04-20T08:24:28.979Z</time>
      </trkpt>
      <trkpt lat="48.28674" lon="3.18719">
        <ele>107</ele>
        <time>2014-04-20T08:24:29.979Z</time>
      </trkpt>
      <trkpt lat="48.28679" lon="3.18724">
        <ele>107</ele>
        <time>2014-04-20T08:24:30.979Z</time>
      </trkpt>
      <trkpt lat="48.28683" lon="3.18728">
        <ele>107</ele>
        <time>2014-04-20T08:24:31.979Z</time>
      </trkpt>
      <trkpt lat="48.28688" lon="3.18732">
        <ele>107</ele>
        <time>2014-04-20T08:24:32.979Z</time>
      </trkpt>
      <trkpt lat="48.28691" lon="3.18737">
        <ele>107</ele>
        <time>2014-04-20T08:24:33.979Z</time>
      </trkpt>
      <trkpt lat="48.28695" lon="3.18741">
        <ele>106</ele>
        <time>2014-04-20T08:24:34.979Z</time>
      </trkpt>
      <trkpt lat="48.28699" lon="3.18743">
        <ele>106</ele>
        <time>2014-04-20T08:24:35.979Z</time>
      </trkpt>
      <trkpt lat="48.28703" lon="3.18747">
        <ele>106</ele>
        <time>2014-04-20T08:24:36.979Z</time>
      </trkpt>
      <trkpt lat="48.28707" lon="3.18752">
        <ele>107</ele>
        <time>2014-04-20T08:24:37.979Z</time>
      </trkpt>
      <trkpt lat="48.28711" lon="3.18756">
        <ele>107</ele>
        <time>2014-04-20T08:24:38.979Z</time>
      </trkpt>
      <trkpt lat="48.28715" lon="3.18762">
        <ele>107</ele>
        <time>2014-04-20T08:24:39.979Z</time>
      </trkpt>
      <trkpt lat="48.2872" lon="3.18767">
        <ele>106</ele>
        <time>2014-04-20T08:24:40.979Z</time>
      </trkpt>
      <trkpt lat="48.28724" lon="3.18771">
        <ele>106</ele>
        <time>2014-04-20T08:24:41.979Z</time>
      </trkpt>
      <trkpt lat="48.28728" lon="3.18775">
        <ele>106</ele>
        <time>2014-04-20T08:24:42.979Z</time>
      </trkpt>
      <trkpt lat="48.28733" lon="3.18779">
        <ele>106</ele>
        <time>2014-04-20T08:24:43.979Z</time>
      </trkpt>
      <trkpt lat="48.28738" lon="3.18786">
        <ele>106</ele>
        <time>2014-04-20T08:24:44.979Z</time>
      </trkpt>
      <trkpt lat="48.28742" lon="3.1879">
        <ele>107</ele>
        <time>2014-04-20T08:24:45.979Z</time>
      </trkpt>
      <trkpt lat="48.28748" lon="3.18797">
        <ele>107</ele>
        <time>2014-04-20T08:24:46.979Z</time>
      </trkpt>
      <trkpt lat="48.28754" lon="3.18803">
        <ele>102</ele>
        <time>2014-04-20T08:24:47.979Z</time>
      </trkpt>
      <trkpt lat="48.28759" lon="3.1881">
        <ele>102</ele>
        <time>2014-04-20T08:24:48.979Z</time>
      </trkpt>
      <trkpt lat="48.28765" lon="3.18816">
        <ele>102</ele>
        <time>2014-04-20T08:24:49.979Z</time>
      </trkpt>
      <trkpt lat="48.2877" lon="3.1882">
        <ele>102</ele>
        <time>2014-04-20T08:24:50.979Z</time>
      </trkpt>
      <trkpt lat="48.28776" lon="3.18827">
        <ele>102</ele>
        <time>2014-04-20T08:24:51.979Z</time>
      </trkpt>
      <trkpt lat="48.28781" lon="3.18833">
        <ele>101</ele>
        <time>2014-04-20T08:24:52.979Z</time>
      </trkpt>
      <trkpt lat="48.28786" lon="3.18837">
        <ele>103</ele>
        <time>2014-04-20T08:24:53.979Z</time>
      </trkpt>
      <trkpt lat="48.28792" lon="3.18844">
        <ele>103</ele>
        <time>2014-04-20T08:24:54.979Z</time>
      </trkpt>
      <trkpt lat="48.28796" lon="3.1885">
        <ele>103</ele>
        <time>2014-04-20T08:24:55.979Z</time>
      </trkpt>
      <trkpt lat="48.28801" lon="3.18855">
        <ele>103</ele>
        <time>2014-04-20T08:24:56.979Z</time>
      </trkpt>
      <trkpt lat="48.28807" lon="3.18861">
        <ele>102</ele>
        <time>2014-04-20T08:24:57.979Z</time>
      </trkpt>
      <trkpt lat="48.28811" lon="3.18867">
        <ele>103</ele>
        <time>2014-04-20T08:24:58.979Z</time>
      </trkpt>
      <trkpt lat="48.28816" lon="3.18872">
        <ele>103</ele>
        <time>2014-04-20T08:24:59.979Z</time>
      </trkpt>
      <trkpt lat="48.28821" lon="3.18878">
        <ele>103</ele>
        <time>2014-04-20T08:25:00.979Z</time>
      </trkpt>
      <trkpt lat="48.28826" lon="3.18882">
        <ele>103</ele>
        <time>2014-04-20T08:25:01.979Z</time>
      </trkpt>
      <trkpt lat="48.28831" lon="3.18887">
        <ele>103</ele>
        <time>2014-04-20T08:25:02.979Z</time>
      </trkpt>
      <trkpt lat="48.28836" lon="3.18893">
        <ele>98</ele>
        <time>2014-04-20T08:25:03.979Z</time>
      </trkpt>
      <trkpt lat="48.2884" lon="3.189">
        <ele>98</ele>
        <time>2014-04-20T08:25:04.979Z</time>
      </trkpt>
      <trkpt lat="48.28845" lon="3.18904">
        <ele>98</ele>
        <time>2014-04-20T08:25:05.979Z</time>
      </trkpt>
      <trkpt lat="48.2885" lon="3.18908">
        <ele>98</ele>
        <time>2014-04-20T08:25:06.979Z</time>
      </trkpt>
      <trkpt lat="48.28854" lon="3.18913">
        <ele>98</ele>
        <time>2014-04-20T08:25:07.979Z</time>
      </trkpt>
      <trkpt lat="48.28858" lon="3.18919">
        <ele>101</ele>
        <time>2014-04-20T08:25:08.979Z</time>
      </trkpt>
      <trkpt lat="48.28862" lon="3.18923">
        <ele>101</ele>
        <time>2014-04-20T08:25:09.979Z</time>
      </trkpt>
      <trkpt lat="48.28866" lon="3.18928">
        <ele>101</ele>
        <time>2014-04-20T08:25:10.979Z</time>
      </trkpt>
      <trkpt lat="48.2887" lon="3.18932">
        <ele>100</ele>
        <time>2014-04-20T08:25:11.979Z</time>
      </trkpt>
      <trkpt lat="48.28874" lon="3.18936">
        <ele>100</ele>
        <time>2014-04-20T08:25:12.979Z</time>
      </trkpt>
      <trkpt lat="48.28879" lon="3.1894">
        <ele>100</ele>
        <time>2014-04-20T08:25:13.979Z</time>
      </trkpt>
      <trkpt lat="48.28883" lon="3.18945">
        <ele>100</ele>
        <time>2014-04-20T08:25:14.979Z</time>
      </trkpt>
      <trkpt lat="48.28887" lon="3.18949">
        <ele>100</ele>
        <time>2014-04-20T08:25:15.979Z</time>
      </trkpt>
      <trkpt lat="48.2889" lon="3.18955">
        <ele>100</ele>
        <time>2014-04-20T08:25:16.979Z</time>
      </trkpt>
      <trkpt lat="48.28895" lon="3.1896">
        <ele>100</ele>
        <time>2014-04-20T08:25:17.979Z</time>
      </trkpt>
      <trkpt lat="48.28899" lon="3.18964">
        <ele>100</ele>
        <time>2014-04-20T08:25:18.979Z</time>
      </trkpt>
      <trkpt lat="48.28903" lon="3.18968">
        <ele>100</ele>
        <time>2014-04-20T08:25:19.979Z</time>
      </trkpt>
      <trkpt lat="48.28906" lon="3.18973">
        <ele>100</ele>
        <time>2014-04-20T08:25:20.979Z</time>
      </trkpt>
      <trkpt lat="48.28911" lon="3.18977">
        <ele>100</ele>
        <time>2014-04-20T08:25:21.979Z</time>
      </trkpt>
      <trkpt lat="48.28914" lon="3.18983">
        <ele>100</ele>
        <time>2014-04-20T08:25:22.979Z</time>
      </trkpt>
      <trkpt lat="48.28918" lon="3.18988">
        <ele>97</ele>
        <time>2014-04-20T08:25:23.979Z</time>
      </trkpt>
      <trkpt lat="48.28923" lon="3.18994">
        <ele>98</ele>
        <time>2014-04-20T08:25:24.979Z</time>
      </trkpt>
      <trkpt lat="48.28928" lon="3.19">
        <ele>99</ele>
        <time>2014-04-20T08:25:25.979Z</time>
      </trkpt>
      <trkpt lat="48.28932" lon="3.19005">
        <ele>98</ele>
        <time>2014-04-20T08:25:26.979Z</time>
      </trkpt>
      <trkpt lat="48.28936" lon="3.19011">
        <ele>98</ele>
        <time>2014-04-20T08:25:27.979Z</time>
      </trkpt>
      <trkpt lat="48.28942" lon="3.19016">
        <ele>97</ele>
        <time>2014-04-20T08:25:28.979Z</time>
      </trkpt>
      <trkpt lat="48.28946" lon="3.1902">
        <ele>97</ele>
        <time>2014-04-20T08:25:29.979Z</time>
      </trkpt>
      <trkpt lat="48.28951" lon="3.19024">
        <ele>97</ele>
        <time>2014-04-20T08:25:30.979Z</time>
      </trkpt>
      <trkpt lat="48.28956" lon="3.19031">
        <ele>97</ele>
        <time>2014-04-20T08:25:31.979Z</time>
      </trkpt>
      <trkpt lat="48.28961" lon="3.19035">
        <ele>96</ele>
        <time>2014-04-20T08:25:32.979Z</time>
      </trkpt>
      <trkpt lat="48.28966" lon="3.19039">
        <ele>96</ele>
        <time>2014-04-20T08:25:33.979Z</time>
      </trkpt>
      <trkpt lat="48.28972" lon="3.19043">
        <ele>96</ele>
        <time>2014-04-20T08:25:34.979Z</time>
      </trkpt>
      <trkpt lat="48.28978" lon="3.1905">
        <ele>95</ele>
        <time>2014-04-20T08:25:35.979Z</time>
      </trkpt>
      <trkpt lat="48.28985" lon="3.19056">
        <ele>95</ele>
        <time>2014-04-20T08:25:36.979Z</time>
      </trkpt>
      <trkpt lat="48.28991" lon="3.19063">
        <ele>94</ele>
        <time>2014-04-20T08:25:37.979Z</time>
      </trkpt>
      <trkpt lat="48.28998" lon="3.19071">
        <ele>94</ele>
        <time>2014-04-20T08:25:38.979Z</time>
      </trkpt>
      <trkpt lat="48.29005" lon="3.19078">
        <ele>90</ele>
        <time>2014-04-20T08:25:39.979Z</time>
      </trkpt>
      <trkpt lat="48.29012" lon="3.19084">
        <ele>91</ele>
        <time>2014-04-20T08:25:40.979Z</time>
      </trkpt>
      <trkpt lat="48.29018" lon="3.19093">
        <ele>91</ele>
        <time>2014-04-20T08:25:41.979Z</time>
      </trkpt>
      <trkpt lat="48.29026" lon="3.19099">
        <ele>90</ele>
        <time>2014-04-20T08:25:42.979Z</time>
      </trkpt>
      <trkpt lat="48.29032" lon="3.19108">
        <ele>90</ele>
        <time>2014-04-20T08:25:43.979Z</time>
      </trkpt>
      <trkpt lat="48.29039" lon="3.19114">
        <ele>90</ele>
        <time>2014-04-20T08:25:44.979Z</time>
      </trkpt>
      <trkpt lat="48.29046" lon="3.19121">
        <ele>89</ele>
        <time>2014-04-20T08:25:45.979Z</time>
      </trkpt>
      <trkpt lat="48.29052" lon="3.19129">
        <ele>89</ele>
        <time>2014-04-20T08:25:46.979Z</time>
      </trkpt>
      <trkpt lat="48.2906" lon="3.19136">
        <ele>89</ele>
        <time>2014-04-20T08:25:47.979Z</time>
      </trkpt>
      <trkpt lat="48.29067" lon="3.19144">
        <ele>88</ele>
        <time>2014-04-20T08:25:48.979Z</time>
      </trkpt>
      <trkpt lat="48.29074" lon="3.19153">
        <ele>88</ele>
        <time>2014-04-20T08:25:49.979Z</time>
      </trkpt>
      <trkpt lat="48.29081" lon="3.19159">
        <ele>87</ele>
        <time>2014-04-20T08:25:50.979Z</time>
      </trkpt>
      <trkpt lat="48.29088" lon="3.19168">
        <ele>86</ele>
        <time>2014-04-20T08:25:51.979Z</time>
      </trkpt>
      <trkpt lat="48.29095" lon="3.19174">
        <ele>85</ele>
        <time>2014-04-20T08:25:52.979Z</time>
      </trkpt>
      <trkpt lat="48.29102" lon="3.19183">
        <ele>84</ele>
        <time>2014-04-20T08:25:53.979Z</time>
      </trkpt>
      <trkpt lat="48.29109" lon="3.19191">
        <ele>84</ele>
        <time>2014-04-20T08:25:54.979Z</time>
      </trkpt>
      <trkpt lat="48.29116" lon="3.192">
        <ele>84</ele>
        <time>2014-04-20T08:25:55.979Z</time>
      </trkpt>
      <trkpt lat="48.29122" lon="3.19209">
        <ele>84</ele>
        <time>2014-04-20T08:25:56.979Z</time>
      </trkpt>
      <trkpt lat="48.29129" lon="3.19217">
        <ele>83</ele>
        <time>2014-04-20T08:25:57.979Z</time>
      </trkpt>
      <trkpt lat="48.29135" lon="3.19226">
        <ele>83</ele>
        <time>2014-04-20T08:25:58.979Z</time>
      </trkpt>
      <trkpt lat="48.29141" lon="3.19234">
        <ele>83</ele>
        <time>2014-04-20T08:25:59.979Z</time>
      </trkpt>
      <trkpt lat="48.29148" lon="3.19241">
        <ele>82</ele>
        <time>2014-04-20T08:26:00.979Z</time>
      </trkpt>
      <trkpt lat="48.29154" lon="3.19249">
        <ele>81</ele>
        <time>2014-04-20T08:26:01.979Z</time>
      </trkpt>
      <trkpt lat="48.29161" lon="3.19256">
        <ele>82</ele>
        <time>2014-04-20T08:26:02.979Z</time>
      </trkpt>
      <trkpt lat="48.29167" lon="3.19264">
        <ele>80</ele>
        <time>2014-04-20T08:26:03.979Z</time>
      </trkpt>
      <trkpt lat="48.29174" lon="3.19271">
        <ele>80</ele>
        <time>2014-04-20T08:26:04.979Z</time>
      </trkpt>
      <trkpt lat="48.2918" lon="3.19277">
        <ele>80</ele>
        <time>2014-04-20T08:26:05.979Z</time>
      </trkpt>
      <trkpt lat="48.29186" lon="3.19284">
        <ele>80</ele>
        <time>2014-04-20T08:26:06.979Z</time>
      </trkpt>
      <trkpt lat="48.29193" lon="3.1929">
        <ele>79</ele>
        <time>2014-04-20T08:26:07.979Z</time>
      </trkpt>
      <trkpt lat="48.29199" lon="3.19294">
        <ele>79</ele>
        <time>2014-04-20T08:26:08.979Z</time>
      </trkpt>
      <trkpt lat="48.29205" lon="3.19301">
        <ele>79</ele>
        <time>2014-04-20T08:26:09.979Z</time>
      </trkpt>
      <trkpt lat="48.29211" lon="3.19305">
        <ele>79</ele>
        <time>2014-04-20T08:26:10.979Z</time>
      </trkpt>
      <trkpt lat="48.29216" lon="3.19309">
        <ele>79</ele>
        <time>2014-04-20T08:26:11.979Z</time>
      </trkpt>
      <trkpt lat="48.29222" lon="3.19316">
        <ele>78</ele>
        <time>2014-04-20T08:26:12.979Z</time>
      </trkpt>
      <trkpt lat="48.29226" lon="3.19322">
        <ele>78</ele>
        <time>2014-04-20T08:26:13.979Z</time>
      </trkpt>
      <trkpt lat="48.29229" lon="3.19329">
        <ele>78</ele>
        <time>2014-04-20T08:26:14.979Z</time>
      </trkpt>
      <trkpt lat="48.29232" lon="3.19337">
        <ele>79</ele>
        <time>2014-04-20T08:26:15.979Z</time>
      </trkpt>
      <trkpt lat="48.29233" lon="3.19344">
        <ele>80</ele>
        <time>2014-04-20T08:26:16.979Z</time>
      </trkpt>
      <trkpt lat="48.29234" lon="3.1935">
        <ele>80</ele>
        <time>2014-04-20T08:26:17.979Z</time>
      </trkpt>
      <trkpt lat="48.29234" lon="3.19355">
        <ele>80</ele>
        <time>2014-04-20T08:26:18.979Z</time>
      </trkpt>
      <trkpt lat="48.29235" lon="3.19359">
        <ele>80</ele>
        <time>2014-04-20T08:26:19.979Z</time>
      </trkpt>
      <trkpt lat="48.29235" lon="3.19365">
        <ele>81</ele>
        <time>2014-04-20T08:26:20.979Z</time>
      </trkpt>
      <trkpt lat="48.29236" lon="3.1937">
        <ele>81</ele>
        <time>2014-04-20T08:26:21.979Z</time>
      </trkpt>
      <trkpt lat="48.29236" lon="3.19374">
        <ele>81</ele>
        <time>2014-04-20T08:26:22.979Z</time>
      </trkpt>
      <trkpt lat="48.29236" lon="3.1938">
        <ele>81</ele>
        <time>2014-04-20T08:26:23.979Z</time>
      </trkpt>
      <trkpt lat="48.29237" lon="3.19385">
        <ele>81</ele>
        <time>2014-04-20T08:26:24.979Z</time>
      </trkpt>
      <trkpt lat="48.29237" lon="3.19391">
        <ele>81</ele>
        <time>2014-04-20T08:26:25.979Z</time>
      </trkpt>
      <trkpt lat="48.29237" lon="3.194">
        <ele>81</ele>
        <time>2014-04-20T08:26:26.979Z</time>
      </trkpt>
      <trkpt lat="48.29238" lon="3.19408">
        <ele>80</ele>
        <time>2014-04-20T08:26:27.979Z</time>
      </trkpt>
      <trkpt lat="48.29238" lon="3.19415">
        <ele>80</ele>
        <time>2014-04-20T08:26:28.979Z</time>
      </trkpt>
      <trkpt lat="48.29239" lon="3.19423">
        <ele>81</ele>
        <time>2014-04-20T08:26:29.979Z</time>
      </trkpt>
      <trkpt lat="48.29239" lon="3.19434">
        <ele>83</ele>
        <time>2014-04-20T08:26:30.979Z</time>
      </trkpt>
      <trkpt lat="48.29239" lon="3.19443">
        <ele>84</ele>
        <time>2014-04-20T08:26:31.979Z</time>
      </trkpt>
      <trkpt lat="48.2924" lon="3.19451">
        <ele>84</ele>
        <time>2014-04-20T08:26:32.979Z</time>
      </trkpt>
      <trkpt lat="48.29241" lon="3.1946">
        <ele>85</ele>
        <time>2014-04-20T08:26:33.979Z</time>
      </trkpt>
      <trkpt lat="48.29242" lon="3.1947">
        <ele>85</ele>
        <time>2014-04-20T08:26:34.979Z</time>
      </trkpt>
      <trkpt lat="48.29242" lon="3.19479">
        <ele>85</ele>
        <time>2014-04-20T08:26:35.979Z</time>
      </trkpt>
      <trkpt lat="48.29243" lon="3.19488">
        <ele>84</ele>
        <time>2014-04-20T08:26:36.979Z</time>
      </trkpt>
      <trkpt lat="48.29243" lon="3.19496">
        <ele>84</ele>
        <time>2014-04-20T08:26:37.979Z</time>
      </trkpt>
      <trkpt lat="48.29243" lon="3.19503">
        <ele>84</ele>
        <time>2014-04-20T08:26:38.979Z</time>
      </trkpt>
      <trkpt lat="48.29242" lon="3.19509">
        <ele>84</ele>
        <time>2014-04-20T08:26:39.979Z</time>
      </trkpt>
      <trkpt lat="48.29241" lon="3.19513">
        <ele>85</ele>
        <time>2014-04-20T08:26:40.979Z</time>
      </trkpt>
      <trkpt lat="48.2924" lon="3.19515">
        <ele>85</ele>
        <time>2014-04-20T08:26:41.979Z</time>
      </trkpt>
      <trkpt lat="48.29239" lon="3.19518">
        <ele>85</ele>
        <time>2014-04-20T08:26:46.979Z</time>
      </trkpt>
      <trkpt lat="48.2923" lon="3.19526">
        <ele>85</ele>
        <time>2014-04-20T08:26:47.979Z</time>
      </trkpt>
      <trkpt lat="48.2923" lon="3.19526">
        <ele>85</ele>
        <time>2014-04-20T08:26:49.979Z</time>
      </trkpt>
      <trkpt lat="48.29226" lon="3.1953">
        <ele>86</ele>
        <time>2014-04-20T08:26:50.979Z</time>
      </trkpt>
      <trkpt lat="48.29226" lon="3.1953">
        <ele>86</ele>
        <time>2014-04-20T08:26:52.979Z</time>
      </trkpt>
      <trkpt lat="48.29221" lon="3.19533">
        <ele>86</ele>
        <time>2014-04-20T08:26:53.979Z</time>
      </trkpt>
      <trkpt lat="48.29221" lon="3.19533">
        <ele>86</ele>
        <time>2014-04-20T08:26:55.979Z</time>
      </trkpt>
      <trkpt lat="48.29215" lon="3.19537">
        <ele>86</ele>
        <time>2014-04-20T08:26:56.979Z</time>
      </trkpt>
      <trkpt lat="48.29215" lon="3.19537">
        <ele>86</ele>
        <time>2014-04-20T08:26:58.979Z</time>
      </trkpt>
      <trkpt lat="48.2921" lon="3.19543">
        <ele>87</ele>
        <time>2014-04-20T08:26:59.979Z</time>
      </trkpt>
      <trkpt lat="48.2921" lon="3.19543">
        <ele>87</ele>
        <time>2014-04-20T08:27:00.979Z</time>
      </trkpt>
      <trkpt lat="48.29206" lon="3.19548">
        <ele>87</ele>
        <time>2014-04-20T08:27:01.979Z</time>
      </trkpt>
      <trkpt lat="48.29204" lon="3.1955">
        <ele>87</ele>
        <time>2014-04-20T08:27:02.979Z</time>
      </trkpt>
      <trkpt lat="48.29201" lon="3.19552">
        <ele>87</ele>
        <time>2014-04-20T08:27:03.979Z</time>
      </trkpt>
      <trkpt lat="48.29198" lon="3.19554">
        <ele>87</ele>
        <time>2014-04-20T08:27:04.979Z</time>
      </trkpt>
      <trkpt lat="48.29196" lon="3.19556">
        <ele>88</ele>
        <time>2014-04-20T08:27:05.979Z</time>
      </trkpt>
      <trkpt lat="48.29193" lon="3.19561">
        <ele>88</ele>
        <time>2014-04-20T08:27:06.979Z</time>
      </trkpt>
      <trkpt lat="48.29191" lon="3.19563">
        <ele>88</ele>
        <time>2014-04-20T08:27:07.979Z</time>
      </trkpt>
      <trkpt lat="48.29188" lon="3.19565">
        <ele>89</ele>
        <time>2014-04-20T08:27:08.979Z</time>
      </trkpt>
      <trkpt lat="48.29185" lon="3.19567">
        <ele>89</ele>
        <time>2014-04-20T08:27:09.979Z</time>
      </trkpt>
      <trkpt lat="48.29182" lon="3.19571">
        <ele>89</ele>
        <time>2014-04-20T08:27:10.979Z</time>
      </trkpt>
      <trkpt lat="48.2918" lon="3.19573">
        <ele>90</ele>
        <time>2014-04-20T08:27:11.979Z</time>
      </trkpt>
      <trkpt lat="48.29178" lon="3.19576">
        <ele>90</ele>
        <time>2014-04-20T08:27:12.979Z</time>
      </trkpt>
      <trkpt lat="48.29175" lon="3.19578">
        <ele>91</ele>
        <time>2014-04-20T08:27:13.979Z</time>
      </trkpt>
      <trkpt lat="48.29172" lon="3.1958">
        <ele>91</ele>
        <time>2014-04-20T08:27:14.979Z</time>
      </trkpt>
      <trkpt lat="48.2917" lon="3.19582">
        <ele>92</ele>
        <time>2014-04-20T08:27:15.979Z</time>
      </trkpt>
      <trkpt lat="48.29167" lon="3.19586">
        <ele>92</ele>
        <time>2014-04-20T08:27:16.979Z</time>
      </trkpt>
      <trkpt lat="48.29163" lon="3.19588">
        <ele>93</ele>
        <time>2014-04-20T08:27:17.979Z</time>
      </trkpt>
      <trkpt lat="48.29159" lon="3.19593">
        <ele>93</ele>
        <time>2014-04-20T08:27:18.979Z</time>
      </trkpt>
      <trkpt lat="48.29154" lon="3.19597">
        <ele>93</ele>
        <time>2014-04-20T08:27:19.979Z</time>
      </trkpt>
      <trkpt lat="48.29149" lon="3.19603">
        <ele>93</ele>
        <time>2014-04-20T08:27:20.979Z</time>
      </trkpt>
      <trkpt lat="48.29145" lon="3.1961">
        <ele>93</ele>
        <time>2014-04-20T08:27:21.979Z</time>
      </trkpt>
      <trkpt lat="48.2914" lon="3.19616">
        <ele>93</ele>
        <time>2014-04-20T08:27:22.979Z</time>
      </trkpt>
      <trkpt lat="48.29136" lon="3.19625">
        <ele>93</ele>
        <time>2014-04-20T08:27:23.979Z</time>
      </trkpt>
      <trkpt lat="48.29132" lon="3.19631">
        <ele>93</ele>
        <time>2014-04-20T08:27:24.979Z</time>
      </trkpt>
      <trkpt lat="48.29129" lon="3.1964">
        <ele>93</ele>
        <time>2014-04-20T08:27:25.979Z</time>
      </trkpt>
      <trkpt lat="48.29126" lon="3.19649">
        <ele>93</ele>
        <time>2014-04-20T08:27:26.979Z</time>
      </trkpt>
      <trkpt lat="48.29123" lon="3.19657">
        <ele>93</ele>
        <time>2014-04-20T08:27:27.979Z</time>
      </trkpt>
      <trkpt lat="48.29121" lon="3.19664">
        <ele>93</ele>
        <time>2014-04-20T08:27:28.979Z</time>
      </trkpt>
      <trkpt lat="48.29119" lon="3.1967">
        <ele>88</ele>
        <time>2014-04-20T08:27:29.979Z</time>
      </trkpt>
      <trkpt lat="48.29116" lon="3.19676">
        <ele>88</ele>
        <time>2014-04-20T08:27:30.979Z</time>
      </trkpt>
      <trkpt lat="48.29112" lon="3.19685">
        <ele>88</ele>
        <time>2014-04-20T08:27:31.979Z</time>
      </trkpt>
      <trkpt lat="48.29109" lon="3.19691">
        <ele>88</ele>
        <time>2014-04-20T08:27:32.979Z</time>
      </trkpt>
      <trkpt lat="48.29106" lon="3.19698">
        <ele>87</ele>
        <time>2014-04-20T08:27:33.979Z</time>
      </trkpt>
      <trkpt lat="48.29102" lon="3.19706">
        <ele>87</ele>
        <time>2014-04-20T08:27:34.979Z</time>
      </trkpt>
      <trkpt lat="48.29098" lon="3.19715">
        <ele>87</ele>
        <time>2014-04-20T08:27:35.979Z</time>
      </trkpt>
      <trkpt lat="48.29094" lon="3.19721">
        <ele>87</ele>
        <time>2014-04-20T08:27:36.979Z</time>
      </trkpt>
      <trkpt lat="48.2909" lon="3.1973">
        <ele>87</ele>
        <time>2014-04-20T08:27:37.979Z</time>
      </trkpt>
      <trkpt lat="48.29086" lon="3.19739">
        <ele>87</ele>
        <time>2014-04-20T08:27:38.979Z</time>
      </trkpt>
      <trkpt lat="48.29082" lon="3.19747">
        <ele>89</ele>
        <time>2014-04-20T08:27:39.979Z</time>
      </trkpt>
      <trkpt lat="48.29078" lon="3.19756">
        <ele>88</ele>
        <time>2014-04-20T08:27:40.979Z</time>
      </trkpt>
      <trkpt lat="48.29074" lon="3.19764">
        <ele>88</ele>
        <time>2014-04-20T08:27:41.979Z</time>
      </trkpt>
      <trkpt lat="48.29069" lon="3.19773">
        <ele>87</ele>
        <time>2014-04-20T08:27:42.979Z</time>
      </trkpt>
      <trkpt lat="48.29065" lon="3.19782">
        <ele>87</ele>
        <time>2014-04-20T08:27:43.979Z</time>
      </trkpt>
      <trkpt lat="48.29061" lon="3.19788">
        <ele>87</ele>
        <time>2014-04-20T08:27:44.979Z</time>
      </trkpt>
      <trkpt lat="48.29058" lon="3.19794">
        <ele>86</ele>
        <time>2014-04-20T08:27:45.979Z</time>
      </trkpt>
      <trkpt lat="48.29054" lon="3.19799">
        <ele>86</ele>
        <time>2014-04-20T08:27:46.979Z</time>
      </trkpt>
      <trkpt lat="48.2905" lon="3.19805">
        <ele>86</ele>
        <time>2014-04-20T08:27:47.979Z</time>
      </trkpt>
      <trkpt lat="48.29047" lon="3.19809">
        <ele>86</ele>
        <time>2014-04-20T08:27:48.979Z</time>
      </trkpt>
      <trkpt lat="48.29043" lon="3.19814">
        <ele>86</ele>
        <time>2014-04-20T08:27:49.979Z</time>
      </trkpt>
      <trkpt lat="48.29038" lon="3.1982">
        <ele>86</ele>
        <time>2014-04-20T08:27:50.979Z</time>
      </trkpt>
      <trkpt lat="48.29035" lon="3.19824">
        <ele>86</ele>
        <time>2014-04-20T08:27:51.979Z</time>
      </trkpt>
      <trkpt lat="48.29031" lon="3.19829">
        <ele>86</ele>
        <time>2014-04-20T08:27:52.979Z</time>
      </trkpt>
      <trkpt lat="48.29027" lon="3.19833">
        <ele>86</ele>
        <time>2014-04-20T08:27:53.979Z</time>
      </trkpt>
      <trkpt lat="48.29022" lon="3.19839">
        <ele>81</ele>
        <time>2014-04-20T08:27:54.979Z</time>
      </trkpt>
      <trkpt lat="48.29019" lon="3.19846">
        <ele>81</ele>
        <time>2014-04-20T08:27:55.979Z</time>
      </trkpt>
      <trkpt lat="48.29016" lon="3.19852">
        <ele>81</ele>
        <time>2014-04-20T08:27:56.979Z</time>
      </trkpt>
      <trkpt lat="48.29014" lon="3.19859">
        <ele>80</ele>
        <time>2014-04-20T08:27:57.979Z</time>
      </trkpt>
      <trkpt lat="48.2901" lon="3.19867">
        <ele>80</ele>
        <time>2014-04-20T08:27:58.979Z</time>
      </trkpt>
      <trkpt lat="48.29009" lon="3.19876">
        <ele>79</ele>
        <time>2014-04-20T08:27:59.979Z</time>
      </trkpt>
      <trkpt lat="48.29007" lon="3.19882">
        <ele>79</ele>
        <time>2014-04-20T08:28:00.979Z</time>
      </trkpt>
      <trkpt lat="48.29006" lon="3.19891">
        <ele>78</ele>
        <time>2014-04-20T08:28:01.979Z</time>
      </trkpt>
      <trkpt lat="48.29004" lon="3.19897">
        <ele>78</ele>
        <time>2014-04-20T08:28:02.979Z</time>
      </trkpt>
      <trkpt lat="48.29002" lon="3.19906">
        <ele>78</ele>
        <time>2014-04-20T08:28:03.979Z</time>
      </trkpt>
      <trkpt lat="48.29001" lon="3.19912">
        <ele>79</ele>
        <time>2014-04-20T08:28:04.979Z</time>
      </trkpt>
      <trkpt lat="48.28999" lon="3.19919">
        <ele>80</ele>
        <time>2014-04-20T08:28:05.979Z</time>
      </trkpt>
      <trkpt lat="48.28997" lon="3.19925">
        <ele>81</ele>
        <time>2014-04-20T08:28:06.979Z</time>
      </trkpt>
      <trkpt lat="48.28994" lon="3.1993">
        <ele>81</ele>
        <time>2014-04-20T08:28:07.979Z</time>
      </trkpt>
      <trkpt lat="48.28993" lon="3.19936">
        <ele>82</ele>
        <time>2014-04-20T08:28:08.979Z</time>
      </trkpt>
      <trkpt lat="48.28991" lon="3.1994">
        <ele>82</ele>
        <time>2014-04-20T08:28:09.979Z</time>
      </trkpt>
      <trkpt lat="48.28989" lon="3.19945">
        <ele>82</ele>
        <time>2014-04-20T08:28:10.979Z</time>
      </trkpt>
      <trkpt lat="48.28987" lon="3.19949">
        <ele>82</ele>
        <time>2014-04-20T08:28:11.979Z</time>
      </trkpt>
      <trkpt lat="48.28986" lon="3.19955">
        <ele>82</ele>
        <time>2014-04-20T08:28:12.979Z</time>
      </trkpt>
      <trkpt lat="48.28984" lon="3.1996">
        <ele>82</ele>
        <time>2014-04-20T08:28:13.979Z</time>
      </trkpt>
      <trkpt lat="48.2898" lon="3.19966">
        <ele>82</ele>
        <time>2014-04-20T08:28:14.979Z</time>
      </trkpt>
      <trkpt lat="48.28978" lon="3.19973">
        <ele>82</ele>
        <time>2014-04-20T08:28:15.979Z</time>
      </trkpt>
      <trkpt lat="48.28976" lon="3.19977">
        <ele>82</ele>
        <time>2014-04-20T08:28:16.979Z</time>
      </trkpt>
      <trkpt lat="48.28974" lon="3.19983">
        <ele>82</ele>
        <time>2014-04-20T08:28:17.979Z</time>
      </trkpt>
      <trkpt lat="48.28972" lon="3.1999">
        <ele>82</ele>
        <time>2014-04-20T08:28:18.979Z</time>
      </trkpt>
      <trkpt lat="48.2897" lon="3.19996">
        <ele>82</ele>
        <time>2014-04-20T08:28:19.979Z</time>
      </trkpt>
      <trkpt lat="48.28968" lon="3.20003">
        <ele>79</ele>
        <time>2014-04-20T08:28:20.979Z</time>
      </trkpt>
      <trkpt lat="48.28966" lon="3.20009">
        <ele>79</ele>
        <time>2014-04-20T08:28:21.979Z</time>
      </trkpt>
      <trkpt lat="48.28964" lon="3.20013">
        <ele>79</ele>
        <time>2014-04-20T08:28:22.979Z</time>
      </trkpt>
      <trkpt lat="48.28962" lon="3.2002">
        <ele>79</ele>
        <time>2014-04-20T08:28:23.979Z</time>
      </trkpt>
      <trkpt lat="48.2896" lon="3.20026">
        <ele>79</ele>
        <time>2014-04-20T08:28:24.979Z</time>
      </trkpt>
      <trkpt lat="48.28959" lon="3.2003">
        <ele>79</ele>
        <time>2014-04-20T08:28:25.979Z</time>
      </trkpt>
      <trkpt lat="48.28957" lon="3.20037">
        <ele>79</ele>
        <time>2014-04-20T08:28:26.979Z</time>
      </trkpt>
      <trkpt lat="48.28956" lon="3.20041">
        <ele>79</ele>
        <time>2014-04-20T08:28:27.979Z</time>
      </trkpt>
      <trkpt lat="48.28954" lon="3.20045">
        <ele>79</ele>
        <time>2014-04-20T08:28:28.979Z</time>
      </trkpt>
      <trkpt lat="48.28951" lon="3.20052">
        <ele>79</ele>
        <time>2014-04-20T08:28:29.979Z</time>
      </trkpt>
      <trkpt lat="48.28949" lon="3.20056">
        <ele>79</ele>
        <time>2014-04-20T08:28:30.979Z</time>
      </trkpt>
      <trkpt lat="48.28947" lon="3.2006">
        <ele>79</ele>
        <time>2014-04-20T08:28:31.979Z</time>
      </trkpt>
      <trkpt lat="48.28945" lon="3.20065">
        <ele>79</ele>
        <time>2014-04-20T08:28:32.979Z</time>
      </trkpt>
      <trkpt lat="48.28943" lon="3.20069">
        <ele>79</ele>
        <time>2014-04-20T08:28:33.979Z</time>
      </trkpt>
      <trkpt lat="48.2894" lon="3.20073">
        <ele>80</ele>
        <time>2014-04-20T08:28:34.979Z</time>
      </trkpt>
      <trkpt lat="48.28938" lon="3.2008">
        <ele>80</ele>
        <time>2014-04-20T08:28:35.979Z</time>
      </trkpt>
      <trkpt lat="48.28935" lon="3.20084">
        <ele>77</ele>
        <time>2014-04-20T08:28:36.979Z</time>
      </trkpt>
      <trkpt lat="48.28932" lon="3.20088">
        <ele>77</ele>
        <time>2014-04-20T08:28:37.979Z</time>
      </trkpt>
      <trkpt lat="48.2893" lon="3.20095">
        <ele>77</ele>
        <time>2014-04-20T08:28:38.979Z</time>
      </trkpt>
      <trkpt lat="48.28928" lon="3.20099">
        <ele>77</ele>
        <time>2014-04-20T08:28:39.979Z</time>
      </trkpt>
      <trkpt lat="48.28926" lon="3.20106">
        <ele>76</ele>
        <time>2014-04-20T08:28:40.979Z</time>
      </trkpt>
      <trkpt lat="48.28924" lon="3.20112">
        <ele>75</ele>
        <time>2014-04-20T08:28:41.979Z</time>
      </trkpt>
      <trkpt lat="48.28921" lon="3.20118">
        <ele>75</ele>
        <time>2014-04-20T08:28:42.979Z</time>
      </trkpt>
      <trkpt lat="48.28919" lon="3.20125">
        <ele>74</ele>
        <time>2014-04-20T08:28:43.979Z</time>
      </trkpt>
      <trkpt lat="48.28917" lon="3.20131">
        <ele>74</ele>
        <time>2014-04-20T08:28:44.979Z</time>
      </trkpt>
      <trkpt lat="48.28915" lon="3.20138">
        <ele>79</ele>
        <time>2014-04-20T08:28:45.979Z</time>
      </trkpt>
      <trkpt lat="48.28913" lon="3.20144">
        <ele>78</ele>
        <time>2014-04-20T08:28:46.979Z</time>
      </trkpt>
      <trkpt lat="48.28911" lon="3.20148">
        <ele>77</ele>
        <time>2014-04-20T08:28:47.979Z</time>
      </trkpt>
      <trkpt lat="48.28907" lon="3.20155">
        <ele>77</ele>
        <time>2014-04-20T08:28:48.979Z</time>
      </trkpt>
      <trkpt lat="48.28905" lon="3.20159">
        <ele>77</ele>
        <time>2014-04-20T08:28:49.979Z</time>
      </trkpt>
      <trkpt lat="48.28902" lon="3.20163">
        <ele>77</ele>
        <time>2014-04-20T08:28:50.979Z</time>
      </trkpt>
      <trkpt lat="48.28899" lon="3.2017">
        <ele>74</ele>
        <time>2014-04-20T08:28:51.979Z</time>
      </trkpt>
      <trkpt lat="48.28896" lon="3.20174">
        <ele>74</ele>
        <time>2014-04-20T08:28:52.979Z</time>
      </trkpt>
      <trkpt lat="48.28892" lon="3.20179">
        <ele>74</ele>
        <time>2014-04-20T08:28:53.979Z</time>
      </trkpt>
      <trkpt lat="48.28888" lon="3.20181">
        <ele>75</ele>
        <time>2014-04-20T08:28:54.979Z</time>
      </trkpt>
      <trkpt lat="48.28884" lon="3.20183">
        <ele>75</ele>
        <time>2014-04-20T08:28:55.979Z</time>
      </trkpt>
      <trkpt lat="48.28879" lon="3.20185">
        <ele>75</ele>
        <time>2014-04-20T08:28:56.979Z</time>
      </trkpt>
      <trkpt lat="48.28874" lon="3.20185">
        <ele>75</ele>
        <time>2014-04-20T08:28:57.979Z</time>
      </trkpt>
      <trkpt lat="48.28869" lon="3.20185">
        <ele>75</ele>
        <time>2014-04-20T08:28:58.979Z</time>
      </trkpt>
      <trkpt lat="48.28862" lon="3.20185">
        <ele>76</ele>
        <time>2014-04-20T08:28:59.979Z</time>
      </trkpt>
      <trkpt lat="48.28857" lon="3.20183">
        <ele>76</ele>
        <time>2014-04-20T08:29:00.979Z</time>
      </trkpt>
      <trkpt lat="48.28852" lon="3.20181">
        <ele>76</ele>
        <time>2014-04-20T08:29:01.979Z</time>
      </trkpt>
      <trkpt lat="48.28846" lon="3.20179">
        <ele>77</ele>
        <time>2014-04-20T08:29:02.979Z</time>
      </trkpt>
      <trkpt lat="48.28841" lon="3.20174">
        <ele>78</ele>
        <time>2014-04-20T08:29:03.979Z</time>
      </trkpt>
      <trkpt lat="48.28837" lon="3.20172">
        <ele>78</ele>
        <time>2014-04-20T08:29:04.979Z</time>
      </trkpt>
      <trkpt lat="48.28831" lon="3.20168">
        <ele>79</ele>
        <time>2014-04-20T08:29:05.979Z</time>
      </trkpt>
      <trkpt lat="48.28827" lon="3.20166">
        <ele>80</ele>
        <time>2014-04-20T08:29:06.979Z</time>
      </trkpt>
      <trkpt lat="48.28822" lon="3.20161">
        <ele>81</ele>
        <time>2014-04-20T08:29:07.979Z</time>
      </trkpt>
      <trkpt lat="48.28817" lon="3.20159">
        <ele>81</ele>
        <time>2014-04-20T08:29:08.979Z</time>
      </trkpt>
      <trkpt lat="48.28813" lon="3.20157">
        <ele>81</ele>
        <time>2014-04-20T08:29:09.979Z</time>
      </trkpt>
      <trkpt lat="48.28808" lon="3.20155">
        <ele>82</ele>
        <time>2014-04-20T08:29:10.979Z</time>
      </trkpt>
      <trkpt lat="48.28803" lon="3.20153">
        <ele>82</ele>
        <time>2014-04-20T08:29:11.979Z</time>
      </trkpt>
      <trkpt lat="48.28799" lon="3.20153">
        <ele>82</ele>
        <time>2014-04-20T08:29:12.979Z</time>
      </trkpt>
      <trkpt lat="48.28796" lon="3.20151">
        <ele>82</ele>
        <time>2014-04-20T08:29:13.979Z</time>
      </trkpt>
      <trkpt lat="48.28792" lon="3.20151">
        <ele>82</ele>
        <time>2014-04-20T08:29:14.979Z</time>
      </trkpt>
      <trkpt lat="48.28788" lon="3.20151">
        <ele>82</ele>
        <time>2014-04-20T08:29:15.979Z</time>
      </trkpt>
      <trkpt lat="48.28785" lon="3.20148">
        <ele>82</ele>
        <time>2014-04-20T08:29:16.979Z</time>
      </trkpt>
      <trkpt lat="48.28782" lon="3.20148">
        <ele>82</ele>
        <time>2014-04-20T08:29:17.979Z</time>
      </trkpt>
      <trkpt lat="48.28779" lon="3.20148">
        <ele>82</ele>
        <time>2014-04-20T08:29:18.979Z</time>
      </trkpt>
      <trkpt lat="48.28776" lon="3.20148">
        <ele>82</ele>
        <time>2014-04-20T08:29:19.979Z</time>
      </trkpt>
      <trkpt lat="48.28772" lon="3.20148">
        <ele>82</ele>
        <time>2014-04-20T08:29:20.979Z</time>
      </trkpt>
      <trkpt lat="48.28768" lon="3.20148">
        <ele>82</ele>
        <time>2014-04-20T08:29:21.979Z</time>
      </trkpt>
      <trkpt lat="48.28763" lon="3.20151">
        <ele>81</ele>
        <time>2014-04-20T08:29:22.979Z</time>
      </trkpt>
      <trkpt lat="48.28758" lon="3.20151">
        <ele>81</ele>
        <time>2014-04-20T08:29:23.979Z</time>
      </trkpt>
      <trkpt lat="48.28754" lon="3.20153">
        <ele>81</ele>
        <time>2014-04-20T08:29:24.979Z</time>
      </trkpt>
      <trkpt lat="48.2875" lon="3.20153">
        <ele>79</ele>
        <time>2014-04-20T08:29:25.979Z</time>
      </trkpt>
      <trkpt lat="48.28745" lon="3.20155">
        <ele>79</ele>
        <time>2014-04-20T08:29:26.979Z</time>
      </trkpt>
      <trkpt lat="48.28741" lon="3.20155">
        <ele>79</ele>
        <time>2014-04-20T08:29:30.979Z</time>
      </trkpt>
      <trkpt lat="48.28729" lon="3.20155">
        <ele>78</ele>
        <time>2014-04-20T08:29:31.979Z</time>
      </trkpt>
      <trkpt lat="48.28729" lon="3.20155">
        <ele>78</ele>
        <time>2014-04-20T08:29:34.979Z</time>
      </trkpt>
      <trkpt lat="48.28722" lon="3.20144">
        <ele>78</ele>
        <time>2014-04-20T08:29:35.979Z</time>
      </trkpt>
      <trkpt lat="48.28721" lon="3.20142">
        <ele>78</ele>
        <time>2014-04-20T08:29:36.979Z</time>
      </trkpt>
      <trkpt lat="48.28719" lon="3.20138">
        <ele>78</ele>
        <time>2014-04-20T08:29:37.979Z</time>
      </trkpt>
      <trkpt lat="48.28717" lon="3.20131">
        <ele>78</ele>
        <time>2014-04-20T08:29:38.979Z</time>
      </trkpt>
      <trkpt lat="48.28714" lon="3.20125">
        <ele>79</ele>
        <time>2014-04-20T08:29:39.979Z</time>
      </trkpt>
      <trkpt lat="48.28712" lon="3.20121">
        <ele>79</ele>
        <time>2014-04-20T08:29:40.979Z</time>
      </trkpt>
      <trkpt lat="48.2871" lon="3.20116">
        <ele>79</ele>
        <time>2014-04-20T08:29:41.979Z</time>
      </trkpt>
      <trkpt lat="48.28709" lon="3.20112">
        <ele>79</ele>
        <time>2014-04-20T08:29:44.979Z</time>
      </trkpt>
      <trkpt lat="48.28707" lon="3.20106">
        <ele>79</ele>
        <time>2014-04-20T08:29:45.979Z</time>
      </trkpt>
      <trkpt lat="48.28707" lon="3.20106">
        <ele>79</ele>
        <time>2014-04-20T08:29:50.979Z</time>
      </trkpt>
      <trkpt lat="48.28705" lon="3.20099">
        <ele>79</ele>
        <time>2014-04-20T08:29:51.979Z</time>
      </trkpt>
      <trkpt lat="48.28705" lon="3.20099">
        <ele>79</ele>
        <time>2014-04-20T08:29:56.979Z</time>
      </trkpt>
      <trkpt lat="48.28695" lon="3.20101">
        <ele>78</ele>
        <time>2014-04-20T08:29:57.979Z</time>
      </trkpt>
      <trkpt lat="48.28695" lon="3.20101">
        <ele>78</ele>
        <time>2014-04-20T08:29:59.979Z</time>
      </trkpt>
      <trkpt lat="48.28688" lon="3.20101">
        <ele>78</ele>
        <time>2014-04-20T08:30:00.979Z</time>
      </trkpt>
      <trkpt lat="48.28688" lon="3.20101">
        <ele>78</ele>
        <time>2014-04-20T08:30:03.979Z</time>
      </trkpt>
      <trkpt lat="48.28678" lon="3.20103">
        <ele>77</ele>
        <time>2014-04-20T08:30:04.979Z</time>
      </trkpt>
      <trkpt lat="48.28678" lon="3.20103">
        <ele>77</ele>
        <time>2014-04-20T08:30:09.979Z</time>
      </trkpt>
      <trkpt lat="48.28668" lon="3.2011">
        <ele>77</ele>
        <time>2014-04-20T08:30:10.979Z</time>
      </trkpt>
      <trkpt lat="48.28668" lon="3.2011">
        <ele>77</ele>
        <time>2014-04-20T08:30:17.979Z</time>
      </trkpt>
      <trkpt lat="48.2866" lon="3.20116">
        <ele>73</ele>
        <time>2014-04-20T08:30:18.979Z</time>
      </trkpt>
      <trkpt lat="48.28655" lon="3.20118">
        <ele>73</ele>
        <time>2014-04-20T08:30:52.979Z</time>
      </trkpt>
      <trkpt lat="48.2865" lon="3.2011">
        <ele>73</ele>
        <time>2014-04-20T08:30:53.979Z</time>
      </trkpt>
      <trkpt lat="48.28649" lon="3.20106">
        <ele>73</ele>
        <time>2014-04-20T08:30:54.979Z</time>
      </trkpt>
      <trkpt lat="48.28647" lon="3.20103">
        <ele>73</ele>
        <time>2014-04-20T08:30:55.979Z</time>
      </trkpt>
      <trkpt lat="48.28644" lon="3.20099">
        <ele>73</ele>
        <time>2014-04-20T08:30:56.979Z</time>
      </trkpt>
      <trkpt lat="48.28641" lon="3.20097">
        <ele>73</ele>
        <time>2014-04-20T08:30:57.979Z</time>
      </trkpt>
      <trkpt lat="48.28639" lon="3.20093">
        <ele>73</ele>
        <time>2014-04-20T08:30:58.979Z</time>
      </trkpt>
      <trkpt lat="48.28636" lon="3.20091">
        <ele>73</ele>
        <time>2014-04-20T08:30:59.979Z</time>
      </trkpt>
      <trkpt lat="48.28633" lon="3.20088">
        <ele>73</ele>
        <time>2014-04-20T08:31:00.979Z</time>
      </trkpt>
      <trkpt lat="48.2863" lon="3.20088">
        <ele>73</ele>
        <time>2014-04-20T08:31:01.979Z</time>
      </trkpt>
      <trkpt lat="48.28625" lon="3.20088">
        <ele>72</ele>
        <time>2014-04-20T08:31:02.979Z</time>
      </trkpt>
      <trkpt lat="48.28622" lon="3.20088">
        <ele>72</ele>
        <time>2014-04-20T08:31:03.979Z</time>
      </trkpt>
      <trkpt lat="48.28618" lon="3.20088">
        <ele>72</ele>
        <time>2014-04-20T08:31:04.979Z</time>
      </trkpt>
      <trkpt lat="48.28615" lon="3.20091">
        <ele>72</ele>
        <time>2014-04-20T08:31:05.979Z</time>
      </trkpt>
      <trkpt lat="48.28611" lon="3.20093">
        <ele>72</ele>
        <time>2014-04-20T08:31:06.979Z</time>
      </trkpt>
      <trkpt lat="48.28608" lon="3.20093">
        <ele>72</ele>
        <time>2014-04-20T08:31:07.979Z</time>
      </trkpt>
      <trkpt lat="48.28608" lon="3.20093">
        <ele>72</ele>
        <time>2014-04-20T08:31:08.979Z</time>
      </trkpt>
      <trkpt lat="48.28603" lon="3.20095">
        <ele>72</ele>
        <time>2014-04-20T08:31:09.979Z</time>
      </trkpt>
      <trkpt lat="48.28603" lon="3.20095">
        <ele>72</ele>
        <time>2014-04-20T08:31:11.979Z</time>
      </trkpt>
      <trkpt lat="48.28596" lon="3.20097">
        <ele>71</ele>
        <time>2014-04-20T08:31:12.979Z</time>
      </trkpt>
      <trkpt lat="48.28593" lon="3.20099">
        <ele>71</ele>
        <time>2014-04-20T08:31:13.979Z</time>
      </trkpt>
      <trkpt lat="48.2859" lon="3.20101">
        <ele>71</ele>
        <time>2014-04-20T08:31:14.979Z</time>
      </trkpt>
      <trkpt lat="48.28587" lon="3.20101">
        <ele>71</ele>
        <time>2014-04-20T08:31:15.979Z</time>
      </trkpt>
      <trkpt lat="48.28585" lon="3.20103">
        <ele>71</ele>
        <time>2014-04-20T08:31:16.979Z</time>
      </trkpt>
      <trkpt lat="48.2858" lon="3.20106">
        <ele>72</ele>
        <time>2014-04-20T08:31:17.979Z</time>
      </trkpt>
      <trkpt lat="48.28577" lon="3.2011">
        <ele>72</ele>
        <time>2014-04-20T08:31:18.979Z</time>
      </trkpt>
      <trkpt lat="48.28575" lon="3.20114">
        <ele>72</ele>
        <time>2014-04-20T08:31:19.979Z</time>
      </trkpt>
      <trkpt lat="48.28573" lon="3.20118">
        <ele>72</ele>
        <time>2014-04-20T08:31:20.979Z</time>
      </trkpt>
      <trkpt lat="48.28571" lon="3.20125">
        <ele>72</ele>
        <time>2014-04-20T08:31:21.979Z</time>
      </trkpt>
      <trkpt lat="48.28568" lon="3.20131">
        <ele>71</ele>
        <time>2014-04-20T08:31:22.979Z</time>
      </trkpt>
      <trkpt lat="48.28566" lon="3.20136">
        <ele>71</ele>
        <time>2014-04-20T08:31:23.979Z</time>
      </trkpt>
      <trkpt lat="48.28565" lon="3.20142">
        <ele>71</ele>
        <time>2014-04-20T08:31:24.979Z</time>
      </trkpt>
      <trkpt lat="48.28563" lon="3.20148">
        <ele>71</ele>
        <time>2014-04-20T08:31:25.979Z</time>
      </trkpt>
      <trkpt lat="48.28561" lon="3.20153">
        <ele>71</ele>
        <time>2014-04-20T08:31:26.979Z</time>
      </trkpt>
      <trkpt lat="48.28558" lon="3.20157">
        <ele>71</ele>
        <time>2014-04-20T08:31:27.979Z</time>
      </trkpt>
      <trkpt lat="48.28556" lon="3.20159">
        <ele>71</ele>
        <time>2014-04-20T08:31:28.979Z</time>
      </trkpt>
      <trkpt lat="48.28553" lon="3.20163">
        <ele>71</ele>
        <time>2014-04-20T08:31:29.979Z</time>
      </trkpt>
      <trkpt lat="48.28551" lon="3.20166">
        <ele>72</ele>
        <time>2014-04-20T08:31:30.979Z</time>
      </trkpt>
      <trkpt lat="48.28549" lon="3.20168">
        <ele>71</ele>
        <time>2014-04-20T08:31:31.979Z</time>
      </trkpt>
      <trkpt lat="48.28546" lon="3.20168">
        <ele>71</ele>
        <time>2014-04-20T08:31:32.979Z</time>
      </trkpt>
      <trkpt lat="48.28544" lon="3.2017">
        <ele>71</ele>
        <time>2014-04-20T08:31:33.979Z</time>
      </trkpt>
      <trkpt lat="48.28541" lon="3.20172">
        <ele>71</ele>
        <time>2014-04-20T08:31:34.979Z</time>
      </trkpt>
      <trkpt lat="48.28537" lon="3.20174">
        <ele>71</ele>
        <time>2014-04-20T08:31:35.979Z</time>
      </trkpt>
      <trkpt lat="48.28534" lon="3.20174">
        <ele>71</ele>
        <time>2014-04-20T08:31:36.979Z</time>
      </trkpt>
      <trkpt lat="48.28531" lon="3.20176">
        <ele>72</ele>
        <time>2014-04-20T08:31:37.979Z</time>
      </trkpt>
      <trkpt lat="48.28528" lon="3.20179">
        <ele>72</ele>
        <time>2014-04-20T08:31:38.979Z</time>
      </trkpt>
      <trkpt lat="48.28523" lon="3.20181">
        <ele>72</ele>
        <time>2014-04-20T08:31:39.979Z</time>
      </trkpt>
      <trkpt lat="48.2852" lon="3.20183">
        <ele>72</ele>
        <time>2014-04-20T08:31:40.979Z</time>
      </trkpt>
      <trkpt lat="48.28517" lon="3.20183">
        <ele>72</ele>
        <time>2014-04-20T08:31:41.979Z</time>
      </trkpt>
      <trkpt lat="48.28514" lon="3.20185">
        <ele>72</ele>
        <time>2014-04-20T08:31:42.979Z</time>
      </trkpt>
      <trkpt lat="48.28509" lon="3.20187">
        <ele>72</ele>
        <time>2014-04-20T08:31:43.979Z</time>
      </trkpt>
      <trkpt lat="48.28507" lon="3.20187">
        <ele>72</ele>
        <time>2014-04-20T08:31:50.979Z</time>
      </trkpt>
      <trkpt lat="48.28497" lon="3.20187">
        <ele>75</ele>
        <time>2014-04-20T08:31:51.979Z</time>
      </trkpt>
      <trkpt lat="48.28497" lon="3.20187">
        <ele>75</ele>
        <time>2014-04-20T08:31:55.979Z</time>
      </trkpt>
      <trkpt lat="48.28487" lon="3.20189">
        <ele>75</ele>
        <time>2014-04-20T08:31:56.979Z</time>
      </trkpt>
      <trkpt lat="48.28485" lon="3.20191">
        <ele>75</ele>
        <time>2014-04-20T08:31:57.979Z</time>
      </trkpt>
      <trkpt lat="48.28482" lon="3.20194">
        <ele>75</ele>
        <time>2014-04-20T08:31:58.979Z</time>
      </trkpt>
      <trkpt lat="48.28479" lon="3.20196">
        <ele>75</ele>
        <time>2014-04-20T08:31:59.979Z</time>
      </trkpt>
      <trkpt lat="48.28476" lon="3.20198">
        <ele>75</ele>
        <time>2014-04-20T08:32:00.979Z</time>
      </trkpt>
      <trkpt lat="48.28474" lon="3.20202">
        <ele>75</ele>
        <time>2014-04-20T08:32:01.979Z</time>
      </trkpt>
      <trkpt lat="48.28471" lon="3.20204">
        <ele>75</ele>
        <time>2014-04-20T08:32:02.979Z</time>
      </trkpt>
      <trkpt lat="48.28469" lon="3.20206">
        <ele>75</ele>
        <time>2014-04-20T08:32:03.979Z</time>
      </trkpt>
      <trkpt lat="48.28467" lon="3.20209">
        <ele>75</ele>
        <time>2014-04-20T08:32:04.979Z</time>
      </trkpt>
      <trkpt lat="48.28463" lon="3.20211">
        <ele>75</ele>
        <time>2014-04-20T08:32:05.979Z</time>
      </trkpt>
      <trkpt lat="48.28461" lon="3.20213">
        <ele>75</ele>
        <time>2014-04-20T08:32:06.979Z</time>
      </trkpt>
      <trkpt lat="48.28458" lon="3.20215">
        <ele>75</ele>
        <time>2014-04-20T08:32:07.979Z</time>
      </trkpt>
      <trkpt lat="48.28455" lon="3.20219">
        <ele>75</ele>
        <time>2014-04-20T08:32:08.979Z</time>
      </trkpt>
      <trkpt lat="48.28453" lon="3.20221">
        <ele>76</ele>
        <time>2014-04-20T08:32:09.979Z</time>
      </trkpt>
      <trkpt lat="48.28449" lon="3.20224">
        <ele>76</ele>
        <time>2014-04-20T08:32:10.979Z</time>
      </trkpt>
      <trkpt lat="48.28446" lon="3.20228">
        <ele>76</ele>
        <time>2014-04-20T08:32:11.979Z</time>
      </trkpt>
      <trkpt lat="48.28443" lon="3.20232">
        <ele>76</ele>
        <time>2014-04-20T08:32:12.979Z</time>
      </trkpt>
      <trkpt lat="48.2844" lon="3.20234">
        <ele>76</ele>
        <time>2014-04-20T08:32:13.979Z</time>
      </trkpt>
      <trkpt lat="48.28436" lon="3.20239">
        <ele>76</ele>
        <time>2014-04-20T08:32:14.979Z</time>
      </trkpt>
      <trkpt lat="48.28433" lon="3.20243">
        <ele>76</ele>
        <time>2014-04-20T08:32:15.979Z</time>
      </trkpt>
      <trkpt lat="48.2843" lon="3.20245">
        <ele>76</ele>
        <time>2014-04-20T08:32:16.979Z</time>
      </trkpt>
      <trkpt lat="48.28427" lon="3.20249">
        <ele>76</ele>
        <time>2014-04-20T08:32:17.979Z</time>
      </trkpt>
      <trkpt lat="48.28424" lon="3.20251">
        <ele>76</ele>
        <time>2014-04-20T08:32:18.979Z</time>
      </trkpt>
      <trkpt lat="48.2842" lon="3.20256">
        <ele>76</ele>
        <time>2014-04-20T08:32:19.979Z</time>
      </trkpt>
      <trkpt lat="48.28417" lon="3.20258">
        <ele>76</ele>
        <time>2014-04-20T08:32:20.979Z</time>
      </trkpt>
      <trkpt lat="48.28414" lon="3.2026">
        <ele>77</ele>
        <time>2014-04-20T08:32:21.979Z</time>
      </trkpt>
      <trkpt lat="48.28411" lon="3.20264">
        <ele>77</ele>
        <time>2014-04-20T08:32:22.979Z</time>
      </trkpt>
      <trkpt lat="48.28409" lon="3.20266">
        <ele>77</ele>
        <time>2014-04-20T08:32:23.979Z</time>
      </trkpt>
      <trkpt lat="48.28404" lon="3.20269">
        <ele>77</ele>
        <time>2014-04-20T08:32:24.979Z</time>
      </trkpt>
      <trkpt lat="48.28401" lon="3.20273">
        <ele>77</ele>
        <time>2014-04-20T08:32:25.979Z</time>
      </trkpt>
      <trkpt lat="48.28398" lon="3.20275">
        <ele>77</ele>
        <time>2014-04-20T08:32:26.979Z</time>
      </trkpt>
      <trkpt lat="48.28398" lon="3.20275">
        <ele>77</ele>
        <time>2014-04-20T08:32:29.979Z</time>
      </trkpt>
      <trkpt lat="48.2839" lon="3.2029">
        <ele>77</ele>
        <time>2014-04-20T08:32:30.979Z</time>
      </trkpt>
      <trkpt lat="48.28389" lon="3.20294">
        <ele>77</ele>
        <time>2014-04-20T08:32:31.979Z</time>
      </trkpt>
      <trkpt lat="48.28389" lon="3.20299">
        <ele>77</ele>
        <time>2014-04-20T08:32:32.979Z</time>
      </trkpt>
      <trkpt lat="48.28389" lon="3.20305">
        <ele>77</ele>
        <time>2014-04-20T08:32:34.979Z</time>
      </trkpt>
      <trkpt lat="48.28389" lon="3.20309">
        <ele>77</ele>
        <time>2014-04-20T08:32:35.979Z</time>
      </trkpt>
      <trkpt lat="48.2839" lon="3.20314">
        <ele>77</ele>
        <time>2014-04-20T08:32:36.979Z</time>
      </trkpt>
      <trkpt lat="48.2839" lon="3.2032">
        <ele>77</ele>
        <time>2014-04-20T08:32:37.979Z</time>
      </trkpt>
      <trkpt lat="48.28389" lon="3.20327">
        <ele>77</ele>
        <time>2014-04-20T08:32:38.979Z</time>
      </trkpt>
      <trkpt lat="48.28389" lon="3.20333">
        <ele>77</ele>
        <time>2014-04-20T08:32:39.979Z</time>
      </trkpt>
      <trkpt lat="48.28389" lon="3.20342">
        <ele>76</ele>
        <time>2014-04-20T08:32:40.979Z</time>
      </trkpt>
      <trkpt lat="48.28389" lon="3.20348">
        <ele>76</ele>
        <time>2014-04-20T08:32:41.979Z</time>
      </trkpt>
      <trkpt lat="48.28389" lon="3.20354">
        <ele>76</ele>
        <time>2014-04-20T08:32:42.979Z</time>
      </trkpt>
      <trkpt lat="48.28389" lon="3.20361">
        <ele>76</ele>
        <time>2014-04-20T08:32:43.979Z</time>
      </trkpt>
      <trkpt lat="48.2839" lon="3.20367">
        <ele>76</ele>
        <time>2014-04-20T08:32:44.979Z</time>
      </trkpt>
      <trkpt lat="48.28393" lon="3.20374">
        <ele>76</ele>
        <time>2014-04-20T08:32:45.979Z</time>
      </trkpt>
      <trkpt lat="48.28394" lon="3.2038">
        <ele>75</ele>
        <time>2014-04-20T08:32:46.979Z</time>
      </trkpt>
      <trkpt lat="48.28396" lon="3.20389">
        <ele>75</ele>
        <time>2014-04-20T08:32:47.979Z</time>
      </trkpt>
      <trkpt lat="48.28398" lon="3.20397">
        <ele>75</ele>
        <time>2014-04-20T08:32:48.979Z</time>
      </trkpt>
      <trkpt lat="48.284" lon="3.20404">
        <ele>75</ele>
        <time>2014-04-20T08:32:49.979Z</time>
      </trkpt>
      <trkpt lat="48.28402" lon="3.20412">
        <ele>75</ele>
        <time>2014-04-20T08:32:50.979Z</time>
      </trkpt>
      <trkpt lat="48.28404" lon="3.20421">
        <ele>74</ele>
        <time>2014-04-20T08:32:51.979Z</time>
      </trkpt>
      <trkpt lat="48.28408" lon="3.2043">
        <ele>74</ele>
        <time>2014-04-20T08:32:52.979Z</time>
      </trkpt>
      <trkpt lat="48.2841" lon="3.2044">
        <ele>74</ele>
        <time>2014-04-20T08:32:53.979Z</time>
      </trkpt>
      <trkpt lat="48.28413" lon="3.20449">
        <ele>74</ele>
        <time>2014-04-20T08:32:54.979Z</time>
      </trkpt>
      <trkpt lat="48.28416" lon="3.2046">
        <ele>74</ele>
        <time>2014-04-20T08:32:55.979Z</time>
      </trkpt>
      <trkpt lat="48.28419" lon="3.2047">
        <ele>72</ele>
        <time>2014-04-20T08:32:56.979Z</time>
      </trkpt>
      <trkpt lat="48.28423" lon="3.20481">
        <ele>72</ele>
        <time>2014-04-20T08:32:57.979Z</time>
      </trkpt>
      <trkpt lat="48.28426" lon="3.20492">
        <ele>72</ele>
        <time>2014-04-20T08:32:58.979Z</time>
      </trkpt>
      <trkpt lat="48.28429" lon="3.20503">
        <ele>71</ele>
        <time>2014-04-20T08:32:59.979Z</time>
      </trkpt>
      <trkpt lat="48.28432" lon="3.20513">
        <ele>70</ele>
        <time>2014-04-20T08:33:00.979Z</time>
      </trkpt>
      <trkpt lat="48.28435" lon="3.20526">
        <ele>69</ele>
        <time>2014-04-20T08:33:01.979Z</time>
      </trkpt>
      <trkpt lat="48.28439" lon="3.20539">
        <ele>69</ele>
        <time>2014-04-20T08:33:02.979Z</time>
      </trkpt>
      <trkpt lat="48.28442" lon="3.2055">
        <ele>68</ele>
        <time>2014-04-20T08:33:03.979Z</time>
      </trkpt>
      <trkpt lat="48.28445" lon="3.2056">
        <ele>68</ele>
        <time>2014-04-20T08:33:04.979Z</time>
      </trkpt>
      <trkpt lat="48.28448" lon="3.20571">
        <ele>68</ele>
        <time>2014-04-20T08:33:05.979Z</time>
      </trkpt>
      <trkpt lat="48.2845" lon="3.2058">
        <ele>68</ele>
        <time>2014-04-20T08:33:06.979Z</time>
      </trkpt>
      <trkpt lat="48.28453" lon="3.20586">
        <ele>65</ele>
        <time>2014-04-20T08:33:07.979Z</time>
      </trkpt>
      <trkpt lat="48.28454" lon="3.20593">
        <ele>65</ele>
        <time>2014-04-20T08:33:08.979Z</time>
      </trkpt>
      <trkpt lat="48.28455" lon="3.20597">
        <ele>65</ele>
        <time>2014-04-20T08:33:09.979Z</time>
      </trkpt>
      <trkpt lat="48.28457" lon="3.20603">
        <ele>65</ele>
        <time>2014-04-20T08:33:10.979Z</time>
      </trkpt>
      <trkpt lat="48.28458" lon="3.20608">
        <ele>65</ele>
        <time>2014-04-20T08:33:11.979Z</time>
      </trkpt>
      <trkpt lat="48.2846" lon="3.20612">
        <ele>65</ele>
        <time>2014-04-20T08:33:12.979Z</time>
      </trkpt>
      <trkpt lat="48.2846" lon="3.20616">
        <ele>65</ele>
        <time>2014-04-20T08:33:13.979Z</time>
      </trkpt>
      <trkpt lat="48.28459" lon="3.20621">
        <ele>65</ele>
        <time>2014-04-20T08:33:14.979Z</time>
      </trkpt>
      <trkpt lat="48.28457" lon="3.20623">
        <ele>65</ele>
        <time>2014-04-20T08:33:15.979Z</time>
      </trkpt>
      <trkpt lat="48.28454" lon="3.20627">
        <ele>65</ele>
        <time>2014-04-20T08:33:16.979Z</time>
      </trkpt>
      <trkpt lat="48.28452" lon="3.20629">
        <ele>65</ele>
        <time>2014-04-20T08:33:17.979Z</time>
      </trkpt>
      <trkpt lat="48.28449" lon="3.20631">
        <ele>65</ele>
        <time>2014-04-20T08:33:18.979Z</time>
      </trkpt>
      <trkpt lat="48.28446" lon="3.20636">
        <ele>64</ele>
        <time>2014-04-20T08:33:19.979Z</time>
      </trkpt>
      <trkpt lat="48.28443" lon="3.20638">
        <ele>64</ele>
        <time>2014-04-20T08:33:20.979Z</time>
      </trkpt>
      <trkpt lat="48.2844" lon="3.20642">
        <ele>64</ele>
        <time>2014-04-20T08:33:21.979Z</time>
      </trkpt>
      <trkpt lat="48.28436" lon="3.20646">
        <ele>64</ele>
        <time>2014-04-20T08:33:22.979Z</time>
      </trkpt>
      <trkpt lat="48.28432" lon="3.20651">
        <ele>64</ele>
        <time>2014-04-20T08:33:23.979Z</time>
      </trkpt>
      <trkpt lat="48.28428" lon="3.20655">
        <ele>64</ele>
        <time>2014-04-20T08:33:24.979Z</time>
      </trkpt>
      <trkpt lat="48.28424" lon="3.20659">
        <ele>64</ele>
        <time>2014-04-20T08:33:25.979Z</time>
      </trkpt>
      <trkpt lat="48.28419" lon="3.20663">
        <ele>63</ele>
        <time>2014-04-20T08:33:26.979Z</time>
      </trkpt>
      <trkpt lat="48.28415" lon="3.20668">
        <ele>63</ele>
        <time>2014-04-20T08:33:27.979Z</time>
      </trkpt>
      <trkpt lat="48.28411" lon="3.20672">
        <ele>64</ele>
        <time>2014-04-20T08:33:28.979Z</time>
      </trkpt>
      <trkpt lat="48.28406" lon="3.20678">
        <ele>64</ele>
        <time>2014-04-20T08:33:29.979Z</time>
      </trkpt>
      <trkpt lat="48.28402" lon="3.20683">
        <ele>64</ele>
        <time>2014-04-20T08:33:30.979Z</time>
      </trkpt>
      <trkpt lat="48.28398" lon="3.20687">
        <ele>64</ele>
        <time>2014-04-20T08:33:31.979Z</time>
      </trkpt>
      <trkpt lat="48.28394" lon="3.20691">
        <ele>64</ele>
        <time>2014-04-20T08:33:32.979Z</time>
      </trkpt>
      <trkpt lat="48.28389" lon="3.20696">
        <ele>64</ele>
        <time>2014-04-20T08:33:33.979Z</time>
      </trkpt>
      <trkpt lat="48.28384" lon="3.207">
        <ele>65</ele>
        <time>2014-04-20T08:33:34.979Z</time>
      </trkpt>
      <trkpt lat="48.28379" lon="3.20704">
        <ele>65</ele>
        <time>2014-04-20T08:33:35.979Z</time>
      </trkpt>
      <trkpt lat="48.28373" lon="3.20711">
        <ele>65</ele>
        <time>2014-04-20T08:33:36.979Z</time>
      </trkpt>
      <trkpt lat="48.28369" lon="3.20715">
        <ele>65</ele>
        <time>2014-04-20T08:33:37.979Z</time>
      </trkpt>
      <trkpt lat="48.28364" lon="3.20719">
        <ele>65</ele>
        <time>2014-04-20T08:33:38.979Z</time>
      </trkpt>
      <trkpt lat="48.28358" lon="3.20724">
        <ele>65</ele>
        <time>2014-04-20T08:33:39.979Z</time>
      </trkpt>
      <trkpt lat="48.28354" lon="3.20728">
        <ele>65</ele>
        <time>2014-04-20T08:33:40.979Z</time>
      </trkpt>
      <trkpt lat="48.28349" lon="3.20732">
        <ele>65</ele>
        <time>2014-04-20T08:33:41.979Z</time>
      </trkpt>
      <trkpt lat="48.28344" lon="3.20736">
        <ele>65</ele>
        <time>2014-04-20T08:33:42.979Z</time>
      </trkpt>
      <trkpt lat="48.28339" lon="3.20741">
        <ele>65</ele>
        <time>2014-04-20T08:33:43.979Z</time>
      </trkpt>
      <trkpt lat="48.28333" lon="3.20743">
        <ele>65</ele>
        <time>2014-04-20T08:33:44.979Z</time>
      </trkpt>
      <trkpt lat="48.28328" lon="3.20747">
        <ele>66</ele>
        <time>2014-04-20T08:33:45.979Z</time>
      </trkpt>
      <trkpt lat="48.28324" lon="3.20751">
        <ele>66</ele>
        <time>2014-04-20T08:33:46.979Z</time>
      </trkpt>
      <trkpt lat="48.28318" lon="3.20756">
        <ele>66</ele>
        <time>2014-04-20T08:33:47.979Z</time>
      </trkpt>
      <trkpt lat="48.28314" lon="3.20762">
        <ele>66</ele>
        <time>2014-04-20T08:33:48.979Z</time>
      </trkpt>
      <trkpt lat="48.2831" lon="3.20766">
        <ele>66</ele>
        <time>2014-04-20T08:33:49.979Z</time>
      </trkpt>
      <trkpt lat="48.28306" lon="3.20773">
        <ele>67</ele>
        <time>2014-04-20T08:33:50.979Z</time>
      </trkpt>
      <trkpt lat="48.28302" lon="3.20777">
        <ele>67</ele>
        <time>2014-04-20T08:33:51.979Z</time>
      </trkpt>
      <trkpt lat="48.28298" lon="3.20784">
        <ele>67</ele>
        <time>2014-04-20T08:33:52.979Z</time>
      </trkpt>
      <trkpt lat="48.28294" lon="3.2079">
        <ele>67</ele>
        <time>2014-04-20T08:33:53.979Z</time>
      </trkpt>
      <trkpt lat="48.2829" lon="3.20796">
        <ele>67</ele>
        <time>2014-04-20T08:33:54.979Z</time>
      </trkpt>
      <trkpt lat="48.28284" lon="3.20803">
        <ele>67</ele>
        <time>2014-04-20T08:33:55.979Z</time>
      </trkpt>
      <trkpt lat="48.28279" lon="3.20812">
        <ele>67</ele>
        <time>2014-04-20T08:33:56.979Z</time>
      </trkpt>
      <trkpt lat="48.28274" lon="3.20818">
        <ele>67</ele>
        <time>2014-04-20T08:33:57.979Z</time>
      </trkpt>
      <trkpt lat="48.28269" lon="3.20824">
        <ele>67</ele>
        <time>2014-04-20T08:33:58.979Z</time>
      </trkpt>
      <trkpt lat="48.28264" lon="3.20833">
        <ele>67</ele>
        <time>2014-04-20T08:33:59.979Z</time>
      </trkpt>
      <trkpt lat="48.28258" lon="3.20839">
        <ele>66</ele>
        <time>2014-04-20T08:34:00.979Z</time>
      </trkpt>
      <trkpt lat="48.28253" lon="3.20846">
        <ele>66</ele>
        <time>2014-04-20T08:34:01.979Z</time>
      </trkpt>
      <trkpt lat="48.28248" lon="3.20854">
        <ele>68</ele>
        <time>2014-04-20T08:34:02.979Z</time>
      </trkpt>
      <trkpt lat="48.28243" lon="3.20861">
        <ele>68</ele>
        <time>2014-04-20T08:34:03.979Z</time>
      </trkpt>
      <trkpt lat="48.28238" lon="3.20869">
        <ele>68</ele>
        <time>2014-04-20T08:34:04.979Z</time>
      </trkpt>
      <trkpt lat="48.28234" lon="3.20878">
        <ele>68</ele>
        <time>2014-04-20T08:34:05.979Z</time>
      </trkpt>
      <trkpt lat="48.28229" lon="3.20884">
        <ele>68</ele>
        <time>2014-04-20T08:34:06.979Z</time>
      </trkpt>
      <trkpt lat="48.28225" lon="3.20893">
        <ele>67</ele>
        <time>2014-04-20T08:34:07.979Z</time>
      </trkpt>
      <trkpt lat="48.28221" lon="3.20902">
        <ele>67</ele>
        <time>2014-04-20T08:34:08.979Z</time>
      </trkpt>
      <trkpt lat="48.28217" lon="3.2091">
        <ele>67</ele>
        <time>2014-04-20T08:34:09.979Z</time>
      </trkpt>
      <trkpt lat="48.28212" lon="3.20917">
        <ele>67</ele>
        <time>2014-04-20T08:34:10.979Z</time>
      </trkpt>
      <trkpt lat="48.28208" lon="3.20925">
        <ele>65</ele>
        <time>2014-04-20T08:34:11.979Z</time>
      </trkpt>
      <trkpt lat="48.28204" lon="3.20934">
        <ele>65</ele>
        <time>2014-04-20T08:34:12.979Z</time>
      </trkpt>
      <trkpt lat="48.28199" lon="3.2094">
        <ele>65</ele>
        <time>2014-04-20T08:34:13.979Z</time>
      </trkpt>
      <trkpt lat="48.28195" lon="3.20947">
        <ele>65</ele>
        <time>2014-04-20T08:34:14.979Z</time>
      </trkpt>
      <trkpt lat="48.2819" lon="3.20955">
        <ele>64</ele>
        <time>2014-04-20T08:34:15.979Z</time>
      </trkpt>
      <trkpt lat="48.28185" lon="3.20962">
        <ele>64</ele>
        <time>2014-04-20T08:34:16.979Z</time>
      </trkpt>
      <trkpt lat="48.28181" lon="3.20968">
        <ele>64</ele>
        <time>2014-04-20T08:34:17.979Z</time>
      </trkpt>
      <trkpt lat="48.28178" lon="3.20975">
        <ele>64</ele>
        <time>2014-04-20T08:34:18.979Z</time>
      </trkpt>
      <trkpt lat="48.28174" lon="3.20981">
        <ele>64</ele>
        <time>2014-04-20T08:34:19.979Z</time>
      </trkpt>
      <trkpt lat="48.28169" lon="3.20987">
        <ele>63</ele>
        <time>2014-04-20T08:34:20.979Z</time>
      </trkpt>
      <trkpt lat="48.28166" lon="3.20994">
        <ele>64</ele>
        <time>2014-04-20T08:34:21.979Z</time>
      </trkpt>
      <trkpt lat="48.28162" lon="3.21">
        <ele>64</ele>
        <time>2014-04-20T08:34:22.979Z</time>
      </trkpt>
      <trkpt lat="48.28158" lon="3.21007">
        <ele>65</ele>
        <time>2014-04-20T08:34:23.979Z</time>
      </trkpt>
      <trkpt lat="48.28153" lon="3.21015">
        <ele>65</ele>
        <time>2014-04-20T08:34:24.979Z</time>
      </trkpt>
      <trkpt lat="48.2815" lon="3.21022">
        <ele>66</ele>
        <time>2014-04-20T08:34:25.979Z</time>
      </trkpt>
      <trkpt lat="48.28146" lon="3.2103">
        <ele>66</ele>
        <time>2014-04-20T08:34:26.979Z</time>
      </trkpt>
      <trkpt lat="48.28141" lon="3.21037">
        <ele>66</ele>
        <time>2014-04-20T08:34:27.979Z</time>
      </trkpt>
      <trkpt lat="48.28137" lon="3.21045">
        <ele>66</ele>
        <time>2014-04-20T08:34:28.979Z</time>
      </trkpt>
      <trkpt lat="48.28133" lon="3.21054">
        <ele>66</ele>
        <time>2014-04-20T08:34:29.979Z</time>
      </trkpt>
      <trkpt lat="48.28129" lon="3.2106">
        <ele>66</ele>
        <time>2014-04-20T08:34:30.979Z</time>
      </trkpt>
      <trkpt lat="48.28124" lon="3.21069">
        <ele>67</ele>
        <time>2014-04-20T08:34:31.979Z</time>
      </trkpt>
      <trkpt lat="48.2812" lon="3.21075">
        <ele>67</ele>
        <time>2014-04-20T08:34:32.979Z</time>
      </trkpt>
      <trkpt lat="48.28116" lon="3.21084">
        <ele>66</ele>
        <time>2014-04-20T08:34:33.979Z</time>
      </trkpt>
      <trkpt lat="48.28112" lon="3.2109">
        <ele>66</ele>
        <time>2014-04-20T08:34:34.979Z</time>
      </trkpt>
      <trkpt lat="48.28108" lon="3.21099">
        <ele>66</ele>
        <time>2014-04-20T08:34:35.979Z</time>
      </trkpt>
      <trkpt lat="48.28104" lon="3.21105">
        <ele>66</ele>
        <time>2014-04-20T08:34:36.979Z</time>
      </trkpt>
      <trkpt lat="48.281" lon="3.21112">
        <ele>66</ele>
        <time>2014-04-20T08:34:37.979Z</time>
      </trkpt>
      <trkpt lat="48.28095" lon="3.21118">
        <ele>66</ele>
        <time>2014-04-20T08:34:38.979Z</time>
      </trkpt>
      <trkpt lat="48.28091" lon="3.21125">
        <ele>66</ele>
        <time>2014-04-20T08:34:39.979Z</time>
      </trkpt>
      <trkpt lat="48.28087" lon="3.21131">
        <ele>66</ele>
        <time>2014-04-20T08:34:40.979Z</time>
      </trkpt>
      <trkpt lat="48.28084" lon="3.21138">
        <ele>66</ele>
        <time>2014-04-20T08:34:41.979Z</time>
      </trkpt>
      <trkpt lat="48.28078" lon="3.21146">
        <ele>69</ele>
        <time>2014-04-20T08:34:42.979Z</time>
      </trkpt>
      <trkpt lat="48.28075" lon="3.21153">
        <ele>68</ele>
        <time>2014-04-20T08:34:43.979Z</time>
      </trkpt>
      <trkpt lat="48.28071" lon="3.21159">
        <ele>68</ele>
        <time>2014-04-20T08:34:44.979Z</time>
      </trkpt>
      <trkpt lat="48.28066" lon="3.21168">
        <ele>67</ele>
        <time>2014-04-20T08:34:45.979Z</time>
      </trkpt>
      <trkpt lat="48.28063" lon="3.21174">
        <ele>68</ele>
        <time>2014-04-20T08:34:46.979Z</time>
      </trkpt>
      <trkpt lat="48.28059" lon="3.21181">
        <ele>68</ele>
        <time>2014-04-20T08:34:47.979Z</time>
      </trkpt>
      <trkpt lat="48.28056" lon="3.21187">
        <ele>68</ele>
        <time>2014-04-20T08:34:48.979Z</time>
      </trkpt>
      <trkpt lat="48.28052" lon="3.21193">
        <ele>68</ele>
        <time>2014-04-20T08:34:49.979Z</time>
      </trkpt>
      <trkpt lat="48.28048" lon="3.21202">
        <ele>68</ele>
        <time>2014-04-20T08:34:50.979Z</time>
      </trkpt>
      <trkpt lat="48.28045" lon="3.21208">
        <ele>68</ele>
        <time>2014-04-20T08:34:51.979Z</time>
      </trkpt>
      <trkpt lat="48.28042" lon="3.21215">
        <ele>68</ele>
        <time>2014-04-20T08:34:52.979Z</time>
      </trkpt>
      <trkpt lat="48.28037" lon="3.21223">
        <ele>68</ele>
        <time>2014-04-20T08:34:53.979Z</time>
      </trkpt>
      <trkpt lat="48.28033" lon="3.21232">
        <ele>68</ele>
        <time>2014-04-20T08:34:54.979Z</time>
      </trkpt>
      <trkpt lat="48.28029" lon="3.21239">
        <ele>68</ele>
        <time>2014-04-20T08:34:55.979Z</time>
      </trkpt>
      <trkpt lat="48.28025" lon="3.21247">
        <ele>68</ele>
        <time>2014-04-20T08:34:56.979Z</time>
      </trkpt>
      <trkpt lat="48.2802" lon="3.21254">
        <ele>67</ele>
        <time>2014-04-20T08:34:57.979Z</time>
      </trkpt>
      <trkpt lat="48.28016" lon="3.2126">
        <ele>67</ele>
        <time>2014-04-20T08:34:58.979Z</time>
      </trkpt>
      <trkpt lat="48.28012" lon="3.21266">
        <ele>67</ele>
        <time>2014-04-20T08:34:59.979Z</time>
      </trkpt>
      <trkpt lat="48.28007" lon="3.21275">
        <ele>67</ele>
        <time>2014-04-20T08:35:00.979Z</time>
      </trkpt>
      <trkpt lat="48.28003" lon="3.21281">
        <ele>66</ele>
        <time>2014-04-20T08:35:01.979Z</time>
      </trkpt>
      <trkpt lat="48.27999" lon="3.21288">
        <ele>70</ele>
        <time>2014-04-20T08:35:02.979Z</time>
      </trkpt>
      <trkpt lat="48.27994" lon="3.21294">
        <ele>69</ele>
        <time>2014-04-20T08:35:03.979Z</time>
      </trkpt>
      <trkpt lat="48.2799" lon="3.21301">
        <ele>69</ele>
        <time>2014-04-20T08:35:04.979Z</time>
      </trkpt>
      <trkpt lat="48.27986" lon="3.21307">
        <ele>69</ele>
        <time>2014-04-20T08:35:05.979Z</time>
      </trkpt>
      <trkpt lat="48.27982" lon="3.21316">
        <ele>69</ele>
        <time>2014-04-20T08:35:06.979Z</time>
      </trkpt>
      <trkpt lat="48.27977" lon="3.21324">
        <ele>69</ele>
        <time>2014-04-20T08:35:07.979Z</time>
      </trkpt>
      <trkpt lat="48.27973" lon="3.21331">
        <ele>69</ele>
        <time>2014-04-20T08:35:08.979Z</time>
      </trkpt>
      <trkpt lat="48.27969" lon="3.21339">
        <ele>66</ele>
        <time>2014-04-20T08:35:09.979Z</time>
      </trkpt>
      <trkpt lat="48.27964" lon="3.21348">
        <ele>66</ele>
        <time>2014-04-20T08:35:10.979Z</time>
      </trkpt>
      <trkpt lat="48.2796" lon="3.21357">
        <ele>66</ele>
        <time>2014-04-20T08:35:11.979Z</time>
      </trkpt>
      <trkpt lat="48.27956" lon="3.21363">
        <ele>66</ele>
        <time>2014-04-20T08:35:12.979Z</time>
      </trkpt>
      <trkpt lat="48.27952" lon="3.21372">
        <ele>65</ele>
        <time>2014-04-20T08:35:13.979Z</time>
      </trkpt>
      <trkpt lat="48.27947" lon="3.21378">
        <ele>65</ele>
        <time>2014-04-20T08:35:14.979Z</time>
      </trkpt>
      <trkpt lat="48.27943" lon="3.21387">
        <ele>65</ele>
        <time>2014-04-20T08:35:15.979Z</time>
      </trkpt>
      <trkpt lat="48.2794" lon="3.21393">
        <ele>65</ele>
        <time>2014-04-20T08:35:16.979Z</time>
      </trkpt>
      <trkpt lat="48.27935" lon="3.21402">
        <ele>65</ele>
        <time>2014-04-20T08:35:17.979Z</time>
      </trkpt>
      <trkpt lat="48.27931" lon="3.21408">
        <ele>64</ele>
        <time>2014-04-20T08:35:18.979Z</time>
      </trkpt>
      <trkpt lat="48.27927" lon="3.21417">
        <ele>64</ele>
        <time>2014-04-20T08:35:19.979Z</time>
      </trkpt>
      <trkpt lat="48.27922" lon="3.21423">
        <ele>63</ele>
        <time>2014-04-20T08:35:20.979Z</time>
      </trkpt>
      <trkpt lat="48.27917" lon="3.21429">
        <ele>62</ele>
        <time>2014-04-20T08:35:21.979Z</time>
      </trkpt>
      <trkpt lat="48.27913" lon="3.21438">
        <ele>64</ele>
        <time>2014-04-20T08:35:22.979Z</time>
      </trkpt>
      <trkpt lat="48.27908" lon="3.21445">
        <ele>64</ele>
        <time>2014-04-20T08:35:23.979Z</time>
      </trkpt>
      <trkpt lat="48.27903" lon="3.21451">
        <ele>64</ele>
        <time>2014-04-20T08:35:24.979Z</time>
      </trkpt>
      <trkpt lat="48.27898" lon="3.21457">
        <ele>64</ele>
        <time>2014-04-20T08:35:25.979Z</time>
      </trkpt>
      <trkpt lat="48.27894" lon="3.21464">
        <ele>64</ele>
        <time>2014-04-20T08:35:26.979Z</time>
      </trkpt>
      <trkpt lat="48.27888" lon="3.2147">
        <ele>64</ele>
        <time>2014-04-20T08:35:27.979Z</time>
      </trkpt>
      <trkpt lat="48.27884" lon="3.21477">
        <ele>64</ele>
        <time>2014-04-20T08:35:28.979Z</time>
      </trkpt>
      <trkpt lat="48.2788" lon="3.21485">
        <ele>64</ele>
        <time>2014-04-20T08:35:29.979Z</time>
      </trkpt>
      <trkpt lat="48.27874" lon="3.21492">
        <ele>64</ele>
        <time>2014-04-20T08:35:30.979Z</time>
      </trkpt>
      <trkpt lat="48.2787" lon="3.21498">
        <ele>64</ele>
        <time>2014-04-20T08:35:31.979Z</time>
      </trkpt>
      <trkpt lat="48.27866" lon="3.21505">
        <ele>61</ele>
        <time>2014-04-20T08:35:32.979Z</time>
      </trkpt>
      <trkpt lat="48.27861" lon="3.21513">
        <ele>62</ele>
        <time>2014-04-20T08:35:33.979Z</time>
      </trkpt>
      <trkpt lat="48.27856" lon="3.2152">
        <ele>62</ele>
        <time>2014-04-20T08:35:34.979Z</time>
      </trkpt>
      <trkpt lat="48.27852" lon="3.21526">
        <ele>62</ele>
        <time>2014-04-20T08:35:35.979Z</time>
      </trkpt>
      <trkpt lat="48.27847" lon="3.21532">
        <ele>62</ele>
        <time>2014-04-20T08:35:36.979Z</time>
      </trkpt>
      <trkpt lat="48.27842" lon="3.21539">
        <ele>62</ele>
        <time>2014-04-20T08:35:37.979Z</time>
      </trkpt>
      <trkpt lat="48.27838" lon="3.21545">
        <ele>62</ele>
        <time>2014-04-20T08:35:38.979Z</time>
      </trkpt>
      <trkpt lat="48.27832" lon="3.21552">
        <ele>66</ele>
        <time>2014-04-20T08:35:39.979Z</time>
      </trkpt>
      <trkpt lat="48.27828" lon="3.21556">
        <ele>66</ele>
        <time>2014-04-20T08:35:40.979Z</time>
      </trkpt>
      <trkpt lat="48.27824" lon="3.21563">
        <ele>66</ele>
        <time>2014-04-20T08:35:41.979Z</time>
      </trkpt>
      <trkpt lat="48.27819" lon="3.21569">
        <ele>65</ele>
        <time>2014-04-20T08:35:42.979Z</time>
      </trkpt>
      <trkpt lat="48.27813" lon="3.21575">
        <ele>66</ele>
        <time>2014-04-20T08:35:43.979Z</time>
      </trkpt>
      <trkpt lat="48.27808" lon="3.2158">
        <ele>66</ele>
        <time>2014-04-20T08:35:44.979Z</time>
      </trkpt>
      <trkpt lat="48.27802" lon="3.21586">
        <ele>64</ele>
        <time>2014-04-20T08:35:45.979Z</time>
      </trkpt>
      <trkpt lat="48.27797" lon="3.21593">
        <ele>64</ele>
        <time>2014-04-20T08:35:46.979Z</time>
      </trkpt>
      <trkpt lat="48.27792" lon="3.21599">
        <ele>64</ele>
        <time>2014-04-20T08:35:47.979Z</time>
      </trkpt>
      <trkpt lat="48.27786" lon="3.21605">
        <ele>64</ele>
        <time>2014-04-20T08:35:48.979Z</time>
      </trkpt>
      <trkpt lat="48.27781" lon="3.2161">
        <ele>64</ele>
        <time>2014-04-20T08:35:49.979Z</time>
      </trkpt>
      <trkpt lat="48.27776" lon="3.21616">
        <ele>64</ele>
        <time>2014-04-20T08:35:50.979Z</time>
      </trkpt>
      <trkpt lat="48.27771" lon="3.21623">
        <ele>64</ele>
        <time>2014-04-20T08:35:51.979Z</time>
      </trkpt>
      <trkpt lat="48.27766" lon="3.21629">
        <ele>64</ele>
        <time>2014-04-20T08:35:52.979Z</time>
      </trkpt>
      <trkpt lat="48.27761" lon="3.21633">
        <ele>64</ele>
        <time>2014-04-20T08:35:53.979Z</time>
      </trkpt>
      <trkpt lat="48.27755" lon="3.2164">
        <ele>64</ele>
        <time>2014-04-20T08:35:54.979Z</time>
      </trkpt>
      <trkpt lat="48.27751" lon="3.21644">
        <ele>63</ele>
        <time>2014-04-20T08:35:55.979Z</time>
      </trkpt>
      <trkpt lat="48.27746" lon="3.21651">
        <ele>67</ele>
        <time>2014-04-20T08:35:56.979Z</time>
      </trkpt>
      <trkpt lat="48.27741" lon="3.21655">
        <ele>67</ele>
        <time>2014-04-20T08:35:57.979Z</time>
      </trkpt>
      <trkpt lat="48.27736" lon="3.21661">
        <ele>67</ele>
        <time>2014-04-20T08:35:58.979Z</time>
      </trkpt>
      <trkpt lat="48.27731" lon="3.21668">
        <ele>65</ele>
        <time>2014-04-20T08:35:59.979Z</time>
      </trkpt>
      <trkpt lat="48.27726" lon="3.21672">
        <ele>65</ele>
        <time>2014-04-20T08:36:00.979Z</time>
      </trkpt>
      <trkpt lat="48.27721" lon="3.21678">
        <ele>66</ele>
        <time>2014-04-20T08:36:01.979Z</time>
      </trkpt>
      <trkpt lat="48.27716" lon="3.21685">
        <ele>66</ele>
        <time>2014-04-20T08:36:02.979Z</time>
      </trkpt>
      <trkpt lat="48.2771" lon="3.21691">
        <ele>66</ele>
        <time>2014-04-20T08:36:03.979Z</time>
      </trkpt>
      <trkpt lat="48.27705" lon="3.21698">
        <ele>67</ele>
        <time>2014-04-20T08:36:04.979Z</time>
      </trkpt>
      <trkpt lat="48.27699" lon="3.21704">
        <ele>67</ele>
        <time>2014-04-20T08:36:05.979Z</time>
      </trkpt>
      <trkpt lat="48.27693" lon="3.21711">
        <ele>67</ele>
        <time>2014-04-20T08:36:06.979Z</time>
      </trkpt>
      <trkpt lat="48.27688" lon="3.21717">
        <ele>67</ele>
        <time>2014-04-20T08:36:07.979Z</time>
      </trkpt>
      <trkpt lat="48.27682" lon="3.21723">
        <ele>67</ele>
        <time>2014-04-20T08:36:08.979Z</time>
      </trkpt>
      <trkpt lat="48.27677" lon="3.2173">
        <ele>67</ele>
        <time>2014-04-20T08:36:09.979Z</time>
      </trkpt>
      <trkpt lat="48.27673" lon="3.21736">
        <ele>67</ele>
        <time>2014-04-20T08:36:10.979Z</time>
      </trkpt>
      <trkpt lat="48.27667" lon="3.21745">
        <ele>67</ele>
        <time>2014-04-20T08:36:11.979Z</time>
      </trkpt>
      <trkpt lat="48.27662" lon="3.21751">
        <ele>68</ele>
        <time>2014-04-20T08:36:12.979Z</time>
      </trkpt>
      <trkpt lat="48.27658" lon="3.21758">
        <ele>69</ele>
        <time>2014-04-20T08:36:13.979Z</time>
      </trkpt>
      <trkpt lat="48.27652" lon="3.21764">
        <ele>70</ele>
        <time>2014-04-20T08:36:14.979Z</time>
      </trkpt>
      <trkpt lat="48.27648" lon="3.21769">
        <ele>70</ele>
        <time>2014-04-20T08:36:15.979Z</time>
      </trkpt>
      <trkpt lat="48.27644" lon="3.21775">
        <ele>70</ele>
        <time>2014-04-20T08:36:16.979Z</time>
      </trkpt>
      <trkpt lat="48.27638" lon="3.21781">
        <ele>71</ele>
        <time>2014-04-20T08:36:17.979Z</time>
      </trkpt>
      <trkpt lat="48.27634" lon="3.21786">
        <ele>71</ele>
        <time>2014-04-20T08:36:18.979Z</time>
      </trkpt>
      <trkpt lat="48.27629" lon="3.21792">
        <ele>71</ele>
        <time>2014-04-20T08:36:19.979Z</time>
      </trkpt>
      <trkpt lat="48.27624" lon="3.21796">
        <ele>71</ele>
        <time>2014-04-20T08:36:20.979Z</time>
      </trkpt>
      <trkpt lat="48.2762" lon="3.21803">
        <ele>71</ele>
        <time>2014-04-20T08:36:21.979Z</time>
      </trkpt>
      <trkpt lat="48.27616" lon="3.21809">
        <ele>71</ele>
        <time>2014-04-20T08:36:22.979Z</time>
      </trkpt>
      <trkpt lat="48.27611" lon="3.21816">
        <ele>71</ele>
        <time>2014-04-20T08:36:23.979Z</time>
      </trkpt>
      <trkpt lat="48.27606" lon="3.2182">
        <ele>71</ele>
        <time>2014-04-20T08:36:24.979Z</time>
      </trkpt>
      <trkpt lat="48.27602" lon="3.21826">
        <ele>71</ele>
        <time>2014-04-20T08:36:25.979Z</time>
      </trkpt>
      <trkpt lat="48.27596" lon="3.21833">
        <ele>72</ele>
        <time>2014-04-20T08:36:26.979Z</time>
      </trkpt>
      <trkpt lat="48.27592" lon="3.21841">
        <ele>69</ele>
        <time>2014-04-20T08:36:27.979Z</time>
      </trkpt>
      <trkpt lat="48.27587" lon="3.21848">
        <ele>69</ele>
        <time>2014-04-20T08:36:28.979Z</time>
      </trkpt>
      <trkpt lat="48.27582" lon="3.21856">
        <ele>72</ele>
        <time>2014-04-20T08:36:29.979Z</time>
      </trkpt>
      <trkpt lat="48.27577" lon="3.21863">
        <ele>72</ele>
        <time>2014-04-20T08:36:30.979Z</time>
      </trkpt>
      <trkpt lat="48.27571" lon="3.21872">
        <ele>72</ele>
        <time>2014-04-20T08:36:31.979Z</time>
      </trkpt>
      <trkpt lat="48.27566" lon="3.2188">
        <ele>71</ele>
        <time>2014-04-20T08:36:32.979Z</time>
      </trkpt>
      <trkpt lat="48.27561" lon="3.21889">
        <ele>71</ele>
        <time>2014-04-20T08:36:33.979Z</time>
      </trkpt>
      <trkpt lat="48.27556" lon="3.21899">
        <ele>71</ele>
        <time>2014-04-20T08:36:34.979Z</time>
      </trkpt>
      <trkpt lat="48.2755" lon="3.21908">
        <ele>71</ele>
        <time>2014-04-20T08:36:35.979Z</time>
      </trkpt>
      <trkpt lat="48.27545" lon="3.21919">
        <ele>67</ele>
        <time>2014-04-20T08:36:36.979Z</time>
      </trkpt>
      <trkpt lat="48.27541" lon="3.21927">
        <ele>67</ele>
        <time>2014-04-20T08:36:37.979Z</time>
      </trkpt>
      <trkpt lat="48.27535" lon="3.21938">
        <ele>67</ele>
        <time>2014-04-20T08:36:38.979Z</time>
      </trkpt>
      <trkpt lat="48.27531" lon="3.21949">
        <ele>67</ele>
        <time>2014-04-20T08:36:39.979Z</time>
      </trkpt>
      <trkpt lat="48.27527" lon="3.21959">
        <ele>67</ele>
        <time>2014-04-20T08:36:40.979Z</time>
      </trkpt>
      <trkpt lat="48.27523" lon="3.2197">
        <ele>66</ele>
        <time>2014-04-20T08:36:41.979Z</time>
      </trkpt>
      <trkpt lat="48.27518" lon="3.21981">
        <ele>66</ele>
        <time>2014-04-20T08:36:42.979Z</time>
      </trkpt>
      <trkpt lat="48.27514" lon="3.2199">
        <ele>66</ele>
        <time>2014-04-20T08:36:43.979Z</time>
      </trkpt>
      <trkpt lat="48.27508" lon="3.21998">
        <ele>67</ele>
        <time>2014-04-20T08:36:44.979Z</time>
      </trkpt>
      <trkpt lat="48.27504" lon="3.22009">
        <ele>66</ele>
        <time>2014-04-20T08:36:45.979Z</time>
      </trkpt>
      <trkpt lat="48.27499" lon="3.22017">
        <ele>67</ele>
        <time>2014-04-20T08:36:46.979Z</time>
      </trkpt>
      <trkpt lat="48.27492" lon="3.22026">
        <ele>67</ele>
        <time>2014-04-20T08:36:47.979Z</time>
      </trkpt>
      <trkpt lat="48.27487" lon="3.22035">
        <ele>67</ele>
        <time>2014-04-20T08:36:48.979Z</time>
      </trkpt>
      <trkpt lat="48.27481" lon="3.22043">
        <ele>67</ele>
        <time>2014-04-20T08:36:49.979Z</time>
      </trkpt>
      <trkpt lat="48.27473" lon="3.2205">
        <ele>67</ele>
        <time>2014-04-20T08:36:50.979Z</time>
      </trkpt>
      <trkpt lat="48.27466" lon="3.22056">
        <ele>67</ele>
        <time>2014-04-20T08:36:51.979Z</time>
      </trkpt>
      <trkpt lat="48.2746" lon="3.22062">
        <ele>67</ele>
        <time>2014-04-20T08:36:52.979Z</time>
      </trkpt>
      <trkpt lat="48.27457" lon="3.22073">
        <ele>67</ele>
        <time>2014-04-20T08:36:53.979Z</time>
      </trkpt>
      <trkpt lat="48.27454" lon="3.22082">
        <ele>67</ele>
        <time>2014-04-20T08:36:54.979Z</time>
      </trkpt>
      <trkpt lat="48.27451" lon="3.22093">
        <ele>64</ele>
        <time>2014-04-20T08:36:55.979Z</time>
      </trkpt>
      <trkpt lat="48.27447" lon="3.22103">
        <ele>64</ele>
        <time>2014-04-20T08:36:56.979Z</time>
      </trkpt>
      <trkpt lat="48.27443" lon="3.22114">
        <ele>63</ele>
        <time>2014-04-20T08:36:57.979Z</time>
      </trkpt>
      <trkpt lat="48.27439" lon="3.2212">
        <ele>63</ele>
        <time>2014-04-20T08:36:58.979Z</time>
      </trkpt>
      <trkpt lat="48.27433" lon="3.22129">
        <ele>63</ele>
        <time>2014-04-20T08:36:59.979Z</time>
      </trkpt>
      <trkpt lat="48.27429" lon="3.22138">
        <ele>62</ele>
        <time>2014-04-20T08:37:00.979Z</time>
      </trkpt>
      <trkpt lat="48.27425" lon="3.22144">
        <ele>62</ele>
        <time>2014-04-20T08:37:01.979Z</time>
      </trkpt>
      <trkpt lat="48.2742" lon="3.2215">
        <ele>62</ele>
        <time>2014-04-20T08:37:02.979Z</time>
      </trkpt>
      <trkpt lat="48.27416" lon="3.22159">
        <ele>61</ele>
        <time>2014-04-20T08:37:03.979Z</time>
      </trkpt>
      <trkpt lat="48.27412" lon="3.22165">
        <ele>61</ele>
        <time>2014-04-20T08:37:04.979Z</time>
      </trkpt>
      <trkpt lat="48.27408" lon="3.22172">
        <ele>61</ele>
        <time>2014-04-20T08:37:05.979Z</time>
      </trkpt>
      <trkpt lat="48.27403" lon="3.22178">
        <ele>61</ele>
        <time>2014-04-20T08:37:06.979Z</time>
      </trkpt>
      <trkpt lat="48.27399" lon="3.22185">
        <ele>61</ele>
        <time>2014-04-20T08:37:07.979Z</time>
      </trkpt>
      <trkpt lat="48.27395" lon="3.22191">
        <ele>61</ele>
        <time>2014-04-20T08:37:08.979Z</time>
      </trkpt>
      <trkpt lat="48.2739" lon="3.22198">
        <ele>61</ele>
        <time>2014-04-20T08:37:09.979Z</time>
      </trkpt>
      <trkpt lat="48.27386" lon="3.22202">
        <ele>61</ele>
        <time>2014-04-20T08:37:10.979Z</time>
      </trkpt>
      <trkpt lat="48.27382" lon="3.22208">
        <ele>61</ele>
        <time>2014-04-20T08:37:11.979Z</time>
      </trkpt>
      <trkpt lat="48.27376" lon="3.22215">
        <ele>61</ele>
        <time>2014-04-20T08:37:12.979Z</time>
      </trkpt>
      <trkpt lat="48.27372" lon="3.22219">
        <ele>61</ele>
        <time>2014-04-20T08:37:13.979Z</time>
      </trkpt>
      <trkpt lat="48.27368" lon="3.22226">
        <ele>61</ele>
        <time>2014-04-20T08:37:14.979Z</time>
      </trkpt>
      <trkpt lat="48.27364" lon="3.2223">
        <ele>61</ele>
        <time>2014-04-20T08:37:15.979Z</time>
      </trkpt>
      <trkpt lat="48.27359" lon="3.22236">
        <ele>61</ele>
        <time>2014-04-20T08:37:16.979Z</time>
      </trkpt>
      <trkpt lat="48.27355" lon="3.22241">
        <ele>61</ele>
        <time>2014-04-20T08:37:17.979Z</time>
      </trkpt>
      <trkpt lat="48.27351" lon="3.22247">
        <ele>60</ele>
        <time>2014-04-20T08:37:18.979Z</time>
      </trkpt>
      <trkpt lat="48.27346" lon="3.22251">
        <ele>60</ele>
        <time>2014-04-20T08:37:19.979Z</time>
      </trkpt>
      <trkpt lat="48.27341" lon="3.22256">
        <ele>60</ele>
        <time>2014-04-20T08:37:20.979Z</time>
      </trkpt>
      <trkpt lat="48.27337" lon="3.22262">
        <ele>60</ele>
        <time>2014-04-20T08:37:21.979Z</time>
      </trkpt>
      <trkpt lat="48.27332" lon="3.22266">
        <ele>60</ele>
        <time>2014-04-20T08:37:22.979Z</time>
      </trkpt>
      <trkpt lat="48.27328" lon="3.22271">
        <ele>60</ele>
        <time>2014-04-20T08:37:23.979Z</time>
      </trkpt>
      <trkpt lat="48.27323" lon="3.22275">
        <ele>60</ele>
        <time>2014-04-20T08:37:24.979Z</time>
      </trkpt>
      <trkpt lat="48.27319" lon="3.22281">
        <ele>60</ele>
        <time>2014-04-20T08:37:25.979Z</time>
      </trkpt>
      <trkpt lat="48.27314" lon="3.22286">
        <ele>60</ele>
        <time>2014-04-20T08:37:26.979Z</time>
      </trkpt>
      <trkpt lat="48.2731" lon="3.2229">
        <ele>60</ele>
        <time>2014-04-20T08:37:27.979Z</time>
      </trkpt>
      <trkpt lat="48.27306" lon="3.22294">
        <ele>60</ele>
        <time>2014-04-20T08:37:28.979Z</time>
      </trkpt>
      <trkpt lat="48.27301" lon="3.22301">
        <ele>60</ele>
        <time>2014-04-20T08:37:29.979Z</time>
      </trkpt>
      <trkpt lat="48.27297" lon="3.22305">
        <ele>60</ele>
        <time>2014-04-20T08:37:30.979Z</time>
      </trkpt>
      <trkpt lat="48.27293" lon="3.22309">
        <ele>60</ele>
        <time>2014-04-20T08:37:31.979Z</time>
      </trkpt>
      <trkpt lat="48.27289" lon="3.22314">
        <ele>60</ele>
        <time>2014-04-20T08:37:32.979Z</time>
      </trkpt>
      <trkpt lat="48.27284" lon="3.22318">
        <ele>60</ele>
        <time>2014-04-20T08:37:33.979Z</time>
      </trkpt>
      <trkpt lat="48.27281" lon="3.22322">
        <ele>60</ele>
        <time>2014-04-20T08:37:34.979Z</time>
      </trkpt>
      <trkpt lat="48.27277" lon="3.22324">
        <ele>60</ele>
        <time>2014-04-20T08:37:35.979Z</time>
      </trkpt>
      <trkpt lat="48.27272" lon="3.22329">
        <ele>60</ele>
        <time>2014-04-20T08:37:36.979Z</time>
      </trkpt>
      <trkpt lat="48.27269" lon="3.22333">
        <ele>61</ele>
        <time>2014-04-20T08:37:37.979Z</time>
      </trkpt>
      <trkpt lat="48.27265" lon="3.22337">
        <ele>61</ele>
        <time>2014-04-20T08:37:38.979Z</time>
      </trkpt>
      <trkpt lat="48.27261" lon="3.22341">
        <ele>61</ele>
        <time>2014-04-20T08:37:39.979Z</time>
      </trkpt>
      <trkpt lat="48.27256" lon="3.22346">
        <ele>61</ele>
        <time>2014-04-20T08:37:40.979Z</time>
      </trkpt>
      <trkpt lat="48.27253" lon="3.22352">
        <ele>61</ele>
        <time>2014-04-20T08:37:41.979Z</time>
      </trkpt>
      <trkpt lat="48.27249" lon="3.22356">
        <ele>63</ele>
        <time>2014-04-20T08:37:42.979Z</time>
      </trkpt>
      <trkpt lat="48.27245" lon="3.22361">
        <ele>63</ele>
        <time>2014-04-20T08:37:43.979Z</time>
      </trkpt>
      <trkpt lat="48.2724" lon="3.22365">
        <ele>63</ele>
        <time>2014-04-20T08:37:44.979Z</time>
      </trkpt>
      <trkpt lat="48.27237" lon="3.22369">
        <ele>63</ele>
        <time>2014-04-20T08:37:45.979Z</time>
      </trkpt>
      <trkpt lat="48.27233" lon="3.22374">
        <ele>63</ele>
        <time>2014-04-20T08:37:46.979Z</time>
      </trkpt>
      <trkpt lat="48.27228" lon="3.22378">
        <ele>63</ele>
        <time>2014-04-20T08:37:47.979Z</time>
      </trkpt>
      <trkpt lat="48.27225" lon="3.22382">
        <ele>63</ele>
        <time>2014-04-20T08:37:48.979Z</time>
      </trkpt>
      <trkpt lat="48.27221" lon="3.22387">
        <ele>63</ele>
        <time>2014-04-20T08:37:49.979Z</time>
      </trkpt>
      <trkpt lat="48.27218" lon="3.22389">
        <ele>63</ele>
        <time>2014-04-20T08:37:50.979Z</time>
      </trkpt>
      <trkpt lat="48.27214" lon="3.22393">
        <ele>64</ele>
        <time>2014-04-20T08:37:51.979Z</time>
      </trkpt>
      <trkpt lat="48.27211" lon="3.22397">
        <ele>64</ele>
        <time>2014-04-20T08:37:52.979Z</time>
      </trkpt>
      <trkpt lat="48.27208" lon="3.22399">
        <ele>64</ele>
        <time>2014-04-20T08:37:53.979Z</time>
      </trkpt>
      <trkpt lat="48.27205" lon="3.22404">
        <ele>64</ele>
        <time>2014-04-20T08:37:54.979Z</time>
      </trkpt>
      <trkpt lat="48.27202" lon="3.22406">
        <ele>64</ele>
        <time>2014-04-20T08:37:55.979Z</time>
      </trkpt>
      <trkpt lat="48.27197" lon="3.2241">
        <ele>64</ele>
        <time>2014-04-20T08:37:56.979Z</time>
      </trkpt>
      <trkpt lat="48.27194" lon="3.22412">
        <ele>64</ele>
        <time>2014-04-20T08:37:57.979Z</time>
      </trkpt>
      <trkpt lat="48.27191" lon="3.22417">
        <ele>64</ele>
        <time>2014-04-20T08:37:58.979Z</time>
      </trkpt>
      <trkpt lat="48.27187" lon="3.22421">
        <ele>64</ele>
        <time>2014-04-20T08:37:59.979Z</time>
      </trkpt>
      <trkpt lat="48.27183" lon="3.22427">
        <ele>64</ele>
        <time>2014-04-20T08:38:00.979Z</time>
      </trkpt>
      <trkpt lat="48.2718" lon="3.22432">
        <ele>64</ele>
        <time>2014-04-20T08:38:01.979Z</time>
      </trkpt>
      <trkpt lat="48.27176" lon="3.22436">
        <ele>64</ele>
        <time>2014-04-20T08:38:02.979Z</time>
      </trkpt>
      <trkpt lat="48.27173" lon="3.2244">
        <ele>64</ele>
        <time>2014-04-20T08:38:03.979Z</time>
      </trkpt>
      <trkpt lat="48.27169" lon="3.22444">
        <ele>63</ele>
        <time>2014-04-20T08:38:04.979Z</time>
      </trkpt>
      <trkpt lat="48.27165" lon="3.22449">
        <ele>63</ele>
        <time>2014-04-20T08:38:05.979Z</time>
      </trkpt>
      <trkpt lat="48.27161" lon="3.22453">
        <ele>63</ele>
        <time>2014-04-20T08:38:06.979Z</time>
      </trkpt>
      <trkpt lat="48.27158" lon="3.22459">
        <ele>62</ele>
        <time>2014-04-20T08:38:07.979Z</time>
      </trkpt>
      <trkpt lat="48.27153" lon="3.22464">
        <ele>62</ele>
        <time>2014-04-20T08:38:08.979Z</time>
      </trkpt>
      <trkpt lat="48.27149" lon="3.22468">
        <ele>62</ele>
        <time>2014-04-20T08:38:09.979Z</time>
      </trkpt>
      <trkpt lat="48.27146" lon="3.22472">
        <ele>62</ele>
        <time>2014-04-20T08:38:10.979Z</time>
      </trkpt>
      <trkpt lat="48.27142" lon="3.22479">
        <ele>62</ele>
        <time>2014-04-20T08:38:11.979Z</time>
      </trkpt>
      <trkpt lat="48.27137" lon="3.22483">
        <ele>62</ele>
        <time>2014-04-20T08:38:12.979Z</time>
      </trkpt>
      <trkpt lat="48.27132" lon="3.2249">
        <ele>62</ele>
        <time>2014-04-20T08:38:13.979Z</time>
      </trkpt>
      <trkpt lat="48.27128" lon="3.22496">
        <ele>62</ele>
        <time>2014-04-20T08:38:14.979Z</time>
      </trkpt>
      <trkpt lat="48.27122" lon="3.22502">
        <ele>60</ele>
        <time>2014-04-20T08:38:15.979Z</time>
      </trkpt>
      <trkpt lat="48.27118" lon="3.22507">
        <ele>60</ele>
        <time>2014-04-20T08:38:16.979Z</time>
      </trkpt>
      <trkpt lat="48.27113" lon="3.22513">
        <ele>60</ele>
        <time>2014-04-20T08:38:17.979Z</time>
      </trkpt>
      <trkpt lat="48.27107" lon="3.22517">
        <ele>60</ele>
        <time>2014-04-20T08:38:18.979Z</time>
      </trkpt>
      <trkpt lat="48.27103" lon="3.22524">
        <ele>60</ele>
        <time>2014-04-20T08:38:19.979Z</time>
      </trkpt>
      <trkpt lat="48.27099" lon="3.22528">
        <ele>60</ele>
        <time>2014-04-20T08:38:20.979Z</time>
      </trkpt>
      <trkpt lat="48.27094" lon="3.22532">
        <ele>59</ele>
        <time>2014-04-20T08:38:21.979Z</time>
      </trkpt>
      <trkpt lat="48.2709" lon="3.22537">
        <ele>59</ele>
        <time>2014-04-20T08:38:22.979Z</time>
      </trkpt>
      <trkpt lat="48.27086" lon="3.22541">
        <ele>59</ele>
        <time>2014-04-20T08:38:23.979Z</time>
      </trkpt>
      <trkpt lat="48.27081" lon="3.22545">
        <ele>59</ele>
        <time>2014-04-20T08:38:24.979Z</time>
      </trkpt>
      <trkpt lat="48.27076" lon="3.2255">
        <ele>59</ele>
        <time>2014-04-20T08:38:25.979Z</time>
      </trkpt>
      <trkpt lat="48.27072" lon="3.22554">
        <ele>59</ele>
        <time>2014-04-20T08:38:26.979Z</time>
      </trkpt>
      <trkpt lat="48.27066" lon="3.22558">
        <ele>59</ele>
        <time>2014-04-20T08:38:27.979Z</time>
      </trkpt>
      <trkpt lat="48.2706" lon="3.22562">
        <ele>59</ele>
        <time>2014-04-20T08:38:28.979Z</time>
      </trkpt>
      <trkpt lat="48.27055" lon="3.22569">
        <ele>59</ele>
        <time>2014-04-20T08:38:29.979Z</time>
      </trkpt>
      <trkpt lat="48.27049" lon="3.22573">
        <ele>59</ele>
        <time>2014-04-20T08:38:30.979Z</time>
      </trkpt>
      <trkpt lat="48.27043" lon="3.2258">
        <ele>59</ele>
        <time>2014-04-20T08:38:31.979Z</time>
      </trkpt>
      <trkpt lat="48.27037" lon="3.22586">
        <ele>58</ele>
        <time>2014-04-20T08:38:32.979Z</time>
      </trkpt>
      <trkpt lat="48.27032" lon="3.2259">
        <ele>58</ele>
        <time>2014-04-20T08:38:33.979Z</time>
      </trkpt>
      <trkpt lat="48.27026" lon="3.22597">
        <ele>59</ele>
        <time>2014-04-20T08:38:34.979Z</time>
      </trkpt>
      <trkpt lat="48.2702" lon="3.22601">
        <ele>59</ele>
        <time>2014-04-20T08:38:35.979Z</time>
      </trkpt>
      <trkpt lat="48.27014" lon="3.22608">
        <ele>59</ele>
        <time>2014-04-20T08:38:36.979Z</time>
      </trkpt>
      <trkpt lat="48.27007" lon="3.22614">
        <ele>59</ele>
        <time>2014-04-20T08:38:37.979Z</time>
      </trkpt>
      <trkpt lat="48.27001" lon="3.22623">
        <ele>58</ele>
        <time>2014-04-20T08:38:38.979Z</time>
      </trkpt>
      <trkpt lat="48.26995" lon="3.22629">
        <ele>60</ele>
        <time>2014-04-20T08:38:39.979Z</time>
      </trkpt>
      <trkpt lat="48.26987" lon="3.22638">
        <ele>60</ele>
        <time>2014-04-20T08:38:40.979Z</time>
      </trkpt>
      <trkpt lat="48.26981" lon="3.22646">
        <ele>60</ele>
        <time>2014-04-20T08:38:41.979Z</time>
      </trkpt>
      <trkpt lat="48.26973" lon="3.22653">
        <ele>60</ele>
        <time>2014-04-20T08:38:42.979Z</time>
      </trkpt>
      <trkpt lat="48.26967" lon="3.22661">
        <ele>60</ele>
        <time>2014-04-20T08:38:43.979Z</time>
      </trkpt>
      <trkpt lat="48.2696" lon="3.2267">
        <ele>59</ele>
        <time>2014-04-20T08:38:44.979Z</time>
      </trkpt>
      <trkpt lat="48.26955" lon="3.22674">
        <ele>60</ele>
        <time>2014-04-20T08:38:45.979Z</time>
      </trkpt>
      <trkpt lat="48.26948" lon="3.2268">
        <ele>60</ele>
        <time>2014-04-20T08:38:46.979Z</time>
      </trkpt>
      <trkpt lat="48.26943" lon="3.22685">
        <ele>60</ele>
        <time>2014-04-20T08:38:47.979Z</time>
      </trkpt>
      <trkpt lat="48.26938" lon="3.22691">
        <ele>60</ele>
        <time>2014-04-20T08:38:48.979Z</time>
      </trkpt>
      <trkpt lat="48.26932" lon="3.22695">
        <ele>60</ele>
        <time>2014-04-20T08:38:49.979Z</time>
      </trkpt>
      <trkpt lat="48.26928" lon="3.227">
        <ele>60</ele>
        <time>2014-04-20T08:38:50.979Z</time>
      </trkpt>
      <trkpt lat="48.26923" lon="3.22704">
        <ele>60</ele>
        <time>2014-04-20T08:38:51.979Z</time>
      </trkpt>
      <trkpt lat="48.26918" lon="3.22711">
        <ele>60</ele>
        <time>2014-04-20T08:38:52.979Z</time>
      </trkpt>
      <trkpt lat="48.26913" lon="3.22715">
        <ele>61</ele>
        <time>2014-04-20T08:38:53.979Z</time>
      </trkpt>
      <trkpt lat="48.26909" lon="3.22719">
        <ele>61</ele>
        <time>2014-04-20T08:38:54.979Z</time>
      </trkpt>
      <trkpt lat="48.26904" lon="3.22723">
        <ele>61</ele>
        <time>2014-04-20T08:38:55.979Z</time>
      </trkpt>
      <trkpt lat="48.26901" lon="3.22728">
        <ele>61</ele>
        <time>2014-04-20T08:38:56.979Z</time>
      </trkpt>
      <trkpt lat="48.26897" lon="3.22732">
        <ele>61</ele>
        <time>2014-04-20T08:38:57.979Z</time>
      </trkpt>
      <trkpt lat="48.26893" lon="3.22736">
        <ele>61</ele>
        <time>2014-04-20T08:38:58.979Z</time>
      </trkpt>
      <trkpt lat="48.26889" lon="3.22738">
        <ele>61</ele>
        <time>2014-04-20T08:38:59.979Z</time>
      </trkpt>
      <trkpt lat="48.26885" lon="3.22743">
        <ele>61</ele>
        <time>2014-04-20T08:39:00.979Z</time>
      </trkpt>
      <trkpt lat="48.26883" lon="3.22747">
        <ele>61</ele>
        <time>2014-04-20T08:39:01.979Z</time>
      </trkpt>
      <trkpt lat="48.26881" lon="3.22751">
        <ele>61</ele>
        <time>2014-04-20T08:39:02.979Z</time>
      </trkpt>
      <trkpt lat="48.2688" lon="3.22756">
        <ele>61</ele>
        <time>2014-04-20T08:39:03.979Z</time>
      </trkpt>
      <trkpt lat="48.26879" lon="3.22762">
        <ele>61</ele>
        <time>2014-04-20T08:39:04.979Z</time>
      </trkpt>
      <trkpt lat="48.26879" lon="3.22768">
        <ele>61</ele>
        <time>2014-04-20T08:39:05.979Z</time>
      </trkpt>
      <trkpt lat="48.26878" lon="3.22775">
        <ele>61</ele>
        <time>2014-04-20T08:39:06.979Z</time>
      </trkpt>
      <trkpt lat="48.26877" lon="3.22779">
        <ele>61</ele>
        <time>2014-04-20T08:39:07.979Z</time>
      </trkpt>
      <trkpt lat="48.26873" lon="3.22786">
        <ele>61</ele>
        <time>2014-04-20T08:39:08.979Z</time>
      </trkpt>
      <trkpt lat="48.2687" lon="3.2279">
        <ele>61</ele>
        <time>2014-04-20T08:39:09.979Z</time>
      </trkpt>
      <trkpt lat="48.26867" lon="3.22792">
        <ele>61</ele>
        <time>2014-04-20T08:39:10.979Z</time>
      </trkpt>
      <trkpt lat="48.26863" lon="3.22794">
        <ele>61</ele>
        <time>2014-04-20T08:39:11.979Z</time>
      </trkpt>
      <trkpt lat="48.26859" lon="3.22794">
        <ele>61</ele>
        <time>2014-04-20T08:39:12.979Z</time>
      </trkpt>
      <trkpt lat="48.26856" lon="3.22794">
        <ele>61</ele>
        <time>2014-04-20T08:39:13.979Z</time>
      </trkpt>
      <trkpt lat="48.26852" lon="3.22794">
        <ele>61</ele>
        <time>2014-04-20T08:39:14.979Z</time>
      </trkpt>
      <trkpt lat="48.26849" lon="3.22794">
        <ele>61</ele>
        <time>2014-04-20T08:39:15.979Z</time>
      </trkpt>
      <trkpt lat="48.26845" lon="3.22794">
        <ele>61</ele>
        <time>2014-04-20T08:39:16.979Z</time>
      </trkpt>
      <trkpt lat="48.26842" lon="3.22794">
        <ele>61</ele>
        <time>2014-04-20T08:39:17.979Z</time>
      </trkpt>
      <trkpt lat="48.26838" lon="3.22794">
        <ele>61</ele>
        <time>2014-04-20T08:39:18.979Z</time>
      </trkpt>
      <trkpt lat="48.26835" lon="3.22794">
        <ele>61</ele>
        <time>2014-04-20T08:39:19.979Z</time>
      </trkpt>
      <trkpt lat="48.2683" lon="3.22796">
        <ele>61</ele>
        <time>2014-04-20T08:39:20.979Z</time>
      </trkpt>
      <trkpt lat="48.26826" lon="3.22798">
        <ele>61</ele>
        <time>2014-04-20T08:39:21.979Z</time>
      </trkpt>
      <trkpt lat="48.26822" lon="3.22801">
        <ele>61</ele>
        <time>2014-04-20T08:39:22.979Z</time>
      </trkpt>
      <trkpt lat="48.26818" lon="3.22803">
        <ele>61</ele>
        <time>2014-04-20T08:39:23.979Z</time>
      </trkpt>
      <trkpt lat="48.26812" lon="3.22805">
        <ele>61</ele>
        <time>2014-04-20T08:39:24.979Z</time>
      </trkpt>
      <trkpt lat="48.26808" lon="3.22809">
        <ele>61</ele>
        <time>2014-04-20T08:39:25.979Z</time>
      </trkpt>
      <trkpt lat="48.26804" lon="3.22814">
        <ele>61</ele>
        <time>2014-04-20T08:39:26.979Z</time>
      </trkpt>
      <trkpt lat="48.268" lon="3.22818">
        <ele>61</ele>
        <time>2014-04-20T08:39:27.979Z</time>
      </trkpt>
      <trkpt lat="48.26796" lon="3.2282">
        <ele>61</ele>
        <time>2014-04-20T08:39:28.979Z</time>
      </trkpt>
      <trkpt lat="48.26792" lon="3.22824">
        <ele>61</ele>
        <time>2014-04-20T08:39:29.979Z</time>
      </trkpt>
      <trkpt lat="48.26789" lon="3.22829">
        <ele>61</ele>
        <time>2014-04-20T08:39:30.979Z</time>
      </trkpt>
      <trkpt lat="48.26784" lon="3.22833">
        <ele>61</ele>
        <time>2014-04-20T08:39:31.979Z</time>
      </trkpt>
      <trkpt lat="48.2678" lon="3.22835">
        <ele>60</ele>
        <time>2014-04-20T08:39:32.979Z</time>
      </trkpt>
      <trkpt lat="48.26776" lon="3.22839">
        <ele>60</ele>
        <time>2014-04-20T08:39:33.979Z</time>
      </trkpt>
      <trkpt lat="48.26772" lon="3.22844">
        <ele>60</ele>
        <time>2014-04-20T08:39:34.979Z</time>
      </trkpt>
      <trkpt lat="48.26768" lon="3.22848">
        <ele>60</ele>
        <time>2014-04-20T08:39:35.979Z</time>
      </trkpt>
      <trkpt lat="48.26765" lon="3.22852">
        <ele>60</ele>
        <time>2014-04-20T08:39:36.979Z</time>
      </trkpt>
      <trkpt lat="48.26761" lon="3.22854">
        <ele>60</ele>
        <time>2014-04-20T08:39:37.979Z</time>
      </trkpt>
      <trkpt lat="48.26756" lon="3.22859">
        <ele>60</ele>
        <time>2014-04-20T08:39:38.979Z</time>
      </trkpt>
      <trkpt lat="48.26752" lon="3.22863">
        <ele>60</ele>
        <time>2014-04-20T08:39:39.979Z</time>
      </trkpt>
      <trkpt lat="48.26748" lon="3.22867">
        <ele>60</ele>
        <time>2014-04-20T08:39:40.979Z</time>
      </trkpt>
      <trkpt lat="48.26743" lon="3.22871">
        <ele>60</ele>
        <time>2014-04-20T08:39:41.979Z</time>
      </trkpt>
      <trkpt lat="48.26739" lon="3.22876">
        <ele>60</ele>
        <time>2014-04-20T08:39:42.979Z</time>
      </trkpt>
      <trkpt lat="48.26735" lon="3.2288">
        <ele>60</ele>
        <time>2014-04-20T08:39:43.979Z</time>
      </trkpt>
      <trkpt lat="48.26731" lon="3.22884">
        <ele>60</ele>
        <time>2014-04-20T08:39:44.979Z</time>
      </trkpt>
      <trkpt lat="48.26726" lon="3.22889">
        <ele>60</ele>
        <time>2014-04-20T08:39:45.979Z</time>
      </trkpt>
      <trkpt lat="48.26722" lon="3.22893">
        <ele>60</ele>
        <time>2014-04-20T08:39:46.979Z</time>
      </trkpt>
      <trkpt lat="48.26718" lon="3.22897">
        <ele>60</ele>
        <time>2014-04-20T08:39:47.979Z</time>
      </trkpt>
      <trkpt lat="48.26712" lon="3.22899">
        <ele>60</ele>
        <time>2014-04-20T08:39:48.979Z</time>
      </trkpt>
      <trkpt lat="48.26708" lon="3.22904">
        <ele>60</ele>
        <time>2014-04-20T08:39:49.979Z</time>
      </trkpt>
      <trkpt lat="48.26704" lon="3.22908">
        <ele>59</ele>
        <time>2014-04-20T08:39:50.979Z</time>
      </trkpt>
      <trkpt lat="48.26699" lon="3.2291">
        <ele>59</ele>
        <time>2014-04-20T08:39:51.979Z</time>
      </trkpt>
      <trkpt lat="48.26695" lon="3.22914">
        <ele>59</ele>
        <time>2014-04-20T08:39:52.979Z</time>
      </trkpt>
      <trkpt lat="48.2669" lon="3.22919">
        <ele>59</ele>
        <time>2014-04-20T08:39:53.979Z</time>
      </trkpt>
      <trkpt lat="48.26686" lon="3.22923">
        <ele>59</ele>
        <time>2014-04-20T08:39:54.979Z</time>
      </trkpt>
      <trkpt lat="48.26681" lon="3.22927">
        <ele>59</ele>
        <time>2014-04-20T08:39:55.979Z</time>
      </trkpt>
      <trkpt lat="48.26677" lon="3.22932">
        <ele>59</ele>
        <time>2014-04-20T08:39:56.979Z</time>
      </trkpt>
      <trkpt lat="48.26672" lon="3.22936">
        <ele>59</ele>
        <time>2014-04-20T08:39:57.979Z</time>
      </trkpt>
      <trkpt lat="48.26667" lon="3.2294">
        <ele>59</ele>
        <time>2014-04-20T08:39:58.979Z</time>
      </trkpt>
      <trkpt lat="48.26662" lon="3.22944">
        <ele>59</ele>
        <time>2014-04-20T08:39:59.979Z</time>
      </trkpt>
      <trkpt lat="48.26657" lon="3.22949">
        <ele>59</ele>
        <time>2014-04-20T08:40:00.979Z</time>
      </trkpt>
      <trkpt lat="48.26651" lon="3.22953">
        <ele>59</ele>
        <time>2014-04-20T08:40:01.979Z</time>
      </trkpt>
      <trkpt lat="48.26646" lon="3.22957">
        <ele>59</ele>
        <time>2014-04-20T08:40:02.979Z</time>
      </trkpt>
      <trkpt lat="48.2664" lon="3.22962">
        <ele>59</ele>
        <time>2014-04-20T08:40:03.979Z</time>
      </trkpt>
      <trkpt lat="48.26635" lon="3.22966">
        <ele>59</ele>
        <time>2014-04-20T08:40:04.979Z</time>
      </trkpt>
      <trkpt lat="48.2663" lon="3.22968">
        <ele>59</ele>
        <time>2014-04-20T08:40:05.979Z</time>
      </trkpt>
      <trkpt lat="48.26624" lon="3.22972">
        <ele>59</ele>
        <time>2014-04-20T08:40:06.979Z</time>
      </trkpt>
      <trkpt lat="48.26619" lon="3.22977">
        <ele>59</ele>
        <time>2014-04-20T08:40:07.979Z</time>
      </trkpt>
      <trkpt lat="48.26613" lon="3.22981">
        <ele>60</ele>
        <time>2014-04-20T08:40:08.979Z</time>
      </trkpt>
      <trkpt lat="48.26607" lon="3.22985">
        <ele>60</ele>
        <time>2014-04-20T08:40:09.979Z</time>
      </trkpt>
      <trkpt lat="48.26602" lon="3.22989">
        <ele>60</ele>
        <time>2014-04-20T08:40:10.979Z</time>
      </trkpt>
      <trkpt lat="48.26595" lon="3.22994">
        <ele>60</ele>
        <time>2014-04-20T08:40:11.979Z</time>
      </trkpt>
      <trkpt lat="48.26588" lon="3.22998">
        <ele>60</ele>
        <time>2014-04-20T08:40:12.979Z</time>
      </trkpt>
      <trkpt lat="48.26581" lon="3.23002">
        <ele>60</ele>
        <time>2014-04-20T08:40:13.979Z</time>
      </trkpt>
      <trkpt lat="48.26574" lon="3.23009">
        <ele>60</ele>
        <time>2014-04-20T08:40:14.979Z</time>
      </trkpt>
      <trkpt lat="48.26568" lon="3.23013">
        <ele>60</ele>
        <time>2014-04-20T08:40:15.979Z</time>
      </trkpt>
      <trkpt lat="48.2656" lon="3.23017">
        <ele>60</ele>
        <time>2014-04-20T08:40:16.979Z</time>
      </trkpt>
      <trkpt lat="48.26554" lon="3.23024">
        <ele>60</ele>
        <time>2014-04-20T08:40:17.979Z</time>
      </trkpt>
      <trkpt lat="48.26546" lon="3.2303">
        <ele>60</ele>
        <time>2014-04-20T08:40:18.979Z</time>
      </trkpt>
      <trkpt lat="48.2654" lon="3.23035">
        <ele>60</ele>
        <time>2014-04-20T08:40:19.979Z</time>
      </trkpt>
      <trkpt lat="48.26532" lon="3.23041">
        <ele>60</ele>
        <time>2014-04-20T08:40:20.979Z</time>
      </trkpt>
      <trkpt lat="48.26525" lon="3.23045">
        <ele>60</ele>
        <time>2014-04-20T08:40:21.979Z</time>
      </trkpt>
      <trkpt lat="48.26517" lon="3.23052">
        <ele>60</ele>
        <time>2014-04-20T08:40:22.979Z</time>
      </trkpt>
      <trkpt lat="48.26509" lon="3.23056">
        <ele>60</ele>
        <time>2014-04-20T08:40:23.979Z</time>
      </trkpt>
      <trkpt lat="48.26501" lon="3.23062">
        <ele>60</ele>
        <time>2014-04-20T08:40:24.979Z</time>
      </trkpt>
      <trkpt lat="48.26494" lon="3.23069">
        <ele>60</ele>
        <time>2014-04-20T08:40:25.979Z</time>
      </trkpt>
      <trkpt lat="48.26487" lon="3.23073">
        <ele>60</ele>
        <time>2014-04-20T08:40:26.979Z</time>
      </trkpt>
      <trkpt lat="48.26481" lon="3.2308">
        <ele>60</ele>
        <time>2014-04-20T08:40:27.979Z</time>
      </trkpt>
      <trkpt lat="48.26474" lon="3.23084">
        <ele>60</ele>
        <time>2014-04-20T08:40:28.979Z</time>
      </trkpt>
      <trkpt lat="48.26468" lon="3.23088">
        <ele>60</ele>
        <time>2014-04-20T08:40:29.979Z</time>
      </trkpt>
      <trkpt lat="48.26461" lon="3.23092">
        <ele>60</ele>
        <time>2014-04-20T08:40:30.979Z</time>
      </trkpt>
      <trkpt lat="48.26456" lon="3.23097">
        <ele>60</ele>
        <time>2014-04-20T08:40:31.979Z</time>
      </trkpt>
      <trkpt lat="48.26451" lon="3.23101">
        <ele>60</ele>
        <time>2014-04-20T08:40:32.979Z</time>
      </trkpt>
      <trkpt lat="48.26446" lon="3.23105">
        <ele>60</ele>
        <time>2014-04-20T08:40:33.979Z</time>
      </trkpt>
      <trkpt lat="48.26441" lon="3.2311">
        <ele>60</ele>
        <time>2014-04-20T08:40:34.979Z</time>
      </trkpt>
      <trkpt lat="48.26436" lon="3.23112">
        <ele>60</ele>
        <time>2014-04-20T08:40:35.979Z</time>
      </trkpt>
      <trkpt lat="48.2643" lon="3.23116">
        <ele>60</ele>
        <time>2014-04-20T08:40:36.979Z</time>
      </trkpt>
      <trkpt lat="48.26425" lon="3.2312">
        <ele>60</ele>
        <time>2014-04-20T08:40:37.979Z</time>
      </trkpt>
      <trkpt lat="48.26421" lon="3.23125">
        <ele>60</ele>
        <time>2014-04-20T08:40:38.979Z</time>
      </trkpt>
      <trkpt lat="48.26415" lon="3.23127">
        <ele>61</ele>
        <time>2014-04-20T08:40:39.979Z</time>
      </trkpt>
      <trkpt lat="48.2641" lon="3.23131">
        <ele>61</ele>
        <time>2014-04-20T08:40:40.979Z</time>
      </trkpt>
      <trkpt lat="48.26406" lon="3.23133">
        <ele>61</ele>
        <time>2014-04-20T08:40:41.979Z</time>
      </trkpt>
      <trkpt lat="48.264" lon="3.23135">
        <ele>61</ele>
        <time>2014-04-20T08:40:42.979Z</time>
      </trkpt>
      <trkpt lat="48.26396" lon="3.2314">
        <ele>61</ele>
        <time>2014-04-20T08:40:43.979Z</time>
      </trkpt>
      <trkpt lat="48.26391" lon="3.23142">
        <ele>61</ele>
        <time>2014-04-20T08:40:44.979Z</time>
      </trkpt>
      <trkpt lat="48.26386" lon="3.23144">
        <ele>61</ele>
        <time>2014-04-20T08:40:45.979Z</time>
      </trkpt>
      <trkpt lat="48.26382" lon="3.23148">
        <ele>62</ele>
        <time>2014-04-20T08:40:46.979Z</time>
      </trkpt>
      <trkpt lat="48.26377" lon="3.2315">
        <ele>62</ele>
        <time>2014-04-20T08:40:47.979Z</time>
      </trkpt>
      <trkpt lat="48.26372" lon="3.23153">
        <ele>62</ele>
        <time>2014-04-20T08:40:48.979Z</time>
      </trkpt>
      <trkpt lat="48.26368" lon="3.23157">
        <ele>62</ele>
        <time>2014-04-20T08:40:49.979Z</time>
      </trkpt>
      <trkpt lat="48.26363" lon="3.23159">
        <ele>62</ele>
        <time>2014-04-20T08:40:50.979Z</time>
      </trkpt>
      <trkpt lat="48.26358" lon="3.23163">
        <ele>62</ele>
        <time>2014-04-20T08:40:51.979Z</time>
      </trkpt>
      <trkpt lat="48.26354" lon="3.23165">
        <ele>62</ele>
        <time>2014-04-20T08:40:52.979Z</time>
      </trkpt>
      <trkpt lat="48.26349" lon="3.23168">
        <ele>62</ele>
        <time>2014-04-20T08:40:53.979Z</time>
      </trkpt>
      <trkpt lat="48.26344" lon="3.23172">
        <ele>62</ele>
        <time>2014-04-20T08:40:54.979Z</time>
      </trkpt>
      <trkpt lat="48.26339" lon="3.23176">
        <ele>62</ele>
        <time>2014-04-20T08:40:55.979Z</time>
      </trkpt>
      <trkpt lat="48.26335" lon="3.23178">
        <ele>62</ele>
        <time>2014-04-20T08:40:56.979Z</time>
      </trkpt>
      <trkpt lat="48.26329" lon="3.23183">
        <ele>63</ele>
        <time>2014-04-20T08:40:57.979Z</time>
      </trkpt>
      <trkpt lat="48.26325" lon="3.23185">
        <ele>63</ele>
        <time>2014-04-20T08:40:58.979Z</time>
      </trkpt>
      <trkpt lat="48.26321" lon="3.23189">
        <ele>62</ele>
        <time>2014-04-20T08:40:59.979Z</time>
      </trkpt>
      <trkpt lat="48.26316" lon="3.23191">
        <ele>62</ele>
        <time>2014-04-20T08:41:00.979Z</time>
      </trkpt>
      <trkpt lat="48.26313" lon="3.23195">
        <ele>62</ele>
        <time>2014-04-20T08:41:01.979Z</time>
      </trkpt>
      <trkpt lat="48.2631" lon="3.23198">
        <ele>62</ele>
        <time>2014-04-20T08:41:02.979Z</time>
      </trkpt>
      <trkpt lat="48.26307" lon="3.232">
        <ele>62</ele>
        <time>2014-04-20T08:41:03.979Z</time>
      </trkpt>
      <trkpt lat="48.26303" lon="3.23202">
        <ele>62</ele>
        <time>2014-04-20T08:41:04.979Z</time>
      </trkpt>
      <trkpt lat="48.26299" lon="3.23204">
        <ele>62</ele>
        <time>2014-04-20T08:41:05.979Z</time>
      </trkpt>
      <trkpt lat="48.26296" lon="3.23208">
        <ele>62</ele>
        <time>2014-04-20T08:41:06.979Z</time>
      </trkpt>
      <trkpt lat="48.26292" lon="3.2321">
        <ele>62</ele>
        <time>2014-04-20T08:41:07.979Z</time>
      </trkpt>
      <trkpt lat="48.26289" lon="3.23213">
        <ele>62</ele>
        <time>2014-04-20T08:41:08.979Z</time>
      </trkpt>
      <trkpt lat="48.26284" lon="3.23217">
        <ele>62</ele>
        <time>2014-04-20T08:41:09.979Z</time>
      </trkpt>
      <trkpt lat="48.2628" lon="3.23221">
        <ele>62</ele>
        <time>2014-04-20T08:41:10.979Z</time>
      </trkpt>
      <trkpt lat="48.26276" lon="3.23223">
        <ele>62</ele>
        <time>2014-04-20T08:41:11.979Z</time>
      </trkpt>
      <trkpt lat="48.26271" lon="3.23228">
        <ele>62</ele>
        <time>2014-04-20T08:41:12.979Z</time>
      </trkpt>
      <trkpt lat="48.26267" lon="3.2323">
        <ele>62</ele>
        <time>2014-04-20T08:41:13.979Z</time>
      </trkpt>
      <trkpt lat="48.26263" lon="3.23234">
        <ele>63</ele>
        <time>2014-04-20T08:41:14.979Z</time>
      </trkpt>
      <trkpt lat="48.26259" lon="3.23236">
        <ele>63</ele>
        <time>2014-04-20T08:41:15.979Z</time>
      </trkpt>
      <trkpt lat="48.26255" lon="3.23238">
        <ele>63</ele>
        <time>2014-04-20T08:41:16.979Z</time>
      </trkpt>
      <trkpt lat="48.26251" lon="3.23243">
        <ele>63</ele>
        <time>2014-04-20T08:41:17.979Z</time>
      </trkpt>
      <trkpt lat="48.26248" lon="3.23245">
        <ele>63</ele>
        <time>2014-04-20T08:41:18.979Z</time>
      </trkpt>
      <trkpt lat="48.26244" lon="3.23247">
        <ele>63</ele>
        <time>2014-04-20T08:41:19.979Z</time>
      </trkpt>
      <trkpt lat="48.2624" lon="3.23251">
        <ele>63</ele>
        <time>2014-04-20T08:41:20.979Z</time>
      </trkpt>
      <trkpt lat="48.26236" lon="3.23253">
        <ele>63</ele>
        <time>2014-04-20T08:41:21.979Z</time>
      </trkpt>
      <trkpt lat="48.26232" lon="3.23258">
        <ele>62</ele>
        <time>2014-04-20T08:41:22.979Z</time>
      </trkpt>
      <trkpt lat="48.26227" lon="3.23262">
        <ele>62</ele>
        <time>2014-04-20T08:41:23.979Z</time>
      </trkpt>
      <trkpt lat="48.26223" lon="3.23264">
        <ele>62</ele>
        <time>2014-04-20T08:41:24.979Z</time>
      </trkpt>
      <trkpt lat="48.26219" lon="3.23266">
        <ele>62</ele>
        <time>2014-04-20T08:41:25.979Z</time>
      </trkpt>
      <trkpt lat="48.26213" lon="3.23271">
        <ele>62</ele>
        <time>2014-04-20T08:41:26.979Z</time>
      </trkpt>
      <trkpt lat="48.26209" lon="3.23275">
        <ele>62</ele>
        <time>2014-04-20T08:41:27.979Z</time>
      </trkpt>
      <trkpt lat="48.26204" lon="3.23277">
        <ele>62</ele>
        <time>2014-04-20T08:41:28.979Z</time>
      </trkpt>
      <trkpt lat="48.26198" lon="3.23281">
        <ele>62</ele>
        <time>2014-04-20T08:41:29.979Z</time>
      </trkpt>
      <trkpt lat="48.26193" lon="3.23286">
        <ele>62</ele>
        <time>2014-04-20T08:41:30.979Z</time>
      </trkpt>
      <trkpt lat="48.26188" lon="3.2329">
        <ele>62</ele>
        <time>2014-04-20T08:41:31.979Z</time>
      </trkpt>
      <trkpt lat="48.26182" lon="3.23294">
        <ele>62</ele>
        <time>2014-04-20T08:41:32.979Z</time>
      </trkpt>
      <trkpt lat="48.26177" lon="3.23298">
        <ele>62</ele>
        <time>2014-04-20T08:41:33.979Z</time>
      </trkpt>
      <trkpt lat="48.26171" lon="3.23303">
        <ele>62</ele>
        <time>2014-04-20T08:41:34.979Z</time>
      </trkpt>
      <trkpt lat="48.26165" lon="3.23305">
        <ele>62</ele>
        <time>2014-04-20T08:41:35.979Z</time>
      </trkpt>
      <trkpt lat="48.2616" lon="3.23309">
        <ele>62</ele>
        <time>2014-04-20T08:41:36.979Z</time>
      </trkpt>
      <trkpt lat="48.26153" lon="3.23313">
        <ele>62</ele>
        <time>2014-04-20T08:41:37.979Z</time>
      </trkpt>
      <trkpt lat="48.26148" lon="3.23318">
        <ele>62</ele>
        <time>2014-04-20T08:41:38.979Z</time>
      </trkpt>
      <trkpt lat="48.26143" lon="3.2332">
        <ele>62</ele>
        <time>2014-04-20T08:41:39.979Z</time>
      </trkpt>
      <trkpt lat="48.26137" lon="3.23324">
        <ele>62</ele>
        <time>2014-04-20T08:41:40.979Z</time>
      </trkpt>
      <trkpt lat="48.26132" lon="3.23328">
        <ele>62</ele>
        <time>2014-04-20T08:41:41.979Z</time>
      </trkpt>
      <trkpt lat="48.26127" lon="3.23331">
        <ele>63</ele>
        <time>2014-04-20T08:41:42.979Z</time>
      </trkpt>
      <trkpt lat="48.26121" lon="3.23335">
        <ele>63</ele>
        <time>2014-04-20T08:41:43.979Z</time>
      </trkpt>
      <trkpt lat="48.26116" lon="3.23339">
        <ele>63</ele>
        <time>2014-04-20T08:41:44.979Z</time>
      </trkpt>
      <trkpt lat="48.26109" lon="3.23344">
        <ele>63</ele>
        <time>2014-04-20T08:41:45.979Z</time>
      </trkpt>
      <trkpt lat="48.26104" lon="3.23348">
        <ele>63</ele>
        <time>2014-04-20T08:41:46.979Z</time>
      </trkpt>
      <trkpt lat="48.26099" lon="3.23352">
        <ele>63</ele>
        <time>2014-04-20T08:41:47.979Z</time>
      </trkpt>
      <trkpt lat="48.26093" lon="3.23356">
        <ele>63</ele>
        <time>2014-04-20T08:41:48.979Z</time>
      </trkpt>
      <trkpt lat="48.26088" lon="3.23359">
        <ele>63</ele>
        <time>2014-04-20T08:41:49.979Z</time>
      </trkpt>
      <trkpt lat="48.26082" lon="3.23363">
        <ele>64</ele>
        <time>2014-04-20T08:41:50.979Z</time>
      </trkpt>
      <trkpt lat="48.26075" lon="3.23369">
        <ele>64</ele>
        <time>2014-04-20T08:41:51.979Z</time>
      </trkpt>
      <trkpt lat="48.26069" lon="3.23374">
        <ele>64</ele>
        <time>2014-04-20T08:41:52.979Z</time>
      </trkpt>
      <trkpt lat="48.26061" lon="3.2338">
        <ele>64</ele>
        <time>2014-04-20T08:41:53.979Z</time>
      </trkpt>
      <trkpt lat="48.26054" lon="3.23386">
        <ele>64</ele>
        <time>2014-04-20T08:41:54.979Z</time>
      </trkpt>
      <trkpt lat="48.26047" lon="3.23393">
        <ele>64</ele>
        <time>2014-04-20T08:41:55.979Z</time>
      </trkpt>
      <trkpt lat="48.2604" lon="3.23399">
        <ele>64</ele>
        <time>2014-04-20T08:41:56.979Z</time>
      </trkpt>
      <trkpt lat="48.26032" lon="3.23408">
        <ele>64</ele>
        <time>2014-04-20T08:41:57.979Z</time>
      </trkpt>
      <trkpt lat="48.26026" lon="3.23416">
        <ele>64</ele>
        <time>2014-04-20T08:41:58.979Z</time>
      </trkpt>
      <trkpt lat="48.26018" lon="3.23423">
        <ele>62</ele>
        <time>2014-04-20T08:41:59.979Z</time>
      </trkpt>
      <trkpt lat="48.26012" lon="3.23431">
        <ele>62</ele>
        <time>2014-04-20T08:42:00.979Z</time>
      </trkpt>
      <trkpt lat="48.26004" lon="3.23438">
        <ele>62</ele>
        <time>2014-04-20T08:42:01.979Z</time>
      </trkpt>
      <trkpt lat="48.25998" lon="3.23447">
        <ele>62</ele>
        <time>2014-04-20T08:42:02.979Z</time>
      </trkpt>
      <trkpt lat="48.2599" lon="3.23453">
        <ele>62</ele>
        <time>2014-04-20T08:42:03.979Z</time>
      </trkpt>
      <trkpt lat="48.25984" lon="3.23462">
        <ele>62</ele>
        <time>2014-04-20T08:42:04.979Z</time>
      </trkpt>
      <trkpt lat="48.25977" lon="3.23468">
        <ele>62</ele>
        <time>2014-04-20T08:42:05.979Z</time>
      </trkpt>
      <trkpt lat="48.25971" lon="3.23474">
        <ele>62</ele>
        <time>2014-04-20T08:42:06.979Z</time>
      </trkpt>
      <trkpt lat="48.25965" lon="3.23481">
        <ele>62</ele>
        <time>2014-04-20T08:42:07.979Z</time>
      </trkpt>
      <trkpt lat="48.25959" lon="3.23487">
        <ele>62</ele>
        <time>2014-04-20T08:42:08.979Z</time>
      </trkpt>
      <trkpt lat="48.25953" lon="3.23494">
        <ele>62</ele>
        <time>2014-04-20T08:42:09.979Z</time>
      </trkpt>
      <trkpt lat="48.25947" lon="3.235">
        <ele>61</ele>
        <time>2014-04-20T08:42:10.979Z</time>
      </trkpt>
      <trkpt lat="48.25942" lon="3.23507">
        <ele>62</ele>
        <time>2014-04-20T08:42:11.979Z</time>
      </trkpt>
      <trkpt lat="48.25937" lon="3.23513">
        <ele>62</ele>
        <time>2014-04-20T08:42:12.979Z</time>
      </trkpt>
      <trkpt lat="48.25932" lon="3.23517">
        <ele>62</ele>
        <time>2014-04-20T08:42:13.979Z</time>
      </trkpt>
      <trkpt lat="48.25927" lon="3.23524">
        <ele>62</ele>
        <time>2014-04-20T08:42:14.979Z</time>
      </trkpt>
      <trkpt lat="48.25923" lon="3.23528">
        <ele>62</ele>
        <time>2014-04-20T08:42:15.979Z</time>
      </trkpt>
      <trkpt lat="48.25917" lon="3.23534">
        <ele>62</ele>
        <time>2014-04-20T08:42:16.979Z</time>
      </trkpt>
      <trkpt lat="48.25913" lon="3.23541">
        <ele>62</ele>
        <time>2014-04-20T08:42:17.979Z</time>
      </trkpt>
      <trkpt lat="48.25909" lon="3.23545">
        <ele>62</ele>
        <time>2014-04-20T08:42:18.979Z</time>
      </trkpt>
      <trkpt lat="48.25904" lon="3.23552">
        <ele>62</ele>
        <time>2014-04-20T08:42:19.979Z</time>
      </trkpt>
      <trkpt lat="48.25901" lon="3.23558">
        <ele>61</ele>
        <time>2014-04-20T08:42:20.979Z</time>
      </trkpt>
      <trkpt lat="48.25897" lon="3.23562">
        <ele>61</ele>
        <time>2014-04-20T08:42:21.979Z</time>
      </trkpt>
      <trkpt lat="48.25894" lon="3.23567">
        <ele>61</ele>
        <time>2014-04-20T08:42:22.979Z</time>
      </trkpt>
      <trkpt lat="48.25889" lon="3.23571">
        <ele>61</ele>
        <time>2014-04-20T08:42:23.979Z</time>
      </trkpt>
      <trkpt lat="48.25886" lon="3.23575">
        <ele>61</ele>
        <time>2014-04-20T08:42:24.979Z</time>
      </trkpt>
      <trkpt lat="48.25883" lon="3.2358">
        <ele>61</ele>
        <time>2014-04-20T08:42:25.979Z</time>
      </trkpt>
      <trkpt lat="48.25879" lon="3.23582">
        <ele>61</ele>
        <time>2014-04-20T08:42:26.979Z</time>
      </trkpt>
      <trkpt lat="48.25874" lon="3.23584">
        <ele>61</ele>
        <time>2014-04-20T08:42:27.979Z</time>
      </trkpt>
      <trkpt lat="48.25871" lon="3.23586">
        <ele>61</ele>
        <time>2014-04-20T08:42:28.979Z</time>
      </trkpt>
      <trkpt lat="48.25867" lon="3.23588">
        <ele>61</ele>
        <time>2014-04-20T08:42:29.979Z</time>
      </trkpt>
      <trkpt lat="48.25863" lon="3.2359">
        <ele>61</ele>
        <time>2014-04-20T08:42:30.979Z</time>
      </trkpt>
      <trkpt lat="48.25858" lon="3.23592">
        <ele>61</ele>
        <time>2014-04-20T08:42:31.979Z</time>
      </trkpt>
      <trkpt lat="48.25854" lon="3.23597">
        <ele>61</ele>
        <time>2014-04-20T08:42:32.979Z</time>
      </trkpt>
      <trkpt lat="48.2585" lon="3.23599">
        <ele>61</ele>
        <time>2014-04-20T08:42:33.979Z</time>
      </trkpt>
      <trkpt lat="48.25845" lon="3.23603">
        <ele>61</ele>
        <time>2014-04-20T08:42:34.979Z</time>
      </trkpt>
      <trkpt lat="48.25841" lon="3.23605">
        <ele>61</ele>
        <time>2014-04-20T08:42:35.979Z</time>
      </trkpt>
      <trkpt lat="48.25837" lon="3.23607">
        <ele>61</ele>
        <time>2014-04-20T08:42:36.979Z</time>
      </trkpt>
      <trkpt lat="48.25832" lon="3.23612">
        <ele>61</ele>
        <time>2014-04-20T08:42:37.979Z</time>
      </trkpt>
      <trkpt lat="48.25827" lon="3.23616">
        <ele>61</ele>
        <time>2014-04-20T08:42:38.979Z</time>
      </trkpt>
      <trkpt lat="48.25823" lon="3.2362">
        <ele>61</ele>
        <time>2014-04-20T08:42:39.979Z</time>
      </trkpt>
      <trkpt lat="48.25818" lon="3.23625">
        <ele>61</ele>
        <time>2014-04-20T08:42:40.979Z</time>
      </trkpt>
      <trkpt lat="48.25813" lon="3.23629">
        <ele>61</ele>
        <time>2014-04-20T08:42:41.979Z</time>
      </trkpt>
      <trkpt lat="48.25808" lon="3.23633">
        <ele>61</ele>
        <time>2014-04-20T08:42:42.979Z</time>
      </trkpt>
      <trkpt lat="48.25804" lon="3.23635">
        <ele>61</ele>
        <time>2014-04-20T08:42:43.979Z</time>
      </trkpt>
      <trkpt lat="48.25799" lon="3.2364">
        <ele>61</ele>
        <time>2014-04-20T08:42:44.979Z</time>
      </trkpt>
      <trkpt lat="48.25795" lon="3.23644">
        <ele>61</ele>
        <time>2014-04-20T08:42:45.979Z</time>
      </trkpt>
      <trkpt lat="48.25791" lon="3.2365">
        <ele>61</ele>
        <time>2014-04-20T08:42:46.979Z</time>
      </trkpt>
      <trkpt lat="48.25786" lon="3.23655">
        <ele>61</ele>
        <time>2014-04-20T08:42:47.979Z</time>
      </trkpt>
      <trkpt lat="48.25782" lon="3.23659">
        <ele>61</ele>
        <time>2014-04-20T08:42:48.979Z</time>
      </trkpt>
      <trkpt lat="48.25778" lon="3.23663">
        <ele>61</ele>
        <time>2014-04-20T08:42:49.979Z</time>
      </trkpt>
      <trkpt lat="48.25774" lon="3.23668">
        <ele>61</ele>
        <time>2014-04-20T08:42:50.979Z</time>
      </trkpt>
      <trkpt lat="48.25769" lon="3.23672">
        <ele>61</ele>
        <time>2014-04-20T08:42:51.979Z</time>
      </trkpt>
      <trkpt lat="48.25765" lon="3.23676">
        <ele>61</ele>
        <time>2014-04-20T08:42:52.979Z</time>
      </trkpt>
      <trkpt lat="48.25762" lon="3.23678">
        <ele>61</ele>
        <time>2014-04-20T08:42:53.979Z</time>
      </trkpt>
      <trkpt lat="48.25758" lon="3.23683">
        <ele>61</ele>
        <time>2014-04-20T08:42:54.979Z</time>
      </trkpt>
      <trkpt lat="48.25753" lon="3.23687">
        <ele>61</ele>
        <time>2014-04-20T08:42:55.979Z</time>
      </trkpt>
      <trkpt lat="48.25749" lon="3.23691">
        <ele>61</ele>
        <time>2014-04-20T08:42:56.979Z</time>
      </trkpt>
      <trkpt lat="48.25745" lon="3.23695">
        <ele>61</ele>
        <time>2014-04-20T08:42:57.979Z</time>
      </trkpt>
      <trkpt lat="48.2574" lon="3.237">
        <ele>61</ele>
        <time>2014-04-20T08:42:58.979Z</time>
      </trkpt>
      <trkpt lat="48.25736" lon="3.23704">
        <ele>61</ele>
        <time>2014-04-20T08:42:59.979Z</time>
      </trkpt>
      <trkpt lat="48.25731" lon="3.23708">
        <ele>61</ele>
        <time>2014-04-20T08:43:00.979Z</time>
      </trkpt>
      <trkpt lat="48.25726" lon="3.23713">
        <ele>61</ele>
        <time>2014-04-20T08:43:01.979Z</time>
      </trkpt>
      <trkpt lat="48.25722" lon="3.23717">
        <ele>61</ele>
        <time>2014-04-20T08:43:02.979Z</time>
      </trkpt>
      <trkpt lat="48.25717" lon="3.23721">
        <ele>61</ele>
        <time>2014-04-20T08:43:03.979Z</time>
      </trkpt>
      <trkpt lat="48.25712" lon="3.23725">
        <ele>61</ele>
        <time>2014-04-20T08:43:04.979Z</time>
      </trkpt>
      <trkpt lat="48.25707" lon="3.2373">
        <ele>61</ele>
        <time>2014-04-20T08:43:05.979Z</time>
      </trkpt>
      <trkpt lat="48.25703" lon="3.23734">
        <ele>61</ele>
        <time>2014-04-20T08:43:06.979Z</time>
      </trkpt>
      <trkpt lat="48.25698" lon="3.23738">
        <ele>62</ele>
        <time>2014-04-20T08:43:07.979Z</time>
      </trkpt>
      <trkpt lat="48.25693" lon="3.23745">
        <ele>62</ele>
        <time>2014-04-20T08:43:08.979Z</time>
      </trkpt>
      <trkpt lat="48.25689" lon="3.23749">
        <ele>62</ele>
        <time>2014-04-20T08:43:09.979Z</time>
      </trkpt>
      <trkpt lat="48.25685" lon="3.23753">
        <ele>62</ele>
        <time>2014-04-20T08:43:10.979Z</time>
      </trkpt>
      <trkpt lat="48.25679" lon="3.2376">
        <ele>63</ele>
        <time>2014-04-20T08:43:11.979Z</time>
      </trkpt>
      <trkpt lat="48.25673" lon="3.23762">
        <ele>63</ele>
        <time>2014-04-20T08:43:12.979Z</time>
      </trkpt>
      <trkpt lat="48.25667" lon="3.23766">
        <ele>63</ele>
        <time>2014-04-20T08:43:13.979Z</time>
      </trkpt>
      <trkpt lat="48.25661" lon="3.23771">
        <ele>63</ele>
        <time>2014-04-20T08:43:14.979Z</time>
      </trkpt>
      <trkpt lat="48.25656" lon="3.23775">
        <ele>63</ele>
        <time>2014-04-20T08:43:15.979Z</time>
      </trkpt>
      <trkpt lat="48.2565" lon="3.23781">
        <ele>63</ele>
        <time>2014-04-20T08:43:16.979Z</time>
      </trkpt>
      <trkpt lat="48.25645" lon="3.23786">
        <ele>63</ele>
        <time>2014-04-20T08:43:17.979Z</time>
      </trkpt>
      <trkpt lat="48.25639" lon="3.23788">
        <ele>63</ele>
        <time>2014-04-20T08:43:18.979Z</time>
      </trkpt>
      <trkpt lat="48.25634" lon="3.23792">
        <ele>63</ele>
        <time>2014-04-20T08:43:19.979Z</time>
      </trkpt>
      <trkpt lat="48.25629" lon="3.23796">
        <ele>63</ele>
        <time>2014-04-20T08:43:20.979Z</time>
      </trkpt>
      <trkpt lat="48.25623" lon="3.23801">
        <ele>63</ele>
        <time>2014-04-20T08:43:21.979Z</time>
      </trkpt>
      <trkpt lat="48.25618" lon="3.23805">
        <ele>63</ele>
        <time>2014-04-20T08:43:22.979Z</time>
      </trkpt>
      <trkpt lat="48.25613" lon="3.23807">
        <ele>63</ele>
        <time>2014-04-20T08:43:23.979Z</time>
      </trkpt>
      <trkpt lat="48.25607" lon="3.23811">
        <ele>63</ele>
        <time>2014-04-20T08:43:24.979Z</time>
      </trkpt>
      <trkpt lat="48.25603" lon="3.23816">
        <ele>63</ele>
        <time>2014-04-20T08:43:25.979Z</time>
      </trkpt>
      <trkpt lat="48.25598" lon="3.2382">
        <ele>63</ele>
        <time>2014-04-20T08:43:26.979Z</time>
      </trkpt>
      <trkpt lat="48.25593" lon="3.23824">
        <ele>63</ele>
        <time>2014-04-20T08:43:27.979Z</time>
      </trkpt>
      <trkpt lat="48.25588" lon="3.23828">
        <ele>62</ele>
        <time>2014-04-20T08:43:28.979Z</time>
      </trkpt>
      <trkpt lat="48.25584" lon="3.23833">
        <ele>62</ele>
        <time>2014-04-20T08:43:29.979Z</time>
      </trkpt>
      <trkpt lat="48.25579" lon="3.23837">
        <ele>62</ele>
        <time>2014-04-20T08:43:30.979Z</time>
      </trkpt>
      <trkpt lat="48.25575" lon="3.23843">
        <ele>62</ele>
        <time>2014-04-20T08:43:31.979Z</time>
      </trkpt>
      <trkpt lat="48.2557" lon="3.23848">
        <ele>62</ele>
        <time>2014-04-20T08:43:32.979Z</time>
      </trkpt>
      <trkpt lat="48.25564" lon="3.23852">
        <ele>61</ele>
        <time>2014-04-20T08:43:33.979Z</time>
      </trkpt>
      <trkpt lat="48.2556" lon="3.23854">
        <ele>61</ele>
        <time>2014-04-20T08:43:34.979Z</time>
      </trkpt>
      <trkpt lat="48.25555" lon="3.23858">
        <ele>61</ele>
        <time>2014-04-20T08:43:35.979Z</time>
      </trkpt>
      <trkpt lat="48.25549" lon="3.23861">
        <ele>61</ele>
        <time>2014-04-20T08:43:36.979Z</time>
      </trkpt>
      <trkpt lat="48.25544" lon="3.23863">
        <ele>61</ele>
        <time>2014-04-20T08:43:37.979Z</time>
      </trkpt>
      <trkpt lat="48.25539" lon="3.23865">
        <ele>61</ele>
        <time>2014-04-20T08:43:38.979Z</time>
      </trkpt>
      <trkpt lat="48.25533" lon="3.23867">
        <ele>61</ele>
        <time>2014-04-20T08:43:39.979Z</time>
      </trkpt>
      <trkpt lat="48.25528" lon="3.23871">
        <ele>61</ele>
        <time>2014-04-20T08:43:40.979Z</time>
      </trkpt>
      <trkpt lat="48.25523" lon="3.23874">
        <ele>61</ele>
        <time>2014-04-20T08:43:41.979Z</time>
      </trkpt>
      <trkpt lat="48.25517" lon="3.2388">
        <ele>61</ele>
        <time>2014-04-20T08:43:42.979Z</time>
      </trkpt>
      <trkpt lat="48.25511" lon="3.23884">
        <ele>61</ele>
        <time>2014-04-20T08:43:43.979Z</time>
      </trkpt>
      <trkpt lat="48.25504" lon="3.23891">
        <ele>61</ele>
        <time>2014-04-20T08:43:44.979Z</time>
      </trkpt>
      <trkpt lat="48.25498" lon="3.23897">
        <ele>61</ele>
        <time>2014-04-20T08:43:45.979Z</time>
      </trkpt>
      <trkpt lat="48.25491" lon="3.23904">
        <ele>61</ele>
        <time>2014-04-20T08:43:46.979Z</time>
      </trkpt>
      <trkpt lat="48.25484" lon="3.23912">
        <ele>61</ele>
        <time>2014-04-20T08:43:47.979Z</time>
      </trkpt>
      <trkpt lat="48.25476" lon="3.23919">
        <ele>62</ele>
        <time>2014-04-20T08:43:48.979Z</time>
      </trkpt>
      <trkpt lat="48.2547" lon="3.23923">
        <ele>62</ele>
        <time>2014-04-20T08:43:49.979Z</time>
      </trkpt>
      <trkpt lat="48.25464" lon="3.23929">
        <ele>62</ele>
        <time>2014-04-20T08:43:50.979Z</time>
      </trkpt>
      <trkpt lat="48.25457" lon="3.23934">
        <ele>62</ele>
        <time>2014-04-20T08:43:51.979Z</time>
      </trkpt>
      <trkpt lat="48.25451" lon="3.23938">
        <ele>62</ele>
        <time>2014-04-20T08:43:52.979Z</time>
      </trkpt>
      <trkpt lat="48.25444" lon="3.23942">
        <ele>62</ele>
        <time>2014-04-20T08:43:53.979Z</time>
      </trkpt>
      <trkpt lat="48.25438" lon="3.23946">
        <ele>62</ele>
        <time>2014-04-20T08:43:54.979Z</time>
      </trkpt>
      <trkpt lat="48.25431" lon="3.23949">
        <ele>62</ele>
        <time>2014-04-20T08:43:55.979Z</time>
      </trkpt>
      <trkpt lat="48.25425" lon="3.23951">
        <ele>62</ele>
        <time>2014-04-20T08:43:56.979Z</time>
      </trkpt>
      <trkpt lat="48.25418" lon="3.23953">
        <ele>62</ele>
        <time>2014-04-20T08:43:57.979Z</time>
      </trkpt>
      <trkpt lat="48.25412" lon="3.23957">
        <ele>63</ele>
        <time>2014-04-20T08:43:58.979Z</time>
      </trkpt>
      <trkpt lat="48.25407" lon="3.23959">
        <ele>63</ele>
        <time>2014-04-20T08:43:59.979Z</time>
      </trkpt>
      <trkpt lat="48.254" lon="3.23961">
        <ele>63</ele>
        <time>2014-04-20T08:44:00.979Z</time>
      </trkpt>
      <trkpt lat="48.25395" lon="3.23964">
        <ele>63</ele>
        <time>2014-04-20T08:44:01.979Z</time>
      </trkpt>
      <trkpt lat="48.25391" lon="3.23964">
        <ele>63</ele>
        <time>2014-04-20T08:44:02.979Z</time>
      </trkpt>
      <trkpt lat="48.25386" lon="3.23964">
        <ele>63</ele>
        <time>2014-04-20T08:44:03.979Z</time>
      </trkpt>
      <trkpt lat="48.25382" lon="3.23964">
        <ele>63</ele>
        <time>2014-04-20T08:44:04.979Z</time>
      </trkpt>
      <trkpt lat="48.25378" lon="3.23964">
        <ele>63</ele>
        <time>2014-04-20T08:44:05.979Z</time>
      </trkpt>
      <trkpt lat="48.25373" lon="3.23964">
        <ele>62</ele>
        <time>2014-04-20T08:44:06.979Z</time>
      </trkpt>
      <trkpt lat="48.2537" lon="3.23964">
        <ele>62</ele>
        <time>2014-04-20T08:44:07.979Z</time>
      </trkpt>
      <trkpt lat="48.25366" lon="3.23964">
        <ele>62</ele>
        <time>2014-04-20T08:44:08.979Z</time>
      </trkpt>
      <trkpt lat="48.25362" lon="3.23966">
        <ele>62</ele>
        <time>2014-04-20T08:44:09.979Z</time>
      </trkpt>
      <trkpt lat="48.25357" lon="3.23966">
        <ele>62</ele>
        <time>2014-04-20T08:44:10.979Z</time>
      </trkpt>
      <trkpt lat="48.25352" lon="3.23966">
        <ele>62</ele>
        <time>2014-04-20T08:44:11.979Z</time>
      </trkpt>
      <trkpt lat="48.25346" lon="3.23966">
        <ele>62</ele>
        <time>2014-04-20T08:44:12.979Z</time>
      </trkpt>
      <trkpt lat="48.25339" lon="3.23968">
        <ele>62</ele>
        <time>2014-04-20T08:44:13.979Z</time>
      </trkpt>
      <trkpt lat="48.25333" lon="3.23968">
        <ele>63</ele>
        <time>2014-04-20T08:44:14.979Z</time>
      </trkpt>
      <trkpt lat="48.25326" lon="3.23968">
        <ele>63</ele>
        <time>2014-04-20T08:44:15.979Z</time>
      </trkpt>
      <trkpt lat="48.2532" lon="3.2397">
        <ele>63</ele>
        <time>2014-04-20T08:44:16.979Z</time>
      </trkpt>
      <trkpt lat="48.25314" lon="3.23972">
        <ele>63</ele>
        <time>2014-04-20T08:44:17.979Z</time>
      </trkpt>
      <trkpt lat="48.25308" lon="3.23974">
        <ele>63</ele>
        <time>2014-04-20T08:44:18.979Z</time>
      </trkpt>
      <trkpt lat="48.25302" lon="3.23977">
        <ele>63</ele>
        <time>2014-04-20T08:44:19.979Z</time>
      </trkpt>
      <trkpt lat="48.25295" lon="3.23977">
        <ele>64</ele>
        <time>2014-04-20T08:44:20.979Z</time>
      </trkpt>
      <trkpt lat="48.25288" lon="3.23979">
        <ele>64</ele>
        <time>2014-04-20T08:44:21.979Z</time>
      </trkpt>
      <trkpt lat="48.25281" lon="3.23981">
        <ele>64</ele>
        <time>2014-04-20T08:44:22.979Z</time>
      </trkpt>
      <trkpt lat="48.25276" lon="3.23985">
        <ele>64</ele>
        <time>2014-04-20T08:44:23.979Z</time>
      </trkpt>
      <trkpt lat="48.2527" lon="3.23989">
        <ele>64</ele>
        <time>2014-04-20T08:44:24.979Z</time>
      </trkpt>
      <trkpt lat="48.25264" lon="3.23994">
        <ele>63</ele>
        <time>2014-04-20T08:44:25.979Z</time>
      </trkpt>
      <trkpt lat="48.25259" lon="3.23996">
        <ele>63</ele>
        <time>2014-04-20T08:44:26.979Z</time>
      </trkpt>
      <trkpt lat="48.25252" lon="3.24">
        <ele>63</ele>
        <time>2014-04-20T08:44:27.979Z</time>
      </trkpt>
      <trkpt lat="48.25246" lon="3.24002">
        <ele>63</ele>
        <time>2014-04-20T08:44:28.979Z</time>
      </trkpt>
      <trkpt lat="48.25239" lon="3.24007">
        <ele>63</ele>
        <time>2014-04-20T08:44:29.979Z</time>
      </trkpt>
      <trkpt lat="48.25233" lon="3.24009">
        <ele>63</ele>
        <time>2014-04-20T08:44:30.979Z</time>
      </trkpt>
      <trkpt lat="48.25226" lon="3.24013">
        <ele>64</ele>
        <time>2014-04-20T08:44:31.979Z</time>
      </trkpt>
      <trkpt lat="48.25221" lon="3.24015">
        <ele>64</ele>
        <time>2014-04-20T08:44:32.979Z</time>
      </trkpt>
      <trkpt lat="48.25215" lon="3.24019">
        <ele>64</ele>
        <time>2014-04-20T08:44:33.979Z</time>
      </trkpt>
      <trkpt lat="48.25209" lon="3.24024">
        <ele>64</ele>
        <time>2014-04-20T08:44:34.979Z</time>
      </trkpt>
      <trkpt lat="48.25204" lon="3.24028">
        <ele>64</ele>
        <time>2014-04-20T08:44:35.979Z</time>
      </trkpt>
      <trkpt lat="48.25199" lon="3.24032">
        <ele>64</ele>
        <time>2014-04-20T08:44:36.979Z</time>
      </trkpt>
      <trkpt lat="48.25193" lon="3.24037">
        <ele>64</ele>
        <time>2014-04-20T08:44:37.979Z</time>
      </trkpt>
      <trkpt lat="48.25188" lon="3.24041">
        <ele>64</ele>
        <time>2014-04-20T08:44:38.979Z</time>
      </trkpt>
      <trkpt lat="48.25184" lon="3.24045">
        <ele>64</ele>
        <time>2014-04-20T08:44:39.979Z</time>
      </trkpt>
      <trkpt lat="48.25178" lon="3.24047">
        <ele>64</ele>
        <time>2014-04-20T08:44:40.979Z</time>
      </trkpt>
      <trkpt lat="48.25173" lon="3.24052">
        <ele>64</ele>
        <time>2014-04-20T08:44:41.979Z</time>
      </trkpt>
      <trkpt lat="48.25168" lon="3.24056">
        <ele>64</ele>
        <time>2014-04-20T08:44:42.979Z</time>
      </trkpt>
      <trkpt lat="48.25163" lon="3.24058">
        <ele>64</ele>
        <time>2014-04-20T08:44:43.979Z</time>
      </trkpt>
      <trkpt lat="48.25159" lon="3.24062">
        <ele>64</ele>
        <time>2014-04-20T08:44:44.979Z</time>
      </trkpt>
      <trkpt lat="48.25153" lon="3.24064">
        <ele>64</ele>
        <time>2014-04-20T08:44:45.979Z</time>
      </trkpt>
      <trkpt lat="48.25149" lon="3.24069">
        <ele>64</ele>
        <time>2014-04-20T08:44:46.979Z</time>
      </trkpt>
      <trkpt lat="48.25144" lon="3.24073">
        <ele>64</ele>
        <time>2014-04-20T08:44:47.979Z</time>
      </trkpt>
      <trkpt lat="48.2514" lon="3.24075">
        <ele>64</ele>
        <time>2014-04-20T08:44:48.979Z</time>
      </trkpt>
      <trkpt lat="48.25134" lon="3.24077">
        <ele>64</ele>
        <time>2014-04-20T08:44:49.979Z</time>
      </trkpt>
      <trkpt lat="48.2513" lon="3.24082">
        <ele>64</ele>
        <time>2014-04-20T08:44:50.979Z</time>
      </trkpt>
      <trkpt lat="48.25125" lon="3.24084">
        <ele>64</ele>
        <time>2014-04-20T08:44:51.979Z</time>
      </trkpt>
      <trkpt lat="48.2512" lon="3.24086">
        <ele>64</ele>
        <time>2014-04-20T08:44:52.979Z</time>
      </trkpt>
      <trkpt lat="48.25116" lon="3.2409">
        <ele>64</ele>
        <time>2014-04-20T08:44:53.979Z</time>
      </trkpt>
      <trkpt lat="48.25112" lon="3.24092">
        <ele>64</ele>
        <time>2014-04-20T08:44:54.979Z</time>
      </trkpt>
      <trkpt lat="48.25107" lon="3.24095">
        <ele>64</ele>
        <time>2014-04-20T08:44:55.979Z</time>
      </trkpt>
      <trkpt lat="48.25103" lon="3.24099">
        <ele>64</ele>
        <time>2014-04-20T08:44:56.979Z</time>
      </trkpt>
      <trkpt lat="48.25099" lon="3.24101">
        <ele>64</ele>
        <time>2014-04-20T08:44:57.979Z</time>
      </trkpt>
      <trkpt lat="48.25093" lon="3.24105">
        <ele>64</ele>
        <time>2014-04-20T08:44:58.979Z</time>
      </trkpt>
      <trkpt lat="48.25087" lon="3.2411">
        <ele>64</ele>
        <time>2014-04-20T08:44:59.979Z</time>
      </trkpt>
      <trkpt lat="48.25082" lon="3.24112">
        <ele>64</ele>
        <time>2014-04-20T08:45:00.979Z</time>
      </trkpt>
      <trkpt lat="48.25075" lon="3.24116">
        <ele>64</ele>
        <time>2014-04-20T08:45:01.979Z</time>
      </trkpt>
      <trkpt lat="48.25069" lon="3.2412">
        <ele>64</ele>
        <time>2014-04-20T08:45:02.979Z</time>
      </trkpt>
      <trkpt lat="48.25062" lon="3.24125">
        <ele>64</ele>
        <time>2014-04-20T08:45:03.979Z</time>
      </trkpt>
      <trkpt lat="48.25056" lon="3.24129">
        <ele>64</ele>
        <time>2014-04-20T08:45:04.979Z</time>
      </trkpt>
      <trkpt lat="48.25049" lon="3.24133">
        <ele>64</ele>
        <time>2014-04-20T08:45:05.979Z</time>
      </trkpt>
      <trkpt lat="48.25043" lon="3.24137">
        <ele>64</ele>
        <time>2014-04-20T08:45:06.979Z</time>
      </trkpt>
      <trkpt lat="48.25037" lon="3.24142">
        <ele>64</ele>
        <time>2014-04-20T08:45:07.979Z</time>
      </trkpt>
      <trkpt lat="48.2503" lon="3.24146">
        <ele>64</ele>
        <time>2014-04-20T08:45:08.979Z</time>
      </trkpt>
      <trkpt lat="48.25024" lon="3.2415">
        <ele>63</ele>
        <time>2014-04-20T08:45:09.979Z</time>
      </trkpt>
      <trkpt lat="48.25018" lon="3.24157">
        <ele>63</ele>
        <time>2014-04-20T08:45:10.979Z</time>
      </trkpt>
      <trkpt lat="48.25012" lon="3.24161">
        <ele>63</ele>
        <time>2014-04-20T08:45:11.979Z</time>
      </trkpt>
      <trkpt lat="48.25005" lon="3.24165">
        <ele>62</ele>
        <time>2014-04-20T08:45:12.979Z</time>
      </trkpt>
      <trkpt lat="48.25" lon="3.2417">
        <ele>62</ele>
        <time>2014-04-20T08:45:13.979Z</time>
      </trkpt>
      <trkpt lat="48.24995" lon="3.24172">
        <ele>62</ele>
        <time>2014-04-20T08:45:14.979Z</time>
      </trkpt>
      <trkpt lat="48.24989" lon="3.24176">
        <ele>63</ele>
        <time>2014-04-20T08:45:15.979Z</time>
      </trkpt>
      <trkpt lat="48.24984" lon="3.2418">
        <ele>63</ele>
        <time>2014-04-20T08:45:16.979Z</time>
      </trkpt>
      <trkpt lat="48.2498" lon="3.24183">
        <ele>63</ele>
        <time>2014-04-20T08:45:17.979Z</time>
      </trkpt>
      <trkpt lat="48.24974" lon="3.24185">
        <ele>63</ele>
        <time>2014-04-20T08:45:18.979Z</time>
      </trkpt>
      <trkpt lat="48.2497" lon="3.24189">
        <ele>64</ele>
        <time>2014-04-20T08:45:19.979Z</time>
      </trkpt>
      <trkpt lat="48.24966" lon="3.24191">
        <ele>64</ele>
        <time>2014-04-20T08:45:20.979Z</time>
      </trkpt>
      <trkpt lat="48.2496" lon="3.24193">
        <ele>64</ele>
        <time>2014-04-20T08:45:21.979Z</time>
      </trkpt>
      <trkpt lat="48.24956" lon="3.24198">
        <ele>64</ele>
        <time>2014-04-20T08:45:22.979Z</time>
      </trkpt>
      <trkpt lat="48.24952" lon="3.242">
        <ele>64</ele>
        <time>2014-04-20T08:45:23.979Z</time>
      </trkpt>
      <trkpt lat="48.24947" lon="3.24202">
        <ele>64</ele>
        <time>2014-04-20T08:45:24.979Z</time>
      </trkpt>
      <trkpt lat="48.24943" lon="3.24206">
        <ele>64</ele>
        <time>2014-04-20T08:45:25.979Z</time>
      </trkpt>
      <trkpt lat="48.24938" lon="3.24208">
        <ele>64</ele>
        <time>2014-04-20T08:45:26.979Z</time>
      </trkpt>
      <trkpt lat="48.24934" lon="3.2421">
        <ele>64</ele>
        <time>2014-04-20T08:45:27.979Z</time>
      </trkpt>
      <trkpt lat="48.24928" lon="3.24215">
        <ele>64</ele>
        <time>2014-04-20T08:45:28.979Z</time>
      </trkpt>
      <trkpt lat="48.24924" lon="3.24219">
        <ele>64</ele>
        <time>2014-04-20T08:45:29.979Z</time>
      </trkpt>
      <trkpt lat="48.2492" lon="3.24223">
        <ele>64</ele>
        <time>2014-04-20T08:45:30.979Z</time>
      </trkpt>
      <trkpt lat="48.24914" lon="3.24228">
        <ele>67</ele>
        <time>2014-04-20T08:45:31.979Z</time>
      </trkpt>
      <trkpt lat="48.2491" lon="3.24232">
        <ele>67</ele>
        <time>2014-04-20T08:45:32.979Z</time>
      </trkpt>
      <trkpt lat="48.24905" lon="3.24236">
        <ele>67</ele>
        <time>2014-04-20T08:45:33.979Z</time>
      </trkpt>
      <trkpt lat="48.249" lon="3.2424">
        <ele>67</ele>
        <time>2014-04-20T08:45:34.979Z</time>
      </trkpt>
      <trkpt lat="48.24896" lon="3.24245">
        <ele>67</ele>
        <time>2014-04-20T08:45:35.979Z</time>
      </trkpt>
      <trkpt lat="48.24891" lon="3.24249">
        <ele>68</ele>
        <time>2014-04-20T08:45:36.979Z</time>
      </trkpt>
      <trkpt lat="48.24885" lon="3.24253">
        <ele>65</ele>
        <time>2014-04-20T08:45:37.979Z</time>
      </trkpt>
      <trkpt lat="48.24881" lon="3.24258">
        <ele>65</ele>
        <time>2014-04-20T08:45:38.979Z</time>
      </trkpt>
      <trkpt lat="48.24876" lon="3.24262">
        <ele>65</ele>
        <time>2014-04-20T08:45:39.979Z</time>
      </trkpt>
      <trkpt lat="48.2487" lon="3.24266">
        <ele>65</ele>
        <time>2014-04-20T08:45:40.979Z</time>
      </trkpt>
      <trkpt lat="48.24865" lon="3.24268">
        <ele>65</ele>
        <time>2014-04-20T08:45:41.979Z</time>
      </trkpt>
      <trkpt lat="48.24859" lon="3.24273">
        <ele>65</ele>
        <time>2014-04-20T08:45:42.979Z</time>
      </trkpt>
      <trkpt lat="48.24854" lon="3.24277">
        <ele>65</ele>
        <time>2014-04-20T08:45:43.979Z</time>
      </trkpt>
      <trkpt lat="48.2485" lon="3.24281">
        <ele>65</ele>
        <time>2014-04-20T08:45:44.979Z</time>
      </trkpt>
      <trkpt lat="48.24844" lon="3.24283">
        <ele>65</ele>
        <time>2014-04-20T08:45:45.979Z</time>
      </trkpt>
      <trkpt lat="48.24839" lon="3.24288">
        <ele>65</ele>
        <time>2014-04-20T08:45:46.979Z</time>
      </trkpt>
      <trkpt lat="48.24834" lon="3.24292">
        <ele>65</ele>
        <time>2014-04-20T08:45:47.979Z</time>
      </trkpt>
      <trkpt lat="48.24828" lon="3.24296">
        <ele>67</ele>
        <time>2014-04-20T08:45:48.979Z</time>
      </trkpt>
      <trkpt lat="48.24823" lon="3.24301">
        <ele>67</ele>
        <time>2014-04-20T08:45:49.979Z</time>
      </trkpt>
      <trkpt lat="48.24818" lon="3.24303">
        <ele>67</ele>
        <time>2014-04-20T08:45:50.979Z</time>
      </trkpt>
      <trkpt lat="48.24812" lon="3.24307">
        <ele>67</ele>
        <time>2014-04-20T08:45:51.979Z</time>
      </trkpt>
      <trkpt lat="48.24807" lon="3.24309">
        <ele>67</ele>
        <time>2014-04-20T08:45:52.979Z</time>
      </trkpt>
      <trkpt lat="48.24802" lon="3.24311">
        <ele>67</ele>
        <time>2014-04-20T08:45:53.979Z</time>
      </trkpt>
      <trkpt lat="48.24797" lon="3.24313">
        <ele>67</ele>
        <time>2014-04-20T08:45:54.979Z</time>
      </trkpt>
      <trkpt lat="48.24792" lon="3.24316">
        <ele>67</ele>
        <time>2014-04-20T08:45:55.979Z</time>
      </trkpt>
      <trkpt lat="48.24787" lon="3.2432">
        <ele>67</ele>
        <time>2014-04-20T08:45:56.979Z</time>
      </trkpt>
      <trkpt lat="48.24782" lon="3.24322">
        <ele>67</ele>
        <time>2014-04-20T08:45:57.979Z</time>
      </trkpt>
      <trkpt lat="48.24777" lon="3.24324">
        <ele>67</ele>
        <time>2014-04-20T08:45:58.979Z</time>
      </trkpt>
      <trkpt lat="48.24774" lon="3.24326">
        <ele>67</ele>
        <time>2014-04-20T08:45:59.979Z</time>
      </trkpt>
      <trkpt lat="48.24769" lon="3.24328">
        <ele>67</ele>
        <time>2014-04-20T08:46:00.979Z</time>
      </trkpt>
      <trkpt lat="48.24765" lon="3.24331">
        <ele>67</ele>
        <time>2014-04-20T08:46:01.979Z</time>
      </trkpt>
      <trkpt lat="48.24761" lon="3.24333">
        <ele>67</ele>
        <time>2014-04-20T08:46:02.979Z</time>
      </trkpt>
      <trkpt lat="48.24755" lon="3.24337">
        <ele>65</ele>
        <time>2014-04-20T08:46:03.979Z</time>
      </trkpt>
      <trkpt lat="48.24751" lon="3.24339">
        <ele>65</ele>
        <time>2014-04-20T08:46:04.979Z</time>
      </trkpt>
      <trkpt lat="48.24746" lon="3.24343">
        <ele>66</ele>
        <time>2014-04-20T08:46:05.979Z</time>
      </trkpt>
      <trkpt lat="48.24741" lon="3.24348">
        <ele>66</ele>
        <time>2014-04-20T08:46:06.979Z</time>
      </trkpt>
      <trkpt lat="48.24736" lon="3.2435">
        <ele>66</ele>
        <time>2014-04-20T08:46:07.979Z</time>
      </trkpt>
      <trkpt lat="48.24732" lon="3.24354">
        <ele>66</ele>
        <time>2014-04-20T08:46:08.979Z</time>
      </trkpt>
      <trkpt lat="48.24728" lon="3.24358">
        <ele>66</ele>
        <time>2014-04-20T08:46:09.979Z</time>
      </trkpt>
      <trkpt lat="48.24722" lon="3.24361">
        <ele>66</ele>
        <time>2014-04-20T08:46:10.979Z</time>
      </trkpt>
      <trkpt lat="48.24718" lon="3.24365">
        <ele>66</ele>
        <time>2014-04-20T08:46:11.979Z</time>
      </trkpt>
      <trkpt lat="48.24713" lon="3.24369">
        <ele>66</ele>
        <time>2014-04-20T08:46:12.979Z</time>
      </trkpt>
      <trkpt lat="48.24708" lon="3.24373">
        <ele>66</ele>
        <time>2014-04-20T08:46:13.979Z</time>
      </trkpt>
      <trkpt lat="48.24703" lon="3.24378">
        <ele>66</ele>
        <time>2014-04-20T08:46:14.979Z</time>
      </trkpt>
      <trkpt lat="48.24697" lon="3.24382">
        <ele>66</ele>
        <time>2014-04-20T08:46:15.979Z</time>
      </trkpt>
      <trkpt lat="48.24692" lon="3.24389">
        <ele>66</ele>
        <time>2014-04-20T08:46:16.979Z</time>
      </trkpt>
      <trkpt lat="48.24686" lon="3.24393">
        <ele>65</ele>
        <time>2014-04-20T08:46:17.979Z</time>
      </trkpt>
      <trkpt lat="48.2468" lon="3.24397">
        <ele>65</ele>
        <time>2014-04-20T08:46:18.979Z</time>
      </trkpt>
      <trkpt lat="48.24676" lon="3.24401">
        <ele>65</ele>
        <time>2014-04-20T08:46:19.979Z</time>
      </trkpt>
      <trkpt lat="48.24671" lon="3.24408">
        <ele>64</ele>
        <time>2014-04-20T08:46:20.979Z</time>
      </trkpt>
      <trkpt lat="48.24665" lon="3.24412">
        <ele>64</ele>
        <time>2014-04-20T08:46:21.979Z</time>
      </trkpt>
      <trkpt lat="48.2466" lon="3.24416">
        <ele>65</ele>
        <time>2014-04-20T08:46:22.979Z</time>
      </trkpt>
      <trkpt lat="48.24655" lon="3.24421">
        <ele>64</ele>
        <time>2014-04-20T08:46:23.979Z</time>
      </trkpt>
      <trkpt lat="48.24648" lon="3.24425">
        <ele>64</ele>
        <time>2014-04-20T08:46:24.979Z</time>
      </trkpt>
      <trkpt lat="48.24643" lon="3.24429">
        <ele>64</ele>
        <time>2014-04-20T08:46:25.979Z</time>
      </trkpt>
      <trkpt lat="48.24637" lon="3.24431">
        <ele>64</ele>
        <time>2014-04-20T08:46:26.979Z</time>
      </trkpt>
      <trkpt lat="48.24632" lon="3.24436">
        <ele>65</ele>
        <time>2014-04-20T08:46:27.979Z</time>
      </trkpt>
      <trkpt lat="48.24627" lon="3.2444">
        <ele>65</ele>
        <time>2014-04-20T08:46:28.979Z</time>
      </trkpt>
      <trkpt lat="48.24621" lon="3.24444">
        <ele>65</ele>
        <time>2014-04-20T08:46:29.979Z</time>
      </trkpt>
      <trkpt lat="48.24617" lon="3.24449">
        <ele>65</ele>
        <time>2014-04-20T08:46:30.979Z</time>
      </trkpt>
      <trkpt lat="48.24612" lon="3.24453">
        <ele>65</ele>
        <time>2014-04-20T08:46:31.979Z</time>
      </trkpt>
      <trkpt lat="48.24606" lon="3.24455">
        <ele>65</ele>
        <time>2014-04-20T08:46:32.979Z</time>
      </trkpt>
      <trkpt lat="48.24601" lon="3.24459">
        <ele>65</ele>
        <time>2014-04-20T08:46:33.979Z</time>
      </trkpt>
      <trkpt lat="48.24596" lon="3.24464">
        <ele>64</ele>
        <time>2014-04-20T08:46:34.979Z</time>
      </trkpt>
      <trkpt lat="48.2459" lon="3.24468">
        <ele>64</ele>
        <time>2014-04-20T08:46:35.979Z</time>
      </trkpt>
      <trkpt lat="48.24585" lon="3.24472">
        <ele>64</ele>
        <time>2014-04-20T08:46:36.979Z</time>
      </trkpt>
      <trkpt lat="48.24579" lon="3.24476">
        <ele>67</ele>
        <time>2014-04-20T08:46:37.979Z</time>
      </trkpt>
      <trkpt lat="48.24574" lon="3.24481">
        <ele>67</ele>
        <time>2014-04-20T08:46:38.979Z</time>
      </trkpt>
      <trkpt lat="48.2457" lon="3.24483">
        <ele>67</ele>
        <time>2014-04-20T08:46:39.979Z</time>
      </trkpt>
      <trkpt lat="48.24564" lon="3.24487">
        <ele>67</ele>
        <time>2014-04-20T08:46:40.979Z</time>
      </trkpt>
      <trkpt lat="48.24559" lon="3.24492">
        <ele>67</ele>
        <time>2014-04-20T08:46:41.979Z</time>
      </trkpt>
      <trkpt lat="48.24554" lon="3.24494">
        <ele>67</ele>
        <time>2014-04-20T08:46:42.979Z</time>
      </trkpt>
      <trkpt lat="48.24549" lon="3.24498">
        <ele>68</ele>
        <time>2014-04-20T08:46:43.979Z</time>
      </trkpt>
      <trkpt lat="48.24544" lon="3.24502">
        <ele>65</ele>
        <time>2014-04-20T08:46:44.979Z</time>
      </trkpt>
      <trkpt lat="48.24539" lon="3.24507">
        <ele>65</ele>
        <time>2014-04-20T08:46:45.979Z</time>
      </trkpt>
      <trkpt lat="48.24533" lon="3.24509">
        <ele>65</ele>
        <time>2014-04-20T08:46:46.979Z</time>
      </trkpt>
      <trkpt lat="48.24529" lon="3.24513">
        <ele>65</ele>
        <time>2014-04-20T08:46:47.979Z</time>
      </trkpt>
      <trkpt lat="48.24524" lon="3.24517">
        <ele>66</ele>
        <time>2014-04-20T08:46:48.979Z</time>
      </trkpt>
      <trkpt lat="48.24518" lon="3.24522">
        <ele>66</ele>
        <time>2014-04-20T08:46:49.979Z</time>
      </trkpt>
      <trkpt lat="48.24513" lon="3.24526">
        <ele>66</ele>
        <time>2014-04-20T08:46:50.979Z</time>
      </trkpt>
      <trkpt lat="48.24508" lon="3.24528">
        <ele>66</ele>
        <time>2014-04-20T08:46:51.979Z</time>
      </trkpt>
      <trkpt lat="48.24501" lon="3.24532">
        <ele>66</ele>
        <time>2014-04-20T08:46:52.979Z</time>
      </trkpt>
      <trkpt lat="48.24496" lon="3.24537">
        <ele>67</ele>
        <time>2014-04-20T08:46:53.979Z</time>
      </trkpt>
      <trkpt lat="48.2449" lon="3.24541">
        <ele>67</ele>
        <time>2014-04-20T08:46:54.979Z</time>
      </trkpt>
      <trkpt lat="48.24484" lon="3.24543">
        <ele>67</ele>
        <time>2014-04-20T08:46:55.979Z</time>
      </trkpt>
      <trkpt lat="48.24479" lon="3.24547">
        <ele>67</ele>
        <time>2014-04-20T08:46:56.979Z</time>
      </trkpt>
      <trkpt lat="48.24473" lon="3.24552">
        <ele>67</ele>
        <time>2014-04-20T08:46:57.979Z</time>
      </trkpt>
      <trkpt lat="48.24468" lon="3.24556">
        <ele>67</ele>
        <time>2014-04-20T08:46:58.979Z</time>
      </trkpt>
      <trkpt lat="48.24463" lon="3.24558">
        <ele>67</ele>
        <time>2014-04-20T08:46:59.979Z</time>
      </trkpt>
      <trkpt lat="48.24458" lon="3.24562">
        <ele>67</ele>
        <time>2014-04-20T08:47:00.979Z</time>
      </trkpt>
      <trkpt lat="48.24453" lon="3.24567">
        <ele>67</ele>
        <time>2014-04-20T08:47:01.979Z</time>
      </trkpt>
      <trkpt lat="48.24449" lon="3.24569">
        <ele>66</ele>
        <time>2014-04-20T08:47:02.979Z</time>
      </trkpt>
      <trkpt lat="48.24444" lon="3.24573">
        <ele>66</ele>
        <time>2014-04-20T08:47:03.979Z</time>
      </trkpt>
      <trkpt lat="48.2444" lon="3.24575">
        <ele>66</ele>
        <time>2014-04-20T08:47:04.979Z</time>
      </trkpt>
      <trkpt lat="48.24437" lon="3.24579">
        <ele>66</ele>
        <time>2014-04-20T08:47:05.979Z</time>
      </trkpt>
      <trkpt lat="48.24432" lon="3.24582">
        <ele>66</ele>
        <time>2014-04-20T08:47:06.979Z</time>
      </trkpt>
      <trkpt lat="48.24429" lon="3.24586">
        <ele>64</ele>
        <time>2014-04-20T08:47:07.979Z</time>
      </trkpt>
      <trkpt lat="48.24426" lon="3.24588">
        <ele>64</ele>
        <time>2014-04-20T08:47:08.979Z</time>
      </trkpt>
      <trkpt lat="48.24423" lon="3.2459">
        <ele>64</ele>
        <time>2014-04-20T08:47:09.979Z</time>
      </trkpt>
      <trkpt lat="48.2442" lon="3.24592">
        <ele>64</ele>
        <time>2014-04-20T08:47:10.979Z</time>
      </trkpt>
      <trkpt lat="48.24416" lon="3.24594">
        <ele>65</ele>
        <time>2014-04-20T08:47:11.979Z</time>
      </trkpt>
      <trkpt lat="48.24413" lon="3.24597">
        <ele>65</ele>
        <time>2014-04-20T08:47:12.979Z</time>
      </trkpt>
      <trkpt lat="48.2441" lon="3.24597">
        <ele>65</ele>
        <time>2014-04-20T08:47:13.979Z</time>
      </trkpt>
      <trkpt lat="48.24406" lon="3.24597">
        <ele>65</ele>
        <time>2014-04-20T08:47:15.979Z</time>
      </trkpt>
      <trkpt lat="48.24405" lon="3.24597">
        <ele>65</ele>
        <time>2014-04-20T08:47:16.979Z</time>
      </trkpt>
      <trkpt lat="48.24402" lon="3.24594">
        <ele>65</ele>
        <time>2014-04-20T08:47:17.979Z</time>
      </trkpt>
      <trkpt lat="48.24401" lon="3.2459">
        <ele>65</ele>
        <time>2014-04-20T08:47:18.979Z</time>
      </trkpt>
      <trkpt lat="48.24398" lon="3.24586">
        <ele>65</ele>
        <time>2014-04-20T08:47:20.979Z</time>
      </trkpt>
      <trkpt lat="48.24397" lon="3.24586">
        <ele>65</ele>
        <time>2014-04-20T08:47:21.979Z</time>
      </trkpt>
      <trkpt lat="48.24397" lon="3.24586">
        <ele>65</ele>
        <time>2014-04-20T08:47:28.979Z</time>
      </trkpt>
      <trkpt lat="48.24395" lon="3.24579">
        <ele>69</ele>
        <time>2014-04-20T08:47:29.979Z</time>
      </trkpt>
      <trkpt lat="48.24395" lon="3.24579">
        <ele>69</ele>
        <time>2014-04-20T08:47:38.979Z</time>
      </trkpt>
      <trkpt lat="48.24387" lon="3.24569">
        <ele>70</ele>
        <time>2014-04-20T08:47:39.979Z</time>
      </trkpt>
      <trkpt lat="48.24387" lon="3.24564">
        <ele>70</ele>
        <time>2014-04-20T08:48:04.979Z</time>
      </trkpt>
      <trkpt lat="48.24386" lon="3.2456">
        <ele>70</ele>
        <time>2014-04-20T08:48:05.979Z</time>
      </trkpt>
      <trkpt lat="48.24385" lon="3.24556">
        <ele>71</ele>
        <time>2014-04-20T08:48:06.979Z</time>
      </trkpt>
      <trkpt lat="48.24383" lon="3.24554">
        <ele>71</ele>
        <time>2014-04-20T08:48:07.979Z</time>
      </trkpt>
      <trkpt lat="48.24381" lon="3.24552">
        <ele>71</ele>
        <time>2014-04-20T08:48:08.979Z</time>
      </trkpt>
      <trkpt lat="48.24379" lon="3.24549">
        <ele>71</ele>
        <time>2014-04-20T08:48:09.979Z</time>
      </trkpt>
      <trkpt lat="48.24377" lon="3.24545">
        <ele>72</ele>
        <time>2014-04-20T08:48:10.979Z</time>
      </trkpt>
      <trkpt lat="48.24375" lon="3.24543">
        <ele>72</ele>
        <time>2014-04-20T08:48:11.979Z</time>
      </trkpt>
      <trkpt lat="48.24372" lon="3.24539">
        <ele>72</ele>
        <time>2014-04-20T08:48:12.979Z</time>
      </trkpt>
      <trkpt lat="48.2437" lon="3.24537">
        <ele>72</ele>
        <time>2014-04-20T08:48:13.979Z</time>
      </trkpt>
      <trkpt lat="48.24368" lon="3.24532">
        <ele>72</ele>
        <time>2014-04-20T08:48:14.979Z</time>
      </trkpt>
      <trkpt lat="48.24366" lon="3.2453">
        <ele>73</ele>
        <time>2014-04-20T08:48:15.979Z</time>
      </trkpt>
      <trkpt lat="48.24364" lon="3.24526">
        <ele>73</ele>
        <time>2014-04-20T08:48:16.979Z</time>
      </trkpt>
      <trkpt lat="48.24362" lon="3.24524">
        <ele>73</ele>
        <time>2014-04-20T08:48:17.979Z</time>
      </trkpt>
      <trkpt lat="48.2436" lon="3.24519">
        <ele>73</ele>
        <time>2014-04-20T08:48:18.979Z</time>
      </trkpt>
      <trkpt lat="48.24357" lon="3.24517">
        <ele>73</ele>
        <time>2014-04-20T08:48:19.979Z</time>
      </trkpt>
      <trkpt lat="48.24355" lon="3.24515">
        <ele>74</ele>
        <time>2014-04-20T08:48:20.979Z</time>
      </trkpt>
      <trkpt lat="48.24353" lon="3.24513">
        <ele>74</ele>
        <time>2014-04-20T08:48:21.979Z</time>
      </trkpt>
      <trkpt lat="48.2435" lon="3.24511">
        <ele>74</ele>
        <time>2014-04-20T08:48:22.979Z</time>
      </trkpt>
      <trkpt lat="48.24349" lon="3.24509">
        <ele>74</ele>
        <time>2014-04-20T08:48:23.979Z</time>
      </trkpt>
      <trkpt lat="48.24347" lon="3.24507">
        <ele>75</ele>
        <time>2014-04-20T08:48:24.979Z</time>
      </trkpt>
      <trkpt lat="48.24345" lon="3.24504">
        <ele>75</ele>
        <time>2014-04-20T08:48:25.979Z</time>
      </trkpt>
      <trkpt lat="48.24342" lon="3.24502">
        <ele>75</ele>
        <time>2014-04-20T08:48:26.979Z</time>
      </trkpt>
      <trkpt lat="48.2434" lon="3.245">
        <ele>76</ele>
        <time>2014-04-20T08:48:27.979Z</time>
      </trkpt>
      <trkpt lat="48.24338" lon="3.24496">
        <ele>78</ele>
        <time>2014-04-20T08:48:28.979Z</time>
      </trkpt>
      <trkpt lat="48.24337" lon="3.24494">
        <ele>78</ele>
        <time>2014-04-20T08:48:29.979Z</time>
      </trkpt>
      <trkpt lat="48.24335" lon="3.24492">
        <ele>78</ele>
        <time>2014-04-20T08:48:30.979Z</time>
      </trkpt>
      <trkpt lat="48.24333" lon="3.24489">
        <ele>80</ele>
        <time>2014-04-20T08:48:31.979Z</time>
      </trkpt>
      <trkpt lat="48.24331" lon="3.24487">
        <ele>81</ele>
        <time>2014-04-20T08:48:32.979Z</time>
      </trkpt>
      <trkpt lat="48.24328" lon="3.24485">
        <ele>81</ele>
        <time>2014-04-20T08:48:33.979Z</time>
      </trkpt>
      <trkpt lat="48.24326" lon="3.24481">
        <ele>82</ele>
        <time>2014-04-20T08:48:34.979Z</time>
      </trkpt>
      <trkpt lat="48.24324" lon="3.24479">
        <ele>83</ele>
        <time>2014-04-20T08:48:35.979Z</time>
      </trkpt>
      <trkpt lat="48.24322" lon="3.24476">
        <ele>83</ele>
        <time>2014-04-20T08:48:36.979Z</time>
      </trkpt>
      <trkpt lat="48.2432" lon="3.24474">
        <ele>84</ele>
        <time>2014-04-20T08:48:37.979Z</time>
      </trkpt>
      <trkpt lat="48.24317" lon="3.2447">
        <ele>84</ele>
        <time>2014-04-20T08:48:39.979Z</time>
      </trkpt>
      <trkpt lat="48.24314" lon="3.2447">
        <ele>84</ele>
        <time>2014-04-20T08:48:40.979Z</time>
      </trkpt>
      <trkpt lat="48.24314" lon="3.2447">
        <ele>84</ele>
        <time>2014-04-20T08:48:45.979Z</time>
      </trkpt>
      <trkpt lat="48.24307" lon="3.24459">
        <ele>85</ele>
        <time>2014-04-20T08:48:46.979Z</time>
      </trkpt>
      <trkpt lat="48.24304" lon="3.24455">
        <ele>86</ele>
        <time>2014-04-20T08:48:53.979Z</time>
      </trkpt>
      <trkpt lat="48.24297" lon="3.24444">
        <ele>87</ele>
        <time>2014-04-20T08:48:54.979Z</time>
      </trkpt>
      <trkpt lat="48.24297" lon="3.24444">
        <ele>87</ele>
        <time>2014-04-20T08:48:58.979Z</time>
      </trkpt>
      <trkpt lat="48.24292" lon="3.24431">
        <ele>87</ele>
        <time>2014-04-20T08:48:59.979Z</time>
      </trkpt>
      <trkpt lat="48.24292" lon="3.24431">
        <ele>87</ele>
        <time>2014-04-20T08:49:03.979Z</time>
      </trkpt>
      <trkpt lat="48.24288" lon="3.24416">
        <ele>90</ele>
        <time>2014-04-20T08:49:04.979Z</time>
      </trkpt>
      <trkpt lat="48.24288" lon="3.24416">
        <ele>90</ele>
        <time>2014-04-20T08:49:08.979Z</time>
      </trkpt>
      <trkpt lat="48.24283" lon="3.24404">
        <ele>91</ele>
        <time>2014-04-20T08:49:09.979Z</time>
      </trkpt>
      <trkpt lat="48.24283" lon="3.24404">
        <ele>91</ele>
        <time>2014-04-20T08:49:13.979Z</time>
      </trkpt>
      <trkpt lat="48.2428" lon="3.24391">
        <ele>91</ele>
        <time>2014-04-20T08:49:14.979Z</time>
      </trkpt>
      <trkpt lat="48.2428" lon="3.24391">
        <ele>91</ele>
        <time>2014-04-20T08:49:17.979Z</time>
      </trkpt>
      <trkpt lat="48.2427" lon="3.24386">
        <ele>92</ele>
        <time>2014-04-20T08:49:18.979Z</time>
      </trkpt>
      <trkpt lat="48.2427" lon="3.24386">
        <ele>92</ele>
        <time>2014-04-20T08:49:22.979Z</time>
      </trkpt>
      <trkpt lat="48.24265" lon="3.24373">
        <ele>92</ele>
        <time>2014-04-20T08:49:23.979Z</time>
      </trkpt>
      <trkpt lat="48.24265" lon="3.24373">
        <ele>92</ele>
        <time>2014-04-20T08:49:27.979Z</time>
      </trkpt>
      <trkpt lat="48.2426" lon="3.24358">
        <ele>93</ele>
        <time>2014-04-20T08:49:28.979Z</time>
      </trkpt>
      <trkpt lat="48.2426" lon="3.24358">
        <ele>93</ele>
        <time>2014-04-20T08:49:32.979Z</time>
      </trkpt>
      <trkpt lat="48.24254" lon="3.24348">
        <ele>95</ele>
        <time>2014-04-20T08:49:33.979Z</time>
      </trkpt>
      <trkpt lat="48.24254" lon="3.24348">
        <ele>95</ele>
        <time>2014-04-20T08:49:37.979Z</time>
      </trkpt>
      <trkpt lat="48.24249" lon="3.24335">
        <ele>98</ele>
        <time>2014-04-20T08:49:38.979Z</time>
      </trkpt>
      <trkpt lat="48.24249" lon="3.24335">
        <ele>98</ele>
        <time>2014-04-20T08:49:43.979Z</time>
      </trkpt>
      <trkpt lat="48.24244" lon="3.24322">
        <ele>100</ele>
        <time>2014-04-20T08:49:44.979Z</time>
      </trkpt>
      <trkpt lat="48.24244" lon="3.24322">
        <ele>100</ele>
        <time>2014-04-20T08:49:48.979Z</time>
      </trkpt>
      <trkpt lat="48.24239" lon="3.24309">
        <ele>100</ele>
        <time>2014-04-20T08:49:49.979Z</time>
      </trkpt>
      <trkpt lat="48.24239" lon="3.24309">
        <ele>100</ele>
        <time>2014-04-20T08:49:53.979Z</time>
      </trkpt>
      <trkpt lat="48.24234" lon="3.24298">
        <ele>101</ele>
        <time>2014-04-20T08:49:54.979Z</time>
      </trkpt>
      <trkpt lat="48.24234" lon="3.24298">
        <ele>101</ele>
        <time>2014-04-20T08:49:58.979Z</time>
      </trkpt>
      <trkpt lat="48.24229" lon="3.24286">
        <ele>101</ele>
        <time>2014-04-20T08:49:59.979Z</time>
      </trkpt>
      <trkpt lat="48.24229" lon="3.24286">
        <ele>101</ele>
        <time>2014-04-20T08:50:02.979Z</time>
      </trkpt>
      <trkpt lat="48.24223" lon="3.24275">
        <ele>101</ele>
        <time>2014-04-20T08:50:03.979Z</time>
      </trkpt>
      <trkpt lat="48.24223" lon="3.24275">
        <ele>101</ele>
        <time>2014-04-20T08:50:07.979Z</time>
      </trkpt>
      <trkpt lat="48.24216" lon="3.24262">
        <ele>102</ele>
        <time>2014-04-20T08:50:08.979Z</time>
      </trkpt>
      <trkpt lat="48.24215" lon="3.2426">
        <ele>102</ele>
        <time>2014-04-20T08:50:09.979Z</time>
      </trkpt>
      <trkpt lat="48.24214" lon="3.24255">
        <ele>102</ele>
        <time>2014-04-20T08:50:10.979Z</time>
      </trkpt>
      <trkpt lat="48.24211" lon="3.24251">
        <ele>102</ele>
        <time>2014-04-20T08:50:12.979Z</time>
      </trkpt>
      <trkpt lat="48.2421" lon="3.24247">
        <ele>103</ele>
        <time>2014-04-20T08:50:13.979Z</time>
      </trkpt>
      <trkpt lat="48.24208" lon="3.24243">
        <ele>103</ele>
        <time>2014-04-20T08:50:15.979Z</time>
      </trkpt>
      <trkpt lat="48.24207" lon="3.2424">
        <ele>103</ele>
        <time>2014-04-20T08:50:16.979Z</time>
      </trkpt>
      <trkpt lat="48.24206" lon="3.24238">
        <ele>103</ele>
        <time>2014-04-20T08:50:17.979Z</time>
      </trkpt>
      <trkpt lat="48.24205" lon="3.24234">
        <ele>103</ele>
        <time>2014-04-20T08:50:18.979Z</time>
      </trkpt>
      <trkpt lat="48.24203" lon="3.2423">
        <ele>103</ele>
        <time>2014-04-20T08:50:20.979Z</time>
      </trkpt>
      <trkpt lat="48.24202" lon="3.24228">
        <ele>103</ele>
        <time>2014-04-20T08:50:21.979Z</time>
      </trkpt>
      <trkpt lat="48.242" lon="3.24223">
        <ele>104</ele>
        <time>2014-04-20T08:50:23.979Z</time>
      </trkpt>
      <trkpt lat="48.242" lon="3.24221">
        <ele>104</ele>
        <time>2014-04-20T08:50:24.979Z</time>
      </trkpt>
      <trkpt lat="48.24196" lon="3.24217">
        <ele>104</ele>
        <time>2014-04-20T08:50:27.979Z</time>
      </trkpt>
      <trkpt lat="48.24195" lon="3.24215">
        <ele>104</ele>
        <time>2014-04-20T08:50:28.979Z</time>
      </trkpt>
      <trkpt lat="48.24193" lon="3.2421">
        <ele>104</ele>
        <time>2014-04-20T08:50:30.979Z</time>
      </trkpt>
      <trkpt lat="48.24191" lon="3.24208">
        <ele>104</ele>
        <time>2014-04-20T08:50:31.979Z</time>
      </trkpt>
      <trkpt lat="48.24189" lon="3.24204">
        <ele>104</ele>
        <time>2014-04-20T08:50:33.979Z</time>
      </trkpt>
      <trkpt lat="48.24188" lon="3.24202">
        <ele>104</ele>
        <time>2014-04-20T08:50:34.979Z</time>
      </trkpt>
      <trkpt lat="48.24185" lon="3.24198">
        <ele>104</ele>
        <time>2014-04-20T08:50:37.979Z</time>
      </trkpt>
      <trkpt lat="48.24184" lon="3.24195">
        <ele>104</ele>
        <time>2014-04-20T08:50:38.979Z</time>
      </trkpt>
      <trkpt lat="48.24181" lon="3.24191">
        <ele>104</ele>
        <time>2014-04-20T08:50:40.979Z</time>
      </trkpt>
      <trkpt lat="48.2418" lon="3.24189">
        <ele>104</ele>
        <time>2014-04-20T08:50:41.979Z</time>
      </trkpt>
      <trkpt lat="48.24178" lon="3.24185">
        <ele>105</ele>
        <time>2014-04-20T08:50:43.979Z</time>
      </trkpt>
      <trkpt lat="48.24177" lon="3.24183">
        <ele>105</ele>
        <time>2014-04-20T08:50:44.979Z</time>
      </trkpt>
      <trkpt lat="48.24174" lon="3.24178">
        <ele>105</ele>
        <time>2014-04-20T08:50:46.979Z</time>
      </trkpt>
      <trkpt lat="48.24173" lon="3.24176">
        <ele>105</ele>
        <time>2014-04-20T08:50:47.979Z</time>
      </trkpt>
      <trkpt lat="48.2417" lon="3.24172">
        <ele>105</ele>
        <time>2014-04-20T08:50:49.979Z</time>
      </trkpt>
      <trkpt lat="48.24169" lon="3.2417">
        <ele>106</ele>
        <time>2014-04-20T08:50:50.979Z</time>
      </trkpt>
      <trkpt lat="48.24165" lon="3.24165">
        <ele>106</ele>
        <time>2014-04-20T08:50:52.979Z</time>
      </trkpt>
      <trkpt lat="48.24164" lon="3.24163">
        <ele>106</ele>
        <time>2014-04-20T08:50:53.979Z</time>
      </trkpt>
      <trkpt lat="48.24163" lon="3.24159">
        <ele>107</ele>
        <time>2014-04-20T08:50:54.979Z</time>
      </trkpt>
      <trkpt lat="48.24162" lon="3.24157">
        <ele>107</ele>
        <time>2014-04-20T08:50:55.979Z</time>
      </trkpt>
      <trkpt lat="48.24159" lon="3.24152">
        <ele>107</ele>
        <time>2014-04-20T08:50:57.979Z</time>
      </trkpt>
      <trkpt lat="48.24157" lon="3.2415">
        <ele>107</ele>
        <time>2014-04-20T08:50:58.979Z</time>
      </trkpt>
      <trkpt lat="48.24154" lon="3.24146">
        <ele>107</ele>
        <time>2014-04-20T08:51:00.979Z</time>
      </trkpt>
      <trkpt lat="48.24151" lon="3.24146">
        <ele>107</ele>
        <time>2014-04-20T08:51:01.979Z</time>
      </trkpt>
      <trkpt lat="48.24148" lon="3.24142">
        <ele>108</ele>
        <time>2014-04-20T08:51:03.979Z</time>
      </trkpt>
      <trkpt lat="48.24146" lon="3.24142">
        <ele>108</ele>
        <time>2014-04-20T08:51:04.979Z</time>
      </trkpt>
      <trkpt lat="48.24143" lon="3.2414">
        <ele>108</ele>
        <time>2014-04-20T08:51:06.979Z</time>
      </trkpt>
      <trkpt lat="48.24142" lon="3.24137">
        <ele>108</ele>
        <time>2014-04-20T08:51:07.979Z</time>
      </trkpt>
      <trkpt lat="48.24137" lon="3.24135">
        <ele>108</ele>
        <time>2014-04-20T08:51:09.979Z</time>
      </trkpt>
      <trkpt lat="48.24136" lon="3.24135">
        <ele>108</ele>
        <time>2014-04-20T08:51:10.979Z</time>
      </trkpt>
      <trkpt lat="48.24133" lon="3.24133">
        <ele>108</ele>
        <time>2014-04-20T08:51:12.979Z</time>
      </trkpt>
      <trkpt lat="48.24131" lon="3.24131">
        <ele>108</ele>
        <time>2014-04-20T08:51:13.979Z</time>
      </trkpt>
      <trkpt lat="48.24128" lon="3.24129">
        <ele>108</ele>
        <time>2014-04-20T08:51:15.979Z</time>
      </trkpt>
      <trkpt lat="48.24127" lon="3.24129">
        <ele>108</ele>
        <time>2014-04-20T08:51:16.979Z</time>
      </trkpt>
      <trkpt lat="48.24124" lon="3.24125">
        <ele>108</ele>
        <time>2014-04-20T08:51:18.979Z</time>
      </trkpt>
      <trkpt lat="48.24121" lon="3.24125">
        <ele>108</ele>
        <time>2014-04-20T08:51:19.979Z</time>
      </trkpt>
      <trkpt lat="48.24118" lon="3.24122">
        <ele>108</ele>
        <time>2014-04-20T08:51:21.979Z</time>
      </trkpt>
      <trkpt lat="48.24116" lon="3.2412">
        <ele>108</ele>
        <time>2014-04-20T08:51:22.979Z</time>
      </trkpt>
      <trkpt lat="48.24113" lon="3.24118">
        <ele>108</ele>
        <time>2014-04-20T08:51:24.979Z</time>
      </trkpt>
      <trkpt lat="48.24111" lon="3.24116">
        <ele>108</ele>
        <time>2014-04-20T08:51:25.979Z</time>
      </trkpt>
      <trkpt lat="48.24107" lon="3.24114">
        <ele>108</ele>
        <time>2014-04-20T08:51:27.979Z</time>
      </trkpt>
      <trkpt lat="48.24105" lon="3.24114">
        <ele>108</ele>
        <time>2014-04-20T08:51:28.979Z</time>
      </trkpt>
      <trkpt lat="48.24103" lon="3.24112">
        <ele>108</ele>
        <time>2014-04-20T08:51:29.979Z</time>
      </trkpt>
      <trkpt lat="48.24101" lon="3.2411">
        <ele>108</ele>
        <time>2014-04-20T08:51:30.979Z</time>
      </trkpt>
      <trkpt lat="48.24097" lon="3.24107">
        <ele>108</ele>
        <time>2014-04-20T08:51:32.979Z</time>
      </trkpt>
      <trkpt lat="48.24096" lon="3.24107">
        <ele>108</ele>
        <time>2014-04-20T08:51:33.979Z</time>
      </trkpt>
      <trkpt lat="48.24093" lon="3.24105">
        <ele>108</ele>
        <time>2014-04-20T08:51:34.979Z</time>
      </trkpt>
      <trkpt lat="48.24091" lon="3.24105">
        <ele>108</ele>
        <time>2014-04-20T08:51:35.979Z</time>
      </trkpt>
      <trkpt lat="48.24089" lon="3.24105">
        <ele>108</ele>
        <time>2014-04-20T08:51:36.979Z</time>
      </trkpt>
      <trkpt lat="48.24087" lon="3.24103">
        <ele>107</ele>
        <time>2014-04-20T08:51:37.979Z</time>
      </trkpt>
      <trkpt lat="48.24085" lon="3.24103">
        <ele>107</ele>
        <time>2014-04-20T08:51:38.979Z</time>
      </trkpt>
      <trkpt lat="48.24083" lon="3.24101">
        <ele>110</ele>
        <time>2014-04-20T08:51:39.979Z</time>
      </trkpt>
      <trkpt lat="48.24078" lon="3.24101">
        <ele>110</ele>
        <time>2014-04-20T08:51:41.979Z</time>
      </trkpt>
      <trkpt lat="48.24075" lon="3.24099">
        <ele>110</ele>
        <time>2014-04-20T08:51:42.979Z</time>
      </trkpt>
      <trkpt lat="48.24073" lon="3.24099">
        <ele>110</ele>
        <time>2014-04-20T08:51:43.979Z</time>
      </trkpt>
      <trkpt lat="48.2407" lon="3.24099">
        <ele>110</ele>
        <time>2014-04-20T08:51:44.979Z</time>
      </trkpt>
      <trkpt lat="48.24067" lon="3.24099">
        <ele>111</ele>
        <time>2014-04-20T08:51:45.979Z</time>
      </trkpt>
      <trkpt lat="48.24064" lon="3.24099">
        <ele>111</ele>
        <time>2014-04-20T08:51:46.979Z</time>
      </trkpt>
      <trkpt lat="48.24062" lon="3.24099">
        <ele>111</ele>
        <time>2014-04-20T08:51:47.979Z</time>
      </trkpt>
      <trkpt lat="48.24059" lon="3.24099">
        <ele>111</ele>
        <time>2014-04-20T08:51:48.979Z</time>
      </trkpt>
      <trkpt lat="48.24055" lon="3.24097">
        <ele>112</ele>
        <time>2014-04-20T08:51:50.979Z</time>
      </trkpt>
      <trkpt lat="48.24053" lon="3.24097">
        <ele>112</ele>
        <time>2014-04-20T08:51:51.979Z</time>
      </trkpt>
      <trkpt lat="48.24048" lon="3.24095">
        <ele>112</ele>
        <time>2014-04-20T08:51:53.979Z</time>
      </trkpt>
      <trkpt lat="48.24045" lon="3.24095">
        <ele>112</ele>
        <time>2014-04-20T08:51:54.979Z</time>
      </trkpt>
      <trkpt lat="48.24041" lon="3.24095">
        <ele>112</ele>
        <time>2014-04-20T08:51:56.979Z</time>
      </trkpt>
      <trkpt lat="48.24039" lon="3.24095">
        <ele>113</ele>
        <time>2014-04-20T08:51:57.979Z</time>
      </trkpt>
      <trkpt lat="48.24036" lon="3.24095">
        <ele>113</ele>
        <time>2014-04-20T08:51:58.979Z</time>
      </trkpt>
      <trkpt lat="48.24033" lon="3.24097">
        <ele>113</ele>
        <time>2014-04-20T08:51:59.979Z</time>
      </trkpt>
      <trkpt lat="48.2403" lon="3.24097">
        <ele>113</ele>
        <time>2014-04-20T08:52:01.979Z</time>
      </trkpt>
      <trkpt lat="48.24028" lon="3.24097">
        <ele>113</ele>
        <time>2014-04-20T08:52:02.979Z</time>
      </trkpt>
      <trkpt lat="48.24025" lon="3.24099">
        <ele>113</ele>
        <time>2014-04-20T08:52:04.979Z</time>
      </trkpt>
      <trkpt lat="48.24023" lon="3.24099">
        <ele>113</ele>
        <time>2014-04-20T08:52:05.979Z</time>
      </trkpt>
      <trkpt lat="48.24019" lon="3.24101">
        <ele>113</ele>
        <time>2014-04-20T08:52:07.979Z</time>
      </trkpt>
      <trkpt lat="48.24017" lon="3.24101">
        <ele>114</ele>
        <time>2014-04-20T08:52:08.979Z</time>
      </trkpt>
      <trkpt lat="48.24014" lon="3.24101">
        <ele>114</ele>
        <time>2014-04-20T08:52:10.979Z</time>
      </trkpt>
      <trkpt lat="48.24012" lon="3.24103">
        <ele>114</ele>
        <time>2014-04-20T08:52:11.979Z</time>
      </trkpt>
      <trkpt lat="48.24009" lon="3.24105">
        <ele>114</ele>
        <time>2014-04-20T08:52:13.979Z</time>
      </trkpt>
      <trkpt lat="48.24008" lon="3.24105">
        <ele>114</ele>
        <time>2014-04-20T08:52:14.979Z</time>
      </trkpt>
      <trkpt lat="48.24004" lon="3.24107">
        <ele>114</ele>
        <time>2014-04-20T08:52:16.979Z</time>
      </trkpt>
      <trkpt lat="48.24002" lon="3.24107">
        <ele>114</ele>
        <time>2014-04-20T08:52:17.979Z</time>
      </trkpt>
      <trkpt lat="48.23998" lon="3.24107">
        <ele>119</ele>
        <time>2014-04-20T08:52:20.979Z</time>
      </trkpt>
      <trkpt lat="48.23997" lon="3.24107">
        <ele>119</ele>
        <time>2014-04-20T08:52:21.979Z</time>
      </trkpt>
      <trkpt lat="48.23994" lon="3.2411">
        <ele>119</ele>
        <time>2014-04-20T08:52:23.979Z</time>
      </trkpt>
      <trkpt lat="48.23993" lon="3.2411">
        <ele>119</ele>
        <time>2014-04-20T08:52:24.979Z</time>
      </trkpt>
      <trkpt lat="48.23989" lon="3.24114">
        <ele>120</ele>
        <time>2014-04-20T08:52:27.979Z</time>
      </trkpt>
      <trkpt lat="48.23987" lon="3.24114">
        <ele>120</ele>
        <time>2014-04-20T08:52:28.979Z</time>
      </trkpt>
      <trkpt lat="48.23984" lon="3.24118">
        <ele>120</ele>
        <time>2014-04-20T08:52:31.979Z</time>
      </trkpt>
      <trkpt lat="48.23983" lon="3.2412">
        <ele>120</ele>
        <time>2014-04-20T08:52:32.979Z</time>
      </trkpt>
      <trkpt lat="48.2398" lon="3.24125">
        <ele>121</ele>
        <time>2014-04-20T08:52:34.979Z</time>
      </trkpt>
      <trkpt lat="48.23979" lon="3.24125">
        <ele>121</ele>
        <time>2014-04-20T08:52:35.979Z</time>
      </trkpt>
      <trkpt lat="48.23975" lon="3.24129">
        <ele>121</ele>
        <time>2014-04-20T08:52:37.979Z</time>
      </trkpt>
      <trkpt lat="48.23973" lon="3.24129">
        <ele>121</ele>
        <time>2014-04-20T08:52:38.979Z</time>
      </trkpt>
      <trkpt lat="48.2397" lon="3.24131">
        <ele>122</ele>
        <time>2014-04-20T08:52:40.979Z</time>
      </trkpt>
      <trkpt lat="48.23969" lon="3.24133">
        <ele>122</ele>
        <time>2014-04-20T08:52:41.979Z</time>
      </trkpt>
      <trkpt lat="48.23966" lon="3.24135">
        <ele>122</ele>
        <time>2014-04-20T08:52:43.979Z</time>
      </trkpt>
      <trkpt lat="48.23964" lon="3.24135">
        <ele>122</ele>
        <time>2014-04-20T08:52:44.979Z</time>
      </trkpt>
      <trkpt lat="48.23961" lon="3.2414">
        <ele>122</ele>
        <time>2014-04-20T08:52:46.979Z</time>
      </trkpt>
      <trkpt lat="48.23959" lon="3.24142">
        <ele>122</ele>
        <time>2014-04-20T08:52:47.979Z</time>
      </trkpt>
      <trkpt lat="48.23956" lon="3.24144">
        <ele>123</ele>
        <time>2014-04-20T08:52:49.979Z</time>
      </trkpt>
      <trkpt lat="48.23954" lon="3.24146">
        <ele>123</ele>
        <time>2014-04-20T08:52:50.979Z</time>
      </trkpt>
      <trkpt lat="48.23951" lon="3.2415">
        <ele>123</ele>
        <time>2014-04-20T08:52:52.979Z</time>
      </trkpt>
      <trkpt lat="48.2395" lon="3.24152">
        <ele>123</ele>
        <time>2014-04-20T08:52:53.979Z</time>
      </trkpt>
      <trkpt lat="48.23946" lon="3.24157">
        <ele>124</ele>
        <time>2014-04-20T08:52:55.979Z</time>
      </trkpt>
      <trkpt lat="48.23945" lon="3.24159">
        <ele>124</ele>
        <time>2014-04-20T08:52:56.979Z</time>
      </trkpt>
      <trkpt lat="48.23942" lon="3.24163">
        <ele>124</ele>
        <time>2014-04-20T08:52:58.979Z</time>
      </trkpt>
      <trkpt lat="48.23941" lon="3.24165">
        <ele>124</ele>
        <time>2014-04-20T08:52:59.979Z</time>
      </trkpt>
      <trkpt lat="48.23938" lon="3.2417">
        <ele>126</ele>
        <time>2014-04-20T08:53:02.979Z</time>
      </trkpt>
      <trkpt lat="48.23937" lon="3.24172">
        <ele>126</ele>
        <time>2014-04-20T08:53:03.979Z</time>
      </trkpt>
      <trkpt lat="48.23934" lon="3.24174">
        <ele>127</ele>
        <time>2014-04-20T08:53:06.979Z</time>
      </trkpt>
      <trkpt lat="48.23933" lon="3.24174">
        <ele>127</ele>
        <time>2014-04-20T08:53:07.979Z</time>
      </trkpt>
      <trkpt lat="48.23929" lon="3.24178">
        <ele>127</ele>
        <time>2014-04-20T08:53:10.979Z</time>
      </trkpt>
      <trkpt lat="48.23928" lon="3.24178">
        <ele>127</ele>
        <time>2014-04-20T08:53:11.979Z</time>
      </trkpt>
      <trkpt lat="48.23925" lon="3.24183">
        <ele>127</ele>
        <time>2014-04-20T08:53:14.979Z</time>
      </trkpt>
      <trkpt lat="48.23925" lon="3.24185">
        <ele>127</ele>
        <time>2014-04-20T08:53:15.979Z</time>
      </trkpt>
      <trkpt lat="48.23922" lon="3.24187">
        <ele>127</ele>
        <time>2014-04-20T08:53:18.979Z</time>
      </trkpt>
      <trkpt lat="48.23921" lon="3.24187">
        <ele>127</ele>
        <time>2014-04-20T08:53:19.979Z</time>
      </trkpt>
      <trkpt lat="48.23918" lon="3.24189">
        <ele>127</ele>
        <time>2014-04-20T08:53:22.979Z</time>
      </trkpt>
      <trkpt lat="48.23916" lon="3.24191">
        <ele>132</ele>
        <time>2014-04-20T08:53:23.979Z</time>
      </trkpt>
      <trkpt lat="48.23913" lon="3.24193">
        <ele>132</ele>
        <time>2014-04-20T08:53:27.979Z</time>
      </trkpt>
      <trkpt lat="48.23912" lon="3.24193">
        <ele>132</ele>
        <time>2014-04-20T08:53:28.979Z</time>
      </trkpt>
      <trkpt lat="48.23909" lon="3.24198">
        <ele>133</ele>
        <time>2014-04-20T08:53:32.979Z</time>
      </trkpt>
      <trkpt lat="48.23908" lon="3.24198">
        <ele>133</ele>
        <time>2014-04-20T08:53:33.979Z</time>
      </trkpt>
      <trkpt lat="48.23905" lon="3.242">
        <ele>133</ele>
        <time>2014-04-20T08:53:36.979Z</time>
      </trkpt>
      <trkpt lat="48.23904" lon="3.24202">
        <ele>133</ele>
        <time>2014-04-20T08:53:37.979Z</time>
      </trkpt>
      <trkpt lat="48.239" lon="3.24206">
        <ele>133</ele>
        <time>2014-04-20T08:53:40.979Z</time>
      </trkpt>
      <trkpt lat="48.23899" lon="3.24206">
        <ele>134</ele>
        <time>2014-04-20T08:53:41.979Z</time>
      </trkpt>
      <trkpt lat="48.23896" lon="3.2421">
        <ele>134</ele>
        <time>2014-04-20T08:53:44.979Z</time>
      </trkpt>
      <trkpt lat="48.23895" lon="3.2421">
        <ele>134</ele>
        <time>2014-04-20T08:53:45.979Z</time>
      </trkpt>
      <trkpt lat="48.23892" lon="3.24213">
        <ele>134</ele>
        <time>2014-04-20T08:53:47.979Z</time>
      </trkpt>
      <trkpt lat="48.23891" lon="3.24215">
        <ele>134</ele>
        <time>2014-04-20T08:53:48.979Z</time>
      </trkpt>
      <trkpt lat="48.23889" lon="3.24217">
        <ele>134</ele>
        <time>2014-04-20T08:53:50.979Z</time>
      </trkpt>
      <trkpt lat="48.23886" lon="3.24219">
        <ele>135</ele>
        <time>2014-04-20T08:53:51.979Z</time>
      </trkpt>
      <trkpt lat="48.23884" lon="3.24223">
        <ele>135</ele>
        <time>2014-04-20T08:53:53.979Z</time>
      </trkpt>
      <trkpt lat="48.23882" lon="3.24225">
        <ele>135</ele>
        <time>2014-04-20T08:53:54.979Z</time>
      </trkpt>
      <trkpt lat="48.23879" lon="3.24228">
        <ele>135</ele>
        <time>2014-04-20T08:53:56.979Z</time>
      </trkpt>
      <trkpt lat="48.23877" lon="3.2423">
        <ele>135</ele>
        <time>2014-04-20T08:53:57.979Z</time>
      </trkpt>
      <trkpt lat="48.23875" lon="3.24232">
        <ele>136</ele>
        <time>2014-04-20T08:53:58.979Z</time>
      </trkpt>
      <trkpt lat="48.23872" lon="3.24234">
        <ele>136</ele>
        <time>2014-04-20T08:53:59.979Z</time>
      </trkpt>
      <trkpt lat="48.23868" lon="3.24236">
        <ele>136</ele>
        <time>2014-04-20T08:54:01.979Z</time>
      </trkpt>
      <trkpt lat="48.23867" lon="3.24238">
        <ele>136</ele>
        <time>2014-04-20T08:54:02.979Z</time>
      </trkpt>
      <trkpt lat="48.23864" lon="3.24243">
        <ele>137</ele>
        <time>2014-04-20T08:54:04.979Z</time>
      </trkpt>
      <trkpt lat="48.23862" lon="3.24243">
        <ele>137</ele>
        <time>2014-04-20T08:54:05.979Z</time>
      </trkpt>
      <trkpt lat="48.23858" lon="3.24247">
        <ele>138</ele>
        <time>2014-04-20T08:54:07.979Z</time>
      </trkpt>
      <trkpt lat="48.23857" lon="3.24249">
        <ele>138</ele>
        <time>2014-04-20T08:54:08.979Z</time>
      </trkpt>
      <trkpt lat="48.23854" lon="3.24251">
        <ele>138</ele>
        <time>2014-04-20T08:54:10.979Z</time>
      </trkpt>
      <trkpt lat="48.23853" lon="3.24253">
        <ele>139</ele>
        <time>2014-04-20T08:54:11.979Z</time>
      </trkpt>
      <trkpt lat="48.23851" lon="3.24255">
        <ele>139</ele>
        <time>2014-04-20T08:54:13.979Z</time>
      </trkpt>
      <trkpt lat="48.23849" lon="3.24258">
        <ele>139</ele>
        <time>2014-04-20T08:54:14.979Z</time>
      </trkpt>
      <trkpt lat="48.23846" lon="3.24262">
        <ele>139</ele>
        <time>2014-04-20T08:54:17.979Z</time>
      </trkpt>
      <trkpt lat="48.23845" lon="3.24264">
        <ele>139</ele>
        <time>2014-04-20T08:54:18.979Z</time>
      </trkpt>
      <trkpt lat="48.23841" lon="3.24268">
        <ele>139</ele>
        <time>2014-04-20T08:54:21.979Z</time>
      </trkpt>
      <trkpt lat="48.23839" lon="3.2427">
        <ele>139</ele>
        <time>2014-04-20T08:54:22.979Z</time>
      </trkpt>
      <trkpt lat="48.23836" lon="3.24273">
        <ele>139</ele>
        <time>2014-04-20T08:54:25.979Z</time>
      </trkpt>
      <trkpt lat="48.23835" lon="3.24275">
        <ele>139</ele>
        <time>2014-04-20T08:54:26.979Z</time>
      </trkpt>
      <trkpt lat="48.23832" lon="3.24279">
        <ele>145</ele>
        <time>2014-04-20T08:54:29.979Z</time>
      </trkpt>
      <trkpt lat="48.23831" lon="3.24281">
        <ele>145</ele>
        <time>2014-04-20T08:54:30.979Z</time>
      </trkpt>
      <trkpt lat="48.23827" lon="3.24286">
        <ele>145</ele>
        <time>2014-04-20T08:54:33.979Z</time>
      </trkpt>
      <trkpt lat="48.23826" lon="3.24286">
        <ele>145</ele>
        <time>2014-04-20T08:54:34.979Z</time>
      </trkpt>
      <trkpt lat="48.23823" lon="3.24288">
        <ele>145</ele>
        <time>2014-04-20T08:54:36.979Z</time>
      </trkpt>
      <trkpt lat="48.23822" lon="3.2429">
        <ele>145</ele>
        <time>2014-04-20T08:54:37.979Z</time>
      </trkpt>
      <trkpt lat="48.2382" lon="3.24292">
        <ele>146</ele>
        <time>2014-04-20T08:54:39.979Z</time>
      </trkpt>
      <trkpt lat="48.23818" lon="3.24294">
        <ele>146</ele>
        <time>2014-04-20T08:54:40.979Z</time>
      </trkpt>
      <trkpt lat="48.23815" lon="3.24296">
        <ele>146</ele>
        <time>2014-04-20T08:54:42.979Z</time>
      </trkpt>
      <trkpt lat="48.23813" lon="3.24298">
        <ele>146</ele>
        <time>2014-04-20T08:54:43.979Z</time>
      </trkpt>
      <trkpt lat="48.2381" lon="3.24301">
        <ele>146</ele>
        <time>2014-04-20T08:54:45.979Z</time>
      </trkpt>
      <trkpt lat="48.23808" lon="3.24301">
        <ele>146</ele>
        <time>2014-04-20T08:54:46.979Z</time>
      </trkpt>
      <trkpt lat="48.23805" lon="3.24305">
        <ele>146</ele>
        <time>2014-04-20T08:54:48.979Z</time>
      </trkpt>
      <trkpt lat="48.23803" lon="3.24305">
        <ele>146</ele>
        <time>2014-04-20T08:54:49.979Z</time>
      </trkpt>
      <trkpt lat="48.23799" lon="3.24309">
        <ele>146</ele>
        <time>2014-04-20T08:54:51.979Z</time>
      </trkpt>
      <trkpt lat="48.23797" lon="3.24311">
        <ele>147</ele>
        <time>2014-04-20T08:54:52.979Z</time>
      </trkpt>
      <trkpt lat="48.23794" lon="3.24313">
        <ele>147</ele>
        <time>2014-04-20T08:54:54.979Z</time>
      </trkpt>
      <trkpt lat="48.23792" lon="3.24316">
        <ele>147</ele>
        <time>2014-04-20T08:54:55.979Z</time>
      </trkpt>
      <trkpt lat="48.23789" lon="3.2432">
        <ele>147</ele>
        <time>2014-04-20T08:54:57.979Z</time>
      </trkpt>
      <trkpt lat="48.23787" lon="3.2432">
        <ele>147</ele>
        <time>2014-04-20T08:54:58.979Z</time>
      </trkpt>
      <trkpt lat="48.23783" lon="3.24322">
        <ele>148</ele>
        <time>2014-04-20T08:54:59.979Z</time>
      </trkpt>
      <trkpt lat="48.23781" lon="3.24324">
        <ele>148</ele>
        <time>2014-04-20T08:55:00.979Z</time>
      </trkpt>
      <trkpt lat="48.23779" lon="3.24326">
        <ele>148</ele>
        <time>2014-04-20T08:55:01.979Z</time>
      </trkpt>
      <trkpt lat="48.23777" lon="3.24328">
        <ele>148</ele>
        <time>2014-04-20T08:55:02.979Z</time>
      </trkpt>
      <trkpt lat="48.23775" lon="3.24331">
        <ele>148</ele>
        <time>2014-04-20T08:55:03.979Z</time>
      </trkpt>
      <trkpt lat="48.23773" lon="3.24333">
        <ele>149</ele>
        <time>2014-04-20T08:55:04.979Z</time>
      </trkpt>
      <trkpt lat="48.23771" lon="3.24335">
        <ele>147</ele>
        <time>2014-04-20T08:55:05.979Z</time>
      </trkpt>
      <trkpt lat="48.23768" lon="3.24337">
        <ele>148</ele>
        <time>2014-04-20T08:55:06.979Z</time>
      </trkpt>
      <trkpt lat="48.23765" lon="3.24339">
        <ele>148</ele>
        <time>2014-04-20T08:55:08.979Z</time>
      </trkpt>
      <trkpt lat="48.23763" lon="3.24341">
        <ele>148</ele>
        <time>2014-04-20T08:55:09.979Z</time>
      </trkpt>
      <trkpt lat="48.23761" lon="3.24343">
        <ele>148</ele>
        <time>2014-04-20T08:55:10.979Z</time>
      </trkpt>
      <trkpt lat="48.23759" lon="3.24346">
        <ele>148</ele>
        <time>2014-04-20T08:55:11.979Z</time>
      </trkpt>
      <trkpt lat="48.23757" lon="3.24348">
        <ele>148</ele>
        <time>2014-04-20T08:55:12.979Z</time>
      </trkpt>
      <trkpt lat="48.23754" lon="3.2435">
        <ele>148</ele>
        <time>2014-04-20T08:55:13.979Z</time>
      </trkpt>
      <trkpt lat="48.23751" lon="3.24354">
        <ele>148</ele>
        <time>2014-04-20T08:55:15.979Z</time>
      </trkpt>
      <trkpt lat="48.23749" lon="3.24356">
        <ele>152</ele>
        <time>2014-04-20T08:55:16.979Z</time>
      </trkpt>
      <trkpt lat="48.23746" lon="3.24361">
        <ele>152</ele>
        <time>2014-04-20T08:55:18.979Z</time>
      </trkpt>
      <trkpt lat="48.23744" lon="3.24363">
        <ele>152</ele>
        <time>2014-04-20T08:55:19.979Z</time>
      </trkpt>
      <trkpt lat="48.23743" lon="3.24365">
        <ele>152</ele>
        <time>2014-04-20T08:55:20.979Z</time>
      </trkpt>
      <trkpt lat="48.2374" lon="3.24369">
        <ele>152</ele>
        <time>2014-04-20T08:55:21.979Z</time>
      </trkpt>
      <trkpt lat="48.23738" lon="3.24371">
        <ele>152</ele>
        <time>2014-04-20T08:55:22.979Z</time>
      </trkpt>
      <trkpt lat="48.23736" lon="3.24373">
        <ele>152</ele>
        <time>2014-04-20T08:55:23.979Z</time>
      </trkpt>
      <trkpt lat="48.23734" lon="3.24376">
        <ele>153</ele>
        <time>2014-04-20T08:55:24.979Z</time>
      </trkpt>
      <trkpt lat="48.23732" lon="3.2438">
        <ele>152</ele>
        <time>2014-04-20T08:55:25.979Z</time>
      </trkpt>
      <trkpt lat="48.23729" lon="3.24384">
        <ele>152</ele>
        <time>2014-04-20T08:55:27.979Z</time>
      </trkpt>
      <trkpt lat="48.23727" lon="3.24386">
        <ele>153</ele>
        <time>2014-04-20T08:55:28.979Z</time>
      </trkpt>
      <trkpt lat="48.23724" lon="3.24389">
        <ele>153</ele>
        <time>2014-04-20T08:55:29.979Z</time>
      </trkpt>
      <trkpt lat="48.23722" lon="3.24393">
        <ele>153</ele>
        <time>2014-04-20T08:55:30.979Z</time>
      </trkpt>
      <trkpt lat="48.23719" lon="3.24397">
        <ele>153</ele>
        <time>2014-04-20T08:55:32.979Z</time>
      </trkpt>
      <trkpt lat="48.23717" lon="3.24399">
        <ele>153</ele>
        <time>2014-04-20T08:55:33.979Z</time>
      </trkpt>
      <trkpt lat="48.23715" lon="3.24401">
        <ele>153</ele>
        <time>2014-04-20T08:55:34.979Z</time>
      </trkpt>
      <trkpt lat="48.23714" lon="3.24406">
        <ele>153</ele>
        <time>2014-04-20T08:55:35.979Z</time>
      </trkpt>
      <trkpt lat="48.23712" lon="3.24408">
        <ele>153</ele>
        <time>2014-04-20T08:55:36.979Z</time>
      </trkpt>
      <trkpt lat="48.23709" lon="3.2441">
        <ele>153</ele>
        <time>2014-04-20T08:55:37.979Z</time>
      </trkpt>
      <trkpt lat="48.23707" lon="3.24414">
        <ele>153</ele>
        <time>2014-04-20T08:55:38.979Z</time>
      </trkpt>
      <trkpt lat="48.23705" lon="3.24416">
        <ele>153</ele>
        <time>2014-04-20T08:55:39.979Z</time>
      </trkpt>
      <trkpt lat="48.23703" lon="3.24419">
        <ele>152</ele>
        <time>2014-04-20T08:55:40.979Z</time>
      </trkpt>
      <trkpt lat="48.23701" lon="3.24421">
        <ele>152</ele>
        <time>2014-04-20T08:55:41.979Z</time>
      </trkpt>
      <trkpt lat="48.23699" lon="3.24425">
        <ele>153</ele>
        <time>2014-04-20T08:55:42.979Z</time>
      </trkpt>
      <trkpt lat="48.23696" lon="3.24427">
        <ele>153</ele>
        <time>2014-04-20T08:55:43.979Z</time>
      </trkpt>
      <trkpt lat="48.23694" lon="3.24429">
        <ele>153</ele>
        <time>2014-04-20T08:55:44.979Z</time>
      </trkpt>
      <trkpt lat="48.23692" lon="3.24431">
        <ele>153</ele>
        <time>2014-04-20T08:55:45.979Z</time>
      </trkpt>
      <trkpt lat="48.23689" lon="3.24434">
        <ele>153</ele>
        <time>2014-04-20T08:55:46.979Z</time>
      </trkpt>
      <trkpt lat="48.23688" lon="3.24438">
        <ele>153</ele>
        <time>2014-04-20T08:55:47.979Z</time>
      </trkpt>
      <trkpt lat="48.23686" lon="3.2444">
        <ele>153</ele>
        <time>2014-04-20T08:55:48.979Z</time>
      </trkpt>
      <trkpt lat="48.23683" lon="3.24444">
        <ele>153</ele>
        <time>2014-04-20T08:55:49.979Z</time>
      </trkpt>
      <trkpt lat="48.23679" lon="3.24446">
        <ele>153</ele>
        <time>2014-04-20T08:55:50.979Z</time>
      </trkpt>
      <trkpt lat="48.23677" lon="3.24449">
        <ele>153</ele>
        <time>2014-04-20T08:55:51.979Z</time>
      </trkpt>
      <trkpt lat="48.23675" lon="3.24453">
        <ele>153</ele>
        <time>2014-04-20T08:55:52.979Z</time>
      </trkpt>
      <trkpt lat="48.23673" lon="3.24455">
        <ele>153</ele>
        <time>2014-04-20T08:55:53.979Z</time>
      </trkpt>
      <trkpt lat="48.2367" lon="3.24457">
        <ele>153</ele>
        <time>2014-04-20T08:55:54.979Z</time>
      </trkpt>
      <trkpt lat="48.23668" lon="3.24459">
        <ele>153</ele>
        <time>2014-04-20T08:55:55.979Z</time>
      </trkpt>
      <trkpt lat="48.23665" lon="3.24461">
        <ele>155</ele>
        <time>2014-04-20T08:55:56.979Z</time>
      </trkpt>
      <trkpt lat="48.23662" lon="3.24464">
        <ele>155</ele>
        <time>2014-04-20T08:55:57.979Z</time>
      </trkpt>
      <trkpt lat="48.2366" lon="3.24466">
        <ele>155</ele>
        <time>2014-04-20T08:55:58.979Z</time>
      </trkpt>
      <trkpt lat="48.23658" lon="3.2447">
        <ele>155</ele>
        <time>2014-04-20T08:55:59.979Z</time>
      </trkpt>
      <trkpt lat="48.23655" lon="3.2447">
        <ele>156</ele>
        <time>2014-04-20T08:56:00.979Z</time>
      </trkpt>
      <trkpt lat="48.23653" lon="3.24472">
        <ele>156</ele>
        <time>2014-04-20T08:56:01.979Z</time>
      </trkpt>
      <trkpt lat="48.23649" lon="3.24474">
        <ele>156</ele>
        <time>2014-04-20T08:56:02.979Z</time>
      </trkpt>
      <trkpt lat="48.23647" lon="3.24476">
        <ele>156</ele>
        <time>2014-04-20T08:56:03.979Z</time>
      </trkpt>
      <trkpt lat="48.23645" lon="3.24476">
        <ele>156</ele>
        <time>2014-04-20T08:56:04.979Z</time>
      </trkpt>
      <trkpt lat="48.23643" lon="3.24479">
        <ele>156</ele>
        <time>2014-04-20T08:56:05.979Z</time>
      </trkpt>
      <trkpt lat="48.23641" lon="3.24481">
        <ele>156</ele>
        <time>2014-04-20T08:56:06.979Z</time>
      </trkpt>
      <trkpt lat="48.23639" lon="3.24483">
        <ele>156</ele>
        <time>2014-04-20T08:56:07.979Z</time>
      </trkpt>
      <trkpt lat="48.23635" lon="3.24485">
        <ele>156</ele>
        <time>2014-04-20T08:56:08.979Z</time>
      </trkpt>
      <trkpt lat="48.23633" lon="3.24487">
        <ele>156</ele>
        <time>2014-04-20T08:56:09.979Z</time>
      </trkpt>
      <trkpt lat="48.2363" lon="3.24489">
        <ele>156</ele>
        <time>2014-04-20T08:56:10.979Z</time>
      </trkpt>
      <trkpt lat="48.23628" lon="3.24492">
        <ele>156</ele>
        <time>2014-04-20T08:56:11.979Z</time>
      </trkpt>
      <trkpt lat="48.23626" lon="3.24494">
        <ele>156</ele>
        <time>2014-04-20T08:56:12.979Z</time>
      </trkpt>
      <trkpt lat="48.23622" lon="3.24496">
        <ele>156</ele>
        <time>2014-04-20T08:56:13.979Z</time>
      </trkpt>
      <trkpt lat="48.2362" lon="3.24498">
        <ele>156</ele>
        <time>2014-04-20T08:56:14.979Z</time>
      </trkpt>
      <trkpt lat="48.23617" lon="3.245">
        <ele>156</ele>
        <time>2014-04-20T08:56:15.979Z</time>
      </trkpt>
      <trkpt lat="48.23614" lon="3.24502">
        <ele>156</ele>
        <time>2014-04-20T08:56:16.979Z</time>
      </trkpt>
      <trkpt lat="48.23612" lon="3.24504">
        <ele>156</ele>
        <time>2014-04-20T08:56:17.979Z</time>
      </trkpt>
      <trkpt lat="48.2361" lon="3.24504">
        <ele>156</ele>
        <time>2014-04-20T08:56:18.979Z</time>
      </trkpt>
      <trkpt lat="48.23606" lon="3.24507">
        <ele>156</ele>
        <time>2014-04-20T08:56:19.979Z</time>
      </trkpt>
      <trkpt lat="48.23604" lon="3.24509">
        <ele>156</ele>
        <time>2014-04-20T08:56:20.979Z</time>
      </trkpt>
      <trkpt lat="48.23601" lon="3.24511">
        <ele>156</ele>
        <time>2014-04-20T08:56:21.979Z</time>
      </trkpt>
      <trkpt lat="48.23599" lon="3.24513">
        <ele>156</ele>
        <time>2014-04-20T08:56:22.979Z</time>
      </trkpt>
      <trkpt lat="48.23597" lon="3.24515">
        <ele>156</ele>
        <time>2014-04-20T08:56:23.979Z</time>
      </trkpt>
      <trkpt lat="48.23595" lon="3.24517">
        <ele>156</ele>
        <time>2014-04-20T08:56:24.979Z</time>
      </trkpt>
      <trkpt lat="48.23592" lon="3.24519">
        <ele>156</ele>
        <time>2014-04-20T08:56:25.979Z</time>
      </trkpt>
      <trkpt lat="48.2359" lon="3.24522">
        <ele>156</ele>
        <time>2014-04-20T08:56:26.979Z</time>
      </trkpt>
      <trkpt lat="48.23588" lon="3.24524">
        <ele>156</ele>
        <time>2014-04-20T08:56:27.979Z</time>
      </trkpt>
      <trkpt lat="48.23584" lon="3.24524">
        <ele>156</ele>
        <time>2014-04-20T08:56:29.979Z</time>
      </trkpt>
      <trkpt lat="48.23581" lon="3.24526">
        <ele>153</ele>
        <time>2014-04-20T08:56:30.979Z</time>
      </trkpt>
      <trkpt lat="48.23577" lon="3.24526">
        <ele>153</ele>
        <time>2014-04-20T08:56:31.979Z</time>
      </trkpt>
      <trkpt lat="48.23574" lon="3.24528">
        <ele>153</ele>
        <time>2014-04-20T08:56:32.979Z</time>
      </trkpt>
      <trkpt lat="48.23572" lon="3.2453">
        <ele>152</ele>
        <time>2014-04-20T08:56:33.979Z</time>
      </trkpt>
      <trkpt lat="48.23569" lon="3.24532">
        <ele>152</ele>
        <time>2014-04-20T08:56:34.979Z</time>
      </trkpt>
      <trkpt lat="48.23566" lon="3.24537">
        <ele>152</ele>
        <time>2014-04-20T08:56:37.979Z</time>
      </trkpt>
      <trkpt lat="48.23565" lon="3.24539">
        <ele>152</ele>
        <time>2014-04-20T08:56:38.979Z</time>
      </trkpt>
      <trkpt lat="48.23561" lon="3.24543">
        <ele>152</ele>
        <time>2014-04-20T08:56:48.979Z</time>
      </trkpt>
      <trkpt lat="48.2356" lon="3.24543">
        <ele>151</ele>
        <time>2014-04-20T08:56:49.979Z</time>
      </trkpt>
      <trkpt lat="48.2356" lon="3.24549">
        <ele>151</ele>
        <time>2014-04-20T08:58:45.979Z</time>
      </trkpt>
      <trkpt lat="48.23561" lon="3.24549">
        <ele>151</ele>
        <time>2014-04-20T08:58:46.979Z</time>
      </trkpt>
      <trkpt lat="48.23558" lon="3.24552">
        <ele>151</ele>
        <time>2014-04-20T08:59:50.979Z</time>
      </trkpt>
      <trkpt lat="48.23557" lon="3.24554">
        <ele>151</ele>
        <time>2014-04-20T08:59:51.979Z</time>
      </trkpt>
      <trkpt lat="48.23557" lon="3.2456">
        <ele>151</ele>
        <time>2014-04-20T09:00:07.979Z</time>
      </trkpt>
      <trkpt lat="48.23557" lon="3.24562">
        <ele>151</ele>
        <time>2014-04-20T09:00:08.979Z</time>
      </trkpt>
      <trkpt lat="48.23558" lon="3.24567">
        <ele>151</ele>
        <time>2014-04-20T09:01:02.979Z</time>
      </trkpt>
      <trkpt lat="48.23559" lon="3.24569">
        <ele>151</ele>
        <time>2014-04-20T09:01:03.979Z</time>
      </trkpt>
      <trkpt lat="48.23555" lon="3.24569">
        <ele>151</ele>
        <time>2014-04-20T09:01:33.979Z</time>
      </trkpt>
      <trkpt lat="48.23554" lon="3.24569">
        <ele>151</ele>
        <time>2014-04-20T09:01:34.979Z</time>
      </trkpt>
      <trkpt lat="48.23551" lon="3.24571">
        <ele>151</ele>
        <time>2014-04-20T09:01:45.979Z</time>
      </trkpt>
      <trkpt lat="48.2355" lon="3.24571">
        <ele>151</ele>
        <time>2014-04-20T09:01:46.979Z</time>
      </trkpt>
      <trkpt lat="48.23546" lon="3.24569">
        <ele>150</ele>
        <time>2014-04-20T09:02:13.979Z</time>
      </trkpt>
      <trkpt lat="48.23545" lon="3.24567">
        <ele>150</ele>
        <time>2014-04-20T09:02:14.979Z</time>
      </trkpt>
      <trkpt lat="48.23542" lon="3.24564">
        <ele>150</ele>
        <time>2014-04-20T09:02:31.979Z</time>
      </trkpt>
      <trkpt lat="48.23541" lon="3.24564">
        <ele>150</ele>
        <time>2014-04-20T09:02:32.979Z</time>
      </trkpt>
      <trkpt lat="48.23545" lon="3.24564">
        <ele>150</ele>
        <time>2014-04-20T09:03:36.979Z</time>
      </trkpt>
      <trkpt lat="48.23546" lon="3.24564">
        <ele>150</ele>
        <time>2014-04-20T09:03:37.979Z</time>
      </trkpt>
      <trkpt lat="48.23545" lon="3.24567">
        <ele>150</ele>
        <time>2014-04-20T09:03:45.979Z</time>
      </trkpt>
      <trkpt lat="48.23542" lon="3.24571">
        <ele>150</ele>
        <time>2014-04-20T09:03:46.979Z</time>
      </trkpt>
      <trkpt lat="48.2354" lon="3.24573">
        <ele>149</ele>
        <time>2014-04-20T09:03:47.979Z</time>
      </trkpt>
      <trkpt lat="48.23537" lon="3.24575">
        <ele>149</ele>
        <time>2014-04-20T09:03:48.979Z</time>
      </trkpt>
      <trkpt lat="48.23533" lon="3.24579">
        <ele>149</ele>
        <time>2014-04-20T09:03:49.979Z</time>
      </trkpt>
      <trkpt lat="48.2353" lon="3.24582">
        <ele>148</ele>
        <time>2014-04-20T09:03:50.979Z</time>
      </trkpt>
      <trkpt lat="48.23527" lon="3.24584">
        <ele>146</ele>
        <time>2014-04-20T09:03:51.979Z</time>
      </trkpt>
      <trkpt lat="48.23524" lon="3.24586">
        <ele>145</ele>
        <time>2014-04-20T09:03:52.979Z</time>
      </trkpt>
      <trkpt lat="48.23521" lon="3.24588">
        <ele>145</ele>
        <time>2014-04-20T09:03:53.979Z</time>
      </trkpt>
      <trkpt lat="48.23515" lon="3.24592">
        <ele>144</ele>
        <time>2014-04-20T09:03:54.979Z</time>
      </trkpt>
      <trkpt lat="48.2351" lon="3.24594">
        <ele>144</ele>
        <time>2014-04-20T09:03:55.979Z</time>
      </trkpt>
      <trkpt lat="48.23504" lon="3.24597">
        <ele>144</ele>
        <time>2014-04-20T09:03:56.979Z</time>
      </trkpt>
      <trkpt lat="48.23499" lon="3.24597">
        <ele>138</ele>
        <time>2014-04-20T09:03:57.979Z</time>
      </trkpt>
      <trkpt lat="48.23494" lon="3.24599">
        <ele>137</ele>
        <time>2014-04-20T09:03:58.979Z</time>
      </trkpt>
      <trkpt lat="48.23488" lon="3.24601">
        <ele>136</ele>
        <time>2014-04-20T09:03:59.979Z</time>
      </trkpt>
      <trkpt lat="48.23482" lon="3.24601">
        <ele>135</ele>
        <time>2014-04-20T09:04:00.979Z</time>
      </trkpt>
      <trkpt lat="48.23474" lon="3.24603">
        <ele>134</ele>
        <time>2014-04-20T09:04:01.979Z</time>
      </trkpt>
      <trkpt lat="48.23466" lon="3.24603">
        <ele>133</ele>
        <time>2014-04-20T09:04:02.979Z</time>
      </trkpt>
      <trkpt lat="48.23456" lon="3.24605">
        <ele>131</ele>
        <time>2014-04-20T09:04:03.979Z</time>
      </trkpt>
      <trkpt lat="48.23447" lon="3.24607">
        <ele>130</ele>
        <time>2014-04-20T09:04:04.979Z</time>
      </trkpt>
      <trkpt lat="48.23436" lon="3.2461">
        <ele>129</ele>
        <time>2014-04-20T09:04:05.979Z</time>
      </trkpt>
      <trkpt lat="48.23425" lon="3.24612">
        <ele>128</ele>
        <time>2014-04-20T09:04:06.979Z</time>
      </trkpt>
      <trkpt lat="48.23414" lon="3.24616">
        <ele>119</ele>
        <time>2014-04-20T09:04:07.979Z</time>
      </trkpt>
      <trkpt lat="48.23403" lon="3.2462">
        <ele>118</ele>
        <time>2014-04-20T09:04:08.979Z</time>
      </trkpt>
      <trkpt lat="48.2339" lon="3.24625">
        <ele>118</ele>
        <time>2014-04-20T09:04:09.979Z</time>
      </trkpt>
      <trkpt lat="48.23376" lon="3.24631">
        <ele>116</ele>
        <time>2014-04-20T09:04:10.979Z</time>
      </trkpt>
      <trkpt lat="48.23363" lon="3.24635">
        <ele>115</ele>
        <time>2014-04-20T09:04:11.979Z</time>
      </trkpt>
      <trkpt lat="48.23349" lon="3.2464">
        <ele>114</ele>
        <time>2014-04-20T09:04:12.979Z</time>
      </trkpt>
      <trkpt lat="48.23335" lon="3.2464">
        <ele>114</ele>
        <time>2014-04-20T09:04:13.979Z</time>
      </trkpt>
      <trkpt lat="48.23321" lon="3.24637">
        <ele>106</ele>
        <time>2014-04-20T09:04:14.979Z</time>
      </trkpt>
      <trkpt lat="48.23308" lon="3.24633">
        <ele>105</ele>
        <time>2014-04-20T09:04:15.979Z</time>
      </trkpt>
      <trkpt lat="48.23296" lon="3.24627">
        <ele>104</ele>
        <time>2014-04-20T09:04:16.979Z</time>
      </trkpt>
      <trkpt lat="48.23287" lon="3.24618">
        <ele>104</ele>
        <time>2014-04-20T09:04:17.979Z</time>
      </trkpt>
      <trkpt lat="48.23277" lon="3.24607">
        <ele>103</ele>
        <time>2014-04-20T09:04:18.979Z</time>
      </trkpt>
      <trkpt lat="48.23267" lon="3.24599">
        <ele>102</ele>
        <time>2014-04-20T09:04:19.979Z</time>
      </trkpt>
      <trkpt lat="48.23258" lon="3.24588">
        <ele>100</ele>
        <time>2014-04-20T09:04:20.979Z</time>
      </trkpt>
      <trkpt lat="48.23249" lon="3.24575">
        <ele>98</ele>
        <time>2014-04-20T09:04:21.979Z</time>
      </trkpt>
      <trkpt lat="48.23241" lon="3.24564">
        <ele>97</ele>
        <time>2014-04-20T09:04:22.979Z</time>
      </trkpt>
      <trkpt lat="48.23231" lon="3.24552">
        <ele>97</ele>
        <time>2014-04-20T09:04:23.979Z</time>
      </trkpt>
      <trkpt lat="48.23222" lon="3.24539">
        <ele>97</ele>
        <time>2014-04-20T09:04:24.979Z</time>
      </trkpt>
      <trkpt lat="48.23213" lon="3.24528">
        <ele>97</ele>
        <time>2014-04-20T09:04:25.979Z</time>
      </trkpt>
      <trkpt lat="48.23203" lon="3.24517">
        <ele>96</ele>
        <time>2014-04-20T09:04:26.979Z</time>
      </trkpt>
      <trkpt lat="48.23193" lon="3.24507">
        <ele>96</ele>
        <time>2014-04-20T09:04:27.979Z</time>
      </trkpt>
      <trkpt lat="48.23185" lon="3.24498">
        <ele>96</ele>
        <time>2014-04-20T09:04:28.979Z</time>
      </trkpt>
      <trkpt lat="48.23176" lon="3.24487">
        <ele>95</ele>
        <time>2014-04-20T09:04:29.979Z</time>
      </trkpt>
      <trkpt lat="48.23169" lon="3.24481">
        <ele>96</ele>
        <time>2014-04-20T09:04:30.979Z</time>
      </trkpt>
      <trkpt lat="48.23162" lon="3.24474">
        <ele>95</ele>
        <time>2014-04-20T09:04:31.979Z</time>
      </trkpt>
      <trkpt lat="48.23155" lon="3.24468">
        <ele>95</ele>
        <time>2014-04-20T09:04:32.979Z</time>
      </trkpt>
      <trkpt lat="48.23149" lon="3.24464">
        <ele>95</ele>
        <time>2014-04-20T09:04:33.979Z</time>
      </trkpt>
      <trkpt lat="48.23144" lon="3.24459">
        <ele>96</ele>
        <time>2014-04-20T09:04:34.979Z</time>
      </trkpt>
      <trkpt lat="48.2314" lon="3.24455">
        <ele>96</ele>
        <time>2014-04-20T09:04:35.979Z</time>
      </trkpt>
      <trkpt lat="48.23135" lon="3.24453">
        <ele>96</ele>
        <time>2014-04-20T09:04:36.979Z</time>
      </trkpt>
      <trkpt lat="48.23132" lon="3.24449">
        <ele>96</ele>
        <time>2014-04-20T09:04:37.979Z</time>
      </trkpt>
      <trkpt lat="48.2313" lon="3.24446">
        <ele>96</ele>
        <time>2014-04-20T09:04:40.979Z</time>
      </trkpt>
      <trkpt lat="48.23121" lon="3.24444">
        <ele>96</ele>
        <time>2014-04-20T09:04:41.979Z</time>
      </trkpt>
      <trkpt lat="48.23121" lon="3.24444">
        <ele>96</ele>
        <time>2014-04-20T09:04:43.979Z</time>
      </trkpt>
      <trkpt lat="48.23117" lon="3.24446">
        <ele>96</ele>
        <time>2014-04-20T09:04:44.979Z</time>
      </trkpt>
      <trkpt lat="48.23119" lon="3.24451">
        <ele>96</ele>
        <time>2014-04-20T09:04:47.979Z</time>
      </trkpt>
      <trkpt lat="48.23121" lon="3.24453">
        <ele>96</ele>
        <time>2014-04-20T09:04:48.979Z</time>
      </trkpt>
      <trkpt lat="48.23125" lon="3.24455">
        <ele>96</ele>
        <time>2014-04-20T09:04:52.979Z</time>
      </trkpt>
      <trkpt lat="48.23129" lon="3.24459">
        <ele>96</ele>
        <time>2014-04-20T09:04:53.979Z</time>
      </trkpt>
      <trkpt lat="48.23131" lon="3.24461">
        <ele>96</ele>
        <time>2014-04-20T09:04:54.979Z</time>
      </trkpt>
      <trkpt lat="48.23134" lon="3.24461">
        <ele>96</ele>
        <time>2014-04-20T09:04:55.979Z</time>
      </trkpt>
      <trkpt lat="48.23138" lon="3.24464">
        <ele>96</ele>
        <time>2014-04-20T09:04:56.979Z</time>
      </trkpt>
      <trkpt lat="48.23141" lon="3.24466">
        <ele>96</ele>
        <time>2014-04-20T09:04:57.979Z</time>
      </trkpt>
      <trkpt lat="48.23144" lon="3.24468">
        <ele>95</ele>
        <time>2014-04-20T09:04:58.979Z</time>
      </trkpt>
      <trkpt lat="48.23148" lon="3.24472">
        <ele>95</ele>
        <time>2014-04-20T09:04:59.979Z</time>
      </trkpt>
      <trkpt lat="48.23151" lon="3.24474">
        <ele>95</ele>
        <time>2014-04-20T09:05:00.979Z</time>
      </trkpt>
      <trkpt lat="48.23156" lon="3.24479">
        <ele>95</ele>
        <time>2014-04-20T09:05:01.979Z</time>
      </trkpt>
      <trkpt lat="48.2316" lon="3.24483">
        <ele>95</ele>
        <time>2014-04-20T09:05:02.979Z</time>
      </trkpt>
      <trkpt lat="48.23163" lon="3.24487">
        <ele>94</ele>
        <time>2014-04-20T09:05:03.979Z</time>
      </trkpt>
      <trkpt lat="48.23166" lon="3.24494">
        <ele>94</ele>
        <time>2014-04-20T09:05:04.979Z</time>
      </trkpt>
      <trkpt lat="48.2317" lon="3.24498">
        <ele>94</ele>
        <time>2014-04-20T09:05:05.979Z</time>
      </trkpt>
      <trkpt lat="48.23172" lon="3.24504">
        <ele>94</ele>
        <time>2014-04-20T09:05:06.979Z</time>
      </trkpt>
      <trkpt lat="48.23172" lon="3.24513">
        <ele>94</ele>
        <time>2014-04-20T09:05:07.979Z</time>
      </trkpt>
      <trkpt lat="48.23171" lon="3.24519">
        <ele>95</ele>
        <time>2014-04-20T09:05:08.979Z</time>
      </trkpt>
      <trkpt lat="48.2317" lon="3.24526">
        <ele>95</ele>
        <time>2014-04-20T09:05:09.979Z</time>
      </trkpt>
      <trkpt lat="48.23169" lon="3.24532">
        <ele>95</ele>
        <time>2014-04-20T09:05:10.979Z</time>
      </trkpt>
      <trkpt lat="48.23165" lon="3.24537">
        <ele>93</ele>
        <time>2014-04-20T09:05:11.979Z</time>
      </trkpt>
      <trkpt lat="48.23163" lon="3.24543">
        <ele>93</ele>
        <time>2014-04-20T09:05:12.979Z</time>
      </trkpt>
      <trkpt lat="48.2316" lon="3.24549">
        <ele>93</ele>
        <time>2014-04-20T09:05:13.979Z</time>
      </trkpt>
      <trkpt lat="48.23158" lon="3.24556">
        <ele>93</ele>
        <time>2014-04-20T09:05:14.979Z</time>
      </trkpt>
      <trkpt lat="48.23156" lon="3.24562">
        <ele>93</ele>
        <time>2014-04-20T09:05:15.979Z</time>
      </trkpt>
      <trkpt lat="48.23154" lon="3.24567">
        <ele>93</ele>
        <time>2014-04-20T09:05:16.979Z</time>
      </trkpt>
      <trkpt lat="48.2315" lon="3.24573">
        <ele>93</ele>
        <time>2014-04-20T09:05:17.979Z</time>
      </trkpt>
      <trkpt lat="48.23146" lon="3.24577">
        <ele>93</ele>
        <time>2014-04-20T09:05:18.979Z</time>
      </trkpt>
      <trkpt lat="48.23143" lon="3.24584">
        <ele>92</ele>
        <time>2014-04-20T09:05:19.979Z</time>
      </trkpt>
      <trkpt lat="48.2314" lon="3.2459">
        <ele>92</ele>
        <time>2014-04-20T09:05:20.979Z</time>
      </trkpt>
      <trkpt lat="48.23136" lon="3.24594">
        <ele>92</ele>
        <time>2014-04-20T09:05:21.979Z</time>
      </trkpt>
      <trkpt lat="48.23132" lon="3.24601">
        <ele>92</ele>
        <time>2014-04-20T09:05:22.979Z</time>
      </trkpt>
      <trkpt lat="48.23129" lon="3.24607">
        <ele>92</ele>
        <time>2014-04-20T09:05:23.979Z</time>
      </trkpt>
      <trkpt lat="48.23126" lon="3.24612">
        <ele>92</ele>
        <time>2014-04-20T09:05:24.979Z</time>
      </trkpt>
      <trkpt lat="48.23124" lon="3.24618">
        <ele>92</ele>
        <time>2014-04-20T09:05:25.979Z</time>
      </trkpt>
      <trkpt lat="48.2312" lon="3.24622">
        <ele>92</ele>
        <time>2014-04-20T09:05:26.979Z</time>
      </trkpt>
      <trkpt lat="48.23117" lon="3.24627">
        <ele>92</ele>
        <time>2014-04-20T09:05:27.979Z</time>
      </trkpt>
      <trkpt lat="48.23115" lon="3.24633">
        <ele>91</ele>
        <time>2014-04-20T09:05:28.979Z</time>
      </trkpt>
      <trkpt lat="48.23113" lon="3.24637">
        <ele>91</ele>
        <time>2014-04-20T09:05:29.979Z</time>
      </trkpt>
      <trkpt lat="48.2311" lon="3.24642">
        <ele>91</ele>
        <time>2014-04-20T09:05:30.979Z</time>
      </trkpt>
      <trkpt lat="48.23106" lon="3.24646">
        <ele>91</ele>
        <time>2014-04-20T09:05:31.979Z</time>
      </trkpt>
      <trkpt lat="48.23103" lon="3.2465">
        <ele>91</ele>
        <time>2014-04-20T09:05:32.979Z</time>
      </trkpt>
      <trkpt lat="48.231" lon="3.24655">
        <ele>91</ele>
        <time>2014-04-20T09:05:33.979Z</time>
      </trkpt>
      <trkpt lat="48.23097" lon="3.24657">
        <ele>90</ele>
        <time>2014-04-20T09:05:34.979Z</time>
      </trkpt>
      <trkpt lat="48.23094" lon="3.24661">
        <ele>90</ele>
        <time>2014-04-20T09:05:35.979Z</time>
      </trkpt>
      <trkpt lat="48.23089" lon="3.24663">
        <ele>90</ele>
        <time>2014-04-20T09:05:36.979Z</time>
      </trkpt>
      <trkpt lat="48.23085" lon="3.24667">
        <ele>89</ele>
        <time>2014-04-20T09:05:37.979Z</time>
      </trkpt>
      <trkpt lat="48.2308" lon="3.24672">
        <ele>88</ele>
        <time>2014-04-20T09:05:38.979Z</time>
      </trkpt>
      <trkpt lat="48.23075" lon="3.24676">
        <ele>88</ele>
        <time>2014-04-20T09:05:39.979Z</time>
      </trkpt>
      <trkpt lat="48.2307" lon="3.24678">
        <ele>87</ele>
        <time>2014-04-20T09:05:40.979Z</time>
      </trkpt>
      <trkpt lat="48.23065" lon="3.24682">
        <ele>87</ele>
        <time>2014-04-20T09:05:41.979Z</time>
      </trkpt>
      <trkpt lat="48.23059" lon="3.24687">
        <ele>87</ele>
        <time>2014-04-20T09:05:42.979Z</time>
      </trkpt>
      <trkpt lat="48.23054" lon="3.24691">
        <ele>86</ele>
        <time>2014-04-20T09:05:43.979Z</time>
      </trkpt>
      <trkpt lat="48.23048" lon="3.24695">
        <ele>86</ele>
        <time>2014-04-20T09:05:44.979Z</time>
      </trkpt>
      <trkpt lat="48.23042" lon="3.24702">
        <ele>86</ele>
        <time>2014-04-20T09:05:45.979Z</time>
      </trkpt>
      <trkpt lat="48.23037" lon="3.24706">
        <ele>86</ele>
        <time>2014-04-20T09:05:46.979Z</time>
      </trkpt>
      <trkpt lat="48.23031" lon="3.2471">
        <ele>86</ele>
        <time>2014-04-20T09:05:47.979Z</time>
      </trkpt>
      <trkpt lat="48.23025" lon="3.24715">
        <ele>85</ele>
        <time>2014-04-20T09:05:48.979Z</time>
      </trkpt>
      <trkpt lat="48.2302" lon="3.24719">
        <ele>85</ele>
        <time>2014-04-20T09:05:49.979Z</time>
      </trkpt>
      <trkpt lat="48.23014" lon="3.24723">
        <ele>85</ele>
        <time>2014-04-20T09:05:50.979Z</time>
      </trkpt>
      <trkpt lat="48.23009" lon="3.24728">
        <ele>85</ele>
        <time>2014-04-20T09:05:51.979Z</time>
      </trkpt>
      <trkpt lat="48.23003" lon="3.24732">
        <ele>85</ele>
        <time>2014-04-20T09:05:52.979Z</time>
      </trkpt>
      <trkpt lat="48.22999" lon="3.24736">
        <ele>83</ele>
        <time>2014-04-20T09:05:53.979Z</time>
      </trkpt>
      <trkpt lat="48.22994" lon="3.2474">
        <ele>84</ele>
        <time>2014-04-20T09:05:54.979Z</time>
      </trkpt>
      <trkpt lat="48.22988" lon="3.24747">
        <ele>83</ele>
        <time>2014-04-20T09:05:55.979Z</time>
      </trkpt>
      <trkpt lat="48.22984" lon="3.24751">
        <ele>83</ele>
        <time>2014-04-20T09:05:56.979Z</time>
      </trkpt>
      <trkpt lat="48.22982" lon="3.24758">
        <ele>83</ele>
        <time>2014-04-20T09:05:57.979Z</time>
      </trkpt>
      <trkpt lat="48.22981" lon="3.24766">
        <ele>83</ele>
        <time>2014-04-20T09:05:58.979Z</time>
      </trkpt>
      <trkpt lat="48.22982" lon="3.24773">
        <ele>83</ele>
        <time>2014-04-20T09:05:59.979Z</time>
      </trkpt>
      <trkpt lat="48.22983" lon="3.24779">
        <ele>82</ele>
        <time>2014-04-20T09:06:00.979Z</time>
      </trkpt>
      <trkpt lat="48.22985" lon="3.24785">
        <ele>82</ele>
        <time>2014-04-20T09:06:01.979Z</time>
      </trkpt>
      <trkpt lat="48.22987" lon="3.24792">
        <ele>82</ele>
        <time>2014-04-20T09:06:02.979Z</time>
      </trkpt>
      <trkpt lat="48.22989" lon="3.24798">
        <ele>82</ele>
        <time>2014-04-20T09:06:03.979Z</time>
      </trkpt>
      <trkpt lat="48.22992" lon="3.24805">
        <ele>82</ele>
        <time>2014-04-20T09:06:04.979Z</time>
      </trkpt>
      <trkpt lat="48.22994" lon="3.24811">
        <ele>82</ele>
        <time>2014-04-20T09:06:05.979Z</time>
      </trkpt>
      <trkpt lat="48.22997" lon="3.24816">
        <ele>82</ele>
        <time>2014-04-20T09:06:06.979Z</time>
      </trkpt>
      <trkpt lat="48.22999" lon="3.24822">
        <ele>82</ele>
        <time>2014-04-20T09:06:07.979Z</time>
      </trkpt>
      <trkpt lat="48.23001" lon="3.24828">
        <ele>82</ele>
        <time>2014-04-20T09:06:08.979Z</time>
      </trkpt>
      <trkpt lat="48.23004" lon="3.24835">
        <ele>82</ele>
        <time>2014-04-20T09:06:09.979Z</time>
      </trkpt>
      <trkpt lat="48.23007" lon="3.24839">
        <ele>82</ele>
        <time>2014-04-20T09:06:10.979Z</time>
      </trkpt>
      <trkpt lat="48.2301" lon="3.24846">
        <ele>81</ele>
        <time>2014-04-20T09:06:11.979Z</time>
      </trkpt>
      <trkpt lat="48.23012" lon="3.24852">
        <ele>81</ele>
        <time>2014-04-20T09:06:12.979Z</time>
      </trkpt>
      <trkpt lat="48.23015" lon="3.24856">
        <ele>81</ele>
        <time>2014-04-20T09:06:13.979Z</time>
      </trkpt>
      <trkpt lat="48.23018" lon="3.24863">
        <ele>81</ele>
        <time>2014-04-20T09:06:14.979Z</time>
      </trkpt>
      <trkpt lat="48.23022" lon="3.24867">
        <ele>81</ele>
        <time>2014-04-20T09:06:15.979Z</time>
      </trkpt>
      <trkpt lat="48.23025" lon="3.24873">
        <ele>81</ele>
        <time>2014-04-20T09:06:16.979Z</time>
      </trkpt>
      <trkpt lat="48.23028" lon="3.24878">
        <ele>81</ele>
        <time>2014-04-20T09:06:17.979Z</time>
      </trkpt>
      <trkpt lat="48.23031" lon="3.24882">
        <ele>81</ele>
        <time>2014-04-20T09:06:18.979Z</time>
      </trkpt>
      <trkpt lat="48.23032" lon="3.24888">
        <ele>80</ele>
        <time>2014-04-20T09:06:19.979Z</time>
      </trkpt>
      <trkpt lat="48.23031" lon="3.24893">
        <ele>80</ele>
        <time>2014-04-20T09:06:20.979Z</time>
      </trkpt>
      <trkpt lat="48.23029" lon="3.24897">
        <ele>80</ele>
        <time>2014-04-20T09:06:21.979Z</time>
      </trkpt>
      <trkpt lat="48.23026" lon="3.24901">
        <ele>80</ele>
        <time>2014-04-20T09:06:22.979Z</time>
      </trkpt>
      <trkpt lat="48.23024" lon="3.24906">
        <ele>80</ele>
        <time>2014-04-20T09:06:23.979Z</time>
      </trkpt>
      <trkpt lat="48.23021" lon="3.24912">
        <ele>80</ele>
        <time>2014-04-20T09:06:24.979Z</time>
      </trkpt>
      <trkpt lat="48.23016" lon="3.24919">
        <ele>79</ele>
        <time>2014-04-20T09:06:25.979Z</time>
      </trkpt>
      <trkpt lat="48.23012" lon="3.24923">
        <ele>79</ele>
        <time>2014-04-20T09:06:26.979Z</time>
      </trkpt>
      <trkpt lat="48.23009" lon="3.24929">
        <ele>79</ele>
        <time>2014-04-20T09:06:27.979Z</time>
      </trkpt>
      <trkpt lat="48.23004" lon="3.24934">
        <ele>79</ele>
        <time>2014-04-20T09:06:28.979Z</time>
      </trkpt>
      <trkpt lat="48.23001" lon="3.2494">
        <ele>79</ele>
        <time>2014-04-20T09:06:29.979Z</time>
      </trkpt>
      <trkpt lat="48.22997" lon="3.24944">
        <ele>78</ele>
        <time>2014-04-20T09:06:30.979Z</time>
      </trkpt>
      <trkpt lat="48.22993" lon="3.24949">
        <ele>78</ele>
        <time>2014-04-20T09:06:31.979Z</time>
      </trkpt>
      <trkpt lat="48.22988" lon="3.24955">
        <ele>78</ele>
        <time>2014-04-20T09:06:32.979Z</time>
      </trkpt>
      <trkpt lat="48.22984" lon="3.24959">
        <ele>78</ele>
        <time>2014-04-20T09:06:33.979Z</time>
      </trkpt>
      <trkpt lat="48.2298" lon="3.24964">
        <ele>78</ele>
        <time>2014-04-20T09:06:34.979Z</time>
      </trkpt>
      <trkpt lat="48.22976" lon="3.24968">
        <ele>78</ele>
        <time>2014-04-20T09:06:35.979Z</time>
      </trkpt>
      <trkpt lat="48.22971" lon="3.24974">
        <ele>78</ele>
        <time>2014-04-20T09:06:36.979Z</time>
      </trkpt>
      <trkpt lat="48.22967" lon="3.24979">
        <ele>78</ele>
        <time>2014-04-20T09:06:37.979Z</time>
      </trkpt>
      <trkpt lat="48.22962" lon="3.24983">
        <ele>78</ele>
        <time>2014-04-20T09:06:38.979Z</time>
      </trkpt>
      <trkpt lat="48.22957" lon="3.24987">
        <ele>78</ele>
        <time>2014-04-20T09:06:39.979Z</time>
      </trkpt>
      <trkpt lat="48.22953" lon="3.24991">
        <ele>78</ele>
        <time>2014-04-20T09:06:40.979Z</time>
      </trkpt>
      <trkpt lat="48.22948" lon="3.24996">
        <ele>78</ele>
        <time>2014-04-20T09:06:41.979Z</time>
      </trkpt>
      <trkpt lat="48.22943" lon="3.25">
        <ele>77</ele>
        <time>2014-04-20T09:06:42.979Z</time>
      </trkpt>
      <trkpt lat="48.22938" lon="3.25004">
        <ele>77</ele>
        <time>2014-04-20T09:06:43.979Z</time>
      </trkpt>
      <trkpt lat="48.22934" lon="3.25009">
        <ele>77</ele>
        <time>2014-04-20T09:06:44.979Z</time>
      </trkpt>
      <trkpt lat="48.22929" lon="3.25011">
        <ele>77</ele>
        <time>2014-04-20T09:06:45.979Z</time>
      </trkpt>
      <trkpt lat="48.22924" lon="3.25015">
        <ele>77</ele>
        <time>2014-04-20T09:06:46.979Z</time>
      </trkpt>
      <trkpt lat="48.2292" lon="3.25019">
        <ele>77</ele>
        <time>2014-04-20T09:06:47.979Z</time>
      </trkpt>
      <trkpt lat="48.22915" lon="3.25024">
        <ele>76</ele>
        <time>2014-04-20T09:06:48.979Z</time>
      </trkpt>
      <trkpt lat="48.22911" lon="3.25028">
        <ele>76</ele>
        <time>2014-04-20T09:06:49.979Z</time>
      </trkpt>
      <trkpt lat="48.22907" lon="3.25032">
        <ele>76</ele>
        <time>2014-04-20T09:06:50.979Z</time>
      </trkpt>
      <trkpt lat="48.22903" lon="3.25034">
        <ele>76</ele>
        <time>2014-04-20T09:06:51.979Z</time>
      </trkpt>
      <trkpt lat="48.22898" lon="3.25039">
        <ele>76</ele>
        <time>2014-04-20T09:06:52.979Z</time>
      </trkpt>
      <trkpt lat="48.22893" lon="3.25043">
        <ele>76</ele>
        <time>2014-04-20T09:06:53.979Z</time>
      </trkpt>
      <trkpt lat="48.22889" lon="3.25047">
        <ele>76</ele>
        <time>2014-04-20T09:06:54.979Z</time>
      </trkpt>
      <trkpt lat="48.22884" lon="3.25052">
        <ele>76</ele>
        <time>2014-04-20T09:06:55.979Z</time>
      </trkpt>
      <trkpt lat="48.22881" lon="3.25056">
        <ele>76</ele>
        <time>2014-04-20T09:06:56.979Z</time>
      </trkpt>
      <trkpt lat="48.22877" lon="3.2506">
        <ele>76</ele>
        <time>2014-04-20T09:06:57.979Z</time>
      </trkpt>
      <trkpt lat="48.22873" lon="3.25064">
        <ele>76</ele>
        <time>2014-04-20T09:06:58.979Z</time>
      </trkpt>
      <trkpt lat="48.22868" lon="3.25069">
        <ele>75</ele>
        <time>2014-04-20T09:06:59.979Z</time>
      </trkpt>
      <trkpt lat="48.22864" lon="3.25073">
        <ele>75</ele>
        <time>2014-04-20T09:07:00.979Z</time>
      </trkpt>
      <trkpt lat="48.22861" lon="3.25077">
        <ele>75</ele>
        <time>2014-04-20T09:07:01.979Z</time>
      </trkpt>
      <trkpt lat="48.22856" lon="3.25082">
        <ele>75</ele>
        <time>2014-04-20T09:07:02.979Z</time>
      </trkpt>
      <trkpt lat="48.22853" lon="3.25086">
        <ele>74</ele>
        <time>2014-04-20T09:07:03.979Z</time>
      </trkpt>
      <trkpt lat="48.22849" lon="3.2509">
        <ele>74</ele>
        <time>2014-04-20T09:07:04.979Z</time>
      </trkpt>
      <trkpt lat="48.22845" lon="3.25097">
        <ele>74</ele>
        <time>2014-04-20T09:07:05.979Z</time>
      </trkpt>
      <trkpt lat="48.22841" lon="3.25101">
        <ele>74</ele>
        <time>2014-04-20T09:07:06.979Z</time>
      </trkpt>
      <trkpt lat="48.22837" lon="3.25105">
        <ele>74</ele>
        <time>2014-04-20T09:07:07.979Z</time>
      </trkpt>
      <trkpt lat="48.22836" lon="3.25112">
        <ele>74</ele>
        <time>2014-04-20T09:07:08.979Z</time>
      </trkpt>
      <trkpt lat="48.22836" lon="3.25116">
        <ele>74</ele>
        <time>2014-04-20T09:07:09.979Z</time>
      </trkpt>
      <trkpt lat="48.22837" lon="3.2512">
        <ele>74</ele>
        <time>2014-04-20T09:07:10.979Z</time>
      </trkpt>
      <trkpt lat="48.22838" lon="3.25125">
        <ele>74</ele>
        <time>2014-04-20T09:07:11.979Z</time>
      </trkpt>
      <trkpt lat="48.2284" lon="3.25129">
        <ele>74</ele>
        <time>2014-04-20T09:07:12.979Z</time>
      </trkpt>
      <trkpt lat="48.22841" lon="3.25131">
        <ele>74</ele>
        <time>2014-04-20T09:07:13.979Z</time>
      </trkpt>
      <trkpt lat="48.22842" lon="3.25137">
        <ele>74</ele>
        <time>2014-04-20T09:10:11.979Z</time>
      </trkpt>
      <trkpt lat="48.22842" lon="3.2514">
        <ele>74</ele>
        <time>2014-04-20T09:10:12.979Z</time>
      </trkpt>
      <trkpt lat="48.22846" lon="3.25144">
        <ele>74</ele>
        <time>2014-04-20T09:10:38.979Z</time>
      </trkpt>
      <trkpt lat="48.22846" lon="3.25146">
        <ele>74</ele>
        <time>2014-04-20T09:10:39.979Z</time>
      </trkpt>
      <trkpt lat="48.22848" lon="3.2515">
        <ele>74</ele>
        <time>2014-04-20T09:11:13.979Z</time>
      </trkpt>
      <trkpt lat="48.22848" lon="3.25152">
        <ele>74</ele>
        <time>2014-04-20T09:11:14.979Z</time>
      </trkpt>
      <trkpt lat="48.22844" lon="3.2515">
        <ele>74</ele>
        <time>2014-04-20T09:12:11.979Z</time>
      </trkpt>
      <trkpt lat="48.22842" lon="3.2515">
        <ele>74</ele>
        <time>2014-04-20T09:12:12.979Z</time>
      </trkpt>
      <trkpt lat="48.22844" lon="3.25157">
        <ele>74</ele>
        <time>2014-04-20T09:12:15.979Z</time>
      </trkpt>
      <trkpt lat="48.22844" lon="3.25159">
        <ele>74</ele>
        <time>2014-04-20T09:12:16.979Z</time>
      </trkpt>
      <trkpt lat="48.22845" lon="3.25163">
        <ele>74</ele>
        <time>2014-04-20T09:12:18.979Z</time>
      </trkpt>
      <trkpt lat="48.22846" lon="3.25167">
        <ele>73</ele>
        <time>2014-04-20T09:12:19.979Z</time>
      </trkpt>
      <trkpt lat="48.22847" lon="3.25174">
        <ele>73</ele>
        <time>2014-04-20T09:12:21.979Z</time>
      </trkpt>
      <trkpt lat="48.22848" lon="3.25178">
        <ele>74</ele>
        <time>2014-04-20T09:12:22.979Z</time>
      </trkpt>
      <trkpt lat="48.22849" lon="3.25182">
        <ele>74</ele>
        <time>2014-04-20T09:12:23.979Z</time>
      </trkpt>
      <trkpt lat="48.2285" lon="3.25185">
        <ele>74</ele>
        <time>2014-04-20T09:12:24.979Z</time>
      </trkpt>
      <trkpt lat="48.22851" lon="3.25189">
        <ele>74</ele>
        <time>2014-04-20T09:12:25.979Z</time>
      </trkpt>
      <trkpt lat="48.22852" lon="3.25193">
        <ele>74</ele>
        <time>2014-04-20T09:12:26.979Z</time>
      </trkpt>
      <trkpt lat="48.22853" lon="3.252">
        <ele>74</ele>
        <time>2014-04-20T09:12:28.979Z</time>
      </trkpt>
      <trkpt lat="48.22854" lon="3.25204">
        <ele>74</ele>
        <time>2014-04-20T09:12:29.979Z</time>
      </trkpt>
      <trkpt lat="48.22855" lon="3.25206">
        <ele>74</ele>
        <time>2014-04-20T09:12:30.979Z</time>
      </trkpt>
      <trkpt lat="48.22855" lon="3.2521">
        <ele>74</ele>
        <time>2014-04-20T09:12:31.979Z</time>
      </trkpt>
      <trkpt lat="48.22856" lon="3.25215">
        <ele>74</ele>
        <time>2014-04-20T09:12:32.979Z</time>
      </trkpt>
      <trkpt lat="48.22857" lon="3.25219">
        <ele>74</ele>
        <time>2014-04-20T09:12:33.979Z</time>
      </trkpt>
      <trkpt lat="48.22859" lon="3.25223">
        <ele>74</ele>
        <time>2014-04-20T09:12:34.979Z</time>
      </trkpt>
      <trkpt lat="48.22861" lon="3.2523">
        <ele>74</ele>
        <time>2014-04-20T09:12:35.979Z</time>
      </trkpt>
      <trkpt lat="48.22862" lon="3.25234">
        <ele>74</ele>
        <time>2014-04-20T09:12:36.979Z</time>
      </trkpt>
      <trkpt lat="48.22863" lon="3.25238">
        <ele>74</ele>
        <time>2014-04-20T09:12:37.979Z</time>
      </trkpt>
      <trkpt lat="48.22864" lon="3.25245">
        <ele>74</ele>
        <time>2014-04-20T09:12:38.979Z</time>
      </trkpt>
      <trkpt lat="48.22866" lon="3.25249">
        <ele>74</ele>
        <time>2014-04-20T09:12:39.979Z</time>
      </trkpt>
      <trkpt lat="48.22867" lon="3.25255">
        <ele>73</ele>
        <time>2014-04-20T09:12:40.979Z</time>
      </trkpt>
      <trkpt lat="48.22868" lon="3.2526">
        <ele>73</ele>
        <time>2014-04-20T09:12:41.979Z</time>
      </trkpt>
      <trkpt lat="48.22869" lon="3.25264">
        <ele>73</ele>
        <time>2014-04-20T09:12:42.979Z</time>
      </trkpt>
      <trkpt lat="48.2287" lon="3.2527">
        <ele>73</ele>
        <time>2014-04-20T09:12:43.979Z</time>
      </trkpt>
      <trkpt lat="48.22873" lon="3.25277">
        <ele>73</ele>
        <time>2014-04-20T09:12:44.979Z</time>
      </trkpt>
      <trkpt lat="48.22874" lon="3.25281">
        <ele>73</ele>
        <time>2014-04-20T09:12:45.979Z</time>
      </trkpt>
      <trkpt lat="48.22875" lon="3.25288">
        <ele>73</ele>
        <time>2014-04-20T09:12:46.979Z</time>
      </trkpt>
      <trkpt lat="48.22877" lon="3.25292">
        <ele>73</ele>
        <time>2014-04-20T09:12:47.979Z</time>
      </trkpt>
      <trkpt lat="48.22878" lon="3.25298">
        <ele>73</ele>
        <time>2014-04-20T09:12:48.979Z</time>
      </trkpt>
      <trkpt lat="48.2288" lon="3.25305">
        <ele>73</ele>
        <time>2014-04-20T09:12:49.979Z</time>
      </trkpt>
      <trkpt lat="48.22881" lon="3.25311">
        <ele>73</ele>
        <time>2014-04-20T09:12:50.979Z</time>
      </trkpt>
      <trkpt lat="48.22882" lon="3.25315">
        <ele>73</ele>
        <time>2014-04-20T09:12:51.979Z</time>
      </trkpt>
      <trkpt lat="48.22884" lon="3.25322">
        <ele>73</ele>
        <time>2014-04-20T09:12:52.979Z</time>
      </trkpt>
      <trkpt lat="48.22885" lon="3.25328">
        <ele>73</ele>
        <time>2014-04-20T09:12:53.979Z</time>
      </trkpt>
      <trkpt lat="48.22888" lon="3.25335">
        <ele>72</ele>
        <time>2014-04-20T09:12:54.979Z</time>
      </trkpt>
      <trkpt lat="48.2289" lon="3.25341">
        <ele>72</ele>
        <time>2014-04-20T09:12:55.979Z</time>
      </trkpt>
      <trkpt lat="48.22891" lon="3.25346">
        <ele>72</ele>
        <time>2014-04-20T09:12:56.979Z</time>
      </trkpt>
      <trkpt lat="48.22893" lon="3.25352">
        <ele>72</ele>
        <time>2014-04-20T09:12:57.979Z</time>
      </trkpt>
      <trkpt lat="48.22895" lon="3.25358">
        <ele>72</ele>
        <time>2014-04-20T09:12:58.979Z</time>
      </trkpt>
      <trkpt lat="48.22896" lon="3.25365">
        <ele>72</ele>
        <time>2014-04-20T09:12:59.979Z</time>
      </trkpt>
      <trkpt lat="48.22898" lon="3.25369">
        <ele>72</ele>
        <time>2014-04-20T09:13:00.979Z</time>
      </trkpt>
      <trkpt lat="48.229" lon="3.25376">
        <ele>72</ele>
        <time>2014-04-20T09:13:01.979Z</time>
      </trkpt>
      <trkpt lat="48.22901" lon="3.2538">
        <ele>72</ele>
        <time>2014-04-20T09:13:02.979Z</time>
      </trkpt>
      <trkpt lat="48.22904" lon="3.25384">
        <ele>72</ele>
        <time>2014-04-20T09:13:03.979Z</time>
      </trkpt>
      <trkpt lat="48.22905" lon="3.25391">
        <ele>72</ele>
        <time>2014-04-20T09:13:04.979Z</time>
      </trkpt>
      <trkpt lat="48.22907" lon="3.25395">
        <ele>72</ele>
        <time>2014-04-20T09:13:05.979Z</time>
      </trkpt>
      <trkpt lat="48.22908" lon="3.25399">
        <ele>72</ele>
        <time>2014-04-20T09:13:06.979Z</time>
      </trkpt>
      <trkpt lat="48.22909" lon="3.25406">
        <ele>72</ele>
        <time>2014-04-20T09:13:07.979Z</time>
      </trkpt>
      <trkpt lat="48.22909" lon="3.2541">
        <ele>72</ele>
        <time>2014-04-20T09:13:08.979Z</time>
      </trkpt>
      <trkpt lat="48.2291" lon="3.25416">
        <ele>73</ele>
        <time>2014-04-20T09:13:09.979Z</time>
      </trkpt>
      <trkpt lat="48.2291" lon="3.25421">
        <ele>72</ele>
        <time>2014-04-20T09:13:10.979Z</time>
      </trkpt>
      <trkpt lat="48.22909" lon="3.25427">
        <ele>72</ele>
        <time>2014-04-20T09:13:11.979Z</time>
      </trkpt>
      <trkpt lat="48.22907" lon="3.25431">
        <ele>71</ele>
        <time>2014-04-20T09:13:12.979Z</time>
      </trkpt>
      <trkpt lat="48.22905" lon="3.25436">
        <ele>71</ele>
        <time>2014-04-20T09:13:13.979Z</time>
      </trkpt>
      <trkpt lat="48.22903" lon="3.2544">
        <ele>71</ele>
        <time>2014-04-20T09:13:14.979Z</time>
      </trkpt>
      <trkpt lat="48.22899" lon="3.25446">
        <ele>71</ele>
        <time>2014-04-20T09:13:15.979Z</time>
      </trkpt>
      <trkpt lat="48.22896" lon="3.25451">
        <ele>71</ele>
        <time>2014-04-20T09:13:16.979Z</time>
      </trkpt>
      <trkpt lat="48.22893" lon="3.25457">
        <ele>70</ele>
        <time>2014-04-20T09:13:17.979Z</time>
      </trkpt>
      <trkpt lat="48.22889" lon="3.25464">
        <ele>70</ele>
        <time>2014-04-20T09:13:18.979Z</time>
      </trkpt>
      <trkpt lat="48.22885" lon="3.2547">
        <ele>70</ele>
        <time>2014-04-20T09:13:19.979Z</time>
      </trkpt>
      <trkpt lat="48.2288" lon="3.25476">
        <ele>70</ele>
        <time>2014-04-20T09:13:20.979Z</time>
      </trkpt>
      <trkpt lat="48.22876" lon="3.25481">
        <ele>70</ele>
        <time>2014-04-20T09:13:21.979Z</time>
      </trkpt>
      <trkpt lat="48.22869" lon="3.25485">
        <ele>70</ele>
        <time>2014-04-20T09:13:22.979Z</time>
      </trkpt>
      <trkpt lat="48.22864" lon="3.25489">
        <ele>70</ele>
        <time>2014-04-20T09:13:23.979Z</time>
      </trkpt>
      <trkpt lat="48.22859" lon="3.25494">
        <ele>69</ele>
        <time>2014-04-20T09:13:24.979Z</time>
      </trkpt>
      <trkpt lat="48.22853" lon="3.255">
        <ele>69</ele>
        <time>2014-04-20T09:13:25.979Z</time>
      </trkpt>
      <trkpt lat="48.22848" lon="3.25504">
        <ele>69</ele>
        <time>2014-04-20T09:13:26.979Z</time>
      </trkpt>
      <trkpt lat="48.22842" lon="3.25509">
        <ele>69</ele>
        <time>2014-04-20T09:13:27.979Z</time>
      </trkpt>
      <trkpt lat="48.22836" lon="3.25513">
        <ele>69</ele>
        <time>2014-04-20T09:13:28.979Z</time>
      </trkpt>
      <trkpt lat="48.22831" lon="3.25517">
        <ele>68</ele>
        <time>2014-04-20T09:13:29.979Z</time>
      </trkpt>
      <trkpt lat="48.22825" lon="3.25519">
        <ele>68</ele>
        <time>2014-04-20T09:13:30.979Z</time>
      </trkpt>
      <trkpt lat="48.2282" lon="3.25521">
        <ele>68</ele>
        <time>2014-04-20T09:13:31.979Z</time>
      </trkpt>
      <trkpt lat="48.22815" lon="3.25524">
        <ele>68</ele>
        <time>2014-04-20T09:13:32.979Z</time>
      </trkpt>
      <trkpt lat="48.22809" lon="3.25526">
        <ele>68</ele>
        <time>2014-04-20T09:13:33.979Z</time>
      </trkpt>
      <trkpt lat="48.22805" lon="3.25528">
        <ele>68</ele>
        <time>2014-04-20T09:13:34.979Z</time>
      </trkpt>
      <trkpt lat="48.22801" lon="3.25528">
        <ele>68</ele>
        <time>2014-04-20T09:13:35.979Z</time>
      </trkpt>
      <trkpt lat="48.22795" lon="3.25528">
        <ele>68</ele>
        <time>2014-04-20T09:13:36.979Z</time>
      </trkpt>
      <trkpt lat="48.22791" lon="3.25528">
        <ele>68</ele>
        <time>2014-04-20T09:13:37.979Z</time>
      </trkpt>
      <trkpt lat="48.22787" lon="3.25528">
        <ele>68</ele>
        <time>2014-04-20T09:13:38.979Z</time>
      </trkpt>
      <trkpt lat="48.22782" lon="3.25528">
        <ele>68</ele>
        <time>2014-04-20T09:13:39.979Z</time>
      </trkpt>
      <trkpt lat="48.22778" lon="3.25528">
        <ele>68</ele>
        <time>2014-04-20T09:13:40.979Z</time>
      </trkpt>
      <trkpt lat="48.22773" lon="3.25526">
        <ele>68</ele>
        <time>2014-04-20T09:13:41.979Z</time>
      </trkpt>
      <trkpt lat="48.22768" lon="3.25526">
        <ele>68</ele>
        <time>2014-04-20T09:13:42.979Z</time>
      </trkpt>
      <trkpt lat="48.22763" lon="3.25526">
        <ele>68</ele>
        <time>2014-04-20T09:13:43.979Z</time>
      </trkpt>
      <trkpt lat="48.22759" lon="3.25524">
        <ele>68</ele>
        <time>2014-04-20T09:13:44.979Z</time>
      </trkpt>
      <trkpt lat="48.22753" lon="3.25524">
        <ele>68</ele>
        <time>2014-04-20T09:13:45.979Z</time>
      </trkpt>
      <trkpt lat="48.22748" lon="3.25524">
        <ele>68</ele>
        <time>2014-04-20T09:13:46.979Z</time>
      </trkpt>
      <trkpt lat="48.22744" lon="3.25524">
        <ele>68</ele>
        <time>2014-04-20T09:13:47.979Z</time>
      </trkpt>
      <trkpt lat="48.22738" lon="3.25524">
        <ele>68</ele>
        <time>2014-04-20T09:13:48.979Z</time>
      </trkpt>
      <trkpt lat="48.22733" lon="3.25524">
        <ele>68</ele>
        <time>2014-04-20T09:13:49.979Z</time>
      </trkpt>
      <trkpt lat="48.22728" lon="3.25524">
        <ele>68</ele>
        <time>2014-04-20T09:13:50.979Z</time>
      </trkpt>
      <trkpt lat="48.22723" lon="3.25524">
        <ele>68</ele>
        <time>2014-04-20T09:13:51.979Z</time>
      </trkpt>
      <trkpt lat="48.22718" lon="3.25524">
        <ele>68</ele>
        <time>2014-04-20T09:13:52.979Z</time>
      </trkpt>
      <trkpt lat="48.22713" lon="3.25524">
        <ele>68</ele>
        <time>2014-04-20T09:13:53.979Z</time>
      </trkpt>
      <trkpt lat="48.22707" lon="3.25524">
        <ele>69</ele>
        <time>2014-04-20T09:13:54.979Z</time>
      </trkpt>
      <trkpt lat="48.22702" lon="3.25524">
        <ele>69</ele>
        <time>2014-04-20T09:13:55.979Z</time>
      </trkpt>
      <trkpt lat="48.22698" lon="3.25524">
        <ele>69</ele>
        <time>2014-04-20T09:13:56.979Z</time>
      </trkpt>
      <trkpt lat="48.22692" lon="3.25524">
        <ele>69</ele>
        <time>2014-04-20T09:13:57.979Z</time>
      </trkpt>
      <trkpt lat="48.22688" lon="3.25524">
        <ele>69</ele>
        <time>2014-04-20T09:13:58.979Z</time>
      </trkpt>
      <trkpt lat="48.22683" lon="3.25526">
        <ele>69</ele>
        <time>2014-04-20T09:13:59.979Z</time>
      </trkpt>
      <trkpt lat="48.22679" lon="3.25526">
        <ele>69</ele>
        <time>2014-04-20T09:14:00.979Z</time>
      </trkpt>
      <trkpt lat="48.22675" lon="3.25526">
        <ele>69</ele>
        <time>2014-04-20T09:14:01.979Z</time>
      </trkpt>
      <trkpt lat="48.22671" lon="3.25528">
        <ele>69</ele>
        <time>2014-04-20T09:14:02.979Z</time>
      </trkpt>
      <trkpt lat="48.22668" lon="3.25528">
        <ele>69</ele>
        <time>2014-04-20T09:14:03.979Z</time>
      </trkpt>
      <trkpt lat="48.22663" lon="3.2553">
        <ele>70</ele>
        <time>2014-04-20T09:14:04.979Z</time>
      </trkpt>
      <trkpt lat="48.2266" lon="3.2553">
        <ele>70</ele>
        <time>2014-04-20T09:14:05.979Z</time>
      </trkpt>
      <trkpt lat="48.22656" lon="3.2553">
        <ele>70</ele>
        <time>2014-04-20T09:14:06.979Z</time>
      </trkpt>
      <trkpt lat="48.22653" lon="3.25532">
        <ele>70</ele>
        <time>2014-04-20T09:14:08.979Z</time>
      </trkpt>
      <trkpt lat="48.22648" lon="3.25534">
        <ele>70</ele>
        <time>2014-04-20T09:14:09.979Z</time>
      </trkpt>
      <trkpt lat="48.22646" lon="3.25536">
        <ele>70</ele>
        <time>2014-04-20T09:14:10.979Z</time>
      </trkpt>
      <trkpt lat="48.22644" lon="3.25539">
        <ele>70</ele>
        <time>2014-04-20T09:14:11.979Z</time>
      </trkpt>
      <trkpt lat="48.22644" lon="3.25543">
        <ele>70</ele>
        <time>2014-04-20T09:14:12.979Z</time>
      </trkpt>
      <trkpt lat="48.22644" lon="3.25547">
        <ele>70</ele>
        <time>2014-04-20T09:14:13.979Z</time>
      </trkpt>
      <trkpt lat="48.22644" lon="3.25552">
        <ele>70</ele>
        <time>2014-04-20T09:14:14.979Z</time>
      </trkpt>
      <trkpt lat="48.22644" lon="3.25558">
        <ele>70</ele>
        <time>2014-04-20T09:14:15.979Z</time>
      </trkpt>
      <trkpt lat="48.22644" lon="3.25564">
        <ele>70</ele>
        <time>2014-04-20T09:14:16.979Z</time>
      </trkpt>
      <trkpt lat="48.22645" lon="3.25569">
        <ele>70</ele>
        <time>2014-04-20T09:14:17.979Z</time>
      </trkpt>
      <trkpt lat="48.22645" lon="3.25575">
        <ele>70</ele>
        <time>2014-04-20T09:14:18.979Z</time>
      </trkpt>
      <trkpt lat="48.22645" lon="3.25582">
        <ele>70</ele>
        <time>2014-04-20T09:14:19.979Z</time>
      </trkpt>
      <trkpt lat="48.22645" lon="3.25588">
        <ele>70</ele>
        <time>2014-04-20T09:14:20.979Z</time>
      </trkpt>
      <trkpt lat="48.22646" lon="3.25594">
        <ele>70</ele>
        <time>2014-04-20T09:14:21.979Z</time>
      </trkpt>
      <trkpt lat="48.22646" lon="3.25603">
        <ele>71</ele>
        <time>2014-04-20T09:14:22.979Z</time>
      </trkpt>
      <trkpt lat="48.22647" lon="3.25609">
        <ele>71</ele>
        <time>2014-04-20T09:14:23.979Z</time>
      </trkpt>
      <trkpt lat="48.22647" lon="3.25616">
        <ele>71</ele>
        <time>2014-04-20T09:14:24.979Z</time>
      </trkpt>
      <trkpt lat="48.22648" lon="3.25622">
        <ele>71</ele>
        <time>2014-04-20T09:14:25.979Z</time>
      </trkpt>
      <trkpt lat="48.22649" lon="3.25629">
        <ele>71</ele>
        <time>2014-04-20T09:14:26.979Z</time>
      </trkpt>
      <trkpt lat="48.2265" lon="3.25637">
        <ele>71</ele>
        <time>2014-04-20T09:14:27.979Z</time>
      </trkpt>
      <trkpt lat="48.22652" lon="3.25644">
        <ele>71</ele>
        <time>2014-04-20T09:14:28.979Z</time>
      </trkpt>
      <trkpt lat="48.22653" lon="3.2565">
        <ele>71</ele>
        <time>2014-04-20T09:14:29.979Z</time>
      </trkpt>
      <trkpt lat="48.22654" lon="3.25659">
        <ele>71</ele>
        <time>2014-04-20T09:14:30.979Z</time>
      </trkpt>
      <trkpt lat="48.22655" lon="3.25665">
        <ele>70</ele>
        <time>2014-04-20T09:14:31.979Z</time>
      </trkpt>
      <trkpt lat="48.22656" lon="3.25672">
        <ele>71</ele>
        <time>2014-04-20T09:14:32.979Z</time>
      </trkpt>
      <trkpt lat="48.22658" lon="3.25678">
        <ele>71</ele>
        <time>2014-04-20T09:14:33.979Z</time>
      </trkpt>
      <trkpt lat="48.22659" lon="3.25687">
        <ele>71</ele>
        <time>2014-04-20T09:14:34.979Z</time>
      </trkpt>
      <trkpt lat="48.2266" lon="3.25693">
        <ele>71</ele>
        <time>2014-04-20T09:14:35.979Z</time>
      </trkpt>
      <trkpt lat="48.22661" lon="3.257">
        <ele>71</ele>
        <time>2014-04-20T09:14:36.979Z</time>
      </trkpt>
      <trkpt lat="48.22663" lon="3.25708">
        <ele>71</ele>
        <time>2014-04-20T09:14:37.979Z</time>
      </trkpt>
      <trkpt lat="48.22664" lon="3.25717">
        <ele>71</ele>
        <time>2014-04-20T09:14:38.979Z</time>
      </trkpt>
      <trkpt lat="48.22665" lon="3.25723">
        <ele>71</ele>
        <time>2014-04-20T09:14:39.979Z</time>
      </trkpt>
      <trkpt lat="48.22667" lon="3.25732">
        <ele>71</ele>
        <time>2014-04-20T09:14:40.979Z</time>
      </trkpt>
      <trkpt lat="48.22668" lon="3.25738">
        <ele>70</ele>
        <time>2014-04-20T09:14:41.979Z</time>
      </trkpt>
      <trkpt lat="48.22669" lon="3.25747">
        <ele>70</ele>
        <time>2014-04-20T09:14:42.979Z</time>
      </trkpt>
      <trkpt lat="48.22671" lon="3.25755">
        <ele>70</ele>
        <time>2014-04-20T09:14:43.979Z</time>
      </trkpt>
      <trkpt lat="48.22672" lon="3.25762">
        <ele>69</ele>
        <time>2014-04-20T09:14:44.979Z</time>
      </trkpt>
      <trkpt lat="48.22674" lon="3.2577">
        <ele>69</ele>
        <time>2014-04-20T09:14:45.979Z</time>
      </trkpt>
      <trkpt lat="48.22675" lon="3.25777">
        <ele>69</ele>
        <time>2014-04-20T09:14:46.979Z</time>
      </trkpt>
      <trkpt lat="48.22677" lon="3.25785">
        <ele>69</ele>
        <time>2014-04-20T09:14:47.979Z</time>
      </trkpt>
      <trkpt lat="48.22678" lon="3.25792">
        <ele>69</ele>
        <time>2014-04-20T09:14:48.979Z</time>
      </trkpt>
      <trkpt lat="48.22679" lon="3.258">
        <ele>69</ele>
        <time>2014-04-20T09:14:49.979Z</time>
      </trkpt>
      <trkpt lat="48.22682" lon="3.25809">
        <ele>69</ele>
        <time>2014-04-20T09:14:50.979Z</time>
      </trkpt>
      <trkpt lat="48.22683" lon="3.25815">
        <ele>69</ele>
        <time>2014-04-20T09:14:51.979Z</time>
      </trkpt>
      <trkpt lat="48.22684" lon="3.25824">
        <ele>69</ele>
        <time>2014-04-20T09:14:52.979Z</time>
      </trkpt>
      <trkpt lat="48.22686" lon="3.2583">
        <ele>69</ele>
        <time>2014-04-20T09:14:53.979Z</time>
      </trkpt>
      <trkpt lat="48.22688" lon="3.25839">
        <ele>68</ele>
        <time>2014-04-20T09:14:54.979Z</time>
      </trkpt>
      <trkpt lat="48.22689" lon="3.25848">
        <ele>67</ele>
        <time>2014-04-20T09:14:55.979Z</time>
      </trkpt>
      <trkpt lat="48.22691" lon="3.25856">
        <ele>67</ele>
        <time>2014-04-20T09:14:56.979Z</time>
      </trkpt>
      <trkpt lat="48.22693" lon="3.25865">
        <ele>67</ele>
        <time>2014-04-20T09:14:57.979Z</time>
      </trkpt>
      <trkpt lat="48.22695" lon="3.25876">
        <ele>67</ele>
        <time>2014-04-20T09:14:58.979Z</time>
      </trkpt>
      <trkpt lat="48.22695" lon="3.25884">
        <ele>67</ele>
        <time>2014-04-20T09:14:59.979Z</time>
      </trkpt>
      <trkpt lat="48.22695" lon="3.25895">
        <ele>66</ele>
        <time>2014-04-20T09:15:00.979Z</time>
      </trkpt>
      <trkpt lat="48.22694" lon="3.25906">
        <ele>66</ele>
        <time>2014-04-20T09:15:01.979Z</time>
      </trkpt>
      <trkpt lat="48.22693" lon="3.25916">
        <ele>66</ele>
        <time>2014-04-20T09:15:02.979Z</time>
      </trkpt>
      <trkpt lat="48.22692" lon="3.25927">
        <ele>65</ele>
        <time>2014-04-20T09:15:03.979Z</time>
      </trkpt>
      <trkpt lat="48.22691" lon="3.25938">
        <ele>64</ele>
        <time>2014-04-20T09:15:04.979Z</time>
      </trkpt>
      <trkpt lat="48.2269" lon="3.25948">
        <ele>64</ele>
        <time>2014-04-20T09:15:05.979Z</time>
      </trkpt>
      <trkpt lat="48.22689" lon="3.25959">
        <ele>64</ele>
        <time>2014-04-20T09:15:06.979Z</time>
      </trkpt>
      <trkpt lat="48.22687" lon="3.25972">
        <ele>64</ele>
        <time>2014-04-20T09:15:07.979Z</time>
      </trkpt>
      <trkpt lat="48.22685" lon="3.25983">
        <ele>63</ele>
        <time>2014-04-20T09:15:08.979Z</time>
      </trkpt>
      <trkpt lat="48.2268" lon="3.25989">
        <ele>63</ele>
        <time>2014-04-20T09:15:09.979Z</time>
      </trkpt>
      <trkpt lat="48.22675" lon="3.25996">
        <ele>63</ele>
        <time>2014-04-20T09:15:10.979Z</time>
      </trkpt>
      <trkpt lat="48.2267" lon="3.26">
        <ele>62</ele>
        <time>2014-04-20T09:15:11.979Z</time>
      </trkpt>
      <trkpt lat="48.22664" lon="3.26002">
        <ele>62</ele>
        <time>2014-04-20T09:15:12.979Z</time>
      </trkpt>
      <trkpt lat="48.22659" lon="3.26002">
        <ele>62</ele>
        <time>2014-04-20T09:15:13.979Z</time>
      </trkpt>
      <trkpt lat="48.22653" lon="3.26004">
        <ele>62</ele>
        <time>2014-04-20T09:15:14.979Z</time>
      </trkpt>
      <trkpt lat="48.22647" lon="3.26004">
        <ele>62</ele>
        <time>2014-04-20T09:15:15.979Z</time>
      </trkpt>
      <trkpt lat="48.22642" lon="3.26004">
        <ele>62</ele>
        <time>2014-04-20T09:15:16.979Z</time>
      </trkpt>
      <trkpt lat="48.22636" lon="3.26006">
        <ele>62</ele>
        <time>2014-04-20T09:15:17.979Z</time>
      </trkpt>
      <trkpt lat="48.22631" lon="3.26006">
        <ele>62</ele>
        <time>2014-04-20T09:15:18.979Z</time>
      </trkpt>
      <trkpt lat="48.22625" lon="3.26006">
        <ele>63</ele>
        <time>2014-04-20T09:15:19.979Z</time>
      </trkpt>
      <trkpt lat="48.22619" lon="3.26009">
        <ele>63</ele>
        <time>2014-04-20T09:15:20.979Z</time>
      </trkpt>
      <trkpt lat="48.22614" lon="3.26011">
        <ele>63</ele>
        <time>2014-04-20T09:15:21.979Z</time>
      </trkpt>
      <trkpt lat="48.22608" lon="3.26011">
        <ele>63</ele>
        <time>2014-04-20T09:15:22.979Z</time>
      </trkpt>
      <trkpt lat="48.22602" lon="3.26013">
        <ele>63</ele>
        <time>2014-04-20T09:15:23.979Z</time>
      </trkpt>
      <trkpt lat="48.22597" lon="3.26015">
        <ele>63</ele>
        <time>2014-04-20T09:15:24.979Z</time>
      </trkpt>
      <trkpt lat="48.2259" lon="3.26015">
        <ele>63</ele>
        <time>2014-04-20T09:15:25.979Z</time>
      </trkpt>
      <trkpt lat="48.22585" lon="3.26017">
        <ele>63</ele>
        <time>2014-04-20T09:15:26.979Z</time>
      </trkpt>
      <trkpt lat="48.2258" lon="3.26019">
        <ele>63</ele>
        <time>2014-04-20T09:15:27.979Z</time>
      </trkpt>
      <trkpt lat="48.22574" lon="3.26019">
        <ele>63</ele>
        <time>2014-04-20T09:15:28.979Z</time>
      </trkpt>
      <trkpt lat="48.22568" lon="3.26021">
        <ele>63</ele>
        <time>2014-04-20T09:15:29.979Z</time>
      </trkpt>
      <trkpt lat="48.22562" lon="3.26021">
        <ele>63</ele>
        <time>2014-04-20T09:15:30.979Z</time>
      </trkpt>
      <trkpt lat="48.22557" lon="3.26024">
        <ele>63</ele>
        <time>2014-04-20T09:15:31.979Z</time>
      </trkpt>
      <trkpt lat="48.22552" lon="3.26026">
        <ele>63</ele>
        <time>2014-04-20T09:15:32.979Z</time>
      </trkpt>
      <trkpt lat="48.22546" lon="3.26028">
        <ele>63</ele>
        <time>2014-04-20T09:15:33.979Z</time>
      </trkpt>
      <trkpt lat="48.22541" lon="3.26028">
        <ele>63</ele>
        <time>2014-04-20T09:15:34.979Z</time>
      </trkpt>
      <trkpt lat="48.22536" lon="3.2603">
        <ele>63</ele>
        <time>2014-04-20T09:15:35.979Z</time>
      </trkpt>
      <trkpt lat="48.2253" lon="3.26032">
        <ele>63</ele>
        <time>2014-04-20T09:15:36.979Z</time>
      </trkpt>
      <trkpt lat="48.22525" lon="3.26032">
        <ele>64</ele>
        <time>2014-04-20T09:15:37.979Z</time>
      </trkpt>
      <trkpt lat="48.22518" lon="3.26034">
        <ele>64</ele>
        <time>2014-04-20T09:15:38.979Z</time>
      </trkpt>
      <trkpt lat="48.22513" lon="3.26036">
        <ele>64</ele>
        <time>2014-04-20T09:15:39.979Z</time>
      </trkpt>
      <trkpt lat="48.22508" lon="3.26039">
        <ele>64</ele>
        <time>2014-04-20T09:15:40.979Z</time>
      </trkpt>
      <trkpt lat="48.22502" lon="3.26039">
        <ele>64</ele>
        <time>2014-04-20T09:15:41.979Z</time>
      </trkpt>
      <trkpt lat="48.22497" lon="3.26041">
        <ele>64</ele>
        <time>2014-04-20T09:15:42.979Z</time>
      </trkpt>
      <trkpt lat="48.22492" lon="3.26043">
        <ele>64</ele>
        <time>2014-04-20T09:15:43.979Z</time>
      </trkpt>
      <trkpt lat="48.22487" lon="3.26045">
        <ele>64</ele>
        <time>2014-04-20T09:15:44.979Z</time>
      </trkpt>
      <trkpt lat="48.22482" lon="3.26047">
        <ele>64</ele>
        <time>2014-04-20T09:15:45.979Z</time>
      </trkpt>
      <trkpt lat="48.22477" lon="3.26049">
        <ele>64</ele>
        <time>2014-04-20T09:15:46.979Z</time>
      </trkpt>
      <trkpt lat="48.22471" lon="3.26051">
        <ele>65</ele>
        <time>2014-04-20T09:15:47.979Z</time>
      </trkpt>
      <trkpt lat="48.22466" lon="3.26054">
        <ele>65</ele>
        <time>2014-04-20T09:15:48.979Z</time>
      </trkpt>
      <trkpt lat="48.22461" lon="3.26056">
        <ele>65</ele>
        <time>2014-04-20T09:15:49.979Z</time>
      </trkpt>
      <trkpt lat="48.22455" lon="3.26058">
        <ele>65</ele>
        <time>2014-04-20T09:15:50.979Z</time>
      </trkpt>
      <trkpt lat="48.2245" lon="3.2606">
        <ele>65</ele>
        <time>2014-04-20T09:15:51.979Z</time>
      </trkpt>
      <trkpt lat="48.22444" lon="3.26064">
        <ele>65</ele>
        <time>2014-04-20T09:15:52.979Z</time>
      </trkpt>
      <trkpt lat="48.22439" lon="3.26066">
        <ele>65</ele>
        <time>2014-04-20T09:15:53.979Z</time>
      </trkpt>
      <trkpt lat="48.22434" lon="3.26069">
        <ele>65</ele>
        <time>2014-04-20T09:15:54.979Z</time>
      </trkpt>
      <trkpt lat="48.22428" lon="3.26071">
        <ele>65</ele>
        <time>2014-04-20T09:15:55.979Z</time>
      </trkpt>
      <trkpt lat="48.22424" lon="3.26075">
        <ele>65</ele>
        <time>2014-04-20T09:15:56.979Z</time>
      </trkpt>
      <trkpt lat="48.22419" lon="3.26077">
        <ele>65</ele>
        <time>2014-04-20T09:15:57.979Z</time>
      </trkpt>
      <trkpt lat="48.22413" lon="3.26079">
        <ele>65</ele>
        <time>2014-04-20T09:15:58.979Z</time>
      </trkpt>
      <trkpt lat="48.22409" lon="3.26084">
        <ele>65</ele>
        <time>2014-04-20T09:15:59.979Z</time>
      </trkpt>
      <trkpt lat="48.22404" lon="3.26086">
        <ele>65</ele>
        <time>2014-04-20T09:16:00.979Z</time>
      </trkpt>
      <trkpt lat="48.22399" lon="3.26088">
        <ele>65</ele>
        <time>2014-04-20T09:16:01.979Z</time>
      </trkpt>
      <trkpt lat="48.22395" lon="3.26092">
        <ele>65</ele>
        <time>2014-04-20T09:16:02.979Z</time>
      </trkpt>
      <trkpt lat="48.2239" lon="3.26094">
        <ele>65</ele>
        <time>2014-04-20T09:16:03.979Z</time>
      </trkpt>
      <trkpt lat="48.22385" lon="3.26097">
        <ele>65</ele>
        <time>2014-04-20T09:16:04.979Z</time>
      </trkpt>
      <trkpt lat="48.22381" lon="3.26101">
        <ele>65</ele>
        <time>2014-04-20T09:16:05.979Z</time>
      </trkpt>
      <trkpt lat="48.22376" lon="3.26103">
        <ele>65</ele>
        <time>2014-04-20T09:16:06.979Z</time>
      </trkpt>
      <trkpt lat="48.22371" lon="3.26105">
        <ele>65</ele>
        <time>2014-04-20T09:16:07.979Z</time>
      </trkpt>
      <trkpt lat="48.22367" lon="3.26109">
        <ele>65</ele>
        <time>2014-04-20T09:16:08.979Z</time>
      </trkpt>
      <trkpt lat="48.22362" lon="3.26112">
        <ele>65</ele>
        <time>2014-04-20T09:16:09.979Z</time>
      </trkpt>
      <trkpt lat="48.22358" lon="3.26116">
        <ele>65</ele>
        <time>2014-04-20T09:16:10.979Z</time>
      </trkpt>
      <trkpt lat="48.22353" lon="3.26118">
        <ele>65</ele>
        <time>2014-04-20T09:16:11.979Z</time>
      </trkpt>
      <trkpt lat="48.22349" lon="3.2612">
        <ele>65</ele>
        <time>2014-04-20T09:16:12.979Z</time>
      </trkpt>
      <trkpt lat="48.22344" lon="3.26122">
        <ele>65</ele>
        <time>2014-04-20T09:16:13.979Z</time>
      </trkpt>
      <trkpt lat="48.22339" lon="3.26127">
        <ele>65</ele>
        <time>2014-04-20T09:16:14.979Z</time>
      </trkpt>
      <trkpt lat="48.22335" lon="3.26129">
        <ele>65</ele>
        <time>2014-04-20T09:16:15.979Z</time>
      </trkpt>
      <trkpt lat="48.22331" lon="3.26131">
        <ele>68</ele>
        <time>2014-04-20T09:16:16.979Z</time>
      </trkpt>
      <trkpt lat="48.22327" lon="3.26135">
        <ele>68</ele>
        <time>2014-04-20T09:16:17.979Z</time>
      </trkpt>
      <trkpt lat="48.22323" lon="3.26139">
        <ele>68</ele>
        <time>2014-04-20T09:16:18.979Z</time>
      </trkpt>
      <trkpt lat="48.22319" lon="3.26144">
        <ele>68</ele>
        <time>2014-04-20T09:16:19.979Z</time>
      </trkpt>
      <trkpt lat="48.22316" lon="3.26148">
        <ele>68</ele>
        <time>2014-04-20T09:16:20.979Z</time>
      </trkpt>
      <trkpt lat="48.22311" lon="3.26152">
        <ele>68</ele>
        <time>2014-04-20T09:16:21.979Z</time>
      </trkpt>
      <trkpt lat="48.22307" lon="3.26157">
        <ele>68</ele>
        <time>2014-04-20T09:16:22.979Z</time>
      </trkpt>
      <trkpt lat="48.22304" lon="3.26161">
        <ele>68</ele>
        <time>2014-04-20T09:16:23.979Z</time>
      </trkpt>
      <trkpt lat="48.223" lon="3.26167">
        <ele>66</ele>
        <time>2014-04-20T09:16:24.979Z</time>
      </trkpt>
      <trkpt lat="48.22295" lon="3.26172">
        <ele>66</ele>
        <time>2014-04-20T09:16:25.979Z</time>
      </trkpt>
      <trkpt lat="48.22291" lon="3.26176">
        <ele>67</ele>
        <time>2014-04-20T09:16:26.979Z</time>
      </trkpt>
      <trkpt lat="48.22288" lon="3.2618">
        <ele>67</ele>
        <time>2014-04-20T09:16:27.979Z</time>
      </trkpt>
      <trkpt lat="48.22284" lon="3.26185">
        <ele>67</ele>
        <time>2014-04-20T09:16:28.979Z</time>
      </trkpt>
      <trkpt lat="48.22279" lon="3.26189">
        <ele>67</ele>
        <time>2014-04-20T09:16:29.979Z</time>
      </trkpt>
      <trkpt lat="48.22274" lon="3.26195">
        <ele>67</ele>
        <time>2014-04-20T09:16:30.979Z</time>
      </trkpt>
      <trkpt lat="48.2227" lon="3.26197">
        <ele>67</ele>
        <time>2014-04-20T09:16:31.979Z</time>
      </trkpt>
      <trkpt lat="48.22265" lon="3.26202">
        <ele>67</ele>
        <time>2014-04-20T09:16:32.979Z</time>
      </trkpt>
      <trkpt lat="48.2226" lon="3.26206">
        <ele>67</ele>
        <time>2014-04-20T09:16:33.979Z</time>
      </trkpt>
      <trkpt lat="48.22257" lon="3.26208">
        <ele>67</ele>
        <time>2014-04-20T09:16:34.979Z</time>
      </trkpt>
      <trkpt lat="48.22252" lon="3.2621">
        <ele>66</ele>
        <time>2014-04-20T09:16:35.979Z</time>
      </trkpt>
      <trkpt lat="48.22248" lon="3.26212">
        <ele>69</ele>
        <time>2014-04-20T09:16:36.979Z</time>
      </trkpt>
      <trkpt lat="48.22244" lon="3.26215">
        <ele>69</ele>
        <time>2014-04-20T09:16:37.979Z</time>
      </trkpt>
      <trkpt lat="48.2224" lon="3.26217">
        <ele>69</ele>
        <time>2014-04-20T09:16:38.979Z</time>
      </trkpt>
      <trkpt lat="48.22235" lon="3.26219">
        <ele>69</ele>
        <time>2014-04-20T09:16:39.979Z</time>
      </trkpt>
      <trkpt lat="48.2223" lon="3.26219">
        <ele>69</ele>
        <time>2014-04-20T09:16:40.979Z</time>
      </trkpt>
      <trkpt lat="48.22226" lon="3.26221">
        <ele>69</ele>
        <time>2014-04-20T09:16:41.979Z</time>
      </trkpt>
      <trkpt lat="48.22221" lon="3.26221">
        <ele>69</ele>
        <time>2014-04-20T09:16:42.979Z</time>
      </trkpt>
      <trkpt lat="48.22216" lon="3.26221">
        <ele>70</ele>
        <time>2014-04-20T09:16:43.979Z</time>
      </trkpt>
      <trkpt lat="48.22212" lon="3.26223">
        <ele>70</ele>
        <time>2014-04-20T09:16:44.979Z</time>
      </trkpt>
      <trkpt lat="48.22206" lon="3.26223">
        <ele>70</ele>
        <time>2014-04-20T09:16:45.979Z</time>
      </trkpt>
      <trkpt lat="48.22201" lon="3.26223">
        <ele>70</ele>
        <time>2014-04-20T09:16:46.979Z</time>
      </trkpt>
      <trkpt lat="48.22197" lon="3.26225">
        <ele>70</ele>
        <time>2014-04-20T09:16:47.979Z</time>
      </trkpt>
      <trkpt lat="48.22191" lon="3.26225">
        <ele>70</ele>
        <time>2014-04-20T09:16:48.979Z</time>
      </trkpt>
      <trkpt lat="48.22187" lon="3.26227">
        <ele>70</ele>
        <time>2014-04-20T09:16:49.979Z</time>
      </trkpt>
      <trkpt lat="48.22182" lon="3.26227">
        <ele>70</ele>
        <time>2014-04-20T09:16:50.979Z</time>
      </trkpt>
      <trkpt lat="48.22177" lon="3.26227">
        <ele>70</ele>
        <time>2014-04-20T09:16:51.979Z</time>
      </trkpt>
      <trkpt lat="48.22172" lon="3.2623">
        <ele>70</ele>
        <time>2014-04-20T09:16:52.979Z</time>
      </trkpt>
      <trkpt lat="48.22168" lon="3.2623">
        <ele>70</ele>
        <time>2014-04-20T09:16:53.979Z</time>
      </trkpt>
      <trkpt lat="48.22162" lon="3.26232">
        <ele>71</ele>
        <time>2014-04-20T09:16:54.979Z</time>
      </trkpt>
      <trkpt lat="48.22157" lon="3.26232">
        <ele>71</ele>
        <time>2014-04-20T09:16:55.979Z</time>
      </trkpt>
      <trkpt lat="48.22153" lon="3.26234">
        <ele>71</ele>
        <time>2014-04-20T09:16:56.979Z</time>
      </trkpt>
      <trkpt lat="48.22147" lon="3.26234">
        <ele>72</ele>
        <time>2014-04-20T09:16:57.979Z</time>
      </trkpt>
      <trkpt lat="48.22142" lon="3.26236">
        <ele>72</ele>
        <time>2014-04-20T09:16:58.979Z</time>
      </trkpt>
      <trkpt lat="48.22137" lon="3.26238">
        <ele>72</ele>
        <time>2014-04-20T09:16:59.979Z</time>
      </trkpt>
      <trkpt lat="48.22132" lon="3.2624">
        <ele>72</ele>
        <time>2014-04-20T09:17:00.979Z</time>
      </trkpt>
      <trkpt lat="48.22127" lon="3.2624">
        <ele>72</ele>
        <time>2014-04-20T09:17:01.979Z</time>
      </trkpt>
      <trkpt lat="48.22122" lon="3.26242">
        <ele>72</ele>
        <time>2014-04-20T09:17:02.979Z</time>
      </trkpt>
      <trkpt lat="48.22116" lon="3.26245">
        <ele>72</ele>
        <time>2014-04-20T09:17:03.979Z</time>
      </trkpt>
      <trkpt lat="48.22111" lon="3.26245">
        <ele>72</ele>
        <time>2014-04-20T09:17:04.979Z</time>
      </trkpt>
      <trkpt lat="48.22105" lon="3.26247">
        <ele>72</ele>
        <time>2014-04-20T09:17:05.979Z</time>
      </trkpt>
      <trkpt lat="48.22099" lon="3.26247">
        <ele>71</ele>
        <time>2014-04-20T09:17:06.979Z</time>
      </trkpt>
      <trkpt lat="48.22094" lon="3.26249">
        <ele>71</ele>
        <time>2014-04-20T09:17:07.979Z</time>
      </trkpt>
      <trkpt lat="48.22088" lon="3.26251">
        <ele>69</ele>
        <time>2014-04-20T09:17:08.979Z</time>
      </trkpt>
      <trkpt lat="48.22083" lon="3.26251">
        <ele>70</ele>
        <time>2014-04-20T09:17:09.979Z</time>
      </trkpt>
      <trkpt lat="48.22078" lon="3.26253">
        <ele>70</ele>
        <time>2014-04-20T09:17:10.979Z</time>
      </trkpt>
      <trkpt lat="48.22072" lon="3.26253">
        <ele>69</ele>
        <time>2014-04-20T09:17:11.979Z</time>
      </trkpt>
      <trkpt lat="48.22067" lon="3.26255">
        <ele>69</ele>
        <time>2014-04-20T09:17:12.979Z</time>
      </trkpt>
      <trkpt lat="48.22061" lon="3.26255">
        <ele>69</ele>
        <time>2014-04-20T09:17:13.979Z</time>
      </trkpt>
      <trkpt lat="48.22056" lon="3.26257">
        <ele>69</ele>
        <time>2014-04-20T09:17:14.979Z</time>
      </trkpt>
      <trkpt lat="48.22051" lon="3.26257">
        <ele>69</ele>
        <time>2014-04-20T09:17:15.979Z</time>
      </trkpt>
      <trkpt lat="48.22045" lon="3.2626">
        <ele>69</ele>
        <time>2014-04-20T09:17:16.979Z</time>
      </trkpt>
      <trkpt lat="48.2204" lon="3.2626">
        <ele>69</ele>
        <time>2014-04-20T09:17:17.979Z</time>
      </trkpt>
      <trkpt lat="48.22035" lon="3.2626">
        <ele>69</ele>
        <time>2014-04-20T09:17:18.979Z</time>
      </trkpt>
      <trkpt lat="48.22029" lon="3.26262">
        <ele>69</ele>
        <time>2014-04-20T09:17:19.979Z</time>
      </trkpt>
      <trkpt lat="48.22024" lon="3.26262">
        <ele>70</ele>
        <time>2014-04-20T09:17:20.979Z</time>
      </trkpt>
      <trkpt lat="48.22017" lon="3.26264">
        <ele>70</ele>
        <time>2014-04-20T09:17:21.979Z</time>
      </trkpt>
      <trkpt lat="48.22012" lon="3.26264">
        <ele>70</ele>
        <time>2014-04-20T09:17:22.979Z</time>
      </trkpt>
      <trkpt lat="48.22007" lon="3.26266">
        <ele>70</ele>
        <time>2014-04-20T09:17:23.979Z</time>
      </trkpt>
      <trkpt lat="48.22001" lon="3.26268">
        <ele>70</ele>
        <time>2014-04-20T09:17:24.979Z</time>
      </trkpt>
      <trkpt lat="48.21995" lon="3.26268">
        <ele>70</ele>
        <time>2014-04-20T09:17:25.979Z</time>
      </trkpt>
      <trkpt lat="48.2199" lon="3.2627">
        <ele>70</ele>
        <time>2014-04-20T09:17:26.979Z</time>
      </trkpt>
      <trkpt lat="48.21983" lon="3.2627">
        <ele>69</ele>
        <time>2014-04-20T09:17:27.979Z</time>
      </trkpt>
      <trkpt lat="48.21978" lon="3.26272">
        <ele>69</ele>
        <time>2014-04-20T09:17:28.979Z</time>
      </trkpt>
      <trkpt lat="48.21971" lon="3.26272">
        <ele>69</ele>
        <time>2014-04-20T09:17:29.979Z</time>
      </trkpt>
      <trkpt lat="48.21965" lon="3.26275">
        <ele>69</ele>
        <time>2014-04-20T09:17:30.979Z</time>
      </trkpt>
      <trkpt lat="48.21959" lon="3.26277">
        <ele>69</ele>
        <time>2014-04-20T09:17:31.979Z</time>
      </trkpt>
      <trkpt lat="48.21953" lon="3.26277">
        <ele>69</ele>
        <time>2014-04-20T09:17:32.979Z</time>
      </trkpt>
      <trkpt lat="48.21947" lon="3.26279">
        <ele>69</ele>
        <time>2014-04-20T09:17:33.979Z</time>
      </trkpt>
      <trkpt lat="48.2194" lon="3.26279">
        <ele>69</ele>
        <time>2014-04-20T09:17:34.979Z</time>
      </trkpt>
      <trkpt lat="48.21934" lon="3.26281">
        <ele>68</ele>
        <time>2014-04-20T09:17:35.979Z</time>
      </trkpt>
      <trkpt lat="48.21927" lon="3.26281">
        <ele>68</ele>
        <time>2014-04-20T09:17:36.979Z</time>
      </trkpt>
      <trkpt lat="48.21921" lon="3.26283">
        <ele>68</ele>
        <time>2014-04-20T09:17:37.979Z</time>
      </trkpt>
      <trkpt lat="48.21914" lon="3.26285">
        <ele>68</ele>
        <time>2014-04-20T09:17:38.979Z</time>
      </trkpt>
      <trkpt lat="48.21908" lon="3.26285">
        <ele>68</ele>
        <time>2014-04-20T09:17:39.979Z</time>
      </trkpt>
      <trkpt lat="48.21902" lon="3.26288">
        <ele>68</ele>
        <time>2014-04-20T09:17:40.979Z</time>
      </trkpt>
      <trkpt lat="48.21895" lon="3.26288">
        <ele>68</ele>
        <time>2014-04-20T09:17:41.979Z</time>
      </trkpt>
      <trkpt lat="48.21889" lon="3.2629">
        <ele>68</ele>
        <time>2014-04-20T09:17:42.979Z</time>
      </trkpt>
      <trkpt lat="48.21882" lon="3.2629">
        <ele>68</ele>
        <time>2014-04-20T09:17:43.979Z</time>
      </trkpt>
      <trkpt lat="48.21876" lon="3.26292">
        <ele>68</ele>
        <time>2014-04-20T09:17:44.979Z</time>
      </trkpt>
      <trkpt lat="48.21869" lon="3.26292">
        <ele>68</ele>
        <time>2014-04-20T09:17:45.979Z</time>
      </trkpt>
      <trkpt lat="48.21863" lon="3.26294">
        <ele>68</ele>
        <time>2014-04-20T09:17:46.979Z</time>
      </trkpt>
      <trkpt lat="48.21855" lon="3.26294">
        <ele>68</ele>
        <time>2014-04-20T09:17:47.979Z</time>
      </trkpt>
      <trkpt lat="48.21849" lon="3.26296">
        <ele>68</ele>
        <time>2014-04-20T09:17:48.979Z</time>
      </trkpt>
      <trkpt lat="48.21843" lon="3.26298">
        <ele>68</ele>
        <time>2014-04-20T09:17:49.979Z</time>
      </trkpt>
      <trkpt lat="48.21836" lon="3.26298">
        <ele>68</ele>
        <time>2014-04-20T09:17:50.979Z</time>
      </trkpt>
      <trkpt lat="48.2183" lon="3.263">
        <ele>68</ele>
        <time>2014-04-20T09:17:51.979Z</time>
      </trkpt>
      <trkpt lat="48.21823" lon="3.26303">
        <ele>67</ele>
        <time>2014-04-20T09:17:52.979Z</time>
      </trkpt>
      <trkpt lat="48.21817" lon="3.26303">
        <ele>67</ele>
        <time>2014-04-20T09:17:53.979Z</time>
      </trkpt>
      <trkpt lat="48.2181" lon="3.26305">
        <ele>67</ele>
        <time>2014-04-20T09:17:54.979Z</time>
      </trkpt>
      <trkpt lat="48.21804" lon="3.26307">
        <ele>67</ele>
        <time>2014-04-20T09:17:55.979Z</time>
      </trkpt>
      <trkpt lat="48.21797" lon="3.26307">
        <ele>67</ele>
        <time>2014-04-20T09:17:56.979Z</time>
      </trkpt>
      <trkpt lat="48.21791" lon="3.26309">
        <ele>67</ele>
        <time>2014-04-20T09:17:57.979Z</time>
      </trkpt>
      <trkpt lat="48.21784" lon="3.26311">
        <ele>67</ele>
        <time>2014-04-20T09:17:58.979Z</time>
      </trkpt>
      <trkpt lat="48.21777" lon="3.26311">
        <ele>67</ele>
        <time>2014-04-20T09:17:59.979Z</time>
      </trkpt>
      <trkpt lat="48.21771" lon="3.26313">
        <ele>67</ele>
        <time>2014-04-20T09:18:00.979Z</time>
      </trkpt>
      <trkpt lat="48.21764" lon="3.26313">
        <ele>67</ele>
        <time>2014-04-20T09:18:01.979Z</time>
      </trkpt>
      <trkpt lat="48.21758" lon="3.26315">
        <ele>66</ele>
        <time>2014-04-20T09:18:02.979Z</time>
      </trkpt>
      <trkpt lat="48.21751" lon="3.26315">
        <ele>66</ele>
        <time>2014-04-20T09:18:03.979Z</time>
      </trkpt>
      <trkpt lat="48.21744" lon="3.26315">
        <ele>66</ele>
        <time>2014-04-20T09:18:04.979Z</time>
      </trkpt>
      <trkpt lat="48.21737" lon="3.26318">
        <ele>66</ele>
        <time>2014-04-20T09:18:05.979Z</time>
      </trkpt>
      <trkpt lat="48.21731" lon="3.26318">
        <ele>66</ele>
        <time>2014-04-20T09:18:06.979Z</time>
      </trkpt>
      <trkpt lat="48.21725" lon="3.26318">
        <ele>66</ele>
        <time>2014-04-20T09:18:07.979Z</time>
      </trkpt>
      <trkpt lat="48.21717" lon="3.26315">
        <ele>66</ele>
        <time>2014-04-20T09:18:08.979Z</time>
      </trkpt>
      <trkpt lat="48.21711" lon="3.26315">
        <ele>66</ele>
        <time>2014-04-20T09:18:09.979Z</time>
      </trkpt>
      <trkpt lat="48.21704" lon="3.26315">
        <ele>66</ele>
        <time>2014-04-20T09:18:10.979Z</time>
      </trkpt>
      <trkpt lat="48.21698" lon="3.26315">
        <ele>66</ele>
        <time>2014-04-20T09:18:11.979Z</time>
      </trkpt>
      <trkpt lat="48.21692" lon="3.26313">
        <ele>66</ele>
        <time>2014-04-20T09:18:12.979Z</time>
      </trkpt>
      <trkpt lat="48.21686" lon="3.26313">
        <ele>66</ele>
        <time>2014-04-20T09:18:13.979Z</time>
      </trkpt>
      <trkpt lat="48.21679" lon="3.26311">
        <ele>66</ele>
        <time>2014-04-20T09:18:14.979Z</time>
      </trkpt>
      <trkpt lat="48.21673" lon="3.26311">
        <ele>66</ele>
        <time>2014-04-20T09:18:15.979Z</time>
      </trkpt>
      <trkpt lat="48.21667" lon="3.26309">
        <ele>65</ele>
        <time>2014-04-20T09:18:16.979Z</time>
      </trkpt>
      <trkpt lat="48.21661" lon="3.26309">
        <ele>65</ele>
        <time>2014-04-20T09:18:17.979Z</time>
      </trkpt>
      <trkpt lat="48.21655" lon="3.26305">
        <ele>65</ele>
        <time>2014-04-20T09:18:18.979Z</time>
      </trkpt>
      <trkpt lat="48.21651" lon="3.263">
        <ele>65</ele>
        <time>2014-04-20T09:18:19.979Z</time>
      </trkpt>
      <trkpt lat="48.21645" lon="3.26294">
        <ele>65</ele>
        <time>2014-04-20T09:18:20.979Z</time>
      </trkpt>
      <trkpt lat="48.21641" lon="3.26288">
        <ele>65</ele>
        <time>2014-04-20T09:18:21.979Z</time>
      </trkpt>
      <trkpt lat="48.21635" lon="3.26285">
        <ele>65</ele>
        <time>2014-04-20T09:18:22.979Z</time>
      </trkpt>
      <trkpt lat="48.2163" lon="3.26288">
        <ele>65</ele>
        <time>2014-04-20T09:18:23.979Z</time>
      </trkpt>
      <trkpt lat="48.21625" lon="3.26292">
        <ele>65</ele>
        <time>2014-04-20T09:18:24.979Z</time>
      </trkpt>
      <trkpt lat="48.21619" lon="3.26296">
        <ele>65</ele>
        <time>2014-04-20T09:18:25.979Z</time>
      </trkpt>
      <trkpt lat="48.21615" lon="3.26303">
        <ele>65</ele>
        <time>2014-04-20T09:18:26.979Z</time>
      </trkpt>
      <trkpt lat="48.21611" lon="3.26309">
        <ele>65</ele>
        <time>2014-04-20T09:18:27.979Z</time>
      </trkpt>
      <trkpt lat="48.21605" lon="3.26313">
        <ele>65</ele>
        <time>2014-04-20T09:18:28.979Z</time>
      </trkpt>
      <trkpt lat="48.216" lon="3.26315">
        <ele>65</ele>
        <time>2014-04-20T09:18:29.979Z</time>
      </trkpt>
      <trkpt lat="48.21595" lon="3.2632">
        <ele>65</ele>
        <time>2014-04-20T09:18:30.979Z</time>
      </trkpt>
      <trkpt lat="48.21589" lon="3.26324">
        <ele>64</ele>
        <time>2014-04-20T09:18:31.979Z</time>
      </trkpt>
      <trkpt lat="48.21584" lon="3.26328">
        <ele>64</ele>
        <time>2014-04-20T09:18:32.979Z</time>
      </trkpt>
      <trkpt lat="48.2158" lon="3.2633">
        <ele>65</ele>
        <time>2014-04-20T09:18:33.979Z</time>
      </trkpt>
      <trkpt lat="48.21574" lon="3.26335">
        <ele>65</ele>
        <time>2014-04-20T09:18:34.979Z</time>
      </trkpt>
      <trkpt lat="48.2157" lon="3.26337">
        <ele>65</ele>
        <time>2014-04-20T09:18:35.979Z</time>
      </trkpt>
      <trkpt lat="48.21566" lon="3.26339">
        <ele>66</ele>
        <time>2014-04-20T09:18:36.979Z</time>
      </trkpt>
      <trkpt lat="48.21561" lon="3.26341">
        <ele>66</ele>
        <time>2014-04-20T09:18:37.979Z</time>
      </trkpt>
      <trkpt lat="48.21557" lon="3.26343">
        <ele>66</ele>
        <time>2014-04-20T09:18:38.979Z</time>
      </trkpt>
      <trkpt lat="48.21553" lon="3.26348">
        <ele>66</ele>
        <time>2014-04-20T09:18:39.979Z</time>
      </trkpt>
      <trkpt lat="48.21549" lon="3.2635">
        <ele>67</ele>
        <time>2014-04-20T09:18:40.979Z</time>
      </trkpt>
      <trkpt lat="48.21544" lon="3.26352">
        <ele>67</ele>
        <time>2014-04-20T09:18:41.979Z</time>
      </trkpt>
      <trkpt lat="48.2154" lon="3.26354">
        <ele>67</ele>
        <time>2014-04-20T09:18:42.979Z</time>
      </trkpt>
      <trkpt lat="48.21535" lon="3.26354">
        <ele>67</ele>
        <time>2014-04-20T09:18:43.979Z</time>
      </trkpt>
      <trkpt lat="48.2153" lon="3.26356">
        <ele>67</ele>
        <time>2014-04-20T09:18:44.979Z</time>
      </trkpt>
      <trkpt lat="48.21526" lon="3.26358">
        <ele>67</ele>
        <time>2014-04-20T09:18:45.979Z</time>
      </trkpt>
      <trkpt lat="48.21521" lon="3.2636">
        <ele>67</ele>
        <time>2014-04-20T09:18:46.979Z</time>
      </trkpt>
      <trkpt lat="48.21516" lon="3.2636">
        <ele>68</ele>
        <time>2014-04-20T09:18:47.979Z</time>
      </trkpt>
      <trkpt lat="48.21512" lon="3.26363">
        <ele>68</ele>
        <time>2014-04-20T09:18:48.979Z</time>
      </trkpt>
      <trkpt lat="48.21508" lon="3.26365">
        <ele>68</ele>
        <time>2014-04-20T09:18:49.979Z</time>
      </trkpt>
      <trkpt lat="48.21502" lon="3.26365">
        <ele>68</ele>
        <time>2014-04-20T09:18:50.979Z</time>
      </trkpt>
      <trkpt lat="48.21498" lon="3.26367">
        <ele>71</ele>
        <time>2014-04-20T09:18:51.979Z</time>
      </trkpt>
      <trkpt lat="48.21494" lon="3.26367">
        <ele>71</ele>
        <time>2014-04-20T09:18:52.979Z</time>
      </trkpt>
      <trkpt lat="48.2149" lon="3.26369">
        <ele>71</ele>
        <time>2014-04-20T09:18:53.979Z</time>
      </trkpt>
      <trkpt lat="48.21485" lon="3.26369">
        <ele>71</ele>
        <time>2014-04-20T09:18:54.979Z</time>
      </trkpt>
      <trkpt lat="48.21481" lon="3.26371">
        <ele>71</ele>
        <time>2014-04-20T09:18:55.979Z</time>
      </trkpt>
      <trkpt lat="48.21476" lon="3.26371">
        <ele>71</ele>
        <time>2014-04-20T09:18:56.979Z</time>
      </trkpt>
      <trkpt lat="48.21471" lon="3.26373">
        <ele>71</ele>
        <time>2014-04-20T09:18:57.979Z</time>
      </trkpt>
      <trkpt lat="48.21466" lon="3.26373">
        <ele>72</ele>
        <time>2014-04-20T09:18:58.979Z</time>
      </trkpt>
      <trkpt lat="48.21462" lon="3.26375">
        <ele>72</ele>
        <time>2014-04-20T09:18:59.979Z</time>
      </trkpt>
      <trkpt lat="48.21456" lon="3.26375">
        <ele>72</ele>
        <time>2014-04-20T09:19:00.979Z</time>
      </trkpt>
      <trkpt lat="48.21452" lon="3.26375">
        <ele>72</ele>
        <time>2014-04-20T09:19:01.979Z</time>
      </trkpt>
      <trkpt lat="48.21447" lon="3.26378">
        <ele>72</ele>
        <time>2014-04-20T09:19:02.979Z</time>
      </trkpt>
      <trkpt lat="48.21442" lon="3.26378">
        <ele>72</ele>
        <time>2014-04-20T09:19:03.979Z</time>
      </trkpt>
      <trkpt lat="48.21437" lon="3.2638">
        <ele>72</ele>
        <time>2014-04-20T09:19:04.979Z</time>
      </trkpt>
      <trkpt lat="48.21433" lon="3.2638">
        <ele>72</ele>
        <time>2014-04-20T09:19:05.979Z</time>
      </trkpt>
      <trkpt lat="48.21427" lon="3.26382">
        <ele>72</ele>
        <time>2014-04-20T09:19:06.979Z</time>
      </trkpt>
      <trkpt lat="48.21422" lon="3.26382">
        <ele>72</ele>
        <time>2014-04-20T09:19:07.979Z</time>
      </trkpt>
      <trkpt lat="48.21417" lon="3.26382">
        <ele>76</ele>
        <time>2014-04-20T09:19:08.979Z</time>
      </trkpt>
      <trkpt lat="48.21412" lon="3.26384">
        <ele>76</ele>
        <time>2014-04-20T09:19:09.979Z</time>
      </trkpt>
      <trkpt lat="48.21407" lon="3.26384">
        <ele>76</ele>
        <time>2014-04-20T09:19:10.979Z</time>
      </trkpt>
      <trkpt lat="48.21402" lon="3.26384">
        <ele>76</ele>
        <time>2014-04-20T09:19:11.979Z</time>
      </trkpt>
      <trkpt lat="48.21396" lon="3.26386">
        <ele>76</ele>
        <time>2014-04-20T09:19:12.979Z</time>
      </trkpt>
      <trkpt lat="48.21392" lon="3.26386">
        <ele>76</ele>
        <time>2014-04-20T09:19:13.979Z</time>
      </trkpt>
      <trkpt lat="48.21387" lon="3.26386">
        <ele>77</ele>
        <time>2014-04-20T09:19:14.979Z</time>
      </trkpt>
      <trkpt lat="48.21381" lon="3.26388">
        <ele>77</ele>
        <time>2014-04-20T09:19:15.979Z</time>
      </trkpt>
      <trkpt lat="48.21376" lon="3.26388">
        <ele>77</ele>
        <time>2014-04-20T09:19:16.979Z</time>
      </trkpt>
      <trkpt lat="48.21372" lon="3.26388">
        <ele>77</ele>
        <time>2014-04-20T09:19:17.979Z</time>
      </trkpt>
      <trkpt lat="48.21366" lon="3.26388">
        <ele>77</ele>
        <time>2014-04-20T09:19:18.979Z</time>
      </trkpt>
      <trkpt lat="48.21361" lon="3.26388">
        <ele>77</ele>
        <time>2014-04-20T09:19:19.979Z</time>
      </trkpt>
      <trkpt lat="48.21357" lon="3.26388">
        <ele>77</ele>
        <time>2014-04-20T09:19:20.979Z</time>
      </trkpt>
      <trkpt lat="48.21351" lon="3.26388">
        <ele>77</ele>
        <time>2014-04-20T09:19:21.979Z</time>
      </trkpt>
      <trkpt lat="48.21346" lon="3.26388">
        <ele>77</ele>
        <time>2014-04-20T09:19:22.979Z</time>
      </trkpt>
      <trkpt lat="48.2134" lon="3.26388">
        <ele>77</ele>
        <time>2014-04-20T09:19:23.979Z</time>
      </trkpt>
      <trkpt lat="48.21336" lon="3.26388">
        <ele>77</ele>
        <time>2014-04-20T09:19:24.979Z</time>
      </trkpt>
      <trkpt lat="48.21331" lon="3.26386">
        <ele>82</ele>
        <time>2014-04-20T09:19:25.979Z</time>
      </trkpt>
      <trkpt lat="48.21326" lon="3.26386">
        <ele>82</ele>
        <time>2014-04-20T09:19:26.979Z</time>
      </trkpt>
      <trkpt lat="48.21321" lon="3.26386">
        <ele>82</ele>
        <time>2014-04-20T09:19:27.979Z</time>
      </trkpt>
      <trkpt lat="48.21316" lon="3.26386">
        <ele>83</ele>
        <time>2014-04-20T09:19:28.979Z</time>
      </trkpt>
      <trkpt lat="48.2131" lon="3.26384">
        <ele>83</ele>
        <time>2014-04-20T09:19:29.979Z</time>
      </trkpt>
      <trkpt lat="48.21306" lon="3.26384">
        <ele>84</ele>
        <time>2014-04-20T09:19:30.979Z</time>
      </trkpt>
      <trkpt lat="48.21301" lon="3.26386">
        <ele>84</ele>
        <time>2014-04-20T09:19:31.979Z</time>
      </trkpt>
      <trkpt lat="48.21295" lon="3.26386">
        <ele>84</ele>
        <time>2014-04-20T09:19:32.979Z</time>
      </trkpt>
      <trkpt lat="48.2129" lon="3.26388">
        <ele>84</ele>
        <time>2014-04-20T09:19:33.979Z</time>
      </trkpt>
      <trkpt lat="48.21285" lon="3.26393">
        <ele>84</ele>
        <time>2014-04-20T09:19:34.979Z</time>
      </trkpt>
      <trkpt lat="48.21279" lon="3.26395">
        <ele>84</ele>
        <time>2014-04-20T09:19:35.979Z</time>
      </trkpt>
      <trkpt lat="48.21274" lon="3.26399">
        <ele>84</ele>
        <time>2014-04-20T09:19:36.979Z</time>
      </trkpt>
      <trkpt lat="48.21269" lon="3.26401">
        <ele>84</ele>
        <time>2014-04-20T09:19:37.979Z</time>
      </trkpt>
      <trkpt lat="48.21263" lon="3.26406">
        <ele>83</ele>
        <time>2014-04-20T09:19:38.979Z</time>
      </trkpt>
      <trkpt lat="48.21258" lon="3.26408">
        <ele>83</ele>
        <time>2014-04-20T09:19:39.979Z</time>
      </trkpt>
      <trkpt lat="48.21252" lon="3.26412">
        <ele>82</ele>
        <time>2014-04-20T09:19:40.979Z</time>
      </trkpt>
      <trkpt lat="48.21247" lon="3.26414">
        <ele>83</ele>
        <time>2014-04-20T09:19:41.979Z</time>
      </trkpt>
      <trkpt lat="48.21242" lon="3.26418">
        <ele>80</ele>
        <time>2014-04-20T09:19:42.979Z</time>
      </trkpt>
      <trkpt lat="48.21237" lon="3.26421">
        <ele>79</ele>
        <time>2014-04-20T09:19:43.979Z</time>
      </trkpt>
      <trkpt lat="48.21234" lon="3.26425">
        <ele>79</ele>
        <time>2014-04-20T09:19:44.979Z</time>
      </trkpt>
      <trkpt lat="48.21231" lon="3.26429">
        <ele>78</ele>
        <time>2014-04-20T09:19:45.979Z</time>
      </trkpt>
      <trkpt lat="48.21229" lon="3.26436">
        <ele>78</ele>
        <time>2014-04-20T09:19:46.979Z</time>
      </trkpt>
      <trkpt lat="48.21227" lon="3.2644">
        <ele>77</ele>
        <time>2014-04-20T09:19:47.979Z</time>
      </trkpt>
      <trkpt lat="48.21225" lon="3.26444">
        <ele>77</ele>
        <time>2014-04-20T09:19:48.979Z</time>
      </trkpt>
      <trkpt lat="48.21221" lon="3.26451">
        <ele>76</ele>
        <time>2014-04-20T09:19:49.979Z</time>
      </trkpt>
      <trkpt lat="48.21218" lon="3.26457">
        <ele>76</ele>
        <time>2014-04-20T09:19:50.979Z</time>
      </trkpt>
      <trkpt lat="48.21215" lon="3.26463">
        <ele>75</ele>
        <time>2014-04-20T09:19:51.979Z</time>
      </trkpt>
      <trkpt lat="48.21212" lon="3.2647">
        <ele>75</ele>
        <time>2014-04-20T09:19:52.979Z</time>
      </trkpt>
      <trkpt lat="48.21208" lon="3.26476">
        <ele>74</ele>
        <time>2014-04-20T09:19:53.979Z</time>
      </trkpt>
      <trkpt lat="48.21204" lon="3.26483">
        <ele>74</ele>
        <time>2014-04-20T09:19:54.979Z</time>
      </trkpt>
      <trkpt lat="48.212" lon="3.26489">
        <ele>73</ele>
        <time>2014-04-20T09:19:55.979Z</time>
      </trkpt>
      <trkpt lat="48.21197" lon="3.26496">
        <ele>73</ele>
        <time>2014-04-20T09:19:56.979Z</time>
      </trkpt>
      <trkpt lat="48.21191" lon="3.265">
        <ele>72</ele>
        <time>2014-04-20T09:19:57.979Z</time>
      </trkpt>
      <trkpt lat="48.21187" lon="3.26506">
        <ele>67</ele>
        <time>2014-04-20T09:19:58.979Z</time>
      </trkpt>
      <trkpt lat="48.21182" lon="3.26513">
        <ele>67</ele>
        <time>2014-04-20T09:19:59.979Z</time>
      </trkpt>
      <trkpt lat="48.21177" lon="3.26517">
        <ele>67</ele>
        <time>2014-04-20T09:20:00.979Z</time>
      </trkpt>
      <trkpt lat="48.21172" lon="3.26521">
        <ele>67</ele>
        <time>2014-04-20T09:20:01.979Z</time>
      </trkpt>
      <trkpt lat="48.21167" lon="3.26528">
        <ele>67</ele>
        <time>2014-04-20T09:20:02.979Z</time>
      </trkpt>
      <trkpt lat="48.21161" lon="3.26532">
        <ele>67</ele>
        <time>2014-04-20T09:20:03.979Z</time>
      </trkpt>
      <trkpt lat="48.21156" lon="3.26536">
        <ele>67</ele>
        <time>2014-04-20T09:20:04.979Z</time>
      </trkpt>
      <trkpt lat="48.21151" lon="3.26539">
        <ele>67</ele>
        <time>2014-04-20T09:20:05.979Z</time>
      </trkpt>
      <trkpt lat="48.21145" lon="3.26543">
        <ele>67</ele>
        <time>2014-04-20T09:20:06.979Z</time>
      </trkpt>
      <trkpt lat="48.2114" lon="3.26547">
        <ele>67</ele>
        <time>2014-04-20T09:20:07.979Z</time>
      </trkpt>
      <trkpt lat="48.21133" lon="3.26549">
        <ele>67</ele>
        <time>2014-04-20T09:20:08.979Z</time>
      </trkpt>
      <trkpt lat="48.21127" lon="3.26554">
        <ele>67</ele>
        <time>2014-04-20T09:20:09.979Z</time>
      </trkpt>
      <trkpt lat="48.21121" lon="3.26556">
        <ele>66</ele>
        <time>2014-04-20T09:20:10.979Z</time>
      </trkpt>
      <trkpt lat="48.21113" lon="3.26558">
        <ele>66</ele>
        <time>2014-04-20T09:20:11.979Z</time>
      </trkpt>
      <trkpt lat="48.21107" lon="3.2656">
        <ele>66</ele>
        <time>2014-04-20T09:20:12.979Z</time>
      </trkpt>
      <trkpt lat="48.211" lon="3.26562">
        <ele>66</ele>
        <time>2014-04-20T09:20:13.979Z</time>
      </trkpt>
      <trkpt lat="48.21093" lon="3.26562">
        <ele>66</ele>
        <time>2014-04-20T09:20:14.979Z</time>
      </trkpt>
      <trkpt lat="48.21086" lon="3.26562">
        <ele>66</ele>
        <time>2014-04-20T09:20:15.979Z</time>
      </trkpt>
      <trkpt lat="48.2108" lon="3.26562">
        <ele>66</ele>
        <time>2014-04-20T09:20:16.979Z</time>
      </trkpt>
      <trkpt lat="48.21072" lon="3.26562">
        <ele>66</ele>
        <time>2014-04-20T09:20:17.979Z</time>
      </trkpt>
      <trkpt lat="48.21066" lon="3.26562">
        <ele>66</ele>
        <time>2014-04-20T09:20:18.979Z</time>
      </trkpt>
      <trkpt lat="48.21059" lon="3.2656">
        <ele>66</ele>
        <time>2014-04-20T09:20:19.979Z</time>
      </trkpt>
      <trkpt lat="48.21053" lon="3.2656">
        <ele>66</ele>
        <time>2014-04-20T09:20:20.979Z</time>
      </trkpt>
      <trkpt lat="48.21048" lon="3.26558">
        <ele>66</ele>
        <time>2014-04-20T09:20:21.979Z</time>
      </trkpt>
      <trkpt lat="48.21041" lon="3.26556">
        <ele>66</ele>
        <time>2014-04-20T09:20:22.979Z</time>
      </trkpt>
      <trkpt lat="48.21035" lon="3.26556">
        <ele>66</ele>
        <time>2014-04-20T09:20:23.979Z</time>
      </trkpt>
      <trkpt lat="48.21029" lon="3.26554">
        <ele>66</ele>
        <time>2014-04-20T09:20:24.979Z</time>
      </trkpt>
      <trkpt lat="48.21023" lon="3.26551">
        <ele>66</ele>
        <time>2014-04-20T09:20:25.979Z</time>
      </trkpt>
      <trkpt lat="48.21018" lon="3.26549">
        <ele>66</ele>
        <time>2014-04-20T09:20:26.979Z</time>
      </trkpt>
      <trkpt lat="48.21011" lon="3.26549">
        <ele>66</ele>
        <time>2014-04-20T09:20:27.979Z</time>
      </trkpt>
      <trkpt lat="48.21006" lon="3.26547">
        <ele>66</ele>
        <time>2014-04-20T09:20:28.979Z</time>
      </trkpt>
      <trkpt lat="48.21" lon="3.26545">
        <ele>66</ele>
        <time>2014-04-20T09:20:29.979Z</time>
      </trkpt>
      <trkpt lat="48.20994" lon="3.26545">
        <ele>66</ele>
        <time>2014-04-20T09:20:30.979Z</time>
      </trkpt>
      <trkpt lat="48.20987" lon="3.26545">
        <ele>66</ele>
        <time>2014-04-20T09:20:31.979Z</time>
      </trkpt>
      <trkpt lat="48.20982" lon="3.26545">
        <ele>66</ele>
        <time>2014-04-20T09:20:32.979Z</time>
      </trkpt>
      <trkpt lat="48.20976" lon="3.26549">
        <ele>65</ele>
        <time>2014-04-20T09:20:33.979Z</time>
      </trkpt>
      <trkpt lat="48.20969" lon="3.26551">
        <ele>65</ele>
        <time>2014-04-20T09:20:34.979Z</time>
      </trkpt>
      <trkpt lat="48.20964" lon="3.26556">
        <ele>65</ele>
        <time>2014-04-20T09:20:35.979Z</time>
      </trkpt>
      <trkpt lat="48.20962" lon="3.26566">
        <ele>65</ele>
        <time>2014-04-20T09:20:36.979Z</time>
      </trkpt>
      <trkpt lat="48.20963" lon="3.26575">
        <ele>65</ele>
        <time>2014-04-20T09:20:37.979Z</time>
      </trkpt>
      <trkpt lat="48.20963" lon="3.26586">
        <ele>65</ele>
        <time>2014-04-20T09:20:38.979Z</time>
      </trkpt>
      <trkpt lat="48.20965" lon="3.26594">
        <ele>65</ele>
        <time>2014-04-20T09:20:39.979Z</time>
      </trkpt>
      <trkpt lat="48.20966" lon="3.26605">
        <ele>65</ele>
        <time>2014-04-20T09:20:40.979Z</time>
      </trkpt>
      <trkpt lat="48.20967" lon="3.26616">
        <ele>65</ele>
        <time>2014-04-20T09:20:41.979Z</time>
      </trkpt>
      <trkpt lat="48.20968" lon="3.26627">
        <ele>65</ele>
        <time>2014-04-20T09:20:42.979Z</time>
      </trkpt>
      <trkpt lat="48.20969" lon="3.26635">
        <ele>65</ele>
        <time>2014-04-20T09:20:43.979Z</time>
      </trkpt>
      <trkpt lat="48.2097" lon="3.26646">
        <ele>65</ele>
        <time>2014-04-20T09:20:44.979Z</time>
      </trkpt>
      <trkpt lat="48.20968" lon="3.26654">
        <ele>65</ele>
        <time>2014-04-20T09:20:45.979Z</time>
      </trkpt>
      <trkpt lat="48.20967" lon="3.26663">
        <ele>65</ele>
        <time>2014-04-20T09:20:46.979Z</time>
      </trkpt>
      <trkpt lat="48.20964" lon="3.26672">
        <ele>65</ele>
        <time>2014-04-20T09:20:47.979Z</time>
      </trkpt>
      <trkpt lat="48.20961" lon="3.2668">
        <ele>65</ele>
        <time>2014-04-20T09:20:48.979Z</time>
      </trkpt>
      <trkpt lat="48.20957" lon="3.26687">
        <ele>65</ele>
        <time>2014-04-20T09:20:49.979Z</time>
      </trkpt>
      <trkpt lat="48.20954" lon="3.26693">
        <ele>65</ele>
        <time>2014-04-20T09:20:50.979Z</time>
      </trkpt>
      <trkpt lat="48.2095" lon="3.26699">
        <ele>65</ele>
        <time>2014-04-20T09:20:51.979Z</time>
      </trkpt>
      <trkpt lat="48.20946" lon="3.26706">
        <ele>65</ele>
        <time>2014-04-20T09:20:52.979Z</time>
      </trkpt>
      <trkpt lat="48.20941" lon="3.26712">
        <ele>65</ele>
        <time>2014-04-20T09:20:53.979Z</time>
      </trkpt>
      <trkpt lat="48.20938" lon="3.26717">
        <ele>65</ele>
        <time>2014-04-20T09:20:54.979Z</time>
      </trkpt>
      <trkpt lat="48.20934" lon="3.26723">
        <ele>65</ele>
        <time>2014-04-20T09:20:55.979Z</time>
      </trkpt>
      <trkpt lat="48.2093" lon="3.26727">
        <ele>65</ele>
        <time>2014-04-20T09:20:56.979Z</time>
      </trkpt>
      <trkpt lat="48.20925" lon="3.26734">
        <ele>64</ele>
        <time>2014-04-20T09:20:57.979Z</time>
      </trkpt>
      <trkpt lat="48.20921" lon="3.2674">
        <ele>64</ele>
        <time>2014-04-20T09:20:58.979Z</time>
      </trkpt>
      <trkpt lat="48.20917" lon="3.26745">
        <ele>64</ele>
        <time>2014-04-20T09:20:59.979Z</time>
      </trkpt>
      <trkpt lat="48.20912" lon="3.26751">
        <ele>64</ele>
        <time>2014-04-20T09:21:00.979Z</time>
      </trkpt>
      <trkpt lat="48.20908" lon="3.26757">
        <ele>64</ele>
        <time>2014-04-20T09:21:01.979Z</time>
      </trkpt>
      <trkpt lat="48.20904" lon="3.26762">
        <ele>64</ele>
        <time>2014-04-20T09:21:02.979Z</time>
      </trkpt>
      <trkpt lat="48.20899" lon="3.26768">
        <ele>64</ele>
        <time>2014-04-20T09:21:03.979Z</time>
      </trkpt>
      <trkpt lat="48.20895" lon="3.26775">
        <ele>64</ele>
        <time>2014-04-20T09:21:04.979Z</time>
      </trkpt>
      <trkpt lat="48.20891" lon="3.26781">
        <ele>64</ele>
        <time>2014-04-20T09:21:05.979Z</time>
      </trkpt>
      <trkpt lat="48.20887" lon="3.26785">
        <ele>64</ele>
        <time>2014-04-20T09:21:06.979Z</time>
      </trkpt>
      <trkpt lat="48.20883" lon="3.26792">
        <ele>64</ele>
        <time>2014-04-20T09:21:07.979Z</time>
      </trkpt>
      <trkpt lat="48.20879" lon="3.26798">
        <ele>64</ele>
        <time>2014-04-20T09:21:08.979Z</time>
      </trkpt>
      <trkpt lat="48.20875" lon="3.26805">
        <ele>65</ele>
        <time>2014-04-20T09:21:09.979Z</time>
      </trkpt>
      <trkpt lat="48.20871" lon="3.26811">
        <ele>65</ele>
        <time>2014-04-20T09:21:10.979Z</time>
      </trkpt>
      <trkpt lat="48.20866" lon="3.26815">
        <ele>65</ele>
        <time>2014-04-20T09:21:11.979Z</time>
      </trkpt>
      <trkpt lat="48.20862" lon="3.26822">
        <ele>65</ele>
        <time>2014-04-20T09:21:12.979Z</time>
      </trkpt>
      <trkpt lat="48.20858" lon="3.26828">
        <ele>65</ele>
        <time>2014-04-20T09:21:13.979Z</time>
      </trkpt>
      <trkpt lat="48.20853" lon="3.26835">
        <ele>65</ele>
        <time>2014-04-20T09:21:14.979Z</time>
      </trkpt>
      <trkpt lat="48.2085" lon="3.26841">
        <ele>65</ele>
        <time>2014-04-20T09:21:15.979Z</time>
      </trkpt>
      <trkpt lat="48.20846" lon="3.26848">
        <ele>65</ele>
        <time>2014-04-20T09:21:16.979Z</time>
      </trkpt>
      <trkpt lat="48.20842" lon="3.26854">
        <ele>65</ele>
        <time>2014-04-20T09:21:17.979Z</time>
      </trkpt>
      <trkpt lat="48.20838" lon="3.2686">
        <ele>65</ele>
        <time>2014-04-20T09:21:18.979Z</time>
      </trkpt>
      <trkpt lat="48.20834" lon="3.26865">
        <ele>65</ele>
        <time>2014-04-20T09:21:19.979Z</time>
      </trkpt>
      <trkpt lat="48.2083" lon="3.26871">
        <ele>65</ele>
        <time>2014-04-20T09:21:20.979Z</time>
      </trkpt>
      <trkpt lat="48.20825" lon="3.26878">
        <ele>66</ele>
        <time>2014-04-20T09:21:21.979Z</time>
      </trkpt>
      <trkpt lat="48.20821" lon="3.26884">
        <ele>66</ele>
        <time>2014-04-20T09:21:22.979Z</time>
      </trkpt>
      <trkpt lat="48.20818" lon="3.2689">
        <ele>66</ele>
        <time>2014-04-20T09:21:23.979Z</time>
      </trkpt>
      <trkpt lat="48.20814" lon="3.26897">
        <ele>66</ele>
        <time>2014-04-20T09:21:24.979Z</time>
      </trkpt>
      <trkpt lat="48.20808" lon="3.26903">
        <ele>66</ele>
        <time>2014-04-20T09:21:25.979Z</time>
      </trkpt>
      <trkpt lat="48.20804" lon="3.2691">
        <ele>66</ele>
        <time>2014-04-20T09:21:26.979Z</time>
      </trkpt>
      <trkpt lat="48.208" lon="3.26916">
        <ele>66</ele>
        <time>2014-04-20T09:21:27.979Z</time>
      </trkpt>
      <trkpt lat="48.20794" lon="3.26921">
        <ele>65</ele>
        <time>2014-04-20T09:21:28.979Z</time>
      </trkpt>
      <trkpt lat="48.2079" lon="3.26927">
        <ele>65</ele>
        <time>2014-04-20T09:21:29.979Z</time>
      </trkpt>
      <trkpt lat="48.20786" lon="3.26933">
        <ele>65</ele>
        <time>2014-04-20T09:21:30.979Z</time>
      </trkpt>
      <trkpt lat="48.2078" lon="3.2694">
        <ele>64</ele>
        <time>2014-04-20T09:21:31.979Z</time>
      </trkpt>
      <trkpt lat="48.20776" lon="3.26946">
        <ele>64</ele>
        <time>2014-04-20T09:21:32.979Z</time>
      </trkpt>
      <trkpt lat="48.20772" lon="3.26953">
        <ele>64</ele>
        <time>2014-04-20T09:21:33.979Z</time>
      </trkpt>
      <trkpt lat="48.20766" lon="3.26959">
        <ele>64</ele>
        <time>2014-04-20T09:21:34.979Z</time>
      </trkpt>
      <trkpt lat="48.20762" lon="3.26966">
        <ele>64</ele>
        <time>2014-04-20T09:21:35.979Z</time>
      </trkpt>
      <trkpt lat="48.20758" lon="3.2697">
        <ele>64</ele>
        <time>2014-04-20T09:21:36.979Z</time>
      </trkpt>
      <trkpt lat="48.20753" lon="3.26976">
        <ele>64</ele>
        <time>2014-04-20T09:21:37.979Z</time>
      </trkpt>
      <trkpt lat="48.20748" lon="3.26981">
        <ele>64</ele>
        <time>2014-04-20T09:21:38.979Z</time>
      </trkpt>
      <trkpt lat="48.20744" lon="3.26987">
        <ele>64</ele>
        <time>2014-04-20T09:21:39.979Z</time>
      </trkpt>
      <trkpt lat="48.2074" lon="3.26991">
        <ele>64</ele>
        <time>2014-04-20T09:21:40.979Z</time>
      </trkpt>
      <trkpt lat="48.20735" lon="3.26996">
        <ele>64</ele>
        <time>2014-04-20T09:21:41.979Z</time>
      </trkpt>
      <trkpt lat="48.20731" lon="3.27">
        <ele>64</ele>
        <time>2014-04-20T09:21:42.979Z</time>
      </trkpt>
      <trkpt lat="48.20727" lon="3.27004">
        <ele>64</ele>
        <time>2014-04-20T09:21:43.979Z</time>
      </trkpt>
      <trkpt lat="48.20722" lon="3.27006">
        <ele>64</ele>
        <time>2014-04-20T09:21:44.979Z</time>
      </trkpt>
      <trkpt lat="48.20718" lon="3.27006">
        <ele>64</ele>
        <time>2014-04-20T09:21:45.979Z</time>
      </trkpt>
      <trkpt lat="48.20715" lon="3.27006">
        <ele>64</ele>
        <time>2014-04-20T09:21:46.979Z</time>
      </trkpt>
      <trkpt lat="48.20712" lon="3.27006">
        <ele>65</ele>
        <time>2014-04-20T09:21:47.979Z</time>
      </trkpt>
      <trkpt lat="48.20709" lon="3.27006">
        <ele>65</ele>
        <time>2014-04-20T09:21:48.979Z</time>
      </trkpt>
      <trkpt lat="48.20705" lon="3.27008">
        <ele>65</ele>
        <time>2014-04-20T09:21:49.979Z</time>
      </trkpt>
      <trkpt lat="48.20702" lon="3.27011">
        <ele>65</ele>
        <time>2014-04-20T09:21:50.979Z</time>
      </trkpt>
      <trkpt lat="48.20699" lon="3.27013">
        <ele>65</ele>
        <time>2014-04-20T09:21:51.979Z</time>
      </trkpt>
      <trkpt lat="48.20695" lon="3.27015">
        <ele>65</ele>
        <time>2014-04-20T09:21:52.979Z</time>
      </trkpt>
      <trkpt lat="48.20691" lon="3.27019">
        <ele>65</ele>
        <time>2014-04-20T09:21:53.979Z</time>
      </trkpt>
      <trkpt lat="48.20688" lon="3.27024">
        <ele>65</ele>
        <time>2014-04-20T09:21:54.979Z</time>
      </trkpt>
      <trkpt lat="48.20685" lon="3.2703">
        <ele>65</ele>
        <time>2014-04-20T09:21:55.979Z</time>
      </trkpt>
      <trkpt lat="48.20682" lon="3.27034">
        <ele>65</ele>
        <time>2014-04-20T09:21:56.979Z</time>
      </trkpt>
      <trkpt lat="48.20677" lon="3.27039">
        <ele>65</ele>
        <time>2014-04-20T09:21:57.979Z</time>
      </trkpt>
      <trkpt lat="48.20673" lon="3.27043">
        <ele>65</ele>
        <time>2014-04-20T09:21:58.979Z</time>
      </trkpt>
      <trkpt lat="48.20669" lon="3.27045">
        <ele>65</ele>
        <time>2014-04-20T09:21:59.979Z</time>
      </trkpt>
      <trkpt lat="48.20665" lon="3.27049">
        <ele>66</ele>
        <time>2014-04-20T09:22:00.979Z</time>
      </trkpt>
      <trkpt lat="48.20659" lon="3.27051">
        <ele>66</ele>
        <time>2014-04-20T09:22:01.979Z</time>
      </trkpt>
      <trkpt lat="48.20655" lon="3.27056">
        <ele>66</ele>
        <time>2014-04-20T09:22:02.979Z</time>
      </trkpt>
      <trkpt lat="48.2065" lon="3.27058">
        <ele>66</ele>
        <time>2014-04-20T09:22:03.979Z</time>
      </trkpt>
      <trkpt lat="48.20644" lon="3.2706">
        <ele>67</ele>
        <time>2014-04-20T09:22:04.979Z</time>
      </trkpt>
      <trkpt lat="48.20639" lon="3.27062">
        <ele>67</ele>
        <time>2014-04-20T09:22:05.979Z</time>
      </trkpt>
      <trkpt lat="48.20633" lon="3.27064">
        <ele>67</ele>
        <time>2014-04-20T09:22:06.979Z</time>
      </trkpt>
      <trkpt lat="48.20628" lon="3.27066">
        <ele>67</ele>
        <time>2014-04-20T09:22:07.979Z</time>
      </trkpt>
      <trkpt lat="48.20623" lon="3.27069">
        <ele>67</ele>
        <time>2014-04-20T09:22:08.979Z</time>
      </trkpt>
      <trkpt lat="48.20617" lon="3.27071">
        <ele>67</ele>
        <time>2014-04-20T09:22:09.979Z</time>
      </trkpt>
      <trkpt lat="48.20612" lon="3.27075">
        <ele>67</ele>
        <time>2014-04-20T09:22:10.979Z</time>
      </trkpt>
      <trkpt lat="48.20607" lon="3.27077">
        <ele>67</ele>
        <time>2014-04-20T09:22:11.979Z</time>
      </trkpt>
      <trkpt lat="48.206" lon="3.27079">
        <ele>67</ele>
        <time>2014-04-20T09:22:12.979Z</time>
      </trkpt>
      <trkpt lat="48.20595" lon="3.27081">
        <ele>67</ele>
        <time>2014-04-20T09:22:13.979Z</time>
      </trkpt>
      <trkpt lat="48.20588" lon="3.27086">
        <ele>67</ele>
        <time>2014-04-20T09:22:14.979Z</time>
      </trkpt>
      <trkpt lat="48.20583" lon="3.27088">
        <ele>67</ele>
        <time>2014-04-20T09:22:15.979Z</time>
      </trkpt>
      <trkpt lat="48.20577" lon="3.2709">
        <ele>66</ele>
        <time>2014-04-20T09:22:16.979Z</time>
      </trkpt>
      <trkpt lat="48.2057" lon="3.27094">
        <ele>66</ele>
        <time>2014-04-20T09:22:17.979Z</time>
      </trkpt>
      <trkpt lat="48.20565" lon="3.27096">
        <ele>66</ele>
        <time>2014-04-20T09:22:18.979Z</time>
      </trkpt>
      <trkpt lat="48.20558" lon="3.27099">
        <ele>66</ele>
        <time>2014-04-20T09:22:19.979Z</time>
      </trkpt>
      <trkpt lat="48.20553" lon="3.27103">
        <ele>66</ele>
        <time>2014-04-20T09:22:20.979Z</time>
      </trkpt>
      <trkpt lat="48.20547" lon="3.27105">
        <ele>66</ele>
        <time>2014-04-20T09:22:21.979Z</time>
      </trkpt>
      <trkpt lat="48.2054" lon="3.27109">
        <ele>66</ele>
        <time>2014-04-20T09:22:22.979Z</time>
      </trkpt>
      <trkpt lat="48.20535" lon="3.27111">
        <ele>66</ele>
        <time>2014-04-20T09:22:23.979Z</time>
      </trkpt>
      <trkpt lat="48.20528" lon="3.27116">
        <ele>66</ele>
        <time>2014-04-20T09:22:24.979Z</time>
      </trkpt>
      <trkpt lat="48.20522" lon="3.27118">
        <ele>66</ele>
        <time>2014-04-20T09:22:25.979Z</time>
      </trkpt>
      <trkpt lat="48.20515" lon="3.27122">
        <ele>66</ele>
        <time>2014-04-20T09:22:26.979Z</time>
      </trkpt>
      <trkpt lat="48.20509" lon="3.27124">
        <ele>66</ele>
        <time>2014-04-20T09:22:27.979Z</time>
      </trkpt>
      <trkpt lat="48.20503" lon="3.27129">
        <ele>65</ele>
        <time>2014-04-20T09:22:28.979Z</time>
      </trkpt>
      <trkpt lat="48.20496" lon="3.27133">
        <ele>65</ele>
        <time>2014-04-20T09:22:29.979Z</time>
      </trkpt>
      <trkpt lat="48.2049" lon="3.27135">
        <ele>65</ele>
        <time>2014-04-20T09:22:30.979Z</time>
      </trkpt>
      <trkpt lat="48.20483" lon="3.27139">
        <ele>65</ele>
        <time>2014-04-20T09:22:31.979Z</time>
      </trkpt>
      <trkpt lat="48.20477" lon="3.27144">
        <ele>65</ele>
        <time>2014-04-20T09:22:32.979Z</time>
      </trkpt>
      <trkpt lat="48.2047" lon="3.27148">
        <ele>65</ele>
        <time>2014-04-20T09:22:33.979Z</time>
      </trkpt>
      <trkpt lat="48.20464" lon="3.2715">
        <ele>65</ele>
        <time>2014-04-20T09:22:34.979Z</time>
      </trkpt>
      <trkpt lat="48.20457" lon="3.27154">
        <ele>65</ele>
        <time>2014-04-20T09:22:35.979Z</time>
      </trkpt>
      <trkpt lat="48.20451" lon="3.27157">
        <ele>65</ele>
        <time>2014-04-20T09:22:36.979Z</time>
      </trkpt>
      <trkpt lat="48.20446" lon="3.27161">
        <ele>65</ele>
        <time>2014-04-20T09:22:37.979Z</time>
      </trkpt>
      <trkpt lat="48.2044" lon="3.27163">
        <ele>65</ele>
        <time>2014-04-20T09:22:38.979Z</time>
      </trkpt>
      <trkpt lat="48.20436" lon="3.27167">
        <ele>65</ele>
        <time>2014-04-20T09:22:39.979Z</time>
      </trkpt>
      <trkpt lat="48.20432" lon="3.27172">
        <ele>65</ele>
        <time>2014-04-20T09:22:40.979Z</time>
      </trkpt>
      <trkpt lat="48.2043" lon="3.27178">
        <ele>65</ele>
        <time>2014-04-20T09:22:41.979Z</time>
      </trkpt>
      <trkpt lat="48.20426" lon="3.27184">
        <ele>65</ele>
        <time>2014-04-20T09:22:42.979Z</time>
      </trkpt>
      <trkpt lat="48.20426" lon="3.27191">
        <ele>65</ele>
        <time>2014-04-20T09:22:43.979Z</time>
      </trkpt>
      <trkpt lat="48.20427" lon="3.27197">
        <ele>65</ele>
        <time>2014-04-20T09:22:44.979Z</time>
      </trkpt>
      <trkpt lat="48.20428" lon="3.27204">
        <ele>65</ele>
        <time>2014-04-20T09:22:45.979Z</time>
      </trkpt>
      <trkpt lat="48.2043" lon="3.27212">
        <ele>66</ele>
        <time>2014-04-20T09:22:46.979Z</time>
      </trkpt>
      <trkpt lat="48.20431" lon="3.27219">
        <ele>66</ele>
        <time>2014-04-20T09:22:47.979Z</time>
      </trkpt>
      <trkpt lat="48.20432" lon="3.27227">
        <ele>66</ele>
        <time>2014-04-20T09:22:48.979Z</time>
      </trkpt>
      <trkpt lat="48.20434" lon="3.27236">
        <ele>66</ele>
        <time>2014-04-20T09:22:49.979Z</time>
      </trkpt>
      <trkpt lat="48.20435" lon="3.27242">
        <ele>66</ele>
        <time>2014-04-20T09:22:50.979Z</time>
      </trkpt>
      <trkpt lat="48.20436" lon="3.27251">
        <ele>66</ele>
        <time>2014-04-20T09:22:51.979Z</time>
      </trkpt>
      <trkpt lat="48.20437" lon="3.2726">
        <ele>66</ele>
        <time>2014-04-20T09:22:52.979Z</time>
      </trkpt>
      <trkpt lat="48.20438" lon="3.27266">
        <ele>66</ele>
        <time>2014-04-20T09:22:53.979Z</time>
      </trkpt>
      <trkpt lat="48.2044" lon="3.27275">
        <ele>66</ele>
        <time>2014-04-20T09:22:54.979Z</time>
      </trkpt>
      <trkpt lat="48.20441" lon="3.27283">
        <ele>66</ele>
        <time>2014-04-20T09:22:55.979Z</time>
      </trkpt>
      <trkpt lat="48.20442" lon="3.2729">
        <ele>66</ele>
        <time>2014-04-20T09:22:56.979Z</time>
      </trkpt>
      <trkpt lat="48.20444" lon="3.27296">
        <ele>66</ele>
        <time>2014-04-20T09:22:57.979Z</time>
      </trkpt>
      <trkpt lat="48.20445" lon="3.27305">
        <ele>66</ele>
        <time>2014-04-20T09:22:58.979Z</time>
      </trkpt>
      <trkpt lat="48.20446" lon="3.27311">
        <ele>66</ele>
        <time>2014-04-20T09:22:59.979Z</time>
      </trkpt>
      <trkpt lat="48.20447" lon="3.27317">
        <ele>66</ele>
        <time>2014-04-20T09:23:00.979Z</time>
      </trkpt>
      <trkpt lat="48.20448" lon="3.27322">
        <ele>66</ele>
        <time>2014-04-20T09:23:01.979Z</time>
      </trkpt>
      <trkpt lat="48.20449" lon="3.27328">
        <ele>66</ele>
        <time>2014-04-20T09:23:02.979Z</time>
      </trkpt>
      <trkpt lat="48.2045" lon="3.27335">
        <ele>67</ele>
        <time>2014-04-20T09:23:03.979Z</time>
      </trkpt>
      <trkpt lat="48.2045" lon="3.27341">
        <ele>67</ele>
        <time>2014-04-20T09:23:04.979Z</time>
      </trkpt>
      <trkpt lat="48.20452" lon="3.27348">
        <ele>67</ele>
        <time>2014-04-20T09:23:05.979Z</time>
      </trkpt>
      <trkpt lat="48.20453" lon="3.27354">
        <ele>67</ele>
        <time>2014-04-20T09:23:06.979Z</time>
      </trkpt>
      <trkpt lat="48.20453" lon="3.2736">
        <ele>67</ele>
        <time>2014-04-20T09:23:07.979Z</time>
      </trkpt>
      <trkpt lat="48.20454" lon="3.27367">
        <ele>67</ele>
        <time>2014-04-20T09:23:08.979Z</time>
      </trkpt>
      <trkpt lat="48.20455" lon="3.27373">
        <ele>67</ele>
        <time>2014-04-20T09:23:09.979Z</time>
      </trkpt>
      <trkpt lat="48.20457" lon="3.27382">
        <ele>67</ele>
        <time>2014-04-20T09:23:10.979Z</time>
      </trkpt>
      <trkpt lat="48.20459" lon="3.27388">
        <ele>67</ele>
        <time>2014-04-20T09:23:11.979Z</time>
      </trkpt>
      <trkpt lat="48.2046" lon="3.27395">
        <ele>67</ele>
        <time>2014-04-20T09:23:12.979Z</time>
      </trkpt>
      <trkpt lat="48.20461" lon="3.27401">
        <ele>67</ele>
        <time>2014-04-20T09:23:13.979Z</time>
      </trkpt>
      <trkpt lat="48.20462" lon="3.27408">
        <ele>67</ele>
        <time>2014-04-20T09:23:14.979Z</time>
      </trkpt>
      <trkpt lat="48.20463" lon="3.27416">
        <ele>67</ele>
        <time>2014-04-20T09:23:15.979Z</time>
      </trkpt>
      <trkpt lat="48.20465" lon="3.27423">
        <ele>67</ele>
        <time>2014-04-20T09:23:16.979Z</time>
      </trkpt>
      <trkpt lat="48.20466" lon="3.27429">
        <ele>67</ele>
        <time>2014-04-20T09:23:17.979Z</time>
      </trkpt>
      <trkpt lat="48.20467" lon="3.27435">
        <ele>67</ele>
        <time>2014-04-20T09:23:18.979Z</time>
      </trkpt>
      <trkpt lat="48.20468" lon="3.27442">
        <ele>67</ele>
        <time>2014-04-20T09:23:19.979Z</time>
      </trkpt>
      <trkpt lat="48.20469" lon="3.27448">
        <ele>67</ele>
        <time>2014-04-20T09:23:20.979Z</time>
      </trkpt>
      <trkpt lat="48.2047" lon="3.27457">
        <ele>67</ele>
        <time>2014-04-20T09:23:21.979Z</time>
      </trkpt>
      <trkpt lat="48.20471" lon="3.27463">
        <ele>67</ele>
        <time>2014-04-20T09:23:22.979Z</time>
      </trkpt>
      <trkpt lat="48.20472" lon="3.2747">
        <ele>66</ele>
        <time>2014-04-20T09:23:23.979Z</time>
      </trkpt>
      <trkpt lat="48.20474" lon="3.27476">
        <ele>66</ele>
        <time>2014-04-20T09:23:24.979Z</time>
      </trkpt>
      <trkpt lat="48.20475" lon="3.27483">
        <ele>66</ele>
        <time>2014-04-20T09:23:25.979Z</time>
      </trkpt>
      <trkpt lat="48.20477" lon="3.27491">
        <ele>66</ele>
        <time>2014-04-20T09:23:26.979Z</time>
      </trkpt>
      <trkpt lat="48.20478" lon="3.27498">
        <ele>66</ele>
        <time>2014-04-20T09:23:27.979Z</time>
      </trkpt>
      <trkpt lat="48.20479" lon="3.27504">
        <ele>65</ele>
        <time>2014-04-20T09:23:28.979Z</time>
      </trkpt>
      <trkpt lat="48.2048" lon="3.27511">
        <ele>65</ele>
        <time>2014-04-20T09:23:29.979Z</time>
      </trkpt>
      <trkpt lat="48.20481" lon="3.27519">
        <ele>66</ele>
        <time>2014-04-20T09:23:30.979Z</time>
      </trkpt>
      <trkpt lat="48.20482" lon="3.27526">
        <ele>66</ele>
        <time>2014-04-20T09:23:31.979Z</time>
      </trkpt>
      <trkpt lat="48.20483" lon="3.27534">
        <ele>66</ele>
        <time>2014-04-20T09:23:32.979Z</time>
      </trkpt>
      <trkpt lat="48.20485" lon="3.27541">
        <ele>66</ele>
        <time>2014-04-20T09:23:33.979Z</time>
      </trkpt>
      <trkpt lat="48.20486" lon="3.27549">
        <ele>66</ele>
        <time>2014-04-20T09:23:34.979Z</time>
      </trkpt>
      <trkpt lat="48.20487" lon="3.27556">
        <ele>65</ele>
        <time>2014-04-20T09:23:35.979Z</time>
      </trkpt>
      <trkpt lat="48.20489" lon="3.27564">
        <ele>65</ele>
        <time>2014-04-20T09:23:36.979Z</time>
      </trkpt>
      <trkpt lat="48.2049" lon="3.27571">
        <ele>65</ele>
        <time>2014-04-20T09:23:37.979Z</time>
      </trkpt>
      <trkpt lat="48.20491" lon="3.27579">
        <ele>65</ele>
        <time>2014-04-20T09:23:38.979Z</time>
      </trkpt>
      <trkpt lat="48.20492" lon="3.27586">
        <ele>65</ele>
        <time>2014-04-20T09:23:39.979Z</time>
      </trkpt>
      <trkpt lat="48.20493" lon="3.27594">
        <ele>65</ele>
        <time>2014-04-20T09:23:40.979Z</time>
      </trkpt>
      <trkpt lat="48.20495" lon="3.27603">
        <ele>65</ele>
        <time>2014-04-20T09:23:41.979Z</time>
      </trkpt>
      <trkpt lat="48.20496" lon="3.27611">
        <ele>65</ele>
        <time>2014-04-20T09:23:42.979Z</time>
      </trkpt>
      <trkpt lat="48.20497" lon="3.27622">
        <ele>65</ele>
        <time>2014-04-20T09:23:43.979Z</time>
      </trkpt>
      <trkpt lat="48.20499" lon="3.27631">
        <ele>65</ele>
        <time>2014-04-20T09:23:44.979Z</time>
      </trkpt>
      <trkpt lat="48.205" lon="3.27641">
        <ele>65</ele>
        <time>2014-04-20T09:23:45.979Z</time>
      </trkpt>
      <trkpt lat="48.20503" lon="3.2765">
        <ele>65</ele>
        <time>2014-04-20T09:23:46.979Z</time>
      </trkpt>
      <trkpt lat="48.20504" lon="3.27661">
        <ele>64</ele>
        <time>2014-04-20T09:23:47.979Z</time>
      </trkpt>
      <trkpt lat="48.20506" lon="3.27672">
        <ele>64</ele>
        <time>2014-04-20T09:23:48.979Z</time>
      </trkpt>
      <trkpt lat="48.20508" lon="3.27682">
        <ele>65</ele>
        <time>2014-04-20T09:23:49.979Z</time>
      </trkpt>
      <trkpt lat="48.20509" lon="3.27693">
        <ele>65</ele>
        <time>2014-04-20T09:23:50.979Z</time>
      </trkpt>
      <trkpt lat="48.20511" lon="3.27704">
        <ele>65</ele>
        <time>2014-04-20T09:23:51.979Z</time>
      </trkpt>
      <trkpt lat="48.20512" lon="3.27717">
        <ele>65</ele>
        <time>2014-04-20T09:23:52.979Z</time>
      </trkpt>
      <trkpt lat="48.20514" lon="3.27727">
        <ele>65</ele>
        <time>2014-04-20T09:23:53.979Z</time>
      </trkpt>
      <trkpt lat="48.20513" lon="3.27738">
        <ele>65</ele>
        <time>2014-04-20T09:23:54.979Z</time>
      </trkpt>
      <trkpt lat="48.2051" lon="3.27749">
        <ele>64</ele>
        <time>2014-04-20T09:23:55.979Z</time>
      </trkpt>
      <trkpt lat="48.20507" lon="3.2776">
        <ele>64</ele>
        <time>2014-04-20T09:23:56.979Z</time>
      </trkpt>
      <trkpt lat="48.20504" lon="3.27768">
        <ele>64</ele>
        <time>2014-04-20T09:23:57.979Z</time>
      </trkpt>
      <trkpt lat="48.205" lon="3.27779">
        <ele>64</ele>
        <time>2014-04-20T09:23:58.979Z</time>
      </trkpt>
      <trkpt lat="48.20494" lon="3.27783">
        <ele>64</ele>
        <time>2014-04-20T09:23:59.979Z</time>
      </trkpt>
      <trkpt lat="48.20487" lon="3.2779">
        <ele>65</ele>
        <time>2014-04-20T09:24:00.979Z</time>
      </trkpt>
      <trkpt lat="48.20482" lon="3.27794">
        <ele>65</ele>
        <time>2014-04-20T09:24:01.979Z</time>
      </trkpt>
      <trkpt lat="48.20476" lon="3.27798">
        <ele>65</ele>
        <time>2014-04-20T09:24:02.979Z</time>
      </trkpt>
      <trkpt lat="48.2047" lon="3.27802">
        <ele>65</ele>
        <time>2014-04-20T09:24:03.979Z</time>
      </trkpt>
      <trkpt lat="48.20464" lon="3.27807">
        <ele>65</ele>
        <time>2014-04-20T09:24:04.979Z</time>
      </trkpt>
      <trkpt lat="48.20457" lon="3.27811">
        <ele>65</ele>
        <time>2014-04-20T09:24:05.979Z</time>
      </trkpt>
      <trkpt lat="48.20451" lon="3.27815">
        <ele>65</ele>
        <time>2014-04-20T09:24:06.979Z</time>
      </trkpt>
      <trkpt lat="48.20445" lon="3.2782">
        <ele>65</ele>
        <time>2014-04-20T09:24:07.979Z</time>
      </trkpt>
      <trkpt lat="48.20439" lon="3.27826">
        <ele>65</ele>
        <time>2014-04-20T09:24:08.979Z</time>
      </trkpt>
      <trkpt lat="48.20434" lon="3.2783">
        <ele>65</ele>
        <time>2014-04-20T09:24:09.979Z</time>
      </trkpt>
      <trkpt lat="48.20428" lon="3.27837">
        <ele>65</ele>
        <time>2014-04-20T09:24:10.979Z</time>
      </trkpt>
      <trkpt lat="48.20423" lon="3.27843">
        <ele>65</ele>
        <time>2014-04-20T09:24:11.979Z</time>
      </trkpt>
      <trkpt lat="48.20418" lon="3.27847">
        <ele>65</ele>
        <time>2014-04-20T09:24:12.979Z</time>
      </trkpt>
      <trkpt lat="48.20412" lon="3.27854">
        <ele>66</ele>
        <time>2014-04-20T09:24:13.979Z</time>
      </trkpt>
      <trkpt lat="48.20407" lon="3.2786">
        <ele>66</ele>
        <time>2014-04-20T09:24:14.979Z</time>
      </trkpt>
      <trkpt lat="48.20402" lon="3.27867">
        <ele>66</ele>
        <time>2014-04-20T09:24:15.979Z</time>
      </trkpt>
      <trkpt lat="48.20396" lon="3.27871">
        <ele>67</ele>
        <time>2014-04-20T09:24:16.979Z</time>
      </trkpt>
      <trkpt lat="48.20391" lon="3.27878">
        <ele>67</ele>
        <time>2014-04-20T09:24:17.979Z</time>
      </trkpt>
      <trkpt lat="48.20386" lon="3.27884">
        <ele>67</ele>
        <time>2014-04-20T09:24:18.979Z</time>
      </trkpt>
      <trkpt lat="48.2038" lon="3.2789">
        <ele>67</ele>
        <time>2014-04-20T09:24:19.979Z</time>
      </trkpt>
      <trkpt lat="48.20375" lon="3.27897">
        <ele>67</ele>
        <time>2014-04-20T09:24:20.979Z</time>
      </trkpt>
      <trkpt lat="48.20369" lon="3.27903">
        <ele>67</ele>
        <time>2014-04-20T09:24:21.979Z</time>
      </trkpt>
      <trkpt lat="48.20364" lon="3.27912">
        <ele>67</ele>
        <time>2014-04-20T09:24:22.979Z</time>
      </trkpt>
      <trkpt lat="48.20359" lon="3.27918">
        <ele>67</ele>
        <time>2014-04-20T09:24:23.979Z</time>
      </trkpt>
      <trkpt lat="48.20353" lon="3.27925">
        <ele>67</ele>
        <time>2014-04-20T09:24:24.979Z</time>
      </trkpt>
      <trkpt lat="48.20348" lon="3.27929">
        <ele>67</ele>
        <time>2014-04-20T09:24:25.979Z</time>
      </trkpt>
      <trkpt lat="48.20343" lon="3.27935">
        <ele>67</ele>
        <time>2014-04-20T09:24:26.979Z</time>
      </trkpt>
      <trkpt lat="48.20337" lon="3.27942">
        <ele>67</ele>
        <time>2014-04-20T09:24:27.979Z</time>
      </trkpt>
      <trkpt lat="48.20332" lon="3.27948">
        <ele>67</ele>
        <time>2014-04-20T09:24:28.979Z</time>
      </trkpt>
      <trkpt lat="48.20328" lon="3.27953">
        <ele>67</ele>
        <time>2014-04-20T09:24:29.979Z</time>
      </trkpt>
      <trkpt lat="48.20322" lon="3.27957">
        <ele>67</ele>
        <time>2014-04-20T09:24:30.979Z</time>
      </trkpt>
      <trkpt lat="48.20318" lon="3.27961">
        <ele>67</ele>
        <time>2014-04-20T09:24:31.979Z</time>
      </trkpt>
      <trkpt lat="48.20314" lon="3.27965">
        <ele>67</ele>
        <time>2014-04-20T09:24:32.979Z</time>
      </trkpt>
      <trkpt lat="48.20309" lon="3.2797">
        <ele>67</ele>
        <time>2014-04-20T09:24:33.979Z</time>
      </trkpt>
      <trkpt lat="48.20305" lon="3.27974">
        <ele>67</ele>
        <time>2014-04-20T09:24:34.979Z</time>
      </trkpt>
      <trkpt lat="48.20301" lon="3.27978">
        <ele>67</ele>
        <time>2014-04-20T09:24:35.979Z</time>
      </trkpt>
      <trkpt lat="48.20298" lon="3.27983">
        <ele>67</ele>
        <time>2014-04-20T09:24:36.979Z</time>
      </trkpt>
      <trkpt lat="48.20293" lon="3.27985">
        <ele>67</ele>
        <time>2014-04-20T09:24:37.979Z</time>
      </trkpt>
      <trkpt lat="48.20289" lon="3.27989">
        <ele>67</ele>
        <time>2014-04-20T09:24:38.979Z</time>
      </trkpt>
      <trkpt lat="48.20286" lon="3.27993">
        <ele>67</ele>
        <time>2014-04-20T09:24:39.979Z</time>
      </trkpt>
      <trkpt lat="48.20283" lon="3.27998">
        <ele>67</ele>
        <time>2014-04-20T09:24:40.979Z</time>
      </trkpt>
      <trkpt lat="48.20279" lon="3.28">
        <ele>67</ele>
        <time>2014-04-20T09:24:41.979Z</time>
      </trkpt>
      <trkpt lat="48.20276" lon="3.28004">
        <ele>67</ele>
        <time>2014-04-20T09:24:42.979Z</time>
      </trkpt>
      <trkpt lat="48.20273" lon="3.28006">
        <ele>67</ele>
        <time>2014-04-20T09:24:43.979Z</time>
      </trkpt>
      <trkpt lat="48.20271" lon="3.28011">
        <ele>67</ele>
        <time>2014-04-20T09:24:44.979Z</time>
      </trkpt>
      <trkpt lat="48.20269" lon="3.28013">
        <ele>67</ele>
        <time>2014-04-20T09:24:45.979Z</time>
      </trkpt>
      <trkpt lat="48.20266" lon="3.28015">
        <ele>67</ele>
        <time>2014-04-20T09:24:46.979Z</time>
      </trkpt>
      <trkpt lat="48.20263" lon="3.28019">
        <ele>67</ele>
        <time>2014-04-20T09:24:48.979Z</time>
      </trkpt>
      <trkpt lat="48.20261" lon="3.28021">
        <ele>67</ele>
        <time>2014-04-20T09:24:49.979Z</time>
      </trkpt>
      <trkpt lat="48.2026" lon="3.28023">
        <ele>67</ele>
        <time>2014-04-20T09:24:55.979Z</time>
      </trkpt>
      <trkpt lat="48.2025" lon="3.28032">
        <ele>67</ele>
        <time>2014-04-20T09:24:56.979Z</time>
      </trkpt>
      <trkpt lat="48.2025" lon="3.28032">
        <ele>67</ele>
        <time>2014-04-20T09:24:58.979Z</time>
      </trkpt>
      <trkpt lat="48.20245" lon="3.28036">
        <ele>68</ele>
        <time>2014-04-20T09:24:59.979Z</time>
      </trkpt>
      <trkpt lat="48.20245" lon="3.28036">
        <ele>68</ele>
        <time>2014-04-20T09:25:00.979Z</time>
      </trkpt>
      <trkpt lat="48.20241" lon="3.28038">
        <ele>68</ele>
        <time>2014-04-20T09:25:01.979Z</time>
      </trkpt>
      <trkpt lat="48.20239" lon="3.28041">
        <ele>68</ele>
        <time>2014-04-20T09:25:05.979Z</time>
      </trkpt>
      <trkpt lat="48.20231" lon="3.28047">
        <ele>68</ele>
        <time>2014-04-20T09:25:06.979Z</time>
      </trkpt>
      <trkpt lat="48.20229" lon="3.28049">
        <ele>68</ele>
        <time>2014-04-20T09:25:07.979Z</time>
      </trkpt>
      <trkpt lat="48.20227" lon="3.28051">
        <ele>68</ele>
        <time>2014-04-20T09:25:08.979Z</time>
      </trkpt>
      <trkpt lat="48.20224" lon="3.28056">
        <ele>68</ele>
        <time>2014-04-20T09:25:09.979Z</time>
      </trkpt>
      <trkpt lat="48.2022" lon="3.28058">
        <ele>68</ele>
        <time>2014-04-20T09:25:10.979Z</time>
      </trkpt>
      <trkpt lat="48.20217" lon="3.2806">
        <ele>68</ele>
        <time>2014-04-20T09:25:11.979Z</time>
      </trkpt>
      <trkpt lat="48.20214" lon="3.28064">
        <ele>68</ele>
        <time>2014-04-20T09:25:12.979Z</time>
      </trkpt>
      <trkpt lat="48.20211" lon="3.28068">
        <ele>68</ele>
        <time>2014-04-20T09:25:13.979Z</time>
      </trkpt>
      <trkpt lat="48.20207" lon="3.28071">
        <ele>68</ele>
        <time>2014-04-20T09:25:14.979Z</time>
      </trkpt>
      <trkpt lat="48.20204" lon="3.28075">
        <ele>68</ele>
        <time>2014-04-20T09:25:15.979Z</time>
      </trkpt>
      <trkpt lat="48.20201" lon="3.28081">
        <ele>69</ele>
        <time>2014-04-20T09:25:16.979Z</time>
      </trkpt>
      <trkpt lat="48.20197" lon="3.28086">
        <ele>69</ele>
        <time>2014-04-20T09:25:17.979Z</time>
      </trkpt>
      <trkpt lat="48.20194" lon="3.2809">
        <ele>69</ele>
        <time>2014-04-20T09:25:18.979Z</time>
      </trkpt>
      <trkpt lat="48.2019" lon="3.28096">
        <ele>69</ele>
        <time>2014-04-20T09:25:19.979Z</time>
      </trkpt>
      <trkpt lat="48.20186" lon="3.28101">
        <ele>69</ele>
        <time>2014-04-20T09:25:20.979Z</time>
      </trkpt>
      <trkpt lat="48.20183" lon="3.28107">
        <ele>69</ele>
        <time>2014-04-20T09:25:21.979Z</time>
      </trkpt>
      <trkpt lat="48.2018" lon="3.28111">
        <ele>69</ele>
        <time>2014-04-20T09:25:22.979Z</time>
      </trkpt>
      <trkpt lat="48.20176" lon="3.28116">
        <ele>69</ele>
        <time>2014-04-20T09:25:23.979Z</time>
      </trkpt>
      <trkpt lat="48.20172" lon="3.28122">
        <ele>69</ele>
        <time>2014-04-20T09:25:24.979Z</time>
      </trkpt>
      <trkpt lat="48.20169" lon="3.28126">
        <ele>69</ele>
        <time>2014-04-20T09:25:25.979Z</time>
      </trkpt>
      <trkpt lat="48.20166" lon="3.28131">
        <ele>70</ele>
        <time>2014-04-20T09:25:26.979Z</time>
      </trkpt>
      <trkpt lat="48.20162" lon="3.28133">
        <ele>70</ele>
        <time>2014-04-20T09:25:27.979Z</time>
      </trkpt>
      <trkpt lat="48.20158" lon="3.28139">
        <ele>70</ele>
        <time>2014-04-20T09:25:28.979Z</time>
      </trkpt>
      <trkpt lat="48.20155" lon="3.28144">
        <ele>71</ele>
        <time>2014-04-20T09:25:29.979Z</time>
      </trkpt>
      <trkpt lat="48.20152" lon="3.28148">
        <ele>71</ele>
        <time>2014-04-20T09:25:30.979Z</time>
      </trkpt>
      <trkpt lat="48.20147" lon="3.28152">
        <ele>71</ele>
        <time>2014-04-20T09:25:31.979Z</time>
      </trkpt>
      <trkpt lat="48.20144" lon="3.28156">
        <ele>71</ele>
        <time>2014-04-20T09:25:32.979Z</time>
      </trkpt>
      <trkpt lat="48.2014" lon="3.28161">
        <ele>71</ele>
        <time>2014-04-20T09:25:33.979Z</time>
      </trkpt>
      <trkpt lat="48.20137" lon="3.28165">
        <ele>71</ele>
        <time>2014-04-20T09:25:34.979Z</time>
      </trkpt>
      <trkpt lat="48.20132" lon="3.28169">
        <ele>71</ele>
        <time>2014-04-20T09:25:35.979Z</time>
      </trkpt>
      <trkpt lat="48.20128" lon="3.28174">
        <ele>71</ele>
        <time>2014-04-20T09:25:36.979Z</time>
      </trkpt>
      <trkpt lat="48.20124" lon="3.28178">
        <ele>71</ele>
        <time>2014-04-20T09:25:37.979Z</time>
      </trkpt>
      <trkpt lat="48.2012" lon="3.2818">
        <ele>71</ele>
        <time>2014-04-20T09:25:38.979Z</time>
      </trkpt>
      <trkpt lat="48.20114" lon="3.28182">
        <ele>71</ele>
        <time>2014-04-20T09:25:39.979Z</time>
      </trkpt>
      <trkpt lat="48.2011" lon="3.28184">
        <ele>71</ele>
        <time>2014-04-20T09:25:40.979Z</time>
      </trkpt>
      <trkpt lat="48.20107" lon="3.28189">
        <ele>71</ele>
        <time>2014-04-20T09:25:41.979Z</time>
      </trkpt>
      <trkpt lat="48.20103" lon="3.28193">
        <ele>71</ele>
        <time>2014-04-20T09:25:42.979Z</time>
      </trkpt>
      <trkpt lat="48.20103" lon="3.28199">
        <ele>71</ele>
        <time>2014-04-20T09:25:43.979Z</time>
      </trkpt>
      <trkpt lat="48.20104" lon="3.28204">
        <ele>71</ele>
        <time>2014-04-20T09:25:44.979Z</time>
      </trkpt>
      <trkpt lat="48.20109" lon="3.28206">
        <ele>71</ele>
        <time>2014-04-20T09:25:45.979Z</time>
      </trkpt>
      <trkpt lat="48.20112" lon="3.28204">
        <ele>71</ele>
        <time>2014-04-20T09:25:46.979Z</time>
      </trkpt>
      <trkpt lat="48.20115" lon="3.28202">
        <ele>71</ele>
        <time>2014-04-20T09:25:47.979Z</time>
      </trkpt>
      <trkpt lat="48.20118" lon="3.28199">
        <ele>71</ele>
        <time>2014-04-20T09:25:48.979Z</time>
      </trkpt>
      <trkpt lat="48.20121" lon="3.28197">
        <ele>71</ele>
        <time>2014-04-20T09:25:49.979Z</time>
      </trkpt>
      <trkpt lat="48.20123" lon="3.28195">
        <ele>71</ele>
        <time>2014-04-20T09:25:50.979Z</time>
      </trkpt>
      <trkpt lat="48.20126" lon="3.28193">
        <ele>71</ele>
        <time>2014-04-20T09:25:51.979Z</time>
      </trkpt>
      <trkpt lat="48.20127" lon="3.28189">
        <ele>71</ele>
        <time>2014-04-20T09:25:52.979Z</time>
      </trkpt>
      <trkpt lat="48.2013" lon="3.28187">
        <ele>71</ele>
        <time>2014-04-20T09:25:53.979Z</time>
      </trkpt>
      <trkpt lat="48.20132" lon="3.28182">
        <ele>71</ele>
        <time>2014-04-20T09:25:54.979Z</time>
      </trkpt>
      <trkpt lat="48.20135" lon="3.2818">
        <ele>71</ele>
        <time>2014-04-20T09:25:55.979Z</time>
      </trkpt>
      <trkpt lat="48.20138" lon="3.28176">
        <ele>71</ele>
        <time>2014-04-20T09:25:56.979Z</time>
      </trkpt>
      <trkpt lat="48.20141" lon="3.28174">
        <ele>71</ele>
        <time>2014-04-20T09:25:57.979Z</time>
      </trkpt>
      <trkpt lat="48.20143" lon="3.28171">
        <ele>71</ele>
        <time>2014-04-20T09:25:58.979Z</time>
      </trkpt>
      <trkpt lat="48.20146" lon="3.28167">
        <ele>71</ele>
        <time>2014-04-20T09:25:59.979Z</time>
      </trkpt>
      <trkpt lat="48.2015" lon="3.28165">
        <ele>71</ele>
        <time>2014-04-20T09:26:00.979Z</time>
      </trkpt>
      <trkpt lat="48.20153" lon="3.28163">
        <ele>71</ele>
        <time>2014-04-20T09:26:01.979Z</time>
      </trkpt>
      <trkpt lat="48.20157" lon="3.28159">
        <ele>71</ele>
        <time>2014-04-20T09:26:02.979Z</time>
      </trkpt>
      <trkpt lat="48.2016" lon="3.28156">
        <ele>71</ele>
        <time>2014-04-20T09:26:03.979Z</time>
      </trkpt>
      <trkpt lat="48.20165" lon="3.28152">
        <ele>71</ele>
        <time>2014-04-20T09:26:04.979Z</time>
      </trkpt>
      <trkpt lat="48.20168" lon="3.2815">
        <ele>70</ele>
        <time>2014-04-20T09:26:05.979Z</time>
      </trkpt>
      <trkpt lat="48.20172" lon="3.28146">
        <ele>70</ele>
        <time>2014-04-20T09:26:06.979Z</time>
      </trkpt>
      <trkpt lat="48.20176" lon="3.28141">
        <ele>70</ele>
        <time>2014-04-20T09:26:07.979Z</time>
      </trkpt>
      <trkpt lat="48.2018" lon="3.28139">
        <ele>69</ele>
        <time>2014-04-20T09:26:08.979Z</time>
      </trkpt>
      <trkpt lat="48.20183" lon="3.28135">
        <ele>69</ele>
        <time>2014-04-20T09:26:09.979Z</time>
      </trkpt>
      <trkpt lat="48.20187" lon="3.28131">
        <ele>69</ele>
        <time>2014-04-20T09:26:10.979Z</time>
      </trkpt>
      <trkpt lat="48.2019" lon="3.28129">
        <ele>69</ele>
        <time>2014-04-20T09:26:11.979Z</time>
      </trkpt>
      <trkpt lat="48.20195" lon="3.28124">
        <ele>69</ele>
        <time>2014-04-20T09:26:12.979Z</time>
      </trkpt>
      <trkpt lat="48.20199" lon="3.2812">
        <ele>69</ele>
        <time>2014-04-20T09:26:13.979Z</time>
      </trkpt>
      <trkpt lat="48.20202" lon="3.28116">
        <ele>69</ele>
        <time>2014-04-20T09:26:14.979Z</time>
      </trkpt>
      <trkpt lat="48.20206" lon="3.28111">
        <ele>69</ele>
        <time>2014-04-20T09:26:15.979Z</time>
      </trkpt>
      <trkpt lat="48.20211" lon="3.28107">
        <ele>69</ele>
        <time>2014-04-20T09:26:16.979Z</time>
      </trkpt>
      <trkpt lat="48.20214" lon="3.28103">
        <ele>69</ele>
        <time>2014-04-20T09:26:17.979Z</time>
      </trkpt>
      <trkpt lat="48.20218" lon="3.28099">
        <ele>68</ele>
        <time>2014-04-20T09:26:18.979Z</time>
      </trkpt>
      <trkpt lat="48.20222" lon="3.28094">
        <ele>68</ele>
        <time>2014-04-20T09:26:19.979Z</time>
      </trkpt>
      <trkpt lat="48.20227" lon="3.2809">
        <ele>68</ele>
        <time>2014-04-20T09:26:20.979Z</time>
      </trkpt>
      <trkpt lat="48.20231" lon="3.28086">
        <ele>68</ele>
        <time>2014-04-20T09:26:21.979Z</time>
      </trkpt>
      <trkpt lat="48.20235" lon="3.28081">
        <ele>68</ele>
        <time>2014-04-20T09:26:22.979Z</time>
      </trkpt>
      <trkpt lat="48.2024" lon="3.28077">
        <ele>68</ele>
        <time>2014-04-20T09:26:23.979Z</time>
      </trkpt>
      <trkpt lat="48.20244" lon="3.28073">
        <ele>67</ele>
        <time>2014-04-20T09:26:24.979Z</time>
      </trkpt>
      <trkpt lat="48.20244" lon="3.28073">
        <ele>67</ele>
        <time>2014-04-20T09:26:29.979Z</time>
      </trkpt>
      <trkpt lat="48.20254" lon="3.28068">
        <ele>67</ele>
        <time>2014-04-20T09:26:30.979Z</time>
      </trkpt>
      <trkpt lat="48.20257" lon="3.28073">
        <ele>67</ele>
        <time>2014-04-20T09:29:30.979Z</time>
      </trkpt>
      <trkpt lat="48.20258" lon="3.28073">
        <ele>67</ele>
        <time>2014-04-20T09:29:31.979Z</time>
      </trkpt>
      <trkpt lat="48.20261" lon="3.28077">
        <ele>67</ele>
        <time>2014-04-20T09:29:35.979Z</time>
      </trkpt>
      <trkpt lat="48.20262" lon="3.28079">
        <ele>67</ele>
        <time>2014-04-20T09:29:36.979Z</time>
      </trkpt>
      <trkpt lat="48.20265" lon="3.28081">
        <ele>67</ele>
        <time>2014-04-20T09:29:39.979Z</time>
      </trkpt>
      <trkpt lat="48.20266" lon="3.28081">
        <ele>67</ele>
        <time>2014-04-20T09:29:40.979Z</time>
      </trkpt>
      <trkpt lat="48.2027" lon="3.28081">
        <ele>67</ele>
        <time>2014-04-20T09:29:44.979Z</time>
      </trkpt>
      <trkpt lat="48.20271" lon="3.28084">
        <ele>67</ele>
        <time>2014-04-20T09:29:45.979Z</time>
      </trkpt>
      <trkpt lat="48.20274" lon="3.28084">
        <ele>67</ele>
        <time>2014-04-20T09:29:49.979Z</time>
      </trkpt>
      <trkpt lat="48.20275" lon="3.28081">
        <ele>67</ele>
        <time>2014-04-20T09:29:50.979Z</time>
      </trkpt>
      <trkpt lat="48.20278" lon="3.28077">
        <ele>67</ele>
        <time>2014-04-20T09:29:56.979Z</time>
      </trkpt>
      <trkpt lat="48.20279" lon="3.28077">
        <ele>67</ele>
        <time>2014-04-20T09:29:57.979Z</time>
      </trkpt>
      <trkpt lat="48.20283" lon="3.28073">
        <ele>67</ele>
        <time>2014-04-20T09:30:27.979Z</time>
      </trkpt>
      <trkpt lat="48.20284" lon="3.28073">
        <ele>67</ele>
        <time>2014-04-20T09:30:28.979Z</time>
      </trkpt>
      <trkpt lat="48.20284" lon="3.28075">
        <ele>67</ele>
        <time>2014-04-20T09:30:35.979Z</time>
      </trkpt>
    </trkseg>
  </trk>
</gpx>